<?xml version="1.0" encoding="UTF-8" standalone="no" ?>
<gpx xmlns="http://www.topografix.com/GPX/1/1" xmlns:xsi="http://www.w3.org/2001/XMLSchema-instance" xsi:schemaLocation="http://www.topografix.com/GPX/1/1 http://www.topografix.com/GPX/1/1/gpx.xsd" version="1.1" creator="VisuGPX - https://www.visugpx.com">
  <metadata>
    <name>Course à pied le matin</name>
  </metadata>
  <trk>
    <name><![CDATA[Course à pied le matin_1]]></name>
    <trkseg>
      <trkpt lat="43.646" lon="1.37866">
        <ele>145</ele>
        <time>2025-04-12T07:54:49Z</time>
      </trkpt>
      <trkpt lat="43.64603" lon="1.37866">
        <ele>145</ele>
        <time>2025-04-12T07:54:50Z</time>
      </trkpt>
      <trkpt lat="43.64606" lon="1.37867">
        <ele>145</ele>
        <time>2025-04-12T07:54:51Z</time>
      </trkpt>
      <trkpt lat="43.64608" lon="1.37867">
        <ele>145</ele>
        <time>2025-04-12T07:54:52Z</time>
      </trkpt>
      <trkpt lat="43.6461" lon="1.37868">
        <ele>145</ele>
        <time>2025-04-12T07:54:53Z</time>
      </trkpt>
      <trkpt lat="43.64613" lon="1.37868">
        <ele>145</ele>
        <time>2025-04-12T07:54:54Z</time>
      </trkpt>
      <trkpt lat="43.64616" lon="1.37869">
        <ele>145</ele>
        <time>2025-04-12T07:54:55Z</time>
      </trkpt>
      <trkpt lat="43.6462" lon="1.3787">
        <ele>145</ele>
        <time>2025-04-12T07:54:56Z</time>
      </trkpt>
      <trkpt lat="43.64623" lon="1.3787">
        <ele>145</ele>
        <time>2025-04-12T07:54:57Z</time>
      </trkpt>
      <trkpt lat="43.64627" lon="1.37871">
        <ele>145</ele>
        <time>2025-04-12T07:54:58Z</time>
      </trkpt>
      <trkpt lat="43.6463" lon="1.37871">
        <ele>145</ele>
        <time>2025-04-12T07:54:59Z</time>
      </trkpt>
      <trkpt lat="43.64633" lon="1.37871">
        <ele>145</ele>
        <time>2025-04-12T07:55:00Z</time>
      </trkpt>
      <trkpt lat="43.64636" lon="1.3787">
        <ele>145</ele>
        <time>2025-04-12T07:55:01Z</time>
      </trkpt>
      <trkpt lat="43.64639" lon="1.3787">
        <ele>145</ele>
        <time>2025-04-12T07:55:02Z</time>
      </trkpt>
      <trkpt lat="43.64642" lon="1.3787">
        <ele>145</ele>
        <time>2025-04-12T07:55:03Z</time>
      </trkpt>
      <trkpt lat="43.64645" lon="1.3787">
        <ele>145</ele>
        <time>2025-04-12T07:55:04Z</time>
      </trkpt>
      <trkpt lat="43.64648" lon="1.3787">
        <ele>145</ele>
        <time>2025-04-12T07:55:05Z</time>
      </trkpt>
      <trkpt lat="43.64651" lon="1.37871">
        <ele>145</ele>
        <time>2025-04-12T07:55:06Z</time>
      </trkpt>
      <trkpt lat="43.64656" lon="1.37872">
        <ele>145</ele>
        <time>2025-04-12T07:55:08Z</time>
      </trkpt>
      <trkpt lat="43.64659" lon="1.37872">
        <ele>145</ele>
        <time>2025-04-12T07:55:09Z</time>
      </trkpt>
      <trkpt lat="43.64661" lon="1.37872">
        <ele>145</ele>
        <time>2025-04-12T07:55:10Z</time>
      </trkpt>
      <trkpt lat="43.64664" lon="1.37873">
        <ele>145</ele>
        <time>2025-04-12T07:55:11Z</time>
      </trkpt>
      <trkpt lat="43.64666" lon="1.37873">
        <ele>145</ele>
        <time>2025-04-12T07:55:12Z</time>
      </trkpt>
      <trkpt lat="43.64669" lon="1.37873">
        <ele>145</ele>
        <time>2025-04-12T07:55:13Z</time>
      </trkpt>
      <trkpt lat="43.64672" lon="1.37872">
        <ele>145</ele>
        <time>2025-04-12T07:55:14Z</time>
      </trkpt>
      <trkpt lat="43.64675" lon="1.37872">
        <ele>145</ele>
        <time>2025-04-12T07:55:15Z</time>
      </trkpt>
      <trkpt lat="43.64678" lon="1.37872">
        <ele>145</ele>
        <time>2025-04-12T07:55:16Z</time>
      </trkpt>
      <trkpt lat="43.6468" lon="1.37872">
        <ele>145</ele>
        <time>2025-04-12T07:55:17Z</time>
      </trkpt>
      <trkpt lat="43.64683" lon="1.37872">
        <ele>145</ele>
        <time>2025-04-12T07:55:18Z</time>
      </trkpt>
      <trkpt lat="43.64686" lon="1.37872">
        <ele>145</ele>
        <time>2025-04-12T07:55:19Z</time>
      </trkpt>
      <trkpt lat="43.64689" lon="1.37873">
        <ele>145</ele>
        <time>2025-04-12T07:55:20Z</time>
      </trkpt>
      <trkpt lat="43.64691" lon="1.37873">
        <ele>145</ele>
        <time>2025-04-12T07:55:21Z</time>
      </trkpt>
      <trkpt lat="43.64694" lon="1.37872">
        <ele>145</ele>
        <time>2025-04-12T07:55:22Z</time>
      </trkpt>
      <trkpt lat="43.64696" lon="1.37871">
        <ele>145</ele>
        <time>2025-04-12T07:55:23Z</time>
      </trkpt>
      <trkpt lat="43.64699" lon="1.37871">
        <ele>145</ele>
        <time>2025-04-12T07:55:24Z</time>
      </trkpt>
      <trkpt lat="43.64701" lon="1.37871">
        <ele>145</ele>
        <time>2025-04-12T07:55:25Z</time>
      </trkpt>
      <trkpt lat="43.64704" lon="1.37871">
        <ele>145</ele>
        <time>2025-04-12T07:55:26Z</time>
      </trkpt>
      <trkpt lat="43.64706" lon="1.37871">
        <ele>145</ele>
        <time>2025-04-12T07:55:27Z</time>
      </trkpt>
      <trkpt lat="43.64709" lon="1.37871">
        <ele>145</ele>
        <time>2025-04-12T07:55:28Z</time>
      </trkpt>
      <trkpt lat="43.64712" lon="1.37871">
        <ele>144</ele>
        <time>2025-04-12T07:55:29Z</time>
      </trkpt>
      <trkpt lat="43.64715" lon="1.3787">
        <ele>145</ele>
        <time>2025-04-12T07:55:30Z</time>
      </trkpt>
      <trkpt lat="43.64718" lon="1.3787">
        <ele>145</ele>
        <time>2025-04-12T07:55:31Z</time>
      </trkpt>
      <trkpt lat="43.6472" lon="1.3787">
        <ele>145</ele>
        <time>2025-04-12T07:55:32Z</time>
      </trkpt>
      <trkpt lat="43.64723" lon="1.3787">
        <ele>145</ele>
        <time>2025-04-12T07:55:33Z</time>
      </trkpt>
      <trkpt lat="43.64725" lon="1.3787">
        <ele>145</ele>
        <time>2025-04-12T07:55:34Z</time>
      </trkpt>
      <trkpt lat="43.64727" lon="1.37869">
        <ele>145</ele>
        <time>2025-04-12T07:55:35Z</time>
      </trkpt>
      <trkpt lat="43.64729" lon="1.37868">
        <ele>145</ele>
        <time>2025-04-12T07:55:36Z</time>
      </trkpt>
      <trkpt lat="43.64732" lon="1.37867">
        <ele>144</ele>
        <time>2025-04-12T07:55:37Z</time>
      </trkpt>
      <trkpt lat="43.64734" lon="1.37866">
        <ele>144</ele>
        <time>2025-04-12T07:55:38Z</time>
      </trkpt>
      <trkpt lat="43.64737" lon="1.37865">
        <ele>144</ele>
        <time>2025-04-12T07:55:39Z</time>
      </trkpt>
      <trkpt lat="43.6474" lon="1.37863">
        <ele>144</ele>
        <time>2025-04-12T07:55:40Z</time>
      </trkpt>
      <trkpt lat="43.64743" lon="1.37862">
        <ele>144</ele>
        <time>2025-04-12T07:55:41Z</time>
      </trkpt>
      <trkpt lat="43.64746" lon="1.37861">
        <ele>144</ele>
        <time>2025-04-12T07:55:42Z</time>
      </trkpt>
      <trkpt lat="43.64749" lon="1.3786">
        <ele>145</ele>
        <time>2025-04-12T07:55:43Z</time>
      </trkpt>
      <trkpt lat="43.64752" lon="1.37859">
        <ele>145</ele>
        <time>2025-04-12T07:55:44Z</time>
      </trkpt>
      <trkpt lat="43.64755" lon="1.37857">
        <ele>145</ele>
        <time>2025-04-12T07:55:45Z</time>
      </trkpt>
      <trkpt lat="43.64757" lon="1.37855">
        <ele>145</ele>
        <time>2025-04-12T07:55:46Z</time>
      </trkpt>
      <trkpt lat="43.6476" lon="1.37853">
        <ele>145</ele>
        <time>2025-04-12T07:55:47Z</time>
      </trkpt>
      <trkpt lat="43.64763" lon="1.37852">
        <ele>145</ele>
        <time>2025-04-12T07:55:48Z</time>
      </trkpt>
      <trkpt lat="43.64765" lon="1.37851">
        <ele>145</ele>
        <time>2025-04-12T07:55:49Z</time>
      </trkpt>
      <trkpt lat="43.64768" lon="1.37849">
        <ele>145</ele>
        <time>2025-04-12T07:55:50Z</time>
      </trkpt>
      <trkpt lat="43.64771" lon="1.37848">
        <ele>145</ele>
        <time>2025-04-12T07:55:51Z</time>
      </trkpt>
      <trkpt lat="43.64774" lon="1.37847">
        <ele>145</ele>
        <time>2025-04-12T07:55:52Z</time>
      </trkpt>
      <trkpt lat="43.64777" lon="1.37846">
        <ele>145</ele>
        <time>2025-04-12T07:55:53Z</time>
      </trkpt>
      <trkpt lat="43.6478" lon="1.37845">
        <ele>145</ele>
        <time>2025-04-12T07:55:54Z</time>
      </trkpt>
      <trkpt lat="43.64783" lon="1.37844">
        <ele>145</ele>
        <time>2025-04-12T07:55:55Z</time>
      </trkpt>
      <trkpt lat="43.64786" lon="1.37844">
        <ele>145</ele>
        <time>2025-04-12T07:55:56Z</time>
      </trkpt>
      <trkpt lat="43.64789" lon="1.37843">
        <ele>145</ele>
        <time>2025-04-12T07:55:57Z</time>
      </trkpt>
      <trkpt lat="43.64792" lon="1.37843">
        <ele>145</ele>
        <time>2025-04-12T07:55:58Z</time>
      </trkpt>
      <trkpt lat="43.64796" lon="1.37843">
        <ele>145</ele>
        <time>2025-04-12T07:55:59Z</time>
      </trkpt>
      <trkpt lat="43.64798" lon="1.37843">
        <ele>145</ele>
        <time>2025-04-12T07:56:00Z</time>
      </trkpt>
      <trkpt lat="43.64798" lon="1.37843">
        <ele>145</ele>
        <time>2025-04-12T07:56:01Z</time>
      </trkpt>
      <trkpt lat="43.648" lon="1.37843">
        <ele>145</ele>
        <time>2025-04-12T07:56:02Z</time>
      </trkpt>
      <trkpt lat="43.64801" lon="1.37843">
        <ele>145</ele>
        <time>2025-04-12T07:56:03Z</time>
      </trkpt>
      <trkpt lat="43.64803" lon="1.37843">
        <ele>145</ele>
        <time>2025-04-12T07:56:04Z</time>
      </trkpt>
      <trkpt lat="43.64804" lon="1.37843">
        <ele>145</ele>
        <time>2025-04-12T07:56:05Z</time>
      </trkpt>
      <trkpt lat="43.64812" lon="1.37844">
        <ele>145</ele>
        <time>2025-04-12T07:56:06Z</time>
      </trkpt>
      <trkpt lat="43.64815" lon="1.37844">
        <ele>145</ele>
        <time>2025-04-12T07:56:07Z</time>
      </trkpt>
      <trkpt lat="43.64817" lon="1.37845">
        <ele>145</ele>
        <time>2025-04-12T07:56:08Z</time>
      </trkpt>
      <trkpt lat="43.64819" lon="1.37845">
        <ele>145</ele>
        <time>2025-04-12T07:56:09Z</time>
      </trkpt>
      <trkpt lat="43.64822" lon="1.37846">
        <ele>145</ele>
        <time>2025-04-12T07:56:10Z</time>
      </trkpt>
      <trkpt lat="43.64825" lon="1.37846">
        <ele>145</ele>
        <time>2025-04-12T07:56:11Z</time>
      </trkpt>
      <trkpt lat="43.64827" lon="1.37846">
        <ele>145</ele>
        <time>2025-04-12T07:56:12Z</time>
      </trkpt>
      <trkpt lat="43.6483" lon="1.37847">
        <ele>145</ele>
        <time>2025-04-12T07:56:13Z</time>
      </trkpt>
      <trkpt lat="43.64833" lon="1.37848">
        <ele>145</ele>
        <time>2025-04-12T07:56:14Z</time>
      </trkpt>
      <trkpt lat="43.64835" lon="1.37848">
        <ele>144</ele>
        <time>2025-04-12T07:56:15Z</time>
      </trkpt>
      <trkpt lat="43.64838" lon="1.37849">
        <ele>144</ele>
        <time>2025-04-12T07:56:16Z</time>
      </trkpt>
      <trkpt lat="43.64838" lon="1.37849">
        <ele>144</ele>
        <time>2025-04-12T07:56:17Z</time>
      </trkpt>
      <trkpt lat="43.64838" lon="1.37849">
        <ele>144</ele>
        <time>2025-04-12T07:56:18Z</time>
      </trkpt>
      <trkpt lat="43.64849" lon="1.37853">
        <ele>144</ele>
        <time>2025-04-12T07:56:19Z</time>
      </trkpt>
      <trkpt lat="43.64849" lon="1.37853">
        <ele>145</ele>
        <time>2025-04-12T07:56:21Z</time>
      </trkpt>
      <trkpt lat="43.6486" lon="1.37856">
        <ele>145</ele>
        <time>2025-04-12T07:56:22Z</time>
      </trkpt>
      <trkpt lat="43.64861" lon="1.37856">
        <ele>145</ele>
        <time>2025-04-12T07:56:23Z</time>
      </trkpt>
      <trkpt lat="43.64864" lon="1.37857">
        <ele>145</ele>
        <time>2025-04-12T07:56:24Z</time>
      </trkpt>
      <trkpt lat="43.64866" lon="1.37857">
        <ele>144</ele>
        <time>2025-04-12T07:56:25Z</time>
      </trkpt>
      <trkpt lat="43.64868" lon="1.37858">
        <ele>144</ele>
        <time>2025-04-12T07:56:26Z</time>
      </trkpt>
      <trkpt lat="43.64871" lon="1.37858">
        <ele>144</ele>
        <time>2025-04-12T07:56:27Z</time>
      </trkpt>
      <trkpt lat="43.64873" lon="1.37859">
        <ele>144</ele>
        <time>2025-04-12T07:56:28Z</time>
      </trkpt>
      <trkpt lat="43.64875" lon="1.3786">
        <ele>144</ele>
        <time>2025-04-12T07:56:29Z</time>
      </trkpt>
      <trkpt lat="43.64877" lon="1.37862">
        <ele>144</ele>
        <time>2025-04-12T07:56:30Z</time>
      </trkpt>
      <trkpt lat="43.64879" lon="1.37863">
        <ele>144</ele>
        <time>2025-04-12T07:56:31Z</time>
      </trkpt>
      <trkpt lat="43.64881" lon="1.37864">
        <ele>144</ele>
        <time>2025-04-12T07:56:32Z</time>
      </trkpt>
      <trkpt lat="43.64884" lon="1.37865">
        <ele>144</ele>
        <time>2025-04-12T07:56:33Z</time>
      </trkpt>
      <trkpt lat="43.64886" lon="1.37867">
        <ele>144</ele>
        <time>2025-04-12T07:56:34Z</time>
      </trkpt>
      <trkpt lat="43.64889" lon="1.3787">
        <ele>144</ele>
        <time>2025-04-12T07:56:35Z</time>
      </trkpt>
      <trkpt lat="43.64891" lon="1.37872">
        <ele>145</ele>
        <time>2025-04-12T07:56:36Z</time>
      </trkpt>
      <trkpt lat="43.64893" lon="1.37874">
        <ele>145</ele>
        <time>2025-04-12T07:56:37Z</time>
      </trkpt>
      <trkpt lat="43.64893" lon="1.37874">
        <ele>144</ele>
        <time>2025-04-12T07:56:38Z</time>
      </trkpt>
      <trkpt lat="43.64898" lon="1.37877">
        <ele>144</ele>
        <time>2025-04-12T07:56:39Z</time>
      </trkpt>
      <trkpt lat="43.64901" lon="1.37879">
        <ele>144</ele>
        <time>2025-04-12T07:56:40Z</time>
      </trkpt>
      <trkpt lat="43.64903" lon="1.37882">
        <ele>144</ele>
        <time>2025-04-12T07:56:41Z</time>
      </trkpt>
      <trkpt lat="43.64905" lon="1.37884">
        <ele>144</ele>
        <time>2025-04-12T07:56:42Z</time>
      </trkpt>
      <trkpt lat="43.64908" lon="1.37886">
        <ele>144</ele>
        <time>2025-04-12T07:56:43Z</time>
      </trkpt>
      <trkpt lat="43.6491" lon="1.37888">
        <ele>144</ele>
        <time>2025-04-12T07:56:44Z</time>
      </trkpt>
      <trkpt lat="43.64912" lon="1.3789">
        <ele>144</ele>
        <time>2025-04-12T07:56:45Z</time>
      </trkpt>
      <trkpt lat="43.64914" lon="1.37893">
        <ele>144</ele>
        <time>2025-04-12T07:56:46Z</time>
      </trkpt>
      <trkpt lat="43.64917" lon="1.37895">
        <ele>144</ele>
        <time>2025-04-12T07:56:47Z</time>
      </trkpt>
      <trkpt lat="43.64919" lon="1.37896">
        <ele>144</ele>
        <time>2025-04-12T07:56:48Z</time>
      </trkpt>
      <trkpt lat="43.64921" lon="1.37898">
        <ele>144</ele>
        <time>2025-04-12T07:56:49Z</time>
      </trkpt>
      <trkpt lat="43.64923" lon="1.379">
        <ele>145</ele>
        <time>2025-04-12T07:56:50Z</time>
      </trkpt>
      <trkpt lat="43.64923" lon="1.379">
        <ele>145</ele>
        <time>2025-04-12T07:56:51Z</time>
      </trkpt>
      <trkpt lat="43.64925" lon="1.37902">
        <ele>145</ele>
        <time>2025-04-12T07:56:52Z</time>
      </trkpt>
      <trkpt lat="43.64928" lon="1.37905">
        <ele>145</ele>
        <time>2025-04-12T07:56:53Z</time>
      </trkpt>
      <trkpt lat="43.6493" lon="1.37907">
        <ele>145</ele>
        <time>2025-04-12T07:56:54Z</time>
      </trkpt>
      <trkpt lat="43.64933" lon="1.3791">
        <ele>145</ele>
        <time>2025-04-12T07:56:55Z</time>
      </trkpt>
      <trkpt lat="43.64935" lon="1.37912">
        <ele>145</ele>
        <time>2025-04-12T07:56:56Z</time>
      </trkpt>
      <trkpt lat="43.64935" lon="1.37912">
        <ele>145</ele>
        <time>2025-04-12T07:56:57Z</time>
      </trkpt>
      <trkpt lat="43.64941" lon="1.37918">
        <ele>145</ele>
        <time>2025-04-12T07:56:58Z</time>
      </trkpt>
      <trkpt lat="43.64943" lon="1.37922">
        <ele>145</ele>
        <time>2025-04-12T07:56:59Z</time>
      </trkpt>
      <trkpt lat="43.64943" lon="1.37922">
        <ele>145</ele>
        <time>2025-04-12T07:57:00Z</time>
      </trkpt>
      <trkpt lat="43.64944" lon="1.37926">
        <ele>145</ele>
        <time>2025-04-12T07:57:01Z</time>
      </trkpt>
      <trkpt lat="43.64945" lon="1.3793">
        <ele>145</ele>
        <time>2025-04-12T07:57:02Z</time>
      </trkpt>
      <trkpt lat="43.64946" lon="1.37934">
        <ele>145</ele>
        <time>2025-04-12T07:57:03Z</time>
      </trkpt>
      <trkpt lat="43.64947" lon="1.37938">
        <ele>145</ele>
        <time>2025-04-12T07:57:04Z</time>
      </trkpt>
      <trkpt lat="43.64948" lon="1.37943">
        <ele>145</ele>
        <time>2025-04-12T07:57:05Z</time>
      </trkpt>
      <trkpt lat="43.64949" lon="1.37947">
        <ele>145</ele>
        <time>2025-04-12T07:57:06Z</time>
      </trkpt>
      <trkpt lat="43.6495" lon="1.37952">
        <ele>145</ele>
        <time>2025-04-12T07:57:07Z</time>
      </trkpt>
      <trkpt lat="43.6495" lon="1.37957">
        <ele>145</ele>
        <time>2025-04-12T07:57:08Z</time>
      </trkpt>
      <trkpt lat="43.6495" lon="1.37959">
        <ele>145</ele>
        <time>2025-04-12T07:57:09Z</time>
      </trkpt>
      <trkpt lat="43.6495" lon="1.37963">
        <ele>145</ele>
        <time>2025-04-12T07:57:10Z</time>
      </trkpt>
      <trkpt lat="43.6495" lon="1.37966">
        <ele>145</ele>
        <time>2025-04-12T07:57:11Z</time>
      </trkpt>
      <trkpt lat="43.64951" lon="1.3797">
        <ele>145</ele>
        <time>2025-04-12T07:57:12Z</time>
      </trkpt>
      <trkpt lat="43.64951" lon="1.37974">
        <ele>145</ele>
        <time>2025-04-12T07:57:13Z</time>
      </trkpt>
      <trkpt lat="43.64951" lon="1.37978">
        <ele>145</ele>
        <time>2025-04-12T07:57:14Z</time>
      </trkpt>
      <trkpt lat="43.64952" lon="1.37982">
        <ele>145</ele>
        <time>2025-04-12T07:57:15Z</time>
      </trkpt>
      <trkpt lat="43.64952" lon="1.37982">
        <ele>145</ele>
        <time>2025-04-12T07:57:16Z</time>
      </trkpt>
      <trkpt lat="43.64956" lon="1.37989">
        <ele>145</ele>
        <time>2025-04-12T07:57:17Z</time>
      </trkpt>
      <trkpt lat="43.64956" lon="1.3799">
        <ele>145</ele>
        <time>2025-04-12T07:57:18Z</time>
      </trkpt>
      <trkpt lat="43.64958" lon="1.37992">
        <ele>145</ele>
        <time>2025-04-12T07:57:19Z</time>
      </trkpt>
      <trkpt lat="43.64959" lon="1.37995">
        <ele>145</ele>
        <time>2025-04-12T07:57:20Z</time>
      </trkpt>
      <trkpt lat="43.6496" lon="1.37998">
        <ele>145</ele>
        <time>2025-04-12T07:57:21Z</time>
      </trkpt>
      <trkpt lat="43.64962" lon="1.38001">
        <ele>145</ele>
        <time>2025-04-12T07:57:22Z</time>
      </trkpt>
      <trkpt lat="43.64963" lon="1.38005">
        <ele>145</ele>
        <time>2025-04-12T07:57:23Z</time>
      </trkpt>
      <trkpt lat="43.64964" lon="1.38009">
        <ele>145</ele>
        <time>2025-04-12T07:57:24Z</time>
      </trkpt>
      <trkpt lat="43.64965" lon="1.38012">
        <ele>145</ele>
        <time>2025-04-12T07:57:25Z</time>
      </trkpt>
      <trkpt lat="43.64966" lon="1.38014">
        <ele>145</ele>
        <time>2025-04-12T07:57:26Z</time>
      </trkpt>
      <trkpt lat="43.64966" lon="1.38014">
        <ele>145</ele>
        <time>2025-04-12T07:57:27Z</time>
      </trkpt>
      <trkpt lat="43.64969" lon="1.38015">
        <ele>145</ele>
        <time>2025-04-12T07:57:28Z</time>
      </trkpt>
      <trkpt lat="43.64969" lon="1.38015">
        <ele>145</ele>
        <time>2025-04-12T07:57:29Z</time>
      </trkpt>
      <trkpt lat="43.64972" lon="1.38018">
        <ele>145</ele>
        <time>2025-04-12T07:57:30Z</time>
      </trkpt>
      <trkpt lat="43.64976" lon="1.38021">
        <ele>145</ele>
        <time>2025-04-12T07:57:31Z</time>
      </trkpt>
      <trkpt lat="43.64979" lon="1.38024">
        <ele>145</ele>
        <time>2025-04-12T07:57:32Z</time>
      </trkpt>
      <trkpt lat="43.64981" lon="1.38028">
        <ele>145</ele>
        <time>2025-04-12T07:57:33Z</time>
      </trkpt>
      <trkpt lat="43.64981" lon="1.38028">
        <ele>145</ele>
        <time>2025-04-12T07:57:34Z</time>
      </trkpt>
      <trkpt lat="43.64984" lon="1.38034">
        <ele>145</ele>
        <time>2025-04-12T07:57:35Z</time>
      </trkpt>
      <trkpt lat="43.64984" lon="1.38034">
        <ele>145</ele>
        <time>2025-04-12T07:57:36Z</time>
      </trkpt>
      <trkpt lat="43.64984" lon="1.38037">
        <ele>145</ele>
        <time>2025-04-12T07:57:37Z</time>
      </trkpt>
      <trkpt lat="43.64985" lon="1.38041">
        <ele>145</ele>
        <time>2025-04-12T07:57:38Z</time>
      </trkpt>
      <trkpt lat="43.64986" lon="1.38044">
        <ele>145</ele>
        <time>2025-04-12T07:57:39Z</time>
      </trkpt>
      <trkpt lat="43.64988" lon="1.3805">
        <ele>145</ele>
        <time>2025-04-12T07:57:40Z</time>
      </trkpt>
      <trkpt lat="43.64989" lon="1.38053">
        <ele>145</ele>
        <time>2025-04-12T07:57:41Z</time>
      </trkpt>
      <trkpt lat="43.6499" lon="1.38056">
        <ele>145</ele>
        <time>2025-04-12T07:57:42Z</time>
      </trkpt>
      <trkpt lat="43.64991" lon="1.3806">
        <ele>145</ele>
        <time>2025-04-12T07:57:43Z</time>
      </trkpt>
      <trkpt lat="43.64991" lon="1.38063">
        <ele>145</ele>
        <time>2025-04-12T07:57:44Z</time>
      </trkpt>
      <trkpt lat="43.64992" lon="1.38066">
        <ele>145</ele>
        <time>2025-04-12T07:57:45Z</time>
      </trkpt>
      <trkpt lat="43.64992" lon="1.3807">
        <ele>145</ele>
        <time>2025-04-12T07:57:46Z</time>
      </trkpt>
      <trkpt lat="43.64993" lon="1.38073">
        <ele>145</ele>
        <time>2025-04-12T07:57:47Z</time>
      </trkpt>
      <trkpt lat="43.64995" lon="1.38077">
        <ele>145</ele>
        <time>2025-04-12T07:57:48Z</time>
      </trkpt>
      <trkpt lat="43.64996" lon="1.3808">
        <ele>145</ele>
        <time>2025-04-12T07:57:49Z</time>
      </trkpt>
      <trkpt lat="43.64998" lon="1.38084">
        <ele>145</ele>
        <time>2025-04-12T07:57:50Z</time>
      </trkpt>
      <trkpt lat="43.64999" lon="1.38087">
        <ele>145</ele>
        <time>2025-04-12T07:57:51Z</time>
      </trkpt>
      <trkpt lat="43.64999" lon="1.3809">
        <ele>145</ele>
        <time>2025-04-12T07:57:52Z</time>
      </trkpt>
      <trkpt lat="43.64999" lon="1.3809">
        <ele>145</ele>
        <time>2025-04-12T07:57:53Z</time>
      </trkpt>
      <trkpt lat="43.65001" lon="1.38096">
        <ele>145</ele>
        <time>2025-04-12T07:57:54Z</time>
      </trkpt>
      <trkpt lat="43.65002" lon="1.381">
        <ele>145</ele>
        <time>2025-04-12T07:57:55Z</time>
      </trkpt>
      <trkpt lat="43.65003" lon="1.38103">
        <ele>145</ele>
        <time>2025-04-12T07:57:56Z</time>
      </trkpt>
      <trkpt lat="43.65004" lon="1.38106">
        <ele>145</ele>
        <time>2025-04-12T07:57:57Z</time>
      </trkpt>
      <trkpt lat="43.65004" lon="1.38106">
        <ele>145</ele>
        <time>2025-04-12T07:57:58Z</time>
      </trkpt>
      <trkpt lat="43.65007" lon="1.38116">
        <ele>145</ele>
        <time>2025-04-12T07:57:59Z</time>
      </trkpt>
      <trkpt lat="43.65007" lon="1.38118">
        <ele>145</ele>
        <time>2025-04-12T07:58:00Z</time>
      </trkpt>
      <trkpt lat="43.65009" lon="1.38121">
        <ele>145</ele>
        <time>2025-04-12T07:58:01Z</time>
      </trkpt>
      <trkpt lat="43.6501" lon="1.38124">
        <ele>145</ele>
        <time>2025-04-12T07:58:02Z</time>
      </trkpt>
      <trkpt lat="43.65011" lon="1.38127">
        <ele>145</ele>
        <time>2025-04-12T07:58:03Z</time>
      </trkpt>
      <trkpt lat="43.65013" lon="1.38129">
        <ele>145</ele>
        <time>2025-04-12T07:58:04Z</time>
      </trkpt>
      <trkpt lat="43.65015" lon="1.38132">
        <ele>145</ele>
        <time>2025-04-12T07:58:05Z</time>
      </trkpt>
      <trkpt lat="43.65017" lon="1.38133">
        <ele>145</ele>
        <time>2025-04-12T07:58:06Z</time>
      </trkpt>
      <trkpt lat="43.65017" lon="1.38133">
        <ele>145</ele>
        <time>2025-04-12T07:58:07Z</time>
      </trkpt>
      <trkpt lat="43.65022" lon="1.38136">
        <ele>146</ele>
        <time>2025-04-12T07:58:08Z</time>
      </trkpt>
      <trkpt lat="43.65023" lon="1.38136">
        <ele>146</ele>
        <time>2025-04-12T07:58:09Z</time>
      </trkpt>
      <trkpt lat="43.65025" lon="1.38135">
        <ele>146</ele>
        <time>2025-04-12T07:58:10Z</time>
      </trkpt>
      <trkpt lat="43.65025" lon="1.38135">
        <ele>146</ele>
        <time>2025-04-12T07:58:11Z</time>
      </trkpt>
      <trkpt lat="43.65028" lon="1.38135">
        <ele>146</ele>
        <time>2025-04-12T07:58:12Z</time>
      </trkpt>
      <trkpt lat="43.6503" lon="1.38134">
        <ele>146</ele>
        <time>2025-04-12T07:58:13Z</time>
      </trkpt>
      <trkpt lat="43.65032" lon="1.38134">
        <ele>146</ele>
        <time>2025-04-12T07:58:14Z</time>
      </trkpt>
      <trkpt lat="43.65035" lon="1.38133">
        <ele>145</ele>
        <time>2025-04-12T07:58:15Z</time>
      </trkpt>
      <trkpt lat="43.6504" lon="1.38131">
        <ele>145</ele>
        <time>2025-04-12T07:58:16Z</time>
      </trkpt>
      <trkpt lat="43.65046" lon="1.38132">
        <ele>145</ele>
        <time>2025-04-12T07:58:18Z</time>
      </trkpt>
      <trkpt lat="43.65046" lon="1.38132">
        <ele>145</ele>
        <time>2025-04-12T07:58:19Z</time>
      </trkpt>
      <trkpt lat="43.6505" lon="1.38133">
        <ele>145</ele>
        <time>2025-04-12T07:58:20Z</time>
      </trkpt>
      <trkpt lat="43.65054" lon="1.38135">
        <ele>145</ele>
        <time>2025-04-12T07:58:21Z</time>
      </trkpt>
      <trkpt lat="43.65058" lon="1.38136">
        <ele>145</ele>
        <time>2025-04-12T07:58:22Z</time>
      </trkpt>
      <trkpt lat="43.6506" lon="1.38135">
        <ele>145</ele>
        <time>2025-04-12T07:58:23Z</time>
      </trkpt>
      <trkpt lat="43.65063" lon="1.38132">
        <ele>145</ele>
        <time>2025-04-12T07:58:24Z</time>
      </trkpt>
      <trkpt lat="43.65065" lon="1.38131">
        <ele>145</ele>
        <time>2025-04-12T07:58:25Z</time>
      </trkpt>
      <trkpt lat="43.65067" lon="1.38129">
        <ele>145</ele>
        <time>2025-04-12T07:58:26Z</time>
      </trkpt>
      <trkpt lat="43.65069" lon="1.38128">
        <ele>145</ele>
        <time>2025-04-12T07:58:27Z</time>
      </trkpt>
      <trkpt lat="43.65072" lon="1.38127">
        <ele>144</ele>
        <time>2025-04-12T07:58:28Z</time>
      </trkpt>
      <trkpt lat="43.65075" lon="1.38124">
        <ele>144</ele>
        <time>2025-04-12T07:58:29Z</time>
      </trkpt>
      <trkpt lat="43.65077" lon="1.38123">
        <ele>145</ele>
        <time>2025-04-12T07:58:30Z</time>
      </trkpt>
      <trkpt lat="43.65077" lon="1.38123">
        <ele>145</ele>
        <time>2025-04-12T07:58:31Z</time>
      </trkpt>
      <trkpt lat="43.65083" lon="1.38119">
        <ele>145</ele>
        <time>2025-04-12T07:58:32Z</time>
      </trkpt>
      <trkpt lat="43.65085" lon="1.38118">
        <ele>145</ele>
        <time>2025-04-12T07:58:33Z</time>
      </trkpt>
      <trkpt lat="43.65088" lon="1.38115">
        <ele>145</ele>
        <time>2025-04-12T07:58:34Z</time>
      </trkpt>
      <trkpt lat="43.6509" lon="1.38114">
        <ele>145</ele>
        <time>2025-04-12T07:58:35Z</time>
      </trkpt>
      <trkpt lat="43.65092" lon="1.38112">
        <ele>145</ele>
        <time>2025-04-12T07:58:36Z</time>
      </trkpt>
      <trkpt lat="43.65094" lon="1.38111">
        <ele>145</ele>
        <time>2025-04-12T07:58:37Z</time>
      </trkpt>
      <trkpt lat="43.65096" lon="1.38109">
        <ele>145</ele>
        <time>2025-04-12T07:58:38Z</time>
      </trkpt>
      <trkpt lat="43.65099" lon="1.38107">
        <ele>145</ele>
        <time>2025-04-12T07:58:39Z</time>
      </trkpt>
      <trkpt lat="43.65101" lon="1.38106">
        <ele>145</ele>
        <time>2025-04-12T07:58:40Z</time>
      </trkpt>
      <trkpt lat="43.65104" lon="1.38104">
        <ele>145</ele>
        <time>2025-04-12T07:58:41Z</time>
      </trkpt>
      <trkpt lat="43.65106" lon="1.38102">
        <ele>145</ele>
        <time>2025-04-12T07:58:42Z</time>
      </trkpt>
      <trkpt lat="43.65109" lon="1.381">
        <ele>145</ele>
        <time>2025-04-12T07:58:43Z</time>
      </trkpt>
      <trkpt lat="43.65111" lon="1.38098">
        <ele>145</ele>
        <time>2025-04-12T07:58:44Z</time>
      </trkpt>
      <trkpt lat="43.65113" lon="1.38096">
        <ele>145</ele>
        <time>2025-04-12T07:58:45Z</time>
      </trkpt>
      <trkpt lat="43.65116" lon="1.38095">
        <ele>145</ele>
        <time>2025-04-12T07:58:46Z</time>
      </trkpt>
      <trkpt lat="43.65118" lon="1.38093">
        <ele>145</ele>
        <time>2025-04-12T07:58:47Z</time>
      </trkpt>
      <trkpt lat="43.6512" lon="1.38092">
        <ele>145</ele>
        <time>2025-04-12T07:58:48Z</time>
      </trkpt>
      <trkpt lat="43.65122" lon="1.3809">
        <ele>146</ele>
        <time>2025-04-12T07:58:49Z</time>
      </trkpt>
      <trkpt lat="43.65125" lon="1.38089">
        <ele>146</ele>
        <time>2025-04-12T07:58:50Z</time>
      </trkpt>
      <trkpt lat="43.65127" lon="1.38088">
        <ele>146</ele>
        <time>2025-04-12T07:58:51Z</time>
      </trkpt>
      <trkpt lat="43.6513" lon="1.38087">
        <ele>146</ele>
        <time>2025-04-12T07:58:52Z</time>
      </trkpt>
      <trkpt lat="43.65132" lon="1.38086">
        <ele>146</ele>
        <time>2025-04-12T07:58:53Z</time>
      </trkpt>
      <trkpt lat="43.65134" lon="1.38085">
        <ele>146</ele>
        <time>2025-04-12T07:58:54Z</time>
      </trkpt>
      <trkpt lat="43.65136" lon="1.38083">
        <ele>146</ele>
        <time>2025-04-12T07:58:55Z</time>
      </trkpt>
      <trkpt lat="43.65139" lon="1.38081">
        <ele>146</ele>
        <time>2025-04-12T07:58:56Z</time>
      </trkpt>
      <trkpt lat="43.65141" lon="1.38079">
        <ele>145</ele>
        <time>2025-04-12T07:58:57Z</time>
      </trkpt>
      <trkpt lat="43.65144" lon="1.38078">
        <ele>145</ele>
        <time>2025-04-12T07:58:58Z</time>
      </trkpt>
      <trkpt lat="43.65146" lon="1.38076">
        <ele>145</ele>
        <time>2025-04-12T07:58:59Z</time>
      </trkpt>
      <trkpt lat="43.65149" lon="1.38074">
        <ele>145</ele>
        <time>2025-04-12T07:59:00Z</time>
      </trkpt>
      <trkpt lat="43.65152" lon="1.38073">
        <ele>145</ele>
        <time>2025-04-12T07:59:01Z</time>
      </trkpt>
      <trkpt lat="43.65154" lon="1.38071">
        <ele>145</ele>
        <time>2025-04-12T07:59:02Z</time>
      </trkpt>
      <trkpt lat="43.65156" lon="1.38069">
        <ele>145</ele>
        <time>2025-04-12T07:59:03Z</time>
      </trkpt>
      <trkpt lat="43.65159" lon="1.38067">
        <ele>145</ele>
        <time>2025-04-12T07:59:04Z</time>
      </trkpt>
      <trkpt lat="43.65161" lon="1.38066">
        <ele>146</ele>
        <time>2025-04-12T07:59:05Z</time>
      </trkpt>
      <trkpt lat="43.65164" lon="1.38064">
        <ele>146</ele>
        <time>2025-04-12T07:59:06Z</time>
      </trkpt>
      <trkpt lat="43.65166" lon="1.38062">
        <ele>146</ele>
        <time>2025-04-12T07:59:07Z</time>
      </trkpt>
      <trkpt lat="43.65166" lon="1.38062">
        <ele>146</ele>
        <time>2025-04-12T07:59:08Z</time>
      </trkpt>
      <trkpt lat="43.65171" lon="1.38059">
        <ele>145</ele>
        <time>2025-04-12T07:59:09Z</time>
      </trkpt>
      <trkpt lat="43.65174" lon="1.38057">
        <ele>145</ele>
        <time>2025-04-12T07:59:10Z</time>
      </trkpt>
      <trkpt lat="43.65176" lon="1.38056">
        <ele>145</ele>
        <time>2025-04-12T07:59:11Z</time>
      </trkpt>
      <trkpt lat="43.65179" lon="1.38054">
        <ele>145</ele>
        <time>2025-04-12T07:59:12Z</time>
      </trkpt>
      <trkpt lat="43.65181" lon="1.38053">
        <ele>145</ele>
        <time>2025-04-12T07:59:13Z</time>
      </trkpt>
      <trkpt lat="43.65181" lon="1.38053">
        <ele>145</ele>
        <time>2025-04-12T07:59:14Z</time>
      </trkpt>
      <trkpt lat="43.65186" lon="1.3805">
        <ele>145</ele>
        <time>2025-04-12T07:59:15Z</time>
      </trkpt>
      <trkpt lat="43.65188" lon="1.38048">
        <ele>145</ele>
        <time>2025-04-12T07:59:16Z</time>
      </trkpt>
      <trkpt lat="43.65191" lon="1.38047">
        <ele>145</ele>
        <time>2025-04-12T07:59:17Z</time>
      </trkpt>
      <trkpt lat="43.65191" lon="1.38047">
        <ele>145</ele>
        <time>2025-04-12T07:59:18Z</time>
      </trkpt>
      <trkpt lat="43.65193" lon="1.38045">
        <ele>145</ele>
        <time>2025-04-12T07:59:19Z</time>
      </trkpt>
      <trkpt lat="43.65198" lon="1.38042">
        <ele>145</ele>
        <time>2025-04-12T07:59:20Z</time>
      </trkpt>
      <trkpt lat="43.652" lon="1.3804">
        <ele>145</ele>
        <time>2025-04-12T07:59:21Z</time>
      </trkpt>
      <trkpt lat="43.65202" lon="1.38039">
        <ele>145</ele>
        <time>2025-04-12T07:59:22Z</time>
      </trkpt>
      <trkpt lat="43.65205" lon="1.38037">
        <ele>145</ele>
        <time>2025-04-12T07:59:23Z</time>
      </trkpt>
      <trkpt lat="43.65207" lon="1.38036">
        <ele>145</ele>
        <time>2025-04-12T07:59:24Z</time>
      </trkpt>
      <trkpt lat="43.65209" lon="1.38034">
        <ele>145</ele>
        <time>2025-04-12T07:59:25Z</time>
      </trkpt>
      <trkpt lat="43.65211" lon="1.38033">
        <ele>145</ele>
        <time>2025-04-12T07:59:26Z</time>
      </trkpt>
      <trkpt lat="43.65214" lon="1.38032">
        <ele>145</ele>
        <time>2025-04-12T07:59:27Z</time>
      </trkpt>
      <trkpt lat="43.65216" lon="1.3803">
        <ele>145</ele>
        <time>2025-04-12T07:59:28Z</time>
      </trkpt>
      <trkpt lat="43.65219" lon="1.3803">
        <ele>145</ele>
        <time>2025-04-12T07:59:29Z</time>
      </trkpt>
      <trkpt lat="43.65221" lon="1.38031">
        <ele>145</ele>
        <time>2025-04-12T07:59:30Z</time>
      </trkpt>
      <trkpt lat="43.65224" lon="1.38035">
        <ele>146</ele>
        <time>2025-04-12T07:59:31Z</time>
      </trkpt>
      <trkpt lat="43.65225" lon="1.38039">
        <ele>146</ele>
        <time>2025-04-12T07:59:32Z</time>
      </trkpt>
      <trkpt lat="43.65226" lon="1.38043">
        <ele>147</ele>
        <time>2025-04-12T07:59:33Z</time>
      </trkpt>
      <trkpt lat="43.65227" lon="1.38047">
        <ele>147</ele>
        <time>2025-04-12T07:59:34Z</time>
      </trkpt>
      <trkpt lat="43.65228" lon="1.3805">
        <ele>147</ele>
        <time>2025-04-12T07:59:35Z</time>
      </trkpt>
      <trkpt lat="43.6523" lon="1.38054">
        <ele>146</ele>
        <time>2025-04-12T07:59:36Z</time>
      </trkpt>
      <trkpt lat="43.65231" lon="1.38058">
        <ele>146</ele>
        <time>2025-04-12T07:59:37Z</time>
      </trkpt>
      <trkpt lat="43.65232" lon="1.38061">
        <ele>146</ele>
        <time>2025-04-12T07:59:38Z</time>
      </trkpt>
      <trkpt lat="43.65233" lon="1.38065">
        <ele>146</ele>
        <time>2025-04-12T07:59:39Z</time>
      </trkpt>
      <trkpt lat="43.65234" lon="1.38068">
        <ele>146</ele>
        <time>2025-04-12T07:59:40Z</time>
      </trkpt>
      <trkpt lat="43.65236" lon="1.38072">
        <ele>146</ele>
        <time>2025-04-12T07:59:41Z</time>
      </trkpt>
      <trkpt lat="43.65237" lon="1.38075">
        <ele>146</ele>
        <time>2025-04-12T07:59:42Z</time>
      </trkpt>
      <trkpt lat="43.65238" lon="1.38079">
        <ele>146</ele>
        <time>2025-04-12T07:59:43Z</time>
      </trkpt>
      <trkpt lat="43.65238" lon="1.38079">
        <ele>146</ele>
        <time>2025-04-12T07:59:44Z</time>
      </trkpt>
      <trkpt lat="43.6524" lon="1.38086">
        <ele>146</ele>
        <time>2025-04-12T07:59:45Z</time>
      </trkpt>
      <trkpt lat="43.65241" lon="1.38089">
        <ele>146</ele>
        <time>2025-04-12T07:59:46Z</time>
      </trkpt>
      <trkpt lat="43.65242" lon="1.38093">
        <ele>146</ele>
        <time>2025-04-12T07:59:47Z</time>
      </trkpt>
      <trkpt lat="43.65243" lon="1.38096">
        <ele>146</ele>
        <time>2025-04-12T07:59:48Z</time>
      </trkpt>
      <trkpt lat="43.65244" lon="1.381">
        <ele>146</ele>
        <time>2025-04-12T07:59:49Z</time>
      </trkpt>
      <trkpt lat="43.65245" lon="1.38104">
        <ele>146</ele>
        <time>2025-04-12T07:59:50Z</time>
      </trkpt>
      <trkpt lat="43.65246" lon="1.38107">
        <ele>146</ele>
        <time>2025-04-12T07:59:51Z</time>
      </trkpt>
      <trkpt lat="43.65247" lon="1.38111">
        <ele>146</ele>
        <time>2025-04-12T07:59:52Z</time>
      </trkpt>
      <trkpt lat="43.65247" lon="1.38115">
        <ele>146</ele>
        <time>2025-04-12T07:59:53Z</time>
      </trkpt>
      <trkpt lat="43.65248" lon="1.38119">
        <ele>146</ele>
        <time>2025-04-12T07:59:54Z</time>
      </trkpt>
      <trkpt lat="43.65248" lon="1.38123">
        <ele>145</ele>
        <time>2025-04-12T07:59:55Z</time>
      </trkpt>
      <trkpt lat="43.65247" lon="1.38127">
        <ele>146</ele>
        <time>2025-04-12T07:59:56Z</time>
      </trkpt>
      <trkpt lat="43.65244" lon="1.38129">
        <ele>146</ele>
        <time>2025-04-12T07:59:57Z</time>
      </trkpt>
      <trkpt lat="43.65244" lon="1.38129">
        <ele>146</ele>
        <time>2025-04-12T07:59:58Z</time>
      </trkpt>
      <trkpt lat="43.65242" lon="1.38132">
        <ele>146</ele>
        <time>2025-04-12T07:59:59Z</time>
      </trkpt>
      <trkpt lat="43.65236" lon="1.38135">
        <ele>146</ele>
        <time>2025-04-12T08:00:00Z</time>
      </trkpt>
      <trkpt lat="43.65233" lon="1.38136">
        <ele>146</ele>
        <time>2025-04-12T08:00:01Z</time>
      </trkpt>
      <trkpt lat="43.65231" lon="1.38138">
        <ele>145</ele>
        <time>2025-04-12T08:00:02Z</time>
      </trkpt>
      <trkpt lat="43.65228" lon="1.3814">
        <ele>145</ele>
        <time>2025-04-12T08:00:03Z</time>
      </trkpt>
      <trkpt lat="43.65226" lon="1.38142">
        <ele>145</ele>
        <time>2025-04-12T08:00:04Z</time>
      </trkpt>
      <trkpt lat="43.65223" lon="1.38144">
        <ele>145</ele>
        <time>2025-04-12T08:00:05Z</time>
      </trkpt>
      <trkpt lat="43.65221" lon="1.38146">
        <ele>145</ele>
        <time>2025-04-12T08:00:06Z</time>
      </trkpt>
      <trkpt lat="43.65219" lon="1.38148">
        <ele>145</ele>
        <time>2025-04-12T08:00:07Z</time>
      </trkpt>
      <trkpt lat="43.65217" lon="1.3815">
        <ele>145</ele>
        <time>2025-04-12T08:00:08Z</time>
      </trkpt>
      <trkpt lat="43.65214" lon="1.38151">
        <ele>145</ele>
        <time>2025-04-12T08:00:09Z</time>
      </trkpt>
      <trkpt lat="43.65211" lon="1.38153">
        <ele>145</ele>
        <time>2025-04-12T08:00:10Z</time>
      </trkpt>
      <trkpt lat="43.65206" lon="1.38157">
        <ele>145</ele>
        <time>2025-04-12T08:00:12Z</time>
      </trkpt>
      <trkpt lat="43.65204" lon="1.38159">
        <ele>145</ele>
        <time>2025-04-12T08:00:13Z</time>
      </trkpt>
      <trkpt lat="43.65202" lon="1.38161">
        <ele>145</ele>
        <time>2025-04-12T08:00:14Z</time>
      </trkpt>
      <trkpt lat="43.652" lon="1.38163">
        <ele>145</ele>
        <time>2025-04-12T08:00:15Z</time>
      </trkpt>
      <trkpt lat="43.65198" lon="1.38166">
        <ele>145</ele>
        <time>2025-04-12T08:00:16Z</time>
      </trkpt>
      <trkpt lat="43.65196" lon="1.38168">
        <ele>145</ele>
        <time>2025-04-12T08:00:17Z</time>
      </trkpt>
      <trkpt lat="43.65194" lon="1.3817">
        <ele>145</ele>
        <time>2025-04-12T08:00:18Z</time>
      </trkpt>
      <trkpt lat="43.65192" lon="1.38172">
        <ele>145</ele>
        <time>2025-04-12T08:00:19Z</time>
      </trkpt>
      <trkpt lat="43.65188" lon="1.38177">
        <ele>145</ele>
        <time>2025-04-12T08:00:21Z</time>
      </trkpt>
      <trkpt lat="43.65185" lon="1.38179">
        <ele>145</ele>
        <time>2025-04-12T08:00:22Z</time>
      </trkpt>
      <trkpt lat="43.65183" lon="1.38182">
        <ele>145</ele>
        <time>2025-04-12T08:00:23Z</time>
      </trkpt>
      <trkpt lat="43.65181" lon="1.38184">
        <ele>145</ele>
        <time>2025-04-12T08:00:24Z</time>
      </trkpt>
      <trkpt lat="43.65179" lon="1.38186">
        <ele>145</ele>
        <time>2025-04-12T08:00:25Z</time>
      </trkpt>
      <trkpt lat="43.65176" lon="1.38189">
        <ele>145</ele>
        <time>2025-04-12T08:00:26Z</time>
      </trkpt>
      <trkpt lat="43.65174" lon="1.38191">
        <ele>145</ele>
        <time>2025-04-12T08:00:27Z</time>
      </trkpt>
      <trkpt lat="43.65172" lon="1.38194">
        <ele>145</ele>
        <time>2025-04-12T08:00:28Z</time>
      </trkpt>
      <trkpt lat="43.6517" lon="1.38196">
        <ele>145</ele>
        <time>2025-04-12T08:00:29Z</time>
      </trkpt>
      <trkpt lat="43.6517" lon="1.38196">
        <ele>145</ele>
        <time>2025-04-12T08:00:30Z</time>
      </trkpt>
      <trkpt lat="43.65167" lon="1.38202">
        <ele>145</ele>
        <time>2025-04-12T08:00:31Z</time>
      </trkpt>
      <trkpt lat="43.65166" lon="1.38206">
        <ele>145</ele>
        <time>2025-04-12T08:00:32Z</time>
      </trkpt>
      <trkpt lat="43.65165" lon="1.38209">
        <ele>144</ele>
        <time>2025-04-12T08:00:33Z</time>
      </trkpt>
      <trkpt lat="43.65165" lon="1.38213">
        <ele>144</ele>
        <time>2025-04-12T08:00:34Z</time>
      </trkpt>
      <trkpt lat="43.65165" lon="1.38216">
        <ele>144</ele>
        <time>2025-04-12T08:00:35Z</time>
      </trkpt>
      <trkpt lat="43.65164" lon="1.3822">
        <ele>144</ele>
        <time>2025-04-12T08:00:36Z</time>
      </trkpt>
      <trkpt lat="43.65164" lon="1.38224">
        <ele>144</ele>
        <time>2025-04-12T08:00:37Z</time>
      </trkpt>
      <trkpt lat="43.65165" lon="1.38227">
        <ele>144</ele>
        <time>2025-04-12T08:00:38Z</time>
      </trkpt>
      <trkpt lat="43.65165" lon="1.3823">
        <ele>144</ele>
        <time>2025-04-12T08:00:39Z</time>
      </trkpt>
      <trkpt lat="43.65166" lon="1.38234">
        <ele>144</ele>
        <time>2025-04-12T08:00:40Z</time>
      </trkpt>
      <trkpt lat="43.65167" lon="1.38237">
        <ele>144</ele>
        <time>2025-04-12T08:00:41Z</time>
      </trkpt>
      <trkpt lat="43.65168" lon="1.38241">
        <ele>144</ele>
        <time>2025-04-12T08:00:42Z</time>
      </trkpt>
      <trkpt lat="43.65168" lon="1.38244">
        <ele>144</ele>
        <time>2025-04-12T08:00:43Z</time>
      </trkpt>
      <trkpt lat="43.65169" lon="1.38247">
        <ele>144</ele>
        <time>2025-04-12T08:00:44Z</time>
      </trkpt>
      <trkpt lat="43.6517" lon="1.38251">
        <ele>144</ele>
        <time>2025-04-12T08:00:45Z</time>
      </trkpt>
      <trkpt lat="43.6517" lon="1.38254">
        <ele>144</ele>
        <time>2025-04-12T08:00:46Z</time>
      </trkpt>
      <trkpt lat="43.65171" lon="1.38257">
        <ele>144</ele>
        <time>2025-04-12T08:00:47Z</time>
      </trkpt>
      <trkpt lat="43.65172" lon="1.38261">
        <ele>144</ele>
        <time>2025-04-12T08:00:48Z</time>
      </trkpt>
      <trkpt lat="43.65172" lon="1.38261">
        <ele>143</ele>
        <time>2025-04-12T08:00:49Z</time>
      </trkpt>
      <trkpt lat="43.65174" lon="1.38268">
        <ele>143</ele>
        <time>2025-04-12T08:00:50Z</time>
      </trkpt>
      <trkpt lat="43.65175" lon="1.38271">
        <ele>143</ele>
        <time>2025-04-12T08:00:51Z</time>
      </trkpt>
      <trkpt lat="43.65176" lon="1.38274">
        <ele>143</ele>
        <time>2025-04-12T08:00:52Z</time>
      </trkpt>
      <trkpt lat="43.65177" lon="1.38277">
        <ele>143</ele>
        <time>2025-04-12T08:00:53Z</time>
      </trkpt>
      <trkpt lat="43.65177" lon="1.3828">
        <ele>143</ele>
        <time>2025-04-12T08:00:54Z</time>
      </trkpt>
      <trkpt lat="43.65178" lon="1.38284">
        <ele>143</ele>
        <time>2025-04-12T08:00:55Z</time>
      </trkpt>
      <trkpt lat="43.65179" lon="1.38287">
        <ele>144</ele>
        <time>2025-04-12T08:00:56Z</time>
      </trkpt>
      <trkpt lat="43.65179" lon="1.3829">
        <ele>144</ele>
        <time>2025-04-12T08:00:57Z</time>
      </trkpt>
      <trkpt lat="43.65181" lon="1.38297">
        <ele>143</ele>
        <time>2025-04-12T08:00:59Z</time>
      </trkpt>
      <trkpt lat="43.65182" lon="1.383">
        <ele>143</ele>
        <time>2025-04-12T08:01:00Z</time>
      </trkpt>
      <trkpt lat="43.65182" lon="1.38304">
        <ele>143</ele>
        <time>2025-04-12T08:01:01Z</time>
      </trkpt>
      <trkpt lat="43.65182" lon="1.38307">
        <ele>144</ele>
        <time>2025-04-12T08:01:02Z</time>
      </trkpt>
      <trkpt lat="43.65183" lon="1.3831">
        <ele>144</ele>
        <time>2025-04-12T08:01:03Z</time>
      </trkpt>
      <trkpt lat="43.65184" lon="1.38313">
        <ele>143</ele>
        <time>2025-04-12T08:01:04Z</time>
      </trkpt>
      <trkpt lat="43.65184" lon="1.38316">
        <ele>143</ele>
        <time>2025-04-12T08:01:05Z</time>
      </trkpt>
      <trkpt lat="43.65185" lon="1.3832">
        <ele>143</ele>
        <time>2025-04-12T08:01:06Z</time>
      </trkpt>
      <trkpt lat="43.65185" lon="1.38324">
        <ele>144</ele>
        <time>2025-04-12T08:01:07Z</time>
      </trkpt>
      <trkpt lat="43.65185" lon="1.38324">
        <ele>144</ele>
        <time>2025-04-12T08:01:08Z</time>
      </trkpt>
      <trkpt lat="43.65186" lon="1.38331">
        <ele>144</ele>
        <time>2025-04-12T08:01:09Z</time>
      </trkpt>
      <trkpt lat="43.65187" lon="1.38335">
        <ele>144</ele>
        <time>2025-04-12T08:01:10Z</time>
      </trkpt>
      <trkpt lat="43.65187" lon="1.38339">
        <ele>144</ele>
        <time>2025-04-12T08:01:11Z</time>
      </trkpt>
      <trkpt lat="43.65188" lon="1.38342">
        <ele>144</ele>
        <time>2025-04-12T08:01:12Z</time>
      </trkpt>
      <trkpt lat="43.65188" lon="1.38346">
        <ele>144</ele>
        <time>2025-04-12T08:01:13Z</time>
      </trkpt>
      <trkpt lat="43.65188" lon="1.38349">
        <ele>144</ele>
        <time>2025-04-12T08:01:14Z</time>
      </trkpt>
      <trkpt lat="43.65189" lon="1.38353">
        <ele>144</ele>
        <time>2025-04-12T08:01:15Z</time>
      </trkpt>
      <trkpt lat="43.65189" lon="1.38357">
        <ele>144</ele>
        <time>2025-04-12T08:01:16Z</time>
      </trkpt>
      <trkpt lat="43.65189" lon="1.3836">
        <ele>145</ele>
        <time>2025-04-12T08:01:17Z</time>
      </trkpt>
      <trkpt lat="43.65189" lon="1.38364">
        <ele>145</ele>
        <time>2025-04-12T08:01:18Z</time>
      </trkpt>
      <trkpt lat="43.6519" lon="1.38368">
        <ele>145</ele>
        <time>2025-04-12T08:01:19Z</time>
      </trkpt>
      <trkpt lat="43.6519" lon="1.38372">
        <ele>145</ele>
        <time>2025-04-12T08:01:20Z</time>
      </trkpt>
      <trkpt lat="43.65191" lon="1.38376">
        <ele>145</ele>
        <time>2025-04-12T08:01:21Z</time>
      </trkpt>
      <trkpt lat="43.65191" lon="1.3838">
        <ele>145</ele>
        <time>2025-04-12T08:01:22Z</time>
      </trkpt>
      <trkpt lat="43.65192" lon="1.38384">
        <ele>145</ele>
        <time>2025-04-12T08:01:23Z</time>
      </trkpt>
      <trkpt lat="43.65193" lon="1.38388">
        <ele>145</ele>
        <time>2025-04-12T08:01:24Z</time>
      </trkpt>
      <trkpt lat="43.65194" lon="1.38391">
        <ele>144</ele>
        <time>2025-04-12T08:01:25Z</time>
      </trkpt>
      <trkpt lat="43.65196" lon="1.38395">
        <ele>144</ele>
        <time>2025-04-12T08:01:26Z</time>
      </trkpt>
      <trkpt lat="43.65197" lon="1.38398">
        <ele>143</ele>
        <time>2025-04-12T08:01:27Z</time>
      </trkpt>
      <trkpt lat="43.65199" lon="1.384">
        <ele>143</ele>
        <time>2025-04-12T08:01:28Z</time>
      </trkpt>
      <trkpt lat="43.65201" lon="1.38403">
        <ele>143</ele>
        <time>2025-04-12T08:01:29Z</time>
      </trkpt>
      <trkpt lat="43.65203" lon="1.38406">
        <ele>143</ele>
        <time>2025-04-12T08:01:30Z</time>
      </trkpt>
      <trkpt lat="43.65205" lon="1.38408">
        <ele>143</ele>
        <time>2025-04-12T08:01:31Z</time>
      </trkpt>
      <trkpt lat="43.65207" lon="1.3841">
        <ele>143</ele>
        <time>2025-04-12T08:01:32Z</time>
      </trkpt>
      <trkpt lat="43.65209" lon="1.38412">
        <ele>143</ele>
        <time>2025-04-12T08:01:33Z</time>
      </trkpt>
      <trkpt lat="43.6521" lon="1.38415">
        <ele>142</ele>
        <time>2025-04-12T08:01:34Z</time>
      </trkpt>
      <trkpt lat="43.65212" lon="1.38418">
        <ele>142</ele>
        <time>2025-04-12T08:01:35Z</time>
      </trkpt>
      <trkpt lat="43.65215" lon="1.38424">
        <ele>142</ele>
        <time>2025-04-12T08:01:37Z</time>
      </trkpt>
      <trkpt lat="43.65216" lon="1.38427">
        <ele>142</ele>
        <time>2025-04-12T08:01:38Z</time>
      </trkpt>
      <trkpt lat="43.65216" lon="1.38431">
        <ele>142</ele>
        <time>2025-04-12T08:01:39Z</time>
      </trkpt>
      <trkpt lat="43.65217" lon="1.38434">
        <ele>142</ele>
        <time>2025-04-12T08:01:40Z</time>
      </trkpt>
      <trkpt lat="43.65219" lon="1.38438">
        <ele>142</ele>
        <time>2025-04-12T08:01:41Z</time>
      </trkpt>
      <trkpt lat="43.6522" lon="1.38441">
        <ele>142</ele>
        <time>2025-04-12T08:01:42Z</time>
      </trkpt>
      <trkpt lat="43.65222" lon="1.38444">
        <ele>142</ele>
        <time>2025-04-12T08:01:43Z</time>
      </trkpt>
      <trkpt lat="43.65223" lon="1.38447">
        <ele>142</ele>
        <time>2025-04-12T08:01:44Z</time>
      </trkpt>
      <trkpt lat="43.65224" lon="1.38449">
        <ele>141</ele>
        <time>2025-04-12T08:01:45Z</time>
      </trkpt>
      <trkpt lat="43.65224" lon="1.38449">
        <ele>141</ele>
        <time>2025-04-12T08:01:46Z</time>
      </trkpt>
      <trkpt lat="43.65226" lon="1.38455">
        <ele>141</ele>
        <time>2025-04-12T08:01:47Z</time>
      </trkpt>
      <trkpt lat="43.65227" lon="1.38459">
        <ele>141</ele>
        <time>2025-04-12T08:01:48Z</time>
      </trkpt>
      <trkpt lat="43.65228" lon="1.38462">
        <ele>141</ele>
        <time>2025-04-12T08:01:49Z</time>
      </trkpt>
      <trkpt lat="43.65228" lon="1.38465">
        <ele>141</ele>
        <time>2025-04-12T08:01:50Z</time>
      </trkpt>
      <trkpt lat="43.65229" lon="1.38468">
        <ele>141</ele>
        <time>2025-04-12T08:01:51Z</time>
      </trkpt>
      <trkpt lat="43.65229" lon="1.38471">
        <ele>141</ele>
        <time>2025-04-12T08:01:52Z</time>
      </trkpt>
      <trkpt lat="43.6523" lon="1.38474">
        <ele>141</ele>
        <time>2025-04-12T08:01:53Z</time>
      </trkpt>
      <trkpt lat="43.65231" lon="1.38477">
        <ele>141</ele>
        <time>2025-04-12T08:01:54Z</time>
      </trkpt>
      <trkpt lat="43.65231" lon="1.38477">
        <ele>141</ele>
        <time>2025-04-12T08:01:55Z</time>
      </trkpt>
      <trkpt lat="43.65232" lon="1.38483">
        <ele>141</ele>
        <time>2025-04-12T08:01:56Z</time>
      </trkpt>
      <trkpt lat="43.65233" lon="1.38486">
        <ele>141</ele>
        <time>2025-04-12T08:01:57Z</time>
      </trkpt>
      <trkpt lat="43.65234" lon="1.38489">
        <ele>141</ele>
        <time>2025-04-12T08:01:58Z</time>
      </trkpt>
      <trkpt lat="43.65234" lon="1.38492">
        <ele>141</ele>
        <time>2025-04-12T08:01:59Z</time>
      </trkpt>
      <trkpt lat="43.65235" lon="1.38495">
        <ele>140</ele>
        <time>2025-04-12T08:02:00Z</time>
      </trkpt>
      <trkpt lat="43.65235" lon="1.38498">
        <ele>141</ele>
        <time>2025-04-12T08:02:01Z</time>
      </trkpt>
      <trkpt lat="43.65236" lon="1.38501">
        <ele>141</ele>
        <time>2025-04-12T08:02:02Z</time>
      </trkpt>
      <trkpt lat="43.65236" lon="1.38504">
        <ele>140</ele>
        <time>2025-04-12T08:02:03Z</time>
      </trkpt>
      <trkpt lat="43.65237" lon="1.38507">
        <ele>140</ele>
        <time>2025-04-12T08:02:04Z</time>
      </trkpt>
      <trkpt lat="43.65237" lon="1.38507">
        <ele>141</ele>
        <time>2025-04-12T08:02:05Z</time>
      </trkpt>
      <trkpt lat="43.65239" lon="1.38513">
        <ele>141</ele>
        <time>2025-04-12T08:02:06Z</time>
      </trkpt>
      <trkpt lat="43.6524" lon="1.38516">
        <ele>141</ele>
        <time>2025-04-12T08:02:07Z</time>
      </trkpt>
      <trkpt lat="43.6524" lon="1.3852">
        <ele>141</ele>
        <time>2025-04-12T08:02:08Z</time>
      </trkpt>
      <trkpt lat="43.6524" lon="1.38523">
        <ele>141</ele>
        <time>2025-04-12T08:02:09Z</time>
      </trkpt>
      <trkpt lat="43.65241" lon="1.38525">
        <ele>141</ele>
        <time>2025-04-12T08:02:10Z</time>
      </trkpt>
      <trkpt lat="43.65242" lon="1.38528">
        <ele>141</ele>
        <time>2025-04-12T08:02:11Z</time>
      </trkpt>
      <trkpt lat="43.65243" lon="1.38531">
        <ele>141</ele>
        <time>2025-04-12T08:02:12Z</time>
      </trkpt>
      <trkpt lat="43.65243" lon="1.38531">
        <ele>141</ele>
        <time>2025-04-12T08:02:13Z</time>
      </trkpt>
      <trkpt lat="43.65244" lon="1.38537">
        <ele>140</ele>
        <time>2025-04-12T08:02:14Z</time>
      </trkpt>
      <trkpt lat="43.65246" lon="1.38542">
        <ele>140</ele>
        <time>2025-04-12T08:02:15Z</time>
      </trkpt>
      <trkpt lat="43.65247" lon="1.38547">
        <ele>140</ele>
        <time>2025-04-12T08:02:16Z</time>
      </trkpt>
      <trkpt lat="43.65247" lon="1.38547">
        <ele>140</ele>
        <time>2025-04-12T08:02:17Z</time>
      </trkpt>
      <trkpt lat="43.6525" lon="1.38556">
        <ele>140</ele>
        <time>2025-04-12T08:02:18Z</time>
      </trkpt>
      <trkpt lat="43.65251" lon="1.38558">
        <ele>140</ele>
        <time>2025-04-12T08:02:19Z</time>
      </trkpt>
      <trkpt lat="43.65253" lon="1.38561">
        <ele>140</ele>
        <time>2025-04-12T08:02:20Z</time>
      </trkpt>
      <trkpt lat="43.65254" lon="1.38565">
        <ele>140</ele>
        <time>2025-04-12T08:02:21Z</time>
      </trkpt>
      <trkpt lat="43.65255" lon="1.38568">
        <ele>140</ele>
        <time>2025-04-12T08:02:22Z</time>
      </trkpt>
      <trkpt lat="43.65257" lon="1.38571">
        <ele>140</ele>
        <time>2025-04-12T08:02:23Z</time>
      </trkpt>
      <trkpt lat="43.65257" lon="1.38571">
        <ele>140</ele>
        <time>2025-04-12T08:02:24Z</time>
      </trkpt>
      <trkpt lat="43.65259" lon="1.38578">
        <ele>140</ele>
        <time>2025-04-12T08:02:25Z</time>
      </trkpt>
      <trkpt lat="43.6526" lon="1.38582">
        <ele>140</ele>
        <time>2025-04-12T08:02:26Z</time>
      </trkpt>
      <trkpt lat="43.65261" lon="1.38586">
        <ele>140</ele>
        <time>2025-04-12T08:02:27Z</time>
      </trkpt>
      <trkpt lat="43.65262" lon="1.38589">
        <ele>140</ele>
        <time>2025-04-12T08:02:28Z</time>
      </trkpt>
      <trkpt lat="43.65263" lon="1.38593">
        <ele>140</ele>
        <time>2025-04-12T08:02:29Z</time>
      </trkpt>
      <trkpt lat="43.65264" lon="1.38596">
        <ele>140</ele>
        <time>2025-04-12T08:02:30Z</time>
      </trkpt>
      <trkpt lat="43.65266" lon="1.38599">
        <ele>140</ele>
        <time>2025-04-12T08:02:31Z</time>
      </trkpt>
      <trkpt lat="43.65267" lon="1.38602">
        <ele>140</ele>
        <time>2025-04-12T08:02:32Z</time>
      </trkpt>
      <trkpt lat="43.65269" lon="1.38605">
        <ele>140</ele>
        <time>2025-04-12T08:02:33Z</time>
      </trkpt>
      <trkpt lat="43.65271" lon="1.38608">
        <ele>140</ele>
        <time>2025-04-12T08:02:34Z</time>
      </trkpt>
      <trkpt lat="43.65274" lon="1.3861">
        <ele>140</ele>
        <time>2025-04-12T08:02:35Z</time>
      </trkpt>
      <trkpt lat="43.65276" lon="1.38613">
        <ele>140</ele>
        <time>2025-04-12T08:02:36Z</time>
      </trkpt>
      <trkpt lat="43.65278" lon="1.38615">
        <ele>141</ele>
        <time>2025-04-12T08:02:37Z</time>
      </trkpt>
      <trkpt lat="43.65279" lon="1.38617">
        <ele>141</ele>
        <time>2025-04-12T08:02:38Z</time>
      </trkpt>
      <trkpt lat="43.65281" lon="1.3862">
        <ele>141</ele>
        <time>2025-04-12T08:02:39Z</time>
      </trkpt>
      <trkpt lat="43.65282" lon="1.38623">
        <ele>141</ele>
        <time>2025-04-12T08:02:40Z</time>
      </trkpt>
      <trkpt lat="43.65284" lon="1.38626">
        <ele>141</ele>
        <time>2025-04-12T08:02:41Z</time>
      </trkpt>
      <trkpt lat="43.65284" lon="1.38626">
        <ele>141</ele>
        <time>2025-04-12T08:02:42Z</time>
      </trkpt>
      <trkpt lat="43.65288" lon="1.38634">
        <ele>141</ele>
        <time>2025-04-12T08:02:43Z</time>
      </trkpt>
      <trkpt lat="43.65289" lon="1.38636">
        <ele>141</ele>
        <time>2025-04-12T08:02:44Z</time>
      </trkpt>
      <trkpt lat="43.65291" lon="1.38639">
        <ele>141</ele>
        <time>2025-04-12T08:02:45Z</time>
      </trkpt>
      <trkpt lat="43.65293" lon="1.38643">
        <ele>141</ele>
        <time>2025-04-12T08:02:46Z</time>
      </trkpt>
      <trkpt lat="43.65294" lon="1.38646">
        <ele>141</ele>
        <time>2025-04-12T08:02:47Z</time>
      </trkpt>
      <trkpt lat="43.65295" lon="1.3865">
        <ele>141</ele>
        <time>2025-04-12T08:02:48Z</time>
      </trkpt>
      <trkpt lat="43.65295" lon="1.38654">
        <ele>141</ele>
        <time>2025-04-12T08:02:49Z</time>
      </trkpt>
      <trkpt lat="43.65296" lon="1.38657">
        <ele>140</ele>
        <time>2025-04-12T08:02:50Z</time>
      </trkpt>
      <trkpt lat="43.65296" lon="1.3866">
        <ele>140</ele>
        <time>2025-04-12T08:02:51Z</time>
      </trkpt>
      <trkpt lat="43.65298" lon="1.38665">
        <ele>140</ele>
        <time>2025-04-12T08:02:53Z</time>
      </trkpt>
      <trkpt lat="43.65299" lon="1.38668">
        <ele>140</ele>
        <time>2025-04-12T08:02:54Z</time>
      </trkpt>
      <trkpt lat="43.653" lon="1.38671">
        <ele>140</ele>
        <time>2025-04-12T08:02:55Z</time>
      </trkpt>
      <trkpt lat="43.65301" lon="1.38674">
        <ele>140</ele>
        <time>2025-04-12T08:02:56Z</time>
      </trkpt>
      <trkpt lat="43.65303" lon="1.38677">
        <ele>141</ele>
        <time>2025-04-12T08:02:57Z</time>
      </trkpt>
      <trkpt lat="43.65305" lon="1.38681">
        <ele>141</ele>
        <time>2025-04-12T08:02:58Z</time>
      </trkpt>
      <trkpt lat="43.65306" lon="1.38685">
        <ele>140</ele>
        <time>2025-04-12T08:02:59Z</time>
      </trkpt>
      <trkpt lat="43.65307" lon="1.38688">
        <ele>140</ele>
        <time>2025-04-12T08:03:00Z</time>
      </trkpt>
      <trkpt lat="43.65308" lon="1.38691">
        <ele>140</ele>
        <time>2025-04-12T08:03:01Z</time>
      </trkpt>
      <trkpt lat="43.65308" lon="1.38691">
        <ele>140</ele>
        <time>2025-04-12T08:03:02Z</time>
      </trkpt>
      <trkpt lat="43.65309" lon="1.38697">
        <ele>140</ele>
        <time>2025-04-12T08:03:03Z</time>
      </trkpt>
      <trkpt lat="43.6531" lon="1.38701">
        <ele>140</ele>
        <time>2025-04-12T08:03:04Z</time>
      </trkpt>
      <trkpt lat="43.65311" lon="1.38705">
        <ele>140</ele>
        <time>2025-04-12T08:03:05Z</time>
      </trkpt>
      <trkpt lat="43.65311" lon="1.38707">
        <ele>140</ele>
        <time>2025-04-12T08:03:06Z</time>
      </trkpt>
      <trkpt lat="43.65311" lon="1.3871">
        <ele>140</ele>
        <time>2025-04-12T08:03:07Z</time>
      </trkpt>
      <trkpt lat="43.65312" lon="1.38713">
        <ele>140</ele>
        <time>2025-04-12T08:03:08Z</time>
      </trkpt>
      <trkpt lat="43.65312" lon="1.38717">
        <ele>140</ele>
        <time>2025-04-12T08:03:09Z</time>
      </trkpt>
      <trkpt lat="43.65313" lon="1.3872">
        <ele>140</ele>
        <time>2025-04-12T08:03:10Z</time>
      </trkpt>
      <trkpt lat="43.65314" lon="1.38724">
        <ele>140</ele>
        <time>2025-04-12T08:03:11Z</time>
      </trkpt>
      <trkpt lat="43.65315" lon="1.38728">
        <ele>140</ele>
        <time>2025-04-12T08:03:12Z</time>
      </trkpt>
      <trkpt lat="43.65317" lon="1.38732">
        <ele>141</ele>
        <time>2025-04-12T08:03:13Z</time>
      </trkpt>
      <trkpt lat="43.65317" lon="1.38736">
        <ele>141</ele>
        <time>2025-04-12T08:03:14Z</time>
      </trkpt>
      <trkpt lat="43.65318" lon="1.38739">
        <ele>141</ele>
        <time>2025-04-12T08:03:15Z</time>
      </trkpt>
      <trkpt lat="43.65319" lon="1.38743">
        <ele>141</ele>
        <time>2025-04-12T08:03:16Z</time>
      </trkpt>
      <trkpt lat="43.65319" lon="1.38746">
        <ele>141</ele>
        <time>2025-04-12T08:03:17Z</time>
      </trkpt>
      <trkpt lat="43.6532" lon="1.3875">
        <ele>141</ele>
        <time>2025-04-12T08:03:18Z</time>
      </trkpt>
      <trkpt lat="43.65321" lon="1.38753">
        <ele>141</ele>
        <time>2025-04-12T08:03:19Z</time>
      </trkpt>
      <trkpt lat="43.65321" lon="1.38756">
        <ele>141</ele>
        <time>2025-04-12T08:03:20Z</time>
      </trkpt>
      <trkpt lat="43.65323" lon="1.38762">
        <ele>141</ele>
        <time>2025-04-12T08:03:22Z</time>
      </trkpt>
      <trkpt lat="43.65324" lon="1.38765">
        <ele>141</ele>
        <time>2025-04-12T08:03:23Z</time>
      </trkpt>
      <trkpt lat="43.65324" lon="1.38768">
        <ele>141</ele>
        <time>2025-04-12T08:03:24Z</time>
      </trkpt>
      <trkpt lat="43.65325" lon="1.38772">
        <ele>141</ele>
        <time>2025-04-12T08:03:25Z</time>
      </trkpt>
      <trkpt lat="43.65327" lon="1.38775">
        <ele>141</ele>
        <time>2025-04-12T08:03:26Z</time>
      </trkpt>
      <trkpt lat="43.65328" lon="1.38779">
        <ele>141</ele>
        <time>2025-04-12T08:03:27Z</time>
      </trkpt>
      <trkpt lat="43.65329" lon="1.38782">
        <ele>141</ele>
        <time>2025-04-12T08:03:28Z</time>
      </trkpt>
      <trkpt lat="43.65331" lon="1.38785">
        <ele>141</ele>
        <time>2025-04-12T08:03:29Z</time>
      </trkpt>
      <trkpt lat="43.65333" lon="1.38788">
        <ele>141</ele>
        <time>2025-04-12T08:03:30Z</time>
      </trkpt>
      <trkpt lat="43.65334" lon="1.38791">
        <ele>141</ele>
        <time>2025-04-12T08:03:31Z</time>
      </trkpt>
      <trkpt lat="43.65336" lon="1.38794">
        <ele>141</ele>
        <time>2025-04-12T08:03:32Z</time>
      </trkpt>
      <trkpt lat="43.65337" lon="1.38797">
        <ele>141</ele>
        <time>2025-04-12T08:03:33Z</time>
      </trkpt>
      <trkpt lat="43.65339" lon="1.388">
        <ele>142</ele>
        <time>2025-04-12T08:03:34Z</time>
      </trkpt>
      <trkpt lat="43.6534" lon="1.38803">
        <ele>142</ele>
        <time>2025-04-12T08:03:35Z</time>
      </trkpt>
      <trkpt lat="43.65343" lon="1.38806">
        <ele>142</ele>
        <time>2025-04-12T08:03:36Z</time>
      </trkpt>
      <trkpt lat="43.65343" lon="1.38806">
        <ele>142</ele>
        <time>2025-04-12T08:03:37Z</time>
      </trkpt>
      <trkpt lat="43.65346" lon="1.38812">
        <ele>142</ele>
        <time>2025-04-12T08:03:38Z</time>
      </trkpt>
      <trkpt lat="43.65347" lon="1.38814">
        <ele>143</ele>
        <time>2025-04-12T08:03:39Z</time>
      </trkpt>
      <trkpt lat="43.65347" lon="1.38814">
        <ele>143</ele>
        <time>2025-04-12T08:03:40Z</time>
      </trkpt>
      <trkpt lat="43.65351" lon="1.3882">
        <ele>143</ele>
        <time>2025-04-12T08:03:41Z</time>
      </trkpt>
      <trkpt lat="43.65353" lon="1.38823">
        <ele>143</ele>
        <time>2025-04-12T08:03:42Z</time>
      </trkpt>
      <trkpt lat="43.65354" lon="1.38825">
        <ele>143</ele>
        <time>2025-04-12T08:03:43Z</time>
      </trkpt>
      <trkpt lat="43.65356" lon="1.38827">
        <ele>143</ele>
        <time>2025-04-12T08:03:44Z</time>
      </trkpt>
      <trkpt lat="43.65358" lon="1.38829">
        <ele>143</ele>
        <time>2025-04-12T08:03:45Z</time>
      </trkpt>
      <trkpt lat="43.65359" lon="1.38832">
        <ele>143</ele>
        <time>2025-04-12T08:03:46Z</time>
      </trkpt>
      <trkpt lat="43.65361" lon="1.38834">
        <ele>142</ele>
        <time>2025-04-12T08:03:47Z</time>
      </trkpt>
      <trkpt lat="43.65363" lon="1.38836">
        <ele>142</ele>
        <time>2025-04-12T08:03:48Z</time>
      </trkpt>
      <trkpt lat="43.65365" lon="1.38838">
        <ele>142</ele>
        <time>2025-04-12T08:03:49Z</time>
      </trkpt>
      <trkpt lat="43.65368" lon="1.3884">
        <ele>141</ele>
        <time>2025-04-12T08:03:50Z</time>
      </trkpt>
      <trkpt lat="43.6537" lon="1.38841">
        <ele>141</ele>
        <time>2025-04-12T08:03:51Z</time>
      </trkpt>
      <trkpt lat="43.65372" lon="1.38841">
        <ele>141</ele>
        <time>2025-04-12T08:03:52Z</time>
      </trkpt>
      <trkpt lat="43.65373" lon="1.38842">
        <ele>141</ele>
        <time>2025-04-12T08:03:53Z</time>
      </trkpt>
      <trkpt lat="43.65375" lon="1.38843">
        <ele>141</ele>
        <time>2025-04-12T08:03:54Z</time>
      </trkpt>
      <trkpt lat="43.65378" lon="1.38844">
        <ele>141</ele>
        <time>2025-04-12T08:03:55Z</time>
      </trkpt>
      <trkpt lat="43.6538" lon="1.38844">
        <ele>141</ele>
        <time>2025-04-12T08:03:56Z</time>
      </trkpt>
      <trkpt lat="43.65382" lon="1.38844">
        <ele>141</ele>
        <time>2025-04-12T08:03:57Z</time>
      </trkpt>
      <trkpt lat="43.65384" lon="1.38844">
        <ele>141</ele>
        <time>2025-04-12T08:03:58Z</time>
      </trkpt>
      <trkpt lat="43.65389" lon="1.38844">
        <ele>141</ele>
        <time>2025-04-12T08:04:00Z</time>
      </trkpt>
      <trkpt lat="43.65391" lon="1.38844">
        <ele>141</ele>
        <time>2025-04-12T08:04:01Z</time>
      </trkpt>
      <trkpt lat="43.65394" lon="1.38844">
        <ele>141</ele>
        <time>2025-04-12T08:04:02Z</time>
      </trkpt>
      <trkpt lat="43.65396" lon="1.38843">
        <ele>141</ele>
        <time>2025-04-12T08:04:03Z</time>
      </trkpt>
      <trkpt lat="43.65399" lon="1.38844">
        <ele>141</ele>
        <time>2025-04-12T08:04:04Z</time>
      </trkpt>
      <trkpt lat="43.65402" lon="1.38845">
        <ele>141</ele>
        <time>2025-04-12T08:04:05Z</time>
      </trkpt>
      <trkpt lat="43.65404" lon="1.38847">
        <ele>141</ele>
        <time>2025-04-12T08:04:06Z</time>
      </trkpt>
      <trkpt lat="43.65406" lon="1.3885">
        <ele>141</ele>
        <time>2025-04-12T08:04:07Z</time>
      </trkpt>
      <trkpt lat="43.65408" lon="1.38854">
        <ele>141</ele>
        <time>2025-04-12T08:04:08Z</time>
      </trkpt>
      <trkpt lat="43.65409" lon="1.38858">
        <ele>141</ele>
        <time>2025-04-12T08:04:09Z</time>
      </trkpt>
      <trkpt lat="43.65409" lon="1.38858">
        <ele>140</ele>
        <time>2025-04-12T08:04:10Z</time>
      </trkpt>
      <trkpt lat="43.6541" lon="1.38867">
        <ele>140</ele>
        <time>2025-04-12T08:04:11Z</time>
      </trkpt>
      <trkpt lat="43.65411" lon="1.3887">
        <ele>140</ele>
        <time>2025-04-12T08:04:12Z</time>
      </trkpt>
      <trkpt lat="43.65412" lon="1.38874">
        <ele>140</ele>
        <time>2025-04-12T08:04:13Z</time>
      </trkpt>
      <trkpt lat="43.65412" lon="1.38878">
        <ele>139</ele>
        <time>2025-04-12T08:04:14Z</time>
      </trkpt>
      <trkpt lat="43.65413" lon="1.38882">
        <ele>139</ele>
        <time>2025-04-12T08:04:15Z</time>
      </trkpt>
      <trkpt lat="43.65414" lon="1.38885">
        <ele>139</ele>
        <time>2025-04-12T08:04:16Z</time>
      </trkpt>
      <trkpt lat="43.65416" lon="1.38888">
        <ele>139</ele>
        <time>2025-04-12T08:04:17Z</time>
      </trkpt>
      <trkpt lat="43.65416" lon="1.38888">
        <ele>138</ele>
        <time>2025-04-12T08:04:18Z</time>
      </trkpt>
      <trkpt lat="43.6542" lon="1.38893">
        <ele>138</ele>
        <time>2025-04-12T08:04:19Z</time>
      </trkpt>
      <trkpt lat="43.65422" lon="1.38896">
        <ele>138</ele>
        <time>2025-04-12T08:04:20Z</time>
      </trkpt>
      <trkpt lat="43.65423" lon="1.38899">
        <ele>138</ele>
        <time>2025-04-12T08:04:21Z</time>
      </trkpt>
      <trkpt lat="43.65426" lon="1.38902">
        <ele>138</ele>
        <time>2025-04-12T08:04:22Z</time>
      </trkpt>
      <trkpt lat="43.65427" lon="1.38905">
        <ele>137</ele>
        <time>2025-04-12T08:04:23Z</time>
      </trkpt>
      <trkpt lat="43.65429" lon="1.38907">
        <ele>137</ele>
        <time>2025-04-12T08:04:24Z</time>
      </trkpt>
      <trkpt lat="43.65431" lon="1.38911">
        <ele>137</ele>
        <time>2025-04-12T08:04:25Z</time>
      </trkpt>
      <trkpt lat="43.65432" lon="1.38914">
        <ele>137</ele>
        <time>2025-04-12T08:04:26Z</time>
      </trkpt>
      <trkpt lat="43.65433" lon="1.38916">
        <ele>137</ele>
        <time>2025-04-12T08:04:27Z</time>
      </trkpt>
      <trkpt lat="43.65436" lon="1.38919">
        <ele>137</ele>
        <time>2025-04-12T08:04:28Z</time>
      </trkpt>
      <trkpt lat="43.65438" lon="1.38923">
        <ele>136</ele>
        <time>2025-04-12T08:04:29Z</time>
      </trkpt>
      <trkpt lat="43.6544" lon="1.38927">
        <ele>135</ele>
        <time>2025-04-12T08:04:30Z</time>
      </trkpt>
      <trkpt lat="43.65442" lon="1.38932">
        <ele>134</ele>
        <time>2025-04-12T08:04:31Z</time>
      </trkpt>
      <trkpt lat="43.65444" lon="1.38936">
        <ele>133</ele>
        <time>2025-04-12T08:04:32Z</time>
      </trkpt>
      <trkpt lat="43.65446" lon="1.3894">
        <ele>132</ele>
        <time>2025-04-12T08:04:33Z</time>
      </trkpt>
      <trkpt lat="43.65448" lon="1.38944">
        <ele>132</ele>
        <time>2025-04-12T08:04:34Z</time>
      </trkpt>
      <trkpt lat="43.65449" lon="1.38949">
        <ele>131</ele>
        <time>2025-04-12T08:04:35Z</time>
      </trkpt>
      <trkpt lat="43.65449" lon="1.38949">
        <ele>131</ele>
        <time>2025-04-12T08:04:36Z</time>
      </trkpt>
      <trkpt lat="43.65453" lon="1.38958">
        <ele>130</ele>
        <time>2025-04-12T08:04:37Z</time>
      </trkpt>
      <trkpt lat="43.65453" lon="1.3896">
        <ele>129</ele>
        <time>2025-04-12T08:04:38Z</time>
      </trkpt>
      <trkpt lat="43.65455" lon="1.38963">
        <ele>129</ele>
        <time>2025-04-12T08:04:39Z</time>
      </trkpt>
      <trkpt lat="43.65456" lon="1.38966">
        <ele>129</ele>
        <time>2025-04-12T08:04:40Z</time>
      </trkpt>
      <trkpt lat="43.65456" lon="1.38969">
        <ele>129</ele>
        <time>2025-04-12T08:04:41Z</time>
      </trkpt>
      <trkpt lat="43.65457" lon="1.38973">
        <ele>129</ele>
        <time>2025-04-12T08:04:42Z</time>
      </trkpt>
      <trkpt lat="43.65458" lon="1.38977">
        <ele>129</ele>
        <time>2025-04-12T08:04:43Z</time>
      </trkpt>
      <trkpt lat="43.65458" lon="1.38977">
        <ele>129</ele>
        <time>2025-04-12T08:04:44Z</time>
      </trkpt>
      <trkpt lat="43.65459" lon="1.38983">
        <ele>129</ele>
        <time>2025-04-12T08:04:45Z</time>
      </trkpt>
      <trkpt lat="43.6546" lon="1.38985">
        <ele>129</ele>
        <time>2025-04-12T08:04:46Z</time>
      </trkpt>
      <trkpt lat="43.65462" lon="1.38988">
        <ele>129</ele>
        <time>2025-04-12T08:04:47Z</time>
      </trkpt>
      <trkpt lat="43.65464" lon="1.38991">
        <ele>128</ele>
        <time>2025-04-12T08:04:48Z</time>
      </trkpt>
      <trkpt lat="43.65466" lon="1.38993">
        <ele>128</ele>
        <time>2025-04-12T08:04:49Z</time>
      </trkpt>
      <trkpt lat="43.65468" lon="1.38995">
        <ele>128</ele>
        <time>2025-04-12T08:04:50Z</time>
      </trkpt>
      <trkpt lat="43.6547" lon="1.38997">
        <ele>128</ele>
        <time>2025-04-12T08:04:51Z</time>
      </trkpt>
      <trkpt lat="43.65473" lon="1.38999">
        <ele>128</ele>
        <time>2025-04-12T08:04:52Z</time>
      </trkpt>
      <trkpt lat="43.65476" lon="1.39001">
        <ele>128</ele>
        <time>2025-04-12T08:04:53Z</time>
      </trkpt>
      <trkpt lat="43.65479" lon="1.39003">
        <ele>128</ele>
        <time>2025-04-12T08:04:54Z</time>
      </trkpt>
      <trkpt lat="43.65481" lon="1.39004">
        <ele>128</ele>
        <time>2025-04-12T08:04:55Z</time>
      </trkpt>
      <trkpt lat="43.65483" lon="1.39006">
        <ele>128</ele>
        <time>2025-04-12T08:04:56Z</time>
      </trkpt>
      <trkpt lat="43.65485" lon="1.39008">
        <ele>128</ele>
        <time>2025-04-12T08:04:57Z</time>
      </trkpt>
      <trkpt lat="43.65488" lon="1.39009">
        <ele>128</ele>
        <time>2025-04-12T08:04:58Z</time>
      </trkpt>
      <trkpt lat="43.65491" lon="1.3901">
        <ele>127</ele>
        <time>2025-04-12T08:04:59Z</time>
      </trkpt>
      <trkpt lat="43.65494" lon="1.3901">
        <ele>127</ele>
        <time>2025-04-12T08:05:00Z</time>
      </trkpt>
      <trkpt lat="43.65497" lon="1.39011">
        <ele>127</ele>
        <time>2025-04-12T08:05:01Z</time>
      </trkpt>
      <trkpt lat="43.65497" lon="1.39011">
        <ele>127</ele>
        <time>2025-04-12T08:05:02Z</time>
      </trkpt>
      <trkpt lat="43.65501" lon="1.39012">
        <ele>127</ele>
        <time>2025-04-12T08:05:03Z</time>
      </trkpt>
      <trkpt lat="43.65503" lon="1.39013">
        <ele>127</ele>
        <time>2025-04-12T08:05:04Z</time>
      </trkpt>
      <trkpt lat="43.65505" lon="1.39014">
        <ele>127</ele>
        <time>2025-04-12T08:05:05Z</time>
      </trkpt>
      <trkpt lat="43.65508" lon="1.39014">
        <ele>127</ele>
        <time>2025-04-12T08:05:06Z</time>
      </trkpt>
      <trkpt lat="43.6551" lon="1.39015">
        <ele>126</ele>
        <time>2025-04-12T08:05:07Z</time>
      </trkpt>
      <trkpt lat="43.65513" lon="1.39017">
        <ele>127</ele>
        <time>2025-04-12T08:05:08Z</time>
      </trkpt>
      <trkpt lat="43.65516" lon="1.39019">
        <ele>127</ele>
        <time>2025-04-12T08:05:09Z</time>
      </trkpt>
      <trkpt lat="43.65519" lon="1.3902">
        <ele>127</ele>
        <time>2025-04-12T08:05:10Z</time>
      </trkpt>
      <trkpt lat="43.65521" lon="1.39022">
        <ele>127</ele>
        <time>2025-04-12T08:05:11Z</time>
      </trkpt>
      <trkpt lat="43.65524" lon="1.39023">
        <ele>128</ele>
        <time>2025-04-12T08:05:12Z</time>
      </trkpt>
      <trkpt lat="43.65527" lon="1.39025">
        <ele>128</ele>
        <time>2025-04-12T08:05:13Z</time>
      </trkpt>
      <trkpt lat="43.6553" lon="1.39026">
        <ele>128</ele>
        <time>2025-04-12T08:05:14Z</time>
      </trkpt>
      <trkpt lat="43.65533" lon="1.39027">
        <ele>128</ele>
        <time>2025-04-12T08:05:15Z</time>
      </trkpt>
      <trkpt lat="43.65536" lon="1.39028">
        <ele>128</ele>
        <time>2025-04-12T08:05:16Z</time>
      </trkpt>
      <trkpt lat="43.65539" lon="1.3903">
        <ele>128</ele>
        <time>2025-04-12T08:05:17Z</time>
      </trkpt>
      <trkpt lat="43.65542" lon="1.39032">
        <ele>127</ele>
        <time>2025-04-12T08:05:18Z</time>
      </trkpt>
      <trkpt lat="43.65544" lon="1.39033">
        <ele>127</ele>
        <time>2025-04-12T08:05:19Z</time>
      </trkpt>
      <trkpt lat="43.65544" lon="1.39033">
        <ele>127</ele>
        <time>2025-04-12T08:05:20Z</time>
      </trkpt>
      <trkpt lat="43.65549" lon="1.39037">
        <ele>127</ele>
        <time>2025-04-12T08:05:21Z</time>
      </trkpt>
      <trkpt lat="43.65552" lon="1.39038">
        <ele>127</ele>
        <time>2025-04-12T08:05:22Z</time>
      </trkpt>
      <trkpt lat="43.65554" lon="1.3904">
        <ele>127</ele>
        <time>2025-04-12T08:05:23Z</time>
      </trkpt>
      <trkpt lat="43.65556" lon="1.39042">
        <ele>127</ele>
        <time>2025-04-12T08:05:24Z</time>
      </trkpt>
      <trkpt lat="43.65558" lon="1.39043">
        <ele>127</ele>
        <time>2025-04-12T08:05:25Z</time>
      </trkpt>
      <trkpt lat="43.6556" lon="1.39045">
        <ele>126</ele>
        <time>2025-04-12T08:05:26Z</time>
      </trkpt>
      <trkpt lat="43.65563" lon="1.39046">
        <ele>126</ele>
        <time>2025-04-12T08:05:27Z</time>
      </trkpt>
      <trkpt lat="43.65565" lon="1.39048">
        <ele>126</ele>
        <time>2025-04-12T08:05:28Z</time>
      </trkpt>
      <trkpt lat="43.65567" lon="1.3905">
        <ele>126</ele>
        <time>2025-04-12T08:05:29Z</time>
      </trkpt>
      <trkpt lat="43.65569" lon="1.39052">
        <ele>126</ele>
        <time>2025-04-12T08:05:30Z</time>
      </trkpt>
      <trkpt lat="43.65571" lon="1.39055">
        <ele>126</ele>
        <time>2025-04-12T08:05:31Z</time>
      </trkpt>
      <trkpt lat="43.65573" lon="1.39057">
        <ele>126</ele>
        <time>2025-04-12T08:05:32Z</time>
      </trkpt>
      <trkpt lat="43.65575" lon="1.39059">
        <ele>126</ele>
        <time>2025-04-12T08:05:33Z</time>
      </trkpt>
      <trkpt lat="43.65575" lon="1.39059">
        <ele>126</ele>
        <time>2025-04-12T08:05:34Z</time>
      </trkpt>
      <trkpt lat="43.65579" lon="1.39061">
        <ele>126</ele>
        <time>2025-04-12T08:05:35Z</time>
      </trkpt>
      <trkpt lat="43.65581" lon="1.39063">
        <ele>126</ele>
        <time>2025-04-12T08:05:36Z</time>
      </trkpt>
      <trkpt lat="43.65584" lon="1.39064">
        <ele>126</ele>
        <time>2025-04-12T08:05:37Z</time>
      </trkpt>
      <trkpt lat="43.65586" lon="1.39065">
        <ele>126</ele>
        <time>2025-04-12T08:05:38Z</time>
      </trkpt>
      <trkpt lat="43.65588" lon="1.39067">
        <ele>126</ele>
        <time>2025-04-12T08:05:39Z</time>
      </trkpt>
      <trkpt lat="43.65593" lon="1.3907">
        <ele>126</ele>
        <time>2025-04-12T08:05:41Z</time>
      </trkpt>
      <trkpt lat="43.65595" lon="1.39071">
        <ele>126</ele>
        <time>2025-04-12T08:05:42Z</time>
      </trkpt>
      <trkpt lat="43.65598" lon="1.39072">
        <ele>126</ele>
        <time>2025-04-12T08:05:43Z</time>
      </trkpt>
      <trkpt lat="43.656" lon="1.39073">
        <ele>126</ele>
        <time>2025-04-12T08:05:44Z</time>
      </trkpt>
      <trkpt lat="43.65603" lon="1.39075">
        <ele>126</ele>
        <time>2025-04-12T08:05:45Z</time>
      </trkpt>
      <trkpt lat="43.65605" lon="1.39076">
        <ele>126</ele>
        <time>2025-04-12T08:05:46Z</time>
      </trkpt>
      <trkpt lat="43.65608" lon="1.39077">
        <ele>126</ele>
        <time>2025-04-12T08:05:47Z</time>
      </trkpt>
      <trkpt lat="43.65611" lon="1.39079">
        <ele>126</ele>
        <time>2025-04-12T08:05:48Z</time>
      </trkpt>
      <trkpt lat="43.65613" lon="1.3908">
        <ele>126</ele>
        <time>2025-04-12T08:05:49Z</time>
      </trkpt>
      <trkpt lat="43.65616" lon="1.39081">
        <ele>126</ele>
        <time>2025-04-12T08:05:50Z</time>
      </trkpt>
      <trkpt lat="43.65618" lon="1.39083">
        <ele>126</ele>
        <time>2025-04-12T08:05:51Z</time>
      </trkpt>
      <trkpt lat="43.65621" lon="1.39085">
        <ele>126</ele>
        <time>2025-04-12T08:05:52Z</time>
      </trkpt>
      <trkpt lat="43.65621" lon="1.39085">
        <ele>126</ele>
        <time>2025-04-12T08:05:53Z</time>
      </trkpt>
      <trkpt lat="43.65625" lon="1.39088">
        <ele>126</ele>
        <time>2025-04-12T08:05:54Z</time>
      </trkpt>
      <trkpt lat="43.65627" lon="1.3909">
        <ele>126</ele>
        <time>2025-04-12T08:05:55Z</time>
      </trkpt>
      <trkpt lat="43.65629" lon="1.39091">
        <ele>127</ele>
        <time>2025-04-12T08:05:56Z</time>
      </trkpt>
      <trkpt lat="43.65631" lon="1.39093">
        <ele>127</ele>
        <time>2025-04-12T08:05:57Z</time>
      </trkpt>
      <trkpt lat="43.65632" lon="1.39094">
        <ele>126</ele>
        <time>2025-04-12T08:05:58Z</time>
      </trkpt>
      <trkpt lat="43.65636" lon="1.39098">
        <ele>126</ele>
        <time>2025-04-12T08:06:00Z</time>
      </trkpt>
      <trkpt lat="43.65639" lon="1.39099">
        <ele>126</ele>
        <time>2025-04-12T08:06:01Z</time>
      </trkpt>
      <trkpt lat="43.65641" lon="1.39101">
        <ele>126</ele>
        <time>2025-04-12T08:06:02Z</time>
      </trkpt>
      <trkpt lat="43.65644" lon="1.39103">
        <ele>126</ele>
        <time>2025-04-12T08:06:03Z</time>
      </trkpt>
      <trkpt lat="43.65647" lon="1.39105">
        <ele>126</ele>
        <time>2025-04-12T08:06:04Z</time>
      </trkpt>
      <trkpt lat="43.6565" lon="1.39107">
        <ele>126</ele>
        <time>2025-04-12T08:06:05Z</time>
      </trkpt>
      <trkpt lat="43.65653" lon="1.39109">
        <ele>126</ele>
        <time>2025-04-12T08:06:06Z</time>
      </trkpt>
      <trkpt lat="43.65656" lon="1.3911">
        <ele>126</ele>
        <time>2025-04-12T08:06:07Z</time>
      </trkpt>
      <trkpt lat="43.65658" lon="1.39112">
        <ele>126</ele>
        <time>2025-04-12T08:06:08Z</time>
      </trkpt>
      <trkpt lat="43.6566" lon="1.39113">
        <ele>126</ele>
        <time>2025-04-12T08:06:09Z</time>
      </trkpt>
      <trkpt lat="43.65663" lon="1.39115">
        <ele>126</ele>
        <time>2025-04-12T08:06:10Z</time>
      </trkpt>
      <trkpt lat="43.65665" lon="1.39116">
        <ele>126</ele>
        <time>2025-04-12T08:06:11Z</time>
      </trkpt>
      <trkpt lat="43.65665" lon="1.39116">
        <ele>126</ele>
        <time>2025-04-12T08:06:12Z</time>
      </trkpt>
      <trkpt lat="43.65669" lon="1.39118">
        <ele>126</ele>
        <time>2025-04-12T08:06:13Z</time>
      </trkpt>
      <trkpt lat="43.65671" lon="1.3912">
        <ele>126</ele>
        <time>2025-04-12T08:06:14Z</time>
      </trkpt>
      <trkpt lat="43.65673" lon="1.39121">
        <ele>126</ele>
        <time>2025-04-12T08:06:15Z</time>
      </trkpt>
      <trkpt lat="43.65675" lon="1.39122">
        <ele>126</ele>
        <time>2025-04-12T08:06:16Z</time>
      </trkpt>
      <trkpt lat="43.65678" lon="1.39123">
        <ele>126</ele>
        <time>2025-04-12T08:06:17Z</time>
      </trkpt>
      <trkpt lat="43.65682" lon="1.39125">
        <ele>126</ele>
        <time>2025-04-12T08:06:19Z</time>
      </trkpt>
      <trkpt lat="43.65684" lon="1.39126">
        <ele>126</ele>
        <time>2025-04-12T08:06:20Z</time>
      </trkpt>
      <trkpt lat="43.65686" lon="1.39128">
        <ele>126</ele>
        <time>2025-04-12T08:06:21Z</time>
      </trkpt>
      <trkpt lat="43.65689" lon="1.3913">
        <ele>126</ele>
        <time>2025-04-12T08:06:22Z</time>
      </trkpt>
      <trkpt lat="43.65691" lon="1.39131">
        <ele>126</ele>
        <time>2025-04-12T08:06:23Z</time>
      </trkpt>
      <trkpt lat="43.65694" lon="1.39132">
        <ele>126</ele>
        <time>2025-04-12T08:06:24Z</time>
      </trkpt>
      <trkpt lat="43.65696" lon="1.39133">
        <ele>126</ele>
        <time>2025-04-12T08:06:25Z</time>
      </trkpt>
      <trkpt lat="43.65699" lon="1.39135">
        <ele>126</ele>
        <time>2025-04-12T08:06:26Z</time>
      </trkpt>
      <trkpt lat="43.65701" lon="1.39137">
        <ele>126</ele>
        <time>2025-04-12T08:06:27Z</time>
      </trkpt>
      <trkpt lat="43.65704" lon="1.39139">
        <ele>126</ele>
        <time>2025-04-12T08:06:28Z</time>
      </trkpt>
      <trkpt lat="43.65707" lon="1.39141">
        <ele>126</ele>
        <time>2025-04-12T08:06:29Z</time>
      </trkpt>
      <trkpt lat="43.65709" lon="1.39142">
        <ele>126</ele>
        <time>2025-04-12T08:06:30Z</time>
      </trkpt>
      <trkpt lat="43.65709" lon="1.39142">
        <ele>126</ele>
        <time>2025-04-12T08:06:31Z</time>
      </trkpt>
      <trkpt lat="43.65714" lon="1.39147">
        <ele>125</ele>
        <time>2025-04-12T08:06:32Z</time>
      </trkpt>
      <trkpt lat="43.65716" lon="1.39149">
        <ele>125</ele>
        <time>2025-04-12T08:06:33Z</time>
      </trkpt>
      <trkpt lat="43.65718" lon="1.39151">
        <ele>125</ele>
        <time>2025-04-12T08:06:34Z</time>
      </trkpt>
      <trkpt lat="43.65718" lon="1.39151">
        <ele>125</ele>
        <time>2025-04-12T08:06:35Z</time>
      </trkpt>
      <trkpt lat="43.6572" lon="1.39153">
        <ele>125</ele>
        <time>2025-04-12T08:06:36Z</time>
      </trkpt>
      <trkpt lat="43.65722" lon="1.39155">
        <ele>125</ele>
        <time>2025-04-12T08:06:37Z</time>
      </trkpt>
      <trkpt lat="43.65723" lon="1.39157">
        <ele>125</ele>
        <time>2025-04-12T08:06:38Z</time>
      </trkpt>
      <trkpt lat="43.65725" lon="1.3916">
        <ele>125</ele>
        <time>2025-04-12T08:06:39Z</time>
      </trkpt>
      <trkpt lat="43.65728" lon="1.39162">
        <ele>125</ele>
        <time>2025-04-12T08:06:40Z</time>
      </trkpt>
      <trkpt lat="43.65731" lon="1.39164">
        <ele>125</ele>
        <time>2025-04-12T08:06:41Z</time>
      </trkpt>
      <trkpt lat="43.65733" lon="1.39165">
        <ele>125</ele>
        <time>2025-04-12T08:06:42Z</time>
      </trkpt>
      <trkpt lat="43.65736" lon="1.39167">
        <ele>126</ele>
        <time>2025-04-12T08:06:43Z</time>
      </trkpt>
      <trkpt lat="43.65739" lon="1.39168">
        <ele>126</ele>
        <time>2025-04-12T08:06:44Z</time>
      </trkpt>
      <trkpt lat="43.65741" lon="1.39169">
        <ele>126</ele>
        <time>2025-04-12T08:06:45Z</time>
      </trkpt>
      <trkpt lat="43.65744" lon="1.3917">
        <ele>126</ele>
        <time>2025-04-12T08:06:46Z</time>
      </trkpt>
      <trkpt lat="43.65746" lon="1.39171">
        <ele>126</ele>
        <time>2025-04-12T08:06:47Z</time>
      </trkpt>
      <trkpt lat="43.65748" lon="1.39172">
        <ele>126</ele>
        <time>2025-04-12T08:06:48Z</time>
      </trkpt>
      <trkpt lat="43.65751" lon="1.39172">
        <ele>126</ele>
        <time>2025-04-12T08:06:49Z</time>
      </trkpt>
      <trkpt lat="43.65753" lon="1.39173">
        <ele>126</ele>
        <time>2025-04-12T08:06:50Z</time>
      </trkpt>
      <trkpt lat="43.65759" lon="1.39176">
        <ele>126</ele>
        <time>2025-04-12T08:06:51Z</time>
      </trkpt>
      <trkpt lat="43.6576" lon="1.39176">
        <ele>126</ele>
        <time>2025-04-12T08:06:52Z</time>
      </trkpt>
      <trkpt lat="43.65762" lon="1.39177">
        <ele>127</ele>
        <time>2025-04-12T08:06:53Z</time>
      </trkpt>
      <trkpt lat="43.65762" lon="1.39177">
        <ele>127</ele>
        <time>2025-04-12T08:06:54Z</time>
      </trkpt>
      <trkpt lat="43.65764" lon="1.39177">
        <ele>128</ele>
        <time>2025-04-12T08:06:55Z</time>
      </trkpt>
      <trkpt lat="43.65764" lon="1.39177">
        <ele>128</ele>
        <time>2025-04-12T08:06:56Z</time>
      </trkpt>
      <trkpt lat="43.65767" lon="1.39179">
        <ele>128</ele>
        <time>2025-04-12T08:06:57Z</time>
      </trkpt>
      <trkpt lat="43.65767" lon="1.39179">
        <ele>128</ele>
        <time>2025-04-12T08:06:58Z</time>
      </trkpt>
      <trkpt lat="43.6577" lon="1.3918">
        <ele>128</ele>
        <time>2025-04-12T08:06:59Z</time>
      </trkpt>
      <trkpt lat="43.6577" lon="1.3918">
        <ele>128</ele>
        <time>2025-04-12T08:07:00Z</time>
      </trkpt>
      <trkpt lat="43.65774" lon="1.3918">
        <ele>128</ele>
        <time>2025-04-12T08:07:01Z</time>
      </trkpt>
      <trkpt lat="43.65774" lon="1.3918">
        <ele>129</ele>
        <time>2025-04-12T08:07:02Z</time>
      </trkpt>
      <trkpt lat="43.65776" lon="1.39181">
        <ele>129</ele>
        <time>2025-04-12T08:07:03Z</time>
      </trkpt>
      <trkpt lat="43.65776" lon="1.39181">
        <ele>130</ele>
        <time>2025-04-12T08:07:04Z</time>
      </trkpt>
      <trkpt lat="43.65779" lon="1.39181">
        <ele>131</ele>
        <time>2025-04-12T08:07:05Z</time>
      </trkpt>
      <trkpt lat="43.65779" lon="1.39181">
        <ele>131</ele>
        <time>2025-04-12T08:07:06Z</time>
      </trkpt>
      <trkpt lat="43.65782" lon="1.39182">
        <ele>131</ele>
        <time>2025-04-12T08:07:07Z</time>
      </trkpt>
      <trkpt lat="43.65782" lon="1.39182">
        <ele>131</ele>
        <time>2025-04-12T08:07:08Z</time>
      </trkpt>
      <trkpt lat="43.65785" lon="1.39182">
        <ele>132</ele>
        <time>2025-04-12T08:07:09Z</time>
      </trkpt>
      <trkpt lat="43.65785" lon="1.39182">
        <ele>132</ele>
        <time>2025-04-12T08:07:10Z</time>
      </trkpt>
      <trkpt lat="43.65788" lon="1.39182">
        <ele>132</ele>
        <time>2025-04-12T08:07:11Z</time>
      </trkpt>
      <trkpt lat="43.65788" lon="1.39182">
        <ele>132</ele>
        <time>2025-04-12T08:07:12Z</time>
      </trkpt>
      <trkpt lat="43.65791" lon="1.39182">
        <ele>132</ele>
        <time>2025-04-12T08:07:13Z</time>
      </trkpt>
      <trkpt lat="43.65791" lon="1.39182">
        <ele>132</ele>
        <time>2025-04-12T08:07:14Z</time>
      </trkpt>
      <trkpt lat="43.65793" lon="1.39182">
        <ele>132</ele>
        <time>2025-04-12T08:07:15Z</time>
      </trkpt>
      <trkpt lat="43.65793" lon="1.39182">
        <ele>132</ele>
        <time>2025-04-12T08:07:16Z</time>
      </trkpt>
      <trkpt lat="43.65796" lon="1.39181">
        <ele>133</ele>
        <time>2025-04-12T08:07:17Z</time>
      </trkpt>
      <trkpt lat="43.65796" lon="1.39181">
        <ele>133</ele>
        <time>2025-04-12T08:07:18Z</time>
      </trkpt>
      <trkpt lat="43.65799" lon="1.3918">
        <ele>133</ele>
        <time>2025-04-12T08:07:19Z</time>
      </trkpt>
      <trkpt lat="43.65799" lon="1.3918">
        <ele>133</ele>
        <time>2025-04-12T08:07:20Z</time>
      </trkpt>
      <trkpt lat="43.65802" lon="1.39179">
        <ele>133</ele>
        <time>2025-04-12T08:07:21Z</time>
      </trkpt>
      <trkpt lat="43.65802" lon="1.39179">
        <ele>134</ele>
        <time>2025-04-12T08:07:22Z</time>
      </trkpt>
      <trkpt lat="43.65805" lon="1.39179">
        <ele>135</ele>
        <time>2025-04-12T08:07:23Z</time>
      </trkpt>
      <trkpt lat="43.65805" lon="1.39179">
        <ele>135</ele>
        <time>2025-04-12T08:07:24Z</time>
      </trkpt>
      <trkpt lat="43.65808" lon="1.39182">
        <ele>136</ele>
        <time>2025-04-12T08:07:25Z</time>
      </trkpt>
      <trkpt lat="43.6581" lon="1.39182">
        <ele>136</ele>
        <time>2025-04-12T08:07:26Z</time>
      </trkpt>
      <trkpt lat="43.65812" lon="1.39183">
        <ele>136</ele>
        <time>2025-04-12T08:07:27Z</time>
      </trkpt>
      <trkpt lat="43.65812" lon="1.39183">
        <ele>136</ele>
        <time>2025-04-12T08:07:28Z</time>
      </trkpt>
      <trkpt lat="43.65817" lon="1.39185">
        <ele>136</ele>
        <time>2025-04-12T08:07:29Z</time>
      </trkpt>
      <trkpt lat="43.65822" lon="1.39187">
        <ele>136</ele>
        <time>2025-04-12T08:07:31Z</time>
      </trkpt>
      <trkpt lat="43.65824" lon="1.39188">
        <ele>136</ele>
        <time>2025-04-12T08:07:32Z</time>
      </trkpt>
      <trkpt lat="43.65826" lon="1.39189">
        <ele>136</ele>
        <time>2025-04-12T08:07:33Z</time>
      </trkpt>
      <trkpt lat="43.65828" lon="1.39191">
        <ele>135</ele>
        <time>2025-04-12T08:07:34Z</time>
      </trkpt>
      <trkpt lat="43.6583" lon="1.39193">
        <ele>136</ele>
        <time>2025-04-12T08:07:35Z</time>
      </trkpt>
      <trkpt lat="43.65833" lon="1.39194">
        <ele>136</ele>
        <time>2025-04-12T08:07:36Z</time>
      </trkpt>
      <trkpt lat="43.65834" lon="1.39195">
        <ele>136</ele>
        <time>2025-04-12T08:07:37Z</time>
      </trkpt>
      <trkpt lat="43.65837" lon="1.39195">
        <ele>137</ele>
        <time>2025-04-12T08:07:38Z</time>
      </trkpt>
      <trkpt lat="43.65839" lon="1.39195">
        <ele>137</ele>
        <time>2025-04-12T08:07:39Z</time>
      </trkpt>
      <trkpt lat="43.65842" lon="1.39195">
        <ele>137</ele>
        <time>2025-04-12T08:07:40Z</time>
      </trkpt>
      <trkpt lat="43.65844" lon="1.39195">
        <ele>137</ele>
        <time>2025-04-12T08:07:41Z</time>
      </trkpt>
      <trkpt lat="43.65847" lon="1.39196">
        <ele>137</ele>
        <time>2025-04-12T08:07:42Z</time>
      </trkpt>
      <trkpt lat="43.6585" lon="1.39196">
        <ele>138</ele>
        <time>2025-04-12T08:07:43Z</time>
      </trkpt>
      <trkpt lat="43.65852" lon="1.39197">
        <ele>138</ele>
        <time>2025-04-12T08:07:44Z</time>
      </trkpt>
      <trkpt lat="43.65854" lon="1.39199">
        <ele>138</ele>
        <time>2025-04-12T08:07:45Z</time>
      </trkpt>
      <trkpt lat="43.65856" lon="1.39201">
        <ele>139</ele>
        <time>2025-04-12T08:07:46Z</time>
      </trkpt>
      <trkpt lat="43.65859" lon="1.39205">
        <ele>139</ele>
        <time>2025-04-12T08:07:48Z</time>
      </trkpt>
      <trkpt lat="43.65861" lon="1.39207">
        <ele>139</ele>
        <time>2025-04-12T08:07:49Z</time>
      </trkpt>
      <trkpt lat="43.65863" lon="1.39209">
        <ele>139</ele>
        <time>2025-04-12T08:07:50Z</time>
      </trkpt>
      <trkpt lat="43.65864" lon="1.39211">
        <ele>139</ele>
        <time>2025-04-12T08:07:51Z</time>
      </trkpt>
      <trkpt lat="43.65867" lon="1.39212">
        <ele>139</ele>
        <time>2025-04-12T08:07:52Z</time>
      </trkpt>
      <trkpt lat="43.65869" lon="1.39212">
        <ele>139</ele>
        <time>2025-04-12T08:07:53Z</time>
      </trkpt>
      <trkpt lat="43.65872" lon="1.39211">
        <ele>139</ele>
        <time>2025-04-12T08:07:54Z</time>
      </trkpt>
      <trkpt lat="43.65875" lon="1.3921">
        <ele>139</ele>
        <time>2025-04-12T08:07:55Z</time>
      </trkpt>
      <trkpt lat="43.65875" lon="1.3921">
        <ele>139</ele>
        <time>2025-04-12T08:07:56Z</time>
      </trkpt>
      <trkpt lat="43.65877" lon="1.39209">
        <ele>139</ele>
        <time>2025-04-12T08:07:57Z</time>
      </trkpt>
      <trkpt lat="43.65877" lon="1.39209">
        <ele>139</ele>
        <time>2025-04-12T08:07:58Z</time>
      </trkpt>
      <trkpt lat="43.65877" lon="1.39209">
        <ele>139</ele>
        <time>2025-04-12T08:07:59Z</time>
      </trkpt>
      <trkpt lat="43.65879" lon="1.39208">
        <ele>139</ele>
        <time>2025-04-12T08:08:00Z</time>
      </trkpt>
      <trkpt lat="43.65879" lon="1.39208">
        <ele>139</ele>
        <time>2025-04-12T08:08:01Z</time>
      </trkpt>
      <trkpt lat="43.65882" lon="1.39209">
        <ele>139</ele>
        <time>2025-04-12T08:08:02Z</time>
      </trkpt>
      <trkpt lat="43.65885" lon="1.39208">
        <ele>139</ele>
        <time>2025-04-12T08:08:03Z</time>
      </trkpt>
      <trkpt lat="43.65888" lon="1.39208">
        <ele>139</ele>
        <time>2025-04-12T08:08:04Z</time>
      </trkpt>
      <trkpt lat="43.65892" lon="1.39209">
        <ele>139</ele>
        <time>2025-04-12T08:08:05Z</time>
      </trkpt>
      <trkpt lat="43.65894" lon="1.39209">
        <ele>139</ele>
        <time>2025-04-12T08:08:06Z</time>
      </trkpt>
      <trkpt lat="43.65897" lon="1.3921">
        <ele>139</ele>
        <time>2025-04-12T08:08:07Z</time>
      </trkpt>
      <trkpt lat="43.659" lon="1.39211">
        <ele>139</ele>
        <time>2025-04-12T08:08:08Z</time>
      </trkpt>
      <trkpt lat="43.65902" lon="1.39213">
        <ele>139</ele>
        <time>2025-04-12T08:08:09Z</time>
      </trkpt>
      <trkpt lat="43.65905" lon="1.39214">
        <ele>139</ele>
        <time>2025-04-12T08:08:10Z</time>
      </trkpt>
      <trkpt lat="43.65907" lon="1.39216">
        <ele>139</ele>
        <time>2025-04-12T08:08:11Z</time>
      </trkpt>
      <trkpt lat="43.6591" lon="1.39218">
        <ele>140</ele>
        <time>2025-04-12T08:08:12Z</time>
      </trkpt>
      <trkpt lat="43.65912" lon="1.3922">
        <ele>140</ele>
        <time>2025-04-12T08:08:13Z</time>
      </trkpt>
      <trkpt lat="43.65915" lon="1.39221">
        <ele>140</ele>
        <time>2025-04-12T08:08:14Z</time>
      </trkpt>
      <trkpt lat="43.65917" lon="1.39221">
        <ele>139</ele>
        <time>2025-04-12T08:08:15Z</time>
      </trkpt>
      <trkpt lat="43.6592" lon="1.39221">
        <ele>139</ele>
        <time>2025-04-12T08:08:16Z</time>
      </trkpt>
      <trkpt lat="43.65922" lon="1.39221">
        <ele>138</ele>
        <time>2025-04-12T08:08:17Z</time>
      </trkpt>
      <trkpt lat="43.65925" lon="1.39221">
        <ele>138</ele>
        <time>2025-04-12T08:08:18Z</time>
      </trkpt>
      <trkpt lat="43.65928" lon="1.39221">
        <ele>137</ele>
        <time>2025-04-12T08:08:19Z</time>
      </trkpt>
      <trkpt lat="43.65931" lon="1.39222">
        <ele>137</ele>
        <time>2025-04-12T08:08:20Z</time>
      </trkpt>
      <trkpt lat="43.65934" lon="1.39222">
        <ele>136</ele>
        <time>2025-04-12T08:08:21Z</time>
      </trkpt>
      <trkpt lat="43.65937" lon="1.39222">
        <ele>136</ele>
        <time>2025-04-12T08:08:22Z</time>
      </trkpt>
      <trkpt lat="43.6594" lon="1.39222">
        <ele>136</ele>
        <time>2025-04-12T08:08:23Z</time>
      </trkpt>
      <trkpt lat="43.65942" lon="1.39223">
        <ele>136</ele>
        <time>2025-04-12T08:08:24Z</time>
      </trkpt>
      <trkpt lat="43.65946" lon="1.39223">
        <ele>135</ele>
        <time>2025-04-12T08:08:25Z</time>
      </trkpt>
      <trkpt lat="43.65949" lon="1.39224">
        <ele>135</ele>
        <time>2025-04-12T08:08:26Z</time>
      </trkpt>
      <trkpt lat="43.65952" lon="1.39223">
        <ele>135</ele>
        <time>2025-04-12T08:08:27Z</time>
      </trkpt>
      <trkpt lat="43.65956" lon="1.39222">
        <ele>134</ele>
        <time>2025-04-12T08:08:28Z</time>
      </trkpt>
      <trkpt lat="43.65959" lon="1.39223">
        <ele>133</ele>
        <time>2025-04-12T08:08:29Z</time>
      </trkpt>
      <trkpt lat="43.65961" lon="1.39224">
        <ele>133</ele>
        <time>2025-04-12T08:08:30Z</time>
      </trkpt>
      <trkpt lat="43.65964" lon="1.39225">
        <ele>133</ele>
        <time>2025-04-12T08:08:31Z</time>
      </trkpt>
      <trkpt lat="43.65967" lon="1.39225">
        <ele>132</ele>
        <time>2025-04-12T08:08:32Z</time>
      </trkpt>
      <trkpt lat="43.6597" lon="1.39226">
        <ele>131</ele>
        <time>2025-04-12T08:08:33Z</time>
      </trkpt>
      <trkpt lat="43.65973" lon="1.39227">
        <ele>131</ele>
        <time>2025-04-12T08:08:34Z</time>
      </trkpt>
      <trkpt lat="43.65977" lon="1.39227">
        <ele>130</ele>
        <time>2025-04-12T08:08:35Z</time>
      </trkpt>
      <trkpt lat="43.6598" lon="1.39227">
        <ele>129</ele>
        <time>2025-04-12T08:08:36Z</time>
      </trkpt>
      <trkpt lat="43.65983" lon="1.39227">
        <ele>128</ele>
        <time>2025-04-12T08:08:37Z</time>
      </trkpt>
      <trkpt lat="43.65986" lon="1.39227">
        <ele>127</ele>
        <time>2025-04-12T08:08:38Z</time>
      </trkpt>
      <trkpt lat="43.65989" lon="1.39227">
        <ele>127</ele>
        <time>2025-04-12T08:08:39Z</time>
      </trkpt>
      <trkpt lat="43.65992" lon="1.39227">
        <ele>126</ele>
        <time>2025-04-12T08:08:40Z</time>
      </trkpt>
      <trkpt lat="43.65995" lon="1.39226">
        <ele>126</ele>
        <time>2025-04-12T08:08:41Z</time>
      </trkpt>
      <trkpt lat="43.65999" lon="1.39226">
        <ele>126</ele>
        <time>2025-04-12T08:08:42Z</time>
      </trkpt>
      <trkpt lat="43.66001" lon="1.39225">
        <ele>126</ele>
        <time>2025-04-12T08:08:43Z</time>
      </trkpt>
      <trkpt lat="43.66001" lon="1.39225">
        <ele>126</ele>
        <time>2025-04-12T08:08:44Z</time>
      </trkpt>
      <trkpt lat="43.66006" lon="1.39222">
        <ele>125</ele>
        <time>2025-04-12T08:08:45Z</time>
      </trkpt>
      <trkpt lat="43.66008" lon="1.39221">
        <ele>125</ele>
        <time>2025-04-12T08:08:46Z</time>
      </trkpt>
      <trkpt lat="43.66008" lon="1.39221">
        <ele>125</ele>
        <time>2025-04-12T08:08:47Z</time>
      </trkpt>
      <trkpt lat="43.6601" lon="1.39219">
        <ele>125</ele>
        <time>2025-04-12T08:08:48Z</time>
      </trkpt>
      <trkpt lat="43.66012" lon="1.39218">
        <ele>125</ele>
        <time>2025-04-12T08:08:49Z</time>
      </trkpt>
      <trkpt lat="43.66014" lon="1.39217">
        <ele>125</ele>
        <time>2025-04-12T08:08:50Z</time>
      </trkpt>
      <trkpt lat="43.66016" lon="1.39216">
        <ele>125</ele>
        <time>2025-04-12T08:08:51Z</time>
      </trkpt>
      <trkpt lat="43.66018" lon="1.39215">
        <ele>124</ele>
        <time>2025-04-12T08:08:52Z</time>
      </trkpt>
      <trkpt lat="43.6602" lon="1.39214">
        <ele>124</ele>
        <time>2025-04-12T08:08:53Z</time>
      </trkpt>
      <trkpt lat="43.66022" lon="1.39213">
        <ele>124</ele>
        <time>2025-04-12T08:08:54Z</time>
      </trkpt>
      <trkpt lat="43.66024" lon="1.39212">
        <ele>124</ele>
        <time>2025-04-12T08:08:55Z</time>
      </trkpt>
      <trkpt lat="43.66026" lon="1.39211">
        <ele>124</ele>
        <time>2025-04-12T08:08:56Z</time>
      </trkpt>
      <trkpt lat="43.66028" lon="1.3921">
        <ele>124</ele>
        <time>2025-04-12T08:08:57Z</time>
      </trkpt>
      <trkpt lat="43.66031" lon="1.3921">
        <ele>124</ele>
        <time>2025-04-12T08:08:58Z</time>
      </trkpt>
      <trkpt lat="43.66033" lon="1.39211">
        <ele>124</ele>
        <time>2025-04-12T08:08:59Z</time>
      </trkpt>
      <trkpt lat="43.66035" lon="1.39211">
        <ele>124</ele>
        <time>2025-04-12T08:09:00Z</time>
      </trkpt>
      <trkpt lat="43.66038" lon="1.39212">
        <ele>124</ele>
        <time>2025-04-12T08:09:01Z</time>
      </trkpt>
      <trkpt lat="43.66041" lon="1.39211">
        <ele>124</ele>
        <time>2025-04-12T08:09:02Z</time>
      </trkpt>
      <trkpt lat="43.66045" lon="1.39211">
        <ele>124</ele>
        <time>2025-04-12T08:09:03Z</time>
      </trkpt>
      <trkpt lat="43.66049" lon="1.39211">
        <ele>124</ele>
        <time>2025-04-12T08:09:04Z</time>
      </trkpt>
      <trkpt lat="43.66053" lon="1.3921">
        <ele>124</ele>
        <time>2025-04-12T08:09:05Z</time>
      </trkpt>
      <trkpt lat="43.66056" lon="1.3921">
        <ele>124</ele>
        <time>2025-04-12T08:09:06Z</time>
      </trkpt>
      <trkpt lat="43.66056" lon="1.3921">
        <ele>124</ele>
        <time>2025-04-12T08:09:07Z</time>
      </trkpt>
      <trkpt lat="43.6606" lon="1.39209">
        <ele>124</ele>
        <time>2025-04-12T08:09:08Z</time>
      </trkpt>
      <trkpt lat="43.66063" lon="1.39209">
        <ele>124</ele>
        <time>2025-04-12T08:09:09Z</time>
      </trkpt>
      <trkpt lat="43.66065" lon="1.39208">
        <ele>124</ele>
        <time>2025-04-12T08:09:10Z</time>
      </trkpt>
      <trkpt lat="43.66067" lon="1.39206">
        <ele>124</ele>
        <time>2025-04-12T08:09:11Z</time>
      </trkpt>
      <trkpt lat="43.6607" lon="1.39204">
        <ele>124</ele>
        <time>2025-04-12T08:09:12Z</time>
      </trkpt>
      <trkpt lat="43.66073" lon="1.39203">
        <ele>124</ele>
        <time>2025-04-12T08:09:13Z</time>
      </trkpt>
      <trkpt lat="43.66076" lon="1.39203">
        <ele>124</ele>
        <time>2025-04-12T08:09:14Z</time>
      </trkpt>
      <trkpt lat="43.66078" lon="1.39202">
        <ele>124</ele>
        <time>2025-04-12T08:09:15Z</time>
      </trkpt>
      <trkpt lat="43.66081" lon="1.392">
        <ele>124</ele>
        <time>2025-04-12T08:09:16Z</time>
      </trkpt>
      <trkpt lat="43.66083" lon="1.39199">
        <ele>124</ele>
        <time>2025-04-12T08:09:17Z</time>
      </trkpt>
      <trkpt lat="43.66087" lon="1.39197">
        <ele>124</ele>
        <time>2025-04-12T08:09:18Z</time>
      </trkpt>
      <trkpt lat="43.66089" lon="1.39196">
        <ele>124</ele>
        <time>2025-04-12T08:09:19Z</time>
      </trkpt>
      <trkpt lat="43.66092" lon="1.39195">
        <ele>124</ele>
        <time>2025-04-12T08:09:20Z</time>
      </trkpt>
      <trkpt lat="43.66094" lon="1.39194">
        <ele>124</ele>
        <time>2025-04-12T08:09:21Z</time>
      </trkpt>
      <trkpt lat="43.66096" lon="1.39192">
        <ele>124</ele>
        <time>2025-04-12T08:09:22Z</time>
      </trkpt>
      <trkpt lat="43.66098" lon="1.3919">
        <ele>124</ele>
        <time>2025-04-12T08:09:23Z</time>
      </trkpt>
      <trkpt lat="43.66101" lon="1.39189">
        <ele>124</ele>
        <time>2025-04-12T08:09:24Z</time>
      </trkpt>
      <trkpt lat="43.66104" lon="1.39189">
        <ele>124</ele>
        <time>2025-04-12T08:09:25Z</time>
      </trkpt>
      <trkpt lat="43.66109" lon="1.39188">
        <ele>124</ele>
        <time>2025-04-12T08:09:27Z</time>
      </trkpt>
      <trkpt lat="43.66112" lon="1.39187">
        <ele>124</ele>
        <time>2025-04-12T08:09:28Z</time>
      </trkpt>
      <trkpt lat="43.66114" lon="1.39187">
        <ele>124</ele>
        <time>2025-04-12T08:09:29Z</time>
      </trkpt>
      <trkpt lat="43.66114" lon="1.39187">
        <ele>124</ele>
        <time>2025-04-12T08:09:30Z</time>
      </trkpt>
      <trkpt lat="43.66119" lon="1.39185">
        <ele>124</ele>
        <time>2025-04-12T08:09:31Z</time>
      </trkpt>
      <trkpt lat="43.6612" lon="1.39184">
        <ele>124</ele>
        <time>2025-04-12T08:09:32Z</time>
      </trkpt>
      <trkpt lat="43.6612" lon="1.39184">
        <ele>124</ele>
        <time>2025-04-12T08:09:33Z</time>
      </trkpt>
      <trkpt lat="43.66125" lon="1.39184">
        <ele>123</ele>
        <time>2025-04-12T08:09:34Z</time>
      </trkpt>
      <trkpt lat="43.66129" lon="1.39183">
        <ele>123</ele>
        <time>2025-04-12T08:09:35Z</time>
      </trkpt>
      <trkpt lat="43.66133" lon="1.39182">
        <ele>123</ele>
        <time>2025-04-12T08:09:36Z</time>
      </trkpt>
      <trkpt lat="43.66136" lon="1.39181">
        <ele>123</ele>
        <time>2025-04-12T08:09:37Z</time>
      </trkpt>
      <trkpt lat="43.66139" lon="1.3918">
        <ele>124</ele>
        <time>2025-04-12T08:09:38Z</time>
      </trkpt>
      <trkpt lat="43.66141" lon="1.39179">
        <ele>124</ele>
        <time>2025-04-12T08:09:39Z</time>
      </trkpt>
      <trkpt lat="43.66143" lon="1.39177">
        <ele>124</ele>
        <time>2025-04-12T08:09:40Z</time>
      </trkpt>
      <trkpt lat="43.66145" lon="1.39175">
        <ele>124</ele>
        <time>2025-04-12T08:09:41Z</time>
      </trkpt>
      <trkpt lat="43.66148" lon="1.39174">
        <ele>124</ele>
        <time>2025-04-12T08:09:42Z</time>
      </trkpt>
      <trkpt lat="43.6615" lon="1.39173">
        <ele>124</ele>
        <time>2025-04-12T08:09:43Z</time>
      </trkpt>
      <trkpt lat="43.66152" lon="1.39172">
        <ele>124</ele>
        <time>2025-04-12T08:09:44Z</time>
      </trkpt>
      <trkpt lat="43.66154" lon="1.39171">
        <ele>124</ele>
        <time>2025-04-12T08:09:45Z</time>
      </trkpt>
      <trkpt lat="43.66157" lon="1.39169">
        <ele>124</ele>
        <time>2025-04-12T08:09:46Z</time>
      </trkpt>
      <trkpt lat="43.6616" lon="1.39167">
        <ele>124</ele>
        <time>2025-04-12T08:09:47Z</time>
      </trkpt>
      <trkpt lat="43.66162" lon="1.39165">
        <ele>123</ele>
        <time>2025-04-12T08:09:48Z</time>
      </trkpt>
      <trkpt lat="43.66165" lon="1.39164">
        <ele>124</ele>
        <time>2025-04-12T08:09:49Z</time>
      </trkpt>
      <trkpt lat="43.66167" lon="1.39163">
        <ele>124</ele>
        <time>2025-04-12T08:09:50Z</time>
      </trkpt>
      <trkpt lat="43.6617" lon="1.39161">
        <ele>124</ele>
        <time>2025-04-12T08:09:51Z</time>
      </trkpt>
      <trkpt lat="43.66173" lon="1.39159">
        <ele>124</ele>
        <time>2025-04-12T08:09:52Z</time>
      </trkpt>
      <trkpt lat="43.66175" lon="1.39157">
        <ele>124</ele>
        <time>2025-04-12T08:09:53Z</time>
      </trkpt>
      <trkpt lat="43.66178" lon="1.39155">
        <ele>124</ele>
        <time>2025-04-12T08:09:54Z</time>
      </trkpt>
      <trkpt lat="43.6618" lon="1.39152">
        <ele>124</ele>
        <time>2025-04-12T08:09:55Z</time>
      </trkpt>
      <trkpt lat="43.66183" lon="1.3915">
        <ele>124</ele>
        <time>2025-04-12T08:09:56Z</time>
      </trkpt>
      <trkpt lat="43.66185" lon="1.39148">
        <ele>124</ele>
        <time>2025-04-12T08:09:57Z</time>
      </trkpt>
      <trkpt lat="43.66187" lon="1.39146">
        <ele>124</ele>
        <time>2025-04-12T08:09:58Z</time>
      </trkpt>
      <trkpt lat="43.6619" lon="1.39145">
        <ele>123</ele>
        <time>2025-04-12T08:09:59Z</time>
      </trkpt>
      <trkpt lat="43.66192" lon="1.39143">
        <ele>123</ele>
        <time>2025-04-12T08:10:00Z</time>
      </trkpt>
      <trkpt lat="43.66194" lon="1.3914">
        <ele>123</ele>
        <time>2025-04-12T08:10:01Z</time>
      </trkpt>
      <trkpt lat="43.66196" lon="1.39137">
        <ele>124</ele>
        <time>2025-04-12T08:10:03Z</time>
      </trkpt>
      <trkpt lat="43.66202" lon="1.39132">
        <ele>124</ele>
        <time>2025-04-12T08:10:04Z</time>
      </trkpt>
      <trkpt lat="43.66203" lon="1.3913">
        <ele>123</ele>
        <time>2025-04-12T08:10:05Z</time>
      </trkpt>
      <trkpt lat="43.66205" lon="1.39129">
        <ele>123</ele>
        <time>2025-04-12T08:10:06Z</time>
      </trkpt>
      <trkpt lat="43.66207" lon="1.3913">
        <ele>123</ele>
        <time>2025-04-12T08:10:07Z</time>
      </trkpt>
      <trkpt lat="43.66207" lon="1.3913">
        <ele>123</ele>
        <time>2025-04-12T08:10:08Z</time>
      </trkpt>
      <trkpt lat="43.66215" lon="1.39134">
        <ele>123</ele>
        <time>2025-04-12T08:10:09Z</time>
      </trkpt>
      <trkpt lat="43.66217" lon="1.39135">
        <ele>123</ele>
        <time>2025-04-12T08:10:10Z</time>
      </trkpt>
      <trkpt lat="43.66219" lon="1.39137">
        <ele>123</ele>
        <time>2025-04-12T08:10:11Z</time>
      </trkpt>
      <trkpt lat="43.66222" lon="1.3914">
        <ele>123</ele>
        <time>2025-04-12T08:10:12Z</time>
      </trkpt>
      <trkpt lat="43.66224" lon="1.39143">
        <ele>123</ele>
        <time>2025-04-12T08:10:13Z</time>
      </trkpt>
      <trkpt lat="43.66226" lon="1.39146">
        <ele>123</ele>
        <time>2025-04-12T08:10:14Z</time>
      </trkpt>
      <trkpt lat="43.66228" lon="1.39148">
        <ele>123</ele>
        <time>2025-04-12T08:10:15Z</time>
      </trkpt>
      <trkpt lat="43.66229" lon="1.39151">
        <ele>123</ele>
        <time>2025-04-12T08:10:16Z</time>
      </trkpt>
      <trkpt lat="43.66231" lon="1.39154">
        <ele>123</ele>
        <time>2025-04-12T08:10:17Z</time>
      </trkpt>
      <trkpt lat="43.66233" lon="1.39157">
        <ele>124</ele>
        <time>2025-04-12T08:10:18Z</time>
      </trkpt>
      <trkpt lat="43.66235" lon="1.39159">
        <ele>123</ele>
        <time>2025-04-12T08:10:20Z</time>
      </trkpt>
      <trkpt lat="43.6624" lon="1.39162">
        <ele>123</ele>
        <time>2025-04-12T08:10:21Z</time>
      </trkpt>
      <trkpt lat="43.66243" lon="1.39162">
        <ele>123</ele>
        <time>2025-04-12T08:10:22Z</time>
      </trkpt>
      <trkpt lat="43.66245" lon="1.3916">
        <ele>123</ele>
        <time>2025-04-12T08:10:23Z</time>
      </trkpt>
      <trkpt lat="43.66247" lon="1.39158">
        <ele>123</ele>
        <time>2025-04-12T08:10:24Z</time>
      </trkpt>
      <trkpt lat="43.66248" lon="1.39155">
        <ele>123</ele>
        <time>2025-04-12T08:10:25Z</time>
      </trkpt>
      <trkpt lat="43.66249" lon="1.39152">
        <ele>123</ele>
        <time>2025-04-12T08:10:26Z</time>
      </trkpt>
      <trkpt lat="43.6625" lon="1.3915">
        <ele>123</ele>
        <time>2025-04-12T08:10:27Z</time>
      </trkpt>
      <trkpt lat="43.6625" lon="1.39147">
        <ele>123</ele>
        <time>2025-04-12T08:10:28Z</time>
      </trkpt>
      <trkpt lat="43.66251" lon="1.39144">
        <ele>123</ele>
        <time>2025-04-12T08:10:29Z</time>
      </trkpt>
      <trkpt lat="43.66251" lon="1.39141">
        <ele>123</ele>
        <time>2025-04-12T08:10:30Z</time>
      </trkpt>
      <trkpt lat="43.66251" lon="1.39138">
        <ele>123</ele>
        <time>2025-04-12T08:10:31Z</time>
      </trkpt>
      <trkpt lat="43.66251" lon="1.39135">
        <ele>123</ele>
        <time>2025-04-12T08:10:32Z</time>
      </trkpt>
      <trkpt lat="43.66251" lon="1.39133">
        <ele>122</ele>
        <time>2025-04-12T08:10:33Z</time>
      </trkpt>
      <trkpt lat="43.66251" lon="1.39129">
        <ele>123</ele>
        <time>2025-04-12T08:10:34Z</time>
      </trkpt>
      <trkpt lat="43.66251" lon="1.39126">
        <ele>123</ele>
        <time>2025-04-12T08:10:35Z</time>
      </trkpt>
      <trkpt lat="43.6625" lon="1.39121">
        <ele>123</ele>
        <time>2025-04-12T08:10:36Z</time>
      </trkpt>
      <trkpt lat="43.66251" lon="1.39117">
        <ele>123</ele>
        <time>2025-04-12T08:10:37Z</time>
      </trkpt>
      <trkpt lat="43.66251" lon="1.39117">
        <ele>123</ele>
        <time>2025-04-12T08:10:38Z</time>
      </trkpt>
      <trkpt lat="43.66252" lon="1.39111">
        <ele>123</ele>
        <time>2025-04-12T08:10:39Z</time>
      </trkpt>
      <trkpt lat="43.66253" lon="1.39107">
        <ele>123</ele>
        <time>2025-04-12T08:10:40Z</time>
      </trkpt>
      <trkpt lat="43.66254" lon="1.39104">
        <ele>123</ele>
        <time>2025-04-12T08:10:41Z</time>
      </trkpt>
      <trkpt lat="43.66255" lon="1.391">
        <ele>123</ele>
        <time>2025-04-12T08:10:42Z</time>
      </trkpt>
      <trkpt lat="43.66256" lon="1.39098">
        <ele>123</ele>
        <time>2025-04-12T08:10:43Z</time>
      </trkpt>
      <trkpt lat="43.66257" lon="1.39095">
        <ele>122</ele>
        <time>2025-04-12T08:10:44Z</time>
      </trkpt>
      <trkpt lat="43.66258" lon="1.39092">
        <ele>122</ele>
        <time>2025-04-12T08:10:45Z</time>
      </trkpt>
      <trkpt lat="43.6626" lon="1.39089">
        <ele>122</ele>
        <time>2025-04-12T08:10:46Z</time>
      </trkpt>
      <trkpt lat="43.66261" lon="1.39086">
        <ele>122</ele>
        <time>2025-04-12T08:10:47Z</time>
      </trkpt>
      <trkpt lat="43.66263" lon="1.39084">
        <ele>121</ele>
        <time>2025-04-12T08:10:48Z</time>
      </trkpt>
      <trkpt lat="43.66264" lon="1.3908">
        <ele>121</ele>
        <time>2025-04-12T08:10:49Z</time>
      </trkpt>
      <trkpt lat="43.66264" lon="1.3908">
        <ele>121</ele>
        <time>2025-04-12T08:10:50Z</time>
      </trkpt>
      <trkpt lat="43.66264" lon="1.39072">
        <ele>121</ele>
        <time>2025-04-12T08:10:51Z</time>
      </trkpt>
      <trkpt lat="43.66264" lon="1.39071">
        <ele>121</ele>
        <time>2025-04-12T08:10:52Z</time>
      </trkpt>
      <trkpt lat="43.66264" lon="1.39067">
        <ele>121</ele>
        <time>2025-04-12T08:10:53Z</time>
      </trkpt>
      <trkpt lat="43.66264" lon="1.39064">
        <ele>121</ele>
        <time>2025-04-12T08:10:54Z</time>
      </trkpt>
      <trkpt lat="43.66264" lon="1.3906">
        <ele>121</ele>
        <time>2025-04-12T08:10:55Z</time>
      </trkpt>
      <trkpt lat="43.66264" lon="1.3906">
        <ele>121</ele>
        <time>2025-04-12T08:10:56Z</time>
      </trkpt>
      <trkpt lat="43.66264" lon="1.39054">
        <ele>121</ele>
        <time>2025-04-12T08:10:57Z</time>
      </trkpt>
      <trkpt lat="43.66264" lon="1.39048">
        <ele>121</ele>
        <time>2025-04-12T08:10:58Z</time>
      </trkpt>
      <trkpt lat="43.66264" lon="1.39045">
        <ele>121</ele>
        <time>2025-04-12T08:10:59Z</time>
      </trkpt>
      <trkpt lat="43.66264" lon="1.39045">
        <ele>121</ele>
        <time>2025-04-12T08:11:00Z</time>
      </trkpt>
      <trkpt lat="43.66265" lon="1.3904">
        <ele>121</ele>
        <time>2025-04-12T08:11:01Z</time>
      </trkpt>
      <trkpt lat="43.66266" lon="1.39037">
        <ele>121</ele>
        <time>2025-04-12T08:11:02Z</time>
      </trkpt>
      <trkpt lat="43.66266" lon="1.39037">
        <ele>121</ele>
        <time>2025-04-12T08:11:03Z</time>
      </trkpt>
      <trkpt lat="43.6627" lon="1.3903">
        <ele>121</ele>
        <time>2025-04-12T08:11:04Z</time>
      </trkpt>
      <trkpt lat="43.6627" lon="1.3903">
        <ele>121</ele>
        <time>2025-04-12T08:11:05Z</time>
      </trkpt>
      <trkpt lat="43.66273" lon="1.39025">
        <ele>121</ele>
        <time>2025-04-12T08:11:06Z</time>
      </trkpt>
      <trkpt lat="43.66276" lon="1.3902">
        <ele>121</ele>
        <time>2025-04-12T08:11:07Z</time>
      </trkpt>
      <trkpt lat="43.66279" lon="1.39015">
        <ele>121</ele>
        <time>2025-04-12T08:11:08Z</time>
      </trkpt>
      <trkpt lat="43.66281" lon="1.39009">
        <ele>121</ele>
        <time>2025-04-12T08:11:09Z</time>
      </trkpt>
      <trkpt lat="43.66282" lon="1.39008">
        <ele>121</ele>
        <time>2025-04-12T08:11:10Z</time>
      </trkpt>
      <trkpt lat="43.66283" lon="1.39004">
        <ele>121</ele>
        <time>2025-04-12T08:11:11Z</time>
      </trkpt>
      <trkpt lat="43.66285" lon="1.39">
        <ele>121</ele>
        <time>2025-04-12T08:11:12Z</time>
      </trkpt>
      <trkpt lat="43.66288" lon="1.38997">
        <ele>121</ele>
        <time>2025-04-12T08:11:13Z</time>
      </trkpt>
      <trkpt lat="43.6629" lon="1.38994">
        <ele>121</ele>
        <time>2025-04-12T08:11:14Z</time>
      </trkpt>
      <trkpt lat="43.66292" lon="1.38991">
        <ele>121</ele>
        <time>2025-04-12T08:11:15Z</time>
      </trkpt>
      <trkpt lat="43.66292" lon="1.38991">
        <ele>121</ele>
        <time>2025-04-12T08:11:16Z</time>
      </trkpt>
      <trkpt lat="43.66295" lon="1.38985">
        <ele>121</ele>
        <time>2025-04-12T08:11:17Z</time>
      </trkpt>
      <trkpt lat="43.66297" lon="1.38982">
        <ele>121</ele>
        <time>2025-04-12T08:11:18Z</time>
      </trkpt>
      <trkpt lat="43.66299" lon="1.38979">
        <ele>121</ele>
        <time>2025-04-12T08:11:19Z</time>
      </trkpt>
      <trkpt lat="43.66301" lon="1.38976">
        <ele>121</ele>
        <time>2025-04-12T08:11:20Z</time>
      </trkpt>
      <trkpt lat="43.66302" lon="1.38973">
        <ele>122</ele>
        <time>2025-04-12T08:11:21Z</time>
      </trkpt>
      <trkpt lat="43.66304" lon="1.38969">
        <ele>122</ele>
        <time>2025-04-12T08:11:22Z</time>
      </trkpt>
      <trkpt lat="43.66305" lon="1.38967">
        <ele>122</ele>
        <time>2025-04-12T08:11:23Z</time>
      </trkpt>
      <trkpt lat="43.66307" lon="1.38964">
        <ele>122</ele>
        <time>2025-04-12T08:11:24Z</time>
      </trkpt>
      <trkpt lat="43.66308" lon="1.38961">
        <ele>121</ele>
        <time>2025-04-12T08:11:25Z</time>
      </trkpt>
      <trkpt lat="43.6631" lon="1.38959">
        <ele>121</ele>
        <time>2025-04-12T08:11:26Z</time>
      </trkpt>
      <trkpt lat="43.66311" lon="1.38956">
        <ele>121</ele>
        <time>2025-04-12T08:11:27Z</time>
      </trkpt>
      <trkpt lat="43.66313" lon="1.38954">
        <ele>121</ele>
        <time>2025-04-12T08:11:28Z</time>
      </trkpt>
      <trkpt lat="43.66315" lon="1.38953">
        <ele>121</ele>
        <time>2025-04-12T08:11:29Z</time>
      </trkpt>
      <trkpt lat="43.66318" lon="1.38952">
        <ele>121</ele>
        <time>2025-04-12T08:11:30Z</time>
      </trkpt>
      <trkpt lat="43.6632" lon="1.38951">
        <ele>121</ele>
        <time>2025-04-12T08:11:31Z</time>
      </trkpt>
      <trkpt lat="43.66322" lon="1.38949">
        <ele>121</ele>
        <time>2025-04-12T08:11:32Z</time>
      </trkpt>
      <trkpt lat="43.66324" lon="1.38947">
        <ele>121</ele>
        <time>2025-04-12T08:11:33Z</time>
      </trkpt>
      <trkpt lat="43.66325" lon="1.38944">
        <ele>121</ele>
        <time>2025-04-12T08:11:34Z</time>
      </trkpt>
      <trkpt lat="43.66326" lon="1.38942">
        <ele>121</ele>
        <time>2025-04-12T08:11:35Z</time>
      </trkpt>
      <trkpt lat="43.66326" lon="1.38942">
        <ele>121</ele>
        <time>2025-04-12T08:11:36Z</time>
      </trkpt>
      <trkpt lat="43.6633" lon="1.38937">
        <ele>121</ele>
        <time>2025-04-12T08:11:37Z</time>
      </trkpt>
      <trkpt lat="43.66331" lon="1.38934">
        <ele>121</ele>
        <time>2025-04-12T08:11:38Z</time>
      </trkpt>
      <trkpt lat="43.66333" lon="1.38931">
        <ele>121</ele>
        <time>2025-04-12T08:11:39Z</time>
      </trkpt>
      <trkpt lat="43.66335" lon="1.38928">
        <ele>121</ele>
        <time>2025-04-12T08:11:40Z</time>
      </trkpt>
      <trkpt lat="43.66337" lon="1.38925">
        <ele>121</ele>
        <time>2025-04-12T08:11:41Z</time>
      </trkpt>
      <trkpt lat="43.66339" lon="1.38922">
        <ele>121</ele>
        <time>2025-04-12T08:11:42Z</time>
      </trkpt>
      <trkpt lat="43.66341" lon="1.38919">
        <ele>121</ele>
        <time>2025-04-12T08:11:43Z</time>
      </trkpt>
      <trkpt lat="43.66344" lon="1.38917">
        <ele>121</ele>
        <time>2025-04-12T08:11:44Z</time>
      </trkpt>
      <trkpt lat="43.66346" lon="1.38914">
        <ele>121</ele>
        <time>2025-04-12T08:11:45Z</time>
      </trkpt>
      <trkpt lat="43.66347" lon="1.38911">
        <ele>121</ele>
        <time>2025-04-12T08:11:46Z</time>
      </trkpt>
      <trkpt lat="43.66349" lon="1.38908">
        <ele>121</ele>
        <time>2025-04-12T08:11:47Z</time>
      </trkpt>
      <trkpt lat="43.66351" lon="1.38905">
        <ele>121</ele>
        <time>2025-04-12T08:11:48Z</time>
      </trkpt>
      <trkpt lat="43.66353" lon="1.38902">
        <ele>121</ele>
        <time>2025-04-12T08:11:49Z</time>
      </trkpt>
      <trkpt lat="43.66354" lon="1.38899">
        <ele>121</ele>
        <time>2025-04-12T08:11:50Z</time>
      </trkpt>
      <trkpt lat="43.66356" lon="1.38896">
        <ele>121</ele>
        <time>2025-04-12T08:11:51Z</time>
      </trkpt>
      <trkpt lat="43.66359" lon="1.38893">
        <ele>121</ele>
        <time>2025-04-12T08:11:52Z</time>
      </trkpt>
      <trkpt lat="43.66361" lon="1.3889">
        <ele>121</ele>
        <time>2025-04-12T08:11:53Z</time>
      </trkpt>
      <trkpt lat="43.66365" lon="1.38883">
        <ele>121</ele>
        <time>2025-04-12T08:11:55Z</time>
      </trkpt>
      <trkpt lat="43.66365" lon="1.38882">
        <ele>121</ele>
        <time>2025-04-12T08:11:56Z</time>
      </trkpt>
      <trkpt lat="43.66367" lon="1.38879">
        <ele>121</ele>
        <time>2025-04-12T08:11:57Z</time>
      </trkpt>
      <trkpt lat="43.66369" lon="1.38877">
        <ele>121</ele>
        <time>2025-04-12T08:11:58Z</time>
      </trkpt>
      <trkpt lat="43.66371" lon="1.38874">
        <ele>121</ele>
        <time>2025-04-12T08:11:59Z</time>
      </trkpt>
      <trkpt lat="43.66372" lon="1.38873">
        <ele>121</ele>
        <time>2025-04-12T08:12:00Z</time>
      </trkpt>
      <trkpt lat="43.66374" lon="1.3887">
        <ele>121</ele>
        <time>2025-04-12T08:12:01Z</time>
      </trkpt>
      <trkpt lat="43.66377" lon="1.38868">
        <ele>121</ele>
        <time>2025-04-12T08:12:02Z</time>
      </trkpt>
      <trkpt lat="43.66378" lon="1.38866">
        <ele>121</ele>
        <time>2025-04-12T08:12:03Z</time>
      </trkpt>
      <trkpt lat="43.6638" lon="1.38863">
        <ele>121</ele>
        <time>2025-04-12T08:12:04Z</time>
      </trkpt>
      <trkpt lat="43.66382" lon="1.38861">
        <ele>121</ele>
        <time>2025-04-12T08:12:05Z</time>
      </trkpt>
      <trkpt lat="43.66384" lon="1.38859">
        <ele>121</ele>
        <time>2025-04-12T08:12:06Z</time>
      </trkpt>
      <trkpt lat="43.66386" lon="1.38857">
        <ele>121</ele>
        <time>2025-04-12T08:12:07Z</time>
      </trkpt>
      <trkpt lat="43.66388" lon="1.38854">
        <ele>121</ele>
        <time>2025-04-12T08:12:08Z</time>
      </trkpt>
      <trkpt lat="43.6639" lon="1.38852">
        <ele>121</ele>
        <time>2025-04-12T08:12:09Z</time>
      </trkpt>
      <trkpt lat="43.66392" lon="1.3885">
        <ele>121</ele>
        <time>2025-04-12T08:12:10Z</time>
      </trkpt>
      <trkpt lat="43.66394" lon="1.38847">
        <ele>121</ele>
        <time>2025-04-12T08:12:11Z</time>
      </trkpt>
      <trkpt lat="43.66396" lon="1.38845">
        <ele>121</ele>
        <time>2025-04-12T08:12:12Z</time>
      </trkpt>
      <trkpt lat="43.66401" lon="1.38842">
        <ele>121</ele>
        <time>2025-04-12T08:12:14Z</time>
      </trkpt>
      <trkpt lat="43.66403" lon="1.3884">
        <ele>121</ele>
        <time>2025-04-12T08:12:15Z</time>
      </trkpt>
      <trkpt lat="43.66405" lon="1.38839">
        <ele>121</ele>
        <time>2025-04-12T08:12:16Z</time>
      </trkpt>
      <trkpt lat="43.66407" lon="1.38837">
        <ele>121</ele>
        <time>2025-04-12T08:12:17Z</time>
      </trkpt>
      <trkpt lat="43.66409" lon="1.38835">
        <ele>121</ele>
        <time>2025-04-12T08:12:18Z</time>
      </trkpt>
      <trkpt lat="43.66412" lon="1.38833">
        <ele>121</ele>
        <time>2025-04-12T08:12:19Z</time>
      </trkpt>
      <trkpt lat="43.66414" lon="1.38831">
        <ele>121</ele>
        <time>2025-04-12T08:12:20Z</time>
      </trkpt>
      <trkpt lat="43.66417" lon="1.38828">
        <ele>121</ele>
        <time>2025-04-12T08:12:21Z</time>
      </trkpt>
      <trkpt lat="43.66419" lon="1.38826">
        <ele>121</ele>
        <time>2025-04-12T08:12:22Z</time>
      </trkpt>
      <trkpt lat="43.66421" lon="1.38824">
        <ele>121</ele>
        <time>2025-04-12T08:12:23Z</time>
      </trkpt>
      <trkpt lat="43.66424" lon="1.38822">
        <ele>121</ele>
        <time>2025-04-12T08:12:24Z</time>
      </trkpt>
      <trkpt lat="43.66426" lon="1.38819">
        <ele>121</ele>
        <time>2025-04-12T08:12:25Z</time>
      </trkpt>
      <trkpt lat="43.66428" lon="1.38818">
        <ele>121</ele>
        <time>2025-04-12T08:12:26Z</time>
      </trkpt>
      <trkpt lat="43.6643" lon="1.38816">
        <ele>121</ele>
        <time>2025-04-12T08:12:27Z</time>
      </trkpt>
      <trkpt lat="43.66432" lon="1.38815">
        <ele>121</ele>
        <time>2025-04-12T08:12:28Z</time>
      </trkpt>
      <trkpt lat="43.66434" lon="1.38813">
        <ele>121</ele>
        <time>2025-04-12T08:12:29Z</time>
      </trkpt>
      <trkpt lat="43.66436" lon="1.38812">
        <ele>121</ele>
        <time>2025-04-12T08:12:30Z</time>
      </trkpt>
      <trkpt lat="43.66438" lon="1.3881">
        <ele>121</ele>
        <time>2025-04-12T08:12:31Z</time>
      </trkpt>
      <trkpt lat="43.66438" lon="1.3881">
        <ele>121</ele>
        <time>2025-04-12T08:12:32Z</time>
      </trkpt>
      <trkpt lat="43.66442" lon="1.38806">
        <ele>121</ele>
        <time>2025-04-12T08:12:33Z</time>
      </trkpt>
      <trkpt lat="43.66444" lon="1.38805">
        <ele>121</ele>
        <time>2025-04-12T08:12:34Z</time>
      </trkpt>
      <trkpt lat="43.66446" lon="1.38802">
        <ele>121</ele>
        <time>2025-04-12T08:12:35Z</time>
      </trkpt>
      <trkpt lat="43.66448" lon="1.388">
        <ele>121</ele>
        <time>2025-04-12T08:12:36Z</time>
      </trkpt>
      <trkpt lat="43.6645" lon="1.38798">
        <ele>121</ele>
        <time>2025-04-12T08:12:37Z</time>
      </trkpt>
      <trkpt lat="43.66452" lon="1.38797">
        <ele>121</ele>
        <time>2025-04-12T08:12:38Z</time>
      </trkpt>
      <trkpt lat="43.66454" lon="1.38796">
        <ele>121</ele>
        <time>2025-04-12T08:12:39Z</time>
      </trkpt>
      <trkpt lat="43.66456" lon="1.38794">
        <ele>121</ele>
        <time>2025-04-12T08:12:40Z</time>
      </trkpt>
      <trkpt lat="43.66458" lon="1.38791">
        <ele>121</ele>
        <time>2025-04-12T08:12:41Z</time>
      </trkpt>
      <trkpt lat="43.66461" lon="1.38789">
        <ele>121</ele>
        <time>2025-04-12T08:12:42Z</time>
      </trkpt>
      <trkpt lat="43.66463" lon="1.38787">
        <ele>121</ele>
        <time>2025-04-12T08:12:43Z</time>
      </trkpt>
      <trkpt lat="43.66465" lon="1.38785">
        <ele>121</ele>
        <time>2025-04-12T08:12:44Z</time>
      </trkpt>
      <trkpt lat="43.66467" lon="1.38783">
        <ele>121</ele>
        <time>2025-04-12T08:12:45Z</time>
      </trkpt>
      <trkpt lat="43.66469" lon="1.38782">
        <ele>121</ele>
        <time>2025-04-12T08:12:46Z</time>
      </trkpt>
      <trkpt lat="43.66472" lon="1.3878">
        <ele>121</ele>
        <time>2025-04-12T08:12:47Z</time>
      </trkpt>
      <trkpt lat="43.66475" lon="1.38778">
        <ele>121</ele>
        <time>2025-04-12T08:12:48Z</time>
      </trkpt>
      <trkpt lat="43.66477" lon="1.38776">
        <ele>121</ele>
        <time>2025-04-12T08:12:49Z</time>
      </trkpt>
      <trkpt lat="43.66479" lon="1.38774">
        <ele>121</ele>
        <time>2025-04-12T08:12:50Z</time>
      </trkpt>
      <trkpt lat="43.66482" lon="1.38772">
        <ele>121</ele>
        <time>2025-04-12T08:12:51Z</time>
      </trkpt>
      <trkpt lat="43.66484" lon="1.3877">
        <ele>121</ele>
        <time>2025-04-12T08:12:52Z</time>
      </trkpt>
      <trkpt lat="43.66485" lon="1.38768">
        <ele>121</ele>
        <time>2025-04-12T08:12:53Z</time>
      </trkpt>
      <trkpt lat="43.66487" lon="1.38766">
        <ele>121</ele>
        <time>2025-04-12T08:12:54Z</time>
      </trkpt>
      <trkpt lat="43.66489" lon="1.38764">
        <ele>121</ele>
        <time>2025-04-12T08:12:55Z</time>
      </trkpt>
      <trkpt lat="43.66492" lon="1.38762">
        <ele>121</ele>
        <time>2025-04-12T08:12:56Z</time>
      </trkpt>
      <trkpt lat="43.66494" lon="1.38759">
        <ele>121</ele>
        <time>2025-04-12T08:12:57Z</time>
      </trkpt>
      <trkpt lat="43.66496" lon="1.38757">
        <ele>121</ele>
        <time>2025-04-12T08:12:58Z</time>
      </trkpt>
      <trkpt lat="43.66499" lon="1.38755">
        <ele>121</ele>
        <time>2025-04-12T08:12:59Z</time>
      </trkpt>
      <trkpt lat="43.665" lon="1.38753">
        <ele>121</ele>
        <time>2025-04-12T08:13:00Z</time>
      </trkpt>
      <trkpt lat="43.66503" lon="1.3875">
        <ele>121</ele>
        <time>2025-04-12T08:13:01Z</time>
      </trkpt>
      <trkpt lat="43.66506" lon="1.38748">
        <ele>121</ele>
        <time>2025-04-12T08:13:02Z</time>
      </trkpt>
      <trkpt lat="43.66509" lon="1.38746">
        <ele>121</ele>
        <time>2025-04-12T08:13:03Z</time>
      </trkpt>
      <trkpt lat="43.6651" lon="1.38743">
        <ele>121</ele>
        <time>2025-04-12T08:13:04Z</time>
      </trkpt>
      <trkpt lat="43.66512" lon="1.38741">
        <ele>121</ele>
        <time>2025-04-12T08:13:05Z</time>
      </trkpt>
      <trkpt lat="43.66514" lon="1.38739">
        <ele>121</ele>
        <time>2025-04-12T08:13:06Z</time>
      </trkpt>
      <trkpt lat="43.66516" lon="1.38737">
        <ele>121</ele>
        <time>2025-04-12T08:13:07Z</time>
      </trkpt>
      <trkpt lat="43.66518" lon="1.38735">
        <ele>121</ele>
        <time>2025-04-12T08:13:08Z</time>
      </trkpt>
      <trkpt lat="43.6652" lon="1.38733">
        <ele>121</ele>
        <time>2025-04-12T08:13:09Z</time>
      </trkpt>
      <trkpt lat="43.66522" lon="1.38731">
        <ele>121</ele>
        <time>2025-04-12T08:13:10Z</time>
      </trkpt>
      <trkpt lat="43.66522" lon="1.38731">
        <ele>121</ele>
        <time>2025-04-12T08:13:11Z</time>
      </trkpt>
      <trkpt lat="43.66527" lon="1.38726">
        <ele>121</ele>
        <time>2025-04-12T08:13:12Z</time>
      </trkpt>
      <trkpt lat="43.66529" lon="1.38724">
        <ele>121</ele>
        <time>2025-04-12T08:13:13Z</time>
      </trkpt>
      <trkpt lat="43.66529" lon="1.38724">
        <ele>121</ele>
        <time>2025-04-12T08:13:14Z</time>
      </trkpt>
      <trkpt lat="43.66533" lon="1.3872">
        <ele>121</ele>
        <time>2025-04-12T08:13:15Z</time>
      </trkpt>
      <trkpt lat="43.66536" lon="1.38717">
        <ele>121</ele>
        <time>2025-04-12T08:13:16Z</time>
      </trkpt>
      <trkpt lat="43.66538" lon="1.38715">
        <ele>121</ele>
        <time>2025-04-12T08:13:17Z</time>
      </trkpt>
      <trkpt lat="43.6654" lon="1.38713">
        <ele>121</ele>
        <time>2025-04-12T08:13:18Z</time>
      </trkpt>
      <trkpt lat="43.66542" lon="1.38711">
        <ele>121</ele>
        <time>2025-04-12T08:13:19Z</time>
      </trkpt>
      <trkpt lat="43.66543" lon="1.38709">
        <ele>121</ele>
        <time>2025-04-12T08:13:20Z</time>
      </trkpt>
      <trkpt lat="43.66546" lon="1.38706">
        <ele>121</ele>
        <time>2025-04-12T08:13:21Z</time>
      </trkpt>
      <trkpt lat="43.66548" lon="1.38704">
        <ele>121</ele>
        <time>2025-04-12T08:13:22Z</time>
      </trkpt>
      <trkpt lat="43.66549" lon="1.38702">
        <ele>121</ele>
        <time>2025-04-12T08:13:23Z</time>
      </trkpt>
      <trkpt lat="43.66551" lon="1.38699">
        <ele>121</ele>
        <time>2025-04-12T08:13:24Z</time>
      </trkpt>
      <trkpt lat="43.66552" lon="1.38696">
        <ele>121</ele>
        <time>2025-04-12T08:13:25Z</time>
      </trkpt>
      <trkpt lat="43.66552" lon="1.38693">
        <ele>121</ele>
        <time>2025-04-12T08:13:26Z</time>
      </trkpt>
      <trkpt lat="43.66552" lon="1.3869">
        <ele>121</ele>
        <time>2025-04-12T08:13:27Z</time>
      </trkpt>
      <trkpt lat="43.66552" lon="1.3869">
        <ele>121</ele>
        <time>2025-04-12T08:13:28Z</time>
      </trkpt>
      <trkpt lat="43.6655" lon="1.38686">
        <ele>121</ele>
        <time>2025-04-12T08:13:29Z</time>
      </trkpt>
      <trkpt lat="43.66549" lon="1.38684">
        <ele>121</ele>
        <time>2025-04-12T08:13:30Z</time>
      </trkpt>
      <trkpt lat="43.66549" lon="1.38684">
        <ele>121</ele>
        <time>2025-04-12T08:13:31Z</time>
      </trkpt>
      <trkpt lat="43.66546" lon="1.38681">
        <ele>121</ele>
        <time>2025-04-12T08:13:32Z</time>
      </trkpt>
      <trkpt lat="43.66545" lon="1.38677">
        <ele>121</ele>
        <time>2025-04-12T08:13:33Z</time>
      </trkpt>
      <trkpt lat="43.66545" lon="1.38674">
        <ele>121</ele>
        <time>2025-04-12T08:13:34Z</time>
      </trkpt>
      <trkpt lat="43.66546" lon="1.3867">
        <ele>121</ele>
        <time>2025-04-12T08:13:35Z</time>
      </trkpt>
      <trkpt lat="43.66547" lon="1.38667">
        <ele>121</ele>
        <time>2025-04-12T08:13:36Z</time>
      </trkpt>
      <trkpt lat="43.66548" lon="1.38663">
        <ele>120</ele>
        <time>2025-04-12T08:13:37Z</time>
      </trkpt>
      <trkpt lat="43.6655" lon="1.38659">
        <ele>120</ele>
        <time>2025-04-12T08:13:38Z</time>
      </trkpt>
      <trkpt lat="43.66552" lon="1.38656">
        <ele>120</ele>
        <time>2025-04-12T08:13:39Z</time>
      </trkpt>
      <trkpt lat="43.66553" lon="1.38653">
        <ele>120</ele>
        <time>2025-04-12T08:13:40Z</time>
      </trkpt>
      <trkpt lat="43.66555" lon="1.38651">
        <ele>120</ele>
        <time>2025-04-12T08:13:41Z</time>
      </trkpt>
      <trkpt lat="43.66557" lon="1.38648">
        <ele>120</ele>
        <time>2025-04-12T08:13:42Z</time>
      </trkpt>
      <trkpt lat="43.66559" lon="1.38646">
        <ele>120</ele>
        <time>2025-04-12T08:13:43Z</time>
      </trkpt>
      <trkpt lat="43.66561" lon="1.38643">
        <ele>120</ele>
        <time>2025-04-12T08:13:44Z</time>
      </trkpt>
      <trkpt lat="43.66562" lon="1.3864">
        <ele>120</ele>
        <time>2025-04-12T08:13:45Z</time>
      </trkpt>
      <trkpt lat="43.66564" lon="1.38637">
        <ele>120</ele>
        <time>2025-04-12T08:13:46Z</time>
      </trkpt>
      <trkpt lat="43.66566" lon="1.38634">
        <ele>120</ele>
        <time>2025-04-12T08:13:47Z</time>
      </trkpt>
      <trkpt lat="43.66566" lon="1.38634">
        <ele>120</ele>
        <time>2025-04-12T08:13:48Z</time>
      </trkpt>
      <trkpt lat="43.66569" lon="1.38628">
        <ele>120</ele>
        <time>2025-04-12T08:13:49Z</time>
      </trkpt>
      <trkpt lat="43.66573" lon="1.38622">
        <ele>120</ele>
        <time>2025-04-12T08:13:51Z</time>
      </trkpt>
      <trkpt lat="43.66575" lon="1.38619">
        <ele>120</ele>
        <time>2025-04-12T08:13:52Z</time>
      </trkpt>
      <trkpt lat="43.66577" lon="1.38617">
        <ele>120</ele>
        <time>2025-04-12T08:13:53Z</time>
      </trkpt>
      <trkpt lat="43.66579" lon="1.38614">
        <ele>121</ele>
        <time>2025-04-12T08:13:54Z</time>
      </trkpt>
      <trkpt lat="43.6658" lon="1.3861">
        <ele>121</ele>
        <time>2025-04-12T08:13:55Z</time>
      </trkpt>
      <trkpt lat="43.66582" lon="1.38607">
        <ele>121</ele>
        <time>2025-04-12T08:13:56Z</time>
      </trkpt>
      <trkpt lat="43.66583" lon="1.38604">
        <ele>121</ele>
        <time>2025-04-12T08:13:57Z</time>
      </trkpt>
      <trkpt lat="43.66585" lon="1.38602">
        <ele>121</ele>
        <time>2025-04-12T08:13:58Z</time>
      </trkpt>
      <trkpt lat="43.66587" lon="1.38599">
        <ele>121</ele>
        <time>2025-04-12T08:13:59Z</time>
      </trkpt>
      <trkpt lat="43.66588" lon="1.38597">
        <ele>121</ele>
        <time>2025-04-12T08:14:00Z</time>
      </trkpt>
      <trkpt lat="43.6659" lon="1.38594">
        <ele>121</ele>
        <time>2025-04-12T08:14:01Z</time>
      </trkpt>
      <trkpt lat="43.66591" lon="1.38591">
        <ele>121</ele>
        <time>2025-04-12T08:14:02Z</time>
      </trkpt>
      <trkpt lat="43.66592" lon="1.38589">
        <ele>121</ele>
        <time>2025-04-12T08:14:03Z</time>
      </trkpt>
      <trkpt lat="43.66594" lon="1.38586">
        <ele>121</ele>
        <time>2025-04-12T08:14:04Z</time>
      </trkpt>
      <trkpt lat="43.66596" lon="1.38583">
        <ele>121</ele>
        <time>2025-04-12T08:14:05Z</time>
      </trkpt>
      <trkpt lat="43.66598" lon="1.3858">
        <ele>121</ele>
        <time>2025-04-12T08:14:06Z</time>
      </trkpt>
      <trkpt lat="43.66598" lon="1.3858">
        <ele>121</ele>
        <time>2025-04-12T08:14:07Z</time>
      </trkpt>
      <trkpt lat="43.66601" lon="1.38574">
        <ele>121</ele>
        <time>2025-04-12T08:14:08Z</time>
      </trkpt>
      <trkpt lat="43.66601" lon="1.38574">
        <ele>121</ele>
        <time>2025-04-12T08:14:09Z</time>
      </trkpt>
      <trkpt lat="43.66604" lon="1.38568">
        <ele>121</ele>
        <time>2025-04-12T08:14:10Z</time>
      </trkpt>
      <trkpt lat="43.66605" lon="1.38565">
        <ele>121</ele>
        <time>2025-04-12T08:14:11Z</time>
      </trkpt>
      <trkpt lat="43.66607" lon="1.38563">
        <ele>121</ele>
        <time>2025-04-12T08:14:12Z</time>
      </trkpt>
      <trkpt lat="43.66608" lon="1.3856">
        <ele>122</ele>
        <time>2025-04-12T08:14:13Z</time>
      </trkpt>
      <trkpt lat="43.6661" lon="1.38557">
        <ele>122</ele>
        <time>2025-04-12T08:14:14Z</time>
      </trkpt>
      <trkpt lat="43.66611" lon="1.38554">
        <ele>122</ele>
        <time>2025-04-12T08:14:15Z</time>
      </trkpt>
      <trkpt lat="43.66613" lon="1.38552">
        <ele>122</ele>
        <time>2025-04-12T08:14:16Z</time>
      </trkpt>
      <trkpt lat="43.66615" lon="1.38549">
        <ele>121</ele>
        <time>2025-04-12T08:14:17Z</time>
      </trkpt>
      <trkpt lat="43.66616" lon="1.38546">
        <ele>121</ele>
        <time>2025-04-12T08:14:18Z</time>
      </trkpt>
      <trkpt lat="43.66618" lon="1.38544">
        <ele>121</ele>
        <time>2025-04-12T08:14:19Z</time>
      </trkpt>
      <trkpt lat="43.6662" lon="1.38541">
        <ele>122</ele>
        <time>2025-04-12T08:14:20Z</time>
      </trkpt>
      <trkpt lat="43.66622" lon="1.38539">
        <ele>122</ele>
        <time>2025-04-12T08:14:21Z</time>
      </trkpt>
      <trkpt lat="43.66623" lon="1.38537">
        <ele>122</ele>
        <time>2025-04-12T08:14:22Z</time>
      </trkpt>
      <trkpt lat="43.66625" lon="1.38535">
        <ele>122</ele>
        <time>2025-04-12T08:14:23Z</time>
      </trkpt>
      <trkpt lat="43.66627" lon="1.38533">
        <ele>122</ele>
        <time>2025-04-12T08:14:24Z</time>
      </trkpt>
      <trkpt lat="43.66628" lon="1.3853">
        <ele>122</ele>
        <time>2025-04-12T08:14:25Z</time>
      </trkpt>
      <trkpt lat="43.6663" lon="1.38527">
        <ele>122</ele>
        <time>2025-04-12T08:14:26Z</time>
      </trkpt>
      <trkpt lat="43.66632" lon="1.38524">
        <ele>122</ele>
        <time>2025-04-12T08:14:27Z</time>
      </trkpt>
      <trkpt lat="43.66634" lon="1.38521">
        <ele>122</ele>
        <time>2025-04-12T08:14:28Z</time>
      </trkpt>
      <trkpt lat="43.66634" lon="1.38521">
        <ele>122</ele>
        <time>2025-04-12T08:14:29Z</time>
      </trkpt>
      <trkpt lat="43.66637" lon="1.38516">
        <ele>122</ele>
        <time>2025-04-12T08:14:30Z</time>
      </trkpt>
      <trkpt lat="43.66639" lon="1.38513">
        <ele>122</ele>
        <time>2025-04-12T08:14:31Z</time>
      </trkpt>
      <trkpt lat="43.6664" lon="1.3851">
        <ele>123</ele>
        <time>2025-04-12T08:14:32Z</time>
      </trkpt>
      <trkpt lat="43.66641" lon="1.38508">
        <ele>123</ele>
        <time>2025-04-12T08:14:33Z</time>
      </trkpt>
      <trkpt lat="43.66642" lon="1.38506">
        <ele>123</ele>
        <time>2025-04-12T08:14:34Z</time>
      </trkpt>
      <trkpt lat="43.66642" lon="1.38506">
        <ele>123</ele>
        <time>2025-04-12T08:14:35Z</time>
      </trkpt>
      <trkpt lat="43.66645" lon="1.38503">
        <ele>123</ele>
        <time>2025-04-12T08:14:36Z</time>
      </trkpt>
      <trkpt lat="43.66645" lon="1.38503">
        <ele>124</ele>
        <time>2025-04-12T08:14:37Z</time>
      </trkpt>
      <trkpt lat="43.66646" lon="1.385">
        <ele>124</ele>
        <time>2025-04-12T08:14:38Z</time>
      </trkpt>
      <trkpt lat="43.66646" lon="1.385">
        <ele>124</ele>
        <time>2025-04-12T08:14:39Z</time>
      </trkpt>
      <trkpt lat="43.66648" lon="1.38497">
        <ele>124</ele>
        <time>2025-04-12T08:14:40Z</time>
      </trkpt>
      <trkpt lat="43.66648" lon="1.38497">
        <ele>124</ele>
        <time>2025-04-12T08:14:41Z</time>
      </trkpt>
      <trkpt lat="43.66649" lon="1.38494">
        <ele>124</ele>
        <time>2025-04-12T08:14:42Z</time>
      </trkpt>
      <trkpt lat="43.66649" lon="1.38494">
        <ele>124</ele>
        <time>2025-04-12T08:14:43Z</time>
      </trkpt>
      <trkpt lat="43.66651" lon="1.3849">
        <ele>124</ele>
        <time>2025-04-12T08:14:44Z</time>
      </trkpt>
      <trkpt lat="43.66652" lon="1.38488">
        <ele>124</ele>
        <time>2025-04-12T08:14:46Z</time>
      </trkpt>
      <trkpt lat="43.66653" lon="1.38485">
        <ele>124</ele>
        <time>2025-04-12T08:14:47Z</time>
      </trkpt>
      <trkpt lat="43.66653" lon="1.38485">
        <ele>125</ele>
        <time>2025-04-12T08:14:48Z</time>
      </trkpt>
      <trkpt lat="43.66653" lon="1.38482">
        <ele>126</ele>
        <time>2025-04-12T08:14:49Z</time>
      </trkpt>
      <trkpt lat="43.66653" lon="1.38482">
        <ele>126</ele>
        <time>2025-04-12T08:14:50Z</time>
      </trkpt>
      <trkpt lat="43.66653" lon="1.38478">
        <ele>126</ele>
        <time>2025-04-12T08:14:51Z</time>
      </trkpt>
      <trkpt lat="43.66653" lon="1.38478">
        <ele>127</ele>
        <time>2025-04-12T08:14:52Z</time>
      </trkpt>
      <trkpt lat="43.66653" lon="1.38475">
        <ele>127</ele>
        <time>2025-04-12T08:14:53Z</time>
      </trkpt>
      <trkpt lat="43.66653" lon="1.38475">
        <ele>127</ele>
        <time>2025-04-12T08:14:54Z</time>
      </trkpt>
      <trkpt lat="43.66651" lon="1.38472">
        <ele>127</ele>
        <time>2025-04-12T08:14:55Z</time>
      </trkpt>
      <trkpt lat="43.66651" lon="1.38472">
        <ele>127</ele>
        <time>2025-04-12T08:14:56Z</time>
      </trkpt>
      <trkpt lat="43.6665" lon="1.38467">
        <ele>127</ele>
        <time>2025-04-12T08:14:57Z</time>
      </trkpt>
      <trkpt lat="43.6665" lon="1.38467">
        <ele>127</ele>
        <time>2025-04-12T08:14:58Z</time>
      </trkpt>
      <trkpt lat="43.66649" lon="1.38464">
        <ele>127</ele>
        <time>2025-04-12T08:14:59Z</time>
      </trkpt>
      <trkpt lat="43.66649" lon="1.38464">
        <ele>128</ele>
        <time>2025-04-12T08:15:00Z</time>
      </trkpt>
      <trkpt lat="43.66647" lon="1.38461">
        <ele>128</ele>
        <time>2025-04-12T08:15:01Z</time>
      </trkpt>
      <trkpt lat="43.66647" lon="1.38461">
        <ele>128</ele>
        <time>2025-04-12T08:15:02Z</time>
      </trkpt>
      <trkpt lat="43.66646" lon="1.38459">
        <ele>128</ele>
        <time>2025-04-12T08:15:03Z</time>
      </trkpt>
      <trkpt lat="43.66646" lon="1.38459">
        <ele>129</ele>
        <time>2025-04-12T08:15:04Z</time>
      </trkpt>
      <trkpt lat="43.66644" lon="1.38457">
        <ele>129</ele>
        <time>2025-04-12T08:15:05Z</time>
      </trkpt>
      <trkpt lat="43.66644" lon="1.38457">
        <ele>129</ele>
        <time>2025-04-12T08:15:06Z</time>
      </trkpt>
      <trkpt lat="43.66642" lon="1.38455">
        <ele>129</ele>
        <time>2025-04-12T08:15:07Z</time>
      </trkpt>
      <trkpt lat="43.66642" lon="1.38455">
        <ele>130</ele>
        <time>2025-04-12T08:15:08Z</time>
      </trkpt>
      <trkpt lat="43.6664" lon="1.38452">
        <ele>131</ele>
        <time>2025-04-12T08:15:09Z</time>
      </trkpt>
      <trkpt lat="43.6664" lon="1.38452">
        <ele>131</ele>
        <time>2025-04-12T08:15:10Z</time>
      </trkpt>
      <trkpt lat="43.66638" lon="1.3845">
        <ele>131</ele>
        <time>2025-04-12T08:15:11Z</time>
      </trkpt>
      <trkpt lat="43.66638" lon="1.3845">
        <ele>132</ele>
        <time>2025-04-12T08:15:12Z</time>
      </trkpt>
      <trkpt lat="43.66636" lon="1.38447">
        <ele>132</ele>
        <time>2025-04-12T08:15:13Z</time>
      </trkpt>
      <trkpt lat="43.66636" lon="1.38447">
        <ele>133</ele>
        <time>2025-04-12T08:15:14Z</time>
      </trkpt>
      <trkpt lat="43.66634" lon="1.38445">
        <ele>133</ele>
        <time>2025-04-12T08:15:15Z</time>
      </trkpt>
      <trkpt lat="43.66634" lon="1.38445">
        <ele>133</ele>
        <time>2025-04-12T08:15:16Z</time>
      </trkpt>
      <trkpt lat="43.66632" lon="1.38442">
        <ele>132</ele>
        <time>2025-04-12T08:15:17Z</time>
      </trkpt>
      <trkpt lat="43.66632" lon="1.38442">
        <ele>132</ele>
        <time>2025-04-12T08:15:18Z</time>
      </trkpt>
      <trkpt lat="43.6663" lon="1.3844">
        <ele>133</ele>
        <time>2025-04-12T08:15:19Z</time>
      </trkpt>
      <trkpt lat="43.6663" lon="1.3844">
        <ele>133</ele>
        <time>2025-04-12T08:15:20Z</time>
      </trkpt>
      <trkpt lat="43.66629" lon="1.38436">
        <ele>133</ele>
        <time>2025-04-12T08:15:21Z</time>
      </trkpt>
      <trkpt lat="43.6663" lon="1.38433">
        <ele>133</ele>
        <time>2025-04-12T08:15:22Z</time>
      </trkpt>
      <trkpt lat="43.6663" lon="1.38433">
        <ele>133</ele>
        <time>2025-04-12T08:15:23Z</time>
      </trkpt>
      <trkpt lat="43.66632" lon="1.38426">
        <ele>133</ele>
        <time>2025-04-12T08:15:24Z</time>
      </trkpt>
      <trkpt lat="43.66634" lon="1.38423">
        <ele>133</ele>
        <time>2025-04-12T08:15:25Z</time>
      </trkpt>
      <trkpt lat="43.66636" lon="1.38419">
        <ele>133</ele>
        <time>2025-04-12T08:15:26Z</time>
      </trkpt>
      <trkpt lat="43.66639" lon="1.38416">
        <ele>133</ele>
        <time>2025-04-12T08:15:27Z</time>
      </trkpt>
      <trkpt lat="43.66641" lon="1.38413">
        <ele>133</ele>
        <time>2025-04-12T08:15:28Z</time>
      </trkpt>
      <trkpt lat="43.66641" lon="1.38413">
        <ele>133</ele>
        <time>2025-04-12T08:15:29Z</time>
      </trkpt>
      <trkpt lat="43.66645" lon="1.38407">
        <ele>133</ele>
        <time>2025-04-12T08:15:30Z</time>
      </trkpt>
      <trkpt lat="43.66647" lon="1.38404">
        <ele>133</ele>
        <time>2025-04-12T08:15:31Z</time>
      </trkpt>
      <trkpt lat="43.66649" lon="1.38401">
        <ele>133</ele>
        <time>2025-04-12T08:15:32Z</time>
      </trkpt>
      <trkpt lat="43.66651" lon="1.38399">
        <ele>133</ele>
        <time>2025-04-12T08:15:33Z</time>
      </trkpt>
      <trkpt lat="43.66652" lon="1.38396">
        <ele>133</ele>
        <time>2025-04-12T08:15:34Z</time>
      </trkpt>
      <trkpt lat="43.66654" lon="1.38393">
        <ele>133</ele>
        <time>2025-04-12T08:15:35Z</time>
      </trkpt>
      <trkpt lat="43.66656" lon="1.3839">
        <ele>133</ele>
        <time>2025-04-12T08:15:36Z</time>
      </trkpt>
      <trkpt lat="43.66657" lon="1.38387">
        <ele>133</ele>
        <time>2025-04-12T08:15:37Z</time>
      </trkpt>
      <trkpt lat="43.66659" lon="1.38385">
        <ele>133</ele>
        <time>2025-04-12T08:15:38Z</time>
      </trkpt>
      <trkpt lat="43.66661" lon="1.38382">
        <ele>133</ele>
        <time>2025-04-12T08:15:39Z</time>
      </trkpt>
      <trkpt lat="43.66663" lon="1.3838">
        <ele>133</ele>
        <time>2025-04-12T08:15:40Z</time>
      </trkpt>
      <trkpt lat="43.66664" lon="1.38377">
        <ele>133</ele>
        <time>2025-04-12T08:15:41Z</time>
      </trkpt>
      <trkpt lat="43.66666" lon="1.38375">
        <ele>133</ele>
        <time>2025-04-12T08:15:42Z</time>
      </trkpt>
      <trkpt lat="43.66668" lon="1.38373">
        <ele>133</ele>
        <time>2025-04-12T08:15:43Z</time>
      </trkpt>
      <trkpt lat="43.66669" lon="1.3837">
        <ele>133</ele>
        <time>2025-04-12T08:15:44Z</time>
      </trkpt>
      <trkpt lat="43.66671" lon="1.38367">
        <ele>132</ele>
        <time>2025-04-12T08:15:45Z</time>
      </trkpt>
      <trkpt lat="43.66672" lon="1.38364">
        <ele>132</ele>
        <time>2025-04-12T08:15:46Z</time>
      </trkpt>
      <trkpt lat="43.66674" lon="1.38362">
        <ele>133</ele>
        <time>2025-04-12T08:15:47Z</time>
      </trkpt>
      <trkpt lat="43.66675" lon="1.3836">
        <ele>133</ele>
        <time>2025-04-12T08:15:48Z</time>
      </trkpt>
      <trkpt lat="43.66675" lon="1.3836">
        <ele>133</ele>
        <time>2025-04-12T08:15:49Z</time>
      </trkpt>
      <trkpt lat="43.66678" lon="1.38355">
        <ele>133</ele>
        <time>2025-04-12T08:15:50Z</time>
      </trkpt>
      <trkpt lat="43.66679" lon="1.38352">
        <ele>133</ele>
        <time>2025-04-12T08:15:51Z</time>
      </trkpt>
      <trkpt lat="43.66681" lon="1.38349">
        <ele>133</ele>
        <time>2025-04-12T08:15:52Z</time>
      </trkpt>
      <trkpt lat="43.66683" lon="1.38347">
        <ele>133</ele>
        <time>2025-04-12T08:15:53Z</time>
      </trkpt>
      <trkpt lat="43.66684" lon="1.38344">
        <ele>133</ele>
        <time>2025-04-12T08:15:54Z</time>
      </trkpt>
      <trkpt lat="43.66686" lon="1.38341">
        <ele>133</ele>
        <time>2025-04-12T08:15:55Z</time>
      </trkpt>
      <trkpt lat="43.66687" lon="1.38339">
        <ele>133</ele>
        <time>2025-04-12T08:15:56Z</time>
      </trkpt>
      <trkpt lat="43.66689" lon="1.38337">
        <ele>133</ele>
        <time>2025-04-12T08:15:57Z</time>
      </trkpt>
      <trkpt lat="43.66691" lon="1.38334">
        <ele>133</ele>
        <time>2025-04-12T08:15:58Z</time>
      </trkpt>
      <trkpt lat="43.66692" lon="1.38332">
        <ele>133</ele>
        <time>2025-04-12T08:15:59Z</time>
      </trkpt>
      <trkpt lat="43.66694" lon="1.38329">
        <ele>134</ele>
        <time>2025-04-12T08:16:00Z</time>
      </trkpt>
      <trkpt lat="43.66695" lon="1.38326">
        <ele>134</ele>
        <time>2025-04-12T08:16:01Z</time>
      </trkpt>
      <trkpt lat="43.66696" lon="1.38323">
        <ele>134</ele>
        <time>2025-04-12T08:16:02Z</time>
      </trkpt>
      <trkpt lat="43.66697" lon="1.3832">
        <ele>134</ele>
        <time>2025-04-12T08:16:03Z</time>
      </trkpt>
      <trkpt lat="43.66697" lon="1.3832">
        <ele>135</ele>
        <time>2025-04-12T08:16:04Z</time>
      </trkpt>
      <trkpt lat="43.66699" lon="1.38316">
        <ele>135</ele>
        <time>2025-04-12T08:16:05Z</time>
      </trkpt>
      <trkpt lat="43.66699" lon="1.38316">
        <ele>135</ele>
        <time>2025-04-12T08:16:06Z</time>
      </trkpt>
      <trkpt lat="43.667" lon="1.38311">
        <ele>135</ele>
        <time>2025-04-12T08:16:07Z</time>
      </trkpt>
      <trkpt lat="43.66702" lon="1.38307">
        <ele>135</ele>
        <time>2025-04-12T08:16:08Z</time>
      </trkpt>
      <trkpt lat="43.66703" lon="1.38304">
        <ele>135</ele>
        <time>2025-04-12T08:16:09Z</time>
      </trkpt>
      <trkpt lat="43.66703" lon="1.38304">
        <ele>135</ele>
        <time>2025-04-12T08:16:10Z</time>
      </trkpt>
      <trkpt lat="43.66706" lon="1.38298">
        <ele>135</ele>
        <time>2025-04-12T08:16:11Z</time>
      </trkpt>
      <trkpt lat="43.66708" lon="1.38295">
        <ele>135</ele>
        <time>2025-04-12T08:16:12Z</time>
      </trkpt>
      <trkpt lat="43.66709" lon="1.38292">
        <ele>135</ele>
        <time>2025-04-12T08:16:13Z</time>
      </trkpt>
      <trkpt lat="43.6671" lon="1.38288">
        <ele>136</ele>
        <time>2025-04-12T08:16:14Z</time>
      </trkpt>
      <trkpt lat="43.66712" lon="1.38285">
        <ele>136</ele>
        <time>2025-04-12T08:16:15Z</time>
      </trkpt>
      <trkpt lat="43.66713" lon="1.38282">
        <ele>136</ele>
        <time>2025-04-12T08:16:16Z</time>
      </trkpt>
      <trkpt lat="43.66714" lon="1.38279">
        <ele>136</ele>
        <time>2025-04-12T08:16:17Z</time>
      </trkpt>
      <trkpt lat="43.66715" lon="1.38275">
        <ele>136</ele>
        <time>2025-04-12T08:16:18Z</time>
      </trkpt>
      <trkpt lat="43.66716" lon="1.38272">
        <ele>136</ele>
        <time>2025-04-12T08:16:19Z</time>
      </trkpt>
      <trkpt lat="43.66716" lon="1.38272">
        <ele>136</ele>
        <time>2025-04-12T08:16:20Z</time>
      </trkpt>
      <trkpt lat="43.66718" lon="1.38265">
        <ele>137</ele>
        <time>2025-04-12T08:16:21Z</time>
      </trkpt>
      <trkpt lat="43.66719" lon="1.38262">
        <ele>137</ele>
        <time>2025-04-12T08:16:22Z</time>
      </trkpt>
      <trkpt lat="43.6672" lon="1.38259">
        <ele>138</ele>
        <time>2025-04-12T08:16:23Z</time>
      </trkpt>
      <trkpt lat="43.66721" lon="1.38256">
        <ele>138</ele>
        <time>2025-04-12T08:16:24Z</time>
      </trkpt>
      <trkpt lat="43.66721" lon="1.38253">
        <ele>138</ele>
        <time>2025-04-12T08:16:25Z</time>
      </trkpt>
      <trkpt lat="43.66722" lon="1.3825">
        <ele>138</ele>
        <time>2025-04-12T08:16:26Z</time>
      </trkpt>
      <trkpt lat="43.66722" lon="1.38246">
        <ele>138</ele>
        <time>2025-04-12T08:16:27Z</time>
      </trkpt>
      <trkpt lat="43.66722" lon="1.38243">
        <ele>138</ele>
        <time>2025-04-12T08:16:28Z</time>
      </trkpt>
      <trkpt lat="43.66723" lon="1.3824">
        <ele>138</ele>
        <time>2025-04-12T08:16:29Z</time>
      </trkpt>
      <trkpt lat="43.66723" lon="1.3824">
        <ele>139</ele>
        <time>2025-04-12T08:16:30Z</time>
      </trkpt>
      <trkpt lat="43.66723" lon="1.38234">
        <ele>139</ele>
        <time>2025-04-12T08:16:31Z</time>
      </trkpt>
      <trkpt lat="43.66723" lon="1.38231">
        <ele>139</ele>
        <time>2025-04-12T08:16:32Z</time>
      </trkpt>
      <trkpt lat="43.66724" lon="1.38227">
        <ele>139</ele>
        <time>2025-04-12T08:16:33Z</time>
      </trkpt>
      <trkpt lat="43.66724" lon="1.38224">
        <ele>139</ele>
        <time>2025-04-12T08:16:34Z</time>
      </trkpt>
      <trkpt lat="43.66725" lon="1.3822">
        <ele>139</ele>
        <time>2025-04-12T08:16:35Z</time>
      </trkpt>
      <trkpt lat="43.66725" lon="1.38216">
        <ele>139</ele>
        <time>2025-04-12T08:16:36Z</time>
      </trkpt>
      <trkpt lat="43.66725" lon="1.38213">
        <ele>139</ele>
        <time>2025-04-12T08:16:37Z</time>
      </trkpt>
      <trkpt lat="43.66725" lon="1.38209">
        <ele>139</ele>
        <time>2025-04-12T08:16:38Z</time>
      </trkpt>
      <trkpt lat="43.66725" lon="1.38206">
        <ele>139</ele>
        <time>2025-04-12T08:16:39Z</time>
      </trkpt>
      <trkpt lat="43.66725" lon="1.38203">
        <ele>139</ele>
        <time>2025-04-12T08:16:40Z</time>
      </trkpt>
      <trkpt lat="43.66725" lon="1.38199">
        <ele>139</ele>
        <time>2025-04-12T08:16:41Z</time>
      </trkpt>
      <trkpt lat="43.66725" lon="1.38196">
        <ele>139</ele>
        <time>2025-04-12T08:16:42Z</time>
      </trkpt>
      <trkpt lat="43.66725" lon="1.38192">
        <ele>139</ele>
        <time>2025-04-12T08:16:43Z</time>
      </trkpt>
      <trkpt lat="43.66726" lon="1.38188">
        <ele>139</ele>
        <time>2025-04-12T08:16:44Z</time>
      </trkpt>
      <trkpt lat="43.66726" lon="1.38185">
        <ele>139</ele>
        <time>2025-04-12T08:16:45Z</time>
      </trkpt>
      <trkpt lat="43.66726" lon="1.38182">
        <ele>139</ele>
        <time>2025-04-12T08:16:46Z</time>
      </trkpt>
      <trkpt lat="43.66726" lon="1.38179">
        <ele>139</ele>
        <time>2025-04-12T08:16:47Z</time>
      </trkpt>
      <trkpt lat="43.66726" lon="1.38175">
        <ele>139</ele>
        <time>2025-04-12T08:16:48Z</time>
      </trkpt>
      <trkpt lat="43.66726" lon="1.38172">
        <ele>139</ele>
        <time>2025-04-12T08:16:49Z</time>
      </trkpt>
      <trkpt lat="43.66726" lon="1.38168">
        <ele>139</ele>
        <time>2025-04-12T08:16:50Z</time>
      </trkpt>
      <trkpt lat="43.66727" lon="1.38165">
        <ele>139</ele>
        <time>2025-04-12T08:16:51Z</time>
      </trkpt>
      <trkpt lat="43.66727" lon="1.38162">
        <ele>139</ele>
        <time>2025-04-12T08:16:52Z</time>
      </trkpt>
      <trkpt lat="43.66728" lon="1.38159">
        <ele>139</ele>
        <time>2025-04-12T08:16:53Z</time>
      </trkpt>
      <trkpt lat="43.66728" lon="1.38155">
        <ele>139</ele>
        <time>2025-04-12T08:16:54Z</time>
      </trkpt>
      <trkpt lat="43.66729" lon="1.38151">
        <ele>139</ele>
        <time>2025-04-12T08:16:55Z</time>
      </trkpt>
      <trkpt lat="43.66729" lon="1.38148">
        <ele>139</ele>
        <time>2025-04-12T08:16:56Z</time>
      </trkpt>
      <trkpt lat="43.6673" lon="1.38144">
        <ele>139</ele>
        <time>2025-04-12T08:16:57Z</time>
      </trkpt>
      <trkpt lat="43.6673" lon="1.38141">
        <ele>139</ele>
        <time>2025-04-12T08:16:58Z</time>
      </trkpt>
      <trkpt lat="43.66731" lon="1.38137">
        <ele>139</ele>
        <time>2025-04-12T08:16:59Z</time>
      </trkpt>
      <trkpt lat="43.66731" lon="1.38134">
        <ele>139</ele>
        <time>2025-04-12T08:17:00Z</time>
      </trkpt>
      <trkpt lat="43.66731" lon="1.38131">
        <ele>139</ele>
        <time>2025-04-12T08:17:01Z</time>
      </trkpt>
      <trkpt lat="43.66732" lon="1.38128">
        <ele>139</ele>
        <time>2025-04-12T08:17:02Z</time>
      </trkpt>
      <trkpt lat="43.66732" lon="1.38124">
        <ele>140</ele>
        <time>2025-04-12T08:17:03Z</time>
      </trkpt>
      <trkpt lat="43.66732" lon="1.38121">
        <ele>140</ele>
        <time>2025-04-12T08:17:04Z</time>
      </trkpt>
      <trkpt lat="43.66732" lon="1.38117">
        <ele>139</ele>
        <time>2025-04-12T08:17:05Z</time>
      </trkpt>
      <trkpt lat="43.66733" lon="1.38114">
        <ele>139</ele>
        <time>2025-04-12T08:17:06Z</time>
      </trkpt>
      <trkpt lat="43.66734" lon="1.3811">
        <ele>139</ele>
        <time>2025-04-12T08:17:07Z</time>
      </trkpt>
      <trkpt lat="43.66734" lon="1.38107">
        <ele>139</ele>
        <time>2025-04-12T08:17:08Z</time>
      </trkpt>
      <trkpt lat="43.66734" lon="1.38104">
        <ele>139</ele>
        <time>2025-04-12T08:17:09Z</time>
      </trkpt>
      <trkpt lat="43.66734" lon="1.38104">
        <ele>139</ele>
        <time>2025-04-12T08:17:10Z</time>
      </trkpt>
      <trkpt lat="43.66734" lon="1.38097">
        <ele>139</ele>
        <time>2025-04-12T08:17:11Z</time>
      </trkpt>
      <trkpt lat="43.66734" lon="1.38093">
        <ele>139</ele>
        <time>2025-04-12T08:17:12Z</time>
      </trkpt>
      <trkpt lat="43.66734" lon="1.38089">
        <ele>139</ele>
        <time>2025-04-12T08:17:13Z</time>
      </trkpt>
      <trkpt lat="43.66734" lon="1.38085">
        <ele>139</ele>
        <time>2025-04-12T08:17:14Z</time>
      </trkpt>
      <trkpt lat="43.66734" lon="1.38082">
        <ele>139</ele>
        <time>2025-04-12T08:17:15Z</time>
      </trkpt>
      <trkpt lat="43.66734" lon="1.38078">
        <ele>139</ele>
        <time>2025-04-12T08:17:16Z</time>
      </trkpt>
      <trkpt lat="43.66734" lon="1.38071">
        <ele>140</ele>
        <time>2025-04-12T08:17:18Z</time>
      </trkpt>
      <trkpt lat="43.66733" lon="1.38067">
        <ele>140</ele>
        <time>2025-04-12T08:17:19Z</time>
      </trkpt>
      <trkpt lat="43.66732" lon="1.38064">
        <ele>140</ele>
        <time>2025-04-12T08:17:20Z</time>
      </trkpt>
      <trkpt lat="43.6673" lon="1.38061">
        <ele>140</ele>
        <time>2025-04-12T08:17:21Z</time>
      </trkpt>
      <trkpt lat="43.66728" lon="1.38058">
        <ele>140</ele>
        <time>2025-04-12T08:17:22Z</time>
      </trkpt>
      <trkpt lat="43.66728" lon="1.38058">
        <ele>139</ele>
        <time>2025-04-12T08:17:23Z</time>
      </trkpt>
      <trkpt lat="43.66725" lon="1.38053">
        <ele>139</ele>
        <time>2025-04-12T08:17:24Z</time>
      </trkpt>
      <trkpt lat="43.66723" lon="1.3805">
        <ele>139</ele>
        <time>2025-04-12T08:17:25Z</time>
      </trkpt>
      <trkpt lat="43.66721" lon="1.38047">
        <ele>139</ele>
        <time>2025-04-12T08:17:26Z</time>
      </trkpt>
      <trkpt lat="43.6672" lon="1.38045">
        <ele>139</ele>
        <time>2025-04-12T08:17:27Z</time>
      </trkpt>
      <trkpt lat="43.66718" lon="1.38042">
        <ele>139</ele>
        <time>2025-04-12T08:17:28Z</time>
      </trkpt>
      <trkpt lat="43.66715" lon="1.38035">
        <ele>139</ele>
        <time>2025-04-12T08:17:30Z</time>
      </trkpt>
      <trkpt lat="43.66714" lon="1.38032">
        <ele>139</ele>
        <time>2025-04-12T08:17:31Z</time>
      </trkpt>
      <trkpt lat="43.66712" lon="1.38029">
        <ele>139</ele>
        <time>2025-04-12T08:17:32Z</time>
      </trkpt>
      <trkpt lat="43.6671" lon="1.38027">
        <ele>139</ele>
        <time>2025-04-12T08:17:33Z</time>
      </trkpt>
      <trkpt lat="43.66708" lon="1.38025">
        <ele>138</ele>
        <time>2025-04-12T08:17:34Z</time>
      </trkpt>
      <trkpt lat="43.66706" lon="1.38024">
        <ele>139</ele>
        <time>2025-04-12T08:17:35Z</time>
      </trkpt>
      <trkpt lat="43.66706" lon="1.38024">
        <ele>139</ele>
        <time>2025-04-12T08:17:36Z</time>
      </trkpt>
      <trkpt lat="43.66702" lon="1.3802">
        <ele>139</ele>
        <time>2025-04-12T08:17:37Z</time>
      </trkpt>
      <trkpt lat="43.667" lon="1.38018">
        <ele>139</ele>
        <time>2025-04-12T08:17:38Z</time>
      </trkpt>
      <trkpt lat="43.66698" lon="1.38016">
        <ele>139</ele>
        <time>2025-04-12T08:17:39Z</time>
      </trkpt>
      <trkpt lat="43.66696" lon="1.38014">
        <ele>139</ele>
        <time>2025-04-12T08:17:40Z</time>
      </trkpt>
      <trkpt lat="43.66695" lon="1.38011">
        <ele>139</ele>
        <time>2025-04-12T08:17:41Z</time>
      </trkpt>
      <trkpt lat="43.66693" lon="1.38009">
        <ele>139</ele>
        <time>2025-04-12T08:17:42Z</time>
      </trkpt>
      <trkpt lat="43.66692" lon="1.38006">
        <ele>139</ele>
        <time>2025-04-12T08:17:43Z</time>
      </trkpt>
      <trkpt lat="43.66691" lon="1.38002">
        <ele>139</ele>
        <time>2025-04-12T08:17:44Z</time>
      </trkpt>
      <trkpt lat="43.6669" lon="1.37998">
        <ele>139</ele>
        <time>2025-04-12T08:17:45Z</time>
      </trkpt>
      <trkpt lat="43.6669" lon="1.37994">
        <ele>138</ele>
        <time>2025-04-12T08:17:46Z</time>
      </trkpt>
      <trkpt lat="43.6669" lon="1.3799">
        <ele>138</ele>
        <time>2025-04-12T08:17:47Z</time>
      </trkpt>
      <trkpt lat="43.6669" lon="1.37986">
        <ele>137</ele>
        <time>2025-04-12T08:17:48Z</time>
      </trkpt>
      <trkpt lat="43.6669" lon="1.37983">
        <ele>137</ele>
        <time>2025-04-12T08:17:49Z</time>
      </trkpt>
      <trkpt lat="43.6669" lon="1.37979">
        <ele>137</ele>
        <time>2025-04-12T08:17:50Z</time>
      </trkpt>
      <trkpt lat="43.66691" lon="1.37976">
        <ele>137</ele>
        <time>2025-04-12T08:17:51Z</time>
      </trkpt>
      <trkpt lat="43.66691" lon="1.37972">
        <ele>137</ele>
        <time>2025-04-12T08:17:52Z</time>
      </trkpt>
      <trkpt lat="43.66692" lon="1.37968">
        <ele>136</ele>
        <time>2025-04-12T08:17:53Z</time>
      </trkpt>
      <trkpt lat="43.66692" lon="1.37964">
        <ele>136</ele>
        <time>2025-04-12T08:17:54Z</time>
      </trkpt>
      <trkpt lat="43.66692" lon="1.37964">
        <ele>136</ele>
        <time>2025-04-12T08:17:55Z</time>
      </trkpt>
      <trkpt lat="43.66692" lon="1.37956">
        <ele>136</ele>
        <time>2025-04-12T08:17:56Z</time>
      </trkpt>
      <trkpt lat="43.66692" lon="1.37953">
        <ele>136</ele>
        <time>2025-04-12T08:17:57Z</time>
      </trkpt>
      <trkpt lat="43.66692" lon="1.37949">
        <ele>136</ele>
        <time>2025-04-12T08:17:58Z</time>
      </trkpt>
      <trkpt lat="43.66692" lon="1.37946">
        <ele>136</ele>
        <time>2025-04-12T08:17:59Z</time>
      </trkpt>
      <trkpt lat="43.66692" lon="1.37942">
        <ele>136</ele>
        <time>2025-04-12T08:18:00Z</time>
      </trkpt>
      <trkpt lat="43.66692" lon="1.37939">
        <ele>136</ele>
        <time>2025-04-12T08:18:01Z</time>
      </trkpt>
      <trkpt lat="43.66691" lon="1.37935">
        <ele>136</ele>
        <time>2025-04-12T08:18:02Z</time>
      </trkpt>
      <trkpt lat="43.6669" lon="1.37931">
        <ele>136</ele>
        <time>2025-04-12T08:18:03Z</time>
      </trkpt>
      <trkpt lat="43.66689" lon="1.37928">
        <ele>136</ele>
        <time>2025-04-12T08:18:04Z</time>
      </trkpt>
      <trkpt lat="43.66688" lon="1.37924">
        <ele>135</ele>
        <time>2025-04-12T08:18:05Z</time>
      </trkpt>
      <trkpt lat="43.66688" lon="1.37924">
        <ele>136</ele>
        <time>2025-04-12T08:18:06Z</time>
      </trkpt>
      <trkpt lat="43.66686" lon="1.37917">
        <ele>136</ele>
        <time>2025-04-12T08:18:07Z</time>
      </trkpt>
      <trkpt lat="43.66686" lon="1.37913">
        <ele>136</ele>
        <time>2025-04-12T08:18:08Z</time>
      </trkpt>
      <trkpt lat="43.66685" lon="1.37909">
        <ele>136</ele>
        <time>2025-04-12T08:18:09Z</time>
      </trkpt>
      <trkpt lat="43.66685" lon="1.37905">
        <ele>136</ele>
        <time>2025-04-12T08:18:10Z</time>
      </trkpt>
      <trkpt lat="43.66684" lon="1.37902">
        <ele>136</ele>
        <time>2025-04-12T08:18:11Z</time>
      </trkpt>
      <trkpt lat="43.66684" lon="1.37898">
        <ele>137</ele>
        <time>2025-04-12T08:18:12Z</time>
      </trkpt>
      <trkpt lat="43.66683" lon="1.37895">
        <ele>137</ele>
        <time>2025-04-12T08:18:13Z</time>
      </trkpt>
      <trkpt lat="43.66683" lon="1.37895">
        <ele>136</ele>
        <time>2025-04-12T08:18:14Z</time>
      </trkpt>
      <trkpt lat="43.66682" lon="1.37888">
        <ele>136</ele>
        <time>2025-04-12T08:18:15Z</time>
      </trkpt>
      <trkpt lat="43.66682" lon="1.37884">
        <ele>136</ele>
        <time>2025-04-12T08:18:16Z</time>
      </trkpt>
      <trkpt lat="43.66682" lon="1.37881">
        <ele>137</ele>
        <time>2025-04-12T08:18:17Z</time>
      </trkpt>
      <trkpt lat="43.66682" lon="1.37878">
        <ele>137</ele>
        <time>2025-04-12T08:18:18Z</time>
      </trkpt>
      <trkpt lat="43.66682" lon="1.37874">
        <ele>137</ele>
        <time>2025-04-12T08:18:19Z</time>
      </trkpt>
      <trkpt lat="43.66683" lon="1.37871">
        <ele>137</ele>
        <time>2025-04-12T08:18:20Z</time>
      </trkpt>
      <trkpt lat="43.66683" lon="1.37869">
        <ele>137</ele>
        <time>2025-04-12T08:18:21Z</time>
      </trkpt>
      <trkpt lat="43.66683" lon="1.37865">
        <ele>137</ele>
        <time>2025-04-12T08:18:22Z</time>
      </trkpt>
      <trkpt lat="43.66684" lon="1.37862">
        <ele>137</ele>
        <time>2025-04-12T08:18:23Z</time>
      </trkpt>
      <trkpt lat="43.66685" lon="1.37859">
        <ele>137</ele>
        <time>2025-04-12T08:18:24Z</time>
      </trkpt>
      <trkpt lat="43.66686" lon="1.37855">
        <ele>137</ele>
        <time>2025-04-12T08:18:25Z</time>
      </trkpt>
      <trkpt lat="43.66686" lon="1.37855">
        <ele>137</ele>
        <time>2025-04-12T08:18:26Z</time>
      </trkpt>
      <trkpt lat="43.66689" lon="1.37847">
        <ele>137</ele>
        <time>2025-04-12T08:18:27Z</time>
      </trkpt>
      <trkpt lat="43.66689" lon="1.37843">
        <ele>137</ele>
        <time>2025-04-12T08:18:28Z</time>
      </trkpt>
      <trkpt lat="43.6669" lon="1.37839">
        <ele>137</ele>
        <time>2025-04-12T08:18:29Z</time>
      </trkpt>
      <trkpt lat="43.6669" lon="1.37835">
        <ele>138</ele>
        <time>2025-04-12T08:18:30Z</time>
      </trkpt>
      <trkpt lat="43.6669" lon="1.37831">
        <ele>138</ele>
        <time>2025-04-12T08:18:31Z</time>
      </trkpt>
      <trkpt lat="43.66691" lon="1.37827">
        <ele>138</ele>
        <time>2025-04-12T08:18:32Z</time>
      </trkpt>
      <trkpt lat="43.66691" lon="1.37827">
        <ele>138</ele>
        <time>2025-04-12T08:18:33Z</time>
      </trkpt>
      <trkpt lat="43.66695" lon="1.37821">
        <ele>139</ele>
        <time>2025-04-12T08:18:34Z</time>
      </trkpt>
      <trkpt lat="43.66698" lon="1.37818">
        <ele>139</ele>
        <time>2025-04-12T08:18:35Z</time>
      </trkpt>
      <trkpt lat="43.66698" lon="1.37818">
        <ele>139</ele>
        <time>2025-04-12T08:18:36Z</time>
      </trkpt>
      <trkpt lat="43.667" lon="1.3781">
        <ele>139</ele>
        <time>2025-04-12T08:18:38Z</time>
      </trkpt>
      <trkpt lat="43.66701" lon="1.37806">
        <ele>139</ele>
        <time>2025-04-12T08:18:39Z</time>
      </trkpt>
      <trkpt lat="43.66702" lon="1.37803">
        <ele>139</ele>
        <time>2025-04-12T08:18:40Z</time>
      </trkpt>
      <trkpt lat="43.66703" lon="1.37801">
        <ele>139</ele>
        <time>2025-04-12T08:18:41Z</time>
      </trkpt>
      <trkpt lat="43.66703" lon="1.37801">
        <ele>139</ele>
        <time>2025-04-12T08:18:42Z</time>
      </trkpt>
      <trkpt lat="43.66704" lon="1.37793">
        <ele>139</ele>
        <time>2025-04-12T08:18:43Z</time>
      </trkpt>
      <trkpt lat="43.66704" lon="1.37793">
        <ele>139</ele>
        <time>2025-04-12T08:18:44Z</time>
      </trkpt>
      <trkpt lat="43.66704" lon="1.37784">
        <ele>140</ele>
        <time>2025-04-12T08:18:45Z</time>
      </trkpt>
      <trkpt lat="43.66705" lon="1.37781">
        <ele>140</ele>
        <time>2025-04-12T08:18:46Z</time>
      </trkpt>
      <trkpt lat="43.66706" lon="1.37778">
        <ele>140</ele>
        <time>2025-04-12T08:18:47Z</time>
      </trkpt>
      <trkpt lat="43.66707" lon="1.37774">
        <ele>140</ele>
        <time>2025-04-12T08:18:48Z</time>
      </trkpt>
      <trkpt lat="43.66709" lon="1.3777">
        <ele>140</ele>
        <time>2025-04-12T08:18:49Z</time>
      </trkpt>
      <trkpt lat="43.66709" lon="1.37767">
        <ele>140</ele>
        <time>2025-04-12T08:18:50Z</time>
      </trkpt>
      <trkpt lat="43.6671" lon="1.37764">
        <ele>140</ele>
        <time>2025-04-12T08:18:51Z</time>
      </trkpt>
      <trkpt lat="43.6671" lon="1.37761">
        <ele>140</ele>
        <time>2025-04-12T08:18:52Z</time>
      </trkpt>
      <trkpt lat="43.66711" lon="1.37758">
        <ele>140</ele>
        <time>2025-04-12T08:18:53Z</time>
      </trkpt>
      <trkpt lat="43.66712" lon="1.37755">
        <ele>140</ele>
        <time>2025-04-12T08:18:54Z</time>
      </trkpt>
      <trkpt lat="43.66712" lon="1.37752">
        <ele>140</ele>
        <time>2025-04-12T08:18:55Z</time>
      </trkpt>
      <trkpt lat="43.66712" lon="1.3775">
        <ele>140</ele>
        <time>2025-04-12T08:18:56Z</time>
      </trkpt>
      <trkpt lat="43.66712" lon="1.3775">
        <ele>140</ele>
        <time>2025-04-12T08:18:57Z</time>
      </trkpt>
      <trkpt lat="43.66712" lon="1.37744">
        <ele>140</ele>
        <time>2025-04-12T08:18:58Z</time>
      </trkpt>
      <trkpt lat="43.66712" lon="1.37741">
        <ele>140</ele>
        <time>2025-04-12T08:18:59Z</time>
      </trkpt>
      <trkpt lat="43.66713" lon="1.37737">
        <ele>140</ele>
        <time>2025-04-12T08:19:00Z</time>
      </trkpt>
      <trkpt lat="43.66714" lon="1.37734">
        <ele>140</ele>
        <time>2025-04-12T08:19:01Z</time>
      </trkpt>
      <trkpt lat="43.66715" lon="1.37731">
        <ele>140</ele>
        <time>2025-04-12T08:19:02Z</time>
      </trkpt>
      <trkpt lat="43.66716" lon="1.37727">
        <ele>140</ele>
        <time>2025-04-12T08:19:03Z</time>
      </trkpt>
      <trkpt lat="43.66716" lon="1.37724">
        <ele>140</ele>
        <time>2025-04-12T08:19:04Z</time>
      </trkpt>
      <trkpt lat="43.66717" lon="1.3772">
        <ele>140</ele>
        <time>2025-04-12T08:19:05Z</time>
      </trkpt>
      <trkpt lat="43.66717" lon="1.37717">
        <ele>140</ele>
        <time>2025-04-12T08:19:06Z</time>
      </trkpt>
      <trkpt lat="43.66718" lon="1.37714">
        <ele>140</ele>
        <time>2025-04-12T08:19:07Z</time>
      </trkpt>
      <trkpt lat="43.66719" lon="1.3771">
        <ele>140</ele>
        <time>2025-04-12T08:19:08Z</time>
      </trkpt>
      <trkpt lat="43.66719" lon="1.37707">
        <ele>140</ele>
        <time>2025-04-12T08:19:09Z</time>
      </trkpt>
      <trkpt lat="43.6672" lon="1.37704">
        <ele>140</ele>
        <time>2025-04-12T08:19:10Z</time>
      </trkpt>
      <trkpt lat="43.6672" lon="1.37704">
        <ele>139</ele>
        <time>2025-04-12T08:19:11Z</time>
      </trkpt>
      <trkpt lat="43.66721" lon="1.37697">
        <ele>139</ele>
        <time>2025-04-12T08:19:12Z</time>
      </trkpt>
      <trkpt lat="43.66722" lon="1.37694">
        <ele>139</ele>
        <time>2025-04-12T08:19:13Z</time>
      </trkpt>
      <trkpt lat="43.66723" lon="1.3769">
        <ele>139</ele>
        <time>2025-04-12T08:19:14Z</time>
      </trkpt>
      <trkpt lat="43.66723" lon="1.37687">
        <ele>139</ele>
        <time>2025-04-12T08:19:15Z</time>
      </trkpt>
      <trkpt lat="43.66724" lon="1.37683">
        <ele>140</ele>
        <time>2025-04-12T08:19:16Z</time>
      </trkpt>
      <trkpt lat="43.66725" lon="1.3768">
        <ele>140</ele>
        <time>2025-04-12T08:19:17Z</time>
      </trkpt>
      <trkpt lat="43.66726" lon="1.37676">
        <ele>140</ele>
        <time>2025-04-12T08:19:18Z</time>
      </trkpt>
      <trkpt lat="43.66727" lon="1.37673">
        <ele>140</ele>
        <time>2025-04-12T08:19:19Z</time>
      </trkpt>
      <trkpt lat="43.66727" lon="1.3767">
        <ele>140</ele>
        <time>2025-04-12T08:19:20Z</time>
      </trkpt>
      <trkpt lat="43.66728" lon="1.37666">
        <ele>140</ele>
        <time>2025-04-12T08:19:21Z</time>
      </trkpt>
      <trkpt lat="43.66729" lon="1.37663">
        <ele>140</ele>
        <time>2025-04-12T08:19:22Z</time>
      </trkpt>
      <trkpt lat="43.66729" lon="1.37659">
        <ele>140</ele>
        <time>2025-04-12T08:19:23Z</time>
      </trkpt>
      <trkpt lat="43.66729" lon="1.37659">
        <ele>140</ele>
        <time>2025-04-12T08:19:24Z</time>
      </trkpt>
      <trkpt lat="43.6673" lon="1.37653">
        <ele>140</ele>
        <time>2025-04-12T08:19:25Z</time>
      </trkpt>
      <trkpt lat="43.66731" lon="1.37649">
        <ele>140</ele>
        <time>2025-04-12T08:19:26Z</time>
      </trkpt>
      <trkpt lat="43.66732" lon="1.37646">
        <ele>140</ele>
        <time>2025-04-12T08:19:27Z</time>
      </trkpt>
      <trkpt lat="43.66732" lon="1.37642">
        <ele>139</ele>
        <time>2025-04-12T08:19:28Z</time>
      </trkpt>
      <trkpt lat="43.66732" lon="1.37639">
        <ele>139</ele>
        <time>2025-04-12T08:19:29Z</time>
      </trkpt>
      <trkpt lat="43.66732" lon="1.37639">
        <ele>139</ele>
        <time>2025-04-12T08:19:30Z</time>
      </trkpt>
      <trkpt lat="43.66733" lon="1.37632">
        <ele>139</ele>
        <time>2025-04-12T08:19:31Z</time>
      </trkpt>
      <trkpt lat="43.66734" lon="1.37628">
        <ele>139</ele>
        <time>2025-04-12T08:19:32Z</time>
      </trkpt>
      <trkpt lat="43.66734" lon="1.37625">
        <ele>139</ele>
        <time>2025-04-12T08:19:33Z</time>
      </trkpt>
      <trkpt lat="43.66734" lon="1.37621">
        <ele>139</ele>
        <time>2025-04-12T08:19:34Z</time>
      </trkpt>
      <trkpt lat="43.66734" lon="1.37618">
        <ele>140</ele>
        <time>2025-04-12T08:19:35Z</time>
      </trkpt>
      <trkpt lat="43.66734" lon="1.37615">
        <ele>140</ele>
        <time>2025-04-12T08:19:36Z</time>
      </trkpt>
      <trkpt lat="43.66734" lon="1.37612">
        <ele>140</ele>
        <time>2025-04-12T08:19:37Z</time>
      </trkpt>
      <trkpt lat="43.66734" lon="1.37609">
        <ele>140</ele>
        <time>2025-04-12T08:19:38Z</time>
      </trkpt>
      <trkpt lat="43.66733" lon="1.37605">
        <ele>140</ele>
        <time>2025-04-12T08:19:39Z</time>
      </trkpt>
      <trkpt lat="43.66733" lon="1.37602">
        <ele>140</ele>
        <time>2025-04-12T08:19:40Z</time>
      </trkpt>
      <trkpt lat="43.66733" lon="1.37599">
        <ele>140</ele>
        <time>2025-04-12T08:19:41Z</time>
      </trkpt>
      <trkpt lat="43.66732" lon="1.37595">
        <ele>140</ele>
        <time>2025-04-12T08:19:42Z</time>
      </trkpt>
      <trkpt lat="43.66732" lon="1.37592">
        <ele>140</ele>
        <time>2025-04-12T08:19:43Z</time>
      </trkpt>
      <trkpt lat="43.66732" lon="1.37592">
        <ele>140</ele>
        <time>2025-04-12T08:19:44Z</time>
      </trkpt>
      <trkpt lat="43.66731" lon="1.37585">
        <ele>140</ele>
        <time>2025-04-12T08:19:45Z</time>
      </trkpt>
      <trkpt lat="43.6673" lon="1.37581">
        <ele>140</ele>
        <time>2025-04-12T08:19:46Z</time>
      </trkpt>
      <trkpt lat="43.6673" lon="1.37578">
        <ele>140</ele>
        <time>2025-04-12T08:19:47Z</time>
      </trkpt>
      <trkpt lat="43.6673" lon="1.37574">
        <ele>140</ele>
        <time>2025-04-12T08:19:48Z</time>
      </trkpt>
      <trkpt lat="43.6673" lon="1.37574">
        <ele>141</ele>
        <time>2025-04-12T08:19:49Z</time>
      </trkpt>
      <trkpt lat="43.66729" lon="1.37567">
        <ele>141</ele>
        <time>2025-04-12T08:19:50Z</time>
      </trkpt>
      <trkpt lat="43.66728" lon="1.37563">
        <ele>141</ele>
        <time>2025-04-12T08:19:51Z</time>
      </trkpt>
      <trkpt lat="43.66728" lon="1.3756">
        <ele>141</ele>
        <time>2025-04-12T08:19:52Z</time>
      </trkpt>
      <trkpt lat="43.66727" lon="1.37556">
        <ele>141</ele>
        <time>2025-04-12T08:19:53Z</time>
      </trkpt>
      <trkpt lat="43.66727" lon="1.37553">
        <ele>141</ele>
        <time>2025-04-12T08:19:54Z</time>
      </trkpt>
      <trkpt lat="43.66726" lon="1.3755">
        <ele>141</ele>
        <time>2025-04-12T08:19:55Z</time>
      </trkpt>
      <trkpt lat="43.66726" lon="1.37546">
        <ele>141</ele>
        <time>2025-04-12T08:19:56Z</time>
      </trkpt>
      <trkpt lat="43.66725" lon="1.37543">
        <ele>141</ele>
        <time>2025-04-12T08:19:57Z</time>
      </trkpt>
      <trkpt lat="43.66724" lon="1.37539">
        <ele>141</ele>
        <time>2025-04-12T08:19:58Z</time>
      </trkpt>
      <trkpt lat="43.66724" lon="1.37535">
        <ele>141</ele>
        <time>2025-04-12T08:19:59Z</time>
      </trkpt>
      <trkpt lat="43.66723" lon="1.37532">
        <ele>140</ele>
        <time>2025-04-12T08:20:00Z</time>
      </trkpt>
      <trkpt lat="43.66723" lon="1.37529">
        <ele>140</ele>
        <time>2025-04-12T08:20:01Z</time>
      </trkpt>
      <trkpt lat="43.66722" lon="1.37526">
        <ele>140</ele>
        <time>2025-04-12T08:20:02Z</time>
      </trkpt>
      <trkpt lat="43.66721" lon="1.37519">
        <ele>140</ele>
        <time>2025-04-12T08:20:04Z</time>
      </trkpt>
      <trkpt lat="43.6672" lon="1.37516">
        <ele>140</ele>
        <time>2025-04-12T08:20:05Z</time>
      </trkpt>
      <trkpt lat="43.6672" lon="1.37512">
        <ele>140</ele>
        <time>2025-04-12T08:20:06Z</time>
      </trkpt>
      <trkpt lat="43.66719" lon="1.37509">
        <ele>140</ele>
        <time>2025-04-12T08:20:07Z</time>
      </trkpt>
      <trkpt lat="43.66718" lon="1.37502">
        <ele>140</ele>
        <time>2025-04-12T08:20:09Z</time>
      </trkpt>
      <trkpt lat="43.66718" lon="1.37499">
        <ele>140</ele>
        <time>2025-04-12T08:20:10Z</time>
      </trkpt>
      <trkpt lat="43.66717" lon="1.37495">
        <ele>140</ele>
        <time>2025-04-12T08:20:11Z</time>
      </trkpt>
      <trkpt lat="43.66717" lon="1.37492">
        <ele>140</ele>
        <time>2025-04-12T08:20:12Z</time>
      </trkpt>
      <trkpt lat="43.66716" lon="1.37488">
        <ele>140</ele>
        <time>2025-04-12T08:20:13Z</time>
      </trkpt>
      <trkpt lat="43.66716" lon="1.37485">
        <ele>140</ele>
        <time>2025-04-12T08:20:14Z</time>
      </trkpt>
      <trkpt lat="43.66716" lon="1.37481">
        <ele>140</ele>
        <time>2025-04-12T08:20:15Z</time>
      </trkpt>
      <trkpt lat="43.66715" lon="1.37478">
        <ele>140</ele>
        <time>2025-04-12T08:20:16Z</time>
      </trkpt>
      <trkpt lat="43.66715" lon="1.37475">
        <ele>140</ele>
        <time>2025-04-12T08:20:17Z</time>
      </trkpt>
      <trkpt lat="43.66714" lon="1.37471">
        <ele>140</ele>
        <time>2025-04-12T08:20:18Z</time>
      </trkpt>
      <trkpt lat="43.66714" lon="1.37467">
        <ele>140</ele>
        <time>2025-04-12T08:20:19Z</time>
      </trkpt>
      <trkpt lat="43.66713" lon="1.37464">
        <ele>140</ele>
        <time>2025-04-12T08:20:20Z</time>
      </trkpt>
      <trkpt lat="43.66713" lon="1.37461">
        <ele>140</ele>
        <time>2025-04-12T08:20:21Z</time>
      </trkpt>
      <trkpt lat="43.66712" lon="1.37457">
        <ele>140</ele>
        <time>2025-04-12T08:20:22Z</time>
      </trkpt>
      <trkpt lat="43.66712" lon="1.37457">
        <ele>139</ele>
        <time>2025-04-12T08:20:23Z</time>
      </trkpt>
      <trkpt lat="43.66711" lon="1.3745">
        <ele>139</ele>
        <time>2025-04-12T08:20:24Z</time>
      </trkpt>
      <trkpt lat="43.66711" lon="1.37447">
        <ele>139</ele>
        <time>2025-04-12T08:20:25Z</time>
      </trkpt>
      <trkpt lat="43.66711" lon="1.37443">
        <ele>139</ele>
        <time>2025-04-12T08:20:26Z</time>
      </trkpt>
      <trkpt lat="43.66711" lon="1.37443">
        <ele>139</ele>
        <time>2025-04-12T08:20:27Z</time>
      </trkpt>
      <trkpt lat="43.66711" lon="1.37436">
        <ele>139</ele>
        <time>2025-04-12T08:20:28Z</time>
      </trkpt>
      <trkpt lat="43.66711" lon="1.37432">
        <ele>140</ele>
        <time>2025-04-12T08:20:29Z</time>
      </trkpt>
      <trkpt lat="43.66711" lon="1.37429">
        <ele>140</ele>
        <time>2025-04-12T08:20:30Z</time>
      </trkpt>
      <trkpt lat="43.66711" lon="1.37426">
        <ele>139</ele>
        <time>2025-04-12T08:20:31Z</time>
      </trkpt>
      <trkpt lat="43.66711" lon="1.37422">
        <ele>139</ele>
        <time>2025-04-12T08:20:32Z</time>
      </trkpt>
      <trkpt lat="43.66711" lon="1.37418">
        <ele>139</ele>
        <time>2025-04-12T08:20:33Z</time>
      </trkpt>
      <trkpt lat="43.66711" lon="1.37415">
        <ele>139</ele>
        <time>2025-04-12T08:20:34Z</time>
      </trkpt>
      <trkpt lat="43.6671" lon="1.37411">
        <ele>139</ele>
        <time>2025-04-12T08:20:35Z</time>
      </trkpt>
      <trkpt lat="43.66711" lon="1.37408">
        <ele>139</ele>
        <time>2025-04-12T08:20:36Z</time>
      </trkpt>
      <trkpt lat="43.66711" lon="1.37404">
        <ele>139</ele>
        <time>2025-04-12T08:20:37Z</time>
      </trkpt>
      <trkpt lat="43.66711" lon="1.37401">
        <ele>139</ele>
        <time>2025-04-12T08:20:38Z</time>
      </trkpt>
      <trkpt lat="43.66712" lon="1.37397">
        <ele>139</ele>
        <time>2025-04-12T08:20:39Z</time>
      </trkpt>
      <trkpt lat="43.66712" lon="1.37393">
        <ele>140</ele>
        <time>2025-04-12T08:20:40Z</time>
      </trkpt>
      <trkpt lat="43.66712" lon="1.3739">
        <ele>140</ele>
        <time>2025-04-12T08:20:41Z</time>
      </trkpt>
      <trkpt lat="43.66712" lon="1.37386">
        <ele>141</ele>
        <time>2025-04-12T08:20:42Z</time>
      </trkpt>
      <trkpt lat="43.66712" lon="1.37382">
        <ele>141</ele>
        <time>2025-04-12T08:20:43Z</time>
      </trkpt>
      <trkpt lat="43.66712" lon="1.37379">
        <ele>141</ele>
        <time>2025-04-12T08:20:44Z</time>
      </trkpt>
      <trkpt lat="43.66712" lon="1.37379">
        <ele>141</ele>
        <time>2025-04-12T08:20:45Z</time>
      </trkpt>
      <trkpt lat="43.66712" lon="1.37375">
        <ele>141</ele>
        <time>2025-04-12T08:20:46Z</time>
      </trkpt>
      <trkpt lat="43.66712" lon="1.37368">
        <ele>141</ele>
        <time>2025-04-12T08:20:47Z</time>
      </trkpt>
      <trkpt lat="43.66712" lon="1.37365">
        <ele>141</ele>
        <time>2025-04-12T08:20:48Z</time>
      </trkpt>
      <trkpt lat="43.66712" lon="1.37365">
        <ele>141</ele>
        <time>2025-04-12T08:20:49Z</time>
      </trkpt>
      <trkpt lat="43.66712" lon="1.37358">
        <ele>141</ele>
        <time>2025-04-12T08:20:50Z</time>
      </trkpt>
      <trkpt lat="43.66711" lon="1.37355">
        <ele>141</ele>
        <time>2025-04-12T08:20:51Z</time>
      </trkpt>
      <trkpt lat="43.66711" lon="1.37351">
        <ele>141</ele>
        <time>2025-04-12T08:20:52Z</time>
      </trkpt>
      <trkpt lat="43.66712" lon="1.37348">
        <ele>140</ele>
        <time>2025-04-12T08:20:53Z</time>
      </trkpt>
      <trkpt lat="43.66712" lon="1.37344">
        <ele>140</ele>
        <time>2025-04-12T08:20:54Z</time>
      </trkpt>
      <trkpt lat="43.66712" lon="1.37341">
        <ele>140</ele>
        <time>2025-04-12T08:20:55Z</time>
      </trkpt>
      <trkpt lat="43.66712" lon="1.37337">
        <ele>140</ele>
        <time>2025-04-12T08:20:56Z</time>
      </trkpt>
      <trkpt lat="43.66712" lon="1.37334">
        <ele>140</ele>
        <time>2025-04-12T08:20:57Z</time>
      </trkpt>
      <trkpt lat="43.66712" lon="1.3733">
        <ele>140</ele>
        <time>2025-04-12T08:20:58Z</time>
      </trkpt>
      <trkpt lat="43.66712" lon="1.37326">
        <ele>140</ele>
        <time>2025-04-12T08:20:59Z</time>
      </trkpt>
      <trkpt lat="43.66712" lon="1.37323">
        <ele>140</ele>
        <time>2025-04-12T08:21:00Z</time>
      </trkpt>
      <trkpt lat="43.66712" lon="1.37319">
        <ele>140</ele>
        <time>2025-04-12T08:21:01Z</time>
      </trkpt>
      <trkpt lat="43.66712" lon="1.37312">
        <ele>140</ele>
        <time>2025-04-12T08:21:03Z</time>
      </trkpt>
      <trkpt lat="43.66712" lon="1.37309">
        <ele>140</ele>
        <time>2025-04-12T08:21:04Z</time>
      </trkpt>
      <trkpt lat="43.66712" lon="1.37309">
        <ele>140</ele>
        <time>2025-04-12T08:21:05Z</time>
      </trkpt>
      <trkpt lat="43.66712" lon="1.37301">
        <ele>140</ele>
        <time>2025-04-12T08:21:06Z</time>
      </trkpt>
      <trkpt lat="43.66712" lon="1.37297">
        <ele>140</ele>
        <time>2025-04-12T08:21:07Z</time>
      </trkpt>
      <trkpt lat="43.66712" lon="1.37294">
        <ele>140</ele>
        <time>2025-04-12T08:21:08Z</time>
      </trkpt>
      <trkpt lat="43.66713" lon="1.3729">
        <ele>140</ele>
        <time>2025-04-12T08:21:09Z</time>
      </trkpt>
      <trkpt lat="43.66714" lon="1.37286">
        <ele>140</ele>
        <time>2025-04-12T08:21:10Z</time>
      </trkpt>
      <trkpt lat="43.66715" lon="1.37283">
        <ele>140</ele>
        <time>2025-04-12T08:21:11Z</time>
      </trkpt>
      <trkpt lat="43.66715" lon="1.37279">
        <ele>140</ele>
        <time>2025-04-12T08:21:12Z</time>
      </trkpt>
      <trkpt lat="43.66714" lon="1.37276">
        <ele>140</ele>
        <time>2025-04-12T08:21:13Z</time>
      </trkpt>
      <trkpt lat="43.66714" lon="1.37273">
        <ele>140</ele>
        <time>2025-04-12T08:21:14Z</time>
      </trkpt>
      <trkpt lat="43.66713" lon="1.3727">
        <ele>140</ele>
        <time>2025-04-12T08:21:15Z</time>
      </trkpt>
      <trkpt lat="43.66711" lon="1.37267">
        <ele>141</ele>
        <time>2025-04-12T08:21:16Z</time>
      </trkpt>
      <trkpt lat="43.6671" lon="1.37264">
        <ele>141</ele>
        <time>2025-04-12T08:21:17Z</time>
      </trkpt>
      <trkpt lat="43.6671" lon="1.37261">
        <ele>141</ele>
        <time>2025-04-12T08:21:18Z</time>
      </trkpt>
      <trkpt lat="43.66709" lon="1.37258">
        <ele>141</ele>
        <time>2025-04-12T08:21:19Z</time>
      </trkpt>
      <trkpt lat="43.66708" lon="1.37255">
        <ele>141</ele>
        <time>2025-04-12T08:21:20Z</time>
      </trkpt>
      <trkpt lat="43.66708" lon="1.37251">
        <ele>140</ele>
        <time>2025-04-12T08:21:21Z</time>
      </trkpt>
      <trkpt lat="43.66707" lon="1.37247">
        <ele>140</ele>
        <time>2025-04-12T08:21:22Z</time>
      </trkpt>
      <trkpt lat="43.66706" lon="1.37244">
        <ele>141</ele>
        <time>2025-04-12T08:21:23Z</time>
      </trkpt>
      <trkpt lat="43.66705" lon="1.37241">
        <ele>141</ele>
        <time>2025-04-12T08:21:24Z</time>
      </trkpt>
      <trkpt lat="43.66704" lon="1.37238">
        <ele>141</ele>
        <time>2025-04-12T08:21:25Z</time>
      </trkpt>
      <trkpt lat="43.66703" lon="1.37234">
        <ele>141</ele>
        <time>2025-04-12T08:21:26Z</time>
      </trkpt>
      <trkpt lat="43.66702" lon="1.37231">
        <ele>141</ele>
        <time>2025-04-12T08:21:27Z</time>
      </trkpt>
      <trkpt lat="43.66701" lon="1.37227">
        <ele>141</ele>
        <time>2025-04-12T08:21:28Z</time>
      </trkpt>
      <trkpt lat="43.667" lon="1.37224">
        <ele>140</ele>
        <time>2025-04-12T08:21:29Z</time>
      </trkpt>
      <trkpt lat="43.66698" lon="1.37221">
        <ele>140</ele>
        <time>2025-04-12T08:21:30Z</time>
      </trkpt>
      <trkpt lat="43.66697" lon="1.37218">
        <ele>140</ele>
        <time>2025-04-12T08:21:31Z</time>
      </trkpt>
      <trkpt lat="43.66696" lon="1.37215">
        <ele>139</ele>
        <time>2025-04-12T08:21:32Z</time>
      </trkpt>
      <trkpt lat="43.66694" lon="1.37212">
        <ele>139</ele>
        <time>2025-04-12T08:21:33Z</time>
      </trkpt>
      <trkpt lat="43.66694" lon="1.37212">
        <ele>139</ele>
        <time>2025-04-12T08:21:34Z</time>
      </trkpt>
      <trkpt lat="43.66691" lon="1.37207">
        <ele>139</ele>
        <time>2025-04-12T08:21:35Z</time>
      </trkpt>
      <trkpt lat="43.6669" lon="1.37204">
        <ele>139</ele>
        <time>2025-04-12T08:21:36Z</time>
      </trkpt>
      <trkpt lat="43.66689" lon="1.37201">
        <ele>139</ele>
        <time>2025-04-12T08:21:37Z</time>
      </trkpt>
      <trkpt lat="43.66688" lon="1.37198">
        <ele>139</ele>
        <time>2025-04-12T08:21:38Z</time>
      </trkpt>
      <trkpt lat="43.66686" lon="1.37195">
        <ele>140</ele>
        <time>2025-04-12T08:21:39Z</time>
      </trkpt>
      <trkpt lat="43.66685" lon="1.37192">
        <ele>140</ele>
        <time>2025-04-12T08:21:40Z</time>
      </trkpt>
      <trkpt lat="43.66685" lon="1.37192">
        <ele>140</ele>
        <time>2025-04-12T08:21:41Z</time>
      </trkpt>
      <trkpt lat="43.66682" lon="1.37187">
        <ele>140</ele>
        <time>2025-04-12T08:21:42Z</time>
      </trkpt>
      <trkpt lat="43.6668" lon="1.37181">
        <ele>140</ele>
        <time>2025-04-12T08:21:44Z</time>
      </trkpt>
      <trkpt lat="43.66678" lon="1.37178">
        <ele>140</ele>
        <time>2025-04-12T08:21:45Z</time>
      </trkpt>
      <trkpt lat="43.66677" lon="1.37174">
        <ele>140</ele>
        <time>2025-04-12T08:21:46Z</time>
      </trkpt>
      <trkpt lat="43.66676" lon="1.37171">
        <ele>140</ele>
        <time>2025-04-12T08:21:47Z</time>
      </trkpt>
      <trkpt lat="43.66675" lon="1.37168">
        <ele>141</ele>
        <time>2025-04-12T08:21:48Z</time>
      </trkpt>
      <trkpt lat="43.66673" lon="1.37165">
        <ele>141</ele>
        <time>2025-04-12T08:21:49Z</time>
      </trkpt>
      <trkpt lat="43.66672" lon="1.37162">
        <ele>140</ele>
        <time>2025-04-12T08:21:50Z</time>
      </trkpt>
      <trkpt lat="43.66671" lon="1.37158">
        <ele>140</ele>
        <time>2025-04-12T08:21:51Z</time>
      </trkpt>
      <trkpt lat="43.6667" lon="1.37155">
        <ele>141</ele>
        <time>2025-04-12T08:21:52Z</time>
      </trkpt>
      <trkpt lat="43.6667" lon="1.37152">
        <ele>141</ele>
        <time>2025-04-12T08:21:53Z</time>
      </trkpt>
      <trkpt lat="43.66669" lon="1.37148">
        <ele>141</ele>
        <time>2025-04-12T08:21:54Z</time>
      </trkpt>
      <trkpt lat="43.66668" lon="1.37145">
        <ele>141</ele>
        <time>2025-04-12T08:21:55Z</time>
      </trkpt>
      <trkpt lat="43.66667" lon="1.37142">
        <ele>141</ele>
        <time>2025-04-12T08:21:56Z</time>
      </trkpt>
      <trkpt lat="43.66666" lon="1.37138">
        <ele>142</ele>
        <time>2025-04-12T08:21:57Z</time>
      </trkpt>
      <trkpt lat="43.66665" lon="1.37135">
        <ele>142</ele>
        <time>2025-04-12T08:21:58Z</time>
      </trkpt>
      <trkpt lat="43.66664" lon="1.37132">
        <ele>141</ele>
        <time>2025-04-12T08:21:59Z</time>
      </trkpt>
      <trkpt lat="43.66663" lon="1.37129">
        <ele>141</ele>
        <time>2025-04-12T08:22:00Z</time>
      </trkpt>
      <trkpt lat="43.66662" lon="1.37126">
        <ele>140</ele>
        <time>2025-04-12T08:22:02Z</time>
      </trkpt>
      <trkpt lat="43.66661" lon="1.3712">
        <ele>140</ele>
        <time>2025-04-12T08:22:03Z</time>
      </trkpt>
      <trkpt lat="43.6666" lon="1.37116">
        <ele>142</ele>
        <time>2025-04-12T08:22:04Z</time>
      </trkpt>
      <trkpt lat="43.66659" lon="1.37113">
        <ele>142</ele>
        <time>2025-04-12T08:22:05Z</time>
      </trkpt>
      <trkpt lat="43.66658" lon="1.37109">
        <ele>141</ele>
        <time>2025-04-12T08:22:06Z</time>
      </trkpt>
      <trkpt lat="43.66657" lon="1.37106">
        <ele>141</ele>
        <time>2025-04-12T08:22:07Z</time>
      </trkpt>
      <trkpt lat="43.66656" lon="1.37103">
        <ele>141</ele>
        <time>2025-04-12T08:22:08Z</time>
      </trkpt>
      <trkpt lat="43.66656" lon="1.371">
        <ele>141</ele>
        <time>2025-04-12T08:22:09Z</time>
      </trkpt>
      <trkpt lat="43.66655" lon="1.37096">
        <ele>141</ele>
        <time>2025-04-12T08:22:10Z</time>
      </trkpt>
      <trkpt lat="43.66655" lon="1.37093">
        <ele>141</ele>
        <time>2025-04-12T08:22:11Z</time>
      </trkpt>
      <trkpt lat="43.66654" lon="1.37091">
        <ele>141</ele>
        <time>2025-04-12T08:22:12Z</time>
      </trkpt>
      <trkpt lat="43.66653" lon="1.37087">
        <ele>141</ele>
        <time>2025-04-12T08:22:13Z</time>
      </trkpt>
      <trkpt lat="43.66652" lon="1.37084">
        <ele>141</ele>
        <time>2025-04-12T08:22:14Z</time>
      </trkpt>
      <trkpt lat="43.66651" lon="1.3708">
        <ele>141</ele>
        <time>2025-04-12T08:22:15Z</time>
      </trkpt>
      <trkpt lat="43.6665" lon="1.37077">
        <ele>141</ele>
        <time>2025-04-12T08:22:16Z</time>
      </trkpt>
      <trkpt lat="43.66649" lon="1.37073">
        <ele>140</ele>
        <time>2025-04-12T08:22:17Z</time>
      </trkpt>
      <trkpt lat="43.66648" lon="1.3707">
        <ele>140</ele>
        <time>2025-04-12T08:22:18Z</time>
      </trkpt>
      <trkpt lat="43.66648" lon="1.37067">
        <ele>140</ele>
        <time>2025-04-12T08:22:19Z</time>
      </trkpt>
      <trkpt lat="43.66647" lon="1.37063">
        <ele>140</ele>
        <time>2025-04-12T08:22:20Z</time>
      </trkpt>
      <trkpt lat="43.66647" lon="1.37056">
        <ele>140</ele>
        <time>2025-04-12T08:22:22Z</time>
      </trkpt>
      <trkpt lat="43.66647" lon="1.37056">
        <ele>140</ele>
        <time>2025-04-12T08:22:23Z</time>
      </trkpt>
      <trkpt lat="43.66648" lon="1.37049">
        <ele>140</ele>
        <time>2025-04-12T08:22:24Z</time>
      </trkpt>
      <trkpt lat="43.66649" lon="1.37045">
        <ele>140</ele>
        <time>2025-04-12T08:22:25Z</time>
      </trkpt>
      <trkpt lat="43.6665" lon="1.37043">
        <ele>140</ele>
        <time>2025-04-12T08:22:26Z</time>
      </trkpt>
      <trkpt lat="43.6665" lon="1.37039">
        <ele>141</ele>
        <time>2025-04-12T08:22:27Z</time>
      </trkpt>
      <trkpt lat="43.6665" lon="1.37035">
        <ele>141</ele>
        <time>2025-04-12T08:22:28Z</time>
      </trkpt>
      <trkpt lat="43.66648" lon="1.37032">
        <ele>142</ele>
        <time>2025-04-12T08:22:29Z</time>
      </trkpt>
      <trkpt lat="43.66646" lon="1.3703">
        <ele>143</ele>
        <time>2025-04-12T08:22:30Z</time>
      </trkpt>
      <trkpt lat="43.66644" lon="1.37028">
        <ele>143</ele>
        <time>2025-04-12T08:22:31Z</time>
      </trkpt>
      <trkpt lat="43.66642" lon="1.37026">
        <ele>143</ele>
        <time>2025-04-12T08:22:32Z</time>
      </trkpt>
      <trkpt lat="43.66639" lon="1.37024">
        <ele>142</ele>
        <time>2025-04-12T08:22:33Z</time>
      </trkpt>
      <trkpt lat="43.66638" lon="1.37021">
        <ele>142</ele>
        <time>2025-04-12T08:22:34Z</time>
      </trkpt>
      <trkpt lat="43.66636" lon="1.37017">
        <ele>142</ele>
        <time>2025-04-12T08:22:35Z</time>
      </trkpt>
      <trkpt lat="43.66636" lon="1.37014">
        <ele>142</ele>
        <time>2025-04-12T08:22:36Z</time>
      </trkpt>
      <trkpt lat="43.66635" lon="1.3701">
        <ele>142</ele>
        <time>2025-04-12T08:22:37Z</time>
      </trkpt>
      <trkpt lat="43.66634" lon="1.37007">
        <ele>142</ele>
        <time>2025-04-12T08:22:38Z</time>
      </trkpt>
      <trkpt lat="43.66634" lon="1.37007">
        <ele>142</ele>
        <time>2025-04-12T08:22:39Z</time>
      </trkpt>
      <trkpt lat="43.66632" lon="1.37">
        <ele>142</ele>
        <time>2025-04-12T08:22:40Z</time>
      </trkpt>
      <trkpt lat="43.66631" lon="1.36997">
        <ele>142</ele>
        <time>2025-04-12T08:22:41Z</time>
      </trkpt>
      <trkpt lat="43.6663" lon="1.36994">
        <ele>142</ele>
        <time>2025-04-12T08:22:42Z</time>
      </trkpt>
      <trkpt lat="43.6663" lon="1.3699">
        <ele>141</ele>
        <time>2025-04-12T08:22:43Z</time>
      </trkpt>
      <trkpt lat="43.66629" lon="1.36987">
        <ele>141</ele>
        <time>2025-04-12T08:22:44Z</time>
      </trkpt>
      <trkpt lat="43.66628" lon="1.36983">
        <ele>141</ele>
        <time>2025-04-12T08:22:45Z</time>
      </trkpt>
      <trkpt lat="43.66628" lon="1.3698">
        <ele>142</ele>
        <time>2025-04-12T08:22:46Z</time>
      </trkpt>
      <trkpt lat="43.66627" lon="1.36977">
        <ele>142</ele>
        <time>2025-04-12T08:22:47Z</time>
      </trkpt>
      <trkpt lat="43.66626" lon="1.36974">
        <ele>142</ele>
        <time>2025-04-12T08:22:48Z</time>
      </trkpt>
      <trkpt lat="43.66625" lon="1.36971">
        <ele>142</ele>
        <time>2025-04-12T08:22:49Z</time>
      </trkpt>
      <trkpt lat="43.66625" lon="1.36968">
        <ele>142</ele>
        <time>2025-04-12T08:22:50Z</time>
      </trkpt>
      <trkpt lat="43.66624" lon="1.36964">
        <ele>142</ele>
        <time>2025-04-12T08:22:51Z</time>
      </trkpt>
      <trkpt lat="43.66623" lon="1.36961">
        <ele>142</ele>
        <time>2025-04-12T08:22:52Z</time>
      </trkpt>
      <trkpt lat="43.66622" lon="1.36958">
        <ele>141</ele>
        <time>2025-04-12T08:22:53Z</time>
      </trkpt>
      <trkpt lat="43.66621" lon="1.36954">
        <ele>141</ele>
        <time>2025-04-12T08:22:54Z</time>
      </trkpt>
      <trkpt lat="43.6662" lon="1.36951">
        <ele>141</ele>
        <time>2025-04-12T08:22:55Z</time>
      </trkpt>
      <trkpt lat="43.66619" lon="1.36948">
        <ele>141</ele>
        <time>2025-04-12T08:22:56Z</time>
      </trkpt>
      <trkpt lat="43.66619" lon="1.36944">
        <ele>141</ele>
        <time>2025-04-12T08:22:57Z</time>
      </trkpt>
      <trkpt lat="43.66618" lon="1.36941">
        <ele>141</ele>
        <time>2025-04-12T08:22:58Z</time>
      </trkpt>
      <trkpt lat="43.66616" lon="1.36935">
        <ele>141</ele>
        <time>2025-04-12T08:23:00Z</time>
      </trkpt>
      <trkpt lat="43.66615" lon="1.36932">
        <ele>141</ele>
        <time>2025-04-12T08:23:01Z</time>
      </trkpt>
      <trkpt lat="43.66614" lon="1.36929">
        <ele>141</ele>
        <time>2025-04-12T08:23:02Z</time>
      </trkpt>
      <trkpt lat="43.66614" lon="1.36925">
        <ele>140</ele>
        <time>2025-04-12T08:23:03Z</time>
      </trkpt>
      <trkpt lat="43.66613" lon="1.36922">
        <ele>141</ele>
        <time>2025-04-12T08:23:04Z</time>
      </trkpt>
      <trkpt lat="43.66612" lon="1.36919">
        <ele>141</ele>
        <time>2025-04-12T08:23:05Z</time>
      </trkpt>
      <trkpt lat="43.66611" lon="1.36915">
        <ele>141</ele>
        <time>2025-04-12T08:23:06Z</time>
      </trkpt>
      <trkpt lat="43.6661" lon="1.36912">
        <ele>141</ele>
        <time>2025-04-12T08:23:07Z</time>
      </trkpt>
      <trkpt lat="43.6661" lon="1.36908">
        <ele>142</ele>
        <time>2025-04-12T08:23:08Z</time>
      </trkpt>
      <trkpt lat="43.66609" lon="1.36905">
        <ele>142</ele>
        <time>2025-04-12T08:23:09Z</time>
      </trkpt>
      <trkpt lat="43.66608" lon="1.36902">
        <ele>143</ele>
        <time>2025-04-12T08:23:10Z</time>
      </trkpt>
      <trkpt lat="43.66607" lon="1.36899">
        <ele>143</ele>
        <time>2025-04-12T08:23:11Z</time>
      </trkpt>
      <trkpt lat="43.66606" lon="1.36896">
        <ele>142</ele>
        <time>2025-04-12T08:23:12Z</time>
      </trkpt>
      <trkpt lat="43.66604" lon="1.36893">
        <ele>141</ele>
        <time>2025-04-12T08:23:13Z</time>
      </trkpt>
      <trkpt lat="43.66603" lon="1.3689">
        <ele>142</ele>
        <time>2025-04-12T08:23:14Z</time>
      </trkpt>
      <trkpt lat="43.66602" lon="1.36887">
        <ele>142</ele>
        <time>2025-04-12T08:23:15Z</time>
      </trkpt>
      <trkpt lat="43.66601" lon="1.36884">
        <ele>141</ele>
        <time>2025-04-12T08:23:16Z</time>
      </trkpt>
      <trkpt lat="43.666" lon="1.36881">
        <ele>141</ele>
        <time>2025-04-12T08:23:17Z</time>
      </trkpt>
      <trkpt lat="43.666" lon="1.36881">
        <ele>141</ele>
        <time>2025-04-12T08:23:18Z</time>
      </trkpt>
      <trkpt lat="43.66598" lon="1.36875">
        <ele>141</ele>
        <time>2025-04-12T08:23:19Z</time>
      </trkpt>
      <trkpt lat="43.66597" lon="1.36872">
        <ele>141</ele>
        <time>2025-04-12T08:23:20Z</time>
      </trkpt>
      <trkpt lat="43.66596" lon="1.36869">
        <ele>141</ele>
        <time>2025-04-12T08:23:21Z</time>
      </trkpt>
      <trkpt lat="43.66594" lon="1.36866">
        <ele>141</ele>
        <time>2025-04-12T08:23:22Z</time>
      </trkpt>
      <trkpt lat="43.66593" lon="1.36863">
        <ele>141</ele>
        <time>2025-04-12T08:23:23Z</time>
      </trkpt>
      <trkpt lat="43.66592" lon="1.36859">
        <ele>142</ele>
        <time>2025-04-12T08:23:24Z</time>
      </trkpt>
      <trkpt lat="43.66591" lon="1.36856">
        <ele>142</ele>
        <time>2025-04-12T08:23:25Z</time>
      </trkpt>
      <trkpt lat="43.6659" lon="1.36853">
        <ele>142</ele>
        <time>2025-04-12T08:23:26Z</time>
      </trkpt>
      <trkpt lat="43.66589" lon="1.3685">
        <ele>142</ele>
        <time>2025-04-12T08:23:27Z</time>
      </trkpt>
      <trkpt lat="43.66588" lon="1.36847">
        <ele>141</ele>
        <time>2025-04-12T08:23:28Z</time>
      </trkpt>
      <trkpt lat="43.66586" lon="1.36845">
        <ele>141</ele>
        <time>2025-04-12T08:23:29Z</time>
      </trkpt>
      <trkpt lat="43.66585" lon="1.36842">
        <ele>141</ele>
        <time>2025-04-12T08:23:30Z</time>
      </trkpt>
      <trkpt lat="43.66584" lon="1.36838">
        <ele>141</ele>
        <time>2025-04-12T08:23:31Z</time>
      </trkpt>
      <trkpt lat="43.66583" lon="1.36835">
        <ele>141</ele>
        <time>2025-04-12T08:23:32Z</time>
      </trkpt>
      <trkpt lat="43.66581" lon="1.36832">
        <ele>141</ele>
        <time>2025-04-12T08:23:33Z</time>
      </trkpt>
      <trkpt lat="43.6658" lon="1.36829">
        <ele>141</ele>
        <time>2025-04-12T08:23:34Z</time>
      </trkpt>
      <trkpt lat="43.66579" lon="1.36827">
        <ele>142</ele>
        <time>2025-04-12T08:23:35Z</time>
      </trkpt>
      <trkpt lat="43.66577" lon="1.36824">
        <ele>142</ele>
        <time>2025-04-12T08:23:36Z</time>
      </trkpt>
      <trkpt lat="43.66576" lon="1.36821">
        <ele>142</ele>
        <time>2025-04-12T08:23:37Z</time>
      </trkpt>
      <trkpt lat="43.66576" lon="1.36818">
        <ele>142</ele>
        <time>2025-04-12T08:23:38Z</time>
      </trkpt>
      <trkpt lat="43.66576" lon="1.36814">
        <ele>142</ele>
        <time>2025-04-12T08:23:39Z</time>
      </trkpt>
      <trkpt lat="43.66576" lon="1.36814">
        <ele>142</ele>
        <time>2025-04-12T08:23:40Z</time>
      </trkpt>
      <trkpt lat="43.66576" lon="1.36806">
        <ele>142</ele>
        <time>2025-04-12T08:23:41Z</time>
      </trkpt>
      <trkpt lat="43.66574" lon="1.36803">
        <ele>142</ele>
        <time>2025-04-12T08:23:42Z</time>
      </trkpt>
      <trkpt lat="43.66573" lon="1.36801">
        <ele>142</ele>
        <time>2025-04-12T08:23:43Z</time>
      </trkpt>
      <trkpt lat="43.66571" lon="1.36798">
        <ele>142</ele>
        <time>2025-04-12T08:23:44Z</time>
      </trkpt>
      <trkpt lat="43.66569" lon="1.36795">
        <ele>143</ele>
        <time>2025-04-12T08:23:45Z</time>
      </trkpt>
      <trkpt lat="43.66568" lon="1.36792">
        <ele>143</ele>
        <time>2025-04-12T08:23:46Z</time>
      </trkpt>
      <trkpt lat="43.66566" lon="1.36789">
        <ele>142</ele>
        <time>2025-04-12T08:23:47Z</time>
      </trkpt>
      <trkpt lat="43.66565" lon="1.36786">
        <ele>142</ele>
        <time>2025-04-12T08:23:48Z</time>
      </trkpt>
      <trkpt lat="43.66563" lon="1.36783">
        <ele>142</ele>
        <time>2025-04-12T08:23:49Z</time>
      </trkpt>
      <trkpt lat="43.66563" lon="1.36783">
        <ele>142</ele>
        <time>2025-04-12T08:23:50Z</time>
      </trkpt>
      <trkpt lat="43.66561" lon="1.36777">
        <ele>142</ele>
        <time>2025-04-12T08:23:51Z</time>
      </trkpt>
      <trkpt lat="43.66561" lon="1.36777">
        <ele>143</ele>
        <time>2025-04-12T08:23:52Z</time>
      </trkpt>
      <trkpt lat="43.66558" lon="1.36771">
        <ele>143</ele>
        <time>2025-04-12T08:23:53Z</time>
      </trkpt>
      <trkpt lat="43.66557" lon="1.36768">
        <ele>143</ele>
        <time>2025-04-12T08:23:54Z</time>
      </trkpt>
      <trkpt lat="43.66556" lon="1.36764">
        <ele>143</ele>
        <time>2025-04-12T08:23:55Z</time>
      </trkpt>
      <trkpt lat="43.66555" lon="1.36758">
        <ele>142</ele>
        <time>2025-04-12T08:23:57Z</time>
      </trkpt>
      <trkpt lat="43.66554" lon="1.36755">
        <ele>142</ele>
        <time>2025-04-12T08:23:58Z</time>
      </trkpt>
      <trkpt lat="43.66553" lon="1.36752">
        <ele>142</ele>
        <time>2025-04-12T08:23:59Z</time>
      </trkpt>
      <trkpt lat="43.66552" lon="1.36749">
        <ele>142</ele>
        <time>2025-04-12T08:24:00Z</time>
      </trkpt>
      <trkpt lat="43.66551" lon="1.36746">
        <ele>142</ele>
        <time>2025-04-12T08:24:01Z</time>
      </trkpt>
      <trkpt lat="43.6655" lon="1.36743">
        <ele>142</ele>
        <time>2025-04-12T08:24:02Z</time>
      </trkpt>
      <trkpt lat="43.66548" lon="1.3674">
        <ele>143</ele>
        <time>2025-04-12T08:24:03Z</time>
      </trkpt>
      <trkpt lat="43.66547" lon="1.36737">
        <ele>143</ele>
        <time>2025-04-12T08:24:04Z</time>
      </trkpt>
      <trkpt lat="43.66546" lon="1.36734">
        <ele>143</ele>
        <time>2025-04-12T08:24:05Z</time>
      </trkpt>
      <trkpt lat="43.66545" lon="1.36731">
        <ele>143</ele>
        <time>2025-04-12T08:24:06Z</time>
      </trkpt>
      <trkpt lat="43.66544" lon="1.36728">
        <ele>143</ele>
        <time>2025-04-12T08:24:07Z</time>
      </trkpt>
      <trkpt lat="43.66543" lon="1.36726">
        <ele>143</ele>
        <time>2025-04-12T08:24:08Z</time>
      </trkpt>
      <trkpt lat="43.66541" lon="1.36723">
        <ele>143</ele>
        <time>2025-04-12T08:24:09Z</time>
      </trkpt>
      <trkpt lat="43.6654" lon="1.3672">
        <ele>143</ele>
        <time>2025-04-12T08:24:10Z</time>
      </trkpt>
      <trkpt lat="43.66538" lon="1.36717">
        <ele>143</ele>
        <time>2025-04-12T08:24:11Z</time>
      </trkpt>
      <trkpt lat="43.66537" lon="1.36714">
        <ele>143</ele>
        <time>2025-04-12T08:24:12Z</time>
      </trkpt>
      <trkpt lat="43.66536" lon="1.36711">
        <ele>143</ele>
        <time>2025-04-12T08:24:13Z</time>
      </trkpt>
      <trkpt lat="43.66535" lon="1.36708">
        <ele>143</ele>
        <time>2025-04-12T08:24:14Z</time>
      </trkpt>
      <trkpt lat="43.66535" lon="1.36708">
        <ele>143</ele>
        <time>2025-04-12T08:24:15Z</time>
      </trkpt>
      <trkpt lat="43.66532" lon="1.36701">
        <ele>143</ele>
        <time>2025-04-12T08:24:16Z</time>
      </trkpt>
      <trkpt lat="43.66531" lon="1.36699">
        <ele>143</ele>
        <time>2025-04-12T08:24:17Z</time>
      </trkpt>
      <trkpt lat="43.6653" lon="1.36696">
        <ele>142</ele>
        <time>2025-04-12T08:24:18Z</time>
      </trkpt>
      <trkpt lat="43.6653" lon="1.36696">
        <ele>142</ele>
        <time>2025-04-12T08:24:19Z</time>
      </trkpt>
      <trkpt lat="43.66527" lon="1.3669">
        <ele>143</ele>
        <time>2025-04-12T08:24:20Z</time>
      </trkpt>
      <trkpt lat="43.66526" lon="1.36687">
        <ele>143</ele>
        <time>2025-04-12T08:24:21Z</time>
      </trkpt>
      <trkpt lat="43.66525" lon="1.36683">
        <ele>143</ele>
        <time>2025-04-12T08:24:22Z</time>
      </trkpt>
      <trkpt lat="43.66524" lon="1.36681">
        <ele>143</ele>
        <time>2025-04-12T08:24:23Z</time>
      </trkpt>
      <trkpt lat="43.66523" lon="1.36678">
        <ele>143</ele>
        <time>2025-04-12T08:24:24Z</time>
      </trkpt>
      <trkpt lat="43.66522" lon="1.36675">
        <ele>143</ele>
        <time>2025-04-12T08:24:25Z</time>
      </trkpt>
      <trkpt lat="43.66521" lon="1.36672">
        <ele>143</ele>
        <time>2025-04-12T08:24:26Z</time>
      </trkpt>
      <trkpt lat="43.6652" lon="1.36669">
        <ele>143</ele>
        <time>2025-04-12T08:24:27Z</time>
      </trkpt>
      <trkpt lat="43.66519" lon="1.36666">
        <ele>143</ele>
        <time>2025-04-12T08:24:28Z</time>
      </trkpt>
      <trkpt lat="43.66518" lon="1.36663">
        <ele>143</ele>
        <time>2025-04-12T08:24:29Z</time>
      </trkpt>
      <trkpt lat="43.66516" lon="1.36659">
        <ele>143</ele>
        <time>2025-04-12T08:24:30Z</time>
      </trkpt>
      <trkpt lat="43.66515" lon="1.36656">
        <ele>143</ele>
        <time>2025-04-12T08:24:31Z</time>
      </trkpt>
      <trkpt lat="43.66514" lon="1.36653">
        <ele>143</ele>
        <time>2025-04-12T08:24:32Z</time>
      </trkpt>
      <trkpt lat="43.66513" lon="1.3665">
        <ele>143</ele>
        <time>2025-04-12T08:24:33Z</time>
      </trkpt>
      <trkpt lat="43.66513" lon="1.3665">
        <ele>143</ele>
        <time>2025-04-12T08:24:34Z</time>
      </trkpt>
      <trkpt lat="43.66511" lon="1.36644">
        <ele>143</ele>
        <time>2025-04-12T08:24:35Z</time>
      </trkpt>
      <trkpt lat="43.66509" lon="1.36641">
        <ele>143</ele>
        <time>2025-04-12T08:24:36Z</time>
      </trkpt>
      <trkpt lat="43.66508" lon="1.36638">
        <ele>143</ele>
        <time>2025-04-12T08:24:37Z</time>
      </trkpt>
      <trkpt lat="43.66507" lon="1.36635">
        <ele>143</ele>
        <time>2025-04-12T08:24:38Z</time>
      </trkpt>
      <trkpt lat="43.66506" lon="1.36632">
        <ele>143</ele>
        <time>2025-04-12T08:24:39Z</time>
      </trkpt>
      <trkpt lat="43.66505" lon="1.36629">
        <ele>143</ele>
        <time>2025-04-12T08:24:40Z</time>
      </trkpt>
      <trkpt lat="43.66503" lon="1.36626">
        <ele>143</ele>
        <time>2025-04-12T08:24:41Z</time>
      </trkpt>
      <trkpt lat="43.66502" lon="1.36623">
        <ele>143</ele>
        <time>2025-04-12T08:24:42Z</time>
      </trkpt>
      <trkpt lat="43.66501" lon="1.3662">
        <ele>143</ele>
        <time>2025-04-12T08:24:43Z</time>
      </trkpt>
      <trkpt lat="43.66499" lon="1.36617">
        <ele>143</ele>
        <time>2025-04-12T08:24:44Z</time>
      </trkpt>
      <trkpt lat="43.66499" lon="1.36613">
        <ele>143</ele>
        <time>2025-04-12T08:24:45Z</time>
      </trkpt>
      <trkpt lat="43.66497" lon="1.3661">
        <ele>143</ele>
        <time>2025-04-12T08:24:46Z</time>
      </trkpt>
      <trkpt lat="43.66496" lon="1.36607">
        <ele>143</ele>
        <time>2025-04-12T08:24:47Z</time>
      </trkpt>
      <trkpt lat="43.66495" lon="1.36604">
        <ele>143</ele>
        <time>2025-04-12T08:24:48Z</time>
      </trkpt>
      <trkpt lat="43.66494" lon="1.36601">
        <ele>143</ele>
        <time>2025-04-12T08:24:49Z</time>
      </trkpt>
      <trkpt lat="43.66493" lon="1.36598">
        <ele>143</ele>
        <time>2025-04-12T08:24:50Z</time>
      </trkpt>
      <trkpt lat="43.66492" lon="1.36595">
        <ele>143</ele>
        <time>2025-04-12T08:24:51Z</time>
      </trkpt>
      <trkpt lat="43.6649" lon="1.36592">
        <ele>143</ele>
        <time>2025-04-12T08:24:52Z</time>
      </trkpt>
      <trkpt lat="43.66489" lon="1.36589">
        <ele>143</ele>
        <time>2025-04-12T08:24:53Z</time>
      </trkpt>
      <trkpt lat="43.66488" lon="1.36586">
        <ele>143</ele>
        <time>2025-04-12T08:24:54Z</time>
      </trkpt>
      <trkpt lat="43.66486" lon="1.36583">
        <ele>143</ele>
        <time>2025-04-12T08:24:55Z</time>
      </trkpt>
      <trkpt lat="43.66484" lon="1.3658">
        <ele>143</ele>
        <time>2025-04-12T08:24:56Z</time>
      </trkpt>
      <trkpt lat="43.66483" lon="1.36577">
        <ele>143</ele>
        <time>2025-04-12T08:24:57Z</time>
      </trkpt>
      <trkpt lat="43.66481" lon="1.36574">
        <ele>143</ele>
        <time>2025-04-12T08:24:58Z</time>
      </trkpt>
      <trkpt lat="43.66481" lon="1.36574">
        <ele>143</ele>
        <time>2025-04-12T08:24:59Z</time>
      </trkpt>
      <trkpt lat="43.66479" lon="1.36568">
        <ele>143</ele>
        <time>2025-04-12T08:25:00Z</time>
      </trkpt>
      <trkpt lat="43.66478" lon="1.36565">
        <ele>143</ele>
        <time>2025-04-12T08:25:01Z</time>
      </trkpt>
      <trkpt lat="43.66478" lon="1.36565">
        <ele>143</ele>
        <time>2025-04-12T08:25:02Z</time>
      </trkpt>
      <trkpt lat="43.66477" lon="1.36557">
        <ele>143</ele>
        <time>2025-04-12T08:25:03Z</time>
      </trkpt>
      <trkpt lat="43.66477" lon="1.36557">
        <ele>143</ele>
        <time>2025-04-12T08:25:04Z</time>
      </trkpt>
      <trkpt lat="43.66475" lon="1.36551">
        <ele>143</ele>
        <time>2025-04-12T08:25:05Z</time>
      </trkpt>
      <trkpt lat="43.66474" lon="1.36548">
        <ele>143</ele>
        <time>2025-04-12T08:25:06Z</time>
      </trkpt>
      <trkpt lat="43.66472" lon="1.36544">
        <ele>143</ele>
        <time>2025-04-12T08:25:07Z</time>
      </trkpt>
      <trkpt lat="43.66471" lon="1.36541">
        <ele>143</ele>
        <time>2025-04-12T08:25:08Z</time>
      </trkpt>
      <trkpt lat="43.6647" lon="1.36538">
        <ele>143</ele>
        <time>2025-04-12T08:25:09Z</time>
      </trkpt>
      <trkpt lat="43.66469" lon="1.36535">
        <ele>143</ele>
        <time>2025-04-12T08:25:10Z</time>
      </trkpt>
      <trkpt lat="43.66468" lon="1.36531">
        <ele>143</ele>
        <time>2025-04-12T08:25:11Z</time>
      </trkpt>
      <trkpt lat="43.66468" lon="1.36531">
        <ele>143</ele>
        <time>2025-04-12T08:25:12Z</time>
      </trkpt>
      <trkpt lat="43.66465" lon="1.36525">
        <ele>143</ele>
        <time>2025-04-12T08:25:13Z</time>
      </trkpt>
      <trkpt lat="43.66464" lon="1.36522">
        <ele>143</ele>
        <time>2025-04-12T08:25:14Z</time>
      </trkpt>
      <trkpt lat="43.66463" lon="1.36519">
        <ele>143</ele>
        <time>2025-04-12T08:25:15Z</time>
      </trkpt>
      <trkpt lat="43.66462" lon="1.36516">
        <ele>143</ele>
        <time>2025-04-12T08:25:16Z</time>
      </trkpt>
      <trkpt lat="43.66461" lon="1.36512">
        <ele>143</ele>
        <time>2025-04-12T08:25:17Z</time>
      </trkpt>
      <trkpt lat="43.66461" lon="1.36512">
        <ele>144</ele>
        <time>2025-04-12T08:25:18Z</time>
      </trkpt>
      <trkpt lat="43.66459" lon="1.36506">
        <ele>144</ele>
        <time>2025-04-12T08:25:19Z</time>
      </trkpt>
      <trkpt lat="43.66458" lon="1.36503">
        <ele>144</ele>
        <time>2025-04-12T08:25:20Z</time>
      </trkpt>
      <trkpt lat="43.66457" lon="1.365">
        <ele>143</ele>
        <time>2025-04-12T08:25:21Z</time>
      </trkpt>
      <trkpt lat="43.66456" lon="1.36497">
        <ele>143</ele>
        <time>2025-04-12T08:25:22Z</time>
      </trkpt>
      <trkpt lat="43.66456" lon="1.36497">
        <ele>143</ele>
        <time>2025-04-12T08:25:23Z</time>
      </trkpt>
      <trkpt lat="43.66453" lon="1.3649">
        <ele>143</ele>
        <time>2025-04-12T08:25:24Z</time>
      </trkpt>
      <trkpt lat="43.66452" lon="1.36487">
        <ele>143</ele>
        <time>2025-04-12T08:25:25Z</time>
      </trkpt>
      <trkpt lat="43.6645" lon="1.36484">
        <ele>143</ele>
        <time>2025-04-12T08:25:26Z</time>
      </trkpt>
      <trkpt lat="43.66449" lon="1.3648">
        <ele>143</ele>
        <time>2025-04-12T08:25:27Z</time>
      </trkpt>
      <trkpt lat="43.66448" lon="1.36477">
        <ele>143</ele>
        <time>2025-04-12T08:25:28Z</time>
      </trkpt>
      <trkpt lat="43.66447" lon="1.36474">
        <ele>143</ele>
        <time>2025-04-12T08:25:29Z</time>
      </trkpt>
      <trkpt lat="43.66446" lon="1.3647">
        <ele>143</ele>
        <time>2025-04-12T08:25:30Z</time>
      </trkpt>
      <trkpt lat="43.66445" lon="1.36467">
        <ele>143</ele>
        <time>2025-04-12T08:25:31Z</time>
      </trkpt>
      <trkpt lat="43.66444" lon="1.36464">
        <ele>143</ele>
        <time>2025-04-12T08:25:32Z</time>
      </trkpt>
      <trkpt lat="43.66443" lon="1.3646">
        <ele>143</ele>
        <time>2025-04-12T08:25:33Z</time>
      </trkpt>
      <trkpt lat="43.66443" lon="1.3646">
        <ele>143</ele>
        <time>2025-04-12T08:25:34Z</time>
      </trkpt>
      <trkpt lat="43.66442" lon="1.36453">
        <ele>143</ele>
        <time>2025-04-12T08:25:35Z</time>
      </trkpt>
      <trkpt lat="43.66442" lon="1.36453">
        <ele>143</ele>
        <time>2025-04-12T08:25:36Z</time>
      </trkpt>
      <trkpt lat="43.6644" lon="1.36445">
        <ele>143</ele>
        <time>2025-04-12T08:25:37Z</time>
      </trkpt>
      <trkpt lat="43.66439" lon="1.36442">
        <ele>143</ele>
        <time>2025-04-12T08:25:38Z</time>
      </trkpt>
      <trkpt lat="43.66438" lon="1.36438">
        <ele>143</ele>
        <time>2025-04-12T08:25:39Z</time>
      </trkpt>
      <trkpt lat="43.66438" lon="1.36438">
        <ele>143</ele>
        <time>2025-04-12T08:25:40Z</time>
      </trkpt>
      <trkpt lat="43.66437" lon="1.36431">
        <ele>143</ele>
        <time>2025-04-12T08:25:41Z</time>
      </trkpt>
      <trkpt lat="43.66437" lon="1.36428">
        <ele>143</ele>
        <time>2025-04-12T08:25:42Z</time>
      </trkpt>
      <trkpt lat="43.66436" lon="1.36425">
        <ele>143</ele>
        <time>2025-04-12T08:25:43Z</time>
      </trkpt>
      <trkpt lat="43.66435" lon="1.36421">
        <ele>143</ele>
        <time>2025-04-12T08:25:44Z</time>
      </trkpt>
      <trkpt lat="43.66434" lon="1.36418">
        <ele>143</ele>
        <time>2025-04-12T08:25:45Z</time>
      </trkpt>
      <trkpt lat="43.66433" lon="1.36415">
        <ele>143</ele>
        <time>2025-04-12T08:25:46Z</time>
      </trkpt>
      <trkpt lat="43.66432" lon="1.36412">
        <ele>143</ele>
        <time>2025-04-12T08:25:47Z</time>
      </trkpt>
      <trkpt lat="43.66431" lon="1.36409">
        <ele>143</ele>
        <time>2025-04-12T08:25:48Z</time>
      </trkpt>
      <trkpt lat="43.66431" lon="1.36405">
        <ele>143</ele>
        <time>2025-04-12T08:25:49Z</time>
      </trkpt>
      <trkpt lat="43.6643" lon="1.36402">
        <ele>143</ele>
        <time>2025-04-12T08:25:50Z</time>
      </trkpt>
      <trkpt lat="43.6643" lon="1.36398">
        <ele>143</ele>
        <time>2025-04-12T08:25:51Z</time>
      </trkpt>
      <trkpt lat="43.66429" lon="1.36395">
        <ele>143</ele>
        <time>2025-04-12T08:25:52Z</time>
      </trkpt>
      <trkpt lat="43.66429" lon="1.36395">
        <ele>143</ele>
        <time>2025-04-12T08:25:53Z</time>
      </trkpt>
      <trkpt lat="43.66427" lon="1.36388">
        <ele>143</ele>
        <time>2025-04-12T08:25:54Z</time>
      </trkpt>
      <trkpt lat="43.66427" lon="1.36385">
        <ele>143</ele>
        <time>2025-04-12T08:25:55Z</time>
      </trkpt>
      <trkpt lat="43.66426" lon="1.36382">
        <ele>143</ele>
        <time>2025-04-12T08:25:56Z</time>
      </trkpt>
      <trkpt lat="43.66425" lon="1.36378">
        <ele>143</ele>
        <time>2025-04-12T08:25:57Z</time>
      </trkpt>
      <trkpt lat="43.66425" lon="1.36375">
        <ele>143</ele>
        <time>2025-04-12T08:25:58Z</time>
      </trkpt>
      <trkpt lat="43.66424" lon="1.36372">
        <ele>143</ele>
        <time>2025-04-12T08:25:59Z</time>
      </trkpt>
      <trkpt lat="43.66423" lon="1.36369">
        <ele>143</ele>
        <time>2025-04-12T08:26:00Z</time>
      </trkpt>
      <trkpt lat="43.66422" lon="1.36366">
        <ele>143</ele>
        <time>2025-04-12T08:26:01Z</time>
      </trkpt>
      <trkpt lat="43.66421" lon="1.36363">
        <ele>144</ele>
        <time>2025-04-12T08:26:02Z</time>
      </trkpt>
      <trkpt lat="43.6642" lon="1.36359">
        <ele>144</ele>
        <time>2025-04-12T08:26:03Z</time>
      </trkpt>
      <trkpt lat="43.6642" lon="1.36356">
        <ele>144</ele>
        <time>2025-04-12T08:26:04Z</time>
      </trkpt>
      <trkpt lat="43.66419" lon="1.36352">
        <ele>144</ele>
        <time>2025-04-12T08:26:05Z</time>
      </trkpt>
      <trkpt lat="43.66419" lon="1.36352">
        <ele>143</ele>
        <time>2025-04-12T08:26:06Z</time>
      </trkpt>
      <trkpt lat="43.66418" lon="1.36349">
        <ele>144</ele>
        <time>2025-04-12T08:26:07Z</time>
      </trkpt>
      <trkpt lat="43.66416" lon="1.36342">
        <ele>144</ele>
        <time>2025-04-12T08:26:08Z</time>
      </trkpt>
      <trkpt lat="43.66416" lon="1.36342">
        <ele>144</ele>
        <time>2025-04-12T08:26:09Z</time>
      </trkpt>
      <trkpt lat="43.66414" lon="1.36335">
        <ele>144</ele>
        <time>2025-04-12T08:26:10Z</time>
      </trkpt>
      <trkpt lat="43.66413" lon="1.36332">
        <ele>144</ele>
        <time>2025-04-12T08:26:11Z</time>
      </trkpt>
      <trkpt lat="43.66412" lon="1.36328">
        <ele>144</ele>
        <time>2025-04-12T08:26:12Z</time>
      </trkpt>
      <trkpt lat="43.66411" lon="1.36324">
        <ele>144</ele>
        <time>2025-04-12T08:26:13Z</time>
      </trkpt>
      <trkpt lat="43.66411" lon="1.36324">
        <ele>144</ele>
        <time>2025-04-12T08:26:14Z</time>
      </trkpt>
      <trkpt lat="43.6641" lon="1.36318">
        <ele>144</ele>
        <time>2025-04-12T08:26:15Z</time>
      </trkpt>
      <trkpt lat="43.6641" lon="1.36318">
        <ele>145</ele>
        <time>2025-04-12T08:26:16Z</time>
      </trkpt>
      <trkpt lat="43.66409" lon="1.36315">
        <ele>145</ele>
        <time>2025-04-12T08:26:17Z</time>
      </trkpt>
      <trkpt lat="43.66407" lon="1.36309">
        <ele>144</ele>
        <time>2025-04-12T08:26:18Z</time>
      </trkpt>
      <trkpt lat="43.66407" lon="1.36309">
        <ele>144</ele>
        <time>2025-04-12T08:26:19Z</time>
      </trkpt>
      <trkpt lat="43.66405" lon="1.36303">
        <ele>144</ele>
        <time>2025-04-12T08:26:20Z</time>
      </trkpt>
      <trkpt lat="43.66405" lon="1.363">
        <ele>144</ele>
        <time>2025-04-12T08:26:21Z</time>
      </trkpt>
      <trkpt lat="43.66403" lon="1.36296">
        <ele>144</ele>
        <time>2025-04-12T08:26:22Z</time>
      </trkpt>
      <trkpt lat="43.66403" lon="1.36293">
        <ele>144</ele>
        <time>2025-04-12T08:26:23Z</time>
      </trkpt>
      <trkpt lat="43.66403" lon="1.36293">
        <ele>143</ele>
        <time>2025-04-12T08:26:24Z</time>
      </trkpt>
      <trkpt lat="43.66401" lon="1.36286">
        <ele>143</ele>
        <time>2025-04-12T08:26:25Z</time>
      </trkpt>
      <trkpt lat="43.66401" lon="1.36286">
        <ele>143</ele>
        <time>2025-04-12T08:26:26Z</time>
      </trkpt>
      <trkpt lat="43.664" lon="1.36279">
        <ele>143</ele>
        <time>2025-04-12T08:26:27Z</time>
      </trkpt>
      <trkpt lat="43.664" lon="1.36279">
        <ele>143</ele>
        <time>2025-04-12T08:26:28Z</time>
      </trkpt>
      <trkpt lat="43.66399" lon="1.36275">
        <ele>143</ele>
        <time>2025-04-12T08:26:29Z</time>
      </trkpt>
      <trkpt lat="43.66398" lon="1.36268">
        <ele>143</ele>
        <time>2025-04-12T08:26:30Z</time>
      </trkpt>
      <trkpt lat="43.66398" lon="1.36268">
        <ele>143</ele>
        <time>2025-04-12T08:26:31Z</time>
      </trkpt>
      <trkpt lat="43.66396" lon="1.36261">
        <ele>143</ele>
        <time>2025-04-12T08:26:32Z</time>
      </trkpt>
      <trkpt lat="43.66395" lon="1.36258">
        <ele>143</ele>
        <time>2025-04-12T08:26:33Z</time>
      </trkpt>
      <trkpt lat="43.66396" lon="1.36254">
        <ele>143</ele>
        <time>2025-04-12T08:26:34Z</time>
      </trkpt>
      <trkpt lat="43.66397" lon="1.36251">
        <ele>143</ele>
        <time>2025-04-12T08:26:36Z</time>
      </trkpt>
      <trkpt lat="43.66402" lon="1.36247">
        <ele>143</ele>
        <time>2025-04-12T08:26:37Z</time>
      </trkpt>
      <trkpt lat="43.66404" lon="1.36245">
        <ele>143</ele>
        <time>2025-04-12T08:26:38Z</time>
      </trkpt>
      <trkpt lat="43.66407" lon="1.36243">
        <ele>143</ele>
        <time>2025-04-12T08:26:39Z</time>
      </trkpt>
      <trkpt lat="43.66409" lon="1.36241">
        <ele>143</ele>
        <time>2025-04-12T08:26:40Z</time>
      </trkpt>
      <trkpt lat="43.66409" lon="1.36241">
        <ele>144</ele>
        <time>2025-04-12T08:26:41Z</time>
      </trkpt>
      <trkpt lat="43.66414" lon="1.36237">
        <ele>144</ele>
        <time>2025-04-12T08:26:42Z</time>
      </trkpt>
      <trkpt lat="43.66416" lon="1.36236">
        <ele>144</ele>
        <time>2025-04-12T08:26:43Z</time>
      </trkpt>
      <trkpt lat="43.66419" lon="1.36234">
        <ele>144</ele>
        <time>2025-04-12T08:26:44Z</time>
      </trkpt>
      <trkpt lat="43.66421" lon="1.36232">
        <ele>144</ele>
        <time>2025-04-12T08:26:45Z</time>
      </trkpt>
      <trkpt lat="43.66423" lon="1.36231">
        <ele>144</ele>
        <time>2025-04-12T08:26:46Z</time>
      </trkpt>
      <trkpt lat="43.66428" lon="1.36227">
        <ele>144</ele>
        <time>2025-04-12T08:26:48Z</time>
      </trkpt>
      <trkpt lat="43.6643" lon="1.36225">
        <ele>144</ele>
        <time>2025-04-12T08:26:49Z</time>
      </trkpt>
      <trkpt lat="43.66432" lon="1.36223">
        <ele>144</ele>
        <time>2025-04-12T08:26:50Z</time>
      </trkpt>
      <trkpt lat="43.66432" lon="1.36223">
        <ele>144</ele>
        <time>2025-04-12T08:26:51Z</time>
      </trkpt>
      <trkpt lat="43.66437" lon="1.36221">
        <ele>144</ele>
        <time>2025-04-12T08:26:52Z</time>
      </trkpt>
      <trkpt lat="43.66437" lon="1.36221">
        <ele>144</ele>
        <time>2025-04-12T08:26:53Z</time>
      </trkpt>
      <trkpt lat="43.66439" lon="1.36219">
        <ele>144</ele>
        <time>2025-04-12T08:26:54Z</time>
      </trkpt>
      <trkpt lat="43.66443" lon="1.36216">
        <ele>144</ele>
        <time>2025-04-12T08:26:55Z</time>
      </trkpt>
      <trkpt lat="43.66445" lon="1.36214">
        <ele>143</ele>
        <time>2025-04-12T08:26:56Z</time>
      </trkpt>
      <trkpt lat="43.66445" lon="1.36214">
        <ele>143</ele>
        <time>2025-04-12T08:26:57Z</time>
      </trkpt>
      <trkpt lat="43.6645" lon="1.36211">
        <ele>143</ele>
        <time>2025-04-12T08:26:58Z</time>
      </trkpt>
      <trkpt lat="43.66452" lon="1.36209">
        <ele>143</ele>
        <time>2025-04-12T08:26:59Z</time>
      </trkpt>
      <trkpt lat="43.66454" lon="1.36208">
        <ele>143</ele>
        <time>2025-04-12T08:27:00Z</time>
      </trkpt>
      <trkpt lat="43.66457" lon="1.36207">
        <ele>144</ele>
        <time>2025-04-12T08:27:01Z</time>
      </trkpt>
      <trkpt lat="43.66459" lon="1.36206">
        <ele>144</ele>
        <time>2025-04-12T08:27:02Z</time>
      </trkpt>
      <trkpt lat="43.66461" lon="1.36204">
        <ele>144</ele>
        <time>2025-04-12T08:27:03Z</time>
      </trkpt>
      <trkpt lat="43.66464" lon="1.36203">
        <ele>144</ele>
        <time>2025-04-12T08:27:04Z</time>
      </trkpt>
      <trkpt lat="43.66466" lon="1.36201">
        <ele>144</ele>
        <time>2025-04-12T08:27:05Z</time>
      </trkpt>
      <trkpt lat="43.66466" lon="1.36201">
        <ele>144</ele>
        <time>2025-04-12T08:27:06Z</time>
      </trkpt>
      <trkpt lat="43.66471" lon="1.36198">
        <ele>144</ele>
        <time>2025-04-12T08:27:07Z</time>
      </trkpt>
      <trkpt lat="43.66473" lon="1.36197">
        <ele>144</ele>
        <time>2025-04-12T08:27:08Z</time>
      </trkpt>
      <trkpt lat="43.66476" lon="1.36196">
        <ele>144</ele>
        <time>2025-04-12T08:27:09Z</time>
      </trkpt>
      <trkpt lat="43.66478" lon="1.36194">
        <ele>144</ele>
        <time>2025-04-12T08:27:10Z</time>
      </trkpt>
      <trkpt lat="43.6648" lon="1.36193">
        <ele>144</ele>
        <time>2025-04-12T08:27:11Z</time>
      </trkpt>
      <trkpt lat="43.66482" lon="1.36192">
        <ele>143</ele>
        <time>2025-04-12T08:27:12Z</time>
      </trkpt>
      <trkpt lat="43.66485" lon="1.3619">
        <ele>143</ele>
        <time>2025-04-12T08:27:13Z</time>
      </trkpt>
      <trkpt lat="43.66485" lon="1.3619">
        <ele>143</ele>
        <time>2025-04-12T08:27:14Z</time>
      </trkpt>
      <trkpt lat="43.66489" lon="1.36187">
        <ele>143</ele>
        <time>2025-04-12T08:27:15Z</time>
      </trkpt>
      <trkpt lat="43.66492" lon="1.36186">
        <ele>143</ele>
        <time>2025-04-12T08:27:16Z</time>
      </trkpt>
      <trkpt lat="43.66492" lon="1.36186">
        <ele>143</ele>
        <time>2025-04-12T08:27:17Z</time>
      </trkpt>
      <trkpt lat="43.66496" lon="1.36183">
        <ele>143</ele>
        <time>2025-04-12T08:27:18Z</time>
      </trkpt>
      <trkpt lat="43.66496" lon="1.36183">
        <ele>143</ele>
        <time>2025-04-12T08:27:19Z</time>
      </trkpt>
      <trkpt lat="43.66501" lon="1.3618">
        <ele>143</ele>
        <time>2025-04-12T08:27:20Z</time>
      </trkpt>
      <trkpt lat="43.66503" lon="1.36179">
        <ele>143</ele>
        <time>2025-04-12T08:27:21Z</time>
      </trkpt>
      <trkpt lat="43.66506" lon="1.36177">
        <ele>143</ele>
        <time>2025-04-12T08:27:22Z</time>
      </trkpt>
      <trkpt lat="43.66508" lon="1.36176">
        <ele>143</ele>
        <time>2025-04-12T08:27:23Z</time>
      </trkpt>
      <trkpt lat="43.66508" lon="1.36176">
        <ele>143</ele>
        <time>2025-04-12T08:27:24Z</time>
      </trkpt>
      <trkpt lat="43.6651" lon="1.36174">
        <ele>143</ele>
        <time>2025-04-12T08:27:25Z</time>
      </trkpt>
      <trkpt lat="43.66514" lon="1.36171">
        <ele>143</ele>
        <time>2025-04-12T08:27:26Z</time>
      </trkpt>
      <trkpt lat="43.66517" lon="1.3617">
        <ele>143</ele>
        <time>2025-04-12T08:27:27Z</time>
      </trkpt>
      <trkpt lat="43.66519" lon="1.36168">
        <ele>143</ele>
        <time>2025-04-12T08:27:28Z</time>
      </trkpt>
      <trkpt lat="43.66521" lon="1.36167">
        <ele>143</ele>
        <time>2025-04-12T08:27:29Z</time>
      </trkpt>
      <trkpt lat="43.66521" lon="1.36167">
        <ele>143</ele>
        <time>2025-04-12T08:27:30Z</time>
      </trkpt>
      <trkpt lat="43.66526" lon="1.36164">
        <ele>143</ele>
        <time>2025-04-12T08:27:31Z</time>
      </trkpt>
      <trkpt lat="43.66529" lon="1.36163">
        <ele>143</ele>
        <time>2025-04-12T08:27:32Z</time>
      </trkpt>
      <trkpt lat="43.66531" lon="1.36161">
        <ele>143</ele>
        <time>2025-04-12T08:27:33Z</time>
      </trkpt>
      <trkpt lat="43.66536" lon="1.36158">
        <ele>143</ele>
        <time>2025-04-12T08:27:35Z</time>
      </trkpt>
      <trkpt lat="43.66539" lon="1.36156">
        <ele>143</ele>
        <time>2025-04-12T08:27:36Z</time>
      </trkpt>
      <trkpt lat="43.66541" lon="1.36155">
        <ele>143</ele>
        <time>2025-04-12T08:27:37Z</time>
      </trkpt>
      <trkpt lat="43.66544" lon="1.36155">
        <ele>143</ele>
        <time>2025-04-12T08:27:38Z</time>
      </trkpt>
      <trkpt lat="43.66546" lon="1.36154">
        <ele>143</ele>
        <time>2025-04-12T08:27:39Z</time>
      </trkpt>
      <trkpt lat="43.66549" lon="1.36153">
        <ele>143</ele>
        <time>2025-04-12T08:27:40Z</time>
      </trkpt>
      <trkpt lat="43.66552" lon="1.36151">
        <ele>143</ele>
        <time>2025-04-12T08:27:41Z</time>
      </trkpt>
      <trkpt lat="43.66554" lon="1.36149">
        <ele>143</ele>
        <time>2025-04-12T08:27:42Z</time>
      </trkpt>
      <trkpt lat="43.66557" lon="1.36148">
        <ele>143</ele>
        <time>2025-04-12T08:27:43Z</time>
      </trkpt>
      <trkpt lat="43.66557" lon="1.36148">
        <ele>143</ele>
        <time>2025-04-12T08:27:44Z</time>
      </trkpt>
      <trkpt lat="43.66561" lon="1.36143">
        <ele>143</ele>
        <time>2025-04-12T08:27:45Z</time>
      </trkpt>
      <trkpt lat="43.66562" lon="1.36141">
        <ele>143</ele>
        <time>2025-04-12T08:27:46Z</time>
      </trkpt>
      <trkpt lat="43.66564" lon="1.36138">
        <ele>143</ele>
        <time>2025-04-12T08:27:47Z</time>
      </trkpt>
      <trkpt lat="43.66566" lon="1.36136">
        <ele>143</ele>
        <time>2025-04-12T08:27:48Z</time>
      </trkpt>
      <trkpt lat="43.66568" lon="1.36134">
        <ele>143</ele>
        <time>2025-04-12T08:27:49Z</time>
      </trkpt>
      <trkpt lat="43.6657" lon="1.36132">
        <ele>143</ele>
        <time>2025-04-12T08:27:50Z</time>
      </trkpt>
      <trkpt lat="43.66573" lon="1.3613">
        <ele>144</ele>
        <time>2025-04-12T08:27:51Z</time>
      </trkpt>
      <trkpt lat="43.66575" lon="1.36129">
        <ele>144</ele>
        <time>2025-04-12T08:27:52Z</time>
      </trkpt>
      <trkpt lat="43.66579" lon="1.36126">
        <ele>144</ele>
        <time>2025-04-12T08:27:54Z</time>
      </trkpt>
      <trkpt lat="43.66581" lon="1.36125">
        <ele>144</ele>
        <time>2025-04-12T08:27:55Z</time>
      </trkpt>
      <trkpt lat="43.66583" lon="1.36123">
        <ele>144</ele>
        <time>2025-04-12T08:27:56Z</time>
      </trkpt>
      <trkpt lat="43.66585" lon="1.36122">
        <ele>144</ele>
        <time>2025-04-12T08:27:57Z</time>
      </trkpt>
      <trkpt lat="43.66587" lon="1.3612">
        <ele>144</ele>
        <time>2025-04-12T08:27:58Z</time>
      </trkpt>
      <trkpt lat="43.66589" lon="1.36119">
        <ele>144</ele>
        <time>2025-04-12T08:27:59Z</time>
      </trkpt>
      <trkpt lat="43.66591" lon="1.36117">
        <ele>144</ele>
        <time>2025-04-12T08:28:00Z</time>
      </trkpt>
      <trkpt lat="43.66591" lon="1.36117">
        <ele>144</ele>
        <time>2025-04-12T08:28:01Z</time>
      </trkpt>
      <trkpt lat="43.66595" lon="1.36115">
        <ele>145</ele>
        <time>2025-04-12T08:28:02Z</time>
      </trkpt>
      <trkpt lat="43.66595" lon="1.36115">
        <ele>145</ele>
        <time>2025-04-12T08:28:03Z</time>
      </trkpt>
      <trkpt lat="43.666" lon="1.36112">
        <ele>145</ele>
        <time>2025-04-12T08:28:04Z</time>
      </trkpt>
      <trkpt lat="43.66602" lon="1.3611">
        <ele>145</ele>
        <time>2025-04-12T08:28:05Z</time>
      </trkpt>
      <trkpt lat="43.66604" lon="1.36109">
        <ele>145</ele>
        <time>2025-04-12T08:28:06Z</time>
      </trkpt>
      <trkpt lat="43.66606" lon="1.36107">
        <ele>145</ele>
        <time>2025-04-12T08:28:07Z</time>
      </trkpt>
      <trkpt lat="43.66608" lon="1.36106">
        <ele>145</ele>
        <time>2025-04-12T08:28:08Z</time>
      </trkpt>
      <trkpt lat="43.66611" lon="1.36104">
        <ele>145</ele>
        <time>2025-04-12T08:28:09Z</time>
      </trkpt>
      <trkpt lat="43.66611" lon="1.36104">
        <ele>145</ele>
        <time>2025-04-12T08:28:10Z</time>
      </trkpt>
      <trkpt lat="43.66615" lon="1.36101">
        <ele>145</ele>
        <time>2025-04-12T08:28:11Z</time>
      </trkpt>
      <trkpt lat="43.66618" lon="1.36099">
        <ele>145</ele>
        <time>2025-04-12T08:28:12Z</time>
      </trkpt>
      <trkpt lat="43.6662" lon="1.36098">
        <ele>145</ele>
        <time>2025-04-12T08:28:13Z</time>
      </trkpt>
      <trkpt lat="43.66625" lon="1.36097">
        <ele>145</ele>
        <time>2025-04-12T08:28:15Z</time>
      </trkpt>
      <trkpt lat="43.66628" lon="1.36097">
        <ele>145</ele>
        <time>2025-04-12T08:28:16Z</time>
      </trkpt>
      <trkpt lat="43.66631" lon="1.36097">
        <ele>144</ele>
        <time>2025-04-12T08:28:17Z</time>
      </trkpt>
      <trkpt lat="43.66633" lon="1.36098">
        <ele>145</ele>
        <time>2025-04-12T08:28:18Z</time>
      </trkpt>
      <trkpt lat="43.66636" lon="1.36099">
        <ele>145</ele>
        <time>2025-04-12T08:28:19Z</time>
      </trkpt>
      <trkpt lat="43.66636" lon="1.36099">
        <ele>144</ele>
        <time>2025-04-12T08:28:20Z</time>
      </trkpt>
      <trkpt lat="43.66641" lon="1.36103">
        <ele>144</ele>
        <time>2025-04-12T08:28:21Z</time>
      </trkpt>
      <trkpt lat="43.66644" lon="1.36106">
        <ele>144</ele>
        <time>2025-04-12T08:28:22Z</time>
      </trkpt>
      <trkpt lat="43.66647" lon="1.36109">
        <ele>144</ele>
        <time>2025-04-12T08:28:23Z</time>
      </trkpt>
      <trkpt lat="43.66649" lon="1.36111">
        <ele>144</ele>
        <time>2025-04-12T08:28:24Z</time>
      </trkpt>
      <trkpt lat="43.66652" lon="1.36114">
        <ele>144</ele>
        <time>2025-04-12T08:28:25Z</time>
      </trkpt>
      <trkpt lat="43.66654" lon="1.36116">
        <ele>144</ele>
        <time>2025-04-12T08:28:26Z</time>
      </trkpt>
      <trkpt lat="43.66656" lon="1.36118">
        <ele>143</ele>
        <time>2025-04-12T08:28:27Z</time>
      </trkpt>
      <trkpt lat="43.66659" lon="1.36121">
        <ele>143</ele>
        <time>2025-04-12T08:28:28Z</time>
      </trkpt>
      <trkpt lat="43.66661" lon="1.36123">
        <ele>143</ele>
        <time>2025-04-12T08:28:29Z</time>
      </trkpt>
      <trkpt lat="43.66663" lon="1.36125">
        <ele>143</ele>
        <time>2025-04-12T08:28:30Z</time>
      </trkpt>
      <trkpt lat="43.66663" lon="1.36125">
        <ele>143</ele>
        <time>2025-04-12T08:28:31Z</time>
      </trkpt>
      <trkpt lat="43.66668" lon="1.36129">
        <ele>143</ele>
        <time>2025-04-12T08:28:32Z</time>
      </trkpt>
      <trkpt lat="43.6667" lon="1.3613">
        <ele>143</ele>
        <time>2025-04-12T08:28:33Z</time>
      </trkpt>
      <trkpt lat="43.66672" lon="1.36132">
        <ele>143</ele>
        <time>2025-04-12T08:28:34Z</time>
      </trkpt>
      <trkpt lat="43.66675" lon="1.36134">
        <ele>143</ele>
        <time>2025-04-12T08:28:35Z</time>
      </trkpt>
      <trkpt lat="43.66675" lon="1.36134">
        <ele>143</ele>
        <time>2025-04-12T08:28:36Z</time>
      </trkpt>
      <trkpt lat="43.66679" lon="1.36138">
        <ele>143</ele>
        <time>2025-04-12T08:28:37Z</time>
      </trkpt>
      <trkpt lat="43.66682" lon="1.3614">
        <ele>143</ele>
        <time>2025-04-12T08:28:38Z</time>
      </trkpt>
      <trkpt lat="43.66682" lon="1.3614">
        <ele>143</ele>
        <time>2025-04-12T08:28:39Z</time>
      </trkpt>
      <trkpt lat="43.66686" lon="1.36144">
        <ele>143</ele>
        <time>2025-04-12T08:28:40Z</time>
      </trkpt>
      <trkpt lat="43.66686" lon="1.36144">
        <ele>143</ele>
        <time>2025-04-12T08:28:41Z</time>
      </trkpt>
      <trkpt lat="43.66691" lon="1.36148">
        <ele>143</ele>
        <time>2025-04-12T08:28:42Z</time>
      </trkpt>
      <trkpt lat="43.66693" lon="1.3615">
        <ele>143</ele>
        <time>2025-04-12T08:28:43Z</time>
      </trkpt>
      <trkpt lat="43.66693" lon="1.3615">
        <ele>143</ele>
        <time>2025-04-12T08:28:44Z</time>
      </trkpt>
      <trkpt lat="43.66698" lon="1.36153">
        <ele>143</ele>
        <time>2025-04-12T08:28:45Z</time>
      </trkpt>
      <trkpt lat="43.667" lon="1.36155">
        <ele>143</ele>
        <time>2025-04-12T08:28:46Z</time>
      </trkpt>
      <trkpt lat="43.66702" lon="1.36157">
        <ele>143</ele>
        <time>2025-04-12T08:28:47Z</time>
      </trkpt>
      <trkpt lat="43.66704" lon="1.36158">
        <ele>143</ele>
        <time>2025-04-12T08:28:48Z</time>
      </trkpt>
      <trkpt lat="43.66707" lon="1.3616">
        <ele>144</ele>
        <time>2025-04-12T08:28:49Z</time>
      </trkpt>
      <trkpt lat="43.66709" lon="1.36162">
        <ele>144</ele>
        <time>2025-04-12T08:28:51Z</time>
      </trkpt>
      <trkpt lat="43.66714" lon="1.36166">
        <ele>144</ele>
        <time>2025-04-12T08:28:52Z</time>
      </trkpt>
      <trkpt lat="43.66716" lon="1.36167">
        <ele>144</ele>
        <time>2025-04-12T08:28:53Z</time>
      </trkpt>
      <trkpt lat="43.66718" lon="1.36169">
        <ele>143</ele>
        <time>2025-04-12T08:28:54Z</time>
      </trkpt>
      <trkpt lat="43.6672" lon="1.36171">
        <ele>143</ele>
        <time>2025-04-12T08:28:55Z</time>
      </trkpt>
      <trkpt lat="43.6672" lon="1.36171">
        <ele>143</ele>
        <time>2025-04-12T08:28:56Z</time>
      </trkpt>
      <trkpt lat="43.66725" lon="1.36175">
        <ele>143</ele>
        <time>2025-04-12T08:28:57Z</time>
      </trkpt>
      <trkpt lat="43.66727" lon="1.36176">
        <ele>143</ele>
        <time>2025-04-12T08:28:58Z</time>
      </trkpt>
      <trkpt lat="43.66729" lon="1.36178">
        <ele>143</ele>
        <time>2025-04-12T08:28:59Z</time>
      </trkpt>
      <trkpt lat="43.66729" lon="1.36178">
        <ele>143</ele>
        <time>2025-04-12T08:29:00Z</time>
      </trkpt>
      <trkpt lat="43.66732" lon="1.3618">
        <ele>143</ele>
        <time>2025-04-12T08:29:01Z</time>
      </trkpt>
      <trkpt lat="43.66736" lon="1.36184">
        <ele>143</ele>
        <time>2025-04-12T08:29:02Z</time>
      </trkpt>
      <trkpt lat="43.66738" lon="1.36186">
        <ele>143</ele>
        <time>2025-04-12T08:29:03Z</time>
      </trkpt>
      <trkpt lat="43.6674" lon="1.36188">
        <ele>143</ele>
        <time>2025-04-12T08:29:04Z</time>
      </trkpt>
      <trkpt lat="43.66743" lon="1.3619">
        <ele>143</ele>
        <time>2025-04-12T08:29:05Z</time>
      </trkpt>
      <trkpt lat="43.66745" lon="1.36192">
        <ele>143</ele>
        <time>2025-04-12T08:29:06Z</time>
      </trkpt>
      <trkpt lat="43.66747" lon="1.36193">
        <ele>143</ele>
        <time>2025-04-12T08:29:07Z</time>
      </trkpt>
      <trkpt lat="43.66747" lon="1.36193">
        <ele>143</ele>
        <time>2025-04-12T08:29:08Z</time>
      </trkpt>
      <trkpt lat="43.66749" lon="1.36195">
        <ele>143</ele>
        <time>2025-04-12T08:29:09Z</time>
      </trkpt>
      <trkpt lat="43.66754" lon="1.36199">
        <ele>143</ele>
        <time>2025-04-12T08:29:10Z</time>
      </trkpt>
      <trkpt lat="43.66756" lon="1.36201">
        <ele>143</ele>
        <time>2025-04-12T08:29:11Z</time>
      </trkpt>
      <trkpt lat="43.66756" lon="1.36201">
        <ele>143</ele>
        <time>2025-04-12T08:29:12Z</time>
      </trkpt>
      <trkpt lat="43.6676" lon="1.36205">
        <ele>143</ele>
        <time>2025-04-12T08:29:13Z</time>
      </trkpt>
      <trkpt lat="43.66763" lon="1.36206">
        <ele>143</ele>
        <time>2025-04-12T08:29:14Z</time>
      </trkpt>
      <trkpt lat="43.66765" lon="1.36208">
        <ele>143</ele>
        <time>2025-04-12T08:29:15Z</time>
      </trkpt>
      <trkpt lat="43.66767" lon="1.3621">
        <ele>143</ele>
        <time>2025-04-12T08:29:16Z</time>
      </trkpt>
      <trkpt lat="43.66769" lon="1.36212">
        <ele>143</ele>
        <time>2025-04-12T08:29:17Z</time>
      </trkpt>
      <trkpt lat="43.66771" lon="1.36213">
        <ele>143</ele>
        <time>2025-04-12T08:29:18Z</time>
      </trkpt>
      <trkpt lat="43.66771" lon="1.36213">
        <ele>143</ele>
        <time>2025-04-12T08:29:19Z</time>
      </trkpt>
      <trkpt lat="43.66776" lon="1.36217">
        <ele>143</ele>
        <time>2025-04-12T08:29:20Z</time>
      </trkpt>
      <trkpt lat="43.66778" lon="1.36219">
        <ele>143</ele>
        <time>2025-04-12T08:29:21Z</time>
      </trkpt>
      <trkpt lat="43.6678" lon="1.3622">
        <ele>143</ele>
        <time>2025-04-12T08:29:22Z</time>
      </trkpt>
      <trkpt lat="43.66783" lon="1.36222">
        <ele>143</ele>
        <time>2025-04-12T08:29:23Z</time>
      </trkpt>
      <trkpt lat="43.66785" lon="1.36224">
        <ele>143</ele>
        <time>2025-04-12T08:29:24Z</time>
      </trkpt>
      <trkpt lat="43.66787" lon="1.36226">
        <ele>143</ele>
        <time>2025-04-12T08:29:25Z</time>
      </trkpt>
      <trkpt lat="43.6679" lon="1.36228">
        <ele>143</ele>
        <time>2025-04-12T08:29:26Z</time>
      </trkpt>
      <trkpt lat="43.66792" lon="1.36229">
        <ele>143</ele>
        <time>2025-04-12T08:29:27Z</time>
      </trkpt>
      <trkpt lat="43.66794" lon="1.36231">
        <ele>143</ele>
        <time>2025-04-12T08:29:29Z</time>
      </trkpt>
      <trkpt lat="43.66799" lon="1.36235">
        <ele>143</ele>
        <time>2025-04-12T08:29:30Z</time>
      </trkpt>
      <trkpt lat="43.66799" lon="1.36235">
        <ele>143</ele>
        <time>2025-04-12T08:29:31Z</time>
      </trkpt>
      <trkpt lat="43.66803" lon="1.36238">
        <ele>143</ele>
        <time>2025-04-12T08:29:32Z</time>
      </trkpt>
      <trkpt lat="43.66806" lon="1.3624">
        <ele>143</ele>
        <time>2025-04-12T08:29:33Z</time>
      </trkpt>
      <trkpt lat="43.66806" lon="1.3624">
        <ele>143</ele>
        <time>2025-04-12T08:29:34Z</time>
      </trkpt>
      <trkpt lat="43.6681" lon="1.36244">
        <ele>143</ele>
        <time>2025-04-12T08:29:35Z</time>
      </trkpt>
      <trkpt lat="43.6681" lon="1.36244">
        <ele>143</ele>
        <time>2025-04-12T08:29:36Z</time>
      </trkpt>
      <trkpt lat="43.66814" lon="1.36248">
        <ele>143</ele>
        <time>2025-04-12T08:29:37Z</time>
      </trkpt>
      <trkpt lat="43.66814" lon="1.36248">
        <ele>143</ele>
        <time>2025-04-12T08:29:38Z</time>
      </trkpt>
      <trkpt lat="43.66817" lon="1.36249">
        <ele>143</ele>
        <time>2025-04-12T08:29:39Z</time>
      </trkpt>
      <trkpt lat="43.66822" lon="1.36253">
        <ele>143</ele>
        <time>2025-04-12T08:29:40Z</time>
      </trkpt>
      <trkpt lat="43.66822" lon="1.36253">
        <ele>143</ele>
        <time>2025-04-12T08:29:41Z</time>
      </trkpt>
      <trkpt lat="43.66826" lon="1.36257">
        <ele>143</ele>
        <time>2025-04-12T08:29:42Z</time>
      </trkpt>
      <trkpt lat="43.66828" lon="1.36259">
        <ele>143</ele>
        <time>2025-04-12T08:29:43Z</time>
      </trkpt>
      <trkpt lat="43.66831" lon="1.36261">
        <ele>143</ele>
        <time>2025-04-12T08:29:44Z</time>
      </trkpt>
      <trkpt lat="43.66833" lon="1.36262">
        <ele>143</ele>
        <time>2025-04-12T08:29:45Z</time>
      </trkpt>
      <trkpt lat="43.66835" lon="1.36264">
        <ele>143</ele>
        <time>2025-04-12T08:29:46Z</time>
      </trkpt>
      <trkpt lat="43.66835" lon="1.36264">
        <ele>143</ele>
        <time>2025-04-12T08:29:47Z</time>
      </trkpt>
      <trkpt lat="43.66839" lon="1.36268">
        <ele>143</ele>
        <time>2025-04-12T08:29:48Z</time>
      </trkpt>
      <trkpt lat="43.66839" lon="1.36268">
        <ele>143</ele>
        <time>2025-04-12T08:29:49Z</time>
      </trkpt>
      <trkpt lat="43.66844" lon="1.36272">
        <ele>143</ele>
        <time>2025-04-12T08:29:50Z</time>
      </trkpt>
      <trkpt lat="43.66846" lon="1.36273">
        <ele>143</ele>
        <time>2025-04-12T08:29:51Z</time>
      </trkpt>
      <trkpt lat="43.66848" lon="1.36275">
        <ele>143</ele>
        <time>2025-04-12T08:29:52Z</time>
      </trkpt>
      <trkpt lat="43.66851" lon="1.36277">
        <ele>143</ele>
        <time>2025-04-12T08:29:53Z</time>
      </trkpt>
      <trkpt lat="43.66853" lon="1.36279">
        <ele>143</ele>
        <time>2025-04-12T08:29:54Z</time>
      </trkpt>
      <trkpt lat="43.66855" lon="1.36281">
        <ele>143</ele>
        <time>2025-04-12T08:29:55Z</time>
      </trkpt>
      <trkpt lat="43.66855" lon="1.36281">
        <ele>143</ele>
        <time>2025-04-12T08:29:56Z</time>
      </trkpt>
      <trkpt lat="43.66858" lon="1.36282">
        <ele>143</ele>
        <time>2025-04-12T08:29:57Z</time>
      </trkpt>
      <trkpt lat="43.6686" lon="1.36284">
        <ele>143</ele>
        <time>2025-04-12T08:29:58Z</time>
      </trkpt>
      <trkpt lat="43.66864" lon="1.36288">
        <ele>143</ele>
        <time>2025-04-12T08:29:59Z</time>
      </trkpt>
      <trkpt lat="43.66864" lon="1.36288">
        <ele>142</ele>
        <time>2025-04-12T08:30:00Z</time>
      </trkpt>
      <trkpt lat="43.66869" lon="1.36292">
        <ele>142</ele>
        <time>2025-04-12T08:30:01Z</time>
      </trkpt>
      <trkpt lat="43.66869" lon="1.36292">
        <ele>143</ele>
        <time>2025-04-12T08:30:02Z</time>
      </trkpt>
      <trkpt lat="43.66873" lon="1.36295">
        <ele>143</ele>
        <time>2025-04-12T08:30:03Z</time>
      </trkpt>
      <trkpt lat="43.66875" lon="1.36297">
        <ele>143</ele>
        <time>2025-04-12T08:30:04Z</time>
      </trkpt>
      <trkpt lat="43.66877" lon="1.36299">
        <ele>143</ele>
        <time>2025-04-12T08:30:05Z</time>
      </trkpt>
      <trkpt lat="43.6688" lon="1.36301">
        <ele>143</ele>
        <time>2025-04-12T08:30:07Z</time>
      </trkpt>
      <trkpt lat="43.66884" lon="1.36304">
        <ele>143</ele>
        <time>2025-04-12T08:30:08Z</time>
      </trkpt>
      <trkpt lat="43.66884" lon="1.36304">
        <ele>143</ele>
        <time>2025-04-12T08:30:09Z</time>
      </trkpt>
      <trkpt lat="43.66889" lon="1.36308">
        <ele>143</ele>
        <time>2025-04-12T08:30:10Z</time>
      </trkpt>
      <trkpt lat="43.66891" lon="1.36309">
        <ele>143</ele>
        <time>2025-04-12T08:30:11Z</time>
      </trkpt>
      <trkpt lat="43.66893" lon="1.36311">
        <ele>143</ele>
        <time>2025-04-12T08:30:12Z</time>
      </trkpt>
      <trkpt lat="43.66896" lon="1.36313">
        <ele>143</ele>
        <time>2025-04-12T08:30:13Z</time>
      </trkpt>
      <trkpt lat="43.66898" lon="1.36315">
        <ele>143</ele>
        <time>2025-04-12T08:30:14Z</time>
      </trkpt>
      <trkpt lat="43.669" lon="1.36317">
        <ele>143</ele>
        <time>2025-04-12T08:30:15Z</time>
      </trkpt>
      <trkpt lat="43.66902" lon="1.36319">
        <ele>143</ele>
        <time>2025-04-12T08:30:16Z</time>
      </trkpt>
      <trkpt lat="43.66904" lon="1.3632">
        <ele>143</ele>
        <time>2025-04-12T08:30:17Z</time>
      </trkpt>
      <trkpt lat="43.66906" lon="1.36322">
        <ele>143</ele>
        <time>2025-04-12T08:30:18Z</time>
      </trkpt>
      <trkpt lat="43.66909" lon="1.36324">
        <ele>143</ele>
        <time>2025-04-12T08:30:19Z</time>
      </trkpt>
      <trkpt lat="43.66911" lon="1.36326">
        <ele>143</ele>
        <time>2025-04-12T08:30:20Z</time>
      </trkpt>
      <trkpt lat="43.66913" lon="1.36328">
        <ele>143</ele>
        <time>2025-04-12T08:30:21Z</time>
      </trkpt>
      <trkpt lat="43.66915" lon="1.3633">
        <ele>143</ele>
        <time>2025-04-12T08:30:22Z</time>
      </trkpt>
      <trkpt lat="43.66917" lon="1.36332">
        <ele>143</ele>
        <time>2025-04-12T08:30:23Z</time>
      </trkpt>
      <trkpt lat="43.66917" lon="1.36332">
        <ele>143</ele>
        <time>2025-04-12T08:30:24Z</time>
      </trkpt>
      <trkpt lat="43.66921" lon="1.36335">
        <ele>143</ele>
        <time>2025-04-12T08:30:25Z</time>
      </trkpt>
      <trkpt lat="43.66921" lon="1.36335">
        <ele>143</ele>
        <time>2025-04-12T08:30:26Z</time>
      </trkpt>
      <trkpt lat="43.66926" lon="1.36339">
        <ele>143</ele>
        <time>2025-04-12T08:30:27Z</time>
      </trkpt>
      <trkpt lat="43.66928" lon="1.36341">
        <ele>143</ele>
        <time>2025-04-12T08:30:28Z</time>
      </trkpt>
      <trkpt lat="43.6693" lon="1.36344">
        <ele>143</ele>
        <time>2025-04-12T08:30:29Z</time>
      </trkpt>
      <trkpt lat="43.66933" lon="1.36346">
        <ele>143</ele>
        <time>2025-04-12T08:30:30Z</time>
      </trkpt>
      <trkpt lat="43.66933" lon="1.36346">
        <ele>143</ele>
        <time>2025-04-12T08:30:31Z</time>
      </trkpt>
      <trkpt lat="43.66937" lon="1.3635">
        <ele>142</ele>
        <time>2025-04-12T08:30:32Z</time>
      </trkpt>
      <trkpt lat="43.66939" lon="1.36352">
        <ele>142</ele>
        <time>2025-04-12T08:30:33Z</time>
      </trkpt>
      <trkpt lat="43.66941" lon="1.36354">
        <ele>142</ele>
        <time>2025-04-12T08:30:34Z</time>
      </trkpt>
      <trkpt lat="43.66945" lon="1.36359">
        <ele>142</ele>
        <time>2025-04-12T08:30:36Z</time>
      </trkpt>
      <trkpt lat="43.66947" lon="1.36361">
        <ele>142</ele>
        <time>2025-04-12T08:30:37Z</time>
      </trkpt>
      <trkpt lat="43.66949" lon="1.36364">
        <ele>142</ele>
        <time>2025-04-12T08:30:38Z</time>
      </trkpt>
      <trkpt lat="43.66951" lon="1.36366">
        <ele>142</ele>
        <time>2025-04-12T08:30:39Z</time>
      </trkpt>
      <trkpt lat="43.66953" lon="1.36369">
        <ele>142</ele>
        <time>2025-04-12T08:30:40Z</time>
      </trkpt>
      <trkpt lat="43.66955" lon="1.36371">
        <ele>142</ele>
        <time>2025-04-12T08:30:41Z</time>
      </trkpt>
      <trkpt lat="43.66955" lon="1.36371">
        <ele>142</ele>
        <time>2025-04-12T08:30:42Z</time>
      </trkpt>
      <trkpt lat="43.66959" lon="1.36376">
        <ele>142</ele>
        <time>2025-04-12T08:30:43Z</time>
      </trkpt>
      <trkpt lat="43.66961" lon="1.36379">
        <ele>142</ele>
        <time>2025-04-12T08:30:45Z</time>
      </trkpt>
      <trkpt lat="43.66965" lon="1.36384">
        <ele>142</ele>
        <time>2025-04-12T08:30:46Z</time>
      </trkpt>
      <trkpt lat="43.66967" lon="1.36386">
        <ele>142</ele>
        <time>2025-04-12T08:30:47Z</time>
      </trkpt>
      <trkpt lat="43.66969" lon="1.36388">
        <ele>142</ele>
        <time>2025-04-12T08:30:48Z</time>
      </trkpt>
      <trkpt lat="43.66971" lon="1.36391">
        <ele>142</ele>
        <time>2025-04-12T08:30:49Z</time>
      </trkpt>
      <trkpt lat="43.66971" lon="1.36391">
        <ele>142</ele>
        <time>2025-04-12T08:30:50Z</time>
      </trkpt>
      <trkpt lat="43.66975" lon="1.36396">
        <ele>142</ele>
        <time>2025-04-12T08:30:51Z</time>
      </trkpt>
      <trkpt lat="43.66975" lon="1.36396">
        <ele>142</ele>
        <time>2025-04-12T08:30:52Z</time>
      </trkpt>
      <trkpt lat="43.66978" lon="1.36401">
        <ele>142</ele>
        <time>2025-04-12T08:30:53Z</time>
      </trkpt>
      <trkpt lat="43.66978" lon="1.36401">
        <ele>142</ele>
        <time>2025-04-12T08:30:54Z</time>
      </trkpt>
      <trkpt lat="43.66982" lon="1.36406">
        <ele>142</ele>
        <time>2025-04-12T08:30:55Z</time>
      </trkpt>
      <trkpt lat="43.66983" lon="1.36409">
        <ele>142</ele>
        <time>2025-04-12T08:30:56Z</time>
      </trkpt>
      <trkpt lat="43.66985" lon="1.36412">
        <ele>142</ele>
        <time>2025-04-12T08:30:57Z</time>
      </trkpt>
      <trkpt lat="43.66987" lon="1.36414">
        <ele>143</ele>
        <time>2025-04-12T08:30:58Z</time>
      </trkpt>
      <trkpt lat="43.66988" lon="1.36417">
        <ele>143</ele>
        <time>2025-04-12T08:30:59Z</time>
      </trkpt>
      <trkpt lat="43.6699" lon="1.3642">
        <ele>143</ele>
        <time>2025-04-12T08:31:00Z</time>
      </trkpt>
      <trkpt lat="43.66991" lon="1.36423">
        <ele>143</ele>
        <time>2025-04-12T08:31:01Z</time>
      </trkpt>
      <trkpt lat="43.66993" lon="1.36426">
        <ele>143</ele>
        <time>2025-04-12T08:31:02Z</time>
      </trkpt>
      <trkpt lat="43.66994" lon="1.36429">
        <ele>143</ele>
        <time>2025-04-12T08:31:03Z</time>
      </trkpt>
      <trkpt lat="43.66996" lon="1.36432">
        <ele>143</ele>
        <time>2025-04-12T08:31:04Z</time>
      </trkpt>
      <trkpt lat="43.66997" lon="1.36435">
        <ele>143</ele>
        <time>2025-04-12T08:31:05Z</time>
      </trkpt>
      <trkpt lat="43.66999" lon="1.36438">
        <ele>142</ele>
        <time>2025-04-12T08:31:06Z</time>
      </trkpt>
      <trkpt lat="43.66999" lon="1.36438">
        <ele>142</ele>
        <time>2025-04-12T08:31:07Z</time>
      </trkpt>
      <trkpt lat="43.67002" lon="1.36444">
        <ele>142</ele>
        <time>2025-04-12T08:31:08Z</time>
      </trkpt>
      <trkpt lat="43.67002" lon="1.36444">
        <ele>142</ele>
        <time>2025-04-12T08:31:09Z</time>
      </trkpt>
      <trkpt lat="43.67004" lon="1.3645">
        <ele>142</ele>
        <time>2025-04-12T08:31:10Z</time>
      </trkpt>
      <trkpt lat="43.67006" lon="1.36453">
        <ele>142</ele>
        <time>2025-04-12T08:31:11Z</time>
      </trkpt>
      <trkpt lat="43.67007" lon="1.36456">
        <ele>142</ele>
        <time>2025-04-12T08:31:12Z</time>
      </trkpt>
      <trkpt lat="43.6701" lon="1.36462">
        <ele>143</ele>
        <time>2025-04-12T08:31:14Z</time>
      </trkpt>
      <trkpt lat="43.67012" lon="1.36465">
        <ele>143</ele>
        <time>2025-04-12T08:31:15Z</time>
      </trkpt>
      <trkpt lat="43.67013" lon="1.36467">
        <ele>143</ele>
        <time>2025-04-12T08:31:16Z</time>
      </trkpt>
      <trkpt lat="43.67014" lon="1.3647">
        <ele>143</ele>
        <time>2025-04-12T08:31:17Z</time>
      </trkpt>
      <trkpt lat="43.67016" lon="1.36473">
        <ele>143</ele>
        <time>2025-04-12T08:31:18Z</time>
      </trkpt>
      <trkpt lat="43.67017" lon="1.36476">
        <ele>143</ele>
        <time>2025-04-12T08:31:19Z</time>
      </trkpt>
      <trkpt lat="43.67018" lon="1.3648">
        <ele>143</ele>
        <time>2025-04-12T08:31:20Z</time>
      </trkpt>
      <trkpt lat="43.6702" lon="1.36483">
        <ele>143</ele>
        <time>2025-04-12T08:31:21Z</time>
      </trkpt>
      <trkpt lat="43.67021" lon="1.36486">
        <ele>143</ele>
        <time>2025-04-12T08:31:22Z</time>
      </trkpt>
      <trkpt lat="43.67021" lon="1.36486">
        <ele>143</ele>
        <time>2025-04-12T08:31:23Z</time>
      </trkpt>
      <trkpt lat="43.67025" lon="1.36492">
        <ele>143</ele>
        <time>2025-04-12T08:31:24Z</time>
      </trkpt>
      <trkpt lat="43.67026" lon="1.36495">
        <ele>143</ele>
        <time>2025-04-12T08:31:25Z</time>
      </trkpt>
      <trkpt lat="43.67026" lon="1.36495">
        <ele>143</ele>
        <time>2025-04-12T08:31:26Z</time>
      </trkpt>
      <trkpt lat="43.67029" lon="1.365">
        <ele>143</ele>
        <time>2025-04-12T08:31:27Z</time>
      </trkpt>
      <trkpt lat="43.67029" lon="1.365">
        <ele>143</ele>
        <time>2025-04-12T08:31:28Z</time>
      </trkpt>
      <trkpt lat="43.67032" lon="1.36506">
        <ele>143</ele>
        <time>2025-04-12T08:31:29Z</time>
      </trkpt>
      <trkpt lat="43.67034" lon="1.36509">
        <ele>143</ele>
        <time>2025-04-12T08:31:30Z</time>
      </trkpt>
      <trkpt lat="43.67036" lon="1.36512">
        <ele>143</ele>
        <time>2025-04-12T08:31:31Z</time>
      </trkpt>
      <trkpt lat="43.67039" lon="1.36517">
        <ele>143</ele>
        <time>2025-04-12T08:31:33Z</time>
      </trkpt>
      <trkpt lat="43.67041" lon="1.3652">
        <ele>143</ele>
        <time>2025-04-12T08:31:34Z</time>
      </trkpt>
      <trkpt lat="43.67042" lon="1.36523">
        <ele>143</ele>
        <time>2025-04-12T08:31:35Z</time>
      </trkpt>
      <trkpt lat="43.67044" lon="1.36525">
        <ele>142</ele>
        <time>2025-04-12T08:31:36Z</time>
      </trkpt>
      <trkpt lat="43.67047" lon="1.36528">
        <ele>143</ele>
        <time>2025-04-12T08:31:37Z</time>
      </trkpt>
      <trkpt lat="43.67049" lon="1.36531">
        <ele>143</ele>
        <time>2025-04-12T08:31:38Z</time>
      </trkpt>
      <trkpt lat="43.6705" lon="1.36533">
        <ele>143</ele>
        <time>2025-04-12T08:31:39Z</time>
      </trkpt>
      <trkpt lat="43.67052" lon="1.36536">
        <ele>143</ele>
        <time>2025-04-12T08:31:40Z</time>
      </trkpt>
      <trkpt lat="43.67054" lon="1.36538">
        <ele>143</ele>
        <time>2025-04-12T08:31:41Z</time>
      </trkpt>
      <trkpt lat="43.67054" lon="1.36538">
        <ele>143</ele>
        <time>2025-04-12T08:31:42Z</time>
      </trkpt>
      <trkpt lat="43.67057" lon="1.36544">
        <ele>143</ele>
        <time>2025-04-12T08:31:43Z</time>
      </trkpt>
      <trkpt lat="43.67059" lon="1.36546">
        <ele>143</ele>
        <time>2025-04-12T08:31:44Z</time>
      </trkpt>
      <trkpt lat="43.67061" lon="1.36549">
        <ele>143</ele>
        <time>2025-04-12T08:31:45Z</time>
      </trkpt>
      <trkpt lat="43.67063" lon="1.36551">
        <ele>143</ele>
        <time>2025-04-12T08:31:46Z</time>
      </trkpt>
      <trkpt lat="43.67066" lon="1.36553">
        <ele>143</ele>
        <time>2025-04-12T08:31:47Z</time>
      </trkpt>
      <trkpt lat="43.67068" lon="1.36555">
        <ele>143</ele>
        <time>2025-04-12T08:31:48Z</time>
      </trkpt>
      <trkpt lat="43.6707" lon="1.36557">
        <ele>143</ele>
        <time>2025-04-12T08:31:49Z</time>
      </trkpt>
      <trkpt lat="43.67072" lon="1.36559">
        <ele>143</ele>
        <time>2025-04-12T08:31:50Z</time>
      </trkpt>
      <trkpt lat="43.67075" lon="1.36563">
        <ele>143</ele>
        <time>2025-04-12T08:31:52Z</time>
      </trkpt>
      <trkpt lat="43.67077" lon="1.36565">
        <ele>143</ele>
        <time>2025-04-12T08:31:53Z</time>
      </trkpt>
      <trkpt lat="43.6708" lon="1.36567">
        <ele>143</ele>
        <time>2025-04-12T08:31:54Z</time>
      </trkpt>
      <trkpt lat="43.67082" lon="1.36569">
        <ele>143</ele>
        <time>2025-04-12T08:31:55Z</time>
      </trkpt>
      <trkpt lat="43.67084" lon="1.3657">
        <ele>143</ele>
        <time>2025-04-12T08:31:56Z</time>
      </trkpt>
      <trkpt lat="43.67084" lon="1.3657">
        <ele>143</ele>
        <time>2025-04-12T08:31:57Z</time>
      </trkpt>
      <trkpt lat="43.67089" lon="1.36573">
        <ele>143</ele>
        <time>2025-04-12T08:31:58Z</time>
      </trkpt>
      <trkpt lat="43.67089" lon="1.36573">
        <ele>143</ele>
        <time>2025-04-12T08:31:59Z</time>
      </trkpt>
      <trkpt lat="43.67093" lon="1.36576">
        <ele>143</ele>
        <time>2025-04-12T08:32:00Z</time>
      </trkpt>
      <trkpt lat="43.67096" lon="1.36578">
        <ele>143</ele>
        <time>2025-04-12T08:32:01Z</time>
      </trkpt>
      <trkpt lat="43.67096" lon="1.36578">
        <ele>143</ele>
        <time>2025-04-12T08:32:02Z</time>
      </trkpt>
      <trkpt lat="43.671" lon="1.3658">
        <ele>143</ele>
        <time>2025-04-12T08:32:03Z</time>
      </trkpt>
      <trkpt lat="43.671" lon="1.3658">
        <ele>143</ele>
        <time>2025-04-12T08:32:04Z</time>
      </trkpt>
      <trkpt lat="43.67105" lon="1.36583">
        <ele>143</ele>
        <time>2025-04-12T08:32:05Z</time>
      </trkpt>
      <trkpt lat="43.67105" lon="1.36583">
        <ele>143</ele>
        <time>2025-04-12T08:32:06Z</time>
      </trkpt>
      <trkpt lat="43.6711" lon="1.36585">
        <ele>143</ele>
        <time>2025-04-12T08:32:07Z</time>
      </trkpt>
      <trkpt lat="43.67112" lon="1.36585">
        <ele>142</ele>
        <time>2025-04-12T08:32:08Z</time>
      </trkpt>
      <trkpt lat="43.67112" lon="1.36585">
        <ele>142</ele>
        <time>2025-04-12T08:32:09Z</time>
      </trkpt>
      <trkpt lat="43.67114" lon="1.36586">
        <ele>142</ele>
        <time>2025-04-12T08:32:10Z</time>
      </trkpt>
      <trkpt lat="43.67119" lon="1.36587">
        <ele>142</ele>
        <time>2025-04-12T08:32:11Z</time>
      </trkpt>
      <trkpt lat="43.67121" lon="1.36588">
        <ele>142</ele>
        <time>2025-04-12T08:32:12Z</time>
      </trkpt>
      <trkpt lat="43.67121" lon="1.36588">
        <ele>142</ele>
        <time>2025-04-12T08:32:13Z</time>
      </trkpt>
      <trkpt lat="43.67127" lon="1.3659">
        <ele>142</ele>
        <time>2025-04-12T08:32:14Z</time>
      </trkpt>
      <trkpt lat="43.67129" lon="1.3659">
        <ele>142</ele>
        <time>2025-04-12T08:32:15Z</time>
      </trkpt>
      <trkpt lat="43.67131" lon="1.3659">
        <ele>142</ele>
        <time>2025-04-12T08:32:16Z</time>
      </trkpt>
      <trkpt lat="43.67134" lon="1.36591">
        <ele>142</ele>
        <time>2025-04-12T08:32:17Z</time>
      </trkpt>
      <trkpt lat="43.67136" lon="1.36591">
        <ele>142</ele>
        <time>2025-04-12T08:32:18Z</time>
      </trkpt>
      <trkpt lat="43.67139" lon="1.36591">
        <ele>142</ele>
        <time>2025-04-12T08:32:19Z</time>
      </trkpt>
      <trkpt lat="43.67141" lon="1.36591">
        <ele>142</ele>
        <time>2025-04-12T08:32:20Z</time>
      </trkpt>
      <trkpt lat="43.67144" lon="1.36591">
        <ele>142</ele>
        <time>2025-04-12T08:32:21Z</time>
      </trkpt>
      <trkpt lat="43.67146" lon="1.36591">
        <ele>142</ele>
        <time>2025-04-12T08:32:22Z</time>
      </trkpt>
      <trkpt lat="43.67149" lon="1.36591">
        <ele>142</ele>
        <time>2025-04-12T08:32:23Z</time>
      </trkpt>
      <trkpt lat="43.67151" lon="1.36591">
        <ele>142</ele>
        <time>2025-04-12T08:32:24Z</time>
      </trkpt>
      <trkpt lat="43.67151" lon="1.36591">
        <ele>142</ele>
        <time>2025-04-12T08:32:25Z</time>
      </trkpt>
      <trkpt lat="43.67156" lon="1.36591">
        <ele>142</ele>
        <time>2025-04-12T08:32:26Z</time>
      </trkpt>
      <trkpt lat="43.67159" lon="1.3659">
        <ele>142</ele>
        <time>2025-04-12T08:32:27Z</time>
      </trkpt>
      <trkpt lat="43.67161" lon="1.3659">
        <ele>142</ele>
        <time>2025-04-12T08:32:28Z</time>
      </trkpt>
      <trkpt lat="43.67161" lon="1.3659">
        <ele>142</ele>
        <time>2025-04-12T08:32:29Z</time>
      </trkpt>
      <trkpt lat="43.67167" lon="1.36588">
        <ele>142</ele>
        <time>2025-04-12T08:32:30Z</time>
      </trkpt>
      <trkpt lat="43.67169" lon="1.36588">
        <ele>142</ele>
        <time>2025-04-12T08:32:31Z</time>
      </trkpt>
      <trkpt lat="43.67172" lon="1.36587">
        <ele>142</ele>
        <time>2025-04-12T08:32:32Z</time>
      </trkpt>
      <trkpt lat="43.67174" lon="1.36587">
        <ele>142</ele>
        <time>2025-04-12T08:32:33Z</time>
      </trkpt>
      <trkpt lat="43.67176" lon="1.36587">
        <ele>141</ele>
        <time>2025-04-12T08:32:34Z</time>
      </trkpt>
      <trkpt lat="43.67179" lon="1.36586">
        <ele>141</ele>
        <time>2025-04-12T08:32:35Z</time>
      </trkpt>
      <trkpt lat="43.67182" lon="1.36586">
        <ele>141</ele>
        <time>2025-04-12T08:32:36Z</time>
      </trkpt>
      <trkpt lat="43.67185" lon="1.36586">
        <ele>141</ele>
        <time>2025-04-12T08:32:37Z</time>
      </trkpt>
      <trkpt lat="43.67185" lon="1.36586">
        <ele>141</ele>
        <time>2025-04-12T08:32:38Z</time>
      </trkpt>
      <trkpt lat="43.6719" lon="1.36587">
        <ele>141</ele>
        <time>2025-04-12T08:32:39Z</time>
      </trkpt>
      <trkpt lat="43.67193" lon="1.36588">
        <ele>141</ele>
        <time>2025-04-12T08:32:40Z</time>
      </trkpt>
      <trkpt lat="43.67193" lon="1.36588">
        <ele>142</ele>
        <time>2025-04-12T08:32:41Z</time>
      </trkpt>
      <trkpt lat="43.67198" lon="1.3659">
        <ele>142</ele>
        <time>2025-04-12T08:32:42Z</time>
      </trkpt>
      <trkpt lat="43.672" lon="1.3659">
        <ele>142</ele>
        <time>2025-04-12T08:32:43Z</time>
      </trkpt>
      <trkpt lat="43.67202" lon="1.36591">
        <ele>142</ele>
        <time>2025-04-12T08:32:44Z</time>
      </trkpt>
      <trkpt lat="43.67204" lon="1.36592">
        <ele>142</ele>
        <time>2025-04-12T08:32:45Z</time>
      </trkpt>
      <trkpt lat="43.67204" lon="1.36592">
        <ele>142</ele>
        <time>2025-04-12T08:32:46Z</time>
      </trkpt>
      <trkpt lat="43.67209" lon="1.36594">
        <ele>142</ele>
        <time>2025-04-12T08:32:47Z</time>
      </trkpt>
      <trkpt lat="43.67211" lon="1.36596">
        <ele>142</ele>
        <time>2025-04-12T08:32:48Z</time>
      </trkpt>
      <trkpt lat="43.67214" lon="1.36598">
        <ele>142</ele>
        <time>2025-04-12T08:32:49Z</time>
      </trkpt>
      <trkpt lat="43.67217" lon="1.366">
        <ele>142</ele>
        <time>2025-04-12T08:32:50Z</time>
      </trkpt>
      <trkpt lat="43.67219" lon="1.36602">
        <ele>142</ele>
        <time>2025-04-12T08:32:51Z</time>
      </trkpt>
      <trkpt lat="43.67221" lon="1.36605">
        <ele>142</ele>
        <time>2025-04-12T08:32:52Z</time>
      </trkpt>
      <trkpt lat="43.67221" lon="1.36605">
        <ele>142</ele>
        <time>2025-04-12T08:32:53Z</time>
      </trkpt>
      <trkpt lat="43.67226" lon="1.36611">
        <ele>142</ele>
        <time>2025-04-12T08:32:54Z</time>
      </trkpt>
      <trkpt lat="43.67226" lon="1.36611">
        <ele>142</ele>
        <time>2025-04-12T08:32:55Z</time>
      </trkpt>
      <trkpt lat="43.67229" lon="1.36618">
        <ele>142</ele>
        <time>2025-04-12T08:32:56Z</time>
      </trkpt>
      <trkpt lat="43.67229" lon="1.36622">
        <ele>142</ele>
        <time>2025-04-12T08:32:57Z</time>
      </trkpt>
      <trkpt lat="43.67229" lon="1.36627">
        <ele>142</ele>
        <time>2025-04-12T08:32:58Z</time>
      </trkpt>
      <trkpt lat="43.67229" lon="1.36627">
        <ele>142</ele>
        <time>2025-04-12T08:32:59Z</time>
      </trkpt>
      <trkpt lat="43.67229" lon="1.36634">
        <ele>142</ele>
        <time>2025-04-12T08:33:00Z</time>
      </trkpt>
      <trkpt lat="43.67229" lon="1.36638">
        <ele>142</ele>
        <time>2025-04-12T08:33:01Z</time>
      </trkpt>
      <trkpt lat="43.67227" lon="1.36642">
        <ele>142</ele>
        <time>2025-04-12T08:33:02Z</time>
      </trkpt>
      <trkpt lat="43.67226" lon="1.36645">
        <ele>142</ele>
        <time>2025-04-12T08:33:03Z</time>
      </trkpt>
      <trkpt lat="43.67226" lon="1.36645">
        <ele>142</ele>
        <time>2025-04-12T08:33:04Z</time>
      </trkpt>
      <trkpt lat="43.67223" lon="1.36651">
        <ele>142</ele>
        <time>2025-04-12T08:33:05Z</time>
      </trkpt>
      <trkpt lat="43.67221" lon="1.36654">
        <ele>143</ele>
        <time>2025-04-12T08:33:06Z</time>
      </trkpt>
      <trkpt lat="43.67221" lon="1.36658">
        <ele>143</ele>
        <time>2025-04-12T08:33:07Z</time>
      </trkpt>
      <trkpt lat="43.67221" lon="1.36661">
        <ele>142</ele>
        <time>2025-04-12T08:33:08Z</time>
      </trkpt>
      <trkpt lat="43.67222" lon="1.36665">
        <ele>142</ele>
        <time>2025-04-12T08:33:09Z</time>
      </trkpt>
      <trkpt lat="43.67223" lon="1.36669">
        <ele>142</ele>
        <time>2025-04-12T08:33:10Z</time>
      </trkpt>
      <trkpt lat="43.67225" lon="1.36671">
        <ele>142</ele>
        <time>2025-04-12T08:33:11Z</time>
      </trkpt>
      <trkpt lat="43.67226" lon="1.36674">
        <ele>142</ele>
        <time>2025-04-12T08:33:12Z</time>
      </trkpt>
      <trkpt lat="43.67227" lon="1.36677">
        <ele>142</ele>
        <time>2025-04-12T08:33:13Z</time>
      </trkpt>
      <trkpt lat="43.67228" lon="1.3668">
        <ele>142</ele>
        <time>2025-04-12T08:33:14Z</time>
      </trkpt>
      <trkpt lat="43.6723" lon="1.36683">
        <ele>142</ele>
        <time>2025-04-12T08:33:15Z</time>
      </trkpt>
      <trkpt lat="43.67232" lon="1.36685">
        <ele>141</ele>
        <time>2025-04-12T08:33:16Z</time>
      </trkpt>
      <trkpt lat="43.67232" lon="1.36685">
        <ele>141</ele>
        <time>2025-04-12T08:33:17Z</time>
      </trkpt>
      <trkpt lat="43.67234" lon="1.36687">
        <ele>141</ele>
        <time>2025-04-12T08:33:18Z</time>
      </trkpt>
      <trkpt lat="43.67279" lon="1.36699">
        <ele>142</ele>
        <time>2025-04-12T08:35:58Z</time>
      </trkpt>
      <trkpt lat="43.6728" lon="1.36697">
        <ele>142</ele>
        <time>2025-04-12T08:35:59Z</time>
      </trkpt>
      <trkpt lat="43.67282" lon="1.36691">
        <ele>142</ele>
        <time>2025-04-12T08:36:00Z</time>
      </trkpt>
      <trkpt lat="43.67283" lon="1.36688">
        <ele>142</ele>
        <time>2025-04-12T08:36:01Z</time>
      </trkpt>
      <trkpt lat="43.67284" lon="1.36685">
        <ele>142</ele>
        <time>2025-04-12T08:36:02Z</time>
      </trkpt>
      <trkpt lat="43.67284" lon="1.36681">
        <ele>142</ele>
        <time>2025-04-12T08:36:03Z</time>
      </trkpt>
      <trkpt lat="43.67284" lon="1.36678">
        <ele>142</ele>
        <time>2025-04-12T08:36:04Z</time>
      </trkpt>
      <trkpt lat="43.67285" lon="1.36674">
        <ele>142</ele>
        <time>2025-04-12T08:36:05Z</time>
      </trkpt>
      <trkpt lat="43.67286" lon="1.36671">
        <ele>142</ele>
        <time>2025-04-12T08:36:06Z</time>
      </trkpt>
      <trkpt lat="43.67288" lon="1.36668">
        <ele>142</ele>
        <time>2025-04-12T08:36:07Z</time>
      </trkpt>
      <trkpt lat="43.67288" lon="1.36668">
        <ele>142</ele>
        <time>2025-04-12T08:36:08Z</time>
      </trkpt>
      <trkpt lat="43.67291" lon="1.36664">
        <ele>142</ele>
        <time>2025-04-12T08:36:09Z</time>
      </trkpt>
      <trkpt lat="43.67294" lon="1.36662">
        <ele>142</ele>
        <time>2025-04-12T08:36:10Z</time>
      </trkpt>
      <trkpt lat="43.67296" lon="1.3666">
        <ele>142</ele>
        <time>2025-04-12T08:36:11Z</time>
      </trkpt>
      <trkpt lat="43.67298" lon="1.36658">
        <ele>142</ele>
        <time>2025-04-12T08:36:12Z</time>
      </trkpt>
      <trkpt lat="43.67301" lon="1.36656">
        <ele>142</ele>
        <time>2025-04-12T08:36:13Z</time>
      </trkpt>
      <trkpt lat="43.67303" lon="1.36654">
        <ele>142</ele>
        <time>2025-04-12T08:36:14Z</time>
      </trkpt>
      <trkpt lat="43.67306" lon="1.36653">
        <ele>142</ele>
        <time>2025-04-12T08:36:15Z</time>
      </trkpt>
      <trkpt lat="43.67308" lon="1.36651">
        <ele>142</ele>
        <time>2025-04-12T08:36:16Z</time>
      </trkpt>
      <trkpt lat="43.67308" lon="1.36651">
        <ele>142</ele>
        <time>2025-04-12T08:36:17Z</time>
      </trkpt>
      <trkpt lat="43.67311" lon="1.36647">
        <ele>142</ele>
        <time>2025-04-12T08:36:18Z</time>
      </trkpt>
      <trkpt lat="43.67311" lon="1.36647">
        <ele>142</ele>
        <time>2025-04-12T08:36:19Z</time>
      </trkpt>
      <trkpt lat="43.67315" lon="1.36644">
        <ele>142</ele>
        <time>2025-04-12T08:36:20Z</time>
      </trkpt>
      <trkpt lat="43.67315" lon="1.36644">
        <ele>142</ele>
        <time>2025-04-12T08:36:21Z</time>
      </trkpt>
      <trkpt lat="43.67319" lon="1.3664">
        <ele>142</ele>
        <time>2025-04-12T08:36:22Z</time>
      </trkpt>
      <trkpt lat="43.67321" lon="1.36637">
        <ele>142</ele>
        <time>2025-04-12T08:36:23Z</time>
      </trkpt>
      <trkpt lat="43.67321" lon="1.36637">
        <ele>142</ele>
        <time>2025-04-12T08:36:24Z</time>
      </trkpt>
      <trkpt lat="43.67326" lon="1.36632">
        <ele>142</ele>
        <time>2025-04-12T08:36:25Z</time>
      </trkpt>
      <trkpt lat="43.67326" lon="1.36632">
        <ele>142</ele>
        <time>2025-04-12T08:36:26Z</time>
      </trkpt>
      <trkpt lat="43.6733" lon="1.36628">
        <ele>142</ele>
        <time>2025-04-12T08:36:27Z</time>
      </trkpt>
      <trkpt lat="43.6733" lon="1.36628">
        <ele>141</ele>
        <time>2025-04-12T08:36:28Z</time>
      </trkpt>
      <trkpt lat="43.67334" lon="1.36625">
        <ele>141</ele>
        <time>2025-04-12T08:36:29Z</time>
      </trkpt>
      <trkpt lat="43.67336" lon="1.36623">
        <ele>142</ele>
        <time>2025-04-12T08:36:30Z</time>
      </trkpt>
      <trkpt lat="43.67336" lon="1.36623">
        <ele>142</ele>
        <time>2025-04-12T08:36:31Z</time>
      </trkpt>
      <trkpt lat="43.67341" lon="1.36619">
        <ele>142</ele>
        <time>2025-04-12T08:36:32Z</time>
      </trkpt>
      <trkpt lat="43.67342" lon="1.36617">
        <ele>142</ele>
        <time>2025-04-12T08:36:33Z</time>
      </trkpt>
      <trkpt lat="43.67345" lon="1.36615">
        <ele>142</ele>
        <time>2025-04-12T08:36:34Z</time>
      </trkpt>
      <trkpt lat="43.67345" lon="1.36615">
        <ele>142</ele>
        <time>2025-04-12T08:36:35Z</time>
      </trkpt>
      <trkpt lat="43.67347" lon="1.36613">
        <ele>142</ele>
        <time>2025-04-12T08:36:36Z</time>
      </trkpt>
      <trkpt lat="43.67352" lon="1.36609">
        <ele>142</ele>
        <time>2025-04-12T08:36:37Z</time>
      </trkpt>
      <trkpt lat="43.67354" lon="1.36608">
        <ele>142</ele>
        <time>2025-04-12T08:36:38Z</time>
      </trkpt>
      <trkpt lat="43.67354" lon="1.36608">
        <ele>142</ele>
        <time>2025-04-12T08:36:39Z</time>
      </trkpt>
      <trkpt lat="43.67358" lon="1.36605">
        <ele>142</ele>
        <time>2025-04-12T08:36:40Z</time>
      </trkpt>
      <trkpt lat="43.6736" lon="1.36603">
        <ele>142</ele>
        <time>2025-04-12T08:36:41Z</time>
      </trkpt>
      <trkpt lat="43.67363" lon="1.36602">
        <ele>142</ele>
        <time>2025-04-12T08:36:42Z</time>
      </trkpt>
      <trkpt lat="43.67365" lon="1.366">
        <ele>142</ele>
        <time>2025-04-12T08:36:43Z</time>
      </trkpt>
      <trkpt lat="43.67367" lon="1.36599">
        <ele>142</ele>
        <time>2025-04-12T08:36:44Z</time>
      </trkpt>
      <trkpt lat="43.6737" lon="1.36597">
        <ele>142</ele>
        <time>2025-04-12T08:36:45Z</time>
      </trkpt>
      <trkpt lat="43.67372" lon="1.36596">
        <ele>142</ele>
        <time>2025-04-12T08:36:46Z</time>
      </trkpt>
      <trkpt lat="43.67374" lon="1.36595">
        <ele>142</ele>
        <time>2025-04-12T08:36:47Z</time>
      </trkpt>
      <trkpt lat="43.67377" lon="1.36594">
        <ele>142</ele>
        <time>2025-04-12T08:36:48Z</time>
      </trkpt>
      <trkpt lat="43.67379" lon="1.36593">
        <ele>142</ele>
        <time>2025-04-12T08:36:49Z</time>
      </trkpt>
      <trkpt lat="43.67381" lon="1.36592">
        <ele>142</ele>
        <time>2025-04-12T08:36:50Z</time>
      </trkpt>
      <trkpt lat="43.67381" lon="1.36592">
        <ele>142</ele>
        <time>2025-04-12T08:36:51Z</time>
      </trkpt>
      <trkpt lat="43.67386" lon="1.36589">
        <ele>142</ele>
        <time>2025-04-12T08:36:52Z</time>
      </trkpt>
      <trkpt lat="43.67386" lon="1.36589">
        <ele>142</ele>
        <time>2025-04-12T08:36:53Z</time>
      </trkpt>
      <trkpt lat="43.67391" lon="1.36587">
        <ele>142</ele>
        <time>2025-04-12T08:36:54Z</time>
      </trkpt>
      <trkpt lat="43.67391" lon="1.36587">
        <ele>142</ele>
        <time>2025-04-12T08:36:55Z</time>
      </trkpt>
      <trkpt lat="43.67396" lon="1.36585">
        <ele>142</ele>
        <time>2025-04-12T08:36:56Z</time>
      </trkpt>
      <trkpt lat="43.67398" lon="1.36584">
        <ele>142</ele>
        <time>2025-04-12T08:36:57Z</time>
      </trkpt>
      <trkpt lat="43.67401" lon="1.36583">
        <ele>142</ele>
        <time>2025-04-12T08:36:58Z</time>
      </trkpt>
      <trkpt lat="43.67401" lon="1.36583">
        <ele>142</ele>
        <time>2025-04-12T08:36:59Z</time>
      </trkpt>
      <trkpt lat="43.67405" lon="1.36581">
        <ele>142</ele>
        <time>2025-04-12T08:37:00Z</time>
      </trkpt>
      <trkpt lat="43.67408" lon="1.36581">
        <ele>142</ele>
        <time>2025-04-12T08:37:01Z</time>
      </trkpt>
      <trkpt lat="43.67411" lon="1.3658">
        <ele>141</ele>
        <time>2025-04-12T08:37:02Z</time>
      </trkpt>
      <trkpt lat="43.67413" lon="1.36579">
        <ele>142</ele>
        <time>2025-04-12T08:37:03Z</time>
      </trkpt>
      <trkpt lat="43.67415" lon="1.36578">
        <ele>142</ele>
        <time>2025-04-12T08:37:04Z</time>
      </trkpt>
      <trkpt lat="43.67418" lon="1.36577">
        <ele>142</ele>
        <time>2025-04-12T08:37:05Z</time>
      </trkpt>
      <trkpt lat="43.6742" lon="1.36576">
        <ele>142</ele>
        <time>2025-04-12T08:37:06Z</time>
      </trkpt>
      <trkpt lat="43.67423" lon="1.36576">
        <ele>142</ele>
        <time>2025-04-12T08:37:07Z</time>
      </trkpt>
      <trkpt lat="43.67425" lon="1.36575">
        <ele>142</ele>
        <time>2025-04-12T08:37:08Z</time>
      </trkpt>
      <trkpt lat="43.67428" lon="1.36574">
        <ele>142</ele>
        <time>2025-04-12T08:37:09Z</time>
      </trkpt>
      <trkpt lat="43.67428" lon="1.36574">
        <ele>142</ele>
        <time>2025-04-12T08:37:10Z</time>
      </trkpt>
      <trkpt lat="43.67433" lon="1.36572">
        <ele>142</ele>
        <time>2025-04-12T08:37:11Z</time>
      </trkpt>
      <trkpt lat="43.67435" lon="1.36571">
        <ele>142</ele>
        <time>2025-04-12T08:37:12Z</time>
      </trkpt>
      <trkpt lat="43.67435" lon="1.36571">
        <ele>142</ele>
        <time>2025-04-12T08:37:13Z</time>
      </trkpt>
      <trkpt lat="43.67438" lon="1.36569">
        <ele>142</ele>
        <time>2025-04-12T08:37:14Z</time>
      </trkpt>
      <trkpt lat="43.67443" lon="1.36567">
        <ele>142</ele>
        <time>2025-04-12T08:37:15Z</time>
      </trkpt>
      <trkpt lat="43.67443" lon="1.36567">
        <ele>142</ele>
        <time>2025-04-12T08:37:16Z</time>
      </trkpt>
      <trkpt lat="43.67448" lon="1.36566">
        <ele>142</ele>
        <time>2025-04-12T08:37:17Z</time>
      </trkpt>
      <trkpt lat="43.6745" lon="1.36564">
        <ele>142</ele>
        <time>2025-04-12T08:37:18Z</time>
      </trkpt>
      <trkpt lat="43.67452" lon="1.36563">
        <ele>141</ele>
        <time>2025-04-12T08:37:19Z</time>
      </trkpt>
      <trkpt lat="43.67454" lon="1.36562">
        <ele>141</ele>
        <time>2025-04-12T08:37:20Z</time>
      </trkpt>
      <trkpt lat="43.67456" lon="1.3656">
        <ele>141</ele>
        <time>2025-04-12T08:37:21Z</time>
      </trkpt>
      <trkpt lat="43.67458" lon="1.36559">
        <ele>141</ele>
        <time>2025-04-12T08:37:22Z</time>
      </trkpt>
      <trkpt lat="43.6746" lon="1.36557">
        <ele>141</ele>
        <time>2025-04-12T08:37:23Z</time>
      </trkpt>
      <trkpt lat="43.6746" lon="1.36557">
        <ele>141</ele>
        <time>2025-04-12T08:37:24Z</time>
      </trkpt>
      <trkpt lat="43.67465" lon="1.36554">
        <ele>141</ele>
        <time>2025-04-12T08:37:25Z</time>
      </trkpt>
      <trkpt lat="43.67467" lon="1.36553">
        <ele>141</ele>
        <time>2025-04-12T08:37:26Z</time>
      </trkpt>
      <trkpt lat="43.67469" lon="1.36552">
        <ele>141</ele>
        <time>2025-04-12T08:37:27Z</time>
      </trkpt>
      <trkpt lat="43.67472" lon="1.36551">
        <ele>141</ele>
        <time>2025-04-12T08:37:28Z</time>
      </trkpt>
      <trkpt lat="43.67474" lon="1.3655">
        <ele>141</ele>
        <time>2025-04-12T08:37:29Z</time>
      </trkpt>
      <trkpt lat="43.67476" lon="1.36549">
        <ele>141</ele>
        <time>2025-04-12T08:37:30Z</time>
      </trkpt>
      <trkpt lat="43.67476" lon="1.36549">
        <ele>141</ele>
        <time>2025-04-12T08:37:31Z</time>
      </trkpt>
      <trkpt lat="43.6748" lon="1.36546">
        <ele>141</ele>
        <time>2025-04-12T08:37:32Z</time>
      </trkpt>
      <trkpt lat="43.67482" lon="1.36545">
        <ele>141</ele>
        <time>2025-04-12T08:37:33Z</time>
      </trkpt>
      <trkpt lat="43.67484" lon="1.36543">
        <ele>141</ele>
        <time>2025-04-12T08:37:34Z</time>
      </trkpt>
      <trkpt lat="43.67486" lon="1.36542">
        <ele>141</ele>
        <time>2025-04-12T08:37:35Z</time>
      </trkpt>
      <trkpt lat="43.67489" lon="1.36541">
        <ele>141</ele>
        <time>2025-04-12T08:37:36Z</time>
      </trkpt>
      <trkpt lat="43.67491" lon="1.3654">
        <ele>141</ele>
        <time>2025-04-12T08:37:37Z</time>
      </trkpt>
      <trkpt lat="43.67494" lon="1.3654">
        <ele>142</ele>
        <time>2025-04-12T08:37:38Z</time>
      </trkpt>
      <trkpt lat="43.67496" lon="1.36539">
        <ele>142</ele>
        <time>2025-04-12T08:37:39Z</time>
      </trkpt>
      <trkpt lat="43.67498" lon="1.36538">
        <ele>142</ele>
        <time>2025-04-12T08:37:40Z</time>
      </trkpt>
      <trkpt lat="43.67498" lon="1.36538">
        <ele>141</ele>
        <time>2025-04-12T08:37:41Z</time>
      </trkpt>
      <trkpt lat="43.67503" lon="1.36536">
        <ele>142</ele>
        <time>2025-04-12T08:37:42Z</time>
      </trkpt>
      <trkpt lat="43.67506" lon="1.36535">
        <ele>142</ele>
        <time>2025-04-12T08:37:43Z</time>
      </trkpt>
      <trkpt lat="43.67506" lon="1.36535">
        <ele>141</ele>
        <time>2025-04-12T08:37:44Z</time>
      </trkpt>
      <trkpt lat="43.6751" lon="1.36533">
        <ele>141</ele>
        <time>2025-04-12T08:37:45Z</time>
      </trkpt>
      <trkpt lat="43.6751" lon="1.36533">
        <ele>141</ele>
        <time>2025-04-12T08:37:46Z</time>
      </trkpt>
      <trkpt lat="43.67515" lon="1.3653">
        <ele>141</ele>
        <time>2025-04-12T08:37:47Z</time>
      </trkpt>
      <trkpt lat="43.67517" lon="1.36529">
        <ele>141</ele>
        <time>2025-04-12T08:37:48Z</time>
      </trkpt>
      <trkpt lat="43.6752" lon="1.36528">
        <ele>141</ele>
        <time>2025-04-12T08:37:49Z</time>
      </trkpt>
      <trkpt lat="43.67521" lon="1.36527">
        <ele>141</ele>
        <time>2025-04-12T08:37:50Z</time>
      </trkpt>
      <trkpt lat="43.67524" lon="1.36526">
        <ele>141</ele>
        <time>2025-04-12T08:37:51Z</time>
      </trkpt>
      <trkpt lat="43.67528" lon="1.36523">
        <ele>141</ele>
        <time>2025-04-12T08:37:53Z</time>
      </trkpt>
      <trkpt lat="43.6753" lon="1.36522">
        <ele>141</ele>
        <time>2025-04-12T08:37:54Z</time>
      </trkpt>
      <trkpt lat="43.6753" lon="1.36522">
        <ele>142</ele>
        <time>2025-04-12T08:37:55Z</time>
      </trkpt>
      <trkpt lat="43.67535" lon="1.36519">
        <ele>142</ele>
        <time>2025-04-12T08:37:56Z</time>
      </trkpt>
      <trkpt lat="43.67537" lon="1.36518">
        <ele>142</ele>
        <time>2025-04-12T08:37:57Z</time>
      </trkpt>
      <trkpt lat="43.6754" lon="1.36517">
        <ele>142</ele>
        <time>2025-04-12T08:37:58Z</time>
      </trkpt>
      <trkpt lat="43.67542" lon="1.36515">
        <ele>142</ele>
        <time>2025-04-12T08:37:59Z</time>
      </trkpt>
      <trkpt lat="43.67542" lon="1.36515">
        <ele>142</ele>
        <time>2025-04-12T08:38:00Z</time>
      </trkpt>
      <trkpt lat="43.67546" lon="1.36513">
        <ele>142</ele>
        <time>2025-04-12T08:38:01Z</time>
      </trkpt>
      <trkpt lat="43.67549" lon="1.36512">
        <ele>142</ele>
        <time>2025-04-12T08:38:02Z</time>
      </trkpt>
      <trkpt lat="43.67551" lon="1.36511">
        <ele>142</ele>
        <time>2025-04-12T08:38:03Z</time>
      </trkpt>
      <trkpt lat="43.67553" lon="1.3651">
        <ele>142</ele>
        <time>2025-04-12T08:38:04Z</time>
      </trkpt>
      <trkpt lat="43.67556" lon="1.36509">
        <ele>142</ele>
        <time>2025-04-12T08:38:05Z</time>
      </trkpt>
      <trkpt lat="43.67559" lon="1.36508">
        <ele>142</ele>
        <time>2025-04-12T08:38:06Z</time>
      </trkpt>
      <trkpt lat="43.67559" lon="1.36508">
        <ele>142</ele>
        <time>2025-04-12T08:38:07Z</time>
      </trkpt>
      <trkpt lat="43.67563" lon="1.36506">
        <ele>142</ele>
        <time>2025-04-12T08:38:08Z</time>
      </trkpt>
      <trkpt lat="43.67566" lon="1.36505">
        <ele>143</ele>
        <time>2025-04-12T08:38:09Z</time>
      </trkpt>
      <trkpt lat="43.67568" lon="1.36504">
        <ele>143</ele>
        <time>2025-04-12T08:38:10Z</time>
      </trkpt>
      <trkpt lat="43.67573" lon="1.36502">
        <ele>142</ele>
        <time>2025-04-12T08:38:12Z</time>
      </trkpt>
      <trkpt lat="43.67575" lon="1.36502">
        <ele>142</ele>
        <time>2025-04-12T08:38:13Z</time>
      </trkpt>
      <trkpt lat="43.67578" lon="1.36501">
        <ele>142</ele>
        <time>2025-04-12T08:38:14Z</time>
      </trkpt>
      <trkpt lat="43.6758" lon="1.36501">
        <ele>142</ele>
        <time>2025-04-12T08:38:15Z</time>
      </trkpt>
      <trkpt lat="43.67583" lon="1.365">
        <ele>142</ele>
        <time>2025-04-12T08:38:16Z</time>
      </trkpt>
      <trkpt lat="43.67585" lon="1.365">
        <ele>143</ele>
        <time>2025-04-12T08:38:17Z</time>
      </trkpt>
      <trkpt lat="43.67588" lon="1.365">
        <ele>143</ele>
        <time>2025-04-12T08:38:18Z</time>
      </trkpt>
      <trkpt lat="43.6759" lon="1.365">
        <ele>143</ele>
        <time>2025-04-12T08:38:19Z</time>
      </trkpt>
      <trkpt lat="43.67593" lon="1.365">
        <ele>143</ele>
        <time>2025-04-12T08:38:20Z</time>
      </trkpt>
      <trkpt lat="43.67593" lon="1.365">
        <ele>143</ele>
        <time>2025-04-12T08:38:21Z</time>
      </trkpt>
      <trkpt lat="43.67598" lon="1.365">
        <ele>143</ele>
        <time>2025-04-12T08:38:22Z</time>
      </trkpt>
      <trkpt lat="43.67601" lon="1.36501">
        <ele>143</ele>
        <time>2025-04-12T08:38:23Z</time>
      </trkpt>
      <trkpt lat="43.67601" lon="1.36501">
        <ele>143</ele>
        <time>2025-04-12T08:38:24Z</time>
      </trkpt>
      <trkpt lat="43.67606" lon="1.36505">
        <ele>143</ele>
        <time>2025-04-12T08:38:25Z</time>
      </trkpt>
      <trkpt lat="43.67606" lon="1.36505">
        <ele>143</ele>
        <time>2025-04-12T08:38:26Z</time>
      </trkpt>
      <trkpt lat="43.67611" lon="1.3651">
        <ele>143</ele>
        <time>2025-04-12T08:38:27Z</time>
      </trkpt>
      <trkpt lat="43.67611" lon="1.3651">
        <ele>143</ele>
        <time>2025-04-12T08:38:28Z</time>
      </trkpt>
      <trkpt lat="43.67616" lon="1.36514">
        <ele>143</ele>
        <time>2025-04-12T08:38:29Z</time>
      </trkpt>
      <trkpt lat="43.67621" lon="1.36516">
        <ele>143</ele>
        <time>2025-04-12T08:38:31Z</time>
      </trkpt>
      <trkpt lat="43.67624" lon="1.36516">
        <ele>143</ele>
        <time>2025-04-12T08:38:32Z</time>
      </trkpt>
      <trkpt lat="43.67626" lon="1.36515">
        <ele>143</ele>
        <time>2025-04-12T08:38:33Z</time>
      </trkpt>
      <trkpt lat="43.67628" lon="1.36513">
        <ele>143</ele>
        <time>2025-04-12T08:38:34Z</time>
      </trkpt>
      <trkpt lat="43.6763" lon="1.3651">
        <ele>143</ele>
        <time>2025-04-12T08:38:35Z</time>
      </trkpt>
      <trkpt lat="43.67633" lon="1.36508">
        <ele>142</ele>
        <time>2025-04-12T08:38:36Z</time>
      </trkpt>
      <trkpt lat="43.67635" lon="1.36506">
        <ele>142</ele>
        <time>2025-04-12T08:38:37Z</time>
      </trkpt>
      <trkpt lat="43.67635" lon="1.36506">
        <ele>142</ele>
        <time>2025-04-12T08:38:38Z</time>
      </trkpt>
      <trkpt lat="43.67638" lon="1.36501">
        <ele>142</ele>
        <time>2025-04-12T08:38:39Z</time>
      </trkpt>
      <trkpt lat="43.67638" lon="1.36501">
        <ele>142</ele>
        <time>2025-04-12T08:38:40Z</time>
      </trkpt>
      <trkpt lat="43.67642" lon="1.36496">
        <ele>142</ele>
        <time>2025-04-12T08:38:41Z</time>
      </trkpt>
      <trkpt lat="43.67643" lon="1.36493">
        <ele>142</ele>
        <time>2025-04-12T08:38:42Z</time>
      </trkpt>
      <trkpt lat="43.67645" lon="1.3649">
        <ele>142</ele>
        <time>2025-04-12T08:38:43Z</time>
      </trkpt>
      <trkpt lat="43.67646" lon="1.36487">
        <ele>142</ele>
        <time>2025-04-12T08:38:44Z</time>
      </trkpt>
      <trkpt lat="43.67647" lon="1.36484">
        <ele>142</ele>
        <time>2025-04-12T08:38:45Z</time>
      </trkpt>
      <trkpt lat="43.67649" lon="1.36481">
        <ele>143</ele>
        <time>2025-04-12T08:38:46Z</time>
      </trkpt>
      <trkpt lat="43.67649" lon="1.36481">
        <ele>143</ele>
        <time>2025-04-12T08:38:47Z</time>
      </trkpt>
      <trkpt lat="43.67652" lon="1.36476">
        <ele>143</ele>
        <time>2025-04-12T08:38:48Z</time>
      </trkpt>
      <trkpt lat="43.67652" lon="1.36476">
        <ele>142</ele>
        <time>2025-04-12T08:38:49Z</time>
      </trkpt>
      <trkpt lat="43.67657" lon="1.36472">
        <ele>142</ele>
        <time>2025-04-12T08:38:50Z</time>
      </trkpt>
      <trkpt lat="43.67657" lon="1.36472">
        <ele>142</ele>
        <time>2025-04-12T08:38:51Z</time>
      </trkpt>
      <trkpt lat="43.67661" lon="1.36468">
        <ele>142</ele>
        <time>2025-04-12T08:38:52Z</time>
      </trkpt>
      <trkpt lat="43.67663" lon="1.36466">
        <ele>142</ele>
        <time>2025-04-12T08:38:53Z</time>
      </trkpt>
      <trkpt lat="43.67666" lon="1.36463">
        <ele>142</ele>
        <time>2025-04-12T08:38:54Z</time>
      </trkpt>
      <trkpt lat="43.67668" lon="1.36461">
        <ele>142</ele>
        <time>2025-04-12T08:38:55Z</time>
      </trkpt>
      <trkpt lat="43.6767" lon="1.36459">
        <ele>142</ele>
        <time>2025-04-12T08:38:56Z</time>
      </trkpt>
      <trkpt lat="43.67672" lon="1.36458">
        <ele>142</ele>
        <time>2025-04-12T08:38:57Z</time>
      </trkpt>
      <trkpt lat="43.67672" lon="1.36458">
        <ele>142</ele>
        <time>2025-04-12T08:38:58Z</time>
      </trkpt>
      <trkpt lat="43.67677" lon="1.36455">
        <ele>142</ele>
        <time>2025-04-12T08:38:59Z</time>
      </trkpt>
      <trkpt lat="43.67679" lon="1.36453">
        <ele>142</ele>
        <time>2025-04-12T08:39:00Z</time>
      </trkpt>
      <trkpt lat="43.67682" lon="1.36452">
        <ele>142</ele>
        <time>2025-04-12T08:39:01Z</time>
      </trkpt>
      <trkpt lat="43.67685" lon="1.36451">
        <ele>142</ele>
        <time>2025-04-12T08:39:02Z</time>
      </trkpt>
      <trkpt lat="43.67687" lon="1.3645">
        <ele>142</ele>
        <time>2025-04-12T08:39:03Z</time>
      </trkpt>
      <trkpt lat="43.6769" lon="1.36448">
        <ele>142</ele>
        <time>2025-04-12T08:39:04Z</time>
      </trkpt>
      <trkpt lat="43.6769" lon="1.36448">
        <ele>142</ele>
        <time>2025-04-12T08:39:05Z</time>
      </trkpt>
      <trkpt lat="43.67694" lon="1.36446">
        <ele>142</ele>
        <time>2025-04-12T08:39:06Z</time>
      </trkpt>
      <trkpt lat="43.67697" lon="1.36444">
        <ele>142</ele>
        <time>2025-04-12T08:39:07Z</time>
      </trkpt>
      <trkpt lat="43.67699" lon="1.36443">
        <ele>142</ele>
        <time>2025-04-12T08:39:08Z</time>
      </trkpt>
      <trkpt lat="43.67701" lon="1.36442">
        <ele>142</ele>
        <time>2025-04-12T08:39:09Z</time>
      </trkpt>
      <trkpt lat="43.67704" lon="1.36441">
        <ele>142</ele>
        <time>2025-04-12T08:39:10Z</time>
      </trkpt>
      <trkpt lat="43.67706" lon="1.36439">
        <ele>142</ele>
        <time>2025-04-12T08:39:11Z</time>
      </trkpt>
      <trkpt lat="43.67709" lon="1.36438">
        <ele>142</ele>
        <time>2025-04-12T08:39:12Z</time>
      </trkpt>
      <trkpt lat="43.67709" lon="1.36438">
        <ele>142</ele>
        <time>2025-04-12T08:39:13Z</time>
      </trkpt>
      <trkpt lat="43.67713" lon="1.36435">
        <ele>142</ele>
        <time>2025-04-12T08:39:14Z</time>
      </trkpt>
      <trkpt lat="43.67716" lon="1.36434">
        <ele>142</ele>
        <time>2025-04-12T08:39:15Z</time>
      </trkpt>
      <trkpt lat="43.67718" lon="1.36433">
        <ele>142</ele>
        <time>2025-04-12T08:39:16Z</time>
      </trkpt>
      <trkpt lat="43.67721" lon="1.36432">
        <ele>143</ele>
        <time>2025-04-12T08:39:17Z</time>
      </trkpt>
      <trkpt lat="43.67723" lon="1.3643">
        <ele>143</ele>
        <time>2025-04-12T08:39:18Z</time>
      </trkpt>
      <trkpt lat="43.67726" lon="1.36429">
        <ele>143</ele>
        <time>2025-04-12T08:39:19Z</time>
      </trkpt>
      <trkpt lat="43.67728" lon="1.36428">
        <ele>143</ele>
        <time>2025-04-12T08:39:20Z</time>
      </trkpt>
      <trkpt lat="43.67731" lon="1.36427">
        <ele>143</ele>
        <time>2025-04-12T08:39:21Z</time>
      </trkpt>
      <trkpt lat="43.67734" lon="1.36426">
        <ele>143</ele>
        <time>2025-04-12T08:39:22Z</time>
      </trkpt>
      <trkpt lat="43.67736" lon="1.36425">
        <ele>143</ele>
        <time>2025-04-12T08:39:23Z</time>
      </trkpt>
      <trkpt lat="43.67739" lon="1.36424">
        <ele>143</ele>
        <time>2025-04-12T08:39:24Z</time>
      </trkpt>
      <trkpt lat="43.67739" lon="1.36424">
        <ele>143</ele>
        <time>2025-04-12T08:39:25Z</time>
      </trkpt>
      <trkpt lat="43.67744" lon="1.36421">
        <ele>143</ele>
        <time>2025-04-12T08:39:26Z</time>
      </trkpt>
      <trkpt lat="43.67747" lon="1.3642">
        <ele>143</ele>
        <time>2025-04-12T08:39:27Z</time>
      </trkpt>
      <trkpt lat="43.67749" lon="1.36418">
        <ele>143</ele>
        <time>2025-04-12T08:39:28Z</time>
      </trkpt>
      <trkpt lat="43.67752" lon="1.36417">
        <ele>143</ele>
        <time>2025-04-12T08:39:29Z</time>
      </trkpt>
      <trkpt lat="43.67755" lon="1.36415">
        <ele>143</ele>
        <time>2025-04-12T08:39:30Z</time>
      </trkpt>
      <trkpt lat="43.67757" lon="1.36414">
        <ele>143</ele>
        <time>2025-04-12T08:39:31Z</time>
      </trkpt>
      <trkpt lat="43.6776" lon="1.36413">
        <ele>143</ele>
        <time>2025-04-12T08:39:32Z</time>
      </trkpt>
      <trkpt lat="43.67763" lon="1.36412">
        <ele>143</ele>
        <time>2025-04-12T08:39:33Z</time>
      </trkpt>
      <trkpt lat="43.67765" lon="1.3641">
        <ele>143</ele>
        <time>2025-04-12T08:39:34Z</time>
      </trkpt>
      <trkpt lat="43.67768" lon="1.36409">
        <ele>143</ele>
        <time>2025-04-12T08:39:35Z</time>
      </trkpt>
      <trkpt lat="43.6777" lon="1.36408">
        <ele>143</ele>
        <time>2025-04-12T08:39:36Z</time>
      </trkpt>
      <trkpt lat="43.6777" lon="1.36408">
        <ele>143</ele>
        <time>2025-04-12T08:39:37Z</time>
      </trkpt>
      <trkpt lat="43.67775" lon="1.36406">
        <ele>143</ele>
        <time>2025-04-12T08:39:38Z</time>
      </trkpt>
      <trkpt lat="43.67778" lon="1.36404">
        <ele>143</ele>
        <time>2025-04-12T08:39:39Z</time>
      </trkpt>
      <trkpt lat="43.67781" lon="1.36403">
        <ele>143</ele>
        <time>2025-04-12T08:39:40Z</time>
      </trkpt>
      <trkpt lat="43.67783" lon="1.36402">
        <ele>143</ele>
        <time>2025-04-12T08:39:41Z</time>
      </trkpt>
      <trkpt lat="43.67783" lon="1.36402">
        <ele>143</ele>
        <time>2025-04-12T08:39:42Z</time>
      </trkpt>
      <trkpt lat="43.67789" lon="1.36399">
        <ele>143</ele>
        <time>2025-04-12T08:39:43Z</time>
      </trkpt>
      <trkpt lat="43.67789" lon="1.36399">
        <ele>143</ele>
        <time>2025-04-12T08:39:44Z</time>
      </trkpt>
      <trkpt lat="43.67793" lon="1.36397">
        <ele>143</ele>
        <time>2025-04-12T08:39:45Z</time>
      </trkpt>
      <trkpt lat="43.67793" lon="1.36397">
        <ele>143</ele>
        <time>2025-04-12T08:39:46Z</time>
      </trkpt>
      <trkpt lat="43.67798" lon="1.36395">
        <ele>143</ele>
        <time>2025-04-12T08:39:47Z</time>
      </trkpt>
      <trkpt lat="43.67801" lon="1.36393">
        <ele>143</ele>
        <time>2025-04-12T08:39:48Z</time>
      </trkpt>
      <trkpt lat="43.67803" lon="1.36392">
        <ele>143</ele>
        <time>2025-04-12T08:39:49Z</time>
      </trkpt>
      <trkpt lat="43.67808" lon="1.36389">
        <ele>143</ele>
        <time>2025-04-12T08:39:51Z</time>
      </trkpt>
      <trkpt lat="43.6781" lon="1.36387">
        <ele>143</ele>
        <time>2025-04-12T08:39:52Z</time>
      </trkpt>
      <trkpt lat="43.67813" lon="1.36385">
        <ele>143</ele>
        <time>2025-04-12T08:39:53Z</time>
      </trkpt>
      <trkpt lat="43.67815" lon="1.36383">
        <ele>142</ele>
        <time>2025-04-12T08:39:54Z</time>
      </trkpt>
      <trkpt lat="43.67817" lon="1.36382">
        <ele>142</ele>
        <time>2025-04-12T08:39:55Z</time>
      </trkpt>
      <trkpt lat="43.6782" lon="1.3638">
        <ele>143</ele>
        <time>2025-04-12T08:39:56Z</time>
      </trkpt>
      <trkpt lat="43.67822" lon="1.36379">
        <ele>143</ele>
        <time>2025-04-12T08:39:57Z</time>
      </trkpt>
      <trkpt lat="43.67822" lon="1.36379">
        <ele>143</ele>
        <time>2025-04-12T08:39:58Z</time>
      </trkpt>
      <trkpt lat="43.67828" lon="1.36377">
        <ele>143</ele>
        <time>2025-04-12T08:39:59Z</time>
      </trkpt>
      <trkpt lat="43.6783" lon="1.36375">
        <ele>143</ele>
        <time>2025-04-12T08:40:00Z</time>
      </trkpt>
      <trkpt lat="43.67833" lon="1.36375">
        <ele>143</ele>
        <time>2025-04-12T08:40:01Z</time>
      </trkpt>
      <trkpt lat="43.67835" lon="1.36374">
        <ele>143</ele>
        <time>2025-04-12T08:40:02Z</time>
      </trkpt>
      <trkpt lat="43.67835" lon="1.36374">
        <ele>143</ele>
        <time>2025-04-12T08:40:03Z</time>
      </trkpt>
      <trkpt lat="43.6784" lon="1.36371">
        <ele>143</ele>
        <time>2025-04-12T08:40:04Z</time>
      </trkpt>
      <trkpt lat="43.67843" lon="1.3637">
        <ele>143</ele>
        <time>2025-04-12T08:40:05Z</time>
      </trkpt>
      <trkpt lat="43.67845" lon="1.36369">
        <ele>143</ele>
        <time>2025-04-12T08:40:06Z</time>
      </trkpt>
      <trkpt lat="43.67848" lon="1.36368">
        <ele>144</ele>
        <time>2025-04-12T08:40:07Z</time>
      </trkpt>
      <trkpt lat="43.6785" lon="1.36367">
        <ele>144</ele>
        <time>2025-04-12T08:40:08Z</time>
      </trkpt>
      <trkpt lat="43.6785" lon="1.36367">
        <ele>144</ele>
        <time>2025-04-12T08:40:09Z</time>
      </trkpt>
      <trkpt lat="43.67855" lon="1.36366">
        <ele>144</ele>
        <time>2025-04-12T08:40:10Z</time>
      </trkpt>
      <trkpt lat="43.67858" lon="1.36365">
        <ele>144</ele>
        <time>2025-04-12T08:40:11Z</time>
      </trkpt>
      <trkpt lat="43.67858" lon="1.36365">
        <ele>144</ele>
        <time>2025-04-12T08:40:12Z</time>
      </trkpt>
      <trkpt lat="43.67863" lon="1.36364">
        <ele>144</ele>
        <time>2025-04-12T08:40:13Z</time>
      </trkpt>
      <trkpt lat="43.67866" lon="1.36363">
        <ele>144</ele>
        <time>2025-04-12T08:40:14Z</time>
      </trkpt>
      <trkpt lat="43.67868" lon="1.36362">
        <ele>144</ele>
        <time>2025-04-12T08:40:15Z</time>
      </trkpt>
      <trkpt lat="43.67871" lon="1.36361">
        <ele>143</ele>
        <time>2025-04-12T08:40:16Z</time>
      </trkpt>
      <trkpt lat="43.67873" lon="1.3636">
        <ele>143</ele>
        <time>2025-04-12T08:40:17Z</time>
      </trkpt>
      <trkpt lat="43.67876" lon="1.36359">
        <ele>143</ele>
        <time>2025-04-12T08:40:18Z</time>
      </trkpt>
      <trkpt lat="43.67876" lon="1.36359">
        <ele>144</ele>
        <time>2025-04-12T08:40:19Z</time>
      </trkpt>
      <trkpt lat="43.67881" lon="1.36357">
        <ele>144</ele>
        <time>2025-04-12T08:40:20Z</time>
      </trkpt>
      <trkpt lat="43.67883" lon="1.36356">
        <ele>144</ele>
        <time>2025-04-12T08:40:21Z</time>
      </trkpt>
      <trkpt lat="43.67886" lon="1.36355">
        <ele>144</ele>
        <time>2025-04-12T08:40:22Z</time>
      </trkpt>
      <trkpt lat="43.67888" lon="1.36353">
        <ele>144</ele>
        <time>2025-04-12T08:40:23Z</time>
      </trkpt>
      <trkpt lat="43.67888" lon="1.36353">
        <ele>144</ele>
        <time>2025-04-12T08:40:24Z</time>
      </trkpt>
      <trkpt lat="43.67893" lon="1.36352">
        <ele>144</ele>
        <time>2025-04-12T08:40:25Z</time>
      </trkpt>
      <trkpt lat="43.67893" lon="1.36352">
        <ele>144</ele>
        <time>2025-04-12T08:40:26Z</time>
      </trkpt>
      <trkpt lat="43.67898" lon="1.3635">
        <ele>143</ele>
        <time>2025-04-12T08:40:27Z</time>
      </trkpt>
      <trkpt lat="43.679" lon="1.36349">
        <ele>143</ele>
        <time>2025-04-12T08:40:28Z</time>
      </trkpt>
      <trkpt lat="43.679" lon="1.36349">
        <ele>143</ele>
        <time>2025-04-12T08:40:29Z</time>
      </trkpt>
      <trkpt lat="43.67905" lon="1.36347">
        <ele>143</ele>
        <time>2025-04-12T08:40:30Z</time>
      </trkpt>
      <trkpt lat="43.67905" lon="1.36347">
        <ele>143</ele>
        <time>2025-04-12T08:40:31Z</time>
      </trkpt>
      <trkpt lat="43.6791" lon="1.36345">
        <ele>143</ele>
        <time>2025-04-12T08:40:32Z</time>
      </trkpt>
      <trkpt lat="43.67912" lon="1.36344">
        <ele>143</ele>
        <time>2025-04-12T08:40:33Z</time>
      </trkpt>
      <trkpt lat="43.67915" lon="1.36343">
        <ele>143</ele>
        <time>2025-04-12T08:40:34Z</time>
      </trkpt>
      <trkpt lat="43.67917" lon="1.36342">
        <ele>143</ele>
        <time>2025-04-12T08:40:35Z</time>
      </trkpt>
      <trkpt lat="43.67917" lon="1.36342">
        <ele>143</ele>
        <time>2025-04-12T08:40:36Z</time>
      </trkpt>
      <trkpt lat="43.67922" lon="1.3634">
        <ele>143</ele>
        <time>2025-04-12T08:40:37Z</time>
      </trkpt>
      <trkpt lat="43.67925" lon="1.36339">
        <ele>143</ele>
        <time>2025-04-12T08:40:38Z</time>
      </trkpt>
      <trkpt lat="43.67928" lon="1.36339">
        <ele>143</ele>
        <time>2025-04-12T08:40:39Z</time>
      </trkpt>
      <trkpt lat="43.67931" lon="1.36338">
        <ele>143</ele>
        <time>2025-04-12T08:40:40Z</time>
      </trkpt>
      <trkpt lat="43.67933" lon="1.36336">
        <ele>143</ele>
        <time>2025-04-12T08:40:41Z</time>
      </trkpt>
      <trkpt lat="43.67936" lon="1.36336">
        <ele>143</ele>
        <time>2025-04-12T08:40:42Z</time>
      </trkpt>
      <trkpt lat="43.67936" lon="1.36336">
        <ele>143</ele>
        <time>2025-04-12T08:40:43Z</time>
      </trkpt>
      <trkpt lat="43.67941" lon="1.36334">
        <ele>143</ele>
        <time>2025-04-12T08:40:44Z</time>
      </trkpt>
      <trkpt lat="43.67941" lon="1.36334">
        <ele>143</ele>
        <time>2025-04-12T08:40:45Z</time>
      </trkpt>
      <trkpt lat="43.67946" lon="1.36333">
        <ele>143</ele>
        <time>2025-04-12T08:40:46Z</time>
      </trkpt>
      <trkpt lat="43.67948" lon="1.36331">
        <ele>143</ele>
        <time>2025-04-12T08:40:47Z</time>
      </trkpt>
      <trkpt lat="43.67948" lon="1.36331">
        <ele>144</ele>
        <time>2025-04-12T08:40:48Z</time>
      </trkpt>
      <trkpt lat="43.67953" lon="1.36328">
        <ele>144</ele>
        <time>2025-04-12T08:40:49Z</time>
      </trkpt>
      <trkpt lat="43.67955" lon="1.36327">
        <ele>144</ele>
        <time>2025-04-12T08:40:50Z</time>
      </trkpt>
      <trkpt lat="43.67955" lon="1.36327">
        <ele>144</ele>
        <time>2025-04-12T08:40:51Z</time>
      </trkpt>
      <trkpt lat="43.6796" lon="1.36324">
        <ele>143</ele>
        <time>2025-04-12T08:40:52Z</time>
      </trkpt>
      <trkpt lat="43.67962" lon="1.36323">
        <ele>143</ele>
        <time>2025-04-12T08:40:53Z</time>
      </trkpt>
      <trkpt lat="43.67965" lon="1.36322">
        <ele>144</ele>
        <time>2025-04-12T08:40:54Z</time>
      </trkpt>
      <trkpt lat="43.67967" lon="1.3632">
        <ele>144</ele>
        <time>2025-04-12T08:40:55Z</time>
      </trkpt>
      <trkpt lat="43.6797" lon="1.36319">
        <ele>143</ele>
        <time>2025-04-12T08:40:56Z</time>
      </trkpt>
      <trkpt lat="43.67972" lon="1.36318">
        <ele>143</ele>
        <time>2025-04-12T08:40:57Z</time>
      </trkpt>
      <trkpt lat="43.67975" lon="1.36317">
        <ele>144</ele>
        <time>2025-04-12T08:40:58Z</time>
      </trkpt>
      <trkpt lat="43.67978" lon="1.36316">
        <ele>144</ele>
        <time>2025-04-12T08:40:59Z</time>
      </trkpt>
      <trkpt lat="43.67978" lon="1.36316">
        <ele>144</ele>
        <time>2025-04-12T08:41:00Z</time>
      </trkpt>
      <trkpt lat="43.67983" lon="1.36314">
        <ele>144</ele>
        <time>2025-04-12T08:41:01Z</time>
      </trkpt>
      <trkpt lat="43.67985" lon="1.36313">
        <ele>144</ele>
        <time>2025-04-12T08:41:02Z</time>
      </trkpt>
      <trkpt lat="43.67988" lon="1.36313">
        <ele>143</ele>
        <time>2025-04-12T08:41:03Z</time>
      </trkpt>
      <trkpt lat="43.6799" lon="1.36312">
        <ele>143</ele>
        <time>2025-04-12T08:41:04Z</time>
      </trkpt>
      <trkpt lat="43.67993" lon="1.3631">
        <ele>143</ele>
        <time>2025-04-12T08:41:05Z</time>
      </trkpt>
      <trkpt lat="43.67995" lon="1.3631">
        <ele>143</ele>
        <time>2025-04-12T08:41:07Z</time>
      </trkpt>
      <trkpt lat="43.68" lon="1.36308">
        <ele>143</ele>
        <time>2025-04-12T08:41:08Z</time>
      </trkpt>
      <trkpt lat="43.68003" lon="1.36306">
        <ele>143</ele>
        <time>2025-04-12T08:41:09Z</time>
      </trkpt>
      <trkpt lat="43.68005" lon="1.36306">
        <ele>143</ele>
        <time>2025-04-12T08:41:10Z</time>
      </trkpt>
      <trkpt lat="43.68008" lon="1.36305">
        <ele>143</ele>
        <time>2025-04-12T08:41:11Z</time>
      </trkpt>
      <trkpt lat="43.6801" lon="1.36305">
        <ele>144</ele>
        <time>2025-04-12T08:41:12Z</time>
      </trkpt>
      <trkpt lat="43.68013" lon="1.36304">
        <ele>144</ele>
        <time>2025-04-12T08:41:13Z</time>
      </trkpt>
      <trkpt lat="43.68013" lon="1.36304">
        <ele>144</ele>
        <time>2025-04-12T08:41:14Z</time>
      </trkpt>
      <trkpt lat="43.68018" lon="1.36302">
        <ele>144</ele>
        <time>2025-04-12T08:41:15Z</time>
      </trkpt>
      <trkpt lat="43.68021" lon="1.36301">
        <ele>144</ele>
        <time>2025-04-12T08:41:16Z</time>
      </trkpt>
      <trkpt lat="43.68023" lon="1.363">
        <ele>144</ele>
        <time>2025-04-12T08:41:17Z</time>
      </trkpt>
      <trkpt lat="43.68026" lon="1.36299">
        <ele>144</ele>
        <time>2025-04-12T08:41:18Z</time>
      </trkpt>
      <trkpt lat="43.68028" lon="1.36298">
        <ele>144</ele>
        <time>2025-04-12T08:41:19Z</time>
      </trkpt>
      <trkpt lat="43.68031" lon="1.36298">
        <ele>144</ele>
        <time>2025-04-12T08:41:20Z</time>
      </trkpt>
      <trkpt lat="43.68033" lon="1.36296">
        <ele>144</ele>
        <time>2025-04-12T08:41:21Z</time>
      </trkpt>
      <trkpt lat="43.68036" lon="1.36295">
        <ele>144</ele>
        <time>2025-04-12T08:41:22Z</time>
      </trkpt>
      <trkpt lat="43.68038" lon="1.36293">
        <ele>144</ele>
        <time>2025-04-12T08:41:23Z</time>
      </trkpt>
      <trkpt lat="43.6804" lon="1.36291">
        <ele>144</ele>
        <time>2025-04-12T08:41:24Z</time>
      </trkpt>
      <trkpt lat="43.68043" lon="1.3629">
        <ele>144</ele>
        <time>2025-04-12T08:41:25Z</time>
      </trkpt>
      <trkpt lat="43.68045" lon="1.36289">
        <ele>144</ele>
        <time>2025-04-12T08:41:26Z</time>
      </trkpt>
      <trkpt lat="43.68048" lon="1.36288">
        <ele>144</ele>
        <time>2025-04-12T08:41:27Z</time>
      </trkpt>
      <trkpt lat="43.6805" lon="1.36287">
        <ele>144</ele>
        <time>2025-04-12T08:41:28Z</time>
      </trkpt>
      <trkpt lat="43.68053" lon="1.36286">
        <ele>144</ele>
        <time>2025-04-12T08:41:29Z</time>
      </trkpt>
      <trkpt lat="43.68055" lon="1.36286">
        <ele>144</ele>
        <time>2025-04-12T08:41:30Z</time>
      </trkpt>
      <trkpt lat="43.68055" lon="1.36286">
        <ele>144</ele>
        <time>2025-04-12T08:41:31Z</time>
      </trkpt>
      <trkpt lat="43.68061" lon="1.36287">
        <ele>144</ele>
        <time>2025-04-12T08:41:32Z</time>
      </trkpt>
      <trkpt lat="43.68063" lon="1.36289">
        <ele>144</ele>
        <time>2025-04-12T08:41:33Z</time>
      </trkpt>
      <trkpt lat="43.68066" lon="1.36291">
        <ele>144</ele>
        <time>2025-04-12T08:41:34Z</time>
      </trkpt>
      <trkpt lat="43.68068" lon="1.36293">
        <ele>144</ele>
        <time>2025-04-12T08:41:35Z</time>
      </trkpt>
      <trkpt lat="43.68071" lon="1.36296">
        <ele>144</ele>
        <time>2025-04-12T08:41:36Z</time>
      </trkpt>
      <trkpt lat="43.68073" lon="1.36299">
        <ele>144</ele>
        <time>2025-04-12T08:41:37Z</time>
      </trkpt>
      <trkpt lat="43.68074" lon="1.36303">
        <ele>144</ele>
        <time>2025-04-12T08:41:38Z</time>
      </trkpt>
      <trkpt lat="43.68075" lon="1.36307">
        <ele>144</ele>
        <time>2025-04-12T08:41:39Z</time>
      </trkpt>
      <trkpt lat="43.68076" lon="1.36311">
        <ele>144</ele>
        <time>2025-04-12T08:41:40Z</time>
      </trkpt>
      <trkpt lat="43.68077" lon="1.36315">
        <ele>144</ele>
        <time>2025-04-12T08:41:41Z</time>
      </trkpt>
      <trkpt lat="43.68078" lon="1.36319">
        <ele>144</ele>
        <time>2025-04-12T08:41:42Z</time>
      </trkpt>
      <trkpt lat="43.68078" lon="1.36319">
        <ele>143</ele>
        <time>2025-04-12T08:41:43Z</time>
      </trkpt>
      <trkpt lat="43.6808" lon="1.36326">
        <ele>143</ele>
        <time>2025-04-12T08:41:44Z</time>
      </trkpt>
      <trkpt lat="43.6808" lon="1.3633">
        <ele>143</ele>
        <time>2025-04-12T08:41:45Z</time>
      </trkpt>
      <trkpt lat="43.6808" lon="1.3633">
        <ele>143</ele>
        <time>2025-04-12T08:41:46Z</time>
      </trkpt>
      <trkpt lat="43.68082" lon="1.36336">
        <ele>143</ele>
        <time>2025-04-12T08:41:47Z</time>
      </trkpt>
      <trkpt lat="43.68083" lon="1.3634">
        <ele>143</ele>
        <time>2025-04-12T08:41:48Z</time>
      </trkpt>
      <trkpt lat="43.68084" lon="1.36344">
        <ele>143</ele>
        <time>2025-04-12T08:41:49Z</time>
      </trkpt>
      <trkpt lat="43.68085" lon="1.36347">
        <ele>143</ele>
        <time>2025-04-12T08:41:50Z</time>
      </trkpt>
      <trkpt lat="43.68086" lon="1.3635">
        <ele>143</ele>
        <time>2025-04-12T08:41:51Z</time>
      </trkpt>
      <trkpt lat="43.68088" lon="1.36352">
        <ele>143</ele>
        <time>2025-04-12T08:41:52Z</time>
      </trkpt>
      <trkpt lat="43.68088" lon="1.36352">
        <ele>143</ele>
        <time>2025-04-12T08:41:53Z</time>
      </trkpt>
      <trkpt lat="43.68092" lon="1.36355">
        <ele>143</ele>
        <time>2025-04-12T08:41:54Z</time>
      </trkpt>
      <trkpt lat="43.68092" lon="1.36355">
        <ele>143</ele>
        <time>2025-04-12T08:41:55Z</time>
      </trkpt>
      <trkpt lat="43.68095" lon="1.3636">
        <ele>143</ele>
        <time>2025-04-12T08:41:56Z</time>
      </trkpt>
      <trkpt lat="43.68096" lon="1.36363">
        <ele>143</ele>
        <time>2025-04-12T08:41:57Z</time>
      </trkpt>
      <trkpt lat="43.68097" lon="1.36366">
        <ele>143</ele>
        <time>2025-04-12T08:41:58Z</time>
      </trkpt>
      <trkpt lat="43.68098" lon="1.36373">
        <ele>142</ele>
        <time>2025-04-12T08:42:00Z</time>
      </trkpt>
      <trkpt lat="43.68099" lon="1.36376">
        <ele>142</ele>
        <time>2025-04-12T08:42:01Z</time>
      </trkpt>
      <trkpt lat="43.68099" lon="1.36376">
        <ele>142</ele>
        <time>2025-04-12T08:42:02Z</time>
      </trkpt>
      <trkpt lat="43.681" lon="1.36379">
        <ele>142</ele>
        <time>2025-04-12T08:42:03Z</time>
      </trkpt>
      <trkpt lat="43.68101" lon="1.36386">
        <ele>142</ele>
        <time>2025-04-12T08:42:04Z</time>
      </trkpt>
      <trkpt lat="43.68102" lon="1.3639">
        <ele>142</ele>
        <time>2025-04-12T08:42:05Z</time>
      </trkpt>
      <trkpt lat="43.68102" lon="1.3639">
        <ele>142</ele>
        <time>2025-04-12T08:42:06Z</time>
      </trkpt>
      <trkpt lat="43.68102" lon="1.36396">
        <ele>143</ele>
        <time>2025-04-12T08:42:07Z</time>
      </trkpt>
      <trkpt lat="43.68102" lon="1.36399">
        <ele>143</ele>
        <time>2025-04-12T08:42:08Z</time>
      </trkpt>
      <trkpt lat="43.68103" lon="1.36402">
        <ele>143</ele>
        <time>2025-04-12T08:42:09Z</time>
      </trkpt>
      <trkpt lat="43.68104" lon="1.36406">
        <ele>143</ele>
        <time>2025-04-12T08:42:10Z</time>
      </trkpt>
      <trkpt lat="43.68104" lon="1.36406">
        <ele>142</ele>
        <time>2025-04-12T08:42:11Z</time>
      </trkpt>
      <trkpt lat="43.68105" lon="1.36412">
        <ele>142</ele>
        <time>2025-04-12T08:42:12Z</time>
      </trkpt>
      <trkpt lat="43.68105" lon="1.36412">
        <ele>142</ele>
        <time>2025-04-12T08:42:13Z</time>
      </trkpt>
      <trkpt lat="43.68107" lon="1.36418">
        <ele>142</ele>
        <time>2025-04-12T08:42:14Z</time>
      </trkpt>
      <trkpt lat="43.68107" lon="1.36422">
        <ele>142</ele>
        <time>2025-04-12T08:42:15Z</time>
      </trkpt>
      <trkpt lat="43.68108" lon="1.36425">
        <ele>142</ele>
        <time>2025-04-12T08:42:16Z</time>
      </trkpt>
      <trkpt lat="43.68109" lon="1.36429">
        <ele>142</ele>
        <time>2025-04-12T08:42:17Z</time>
      </trkpt>
      <trkpt lat="43.68109" lon="1.36429">
        <ele>142</ele>
        <time>2025-04-12T08:42:18Z</time>
      </trkpt>
      <trkpt lat="43.68111" lon="1.36434">
        <ele>142</ele>
        <time>2025-04-12T08:42:19Z</time>
      </trkpt>
      <trkpt lat="43.68111" lon="1.36437">
        <ele>142</ele>
        <time>2025-04-12T08:42:20Z</time>
      </trkpt>
      <trkpt lat="43.68112" lon="1.3644">
        <ele>142</ele>
        <time>2025-04-12T08:42:21Z</time>
      </trkpt>
      <trkpt lat="43.68112" lon="1.3644">
        <ele>142</ele>
        <time>2025-04-12T08:42:22Z</time>
      </trkpt>
      <trkpt lat="43.68113" lon="1.36446">
        <ele>141</ele>
        <time>2025-04-12T08:42:23Z</time>
      </trkpt>
      <trkpt lat="43.68114" lon="1.3645">
        <ele>141</ele>
        <time>2025-04-12T08:42:25Z</time>
      </trkpt>
      <trkpt lat="43.68116" lon="1.36457">
        <ele>141</ele>
        <time>2025-04-12T08:42:26Z</time>
      </trkpt>
      <trkpt lat="43.68117" lon="1.36461">
        <ele>141</ele>
        <time>2025-04-12T08:42:27Z</time>
      </trkpt>
      <trkpt lat="43.68118" lon="1.36464">
        <ele>141</ele>
        <time>2025-04-12T08:42:28Z</time>
      </trkpt>
      <trkpt lat="43.68118" lon="1.36468">
        <ele>141</ele>
        <time>2025-04-12T08:42:29Z</time>
      </trkpt>
      <trkpt lat="43.68118" lon="1.36471">
        <ele>141</ele>
        <time>2025-04-12T08:42:30Z</time>
      </trkpt>
      <trkpt lat="43.68119" lon="1.36474">
        <ele>141</ele>
        <time>2025-04-12T08:42:31Z</time>
      </trkpt>
      <trkpt lat="43.68119" lon="1.36477">
        <ele>141</ele>
        <time>2025-04-12T08:42:32Z</time>
      </trkpt>
      <trkpt lat="43.6812" lon="1.36481">
        <ele>141</ele>
        <time>2025-04-12T08:42:33Z</time>
      </trkpt>
      <trkpt lat="43.6812" lon="1.36481">
        <ele>141</ele>
        <time>2025-04-12T08:42:34Z</time>
      </trkpt>
      <trkpt lat="43.68122" lon="1.36487">
        <ele>141</ele>
        <time>2025-04-12T08:42:35Z</time>
      </trkpt>
      <trkpt lat="43.68123" lon="1.36491">
        <ele>141</ele>
        <time>2025-04-12T08:42:36Z</time>
      </trkpt>
      <trkpt lat="43.68123" lon="1.36491">
        <ele>141</ele>
        <time>2025-04-12T08:42:37Z</time>
      </trkpt>
      <trkpt lat="43.68124" lon="1.36497">
        <ele>141</ele>
        <time>2025-04-12T08:42:38Z</time>
      </trkpt>
      <trkpt lat="43.68124" lon="1.36497">
        <ele>141</ele>
        <time>2025-04-12T08:42:39Z</time>
      </trkpt>
      <trkpt lat="43.68125" lon="1.36504">
        <ele>141</ele>
        <time>2025-04-12T08:42:40Z</time>
      </trkpt>
      <trkpt lat="43.68126" lon="1.36507">
        <ele>141</ele>
        <time>2025-04-12T08:42:41Z</time>
      </trkpt>
      <trkpt lat="43.68126" lon="1.3651">
        <ele>141</ele>
        <time>2025-04-12T08:42:42Z</time>
      </trkpt>
      <trkpt lat="43.68127" lon="1.36514">
        <ele>141</ele>
        <time>2025-04-12T08:42:44Z</time>
      </trkpt>
      <trkpt lat="43.68128" lon="1.3652">
        <ele>141</ele>
        <time>2025-04-12T08:42:45Z</time>
      </trkpt>
      <trkpt lat="43.68129" lon="1.36523">
        <ele>141</ele>
        <time>2025-04-12T08:42:46Z</time>
      </trkpt>
      <trkpt lat="43.6813" lon="1.36526">
        <ele>141</ele>
        <time>2025-04-12T08:42:47Z</time>
      </trkpt>
      <trkpt lat="43.68131" lon="1.3653">
        <ele>142</ele>
        <time>2025-04-12T08:42:48Z</time>
      </trkpt>
      <trkpt lat="43.68131" lon="1.3653">
        <ele>142</ele>
        <time>2025-04-12T08:42:49Z</time>
      </trkpt>
      <trkpt lat="43.68133" lon="1.36536">
        <ele>142</ele>
        <time>2025-04-12T08:42:50Z</time>
      </trkpt>
      <trkpt lat="43.68133" lon="1.36536">
        <ele>142</ele>
        <time>2025-04-12T08:42:51Z</time>
      </trkpt>
      <trkpt lat="43.68134" lon="1.36543">
        <ele>141</ele>
        <time>2025-04-12T08:42:52Z</time>
      </trkpt>
      <trkpt lat="43.68135" lon="1.36546">
        <ele>141</ele>
        <time>2025-04-12T08:42:53Z</time>
      </trkpt>
      <trkpt lat="43.68136" lon="1.3655">
        <ele>141</ele>
        <time>2025-04-12T08:42:54Z</time>
      </trkpt>
      <trkpt lat="43.68136" lon="1.36553">
        <ele>140</ele>
        <time>2025-04-12T08:42:55Z</time>
      </trkpt>
      <trkpt lat="43.68137" lon="1.36556">
        <ele>140</ele>
        <time>2025-04-12T08:42:56Z</time>
      </trkpt>
      <trkpt lat="43.68138" lon="1.3656">
        <ele>141</ele>
        <time>2025-04-12T08:42:57Z</time>
      </trkpt>
      <trkpt lat="43.68138" lon="1.36563">
        <ele>141</ele>
        <time>2025-04-12T08:42:58Z</time>
      </trkpt>
      <trkpt lat="43.68139" lon="1.36566">
        <ele>141</ele>
        <time>2025-04-12T08:42:59Z</time>
      </trkpt>
      <trkpt lat="43.6814" lon="1.36569">
        <ele>141</ele>
        <time>2025-04-12T08:43:00Z</time>
      </trkpt>
      <trkpt lat="43.68141" lon="1.36572">
        <ele>142</ele>
        <time>2025-04-12T08:43:01Z</time>
      </trkpt>
      <trkpt lat="43.68141" lon="1.36575">
        <ele>142</ele>
        <time>2025-04-12T08:43:02Z</time>
      </trkpt>
      <trkpt lat="43.68141" lon="1.36575">
        <ele>142</ele>
        <time>2025-04-12T08:43:03Z</time>
      </trkpt>
      <trkpt lat="43.68142" lon="1.36582">
        <ele>141</ele>
        <time>2025-04-12T08:43:04Z</time>
      </trkpt>
      <trkpt lat="43.68142" lon="1.36582">
        <ele>141</ele>
        <time>2025-04-12T08:43:05Z</time>
      </trkpt>
      <trkpt lat="43.68143" lon="1.36589">
        <ele>141</ele>
        <time>2025-04-12T08:43:06Z</time>
      </trkpt>
      <trkpt lat="43.68143" lon="1.36589">
        <ele>140</ele>
        <time>2025-04-12T08:43:07Z</time>
      </trkpt>
      <trkpt lat="43.68144" lon="1.36597">
        <ele>140</ele>
        <time>2025-04-12T08:43:08Z</time>
      </trkpt>
      <trkpt lat="43.68144" lon="1.366">
        <ele>140</ele>
        <time>2025-04-12T08:43:09Z</time>
      </trkpt>
      <trkpt lat="43.68145" lon="1.36603">
        <ele>140</ele>
        <time>2025-04-12T08:43:10Z</time>
      </trkpt>
      <trkpt lat="43.68145" lon="1.36607">
        <ele>141</ele>
        <time>2025-04-12T08:43:11Z</time>
      </trkpt>
      <trkpt lat="43.68146" lon="1.36611">
        <ele>141</ele>
        <time>2025-04-12T08:43:12Z</time>
      </trkpt>
      <trkpt lat="43.68147" lon="1.36615">
        <ele>141</ele>
        <time>2025-04-12T08:43:13Z</time>
      </trkpt>
      <trkpt lat="43.68147" lon="1.36615">
        <ele>141</ele>
        <time>2025-04-12T08:43:14Z</time>
      </trkpt>
      <trkpt lat="43.68148" lon="1.36619">
        <ele>141</ele>
        <time>2025-04-12T08:43:15Z</time>
      </trkpt>
      <trkpt lat="43.6815" lon="1.36625">
        <ele>141</ele>
        <time>2025-04-12T08:43:16Z</time>
      </trkpt>
      <trkpt lat="43.6815" lon="1.36625">
        <ele>141</ele>
        <time>2025-04-12T08:43:17Z</time>
      </trkpt>
      <trkpt lat="43.68155" lon="1.36628">
        <ele>141</ele>
        <time>2025-04-12T08:43:18Z</time>
      </trkpt>
      <trkpt lat="43.68157" lon="1.36628">
        <ele>141</ele>
        <time>2025-04-12T08:43:19Z</time>
      </trkpt>
      <trkpt lat="43.68159" lon="1.36628">
        <ele>141</ele>
        <time>2025-04-12T08:43:20Z</time>
      </trkpt>
      <trkpt lat="43.68162" lon="1.36628">
        <ele>140</ele>
        <time>2025-04-12T08:43:21Z</time>
      </trkpt>
      <trkpt lat="43.68162" lon="1.36628">
        <ele>140</ele>
        <time>2025-04-12T08:43:22Z</time>
      </trkpt>
      <trkpt lat="43.68168" lon="1.36627">
        <ele>140</ele>
        <time>2025-04-12T08:43:23Z</time>
      </trkpt>
      <trkpt lat="43.68172" lon="1.36627">
        <ele>141</ele>
        <time>2025-04-12T08:43:24Z</time>
      </trkpt>
      <trkpt lat="43.68175" lon="1.36627">
        <ele>141</ele>
        <time>2025-04-12T08:43:25Z</time>
      </trkpt>
      <trkpt lat="43.68175" lon="1.36627">
        <ele>141</ele>
        <time>2025-04-12T08:43:26Z</time>
      </trkpt>
      <trkpt lat="43.6818" lon="1.36625">
        <ele>141</ele>
        <time>2025-04-12T08:43:27Z</time>
      </trkpt>
      <trkpt lat="43.6818" lon="1.36625">
        <ele>141</ele>
        <time>2025-04-12T08:43:28Z</time>
      </trkpt>
      <trkpt lat="43.68184" lon="1.36623">
        <ele>142</ele>
        <time>2025-04-12T08:43:29Z</time>
      </trkpt>
      <trkpt lat="43.68187" lon="1.36622">
        <ele>142</ele>
        <time>2025-04-12T08:43:30Z</time>
      </trkpt>
      <trkpt lat="43.68189" lon="1.36621">
        <ele>142</ele>
        <time>2025-04-12T08:43:31Z</time>
      </trkpt>
      <trkpt lat="43.68192" lon="1.3662">
        <ele>142</ele>
        <time>2025-04-12T08:43:32Z</time>
      </trkpt>
      <trkpt lat="43.68194" lon="1.36619">
        <ele>142</ele>
        <time>2025-04-12T08:43:33Z</time>
      </trkpt>
      <trkpt lat="43.68194" lon="1.36619">
        <ele>142</ele>
        <time>2025-04-12T08:43:34Z</time>
      </trkpt>
      <trkpt lat="43.68199" lon="1.36616">
        <ele>141</ele>
        <time>2025-04-12T08:43:35Z</time>
      </trkpt>
      <trkpt lat="43.68199" lon="1.36616">
        <ele>141</ele>
        <time>2025-04-12T08:43:36Z</time>
      </trkpt>
      <trkpt lat="43.68203" lon="1.36613">
        <ele>141</ele>
        <time>2025-04-12T08:43:37Z</time>
      </trkpt>
      <trkpt lat="43.68205" lon="1.36611">
        <ele>141</ele>
        <time>2025-04-12T08:43:38Z</time>
      </trkpt>
      <trkpt lat="43.68207" lon="1.36609">
        <ele>141</ele>
        <time>2025-04-12T08:43:39Z</time>
      </trkpt>
      <trkpt lat="43.68209" lon="1.36608">
        <ele>141</ele>
        <time>2025-04-12T08:43:40Z</time>
      </trkpt>
      <trkpt lat="43.68209" lon="1.36608">
        <ele>141</ele>
        <time>2025-04-12T08:43:41Z</time>
      </trkpt>
      <trkpt lat="43.68214" lon="1.36606">
        <ele>141</ele>
        <time>2025-04-12T08:43:42Z</time>
      </trkpt>
      <trkpt lat="43.68214" lon="1.36606">
        <ele>141</ele>
        <time>2025-04-12T08:43:43Z</time>
      </trkpt>
      <trkpt lat="43.68218" lon="1.36605">
        <ele>141</ele>
        <time>2025-04-12T08:43:44Z</time>
      </trkpt>
      <trkpt lat="43.68218" lon="1.36605">
        <ele>141</ele>
        <time>2025-04-12T08:43:45Z</time>
      </trkpt>
      <trkpt lat="43.68222" lon="1.36603">
        <ele>141</ele>
        <time>2025-04-12T08:43:46Z</time>
      </trkpt>
      <trkpt lat="43.68225" lon="1.36603">
        <ele>141</ele>
        <time>2025-04-12T08:43:47Z</time>
      </trkpt>
      <trkpt lat="43.68228" lon="1.36602">
        <ele>141</ele>
        <time>2025-04-12T08:43:48Z</time>
      </trkpt>
      <trkpt lat="43.6823" lon="1.366">
        <ele>141</ele>
        <time>2025-04-12T08:43:49Z</time>
      </trkpt>
      <trkpt lat="43.68233" lon="1.36599">
        <ele>141</ele>
        <time>2025-04-12T08:43:50Z</time>
      </trkpt>
      <trkpt lat="43.68235" lon="1.36598">
        <ele>141</ele>
        <time>2025-04-12T08:43:51Z</time>
      </trkpt>
      <trkpt lat="43.68238" lon="1.36595">
        <ele>141</ele>
        <time>2025-04-12T08:43:52Z</time>
      </trkpt>
      <trkpt lat="43.68238" lon="1.36595">
        <ele>141</ele>
        <time>2025-04-12T08:43:53Z</time>
      </trkpt>
      <trkpt lat="43.68244" lon="1.36592">
        <ele>141</ele>
        <time>2025-04-12T08:43:54Z</time>
      </trkpt>
      <trkpt lat="43.68244" lon="1.36592">
        <ele>141</ele>
        <time>2025-04-12T08:43:55Z</time>
      </trkpt>
      <trkpt lat="43.68249" lon="1.36589">
        <ele>141</ele>
        <time>2025-04-12T08:43:56Z</time>
      </trkpt>
      <trkpt lat="43.68251" lon="1.36588">
        <ele>141</ele>
        <time>2025-04-12T08:43:57Z</time>
      </trkpt>
      <trkpt lat="43.68254" lon="1.36586">
        <ele>141</ele>
        <time>2025-04-12T08:43:58Z</time>
      </trkpt>
      <trkpt lat="43.68257" lon="1.36585">
        <ele>141</ele>
        <time>2025-04-12T08:43:59Z</time>
      </trkpt>
      <trkpt lat="43.6826" lon="1.36583">
        <ele>141</ele>
        <time>2025-04-12T08:44:00Z</time>
      </trkpt>
      <trkpt lat="43.68262" lon="1.36581">
        <ele>141</ele>
        <time>2025-04-12T08:44:01Z</time>
      </trkpt>
      <trkpt lat="43.68265" lon="1.36579">
        <ele>141</ele>
        <time>2025-04-12T08:44:02Z</time>
      </trkpt>
      <trkpt lat="43.68268" lon="1.36578">
        <ele>141</ele>
        <time>2025-04-12T08:44:03Z</time>
      </trkpt>
      <trkpt lat="43.6827" lon="1.36576">
        <ele>141</ele>
        <time>2025-04-12T08:44:04Z</time>
      </trkpt>
      <trkpt lat="43.68272" lon="1.36575">
        <ele>141</ele>
        <time>2025-04-12T08:44:05Z</time>
      </trkpt>
      <trkpt lat="43.68275" lon="1.36573">
        <ele>141</ele>
        <time>2025-04-12T08:44:06Z</time>
      </trkpt>
      <trkpt lat="43.68277" lon="1.36571">
        <ele>141</ele>
        <time>2025-04-12T08:44:07Z</time>
      </trkpt>
      <trkpt lat="43.6828" lon="1.36569">
        <ele>141</ele>
        <time>2025-04-12T08:44:08Z</time>
      </trkpt>
      <trkpt lat="43.68283" lon="1.36568">
        <ele>141</ele>
        <time>2025-04-12T08:44:09Z</time>
      </trkpt>
      <trkpt lat="43.68285" lon="1.36566">
        <ele>141</ele>
        <time>2025-04-12T08:44:10Z</time>
      </trkpt>
      <trkpt lat="43.68288" lon="1.36565">
        <ele>141</ele>
        <time>2025-04-12T08:44:11Z</time>
      </trkpt>
      <trkpt lat="43.68288" lon="1.36565">
        <ele>141</ele>
        <time>2025-04-12T08:44:12Z</time>
      </trkpt>
      <trkpt lat="43.68292" lon="1.36563">
        <ele>141</ele>
        <time>2025-04-12T08:44:13Z</time>
      </trkpt>
      <trkpt lat="43.68294" lon="1.36562">
        <ele>141</ele>
        <time>2025-04-12T08:44:14Z</time>
      </trkpt>
      <trkpt lat="43.68296" lon="1.3656">
        <ele>141</ele>
        <time>2025-04-12T08:44:15Z</time>
      </trkpt>
      <trkpt lat="43.68298" lon="1.36558">
        <ele>141</ele>
        <time>2025-04-12T08:44:16Z</time>
      </trkpt>
      <trkpt lat="43.683" lon="1.36556">
        <ele>141</ele>
        <time>2025-04-12T08:44:17Z</time>
      </trkpt>
      <trkpt lat="43.68302" lon="1.36554">
        <ele>141</ele>
        <time>2025-04-12T08:44:18Z</time>
      </trkpt>
      <trkpt lat="43.68304" lon="1.36552">
        <ele>140</ele>
        <time>2025-04-12T08:44:19Z</time>
      </trkpt>
      <trkpt lat="43.68306" lon="1.3655">
        <ele>140</ele>
        <time>2025-04-12T08:44:20Z</time>
      </trkpt>
      <trkpt lat="43.68308" lon="1.36548">
        <ele>140</ele>
        <time>2025-04-12T08:44:21Z</time>
      </trkpt>
      <trkpt lat="43.68308" lon="1.36548">
        <ele>140</ele>
        <time>2025-04-12T08:44:22Z</time>
      </trkpt>
      <trkpt lat="43.68313" lon="1.36544">
        <ele>140</ele>
        <time>2025-04-12T08:44:23Z</time>
      </trkpt>
      <trkpt lat="43.68313" lon="1.36544">
        <ele>141</ele>
        <time>2025-04-12T08:44:24Z</time>
      </trkpt>
      <trkpt lat="43.68318" lon="1.36541">
        <ele>141</ele>
        <time>2025-04-12T08:44:25Z</time>
      </trkpt>
      <trkpt lat="43.68321" lon="1.36541">
        <ele>141</ele>
        <time>2025-04-12T08:44:26Z</time>
      </trkpt>
      <trkpt lat="43.68323" lon="1.36541">
        <ele>141</ele>
        <time>2025-04-12T08:44:27Z</time>
      </trkpt>
      <trkpt lat="43.68326" lon="1.3654">
        <ele>141</ele>
        <time>2025-04-12T08:44:28Z</time>
      </trkpt>
      <trkpt lat="43.68326" lon="1.3654">
        <ele>141</ele>
        <time>2025-04-12T08:44:29Z</time>
      </trkpt>
      <trkpt lat="43.68331" lon="1.36537">
        <ele>141</ele>
        <time>2025-04-12T08:44:30Z</time>
      </trkpt>
      <trkpt lat="43.68331" lon="1.36537">
        <ele>141</ele>
        <time>2025-04-12T08:44:31Z</time>
      </trkpt>
      <trkpt lat="43.68336" lon="1.36534">
        <ele>141</ele>
        <time>2025-04-12T08:44:32Z</time>
      </trkpt>
      <trkpt lat="43.68338" lon="1.36533">
        <ele>141</ele>
        <time>2025-04-12T08:44:33Z</time>
      </trkpt>
      <trkpt lat="43.6834" lon="1.36532">
        <ele>141</ele>
        <time>2025-04-12T08:44:34Z</time>
      </trkpt>
      <trkpt lat="43.68343" lon="1.36531">
        <ele>141</ele>
        <time>2025-04-12T08:44:35Z</time>
      </trkpt>
      <trkpt lat="43.68345" lon="1.36529">
        <ele>141</ele>
        <time>2025-04-12T08:44:36Z</time>
      </trkpt>
      <trkpt lat="43.68347" lon="1.36527">
        <ele>141</ele>
        <time>2025-04-12T08:44:37Z</time>
      </trkpt>
      <trkpt lat="43.68349" lon="1.36525">
        <ele>141</ele>
        <time>2025-04-12T08:44:38Z</time>
      </trkpt>
      <trkpt lat="43.68351" lon="1.36524">
        <ele>141</ele>
        <time>2025-04-12T08:44:39Z</time>
      </trkpt>
      <trkpt lat="43.68353" lon="1.36522">
        <ele>141</ele>
        <time>2025-04-12T08:44:40Z</time>
      </trkpt>
      <trkpt lat="43.68353" lon="1.36522">
        <ele>141</ele>
        <time>2025-04-12T08:44:41Z</time>
      </trkpt>
      <trkpt lat="43.68357" lon="1.36519">
        <ele>141</ele>
        <time>2025-04-12T08:44:42Z</time>
      </trkpt>
      <trkpt lat="43.68357" lon="1.36519">
        <ele>141</ele>
        <time>2025-04-12T08:44:43Z</time>
      </trkpt>
      <trkpt lat="43.68361" lon="1.36515">
        <ele>141</ele>
        <time>2025-04-12T08:44:44Z</time>
      </trkpt>
      <trkpt lat="43.68363" lon="1.36512">
        <ele>141</ele>
        <time>2025-04-12T08:44:45Z</time>
      </trkpt>
      <trkpt lat="43.68366" lon="1.3651">
        <ele>141</ele>
        <time>2025-04-12T08:44:46Z</time>
      </trkpt>
      <trkpt lat="43.68368" lon="1.36508">
        <ele>141</ele>
        <time>2025-04-12T08:44:47Z</time>
      </trkpt>
      <trkpt lat="43.68368" lon="1.36508">
        <ele>141</ele>
        <time>2025-04-12T08:44:48Z</time>
      </trkpt>
      <trkpt lat="43.68373" lon="1.36505">
        <ele>141</ele>
        <time>2025-04-12T08:44:49Z</time>
      </trkpt>
      <trkpt lat="43.68373" lon="1.36505">
        <ele>141</ele>
        <time>2025-04-12T08:44:50Z</time>
      </trkpt>
      <trkpt lat="43.68377" lon="1.36501">
        <ele>141</ele>
        <time>2025-04-12T08:44:51Z</time>
      </trkpt>
      <trkpt lat="43.68377" lon="1.36501">
        <ele>141</ele>
        <time>2025-04-12T08:44:52Z</time>
      </trkpt>
      <trkpt lat="43.68382" lon="1.36498">
        <ele>141</ele>
        <time>2025-04-12T08:44:53Z</time>
      </trkpt>
      <trkpt lat="43.68384" lon="1.36496">
        <ele>141</ele>
        <time>2025-04-12T08:44:54Z</time>
      </trkpt>
      <trkpt lat="43.68386" lon="1.36495">
        <ele>141</ele>
        <time>2025-04-12T08:44:55Z</time>
      </trkpt>
      <trkpt lat="43.68388" lon="1.36493">
        <ele>141</ele>
        <time>2025-04-12T08:44:56Z</time>
      </trkpt>
      <trkpt lat="43.68391" lon="1.36492">
        <ele>141</ele>
        <time>2025-04-12T08:44:57Z</time>
      </trkpt>
      <trkpt lat="43.68391" lon="1.36492">
        <ele>141</ele>
        <time>2025-04-12T08:44:58Z</time>
      </trkpt>
      <trkpt lat="43.68396" lon="1.36488">
        <ele>141</ele>
        <time>2025-04-12T08:44:59Z</time>
      </trkpt>
      <trkpt lat="43.68396" lon="1.36488">
        <ele>141</ele>
        <time>2025-04-12T08:45:00Z</time>
      </trkpt>
      <trkpt lat="43.684" lon="1.36485">
        <ele>141</ele>
        <time>2025-04-12T08:45:01Z</time>
      </trkpt>
      <trkpt lat="43.684" lon="1.36485">
        <ele>141</ele>
        <time>2025-04-12T08:45:02Z</time>
      </trkpt>
      <trkpt lat="43.68404" lon="1.36481">
        <ele>141</ele>
        <time>2025-04-12T08:45:03Z</time>
      </trkpt>
      <trkpt lat="43.68406" lon="1.3648">
        <ele>141</ele>
        <time>2025-04-12T08:45:04Z</time>
      </trkpt>
      <trkpt lat="43.68408" lon="1.36477">
        <ele>141</ele>
        <time>2025-04-12T08:45:05Z</time>
      </trkpt>
      <trkpt lat="43.68411" lon="1.36475">
        <ele>141</ele>
        <time>2025-04-12T08:45:06Z</time>
      </trkpt>
      <trkpt lat="43.68413" lon="1.36473">
        <ele>141</ele>
        <time>2025-04-12T08:45:07Z</time>
      </trkpt>
      <trkpt lat="43.68415" lon="1.36471">
        <ele>141</ele>
        <time>2025-04-12T08:45:08Z</time>
      </trkpt>
      <trkpt lat="43.68415" lon="1.36471">
        <ele>141</ele>
        <time>2025-04-12T08:45:09Z</time>
      </trkpt>
      <trkpt lat="43.68418" lon="1.36467">
        <ele>141</ele>
        <time>2025-04-12T08:45:10Z</time>
      </trkpt>
      <trkpt lat="43.6842" lon="1.36465">
        <ele>141</ele>
        <time>2025-04-12T08:45:11Z</time>
      </trkpt>
      <trkpt lat="43.68423" lon="1.36463">
        <ele>141</ele>
        <time>2025-04-12T08:45:12Z</time>
      </trkpt>
      <trkpt lat="43.68425" lon="1.36461">
        <ele>141</ele>
        <time>2025-04-12T08:45:13Z</time>
      </trkpt>
      <trkpt lat="43.68427" lon="1.36459">
        <ele>141</ele>
        <time>2025-04-12T08:45:14Z</time>
      </trkpt>
      <trkpt lat="43.68429" lon="1.36457">
        <ele>141</ele>
        <time>2025-04-12T08:45:15Z</time>
      </trkpt>
      <trkpt lat="43.68429" lon="1.36457">
        <ele>141</ele>
        <time>2025-04-12T08:45:16Z</time>
      </trkpt>
      <trkpt lat="43.68433" lon="1.36453">
        <ele>141</ele>
        <time>2025-04-12T08:45:17Z</time>
      </trkpt>
      <trkpt lat="43.68435" lon="1.36451">
        <ele>141</ele>
        <time>2025-04-12T08:45:18Z</time>
      </trkpt>
      <trkpt lat="43.68438" lon="1.36449">
        <ele>141</ele>
        <time>2025-04-12T08:45:19Z</time>
      </trkpt>
      <trkpt lat="43.6844" lon="1.36447">
        <ele>141</ele>
        <time>2025-04-12T08:45:20Z</time>
      </trkpt>
      <trkpt lat="43.68442" lon="1.36445">
        <ele>141</ele>
        <time>2025-04-12T08:45:21Z</time>
      </trkpt>
      <trkpt lat="43.68445" lon="1.36443">
        <ele>141</ele>
        <time>2025-04-12T08:45:22Z</time>
      </trkpt>
      <trkpt lat="43.68447" lon="1.36441">
        <ele>141</ele>
        <time>2025-04-12T08:45:23Z</time>
      </trkpt>
      <trkpt lat="43.68449" lon="1.36439">
        <ele>141</ele>
        <time>2025-04-12T08:45:24Z</time>
      </trkpt>
      <trkpt lat="43.68452" lon="1.36437">
        <ele>142</ele>
        <time>2025-04-12T08:45:25Z</time>
      </trkpt>
      <trkpt lat="43.68454" lon="1.36435">
        <ele>142</ele>
        <time>2025-04-12T08:45:26Z</time>
      </trkpt>
      <trkpt lat="43.68457" lon="1.36433">
        <ele>142</ele>
        <time>2025-04-12T08:45:27Z</time>
      </trkpt>
      <trkpt lat="43.68457" lon="1.36433">
        <ele>142</ele>
        <time>2025-04-12T08:45:28Z</time>
      </trkpt>
      <trkpt lat="43.68461" lon="1.36429">
        <ele>142</ele>
        <time>2025-04-12T08:45:29Z</time>
      </trkpt>
      <trkpt lat="43.68464" lon="1.36427">
        <ele>142</ele>
        <time>2025-04-12T08:45:30Z</time>
      </trkpt>
      <trkpt lat="43.68465" lon="1.36425">
        <ele>142</ele>
        <time>2025-04-12T08:45:31Z</time>
      </trkpt>
      <trkpt lat="43.68468" lon="1.36423">
        <ele>143</ele>
        <time>2025-04-12T08:45:32Z</time>
      </trkpt>
      <trkpt lat="43.6847" lon="1.3642">
        <ele>143</ele>
        <time>2025-04-12T08:45:33Z</time>
      </trkpt>
      <trkpt lat="43.68472" lon="1.36418">
        <ele>142</ele>
        <time>2025-04-12T08:45:34Z</time>
      </trkpt>
      <trkpt lat="43.68475" lon="1.36416">
        <ele>142</ele>
        <time>2025-04-12T08:45:35Z</time>
      </trkpt>
      <trkpt lat="43.68477" lon="1.36413">
        <ele>142</ele>
        <time>2025-04-12T08:45:36Z</time>
      </trkpt>
      <trkpt lat="43.68477" lon="1.36413">
        <ele>142</ele>
        <time>2025-04-12T08:45:37Z</time>
      </trkpt>
      <trkpt lat="43.68481" lon="1.36409">
        <ele>142</ele>
        <time>2025-04-12T08:45:38Z</time>
      </trkpt>
      <trkpt lat="43.68481" lon="1.36409">
        <ele>142</ele>
        <time>2025-04-12T08:45:39Z</time>
      </trkpt>
      <trkpt lat="43.68485" lon="1.36404">
        <ele>142</ele>
        <time>2025-04-12T08:45:40Z</time>
      </trkpt>
      <trkpt lat="43.68488" lon="1.36402">
        <ele>142</ele>
        <time>2025-04-12T08:45:41Z</time>
      </trkpt>
      <trkpt lat="43.6849" lon="1.364">
        <ele>142</ele>
        <time>2025-04-12T08:45:42Z</time>
      </trkpt>
      <trkpt lat="43.68492" lon="1.36398">
        <ele>142</ele>
        <time>2025-04-12T08:45:43Z</time>
      </trkpt>
      <trkpt lat="43.68492" lon="1.36398">
        <ele>142</ele>
        <time>2025-04-12T08:45:44Z</time>
      </trkpt>
      <trkpt lat="43.68496" lon="1.36394">
        <ele>142</ele>
        <time>2025-04-12T08:45:45Z</time>
      </trkpt>
      <trkpt lat="43.68496" lon="1.36394">
        <ele>142</ele>
        <time>2025-04-12T08:45:46Z</time>
      </trkpt>
      <trkpt lat="43.68499" lon="1.36392">
        <ele>142</ele>
        <time>2025-04-12T08:45:47Z</time>
      </trkpt>
      <trkpt lat="43.68503" lon="1.36388">
        <ele>142</ele>
        <time>2025-04-12T08:45:48Z</time>
      </trkpt>
      <trkpt lat="43.68503" lon="1.36388">
        <ele>142</ele>
        <time>2025-04-12T08:45:49Z</time>
      </trkpt>
      <trkpt lat="43.68507" lon="1.36383">
        <ele>142</ele>
        <time>2025-04-12T08:45:50Z</time>
      </trkpt>
      <trkpt lat="43.68509" lon="1.36381">
        <ele>142</ele>
        <time>2025-04-12T08:45:51Z</time>
      </trkpt>
      <trkpt lat="43.68512" lon="1.36379">
        <ele>142</ele>
        <time>2025-04-12T08:45:52Z</time>
      </trkpt>
      <trkpt lat="43.68514" lon="1.36376">
        <ele>142</ele>
        <time>2025-04-12T08:45:53Z</time>
      </trkpt>
      <trkpt lat="43.68514" lon="1.36376">
        <ele>142</ele>
        <time>2025-04-12T08:45:54Z</time>
      </trkpt>
      <trkpt lat="43.68516" lon="1.36374">
        <ele>142</ele>
        <time>2025-04-12T08:45:55Z</time>
      </trkpt>
      <trkpt lat="43.6852" lon="1.3637">
        <ele>142</ele>
        <time>2025-04-12T08:45:56Z</time>
      </trkpt>
      <trkpt lat="43.68523" lon="1.36368">
        <ele>142</ele>
        <time>2025-04-12T08:45:57Z</time>
      </trkpt>
      <trkpt lat="43.68523" lon="1.36368">
        <ele>142</ele>
        <time>2025-04-12T08:45:58Z</time>
      </trkpt>
      <trkpt lat="43.68526" lon="1.36363">
        <ele>142</ele>
        <time>2025-04-12T08:45:59Z</time>
      </trkpt>
      <trkpt lat="43.68526" lon="1.36363">
        <ele>142</ele>
        <time>2025-04-12T08:46:00Z</time>
      </trkpt>
      <trkpt lat="43.68529" lon="1.36357">
        <ele>142</ele>
        <time>2025-04-12T08:46:01Z</time>
      </trkpt>
      <trkpt lat="43.68531" lon="1.36355">
        <ele>142</ele>
        <time>2025-04-12T08:46:02Z</time>
      </trkpt>
      <trkpt lat="43.68533" lon="1.36353">
        <ele>142</ele>
        <time>2025-04-12T08:46:03Z</time>
      </trkpt>
      <trkpt lat="43.68535" lon="1.36351">
        <ele>142</ele>
        <time>2025-04-12T08:46:04Z</time>
      </trkpt>
      <trkpt lat="43.68535" lon="1.36351">
        <ele>142</ele>
        <time>2025-04-12T08:46:05Z</time>
      </trkpt>
      <trkpt lat="43.68538" lon="1.36349">
        <ele>142</ele>
        <time>2025-04-12T08:46:06Z</time>
      </trkpt>
      <trkpt lat="43.68541" lon="1.36344">
        <ele>142</ele>
        <time>2025-04-12T08:46:07Z</time>
      </trkpt>
      <trkpt lat="43.68541" lon="1.36344">
        <ele>142</ele>
        <time>2025-04-12T08:46:08Z</time>
      </trkpt>
      <trkpt lat="43.68545" lon="1.36339">
        <ele>142</ele>
        <time>2025-04-12T08:46:09Z</time>
      </trkpt>
      <trkpt lat="43.68548" lon="1.36336">
        <ele>142</ele>
        <time>2025-04-12T08:46:10Z</time>
      </trkpt>
      <trkpt lat="43.6855" lon="1.36334">
        <ele>142</ele>
        <time>2025-04-12T08:46:11Z</time>
      </trkpt>
      <trkpt lat="43.68552" lon="1.36331">
        <ele>142</ele>
        <time>2025-04-12T08:46:12Z</time>
      </trkpt>
      <trkpt lat="43.68552" lon="1.36331">
        <ele>142</ele>
        <time>2025-04-12T08:46:13Z</time>
      </trkpt>
      <trkpt lat="43.68556" lon="1.36327">
        <ele>142</ele>
        <time>2025-04-12T08:46:14Z</time>
      </trkpt>
      <trkpt lat="43.68558" lon="1.36324">
        <ele>142</ele>
        <time>2025-04-12T08:46:15Z</time>
      </trkpt>
      <trkpt lat="43.68558" lon="1.36324">
        <ele>142</ele>
        <time>2025-04-12T08:46:16Z</time>
      </trkpt>
      <trkpt lat="43.68562" lon="1.3632">
        <ele>142</ele>
        <time>2025-04-12T08:46:17Z</time>
      </trkpt>
      <trkpt lat="43.68565" lon="1.36318">
        <ele>142</ele>
        <time>2025-04-12T08:46:18Z</time>
      </trkpt>
      <trkpt lat="43.68567" lon="1.36316">
        <ele>142</ele>
        <time>2025-04-12T08:46:19Z</time>
      </trkpt>
      <trkpt lat="43.68569" lon="1.36313">
        <ele>142</ele>
        <time>2025-04-12T08:46:20Z</time>
      </trkpt>
      <trkpt lat="43.68571" lon="1.36311">
        <ele>142</ele>
        <time>2025-04-12T08:46:21Z</time>
      </trkpt>
      <trkpt lat="43.68573" lon="1.36309">
        <ele>142</ele>
        <time>2025-04-12T08:46:22Z</time>
      </trkpt>
      <trkpt lat="43.68575" lon="1.36306">
        <ele>142</ele>
        <time>2025-04-12T08:46:23Z</time>
      </trkpt>
      <trkpt lat="43.68577" lon="1.36304">
        <ele>141</ele>
        <time>2025-04-12T08:46:24Z</time>
      </trkpt>
      <trkpt lat="43.68579" lon="1.36302">
        <ele>141</ele>
        <time>2025-04-12T08:46:25Z</time>
      </trkpt>
      <trkpt lat="43.68581" lon="1.36299">
        <ele>141</ele>
        <time>2025-04-12T08:46:26Z</time>
      </trkpt>
      <trkpt lat="43.68583" lon="1.36296">
        <ele>141</ele>
        <time>2025-04-12T08:46:27Z</time>
      </trkpt>
      <trkpt lat="43.68585" lon="1.36294">
        <ele>141</ele>
        <time>2025-04-12T08:46:28Z</time>
      </trkpt>
      <trkpt lat="43.68587" lon="1.36292">
        <ele>141</ele>
        <time>2025-04-12T08:46:29Z</time>
      </trkpt>
      <trkpt lat="43.68589" lon="1.36289">
        <ele>141</ele>
        <time>2025-04-12T08:46:30Z</time>
      </trkpt>
      <trkpt lat="43.68591" lon="1.36286">
        <ele>141</ele>
        <time>2025-04-12T08:46:31Z</time>
      </trkpt>
      <trkpt lat="43.68593" lon="1.36284">
        <ele>141</ele>
        <time>2025-04-12T08:46:32Z</time>
      </trkpt>
      <trkpt lat="43.68595" lon="1.36282">
        <ele>142</ele>
        <time>2025-04-12T08:46:33Z</time>
      </trkpt>
      <trkpt lat="43.68597" lon="1.3628">
        <ele>142</ele>
        <time>2025-04-12T08:46:34Z</time>
      </trkpt>
      <trkpt lat="43.68597" lon="1.3628">
        <ele>142</ele>
        <time>2025-04-12T08:46:35Z</time>
      </trkpt>
      <trkpt lat="43.68602" lon="1.36277">
        <ele>142</ele>
        <time>2025-04-12T08:46:36Z</time>
      </trkpt>
      <trkpt lat="43.68602" lon="1.36277">
        <ele>142</ele>
        <time>2025-04-12T08:46:37Z</time>
      </trkpt>
      <trkpt lat="43.68607" lon="1.36274">
        <ele>142</ele>
        <time>2025-04-12T08:46:38Z</time>
      </trkpt>
      <trkpt lat="43.6861" lon="1.36273">
        <ele>142</ele>
        <time>2025-04-12T08:46:39Z</time>
      </trkpt>
      <trkpt lat="43.68612" lon="1.36272">
        <ele>142</ele>
        <time>2025-04-12T08:46:40Z</time>
      </trkpt>
      <trkpt lat="43.68615" lon="1.36271">
        <ele>142</ele>
        <time>2025-04-12T08:46:41Z</time>
      </trkpt>
      <trkpt lat="43.68615" lon="1.36271">
        <ele>142</ele>
        <time>2025-04-12T08:46:42Z</time>
      </trkpt>
      <trkpt lat="43.68619" lon="1.36268">
        <ele>142</ele>
        <time>2025-04-12T08:46:43Z</time>
      </trkpt>
      <trkpt lat="43.68622" lon="1.36267">
        <ele>142</ele>
        <time>2025-04-12T08:46:44Z</time>
      </trkpt>
      <trkpt lat="43.68625" lon="1.36266">
        <ele>142</ele>
        <time>2025-04-12T08:46:45Z</time>
      </trkpt>
      <trkpt lat="43.68627" lon="1.36266">
        <ele>142</ele>
        <time>2025-04-12T08:46:46Z</time>
      </trkpt>
      <trkpt lat="43.6863" lon="1.36265">
        <ele>143</ele>
        <time>2025-04-12T08:46:47Z</time>
      </trkpt>
      <trkpt lat="43.68632" lon="1.36264">
        <ele>143</ele>
        <time>2025-04-12T08:46:48Z</time>
      </trkpt>
      <trkpt lat="43.68635" lon="1.36263">
        <ele>143</ele>
        <time>2025-04-12T08:46:49Z</time>
      </trkpt>
      <trkpt lat="43.68637" lon="1.36261">
        <ele>143</ele>
        <time>2025-04-12T08:46:50Z</time>
      </trkpt>
      <trkpt lat="43.68637" lon="1.36261">
        <ele>143</ele>
        <time>2025-04-12T08:46:51Z</time>
      </trkpt>
      <trkpt lat="43.68641" lon="1.36257">
        <ele>143</ele>
        <time>2025-04-12T08:46:52Z</time>
      </trkpt>
      <trkpt lat="43.68644" lon="1.36256">
        <ele>143</ele>
        <time>2025-04-12T08:46:53Z</time>
      </trkpt>
      <trkpt lat="43.68646" lon="1.36255">
        <ele>143</ele>
        <time>2025-04-12T08:46:54Z</time>
      </trkpt>
      <trkpt lat="43.68648" lon="1.36253">
        <ele>143</ele>
        <time>2025-04-12T08:46:55Z</time>
      </trkpt>
      <trkpt lat="43.68648" lon="1.36253">
        <ele>143</ele>
        <time>2025-04-12T08:46:56Z</time>
      </trkpt>
      <trkpt lat="43.68653" lon="1.3625">
        <ele>143</ele>
        <time>2025-04-12T08:46:57Z</time>
      </trkpt>
      <trkpt lat="43.68656" lon="1.36249">
        <ele>143</ele>
        <time>2025-04-12T08:46:58Z</time>
      </trkpt>
      <trkpt lat="43.68659" lon="1.36247">
        <ele>143</ele>
        <time>2025-04-12T08:46:59Z</time>
      </trkpt>
      <trkpt lat="43.68659" lon="1.36247">
        <ele>143</ele>
        <time>2025-04-12T08:47:00Z</time>
      </trkpt>
      <trkpt lat="43.68664" lon="1.36245">
        <ele>143</ele>
        <time>2025-04-12T08:47:01Z</time>
      </trkpt>
      <trkpt lat="43.68664" lon="1.36245">
        <ele>143</ele>
        <time>2025-04-12T08:47:02Z</time>
      </trkpt>
      <trkpt lat="43.68666" lon="1.36244">
        <ele>143</ele>
        <time>2025-04-12T08:47:03Z</time>
      </trkpt>
      <trkpt lat="43.68671" lon="1.36241">
        <ele>143</ele>
        <time>2025-04-12T08:47:04Z</time>
      </trkpt>
      <trkpt lat="43.68671" lon="1.36241">
        <ele>143</ele>
        <time>2025-04-12T08:47:05Z</time>
      </trkpt>
      <trkpt lat="43.68675" lon="1.36238">
        <ele>143</ele>
        <time>2025-04-12T08:47:06Z</time>
      </trkpt>
      <trkpt lat="43.68678" lon="1.36237">
        <ele>143</ele>
        <time>2025-04-12T08:47:07Z</time>
      </trkpt>
      <trkpt lat="43.68681" lon="1.36236">
        <ele>143</ele>
        <time>2025-04-12T08:47:08Z</time>
      </trkpt>
      <trkpt lat="43.68683" lon="1.36235">
        <ele>143</ele>
        <time>2025-04-12T08:47:09Z</time>
      </trkpt>
      <trkpt lat="43.68683" lon="1.36235">
        <ele>143</ele>
        <time>2025-04-12T08:47:10Z</time>
      </trkpt>
      <trkpt lat="43.68688" lon="1.36231">
        <ele>143</ele>
        <time>2025-04-12T08:47:11Z</time>
      </trkpt>
      <trkpt lat="43.68691" lon="1.3623">
        <ele>143</ele>
        <time>2025-04-12T08:47:12Z</time>
      </trkpt>
      <trkpt lat="43.68693" lon="1.36229">
        <ele>143</ele>
        <time>2025-04-12T08:47:13Z</time>
      </trkpt>
      <trkpt lat="43.68696" lon="1.36228">
        <ele>143</ele>
        <time>2025-04-12T08:47:14Z</time>
      </trkpt>
      <trkpt lat="43.68696" lon="1.36228">
        <ele>143</ele>
        <time>2025-04-12T08:47:15Z</time>
      </trkpt>
      <trkpt lat="43.68701" lon="1.36225">
        <ele>143</ele>
        <time>2025-04-12T08:47:16Z</time>
      </trkpt>
      <trkpt lat="43.68704" lon="1.36224">
        <ele>143</ele>
        <time>2025-04-12T08:47:17Z</time>
      </trkpt>
      <trkpt lat="43.68706" lon="1.36223">
        <ele>143</ele>
        <time>2025-04-12T08:47:18Z</time>
      </trkpt>
      <trkpt lat="43.68708" lon="1.36222">
        <ele>143</ele>
        <time>2025-04-12T08:47:19Z</time>
      </trkpt>
      <trkpt lat="43.68711" lon="1.3622">
        <ele>143</ele>
        <time>2025-04-12T08:47:20Z</time>
      </trkpt>
      <trkpt lat="43.68713" lon="1.36219">
        <ele>143</ele>
        <time>2025-04-12T08:47:21Z</time>
      </trkpt>
      <trkpt lat="43.68713" lon="1.36219">
        <ele>143</ele>
        <time>2025-04-12T08:47:22Z</time>
      </trkpt>
      <trkpt lat="43.68718" lon="1.36217">
        <ele>143</ele>
        <time>2025-04-12T08:47:23Z</time>
      </trkpt>
      <trkpt lat="43.68718" lon="1.36217">
        <ele>143</ele>
        <time>2025-04-12T08:47:24Z</time>
      </trkpt>
      <trkpt lat="43.68723" lon="1.36214">
        <ele>143</ele>
        <time>2025-04-12T08:47:25Z</time>
      </trkpt>
      <trkpt lat="43.68726" lon="1.36212">
        <ele>143</ele>
        <time>2025-04-12T08:47:26Z</time>
      </trkpt>
      <trkpt lat="43.68728" lon="1.3621">
        <ele>143</ele>
        <time>2025-04-12T08:47:27Z</time>
      </trkpt>
      <trkpt lat="43.68733" lon="1.36207">
        <ele>143</ele>
        <time>2025-04-12T08:47:29Z</time>
      </trkpt>
      <trkpt lat="43.68735" lon="1.36205">
        <ele>143</ele>
        <time>2025-04-12T08:47:30Z</time>
      </trkpt>
      <trkpt lat="43.68737" lon="1.36203">
        <ele>143</ele>
        <time>2025-04-12T08:47:31Z</time>
      </trkpt>
      <trkpt lat="43.6874" lon="1.36201">
        <ele>143</ele>
        <time>2025-04-12T08:47:32Z</time>
      </trkpt>
      <trkpt lat="43.68742" lon="1.36199">
        <ele>143</ele>
        <time>2025-04-12T08:47:33Z</time>
      </trkpt>
      <trkpt lat="43.68742" lon="1.36199">
        <ele>143</ele>
        <time>2025-04-12T08:47:34Z</time>
      </trkpt>
      <trkpt lat="43.68746" lon="1.36196">
        <ele>143</ele>
        <time>2025-04-12T08:47:35Z</time>
      </trkpt>
      <trkpt lat="43.68748" lon="1.36194">
        <ele>143</ele>
        <time>2025-04-12T08:47:36Z</time>
      </trkpt>
      <trkpt lat="43.6875" lon="1.36192">
        <ele>143</ele>
        <time>2025-04-12T08:47:37Z</time>
      </trkpt>
      <trkpt lat="43.68752" lon="1.36191">
        <ele>143</ele>
        <time>2025-04-12T08:47:38Z</time>
      </trkpt>
      <trkpt lat="43.68754" lon="1.36189">
        <ele>143</ele>
        <time>2025-04-12T08:47:39Z</time>
      </trkpt>
      <trkpt lat="43.68757" lon="1.36187">
        <ele>143</ele>
        <time>2025-04-12T08:47:40Z</time>
      </trkpt>
      <trkpt lat="43.68759" lon="1.36185">
        <ele>143</ele>
        <time>2025-04-12T08:47:41Z</time>
      </trkpt>
      <trkpt lat="43.68761" lon="1.36183">
        <ele>143</ele>
        <time>2025-04-12T08:47:42Z</time>
      </trkpt>
      <trkpt lat="43.68763" lon="1.36181">
        <ele>143</ele>
        <time>2025-04-12T08:47:43Z</time>
      </trkpt>
      <trkpt lat="43.68765" lon="1.36179">
        <ele>143</ele>
        <time>2025-04-12T08:47:44Z</time>
      </trkpt>
      <trkpt lat="43.68767" lon="1.36177">
        <ele>143</ele>
        <time>2025-04-12T08:47:45Z</time>
      </trkpt>
      <trkpt lat="43.6877" lon="1.36175">
        <ele>143</ele>
        <time>2025-04-12T08:47:46Z</time>
      </trkpt>
      <trkpt lat="43.68772" lon="1.36173">
        <ele>144</ele>
        <time>2025-04-12T08:47:47Z</time>
      </trkpt>
      <trkpt lat="43.68775" lon="1.36171">
        <ele>144</ele>
        <time>2025-04-12T08:47:48Z</time>
      </trkpt>
      <trkpt lat="43.68777" lon="1.36169">
        <ele>144</ele>
        <time>2025-04-12T08:47:49Z</time>
      </trkpt>
      <trkpt lat="43.68779" lon="1.36168">
        <ele>144</ele>
        <time>2025-04-12T08:47:50Z</time>
      </trkpt>
      <trkpt lat="43.68779" lon="1.36168">
        <ele>144</ele>
        <time>2025-04-12T08:47:51Z</time>
      </trkpt>
      <trkpt lat="43.68784" lon="1.36165">
        <ele>144</ele>
        <time>2025-04-12T08:47:52Z</time>
      </trkpt>
      <trkpt lat="43.68784" lon="1.36165">
        <ele>144</ele>
        <time>2025-04-12T08:47:53Z</time>
      </trkpt>
      <trkpt lat="43.68789" lon="1.36162">
        <ele>144</ele>
        <time>2025-04-12T08:47:54Z</time>
      </trkpt>
      <trkpt lat="43.68791" lon="1.3616">
        <ele>144</ele>
        <time>2025-04-12T08:47:55Z</time>
      </trkpt>
      <trkpt lat="43.68793" lon="1.36158">
        <ele>144</ele>
        <time>2025-04-12T08:47:56Z</time>
      </trkpt>
      <trkpt lat="43.68795" lon="1.36156">
        <ele>144</ele>
        <time>2025-04-12T08:47:57Z</time>
      </trkpt>
      <trkpt lat="43.68795" lon="1.36156">
        <ele>144</ele>
        <time>2025-04-12T08:47:58Z</time>
      </trkpt>
      <trkpt lat="43.68799" lon="1.36152">
        <ele>144</ele>
        <time>2025-04-12T08:47:59Z</time>
      </trkpt>
      <trkpt lat="43.68799" lon="1.36152">
        <ele>144</ele>
        <time>2025-04-12T08:48:00Z</time>
      </trkpt>
      <trkpt lat="43.68804" lon="1.3615">
        <ele>144</ele>
        <time>2025-04-12T08:48:01Z</time>
      </trkpt>
      <trkpt lat="43.68806" lon="1.36151">
        <ele>144</ele>
        <time>2025-04-12T08:48:02Z</time>
      </trkpt>
      <trkpt lat="43.68808" lon="1.36151">
        <ele>144</ele>
        <time>2025-04-12T08:48:03Z</time>
      </trkpt>
      <trkpt lat="43.68808" lon="1.36151">
        <ele>144</ele>
        <time>2025-04-12T08:48:04Z</time>
      </trkpt>
      <trkpt lat="43.68812" lon="1.36152">
        <ele>144</ele>
        <time>2025-04-12T08:48:05Z</time>
      </trkpt>
      <trkpt lat="43.68812" lon="1.36152">
        <ele>144</ele>
        <time>2025-04-12T08:48:06Z</time>
      </trkpt>
      <trkpt lat="43.68812" lon="1.36152">
        <ele>144</ele>
        <time>2025-04-12T08:48:07Z</time>
      </trkpt>
      <trkpt lat="43.68818" lon="1.36153">
        <ele>144</ele>
        <time>2025-04-12T08:48:08Z</time>
      </trkpt>
      <trkpt lat="43.68821" lon="1.36153">
        <ele>143</ele>
        <time>2025-04-12T08:48:09Z</time>
      </trkpt>
      <trkpt lat="43.68824" lon="1.36154">
        <ele>143</ele>
        <time>2025-04-12T08:48:10Z</time>
      </trkpt>
      <trkpt lat="43.68827" lon="1.36156">
        <ele>143</ele>
        <time>2025-04-12T08:48:11Z</time>
      </trkpt>
      <trkpt lat="43.68827" lon="1.36156">
        <ele>143</ele>
        <time>2025-04-12T08:48:12Z</time>
      </trkpt>
      <trkpt lat="43.68832" lon="1.3616">
        <ele>143</ele>
        <time>2025-04-12T08:48:13Z</time>
      </trkpt>
      <trkpt lat="43.68832" lon="1.3616">
        <ele>143</ele>
        <time>2025-04-12T08:48:14Z</time>
      </trkpt>
      <trkpt lat="43.68838" lon="1.36161">
        <ele>142</ele>
        <time>2025-04-12T08:48:15Z</time>
      </trkpt>
      <trkpt lat="43.6884" lon="1.36162">
        <ele>142</ele>
        <time>2025-04-12T08:48:16Z</time>
      </trkpt>
      <trkpt lat="43.68843" lon="1.36162">
        <ele>142</ele>
        <time>2025-04-12T08:48:17Z</time>
      </trkpt>
      <trkpt lat="43.68846" lon="1.36163">
        <ele>142</ele>
        <time>2025-04-12T08:48:18Z</time>
      </trkpt>
      <trkpt lat="43.68849" lon="1.36164">
        <ele>142</ele>
        <time>2025-04-12T08:48:19Z</time>
      </trkpt>
      <trkpt lat="43.68851" lon="1.36165">
        <ele>142</ele>
        <time>2025-04-12T08:48:20Z</time>
      </trkpt>
      <trkpt lat="43.68854" lon="1.36166">
        <ele>142</ele>
        <time>2025-04-12T08:48:21Z</time>
      </trkpt>
      <trkpt lat="43.68857" lon="1.36167">
        <ele>142</ele>
        <time>2025-04-12T08:48:22Z</time>
      </trkpt>
      <trkpt lat="43.6886" lon="1.36168">
        <ele>142</ele>
        <time>2025-04-12T08:48:23Z</time>
      </trkpt>
      <trkpt lat="43.68862" lon="1.36169">
        <ele>142</ele>
        <time>2025-04-12T08:48:24Z</time>
      </trkpt>
      <trkpt lat="43.68865" lon="1.36169">
        <ele>142</ele>
        <time>2025-04-12T08:48:25Z</time>
      </trkpt>
      <trkpt lat="43.68865" lon="1.36169">
        <ele>142</ele>
        <time>2025-04-12T08:48:26Z</time>
      </trkpt>
      <trkpt lat="43.68869" lon="1.3617">
        <ele>142</ele>
        <time>2025-04-12T08:48:27Z</time>
      </trkpt>
      <trkpt lat="43.68872" lon="1.36171">
        <ele>142</ele>
        <time>2025-04-12T08:48:28Z</time>
      </trkpt>
      <trkpt lat="43.68874" lon="1.36171">
        <ele>142</ele>
        <time>2025-04-12T08:48:29Z</time>
      </trkpt>
      <trkpt lat="43.68877" lon="1.36171">
        <ele>142</ele>
        <time>2025-04-12T08:48:30Z</time>
      </trkpt>
      <trkpt lat="43.6888" lon="1.36171">
        <ele>142</ele>
        <time>2025-04-12T08:48:31Z</time>
      </trkpt>
      <trkpt lat="43.68882" lon="1.36171">
        <ele>142</ele>
        <time>2025-04-12T08:48:32Z</time>
      </trkpt>
      <trkpt lat="43.68885" lon="1.36172">
        <ele>142</ele>
        <time>2025-04-12T08:48:33Z</time>
      </trkpt>
      <trkpt lat="43.68887" lon="1.36172">
        <ele>142</ele>
        <time>2025-04-12T08:48:34Z</time>
      </trkpt>
      <trkpt lat="43.68889" lon="1.36172">
        <ele>141</ele>
        <time>2025-04-12T08:48:35Z</time>
      </trkpt>
      <trkpt lat="43.68889" lon="1.36172">
        <ele>141</ele>
        <time>2025-04-12T08:48:36Z</time>
      </trkpt>
      <trkpt lat="43.68892" lon="1.36173">
        <ele>141</ele>
        <time>2025-04-12T08:48:37Z</time>
      </trkpt>
      <trkpt lat="43.68894" lon="1.36173">
        <ele>142</ele>
        <time>2025-04-12T08:48:38Z</time>
      </trkpt>
      <trkpt lat="43.68899" lon="1.36174">
        <ele>142</ele>
        <time>2025-04-12T08:48:39Z</time>
      </trkpt>
      <trkpt lat="43.68899" lon="1.36174">
        <ele>142</ele>
        <time>2025-04-12T08:48:40Z</time>
      </trkpt>
      <trkpt lat="43.68904" lon="1.36176">
        <ele>142</ele>
        <time>2025-04-12T08:48:41Z</time>
      </trkpt>
      <trkpt lat="43.68906" lon="1.36177">
        <ele>141</ele>
        <time>2025-04-12T08:48:42Z</time>
      </trkpt>
      <trkpt lat="43.68909" lon="1.36177">
        <ele>141</ele>
        <time>2025-04-12T08:48:43Z</time>
      </trkpt>
      <trkpt lat="43.68911" lon="1.36178">
        <ele>142</ele>
        <time>2025-04-12T08:48:44Z</time>
      </trkpt>
      <trkpt lat="43.68911" lon="1.36178">
        <ele>142</ele>
        <time>2025-04-12T08:48:45Z</time>
      </trkpt>
      <trkpt lat="43.68917" lon="1.36181">
        <ele>142</ele>
        <time>2025-04-12T08:48:46Z</time>
      </trkpt>
      <trkpt lat="43.68917" lon="1.36181">
        <ele>142</ele>
        <time>2025-04-12T08:48:47Z</time>
      </trkpt>
      <trkpt lat="43.68923" lon="1.36184">
        <ele>142</ele>
        <time>2025-04-12T08:48:48Z</time>
      </trkpt>
      <trkpt lat="43.68923" lon="1.36184">
        <ele>141</ele>
        <time>2025-04-12T08:48:49Z</time>
      </trkpt>
      <trkpt lat="43.68927" lon="1.36187">
        <ele>142</ele>
        <time>2025-04-12T08:48:50Z</time>
      </trkpt>
      <trkpt lat="43.68929" lon="1.36189">
        <ele>142</ele>
        <time>2025-04-12T08:48:51Z</time>
      </trkpt>
      <trkpt lat="43.68931" lon="1.36192">
        <ele>142</ele>
        <time>2025-04-12T08:48:52Z</time>
      </trkpt>
      <trkpt lat="43.68933" lon="1.36195">
        <ele>142</ele>
        <time>2025-04-12T08:48:53Z</time>
      </trkpt>
      <trkpt lat="43.68933" lon="1.36195">
        <ele>142</ele>
        <time>2025-04-12T08:48:54Z</time>
      </trkpt>
      <trkpt lat="43.68937" lon="1.36201">
        <ele>142</ele>
        <time>2025-04-12T08:48:55Z</time>
      </trkpt>
      <trkpt lat="43.68939" lon="1.36203">
        <ele>142</ele>
        <time>2025-04-12T08:48:56Z</time>
      </trkpt>
      <trkpt lat="43.68942" lon="1.36205">
        <ele>141</ele>
        <time>2025-04-12T08:48:57Z</time>
      </trkpt>
      <trkpt lat="43.68945" lon="1.36208">
        <ele>142</ele>
        <time>2025-04-12T08:48:58Z</time>
      </trkpt>
      <trkpt lat="43.68945" lon="1.36208">
        <ele>142</ele>
        <time>2025-04-12T08:48:59Z</time>
      </trkpt>
      <trkpt lat="43.68949" lon="1.36213">
        <ele>142</ele>
        <time>2025-04-12T08:49:00Z</time>
      </trkpt>
      <trkpt lat="43.68951" lon="1.36215">
        <ele>142</ele>
        <time>2025-04-12T08:49:01Z</time>
      </trkpt>
      <trkpt lat="43.68953" lon="1.36217">
        <ele>142</ele>
        <time>2025-04-12T08:49:02Z</time>
      </trkpt>
      <trkpt lat="43.68955" lon="1.36219">
        <ele>142</ele>
        <time>2025-04-12T08:49:03Z</time>
      </trkpt>
      <trkpt lat="43.68957" lon="1.36221">
        <ele>142</ele>
        <time>2025-04-12T08:49:04Z</time>
      </trkpt>
      <trkpt lat="43.68957" lon="1.36221">
        <ele>142</ele>
        <time>2025-04-12T08:49:05Z</time>
      </trkpt>
      <trkpt lat="43.6896" lon="1.36226">
        <ele>141</ele>
        <time>2025-04-12T08:49:06Z</time>
      </trkpt>
      <trkpt lat="43.6896" lon="1.36226">
        <ele>141</ele>
        <time>2025-04-12T08:49:07Z</time>
      </trkpt>
      <trkpt lat="43.68962" lon="1.36235">
        <ele>141</ele>
        <time>2025-04-12T08:49:08Z</time>
      </trkpt>
      <trkpt lat="43.68962" lon="1.3624">
        <ele>141</ele>
        <time>2025-04-12T08:49:09Z</time>
      </trkpt>
      <trkpt lat="43.68963" lon="1.36243">
        <ele>141</ele>
        <time>2025-04-12T08:49:10Z</time>
      </trkpt>
      <trkpt lat="43.68962" lon="1.36247">
        <ele>141</ele>
        <time>2025-04-12T08:49:11Z</time>
      </trkpt>
      <trkpt lat="43.68963" lon="1.36251">
        <ele>141</ele>
        <time>2025-04-12T08:49:12Z</time>
      </trkpt>
      <trkpt lat="43.68963" lon="1.36256">
        <ele>141</ele>
        <time>2025-04-12T08:49:13Z</time>
      </trkpt>
      <trkpt lat="43.68963" lon="1.36256">
        <ele>141</ele>
        <time>2025-04-12T08:49:14Z</time>
      </trkpt>
      <trkpt lat="43.68963" lon="1.36264">
        <ele>141</ele>
        <time>2025-04-12T08:49:15Z</time>
      </trkpt>
      <trkpt lat="43.68963" lon="1.36267">
        <ele>141</ele>
        <time>2025-04-12T08:49:16Z</time>
      </trkpt>
      <trkpt lat="43.68963" lon="1.3627">
        <ele>141</ele>
        <time>2025-04-12T08:49:17Z</time>
      </trkpt>
      <trkpt lat="43.68964" lon="1.36273">
        <ele>141</ele>
        <time>2025-04-12T08:49:18Z</time>
      </trkpt>
      <trkpt lat="43.68964" lon="1.36273">
        <ele>141</ele>
        <time>2025-04-12T08:49:19Z</time>
      </trkpt>
      <trkpt lat="43.68966" lon="1.36276">
        <ele>141</ele>
        <time>2025-04-12T08:49:20Z</time>
      </trkpt>
      <trkpt lat="43.68966" lon="1.36276">
        <ele>141</ele>
        <time>2025-04-12T08:49:21Z</time>
      </trkpt>
      <trkpt lat="43.68969" lon="1.36277">
        <ele>141</ele>
        <time>2025-04-12T08:49:22Z</time>
      </trkpt>
      <trkpt lat="43.68969" lon="1.36277">
        <ele>141</ele>
        <time>2025-04-12T08:49:23Z</time>
      </trkpt>
      <trkpt lat="43.68974" lon="1.36276">
        <ele>141</ele>
        <time>2025-04-12T08:49:24Z</time>
      </trkpt>
      <trkpt lat="43.68976" lon="1.36278">
        <ele>141</ele>
        <time>2025-04-12T08:49:25Z</time>
      </trkpt>
      <trkpt lat="43.68977" lon="1.3628">
        <ele>141</ele>
        <time>2025-04-12T08:49:26Z</time>
      </trkpt>
      <trkpt lat="43.68979" lon="1.36283">
        <ele>141</ele>
        <time>2025-04-12T08:49:27Z</time>
      </trkpt>
      <trkpt lat="43.68981" lon="1.36286">
        <ele>141</ele>
        <time>2025-04-12T08:49:28Z</time>
      </trkpt>
      <trkpt lat="43.68982" lon="1.3629">
        <ele>141</ele>
        <time>2025-04-12T08:49:29Z</time>
      </trkpt>
      <trkpt lat="43.68983" lon="1.36294">
        <ele>141</ele>
        <time>2025-04-12T08:49:30Z</time>
      </trkpt>
      <trkpt lat="43.68983" lon="1.36298">
        <ele>140</ele>
        <time>2025-04-12T08:49:31Z</time>
      </trkpt>
      <trkpt lat="43.68984" lon="1.36302">
        <ele>140</ele>
        <time>2025-04-12T08:49:32Z</time>
      </trkpt>
      <trkpt lat="43.68985" lon="1.36307">
        <ele>140</ele>
        <time>2025-04-12T08:49:33Z</time>
      </trkpt>
      <trkpt lat="43.68986" lon="1.36311">
        <ele>140</ele>
        <time>2025-04-12T08:49:34Z</time>
      </trkpt>
      <trkpt lat="43.68986" lon="1.36311">
        <ele>139</ele>
        <time>2025-04-12T08:49:35Z</time>
      </trkpt>
      <trkpt lat="43.68987" lon="1.3632">
        <ele>139</ele>
        <time>2025-04-12T08:49:36Z</time>
      </trkpt>
      <trkpt lat="43.68987" lon="1.36325">
        <ele>139</ele>
        <time>2025-04-12T08:49:37Z</time>
      </trkpt>
      <trkpt lat="43.68987" lon="1.36329">
        <ele>139</ele>
        <time>2025-04-12T08:49:38Z</time>
      </trkpt>
      <trkpt lat="43.68986" lon="1.36332">
        <ele>139</ele>
        <time>2025-04-12T08:49:39Z</time>
      </trkpt>
      <trkpt lat="43.68985" lon="1.36335">
        <ele>139</ele>
        <time>2025-04-12T08:49:40Z</time>
      </trkpt>
      <trkpt lat="43.68985" lon="1.36341">
        <ele>139</ele>
        <time>2025-04-12T08:49:42Z</time>
      </trkpt>
      <trkpt lat="43.68985" lon="1.36341">
        <ele>139</ele>
        <time>2025-04-12T08:49:43Z</time>
      </trkpt>
      <trkpt lat="43.68989" lon="1.36343">
        <ele>138</ele>
        <time>2025-04-12T08:49:44Z</time>
      </trkpt>
      <trkpt lat="43.6899" lon="1.36347">
        <ele>137</ele>
        <time>2025-04-12T08:49:45Z</time>
      </trkpt>
      <trkpt lat="43.6899" lon="1.36352">
        <ele>137</ele>
        <time>2025-04-12T08:49:46Z</time>
      </trkpt>
      <trkpt lat="43.6899" lon="1.36357">
        <ele>137</ele>
        <time>2025-04-12T08:49:47Z</time>
      </trkpt>
      <trkpt lat="43.6899" lon="1.36357">
        <ele>137</ele>
        <time>2025-04-12T08:49:48Z</time>
      </trkpt>
      <trkpt lat="43.68988" lon="1.36365">
        <ele>137</ele>
        <time>2025-04-12T08:49:49Z</time>
      </trkpt>
      <trkpt lat="43.68988" lon="1.36365">
        <ele>137</ele>
        <time>2025-04-12T08:49:50Z</time>
      </trkpt>
      <trkpt lat="43.68987" lon="1.36366">
        <ele>137</ele>
        <time>2025-04-12T08:49:51Z</time>
      </trkpt>
      <trkpt lat="43.68986" lon="1.36367">
        <ele>137</ele>
        <time>2025-04-12T08:49:52Z</time>
      </trkpt>
      <trkpt lat="43.68985" lon="1.36368">
        <ele>137</ele>
        <time>2025-04-12T08:49:53Z</time>
      </trkpt>
      <trkpt lat="43.68984" lon="1.3637">
        <ele>137</ele>
        <time>2025-04-12T08:49:54Z</time>
      </trkpt>
      <trkpt lat="43.68979" lon="1.36376">
        <ele>137</ele>
        <time>2025-04-12T08:49:55Z</time>
      </trkpt>
      <trkpt lat="43.68978" lon="1.36378">
        <ele>137</ele>
        <time>2025-04-12T08:49:56Z</time>
      </trkpt>
      <trkpt lat="43.68977" lon="1.36381">
        <ele>137</ele>
        <time>2025-04-12T08:49:57Z</time>
      </trkpt>
      <trkpt lat="43.68975" lon="1.36383">
        <ele>137</ele>
        <time>2025-04-12T08:49:58Z</time>
      </trkpt>
      <trkpt lat="43.68974" lon="1.36385">
        <ele>137</ele>
        <time>2025-04-12T08:49:59Z</time>
      </trkpt>
      <trkpt lat="43.68973" lon="1.36388">
        <ele>136</ele>
        <time>2025-04-12T08:50:00Z</time>
      </trkpt>
      <trkpt lat="43.68973" lon="1.36388">
        <ele>136</ele>
        <time>2025-04-12T08:50:01Z</time>
      </trkpt>
      <trkpt lat="43.68975" lon="1.3639">
        <ele>135</ele>
        <time>2025-04-12T08:50:02Z</time>
      </trkpt>
      <trkpt lat="43.68975" lon="1.3639">
        <ele>134</ele>
        <time>2025-04-12T08:50:03Z</time>
      </trkpt>
      <trkpt lat="43.68976" lon="1.36393">
        <ele>134</ele>
        <time>2025-04-12T08:50:04Z</time>
      </trkpt>
      <trkpt lat="43.68977" lon="1.36395">
        <ele>133</ele>
        <time>2025-04-12T08:50:05Z</time>
      </trkpt>
      <trkpt lat="43.68977" lon="1.36397">
        <ele>133</ele>
        <time>2025-04-12T08:50:06Z</time>
      </trkpt>
      <trkpt lat="43.68978" lon="1.364">
        <ele>132</ele>
        <time>2025-04-12T08:50:07Z</time>
      </trkpt>
      <trkpt lat="43.68979" lon="1.36402">
        <ele>131</ele>
        <time>2025-04-12T08:50:08Z</time>
      </trkpt>
      <trkpt lat="43.68982" lon="1.36406">
        <ele>130</ele>
        <time>2025-04-12T08:50:09Z</time>
      </trkpt>
      <trkpt lat="43.68982" lon="1.36406">
        <ele>129</ele>
        <time>2025-04-12T08:50:10Z</time>
      </trkpt>
      <trkpt lat="43.68983" lon="1.36409">
        <ele>128</ele>
        <time>2025-04-12T08:50:11Z</time>
      </trkpt>
      <trkpt lat="43.68983" lon="1.36409">
        <ele>127</ele>
        <time>2025-04-12T08:50:12Z</time>
      </trkpt>
      <trkpt lat="43.68983" lon="1.36409">
        <ele>127</ele>
        <time>2025-04-12T08:50:13Z</time>
      </trkpt>
      <trkpt lat="43.68986" lon="1.36411">
        <ele>127</ele>
        <time>2025-04-12T08:50:14Z</time>
      </trkpt>
      <trkpt lat="43.68988" lon="1.3641">
        <ele>127</ele>
        <time>2025-04-12T08:50:15Z</time>
      </trkpt>
      <trkpt lat="43.6899" lon="1.36409">
        <ele>127</ele>
        <time>2025-04-12T08:50:16Z</time>
      </trkpt>
      <trkpt lat="43.68992" lon="1.36408">
        <ele>126</ele>
        <time>2025-04-12T08:50:17Z</time>
      </trkpt>
      <trkpt lat="43.68994" lon="1.36407">
        <ele>125</ele>
        <time>2025-04-12T08:50:18Z</time>
      </trkpt>
      <trkpt lat="43.68996" lon="1.36405">
        <ele>125</ele>
        <time>2025-04-12T08:50:19Z</time>
      </trkpt>
      <trkpt lat="43.68998" lon="1.36404">
        <ele>125</ele>
        <time>2025-04-12T08:50:20Z</time>
      </trkpt>
      <trkpt lat="43.69" lon="1.36403">
        <ele>125</ele>
        <time>2025-04-12T08:50:21Z</time>
      </trkpt>
      <trkpt lat="43.69" lon="1.36403">
        <ele>125</ele>
        <time>2025-04-12T08:50:22Z</time>
      </trkpt>
      <trkpt lat="43.69005" lon="1.364">
        <ele>125</ele>
        <time>2025-04-12T08:50:23Z</time>
      </trkpt>
      <trkpt lat="43.69006" lon="1.36399">
        <ele>125</ele>
        <time>2025-04-12T08:50:24Z</time>
      </trkpt>
      <trkpt lat="43.69008" lon="1.36399">
        <ele>125</ele>
        <time>2025-04-12T08:50:25Z</time>
      </trkpt>
      <trkpt lat="43.69011" lon="1.364">
        <ele>125</ele>
        <time>2025-04-12T08:50:26Z</time>
      </trkpt>
      <trkpt lat="43.69013" lon="1.36402">
        <ele>125</ele>
        <time>2025-04-12T08:50:27Z</time>
      </trkpt>
      <trkpt lat="43.69014" lon="1.36404">
        <ele>125</ele>
        <time>2025-04-12T08:50:28Z</time>
      </trkpt>
      <trkpt lat="43.69014" lon="1.36404">
        <ele>124</ele>
        <time>2025-04-12T08:50:29Z</time>
      </trkpt>
      <trkpt lat="43.69015" lon="1.36406">
        <ele>124</ele>
        <time>2025-04-12T08:50:30Z</time>
      </trkpt>
      <trkpt lat="43.69019" lon="1.36411">
        <ele>124</ele>
        <time>2025-04-12T08:50:31Z</time>
      </trkpt>
      <trkpt lat="43.6902" lon="1.36412">
        <ele>124</ele>
        <time>2025-04-12T08:50:32Z</time>
      </trkpt>
      <trkpt lat="43.6902" lon="1.36412">
        <ele>124</ele>
        <time>2025-04-12T08:50:33Z</time>
      </trkpt>
      <trkpt lat="43.69022" lon="1.36415">
        <ele>124</ele>
        <time>2025-04-12T08:50:34Z</time>
      </trkpt>
      <trkpt lat="43.69025" lon="1.36417">
        <ele>124</ele>
        <time>2025-04-12T08:50:35Z</time>
      </trkpt>
      <trkpt lat="43.69027" lon="1.3642">
        <ele>123</ele>
        <time>2025-04-12T08:50:36Z</time>
      </trkpt>
      <trkpt lat="43.6903" lon="1.36423">
        <ele>124</ele>
        <time>2025-04-12T08:50:37Z</time>
      </trkpt>
      <trkpt lat="43.69032" lon="1.36427">
        <ele>124</ele>
        <time>2025-04-12T08:50:38Z</time>
      </trkpt>
      <trkpt lat="43.69035" lon="1.3643">
        <ele>124</ele>
        <time>2025-04-12T08:50:39Z</time>
      </trkpt>
      <trkpt lat="43.69036" lon="1.36433">
        <ele>124</ele>
        <time>2025-04-12T08:50:40Z</time>
      </trkpt>
      <trkpt lat="43.69037" lon="1.36435">
        <ele>124</ele>
        <time>2025-04-12T08:50:41Z</time>
      </trkpt>
      <trkpt lat="43.69038" lon="1.36438">
        <ele>124</ele>
        <time>2025-04-12T08:50:42Z</time>
      </trkpt>
      <trkpt lat="43.69043" lon="1.3645">
        <ele>123</ele>
        <time>2025-04-12T08:50:43Z</time>
      </trkpt>
      <trkpt lat="43.69044" lon="1.36453">
        <ele>123</ele>
        <time>2025-04-12T08:50:44Z</time>
      </trkpt>
      <trkpt lat="43.69046" lon="1.36457">
        <ele>124</ele>
        <time>2025-04-12T08:50:45Z</time>
      </trkpt>
      <trkpt lat="43.69047" lon="1.36461">
        <ele>124</ele>
        <time>2025-04-12T08:50:46Z</time>
      </trkpt>
      <trkpt lat="43.69048" lon="1.36464">
        <ele>124</ele>
        <time>2025-04-12T08:50:47Z</time>
      </trkpt>
      <trkpt lat="43.6905" lon="1.36467">
        <ele>124</ele>
        <time>2025-04-12T08:50:48Z</time>
      </trkpt>
      <trkpt lat="43.69051" lon="1.36469">
        <ele>124</ele>
        <time>2025-04-12T08:50:49Z</time>
      </trkpt>
      <trkpt lat="43.69053" lon="1.36472">
        <ele>124</ele>
        <time>2025-04-12T08:50:50Z</time>
      </trkpt>
      <trkpt lat="43.69054" lon="1.36474">
        <ele>124</ele>
        <time>2025-04-12T08:50:51Z</time>
      </trkpt>
      <trkpt lat="43.69055" lon="1.36476">
        <ele>124</ele>
        <time>2025-04-12T08:50:52Z</time>
      </trkpt>
      <trkpt lat="43.69057" lon="1.36478">
        <ele>124</ele>
        <time>2025-04-12T08:50:53Z</time>
      </trkpt>
      <trkpt lat="43.69058" lon="1.3648">
        <ele>124</ele>
        <time>2025-04-12T08:50:54Z</time>
      </trkpt>
      <trkpt lat="43.6906" lon="1.36482">
        <ele>124</ele>
        <time>2025-04-12T08:50:55Z</time>
      </trkpt>
      <trkpt lat="43.69061" lon="1.36484">
        <ele>124</ele>
        <time>2025-04-12T08:50:56Z</time>
      </trkpt>
      <trkpt lat="43.69062" lon="1.36487">
        <ele>124</ele>
        <time>2025-04-12T08:50:57Z</time>
      </trkpt>
      <trkpt lat="43.69063" lon="1.36489">
        <ele>124</ele>
        <time>2025-04-12T08:50:58Z</time>
      </trkpt>
      <trkpt lat="43.69064" lon="1.36491">
        <ele>124</ele>
        <time>2025-04-12T08:50:59Z</time>
      </trkpt>
      <trkpt lat="43.69065" lon="1.36494">
        <ele>124</ele>
        <time>2025-04-12T08:51:00Z</time>
      </trkpt>
      <trkpt lat="43.69066" lon="1.36497">
        <ele>124</ele>
        <time>2025-04-12T08:51:01Z</time>
      </trkpt>
      <trkpt lat="43.69066" lon="1.36499">
        <ele>124</ele>
        <time>2025-04-12T08:51:02Z</time>
      </trkpt>
      <trkpt lat="43.69067" lon="1.36502">
        <ele>124</ele>
        <time>2025-04-12T08:51:03Z</time>
      </trkpt>
      <trkpt lat="43.69068" lon="1.36505">
        <ele>124</ele>
        <time>2025-04-12T08:51:04Z</time>
      </trkpt>
      <trkpt lat="43.69069" lon="1.36508">
        <ele>124</ele>
        <time>2025-04-12T08:51:05Z</time>
      </trkpt>
      <trkpt lat="43.6907" lon="1.3651">
        <ele>124</ele>
        <time>2025-04-12T08:51:06Z</time>
      </trkpt>
      <trkpt lat="43.69071" lon="1.36512">
        <ele>125</ele>
        <time>2025-04-12T08:51:07Z</time>
      </trkpt>
      <trkpt lat="43.69072" lon="1.36515">
        <ele>125</ele>
        <time>2025-04-12T08:51:08Z</time>
      </trkpt>
      <trkpt lat="43.69072" lon="1.36517">
        <ele>125</ele>
        <time>2025-04-12T08:51:09Z</time>
      </trkpt>
      <trkpt lat="43.69072" lon="1.36517">
        <ele>125</ele>
        <time>2025-04-12T08:51:10Z</time>
      </trkpt>
      <trkpt lat="43.69078" lon="1.36519">
        <ele>124</ele>
        <time>2025-04-12T08:51:11Z</time>
      </trkpt>
      <trkpt lat="43.69078" lon="1.36519">
        <ele>124</ele>
        <time>2025-04-12T08:51:12Z</time>
      </trkpt>
      <trkpt lat="43.69081" lon="1.36518">
        <ele>124</ele>
        <time>2025-04-12T08:51:13Z</time>
      </trkpt>
      <trkpt lat="43.69083" lon="1.36518">
        <ele>124</ele>
        <time>2025-04-12T08:51:14Z</time>
      </trkpt>
      <trkpt lat="43.69083" lon="1.36518">
        <ele>124</ele>
        <time>2025-04-12T08:51:15Z</time>
      </trkpt>
      <trkpt lat="43.69086" lon="1.36517">
        <ele>124</ele>
        <time>2025-04-12T08:51:16Z</time>
      </trkpt>
      <trkpt lat="43.69086" lon="1.36517">
        <ele>124</ele>
        <time>2025-04-12T08:51:17Z</time>
      </trkpt>
      <trkpt lat="43.69089" lon="1.36516">
        <ele>125</ele>
        <time>2025-04-12T08:51:18Z</time>
      </trkpt>
      <trkpt lat="43.69091" lon="1.36517">
        <ele>125</ele>
        <time>2025-04-12T08:51:19Z</time>
      </trkpt>
      <trkpt lat="43.69091" lon="1.36517">
        <ele>125</ele>
        <time>2025-04-12T08:51:20Z</time>
      </trkpt>
      <trkpt lat="43.69096" lon="1.36519">
        <ele>125</ele>
        <time>2025-04-12T08:51:21Z</time>
      </trkpt>
      <trkpt lat="43.69098" lon="1.3652">
        <ele>125</ele>
        <time>2025-04-12T08:51:22Z</time>
      </trkpt>
      <trkpt lat="43.691" lon="1.3652">
        <ele>125</ele>
        <time>2025-04-12T08:51:23Z</time>
      </trkpt>
      <trkpt lat="43.69103" lon="1.36522">
        <ele>125</ele>
        <time>2025-04-12T08:51:24Z</time>
      </trkpt>
      <trkpt lat="43.69106" lon="1.36523">
        <ele>125</ele>
        <time>2025-04-12T08:51:25Z</time>
      </trkpt>
      <trkpt lat="43.6911" lon="1.36527">
        <ele>126</ele>
        <time>2025-04-12T08:51:26Z</time>
      </trkpt>
      <trkpt lat="43.6911" lon="1.36527">
        <ele>126</ele>
        <time>2025-04-12T08:51:27Z</time>
      </trkpt>
      <trkpt lat="43.69118" lon="1.36534">
        <ele>126</ele>
        <time>2025-04-12T08:51:28Z</time>
      </trkpt>
      <trkpt lat="43.69118" lon="1.36534">
        <ele>126</ele>
        <time>2025-04-12T08:51:29Z</time>
      </trkpt>
      <trkpt lat="43.69122" lon="1.36539">
        <ele>125</ele>
        <time>2025-04-12T08:51:30Z</time>
      </trkpt>
      <trkpt lat="43.69132" lon="1.36548">
        <ele>125</ele>
        <time>2025-04-12T08:51:31Z</time>
      </trkpt>
      <trkpt lat="43.69136" lon="1.36552">
        <ele>124</ele>
        <time>2025-04-12T08:51:32Z</time>
      </trkpt>
      <trkpt lat="43.6914" lon="1.36556">
        <ele>125</ele>
        <time>2025-04-12T08:51:33Z</time>
      </trkpt>
      <trkpt lat="43.69144" lon="1.3656">
        <ele>125</ele>
        <time>2025-04-12T08:51:34Z</time>
      </trkpt>
      <trkpt lat="43.69147" lon="1.36564">
        <ele>125</ele>
        <time>2025-04-12T08:51:35Z</time>
      </trkpt>
      <trkpt lat="43.6915" lon="1.36567">
        <ele>125</ele>
        <time>2025-04-12T08:51:36Z</time>
      </trkpt>
      <trkpt lat="43.69153" lon="1.36571">
        <ele>125</ele>
        <time>2025-04-12T08:51:37Z</time>
      </trkpt>
      <trkpt lat="43.69156" lon="1.36574">
        <ele>125</ele>
        <time>2025-04-12T08:51:38Z</time>
      </trkpt>
      <trkpt lat="43.69156" lon="1.36574">
        <ele>125</ele>
        <time>2025-04-12T08:51:39Z</time>
      </trkpt>
      <trkpt lat="43.69161" lon="1.36581">
        <ele>125</ele>
        <time>2025-04-12T08:51:40Z</time>
      </trkpt>
      <trkpt lat="43.69163" lon="1.36583">
        <ele>125</ele>
        <time>2025-04-12T08:51:41Z</time>
      </trkpt>
      <trkpt lat="43.69164" lon="1.36585">
        <ele>125</ele>
        <time>2025-04-12T08:51:42Z</time>
      </trkpt>
      <trkpt lat="43.69166" lon="1.36588">
        <ele>125</ele>
        <time>2025-04-12T08:51:43Z</time>
      </trkpt>
      <trkpt lat="43.69168" lon="1.3659">
        <ele>125</ele>
        <time>2025-04-12T08:51:44Z</time>
      </trkpt>
      <trkpt lat="43.6917" lon="1.36593">
        <ele>124</ele>
        <time>2025-04-12T08:51:45Z</time>
      </trkpt>
      <trkpt lat="43.69172" lon="1.36596">
        <ele>124</ele>
        <time>2025-04-12T08:51:46Z</time>
      </trkpt>
      <trkpt lat="43.69174" lon="1.36598">
        <ele>124</ele>
        <time>2025-04-12T08:51:47Z</time>
      </trkpt>
      <trkpt lat="43.69176" lon="1.366">
        <ele>124</ele>
        <time>2025-04-12T08:51:49Z</time>
      </trkpt>
      <trkpt lat="43.69181" lon="1.36604">
        <ele>124</ele>
        <time>2025-04-12T08:51:50Z</time>
      </trkpt>
      <trkpt lat="43.69183" lon="1.36605">
        <ele>124</ele>
        <time>2025-04-12T08:51:51Z</time>
      </trkpt>
      <trkpt lat="43.69185" lon="1.36606">
        <ele>124</ele>
        <time>2025-04-12T08:51:52Z</time>
      </trkpt>
      <trkpt lat="43.69185" lon="1.36606">
        <ele>124</ele>
        <time>2025-04-12T08:51:53Z</time>
      </trkpt>
      <trkpt lat="43.69188" lon="1.36606">
        <ele>124</ele>
        <time>2025-04-12T08:51:54Z</time>
      </trkpt>
      <trkpt lat="43.69188" lon="1.36606">
        <ele>124</ele>
        <time>2025-04-12T08:51:55Z</time>
      </trkpt>
      <trkpt lat="43.69192" lon="1.36608">
        <ele>124</ele>
        <time>2025-04-12T08:51:56Z</time>
      </trkpt>
      <trkpt lat="43.69194" lon="1.36608">
        <ele>124</ele>
        <time>2025-04-12T08:51:57Z</time>
      </trkpt>
      <trkpt lat="43.69194" lon="1.36608">
        <ele>124</ele>
        <time>2025-04-12T08:51:58Z</time>
      </trkpt>
      <trkpt lat="43.69196" lon="1.36608">
        <ele>124</ele>
        <time>2025-04-12T08:51:59Z</time>
      </trkpt>
      <trkpt lat="43.692" lon="1.36608">
        <ele>124</ele>
        <time>2025-04-12T08:52:00Z</time>
      </trkpt>
      <trkpt lat="43.69201" lon="1.36608">
        <ele>124</ele>
        <time>2025-04-12T08:52:01Z</time>
      </trkpt>
      <trkpt lat="43.69201" lon="1.36608">
        <ele>124</ele>
        <time>2025-04-12T08:52:02Z</time>
      </trkpt>
      <trkpt lat="43.69205" lon="1.36604">
        <ele>124</ele>
        <time>2025-04-12T08:52:03Z</time>
      </trkpt>
      <trkpt lat="43.69206" lon="1.36602">
        <ele>124</ele>
        <time>2025-04-12T08:52:04Z</time>
      </trkpt>
      <trkpt lat="43.69208" lon="1.366">
        <ele>124</ele>
        <time>2025-04-12T08:52:05Z</time>
      </trkpt>
      <trkpt lat="43.6921" lon="1.36598">
        <ele>124</ele>
        <time>2025-04-12T08:52:06Z</time>
      </trkpt>
      <trkpt lat="43.6921" lon="1.36598">
        <ele>124</ele>
        <time>2025-04-12T08:52:07Z</time>
      </trkpt>
      <trkpt lat="43.69214" lon="1.36599">
        <ele>124</ele>
        <time>2025-04-12T08:52:08Z</time>
      </trkpt>
      <trkpt lat="43.69214" lon="1.36599">
        <ele>124</ele>
        <time>2025-04-12T08:52:09Z</time>
      </trkpt>
      <trkpt lat="43.69218" lon="1.36605">
        <ele>124</ele>
        <time>2025-04-12T08:52:10Z</time>
      </trkpt>
      <trkpt lat="43.69219" lon="1.36607">
        <ele>124</ele>
        <time>2025-04-12T08:52:11Z</time>
      </trkpt>
      <trkpt lat="43.69221" lon="1.36608">
        <ele>124</ele>
        <time>2025-04-12T08:52:12Z</time>
      </trkpt>
      <trkpt lat="43.69221" lon="1.36608">
        <ele>124</ele>
        <time>2025-04-12T08:52:13Z</time>
      </trkpt>
      <trkpt lat="43.69224" lon="1.36607">
        <ele>124</ele>
        <time>2025-04-12T08:52:14Z</time>
      </trkpt>
      <trkpt lat="43.69227" lon="1.36605">
        <ele>124</ele>
        <time>2025-04-12T08:52:15Z</time>
      </trkpt>
      <trkpt lat="43.69227" lon="1.36605">
        <ele>124</ele>
        <time>2025-04-12T08:52:16Z</time>
      </trkpt>
      <trkpt lat="43.69233" lon="1.36603">
        <ele>124</ele>
        <time>2025-04-12T08:52:17Z</time>
      </trkpt>
      <trkpt lat="43.69236" lon="1.36602">
        <ele>124</ele>
        <time>2025-04-12T08:52:18Z</time>
      </trkpt>
      <trkpt lat="43.69238" lon="1.36601">
        <ele>124</ele>
        <time>2025-04-12T08:52:19Z</time>
      </trkpt>
      <trkpt lat="43.69241" lon="1.36602">
        <ele>124</ele>
        <time>2025-04-12T08:52:20Z</time>
      </trkpt>
      <trkpt lat="43.69244" lon="1.36602">
        <ele>124</ele>
        <time>2025-04-12T08:52:21Z</time>
      </trkpt>
      <trkpt lat="43.69246" lon="1.36601">
        <ele>124</ele>
        <time>2025-04-12T08:52:22Z</time>
      </trkpt>
      <trkpt lat="43.69249" lon="1.36601">
        <ele>124</ele>
        <time>2025-04-12T08:52:23Z</time>
      </trkpt>
      <trkpt lat="43.6925" lon="1.366">
        <ele>123</ele>
        <time>2025-04-12T08:52:24Z</time>
      </trkpt>
      <trkpt lat="43.69253" lon="1.36599">
        <ele>123</ele>
        <time>2025-04-12T08:52:25Z</time>
      </trkpt>
      <trkpt lat="43.69253" lon="1.36599">
        <ele>123</ele>
        <time>2025-04-12T08:52:26Z</time>
      </trkpt>
      <trkpt lat="43.69257" lon="1.36599">
        <ele>123</ele>
        <time>2025-04-12T08:52:27Z</time>
      </trkpt>
      <trkpt lat="43.69257" lon="1.36599">
        <ele>123</ele>
        <time>2025-04-12T08:52:28Z</time>
      </trkpt>
      <trkpt lat="43.69262" lon="1.366">
        <ele>124</ele>
        <time>2025-04-12T08:52:29Z</time>
      </trkpt>
      <trkpt lat="43.69265" lon="1.366">
        <ele>124</ele>
        <time>2025-04-12T08:52:30Z</time>
      </trkpt>
      <trkpt lat="43.69267" lon="1.366">
        <ele>124</ele>
        <time>2025-04-12T08:52:31Z</time>
      </trkpt>
      <trkpt lat="43.6927" lon="1.366">
        <ele>124</ele>
        <time>2025-04-12T08:52:32Z</time>
      </trkpt>
      <trkpt lat="43.69272" lon="1.366">
        <ele>124</ele>
        <time>2025-04-12T08:52:33Z</time>
      </trkpt>
      <trkpt lat="43.69274" lon="1.36601">
        <ele>124</ele>
        <time>2025-04-12T08:52:34Z</time>
      </trkpt>
      <trkpt lat="43.69277" lon="1.36601">
        <ele>124</ele>
        <time>2025-04-12T08:52:35Z</time>
      </trkpt>
      <trkpt lat="43.69279" lon="1.36601">
        <ele>124</ele>
        <time>2025-04-12T08:52:36Z</time>
      </trkpt>
      <trkpt lat="43.69282" lon="1.36602">
        <ele>124</ele>
        <time>2025-04-12T08:52:37Z</time>
      </trkpt>
      <trkpt lat="43.69282" lon="1.36602">
        <ele>124</ele>
        <time>2025-04-12T08:52:38Z</time>
      </trkpt>
      <trkpt lat="43.69291" lon="1.36607">
        <ele>124</ele>
        <time>2025-04-12T08:52:39Z</time>
      </trkpt>
      <trkpt lat="43.69291" lon="1.36607">
        <ele>124</ele>
        <time>2025-04-12T08:52:40Z</time>
      </trkpt>
      <trkpt lat="43.69295" lon="1.36608">
        <ele>124</ele>
        <time>2025-04-12T08:52:41Z</time>
      </trkpt>
      <trkpt lat="43.69299" lon="1.36609">
        <ele>124</ele>
        <time>2025-04-12T08:52:42Z</time>
      </trkpt>
      <trkpt lat="43.69304" lon="1.3661">
        <ele>124</ele>
        <time>2025-04-12T08:52:43Z</time>
      </trkpt>
      <trkpt lat="43.69306" lon="1.36611">
        <ele>124</ele>
        <time>2025-04-12T08:52:44Z</time>
      </trkpt>
      <trkpt lat="43.69308" lon="1.36612">
        <ele>124</ele>
        <time>2025-04-12T08:52:45Z</time>
      </trkpt>
      <trkpt lat="43.6931" lon="1.36613">
        <ele>124</ele>
        <time>2025-04-12T08:52:46Z</time>
      </trkpt>
      <trkpt lat="43.6931" lon="1.36613">
        <ele>124</ele>
        <time>2025-04-12T08:52:47Z</time>
      </trkpt>
      <trkpt lat="43.69315" lon="1.36615">
        <ele>124</ele>
        <time>2025-04-12T08:52:48Z</time>
      </trkpt>
      <trkpt lat="43.69317" lon="1.36615">
        <ele>124</ele>
        <time>2025-04-12T08:52:49Z</time>
      </trkpt>
      <trkpt lat="43.69317" lon="1.36615">
        <ele>124</ele>
        <time>2025-04-12T08:52:50Z</time>
      </trkpt>
      <trkpt lat="43.69322" lon="1.36616">
        <ele>124</ele>
        <time>2025-04-12T08:52:51Z</time>
      </trkpt>
      <trkpt lat="43.69322" lon="1.36616">
        <ele>124</ele>
        <time>2025-04-12T08:52:52Z</time>
      </trkpt>
      <trkpt lat="43.69327" lon="1.36617">
        <ele>124</ele>
        <time>2025-04-12T08:52:53Z</time>
      </trkpt>
      <trkpt lat="43.69329" lon="1.36619">
        <ele>124</ele>
        <time>2025-04-12T08:52:54Z</time>
      </trkpt>
      <trkpt lat="43.69329" lon="1.36619">
        <ele>124</ele>
        <time>2025-04-12T08:52:55Z</time>
      </trkpt>
      <trkpt lat="43.69332" lon="1.36621">
        <ele>124</ele>
        <time>2025-04-12T08:52:56Z</time>
      </trkpt>
      <trkpt lat="43.69332" lon="1.36621">
        <ele>124</ele>
        <time>2025-04-12T08:52:57Z</time>
      </trkpt>
      <trkpt lat="43.69335" lon="1.36622">
        <ele>125</ele>
        <time>2025-04-12T08:52:58Z</time>
      </trkpt>
      <trkpt lat="43.69335" lon="1.36622">
        <ele>125</ele>
        <time>2025-04-12T08:52:59Z</time>
      </trkpt>
      <trkpt lat="43.69338" lon="1.36623">
        <ele>125</ele>
        <time>2025-04-12T08:53:00Z</time>
      </trkpt>
      <trkpt lat="43.69342" lon="1.36625">
        <ele>125</ele>
        <time>2025-04-12T08:53:01Z</time>
      </trkpt>
      <trkpt lat="43.69345" lon="1.36626">
        <ele>125</ele>
        <time>2025-04-12T08:53:02Z</time>
      </trkpt>
      <trkpt lat="43.69347" lon="1.36626">
        <ele>125</ele>
        <time>2025-04-12T08:53:03Z</time>
      </trkpt>
      <trkpt lat="43.69349" lon="1.36627">
        <ele>125</ele>
        <time>2025-04-12T08:53:04Z</time>
      </trkpt>
      <trkpt lat="43.69351" lon="1.36628">
        <ele>125</ele>
        <time>2025-04-12T08:53:05Z</time>
      </trkpt>
      <trkpt lat="43.69351" lon="1.36628">
        <ele>125</ele>
        <time>2025-04-12T08:53:06Z</time>
      </trkpt>
      <trkpt lat="43.69358" lon="1.36631">
        <ele>125</ele>
        <time>2025-04-12T08:53:07Z</time>
      </trkpt>
      <trkpt lat="43.69361" lon="1.36632">
        <ele>125</ele>
        <time>2025-04-12T08:53:08Z</time>
      </trkpt>
      <trkpt lat="43.69365" lon="1.36634">
        <ele>125</ele>
        <time>2025-04-12T08:53:09Z</time>
      </trkpt>
      <trkpt lat="43.69368" lon="1.36635">
        <ele>125</ele>
        <time>2025-04-12T08:53:10Z</time>
      </trkpt>
      <trkpt lat="43.69368" lon="1.36635">
        <ele>125</ele>
        <time>2025-04-12T08:53:11Z</time>
      </trkpt>
      <trkpt lat="43.69374" lon="1.36637">
        <ele>125</ele>
        <time>2025-04-12T08:53:12Z</time>
      </trkpt>
      <trkpt lat="43.69374" lon="1.36637">
        <ele>125</ele>
        <time>2025-04-12T08:53:13Z</time>
      </trkpt>
      <trkpt lat="43.69379" lon="1.36639">
        <ele>125</ele>
        <time>2025-04-12T08:53:14Z</time>
      </trkpt>
      <trkpt lat="43.69381" lon="1.3664">
        <ele>125</ele>
        <time>2025-04-12T08:53:15Z</time>
      </trkpt>
      <trkpt lat="43.69384" lon="1.3664">
        <ele>125</ele>
        <time>2025-04-12T08:53:16Z</time>
      </trkpt>
      <trkpt lat="43.69386" lon="1.3664">
        <ele>125</ele>
        <time>2025-04-12T08:53:17Z</time>
      </trkpt>
      <trkpt lat="43.69386" lon="1.3664">
        <ele>125</ele>
        <time>2025-04-12T08:53:18Z</time>
      </trkpt>
      <trkpt lat="43.69391" lon="1.36644">
        <ele>125</ele>
        <time>2025-04-12T08:53:19Z</time>
      </trkpt>
      <trkpt lat="43.69393" lon="1.36648">
        <ele>125</ele>
        <time>2025-04-12T08:53:20Z</time>
      </trkpt>
      <trkpt lat="43.69395" lon="1.36652">
        <ele>125</ele>
        <time>2025-04-12T08:53:21Z</time>
      </trkpt>
      <trkpt lat="43.69396" lon="1.36655">
        <ele>125</ele>
        <time>2025-04-12T08:53:22Z</time>
      </trkpt>
      <trkpt lat="43.69396" lon="1.36655">
        <ele>125</ele>
        <time>2025-04-12T08:53:23Z</time>
      </trkpt>
      <trkpt lat="43.69399" lon="1.36661">
        <ele>125</ele>
        <time>2025-04-12T08:53:24Z</time>
      </trkpt>
      <trkpt lat="43.69401" lon="1.36664">
        <ele>125</ele>
        <time>2025-04-12T08:53:25Z</time>
      </trkpt>
      <trkpt lat="43.69403" lon="1.36668">
        <ele>125</ele>
        <time>2025-04-12T08:53:26Z</time>
      </trkpt>
      <trkpt lat="43.69405" lon="1.3667">
        <ele>125</ele>
        <time>2025-04-12T08:53:27Z</time>
      </trkpt>
      <trkpt lat="43.69407" lon="1.36673">
        <ele>125</ele>
        <time>2025-04-12T08:53:28Z</time>
      </trkpt>
      <trkpt lat="43.6941" lon="1.36674">
        <ele>125</ele>
        <time>2025-04-12T08:53:29Z</time>
      </trkpt>
      <trkpt lat="43.69413" lon="1.36676">
        <ele>125</ele>
        <time>2025-04-12T08:53:30Z</time>
      </trkpt>
      <trkpt lat="43.69413" lon="1.36676">
        <ele>125</ele>
        <time>2025-04-12T08:53:31Z</time>
      </trkpt>
      <trkpt lat="43.69416" lon="1.36677">
        <ele>125</ele>
        <time>2025-04-12T08:53:32Z</time>
      </trkpt>
      <trkpt lat="43.6942" lon="1.36678">
        <ele>125</ele>
        <time>2025-04-12T08:53:33Z</time>
      </trkpt>
      <trkpt lat="43.69424" lon="1.36679">
        <ele>124</ele>
        <time>2025-04-12T08:53:34Z</time>
      </trkpt>
      <trkpt lat="43.69426" lon="1.3668">
        <ele>124</ele>
        <time>2025-04-12T08:53:35Z</time>
      </trkpt>
      <trkpt lat="43.69429" lon="1.3668">
        <ele>125</ele>
        <time>2025-04-12T08:53:36Z</time>
      </trkpt>
      <trkpt lat="43.69431" lon="1.3668">
        <ele>125</ele>
        <time>2025-04-12T08:53:37Z</time>
      </trkpt>
      <trkpt lat="43.69431" lon="1.3668">
        <ele>125</ele>
        <time>2025-04-12T08:53:38Z</time>
      </trkpt>
      <trkpt lat="43.69436" lon="1.36681">
        <ele>125</ele>
        <time>2025-04-12T08:53:39Z</time>
      </trkpt>
      <trkpt lat="43.69439" lon="1.36683">
        <ele>125</ele>
        <time>2025-04-12T08:53:40Z</time>
      </trkpt>
      <trkpt lat="43.69442" lon="1.36684">
        <ele>125</ele>
        <time>2025-04-12T08:53:41Z</time>
      </trkpt>
      <trkpt lat="43.69442" lon="1.36684">
        <ele>125</ele>
        <time>2025-04-12T08:53:42Z</time>
      </trkpt>
      <trkpt lat="43.69448" lon="1.36685">
        <ele>125</ele>
        <time>2025-04-12T08:53:43Z</time>
      </trkpt>
      <trkpt lat="43.6945" lon="1.36685">
        <ele>125</ele>
        <time>2025-04-12T08:53:44Z</time>
      </trkpt>
      <trkpt lat="43.6945" lon="1.36685">
        <ele>125</ele>
        <time>2025-04-12T08:53:45Z</time>
      </trkpt>
      <trkpt lat="43.69453" lon="1.36685">
        <ele>125</ele>
        <time>2025-04-12T08:53:46Z</time>
      </trkpt>
      <trkpt lat="43.69456" lon="1.36686">
        <ele>125</ele>
        <time>2025-04-12T08:53:47Z</time>
      </trkpt>
      <trkpt lat="43.6946" lon="1.36686">
        <ele>125</ele>
        <time>2025-04-12T08:53:48Z</time>
      </trkpt>
      <trkpt lat="43.69463" lon="1.36687">
        <ele>125</ele>
        <time>2025-04-12T08:53:49Z</time>
      </trkpt>
      <trkpt lat="43.69468" lon="1.36687">
        <ele>126</ele>
        <time>2025-04-12T08:53:50Z</time>
      </trkpt>
      <trkpt lat="43.69469" lon="1.36687">
        <ele>126</ele>
        <time>2025-04-12T08:53:51Z</time>
      </trkpt>
      <trkpt lat="43.69472" lon="1.36687">
        <ele>126</ele>
        <time>2025-04-12T08:53:52Z</time>
      </trkpt>
      <trkpt lat="43.69475" lon="1.36687">
        <ele>126</ele>
        <time>2025-04-12T08:53:53Z</time>
      </trkpt>
      <trkpt lat="43.6948" lon="1.36687">
        <ele>126</ele>
        <time>2025-04-12T08:53:55Z</time>
      </trkpt>
      <trkpt lat="43.69482" lon="1.36687">
        <ele>126</ele>
        <time>2025-04-12T08:53:56Z</time>
      </trkpt>
      <trkpt lat="43.69484" lon="1.36688">
        <ele>126</ele>
        <time>2025-04-12T08:53:57Z</time>
      </trkpt>
      <trkpt lat="43.69487" lon="1.36688">
        <ele>126</ele>
        <time>2025-04-12T08:53:58Z</time>
      </trkpt>
      <trkpt lat="43.6949" lon="1.36687">
        <ele>126</ele>
        <time>2025-04-12T08:53:59Z</time>
      </trkpt>
      <trkpt lat="43.6949" lon="1.36687">
        <ele>126</ele>
        <time>2025-04-12T08:54:00Z</time>
      </trkpt>
      <trkpt lat="43.69493" lon="1.36688">
        <ele>126</ele>
        <time>2025-04-12T08:54:01Z</time>
      </trkpt>
      <trkpt lat="43.69502" lon="1.36694">
        <ele>126</ele>
        <time>2025-04-12T08:54:02Z</time>
      </trkpt>
      <trkpt lat="43.69502" lon="1.36694">
        <ele>126</ele>
        <time>2025-04-12T08:54:03Z</time>
      </trkpt>
      <trkpt lat="43.69505" lon="1.36698">
        <ele>126</ele>
        <time>2025-04-12T08:54:04Z</time>
      </trkpt>
      <trkpt lat="43.69511" lon="1.36701">
        <ele>125</ele>
        <time>2025-04-12T08:54:05Z</time>
      </trkpt>
      <trkpt lat="43.69512" lon="1.36701">
        <ele>125</ele>
        <time>2025-04-12T08:54:06Z</time>
      </trkpt>
      <trkpt lat="43.69514" lon="1.36702">
        <ele>125</ele>
        <time>2025-04-12T08:54:07Z</time>
      </trkpt>
      <trkpt lat="43.69514" lon="1.36702">
        <ele>125</ele>
        <time>2025-04-12T08:54:08Z</time>
      </trkpt>
      <trkpt lat="43.6952" lon="1.36703">
        <ele>125</ele>
        <time>2025-04-12T08:54:09Z</time>
      </trkpt>
      <trkpt lat="43.6952" lon="1.36703">
        <ele>125</ele>
        <time>2025-04-12T08:54:10Z</time>
      </trkpt>
      <trkpt lat="43.69525" lon="1.36704">
        <ele>126</ele>
        <time>2025-04-12T08:54:11Z</time>
      </trkpt>
      <trkpt lat="43.69528" lon="1.36705">
        <ele>126</ele>
        <time>2025-04-12T08:54:12Z</time>
      </trkpt>
      <trkpt lat="43.69528" lon="1.36705">
        <ele>126</ele>
        <time>2025-04-12T08:54:13Z</time>
      </trkpt>
      <trkpt lat="43.69529" lon="1.36706">
        <ele>126</ele>
        <time>2025-04-12T08:54:14Z</time>
      </trkpt>
      <trkpt lat="43.69532" lon="1.36706">
        <ele>126</ele>
        <time>2025-04-12T08:54:15Z</time>
      </trkpt>
      <trkpt lat="43.69534" lon="1.36706">
        <ele>126</ele>
        <time>2025-04-12T08:54:16Z</time>
      </trkpt>
      <trkpt lat="43.69536" lon="1.36706">
        <ele>126</ele>
        <time>2025-04-12T08:54:17Z</time>
      </trkpt>
      <trkpt lat="43.69538" lon="1.36706">
        <ele>126</ele>
        <time>2025-04-12T08:54:18Z</time>
      </trkpt>
      <trkpt lat="43.69541" lon="1.36706">
        <ele>125</ele>
        <time>2025-04-12T08:54:19Z</time>
      </trkpt>
      <trkpt lat="43.69543" lon="1.36705">
        <ele>125</ele>
        <time>2025-04-12T08:54:20Z</time>
      </trkpt>
      <trkpt lat="43.69545" lon="1.36704">
        <ele>125</ele>
        <time>2025-04-12T08:54:21Z</time>
      </trkpt>
      <trkpt lat="43.69548" lon="1.36703">
        <ele>125</ele>
        <time>2025-04-12T08:54:22Z</time>
      </trkpt>
      <trkpt lat="43.6955" lon="1.36702">
        <ele>125</ele>
        <time>2025-04-12T08:54:23Z</time>
      </trkpt>
      <trkpt lat="43.69555" lon="1.36697">
        <ele>125</ele>
        <time>2025-04-12T08:54:24Z</time>
      </trkpt>
      <trkpt lat="43.69556" lon="1.36696">
        <ele>125</ele>
        <time>2025-04-12T08:54:25Z</time>
      </trkpt>
      <trkpt lat="43.69558" lon="1.36693">
        <ele>125</ele>
        <time>2025-04-12T08:54:26Z</time>
      </trkpt>
      <trkpt lat="43.69561" lon="1.36692">
        <ele>125</ele>
        <time>2025-04-12T08:54:27Z</time>
      </trkpt>
      <trkpt lat="43.69562" lon="1.36691">
        <ele>125</ele>
        <time>2025-04-12T08:54:28Z</time>
      </trkpt>
      <trkpt lat="43.69565" lon="1.36691">
        <ele>125</ele>
        <time>2025-04-12T08:54:29Z</time>
      </trkpt>
      <trkpt lat="43.69565" lon="1.36691">
        <ele>125</ele>
        <time>2025-04-12T08:54:30Z</time>
      </trkpt>
      <trkpt lat="43.69568" lon="1.36692">
        <ele>125</ele>
        <time>2025-04-12T08:54:31Z</time>
      </trkpt>
      <trkpt lat="43.69568" lon="1.36692">
        <ele>125</ele>
        <time>2025-04-12T08:54:32Z</time>
      </trkpt>
      <trkpt lat="43.69573" lon="1.36694">
        <ele>125</ele>
        <time>2025-04-12T08:54:33Z</time>
      </trkpt>
      <trkpt lat="43.69576" lon="1.36695">
        <ele>125</ele>
        <time>2025-04-12T08:54:34Z</time>
      </trkpt>
      <trkpt lat="43.69578" lon="1.36697">
        <ele>125</ele>
        <time>2025-04-12T08:54:35Z</time>
      </trkpt>
      <trkpt lat="43.69581" lon="1.36698">
        <ele>125</ele>
        <time>2025-04-12T08:54:36Z</time>
      </trkpt>
      <trkpt lat="43.69581" lon="1.36698">
        <ele>125</ele>
        <time>2025-04-12T08:54:37Z</time>
      </trkpt>
      <trkpt lat="43.69586" lon="1.367">
        <ele>125</ele>
        <time>2025-04-12T08:54:38Z</time>
      </trkpt>
      <trkpt lat="43.69592" lon="1.36704">
        <ele>125</ele>
        <time>2025-04-12T08:54:40Z</time>
      </trkpt>
      <trkpt lat="43.69595" lon="1.36706">
        <ele>125</ele>
        <time>2025-04-12T08:54:41Z</time>
      </trkpt>
      <trkpt lat="43.69598" lon="1.36708">
        <ele>125</ele>
        <time>2025-04-12T08:54:42Z</time>
      </trkpt>
      <trkpt lat="43.696" lon="1.3671">
        <ele>125</ele>
        <time>2025-04-12T08:54:43Z</time>
      </trkpt>
      <trkpt lat="43.696" lon="1.3671">
        <ele>125</ele>
        <time>2025-04-12T08:54:44Z</time>
      </trkpt>
      <trkpt lat="43.69605" lon="1.36713">
        <ele>125</ele>
        <time>2025-04-12T08:54:45Z</time>
      </trkpt>
      <trkpt lat="43.69607" lon="1.36714">
        <ele>125</ele>
        <time>2025-04-12T08:54:46Z</time>
      </trkpt>
      <trkpt lat="43.6961" lon="1.36716">
        <ele>125</ele>
        <time>2025-04-12T08:54:47Z</time>
      </trkpt>
      <trkpt lat="43.69613" lon="1.36717">
        <ele>126</ele>
        <time>2025-04-12T08:54:48Z</time>
      </trkpt>
      <trkpt lat="43.69613" lon="1.36717">
        <ele>126</ele>
        <time>2025-04-12T08:54:49Z</time>
      </trkpt>
      <trkpt lat="43.69617" lon="1.3672">
        <ele>126</ele>
        <time>2025-04-12T08:54:50Z</time>
      </trkpt>
      <trkpt lat="43.6962" lon="1.36721">
        <ele>126</ele>
        <time>2025-04-12T08:54:51Z</time>
      </trkpt>
      <trkpt lat="43.69623" lon="1.36721">
        <ele>126</ele>
        <time>2025-04-12T08:54:52Z</time>
      </trkpt>
      <trkpt lat="43.69626" lon="1.36721">
        <ele>125</ele>
        <time>2025-04-12T08:54:53Z</time>
      </trkpt>
      <trkpt lat="43.69629" lon="1.36722">
        <ele>125</ele>
        <time>2025-04-12T08:54:54Z</time>
      </trkpt>
      <trkpt lat="43.69632" lon="1.36724">
        <ele>125</ele>
        <time>2025-04-12T08:54:55Z</time>
      </trkpt>
      <trkpt lat="43.69632" lon="1.36724">
        <ele>125</ele>
        <time>2025-04-12T08:54:56Z</time>
      </trkpt>
      <trkpt lat="43.69637" lon="1.36726">
        <ele>125</ele>
        <time>2025-04-12T08:54:57Z</time>
      </trkpt>
      <trkpt lat="43.6964" lon="1.36728">
        <ele>126</ele>
        <time>2025-04-12T08:54:59Z</time>
      </trkpt>
      <trkpt lat="43.69645" lon="1.3673">
        <ele>126</ele>
        <time>2025-04-12T08:55:00Z</time>
      </trkpt>
      <trkpt lat="43.69648" lon="1.36732">
        <ele>126</ele>
        <time>2025-04-12T08:55:01Z</time>
      </trkpt>
      <trkpt lat="43.69651" lon="1.36733">
        <ele>126</ele>
        <time>2025-04-12T08:55:02Z</time>
      </trkpt>
      <trkpt lat="43.69651" lon="1.36733">
        <ele>126</ele>
        <time>2025-04-12T08:55:03Z</time>
      </trkpt>
      <trkpt lat="43.69656" lon="1.36736">
        <ele>126</ele>
        <time>2025-04-12T08:55:04Z</time>
      </trkpt>
      <trkpt lat="43.69659" lon="1.36737">
        <ele>125</ele>
        <time>2025-04-12T08:55:05Z</time>
      </trkpt>
      <trkpt lat="43.69662" lon="1.36739">
        <ele>125</ele>
        <time>2025-04-12T08:55:06Z</time>
      </trkpt>
      <trkpt lat="43.69665" lon="1.3674">
        <ele>125</ele>
        <time>2025-04-12T08:55:08Z</time>
      </trkpt>
      <trkpt lat="43.69671" lon="1.36742">
        <ele>125</ele>
        <time>2025-04-12T08:55:09Z</time>
      </trkpt>
      <trkpt lat="43.69674" lon="1.36743">
        <ele>125</ele>
        <time>2025-04-12T08:55:10Z</time>
      </trkpt>
      <trkpt lat="43.69677" lon="1.36744">
        <ele>126</ele>
        <time>2025-04-12T08:55:11Z</time>
      </trkpt>
      <trkpt lat="43.69681" lon="1.36744">
        <ele>126</ele>
        <time>2025-04-12T08:55:12Z</time>
      </trkpt>
      <trkpt lat="43.69681" lon="1.36744">
        <ele>126</ele>
        <time>2025-04-12T08:55:13Z</time>
      </trkpt>
      <trkpt lat="43.69685" lon="1.36744">
        <ele>126</ele>
        <time>2025-04-12T08:55:14Z</time>
      </trkpt>
      <trkpt lat="43.69685" lon="1.36744">
        <ele>126</ele>
        <time>2025-04-12T08:55:15Z</time>
      </trkpt>
      <trkpt lat="43.6969" lon="1.36744">
        <ele>126</ele>
        <time>2025-04-12T08:55:16Z</time>
      </trkpt>
      <trkpt lat="43.6969" lon="1.36744">
        <ele>125</ele>
        <time>2025-04-12T08:55:17Z</time>
      </trkpt>
      <trkpt lat="43.69694" lon="1.36744">
        <ele>125</ele>
        <time>2025-04-12T08:55:18Z</time>
      </trkpt>
      <trkpt lat="43.69694" lon="1.36744">
        <ele>125</ele>
        <time>2025-04-12T08:55:19Z</time>
      </trkpt>
      <trkpt lat="43.69699" lon="1.36743">
        <ele>125</ele>
        <time>2025-04-12T08:55:20Z</time>
      </trkpt>
      <trkpt lat="43.69702" lon="1.36743">
        <ele>125</ele>
        <time>2025-04-12T08:55:21Z</time>
      </trkpt>
      <trkpt lat="43.69702" lon="1.36743">
        <ele>125</ele>
        <time>2025-04-12T08:55:22Z</time>
      </trkpt>
      <trkpt lat="43.69708" lon="1.36743">
        <ele>125</ele>
        <time>2025-04-12T08:55:23Z</time>
      </trkpt>
      <trkpt lat="43.69708" lon="1.36743">
        <ele>125</ele>
        <time>2025-04-12T08:55:24Z</time>
      </trkpt>
      <trkpt lat="43.6971" lon="1.36743">
        <ele>125</ele>
        <time>2025-04-12T08:55:25Z</time>
      </trkpt>
      <trkpt lat="43.69715" lon="1.36743">
        <ele>125</ele>
        <time>2025-04-12T08:55:26Z</time>
      </trkpt>
      <trkpt lat="43.69715" lon="1.36743">
        <ele>125</ele>
        <time>2025-04-12T08:55:27Z</time>
      </trkpt>
      <trkpt lat="43.6972" lon="1.36745">
        <ele>125</ele>
        <time>2025-04-12T08:55:28Z</time>
      </trkpt>
      <trkpt lat="43.69723" lon="1.36746">
        <ele>125</ele>
        <time>2025-04-12T08:55:29Z</time>
      </trkpt>
      <trkpt lat="43.69726" lon="1.36747">
        <ele>125</ele>
        <time>2025-04-12T08:55:30Z</time>
      </trkpt>
      <trkpt lat="43.69729" lon="1.36749">
        <ele>125</ele>
        <time>2025-04-12T08:55:31Z</time>
      </trkpt>
      <trkpt lat="43.69731" lon="1.3675">
        <ele>125</ele>
        <time>2025-04-12T08:55:32Z</time>
      </trkpt>
      <trkpt lat="43.69734" lon="1.36751">
        <ele>125</ele>
        <time>2025-04-12T08:55:33Z</time>
      </trkpt>
      <trkpt lat="43.69736" lon="1.36752">
        <ele>125</ele>
        <time>2025-04-12T08:55:34Z</time>
      </trkpt>
      <trkpt lat="43.69738" lon="1.36753">
        <ele>125</ele>
        <time>2025-04-12T08:55:35Z</time>
      </trkpt>
      <trkpt lat="43.69741" lon="1.36754">
        <ele>125</ele>
        <time>2025-04-12T08:55:37Z</time>
      </trkpt>
      <trkpt lat="43.69746" lon="1.36755">
        <ele>125</ele>
        <time>2025-04-12T08:55:38Z</time>
      </trkpt>
      <trkpt lat="43.69746" lon="1.36755">
        <ele>125</ele>
        <time>2025-04-12T08:55:39Z</time>
      </trkpt>
      <trkpt lat="43.69751" lon="1.36756">
        <ele>124</ele>
        <time>2025-04-12T08:55:40Z</time>
      </trkpt>
      <trkpt lat="43.69754" lon="1.36756">
        <ele>124</ele>
        <time>2025-04-12T08:55:41Z</time>
      </trkpt>
      <trkpt lat="43.69756" lon="1.36757">
        <ele>124</ele>
        <time>2025-04-12T08:55:42Z</time>
      </trkpt>
      <trkpt lat="43.69759" lon="1.36757">
        <ele>124</ele>
        <time>2025-04-12T08:55:43Z</time>
      </trkpt>
      <trkpt lat="43.69759" lon="1.36757">
        <ele>125</ele>
        <time>2025-04-12T08:55:44Z</time>
      </trkpt>
      <trkpt lat="43.69764" lon="1.36759">
        <ele>125</ele>
        <time>2025-04-12T08:55:45Z</time>
      </trkpt>
      <trkpt lat="43.69766" lon="1.3676">
        <ele>125</ele>
        <time>2025-04-12T08:55:46Z</time>
      </trkpt>
      <trkpt lat="43.69766" lon="1.3676">
        <ele>125</ele>
        <time>2025-04-12T08:55:47Z</time>
      </trkpt>
      <trkpt lat="43.69772" lon="1.36762">
        <ele>125</ele>
        <time>2025-04-12T08:55:48Z</time>
      </trkpt>
      <trkpt lat="43.69772" lon="1.36762">
        <ele>125</ele>
        <time>2025-04-12T08:55:49Z</time>
      </trkpt>
      <trkpt lat="43.69777" lon="1.36765">
        <ele>125</ele>
        <time>2025-04-12T08:55:50Z</time>
      </trkpt>
      <trkpt lat="43.6978" lon="1.36766">
        <ele>125</ele>
        <time>2025-04-12T08:55:51Z</time>
      </trkpt>
      <trkpt lat="43.69782" lon="1.36767">
        <ele>125</ele>
        <time>2025-04-12T08:55:52Z</time>
      </trkpt>
      <trkpt lat="43.69785" lon="1.36768">
        <ele>125</ele>
        <time>2025-04-12T08:55:53Z</time>
      </trkpt>
      <trkpt lat="43.69787" lon="1.36769">
        <ele>125</ele>
        <time>2025-04-12T08:55:54Z</time>
      </trkpt>
      <trkpt lat="43.69789" lon="1.36771">
        <ele>124</ele>
        <time>2025-04-12T08:55:55Z</time>
      </trkpt>
      <trkpt lat="43.69792" lon="1.36772">
        <ele>124</ele>
        <time>2025-04-12T08:55:56Z</time>
      </trkpt>
      <trkpt lat="43.69794" lon="1.36773">
        <ele>124</ele>
        <time>2025-04-12T08:55:57Z</time>
      </trkpt>
      <trkpt lat="43.69796" lon="1.36773">
        <ele>124</ele>
        <time>2025-04-12T08:55:58Z</time>
      </trkpt>
      <trkpt lat="43.69798" lon="1.36774">
        <ele>124</ele>
        <time>2025-04-12T08:55:59Z</time>
      </trkpt>
      <trkpt lat="43.69801" lon="1.36775">
        <ele>124</ele>
        <time>2025-04-12T08:56:00Z</time>
      </trkpt>
      <trkpt lat="43.69804" lon="1.36775">
        <ele>124</ele>
        <time>2025-04-12T08:56:01Z</time>
      </trkpt>
      <trkpt lat="43.69807" lon="1.36775">
        <ele>125</ele>
        <time>2025-04-12T08:56:02Z</time>
      </trkpt>
      <trkpt lat="43.69807" lon="1.36775">
        <ele>125</ele>
        <time>2025-04-12T08:56:03Z</time>
      </trkpt>
      <trkpt lat="43.69813" lon="1.36776">
        <ele>125</ele>
        <time>2025-04-12T08:56:04Z</time>
      </trkpt>
      <trkpt lat="43.69815" lon="1.36777">
        <ele>125</ele>
        <time>2025-04-12T08:56:05Z</time>
      </trkpt>
      <trkpt lat="43.69815" lon="1.36777">
        <ele>125</ele>
        <time>2025-04-12T08:56:06Z</time>
      </trkpt>
      <trkpt lat="43.6982" lon="1.36778">
        <ele>125</ele>
        <time>2025-04-12T08:56:07Z</time>
      </trkpt>
      <trkpt lat="43.69823" lon="1.36778">
        <ele>125</ele>
        <time>2025-04-12T08:56:08Z</time>
      </trkpt>
      <trkpt lat="43.69826" lon="1.36778">
        <ele>125</ele>
        <time>2025-04-12T08:56:09Z</time>
      </trkpt>
      <trkpt lat="43.69828" lon="1.36779">
        <ele>125</ele>
        <time>2025-04-12T08:56:10Z</time>
      </trkpt>
      <trkpt lat="43.6983" lon="1.36779">
        <ele>125</ele>
        <time>2025-04-12T08:56:11Z</time>
      </trkpt>
      <trkpt lat="43.69833" lon="1.3678">
        <ele>125</ele>
        <time>2025-04-12T08:56:12Z</time>
      </trkpt>
      <trkpt lat="43.69835" lon="1.36781">
        <ele>125</ele>
        <time>2025-04-12T08:56:13Z</time>
      </trkpt>
      <trkpt lat="43.69838" lon="1.36782">
        <ele>125</ele>
        <time>2025-04-12T08:56:14Z</time>
      </trkpt>
      <trkpt lat="43.69841" lon="1.36782">
        <ele>125</ele>
        <time>2025-04-12T08:56:15Z</time>
      </trkpt>
      <trkpt lat="43.69843" lon="1.36783">
        <ele>125</ele>
        <time>2025-04-12T08:56:16Z</time>
      </trkpt>
      <trkpt lat="43.69845" lon="1.36784">
        <ele>125</ele>
        <time>2025-04-12T08:56:17Z</time>
      </trkpt>
      <trkpt lat="43.69848" lon="1.36785">
        <ele>125</ele>
        <time>2025-04-12T08:56:18Z</time>
      </trkpt>
      <trkpt lat="43.6985" lon="1.36786">
        <ele>125</ele>
        <time>2025-04-12T08:56:19Z</time>
      </trkpt>
      <trkpt lat="43.69852" lon="1.36787">
        <ele>125</ele>
        <time>2025-04-12T08:56:20Z</time>
      </trkpt>
      <trkpt lat="43.69852" lon="1.36787">
        <ele>125</ele>
        <time>2025-04-12T08:56:21Z</time>
      </trkpt>
      <trkpt lat="43.69858" lon="1.36788">
        <ele>125</ele>
        <time>2025-04-12T08:56:22Z</time>
      </trkpt>
      <trkpt lat="43.69858" lon="1.36788">
        <ele>125</ele>
        <time>2025-04-12T08:56:23Z</time>
      </trkpt>
      <trkpt lat="43.69862" lon="1.36789">
        <ele>125</ele>
        <time>2025-04-12T08:56:24Z</time>
      </trkpt>
      <trkpt lat="43.69862" lon="1.36789">
        <ele>125</ele>
        <time>2025-04-12T08:56:25Z</time>
      </trkpt>
      <trkpt lat="43.69868" lon="1.3679">
        <ele>125</ele>
        <time>2025-04-12T08:56:26Z</time>
      </trkpt>
      <trkpt lat="43.69871" lon="1.3679">
        <ele>125</ele>
        <time>2025-04-12T08:56:27Z</time>
      </trkpt>
      <trkpt lat="43.69873" lon="1.3679">
        <ele>125</ele>
        <time>2025-04-12T08:56:28Z</time>
      </trkpt>
      <trkpt lat="43.69876" lon="1.3679">
        <ele>125</ele>
        <time>2025-04-12T08:56:29Z</time>
      </trkpt>
      <trkpt lat="43.69879" lon="1.36789">
        <ele>125</ele>
        <time>2025-04-12T08:56:30Z</time>
      </trkpt>
      <trkpt lat="43.69883" lon="1.36788">
        <ele>125</ele>
        <time>2025-04-12T08:56:31Z</time>
      </trkpt>
      <trkpt lat="43.69883" lon="1.36788">
        <ele>125</ele>
        <time>2025-04-12T08:56:32Z</time>
      </trkpt>
      <trkpt lat="43.69886" lon="1.36788">
        <ele>125</ele>
        <time>2025-04-12T08:56:33Z</time>
      </trkpt>
      <trkpt lat="43.69893" lon="1.36788">
        <ele>125</ele>
        <time>2025-04-12T08:56:34Z</time>
      </trkpt>
      <trkpt lat="43.69893" lon="1.36788">
        <ele>125</ele>
        <time>2025-04-12T08:56:35Z</time>
      </trkpt>
      <trkpt lat="43.69898" lon="1.36787">
        <ele>125</ele>
        <time>2025-04-12T08:56:36Z</time>
      </trkpt>
      <trkpt lat="43.69901" lon="1.36787">
        <ele>125</ele>
        <time>2025-04-12T08:56:37Z</time>
      </trkpt>
      <trkpt lat="43.69904" lon="1.36787">
        <ele>125</ele>
        <time>2025-04-12T08:56:38Z</time>
      </trkpt>
      <trkpt lat="43.69907" lon="1.36786">
        <ele>125</ele>
        <time>2025-04-12T08:56:39Z</time>
      </trkpt>
      <trkpt lat="43.6991" lon="1.36785">
        <ele>125</ele>
        <time>2025-04-12T08:56:40Z</time>
      </trkpt>
      <trkpt lat="43.69912" lon="1.36784">
        <ele>125</ele>
        <time>2025-04-12T08:56:41Z</time>
      </trkpt>
      <trkpt lat="43.69915" lon="1.36784">
        <ele>125</ele>
        <time>2025-04-12T08:56:42Z</time>
      </trkpt>
      <trkpt lat="43.69915" lon="1.36784">
        <ele>125</ele>
        <time>2025-04-12T08:56:43Z</time>
      </trkpt>
      <trkpt lat="43.69921" lon="1.36783">
        <ele>125</ele>
        <time>2025-04-12T08:56:44Z</time>
      </trkpt>
      <trkpt lat="43.69923" lon="1.36783">
        <ele>125</ele>
        <time>2025-04-12T08:56:45Z</time>
      </trkpt>
      <trkpt lat="43.69926" lon="1.36781">
        <ele>125</ele>
        <time>2025-04-12T08:56:46Z</time>
      </trkpt>
      <trkpt lat="43.69929" lon="1.3678">
        <ele>125</ele>
        <time>2025-04-12T08:56:47Z</time>
      </trkpt>
      <trkpt lat="43.69931" lon="1.36779">
        <ele>125</ele>
        <time>2025-04-12T08:56:48Z</time>
      </trkpt>
      <trkpt lat="43.69934" lon="1.36779">
        <ele>125</ele>
        <time>2025-04-12T08:56:49Z</time>
      </trkpt>
      <trkpt lat="43.69937" lon="1.36778">
        <ele>125</ele>
        <time>2025-04-12T08:56:50Z</time>
      </trkpt>
      <trkpt lat="43.69939" lon="1.36778">
        <ele>124</ele>
        <time>2025-04-12T08:56:51Z</time>
      </trkpt>
      <trkpt lat="43.69939" lon="1.36778">
        <ele>124</ele>
        <time>2025-04-12T08:56:52Z</time>
      </trkpt>
      <trkpt lat="43.69945" lon="1.36776">
        <ele>124</ele>
        <time>2025-04-12T08:56:53Z</time>
      </trkpt>
      <trkpt lat="43.69945" lon="1.36776">
        <ele>124</ele>
        <time>2025-04-12T08:56:54Z</time>
      </trkpt>
      <trkpt lat="43.69951" lon="1.36774">
        <ele>124</ele>
        <time>2025-04-12T08:56:55Z</time>
      </trkpt>
      <trkpt lat="43.69953" lon="1.36773">
        <ele>124</ele>
        <time>2025-04-12T08:56:56Z</time>
      </trkpt>
      <trkpt lat="43.69956" lon="1.36773">
        <ele>124</ele>
        <time>2025-04-12T08:56:57Z</time>
      </trkpt>
      <trkpt lat="43.69959" lon="1.36772">
        <ele>124</ele>
        <time>2025-04-12T08:56:59Z</time>
      </trkpt>
      <trkpt lat="43.69964" lon="1.3677">
        <ele>124</ele>
        <time>2025-04-12T08:57:00Z</time>
      </trkpt>
      <trkpt lat="43.69966" lon="1.36769">
        <ele>124</ele>
        <time>2025-04-12T08:57:01Z</time>
      </trkpt>
      <trkpt lat="43.69969" lon="1.36768">
        <ele>124</ele>
        <time>2025-04-12T08:57:02Z</time>
      </trkpt>
      <trkpt lat="43.69971" lon="1.36766">
        <ele>124</ele>
        <time>2025-04-12T08:57:03Z</time>
      </trkpt>
      <trkpt lat="43.69973" lon="1.36765">
        <ele>124</ele>
        <time>2025-04-12T08:57:04Z</time>
      </trkpt>
      <trkpt lat="43.69975" lon="1.36763">
        <ele>124</ele>
        <time>2025-04-12T08:57:05Z</time>
      </trkpt>
      <trkpt lat="43.69977" lon="1.36762">
        <ele>124</ele>
        <time>2025-04-12T08:57:06Z</time>
      </trkpt>
      <trkpt lat="43.69979" lon="1.3676">
        <ele>124</ele>
        <time>2025-04-12T08:57:07Z</time>
      </trkpt>
      <trkpt lat="43.69981" lon="1.36758">
        <ele>124</ele>
        <time>2025-04-12T08:57:08Z</time>
      </trkpt>
      <trkpt lat="43.69983" lon="1.36757">
        <ele>124</ele>
        <time>2025-04-12T08:57:09Z</time>
      </trkpt>
      <trkpt lat="43.69985" lon="1.36755">
        <ele>124</ele>
        <time>2025-04-12T08:57:10Z</time>
      </trkpt>
      <trkpt lat="43.69985" lon="1.36755">
        <ele>124</ele>
        <time>2025-04-12T08:57:11Z</time>
      </trkpt>
      <trkpt lat="43.6999" lon="1.3675">
        <ele>124</ele>
        <time>2025-04-12T08:57:12Z</time>
      </trkpt>
      <trkpt lat="43.69992" lon="1.36748">
        <ele>124</ele>
        <time>2025-04-12T08:57:13Z</time>
      </trkpt>
      <trkpt lat="43.69995" lon="1.36746">
        <ele>125</ele>
        <time>2025-04-12T08:57:14Z</time>
      </trkpt>
      <trkpt lat="43.69997" lon="1.36744">
        <ele>125</ele>
        <time>2025-04-12T08:57:15Z</time>
      </trkpt>
      <trkpt lat="43.69999" lon="1.36743">
        <ele>125</ele>
        <time>2025-04-12T08:57:16Z</time>
      </trkpt>
      <trkpt lat="43.70001" lon="1.36741">
        <ele>125</ele>
        <time>2025-04-12T08:57:18Z</time>
      </trkpt>
      <trkpt lat="43.70005" lon="1.36736">
        <ele>125</ele>
        <time>2025-04-12T08:57:19Z</time>
      </trkpt>
      <trkpt lat="43.70008" lon="1.36734">
        <ele>126</ele>
        <time>2025-04-12T08:57:20Z</time>
      </trkpt>
      <trkpt lat="43.7001" lon="1.36732">
        <ele>126</ele>
        <time>2025-04-12T08:57:21Z</time>
      </trkpt>
      <trkpt lat="43.70012" lon="1.3673">
        <ele>126</ele>
        <time>2025-04-12T08:57:22Z</time>
      </trkpt>
      <trkpt lat="43.70014" lon="1.36728">
        <ele>125</ele>
        <time>2025-04-12T08:57:23Z</time>
      </trkpt>
      <trkpt lat="43.70016" lon="1.36726">
        <ele>125</ele>
        <time>2025-04-12T08:57:24Z</time>
      </trkpt>
      <trkpt lat="43.70018" lon="1.36724">
        <ele>125</ele>
        <time>2025-04-12T08:57:25Z</time>
      </trkpt>
      <trkpt lat="43.7002" lon="1.36722">
        <ele>124</ele>
        <time>2025-04-12T08:57:26Z</time>
      </trkpt>
      <trkpt lat="43.70022" lon="1.3672">
        <ele>124</ele>
        <time>2025-04-12T08:57:27Z</time>
      </trkpt>
      <trkpt lat="43.70025" lon="1.36719">
        <ele>125</ele>
        <time>2025-04-12T08:57:28Z</time>
      </trkpt>
      <trkpt lat="43.70027" lon="1.36717">
        <ele>125</ele>
        <time>2025-04-12T08:57:29Z</time>
      </trkpt>
      <trkpt lat="43.7003" lon="1.36715">
        <ele>125</ele>
        <time>2025-04-12T08:57:30Z</time>
      </trkpt>
      <trkpt lat="43.70032" lon="1.36712">
        <ele>125</ele>
        <time>2025-04-12T08:57:31Z</time>
      </trkpt>
      <trkpt lat="43.70032" lon="1.36712">
        <ele>125</ele>
        <time>2025-04-12T08:57:32Z</time>
      </trkpt>
      <trkpt lat="43.70037" lon="1.36707">
        <ele>124</ele>
        <time>2025-04-12T08:57:33Z</time>
      </trkpt>
      <trkpt lat="43.7004" lon="1.36704">
        <ele>124</ele>
        <time>2025-04-12T08:57:34Z</time>
      </trkpt>
      <trkpt lat="43.70042" lon="1.36702">
        <ele>124</ele>
        <time>2025-04-12T08:57:35Z</time>
      </trkpt>
      <trkpt lat="43.70044" lon="1.367">
        <ele>124</ele>
        <time>2025-04-12T08:57:36Z</time>
      </trkpt>
      <trkpt lat="43.70046" lon="1.36698">
        <ele>124</ele>
        <time>2025-04-12T08:57:37Z</time>
      </trkpt>
      <trkpt lat="43.70046" lon="1.36698">
        <ele>124</ele>
        <time>2025-04-12T08:57:38Z</time>
      </trkpt>
      <trkpt lat="43.7005" lon="1.36696">
        <ele>124</ele>
        <time>2025-04-12T08:57:39Z</time>
      </trkpt>
      <trkpt lat="43.70052" lon="1.36693">
        <ele>124</ele>
        <time>2025-04-12T08:57:40Z</time>
      </trkpt>
      <trkpt lat="43.70054" lon="1.3669">
        <ele>124</ele>
        <time>2025-04-12T08:57:41Z</time>
      </trkpt>
      <trkpt lat="43.70056" lon="1.36686">
        <ele>124</ele>
        <time>2025-04-12T08:57:42Z</time>
      </trkpt>
      <trkpt lat="43.70056" lon="1.36683">
        <ele>124</ele>
        <time>2025-04-12T08:57:43Z</time>
      </trkpt>
      <trkpt lat="43.70056" lon="1.3668">
        <ele>124</ele>
        <time>2025-04-12T08:57:44Z</time>
      </trkpt>
      <trkpt lat="43.70055" lon="1.36677">
        <ele>124</ele>
        <time>2025-04-12T08:57:45Z</time>
      </trkpt>
      <trkpt lat="43.70055" lon="1.36677">
        <ele>124</ele>
        <time>2025-04-12T08:57:46Z</time>
      </trkpt>
      <trkpt lat="43.70055" lon="1.36677">
        <ele>124</ele>
        <time>2025-04-12T08:57:47Z</time>
      </trkpt>
      <trkpt lat="43.70055" lon="1.36674">
        <ele>124</ele>
        <time>2025-04-12T08:57:48Z</time>
      </trkpt>
      <trkpt lat="43.70055" lon="1.36674">
        <ele>124</ele>
        <time>2025-04-12T08:57:49Z</time>
      </trkpt>
      <trkpt lat="43.70055" lon="1.36672">
        <ele>124</ele>
        <time>2025-04-12T08:57:50Z</time>
      </trkpt>
      <trkpt lat="43.70055" lon="1.36672">
        <ele>124</ele>
        <time>2025-04-12T08:57:51Z</time>
      </trkpt>
      <trkpt lat="43.70055" lon="1.36672">
        <ele>125</ele>
        <time>2025-04-12T08:57:52Z</time>
      </trkpt>
      <trkpt lat="43.70055" lon="1.36672">
        <ele>125</ele>
        <time>2025-04-12T08:57:53Z</time>
      </trkpt>
      <trkpt lat="43.70055" lon="1.36672">
        <ele>125</ele>
        <time>2025-04-12T08:57:54Z</time>
      </trkpt>
      <trkpt lat="43.70055" lon="1.36669">
        <ele>126</ele>
        <time>2025-04-12T08:57:55Z</time>
      </trkpt>
      <trkpt lat="43.70055" lon="1.36669">
        <ele>126</ele>
        <time>2025-04-12T08:57:56Z</time>
      </trkpt>
      <trkpt lat="43.70055" lon="1.36669">
        <ele>126</ele>
        <time>2025-04-12T08:57:57Z</time>
      </trkpt>
      <trkpt lat="43.70055" lon="1.36669">
        <ele>127</ele>
        <time>2025-04-12T08:57:58Z</time>
      </trkpt>
      <trkpt lat="43.70055" lon="1.36666">
        <ele>127</ele>
        <time>2025-04-12T08:57:59Z</time>
      </trkpt>
      <trkpt lat="43.70055" lon="1.36666">
        <ele>127</ele>
        <time>2025-04-12T08:58:00Z</time>
      </trkpt>
      <trkpt lat="43.70055" lon="1.36666">
        <ele>127</ele>
        <time>2025-04-12T08:58:01Z</time>
      </trkpt>
      <trkpt lat="43.70055" lon="1.36666">
        <ele>127</ele>
        <time>2025-04-12T08:58:02Z</time>
      </trkpt>
      <trkpt lat="43.70054" lon="1.36663">
        <ele>127</ele>
        <time>2025-04-12T08:58:03Z</time>
      </trkpt>
      <trkpt lat="43.70054" lon="1.36663">
        <ele>128</ele>
        <time>2025-04-12T08:58:04Z</time>
      </trkpt>
      <trkpt lat="43.70054" lon="1.36663">
        <ele>129</ele>
        <time>2025-04-12T08:58:05Z</time>
      </trkpt>
      <trkpt lat="43.70054" lon="1.36663">
        <ele>129</ele>
        <time>2025-04-12T08:58:06Z</time>
      </trkpt>
      <trkpt lat="43.70054" lon="1.36663">
        <ele>129</ele>
        <time>2025-04-12T08:58:07Z</time>
      </trkpt>
      <trkpt lat="43.70054" lon="1.36663">
        <ele>129</ele>
        <time>2025-04-12T08:58:08Z</time>
      </trkpt>
      <trkpt lat="43.70054" lon="1.36663">
        <ele>130</ele>
        <time>2025-04-12T08:58:09Z</time>
      </trkpt>
      <trkpt lat="43.70054" lon="1.36663">
        <ele>130</ele>
        <time>2025-04-12T08:58:10Z</time>
      </trkpt>
      <trkpt lat="43.70052" lon="1.36665">
        <ele>130</ele>
        <time>2025-04-12T08:58:11Z</time>
      </trkpt>
      <trkpt lat="43.70052" lon="1.36667">
        <ele>130</ele>
        <time>2025-04-12T08:58:12Z</time>
      </trkpt>
      <trkpt lat="43.70051" lon="1.36672">
        <ele>129</ele>
        <time>2025-04-12T08:58:13Z</time>
      </trkpt>
      <trkpt lat="43.70051" lon="1.36676">
        <ele>130</ele>
        <time>2025-04-12T08:58:14Z</time>
      </trkpt>
      <trkpt lat="43.70052" lon="1.3668">
        <ele>130</ele>
        <time>2025-04-12T08:58:15Z</time>
      </trkpt>
      <trkpt lat="43.70052" lon="1.3668">
        <ele>130</ele>
        <time>2025-04-12T08:58:16Z</time>
      </trkpt>
      <trkpt lat="43.70055" lon="1.36686">
        <ele>131</ele>
        <time>2025-04-12T08:58:17Z</time>
      </trkpt>
      <trkpt lat="43.70056" lon="1.36689">
        <ele>131</ele>
        <time>2025-04-12T08:58:18Z</time>
      </trkpt>
      <trkpt lat="43.70056" lon="1.36689">
        <ele>131</ele>
        <time>2025-04-12T08:58:19Z</time>
      </trkpt>
      <trkpt lat="43.70058" lon="1.36695">
        <ele>131</ele>
        <time>2025-04-12T08:58:20Z</time>
      </trkpt>
      <trkpt lat="43.70059" lon="1.36698">
        <ele>131</ele>
        <time>2025-04-12T08:58:21Z</time>
      </trkpt>
      <trkpt lat="43.7006" lon="1.36702">
        <ele>130</ele>
        <time>2025-04-12T08:58:22Z</time>
      </trkpt>
      <trkpt lat="43.70062" lon="1.36705">
        <ele>131</ele>
        <time>2025-04-12T08:58:23Z</time>
      </trkpt>
      <trkpt lat="43.70063" lon="1.36708">
        <ele>131</ele>
        <time>2025-04-12T08:58:24Z</time>
      </trkpt>
      <trkpt lat="43.70064" lon="1.36711">
        <ele>131</ele>
        <time>2025-04-12T08:58:25Z</time>
      </trkpt>
      <trkpt lat="43.70064" lon="1.36711">
        <ele>131</ele>
        <time>2025-04-12T08:58:26Z</time>
      </trkpt>
      <trkpt lat="43.70066" lon="1.36717">
        <ele>130</ele>
        <time>2025-04-12T08:58:27Z</time>
      </trkpt>
      <trkpt lat="43.70067" lon="1.36721">
        <ele>130</ele>
        <time>2025-04-12T08:58:28Z</time>
      </trkpt>
      <trkpt lat="43.70068" lon="1.36724">
        <ele>130</ele>
        <time>2025-04-12T08:58:29Z</time>
      </trkpt>
      <trkpt lat="43.70069" lon="1.36728">
        <ele>131</ele>
        <time>2025-04-12T08:58:30Z</time>
      </trkpt>
      <trkpt lat="43.7007" lon="1.36731">
        <ele>131</ele>
        <time>2025-04-12T08:58:31Z</time>
      </trkpt>
      <trkpt lat="43.70071" lon="1.36735">
        <ele>131</ele>
        <time>2025-04-12T08:58:32Z</time>
      </trkpt>
      <trkpt lat="43.70072" lon="1.36738">
        <ele>130</ele>
        <time>2025-04-12T08:58:33Z</time>
      </trkpt>
      <trkpt lat="43.70073" lon="1.36741">
        <ele>130</ele>
        <time>2025-04-12T08:58:34Z</time>
      </trkpt>
      <trkpt lat="43.70074" lon="1.36745">
        <ele>131</ele>
        <time>2025-04-12T08:58:35Z</time>
      </trkpt>
      <trkpt lat="43.70075" lon="1.36748">
        <ele>131</ele>
        <time>2025-04-12T08:58:36Z</time>
      </trkpt>
      <trkpt lat="43.70077" lon="1.36751">
        <ele>131</ele>
        <time>2025-04-12T08:58:37Z</time>
      </trkpt>
      <trkpt lat="43.70077" lon="1.36751">
        <ele>131</ele>
        <time>2025-04-12T08:58:38Z</time>
      </trkpt>
      <trkpt lat="43.70079" lon="1.36758">
        <ele>131</ele>
        <time>2025-04-12T08:58:39Z</time>
      </trkpt>
      <trkpt lat="43.7008" lon="1.36761">
        <ele>132</ele>
        <time>2025-04-12T08:58:40Z</time>
      </trkpt>
      <trkpt lat="43.70082" lon="1.36764">
        <ele>132</ele>
        <time>2025-04-12T08:58:41Z</time>
      </trkpt>
      <trkpt lat="43.70083" lon="1.36768">
        <ele>132</ele>
        <time>2025-04-12T08:58:42Z</time>
      </trkpt>
      <trkpt lat="43.70084" lon="1.36771">
        <ele>132</ele>
        <time>2025-04-12T08:58:43Z</time>
      </trkpt>
      <trkpt lat="43.70085" lon="1.36774">
        <ele>132</ele>
        <time>2025-04-12T08:58:44Z</time>
      </trkpt>
      <trkpt lat="43.70086" lon="1.36778">
        <ele>132</ele>
        <time>2025-04-12T08:58:45Z</time>
      </trkpt>
      <trkpt lat="43.70086" lon="1.36778">
        <ele>132</ele>
        <time>2025-04-12T08:58:46Z</time>
      </trkpt>
      <trkpt lat="43.70088" lon="1.36784">
        <ele>132</ele>
        <time>2025-04-12T08:58:47Z</time>
      </trkpt>
      <trkpt lat="43.70089" lon="1.36788">
        <ele>132</ele>
        <time>2025-04-12T08:58:48Z</time>
      </trkpt>
      <trkpt lat="43.70091" lon="1.36791">
        <ele>132</ele>
        <time>2025-04-12T08:58:49Z</time>
      </trkpt>
      <trkpt lat="43.70093" lon="1.36794">
        <ele>133</ele>
        <time>2025-04-12T08:58:50Z</time>
      </trkpt>
      <trkpt lat="43.70094" lon="1.36798">
        <ele>133</ele>
        <time>2025-04-12T08:58:51Z</time>
      </trkpt>
      <trkpt lat="43.70095" lon="1.36801">
        <ele>133</ele>
        <time>2025-04-12T08:58:52Z</time>
      </trkpt>
      <trkpt lat="43.70096" lon="1.36805">
        <ele>133</ele>
        <time>2025-04-12T08:58:53Z</time>
      </trkpt>
      <trkpt lat="43.70097" lon="1.36808">
        <ele>133</ele>
        <time>2025-04-12T08:58:54Z</time>
      </trkpt>
      <trkpt lat="43.70098" lon="1.36812">
        <ele>133</ele>
        <time>2025-04-12T08:58:55Z</time>
      </trkpt>
      <trkpt lat="43.70099" lon="1.36815">
        <ele>133</ele>
        <time>2025-04-12T08:58:56Z</time>
      </trkpt>
      <trkpt lat="43.70099" lon="1.36815">
        <ele>132</ele>
        <time>2025-04-12T08:58:57Z</time>
      </trkpt>
      <trkpt lat="43.70102" lon="1.36822">
        <ele>132</ele>
        <time>2025-04-12T08:58:58Z</time>
      </trkpt>
      <trkpt lat="43.70103" lon="1.36826">
        <ele>132</ele>
        <time>2025-04-12T08:58:59Z</time>
      </trkpt>
      <trkpt lat="43.70104" lon="1.36829">
        <ele>132</ele>
        <time>2025-04-12T08:59:00Z</time>
      </trkpt>
      <trkpt lat="43.70105" lon="1.36833">
        <ele>132</ele>
        <time>2025-04-12T08:59:01Z</time>
      </trkpt>
      <trkpt lat="43.70106" lon="1.36836">
        <ele>132</ele>
        <time>2025-04-12T08:59:02Z</time>
      </trkpt>
      <trkpt lat="43.70107" lon="1.3684">
        <ele>132</ele>
        <time>2025-04-12T08:59:03Z</time>
      </trkpt>
      <trkpt lat="43.70107" lon="1.3684">
        <ele>132</ele>
        <time>2025-04-12T08:59:04Z</time>
      </trkpt>
      <trkpt lat="43.70109" lon="1.36843">
        <ele>132</ele>
        <time>2025-04-12T08:59:05Z</time>
      </trkpt>
      <trkpt lat="43.70111" lon="1.3685">
        <ele>132</ele>
        <time>2025-04-12T08:59:06Z</time>
      </trkpt>
      <trkpt lat="43.70112" lon="1.36854">
        <ele>132</ele>
        <time>2025-04-12T08:59:07Z</time>
      </trkpt>
      <trkpt lat="43.70114" lon="1.36857">
        <ele>132</ele>
        <time>2025-04-12T08:59:08Z</time>
      </trkpt>
      <trkpt lat="43.70114" lon="1.36857">
        <ele>132</ele>
        <time>2025-04-12T08:59:09Z</time>
      </trkpt>
      <trkpt lat="43.70116" lon="1.36864">
        <ele>132</ele>
        <time>2025-04-12T08:59:10Z</time>
      </trkpt>
      <trkpt lat="43.70117" lon="1.36868">
        <ele>132</ele>
        <time>2025-04-12T08:59:11Z</time>
      </trkpt>
      <trkpt lat="43.70117" lon="1.36868">
        <ele>131</ele>
        <time>2025-04-12T08:59:12Z</time>
      </trkpt>
      <trkpt lat="43.70119" lon="1.36874">
        <ele>131</ele>
        <time>2025-04-12T08:59:13Z</time>
      </trkpt>
      <trkpt lat="43.7012" lon="1.36878">
        <ele>130</ele>
        <time>2025-04-12T08:59:14Z</time>
      </trkpt>
      <trkpt lat="43.70121" lon="1.36881">
        <ele>129</ele>
        <time>2025-04-12T08:59:15Z</time>
      </trkpt>
      <trkpt lat="43.70123" lon="1.36885">
        <ele>130</ele>
        <time>2025-04-12T08:59:16Z</time>
      </trkpt>
      <trkpt lat="43.70124" lon="1.36888">
        <ele>130</ele>
        <time>2025-04-12T08:59:17Z</time>
      </trkpt>
      <trkpt lat="43.70125" lon="1.36892">
        <ele>129</ele>
        <time>2025-04-12T08:59:18Z</time>
      </trkpt>
      <trkpt lat="43.70126" lon="1.36895">
        <ele>129</ele>
        <time>2025-04-12T08:59:19Z</time>
      </trkpt>
      <trkpt lat="43.70127" lon="1.36899">
        <ele>129</ele>
        <time>2025-04-12T08:59:20Z</time>
      </trkpt>
      <trkpt lat="43.70128" lon="1.36903">
        <ele>129</ele>
        <time>2025-04-12T08:59:21Z</time>
      </trkpt>
      <trkpt lat="43.70128" lon="1.36903">
        <ele>129</ele>
        <time>2025-04-12T08:59:22Z</time>
      </trkpt>
      <trkpt lat="43.70131" lon="1.3691">
        <ele>129</ele>
        <time>2025-04-12T08:59:23Z</time>
      </trkpt>
      <trkpt lat="43.70131" lon="1.3691">
        <ele>129</ele>
        <time>2025-04-12T08:59:24Z</time>
      </trkpt>
      <trkpt lat="43.70134" lon="1.36917">
        <ele>128</ele>
        <time>2025-04-12T08:59:25Z</time>
      </trkpt>
      <trkpt lat="43.70134" lon="1.36917">
        <ele>128</ele>
        <time>2025-04-12T08:59:26Z</time>
      </trkpt>
      <trkpt lat="43.70136" lon="1.36923">
        <ele>128</ele>
        <time>2025-04-12T08:59:27Z</time>
      </trkpt>
      <trkpt lat="43.70136" lon="1.36923">
        <ele>128</ele>
        <time>2025-04-12T08:59:28Z</time>
      </trkpt>
      <trkpt lat="43.70137" lon="1.36927">
        <ele>128</ele>
        <time>2025-04-12T08:59:29Z</time>
      </trkpt>
      <trkpt lat="43.70136" lon="1.36936">
        <ele>128</ele>
        <time>2025-04-12T08:59:30Z</time>
      </trkpt>
      <trkpt lat="43.70136" lon="1.3694">
        <ele>128</ele>
        <time>2025-04-12T08:59:31Z</time>
      </trkpt>
      <trkpt lat="43.70135" lon="1.36944">
        <ele>128</ele>
        <time>2025-04-12T08:59:32Z</time>
      </trkpt>
      <trkpt lat="43.70134" lon="1.36948">
        <ele>128</ele>
        <time>2025-04-12T08:59:33Z</time>
      </trkpt>
      <trkpt lat="43.70133" lon="1.36952">
        <ele>128</ele>
        <time>2025-04-12T08:59:34Z</time>
      </trkpt>
      <trkpt lat="43.70133" lon="1.36956">
        <ele>128</ele>
        <time>2025-04-12T08:59:35Z</time>
      </trkpt>
      <trkpt lat="43.70133" lon="1.36956">
        <ele>127</ele>
        <time>2025-04-12T08:59:36Z</time>
      </trkpt>
      <trkpt lat="43.70132" lon="1.36964">
        <ele>127</ele>
        <time>2025-04-12T08:59:37Z</time>
      </trkpt>
      <trkpt lat="43.70131" lon="1.36968">
        <ele>127</ele>
        <time>2025-04-12T08:59:38Z</time>
      </trkpt>
      <trkpt lat="43.70131" lon="1.36968">
        <ele>126</ele>
        <time>2025-04-12T08:59:39Z</time>
      </trkpt>
      <trkpt lat="43.70127" lon="1.36974">
        <ele>127</ele>
        <time>2025-04-12T08:59:40Z</time>
      </trkpt>
      <trkpt lat="43.70127" lon="1.36974">
        <ele>127</ele>
        <time>2025-04-12T08:59:41Z</time>
      </trkpt>
      <trkpt lat="43.70122" lon="1.36978">
        <ele>127</ele>
        <time>2025-04-12T08:59:42Z</time>
      </trkpt>
      <trkpt lat="43.70119" lon="1.3698">
        <ele>126</ele>
        <time>2025-04-12T08:59:43Z</time>
      </trkpt>
      <trkpt lat="43.70116" lon="1.36982">
        <ele>126</ele>
        <time>2025-04-12T08:59:44Z</time>
      </trkpt>
      <trkpt lat="43.70114" lon="1.36984">
        <ele>126</ele>
        <time>2025-04-12T08:59:45Z</time>
      </trkpt>
      <trkpt lat="43.70111" lon="1.36986">
        <ele>126</ele>
        <time>2025-04-12T08:59:46Z</time>
      </trkpt>
      <trkpt lat="43.70109" lon="1.36988">
        <ele>126</ele>
        <time>2025-04-12T08:59:47Z</time>
      </trkpt>
      <trkpt lat="43.70107" lon="1.36987">
        <ele>126</ele>
        <time>2025-04-12T08:59:48Z</time>
      </trkpt>
      <trkpt lat="43.70107" lon="1.36987">
        <ele>126</ele>
        <time>2025-04-12T08:59:49Z</time>
      </trkpt>
      <trkpt lat="43.70108" lon="1.36983">
        <ele>126</ele>
        <time>2025-04-12T08:59:50Z</time>
      </trkpt>
      <trkpt lat="43.70108" lon="1.36983">
        <ele>126</ele>
        <time>2025-04-12T08:59:51Z</time>
      </trkpt>
      <trkpt lat="43.70111" lon="1.36978">
        <ele>126</ele>
        <time>2025-04-12T08:59:52Z</time>
      </trkpt>
      <trkpt lat="43.70113" lon="1.36976">
        <ele>126</ele>
        <time>2025-04-12T08:59:53Z</time>
      </trkpt>
      <trkpt lat="43.70113" lon="1.36976">
        <ele>126</ele>
        <time>2025-04-12T08:59:54Z</time>
      </trkpt>
      <trkpt lat="43.70115" lon="1.36973">
        <ele>125</ele>
        <time>2025-04-12T08:59:55Z</time>
      </trkpt>
      <trkpt lat="43.70115" lon="1.36973">
        <ele>125</ele>
        <time>2025-04-12T08:59:56Z</time>
      </trkpt>
      <trkpt lat="43.70117" lon="1.3697">
        <ele>125</ele>
        <time>2025-04-12T08:59:57Z</time>
      </trkpt>
      <trkpt lat="43.70117" lon="1.3697">
        <ele>125</ele>
        <time>2025-04-12T08:59:58Z</time>
      </trkpt>
      <trkpt lat="43.70119" lon="1.36968">
        <ele>125</ele>
        <time>2025-04-12T08:59:59Z</time>
      </trkpt>
      <trkpt lat="43.70119" lon="1.36968">
        <ele>125</ele>
        <time>2025-04-12T09:00:00Z</time>
      </trkpt>
      <trkpt lat="43.7012" lon="1.36964">
        <ele>125</ele>
        <time>2025-04-12T09:00:01Z</time>
      </trkpt>
      <trkpt lat="43.7012" lon="1.36964">
        <ele>125</ele>
        <time>2025-04-12T09:00:02Z</time>
      </trkpt>
      <trkpt lat="43.70121" lon="1.36961">
        <ele>125</ele>
        <time>2025-04-12T09:00:03Z</time>
      </trkpt>
      <trkpt lat="43.70121" lon="1.36961">
        <ele>125</ele>
        <time>2025-04-12T09:00:04Z</time>
      </trkpt>
      <trkpt lat="43.70122" lon="1.36958">
        <ele>125</ele>
        <time>2025-04-12T09:00:05Z</time>
      </trkpt>
      <trkpt lat="43.70122" lon="1.36958">
        <ele>125</ele>
        <time>2025-04-12T09:00:06Z</time>
      </trkpt>
      <trkpt lat="43.70123" lon="1.36955">
        <ele>125</ele>
        <time>2025-04-12T09:00:07Z</time>
      </trkpt>
      <trkpt lat="43.70123" lon="1.36955">
        <ele>125</ele>
        <time>2025-04-12T09:00:08Z</time>
      </trkpt>
      <trkpt lat="43.70123" lon="1.36951">
        <ele>125</ele>
        <time>2025-04-12T09:00:09Z</time>
      </trkpt>
      <trkpt lat="43.70123" lon="1.36951">
        <ele>125</ele>
        <time>2025-04-12T09:00:10Z</time>
      </trkpt>
      <trkpt lat="43.70123" lon="1.36948">
        <ele>125</ele>
        <time>2025-04-12T09:00:11Z</time>
      </trkpt>
      <trkpt lat="43.70123" lon="1.36948">
        <ele>125</ele>
        <time>2025-04-12T09:00:12Z</time>
      </trkpt>
      <trkpt lat="43.70123" lon="1.36948">
        <ele>125</ele>
        <time>2025-04-12T09:00:13Z</time>
      </trkpt>
      <trkpt lat="43.70123" lon="1.36943">
        <ele>125</ele>
        <time>2025-04-12T09:00:14Z</time>
      </trkpt>
      <trkpt lat="43.70123" lon="1.3694">
        <ele>125</ele>
        <time>2025-04-12T09:00:15Z</time>
      </trkpt>
      <trkpt lat="43.70123" lon="1.3694">
        <ele>124</ele>
        <time>2025-04-12T09:00:16Z</time>
      </trkpt>
      <trkpt lat="43.70123" lon="1.36936">
        <ele>124</ele>
        <time>2025-04-12T09:00:17Z</time>
      </trkpt>
      <trkpt lat="43.70123" lon="1.36936">
        <ele>124</ele>
        <time>2025-04-12T09:00:18Z</time>
      </trkpt>
      <trkpt lat="43.70123" lon="1.36933">
        <ele>124</ele>
        <time>2025-04-12T09:00:19Z</time>
      </trkpt>
      <trkpt lat="43.70123" lon="1.36933">
        <ele>124</ele>
        <time>2025-04-12T09:00:20Z</time>
      </trkpt>
      <trkpt lat="43.70123" lon="1.36933">
        <ele>124</ele>
        <time>2025-04-12T09:00:21Z</time>
      </trkpt>
      <trkpt lat="43.70124" lon="1.36929">
        <ele>124</ele>
        <time>2025-04-12T09:00:22Z</time>
      </trkpt>
      <trkpt lat="43.70123" lon="1.36926">
        <ele>124</ele>
        <time>2025-04-12T09:00:23Z</time>
      </trkpt>
      <trkpt lat="43.70123" lon="1.36926">
        <ele>124</ele>
        <time>2025-04-12T09:00:24Z</time>
      </trkpt>
      <trkpt lat="43.70123" lon="1.36926">
        <ele>124</ele>
        <time>2025-04-12T09:00:25Z</time>
      </trkpt>
      <trkpt lat="43.70123" lon="1.36923">
        <ele>124</ele>
        <time>2025-04-12T09:00:26Z</time>
      </trkpt>
      <trkpt lat="43.70122" lon="1.3692">
        <ele>124</ele>
        <time>2025-04-12T09:00:27Z</time>
      </trkpt>
      <trkpt lat="43.70122" lon="1.3692">
        <ele>124</ele>
        <time>2025-04-12T09:00:28Z</time>
      </trkpt>
      <trkpt lat="43.70121" lon="1.36917">
        <ele>124</ele>
        <time>2025-04-12T09:00:29Z</time>
      </trkpt>
      <trkpt lat="43.70121" lon="1.36917">
        <ele>125</ele>
        <time>2025-04-12T09:00:30Z</time>
      </trkpt>
      <trkpt lat="43.7012" lon="1.36914">
        <ele>125</ele>
        <time>2025-04-12T09:00:31Z</time>
      </trkpt>
      <trkpt lat="43.7012" lon="1.36914">
        <ele>125</ele>
        <time>2025-04-12T09:00:32Z</time>
      </trkpt>
      <trkpt lat="43.70118" lon="1.36911">
        <ele>125</ele>
        <time>2025-04-12T09:00:33Z</time>
      </trkpt>
      <trkpt lat="43.70118" lon="1.36911">
        <ele>125</ele>
        <time>2025-04-12T09:00:34Z</time>
      </trkpt>
      <trkpt lat="43.70117" lon="1.36908">
        <ele>125</ele>
        <time>2025-04-12T09:00:35Z</time>
      </trkpt>
      <trkpt lat="43.70117" lon="1.36908">
        <ele>125</ele>
        <time>2025-04-12T09:00:36Z</time>
      </trkpt>
      <trkpt lat="43.70116" lon="1.36905">
        <ele>125</ele>
        <time>2025-04-12T09:00:37Z</time>
      </trkpt>
      <trkpt lat="43.70116" lon="1.36905">
        <ele>125</ele>
        <time>2025-04-12T09:00:38Z</time>
      </trkpt>
      <trkpt lat="43.70114" lon="1.36902">
        <ele>125</ele>
        <time>2025-04-12T09:00:39Z</time>
      </trkpt>
      <trkpt lat="43.70114" lon="1.36902">
        <ele>125</ele>
        <time>2025-04-12T09:00:40Z</time>
      </trkpt>
      <trkpt lat="43.70113" lon="1.36898">
        <ele>125</ele>
        <time>2025-04-12T09:00:41Z</time>
      </trkpt>
      <trkpt lat="43.70113" lon="1.36898">
        <ele>125</ele>
        <time>2025-04-12T09:00:42Z</time>
      </trkpt>
      <trkpt lat="43.70112" lon="1.36895">
        <ele>125</ele>
        <time>2025-04-12T09:00:43Z</time>
      </trkpt>
      <trkpt lat="43.70112" lon="1.36895">
        <ele>124</ele>
        <time>2025-04-12T09:00:44Z</time>
      </trkpt>
      <trkpt lat="43.7011" lon="1.36892">
        <ele>124</ele>
        <time>2025-04-12T09:00:45Z</time>
      </trkpt>
      <trkpt lat="43.7011" lon="1.36892">
        <ele>124</ele>
        <time>2025-04-12T09:00:46Z</time>
      </trkpt>
      <trkpt lat="43.70109" lon="1.36889">
        <ele>124</ele>
        <time>2025-04-12T09:00:47Z</time>
      </trkpt>
      <trkpt lat="43.70109" lon="1.36889">
        <ele>124</ele>
        <time>2025-04-12T09:00:48Z</time>
      </trkpt>
      <trkpt lat="43.70109" lon="1.36889">
        <ele>123</ele>
        <time>2025-04-12T09:00:49Z</time>
      </trkpt>
      <trkpt lat="43.70107" lon="1.36887">
        <ele>123</ele>
        <time>2025-04-12T09:00:50Z</time>
      </trkpt>
      <trkpt lat="43.70107" lon="1.36887">
        <ele>123</ele>
        <time>2025-04-12T09:00:51Z</time>
      </trkpt>
      <trkpt lat="43.70105" lon="1.36887">
        <ele>123</ele>
        <time>2025-04-12T09:00:52Z</time>
      </trkpt>
      <trkpt lat="43.70103" lon="1.36889">
        <ele>123</ele>
        <time>2025-04-12T09:00:53Z</time>
      </trkpt>
      <trkpt lat="43.70103" lon="1.36889">
        <ele>123</ele>
        <time>2025-04-12T09:00:54Z</time>
      </trkpt>
      <trkpt lat="43.70101" lon="1.36891">
        <ele>123</ele>
        <time>2025-04-12T09:00:55Z</time>
      </trkpt>
      <trkpt lat="43.70101" lon="1.36891">
        <ele>123</ele>
        <time>2025-04-12T09:00:56Z</time>
      </trkpt>
      <trkpt lat="43.70098" lon="1.36893">
        <ele>123</ele>
        <time>2025-04-12T09:00:57Z</time>
      </trkpt>
      <trkpt lat="43.70098" lon="1.36893">
        <ele>123</ele>
        <time>2025-04-12T09:00:58Z</time>
      </trkpt>
      <trkpt lat="43.70096" lon="1.36895">
        <ele>123</ele>
        <time>2025-04-12T09:00:59Z</time>
      </trkpt>
      <trkpt lat="43.70096" lon="1.36895">
        <ele>123</ele>
        <time>2025-04-12T09:01:00Z</time>
      </trkpt>
      <trkpt lat="43.70096" lon="1.36895">
        <ele>123</ele>
        <time>2025-04-12T09:01:01Z</time>
      </trkpt>
      <trkpt lat="43.70093" lon="1.36897">
        <ele>123</ele>
        <time>2025-04-12T09:01:02Z</time>
      </trkpt>
      <trkpt lat="43.70092" lon="1.36899">
        <ele>123</ele>
        <time>2025-04-12T09:01:03Z</time>
      </trkpt>
      <trkpt lat="43.70092" lon="1.36899">
        <ele>123</ele>
        <time>2025-04-12T09:01:04Z</time>
      </trkpt>
      <trkpt lat="43.70089" lon="1.369">
        <ele>123</ele>
        <time>2025-04-12T09:01:05Z</time>
      </trkpt>
      <trkpt lat="43.70089" lon="1.369">
        <ele>123</ele>
        <time>2025-04-12T09:01:06Z</time>
      </trkpt>
      <trkpt lat="43.70087" lon="1.36902">
        <ele>123</ele>
        <time>2025-04-12T09:01:07Z</time>
      </trkpt>
      <trkpt lat="43.70087" lon="1.36902">
        <ele>123</ele>
        <time>2025-04-12T09:01:08Z</time>
      </trkpt>
      <trkpt lat="43.70085" lon="1.36903">
        <ele>123</ele>
        <time>2025-04-12T09:01:09Z</time>
      </trkpt>
      <trkpt lat="43.70085" lon="1.36903">
        <ele>123</ele>
        <time>2025-04-12T09:01:10Z</time>
      </trkpt>
      <trkpt lat="43.70082" lon="1.36905">
        <ele>123</ele>
        <time>2025-04-12T09:01:11Z</time>
      </trkpt>
      <trkpt lat="43.70082" lon="1.36905">
        <ele>123</ele>
        <time>2025-04-12T09:01:12Z</time>
      </trkpt>
      <trkpt lat="43.7008" lon="1.36906">
        <ele>123</ele>
        <time>2025-04-12T09:01:13Z</time>
      </trkpt>
      <trkpt lat="43.7008" lon="1.36906">
        <ele>123</ele>
        <time>2025-04-12T09:01:14Z</time>
      </trkpt>
      <trkpt lat="43.7008" lon="1.36906">
        <ele>122</ele>
        <time>2025-04-12T09:01:15Z</time>
      </trkpt>
      <trkpt lat="43.70078" lon="1.36907">
        <ele>122</ele>
        <time>2025-04-12T09:01:16Z</time>
      </trkpt>
      <trkpt lat="43.70078" lon="1.36907">
        <ele>122</ele>
        <time>2025-04-12T09:01:17Z</time>
      </trkpt>
      <trkpt lat="43.70075" lon="1.36909">
        <ele>122</ele>
        <time>2025-04-12T09:01:18Z</time>
      </trkpt>
      <trkpt lat="43.70073" lon="1.3691">
        <ele>122</ele>
        <time>2025-04-12T09:01:19Z</time>
      </trkpt>
      <trkpt lat="43.70073" lon="1.3691">
        <ele>122</ele>
        <time>2025-04-12T09:01:20Z</time>
      </trkpt>
      <trkpt lat="43.70069" lon="1.36912">
        <ele>122</ele>
        <time>2025-04-12T09:01:21Z</time>
      </trkpt>
      <trkpt lat="43.70069" lon="1.36912">
        <ele>122</ele>
        <time>2025-04-12T09:01:22Z</time>
      </trkpt>
      <trkpt lat="43.70066" lon="1.36916">
        <ele>122</ele>
        <time>2025-04-12T09:01:23Z</time>
      </trkpt>
      <trkpt lat="43.70063" lon="1.36917">
        <ele>122</ele>
        <time>2025-04-12T09:01:24Z</time>
      </trkpt>
      <trkpt lat="43.70061" lon="1.36918">
        <ele>122</ele>
        <time>2025-04-12T09:01:25Z</time>
      </trkpt>
      <trkpt lat="43.70058" lon="1.3692">
        <ele>122</ele>
        <time>2025-04-12T09:01:26Z</time>
      </trkpt>
      <trkpt lat="43.70056" lon="1.36921">
        <ele>122</ele>
        <time>2025-04-12T09:01:27Z</time>
      </trkpt>
      <trkpt lat="43.70053" lon="1.36921">
        <ele>123</ele>
        <time>2025-04-12T09:01:28Z</time>
      </trkpt>
      <trkpt lat="43.70053" lon="1.36921">
        <ele>123</ele>
        <time>2025-04-12T09:01:29Z</time>
      </trkpt>
      <trkpt lat="43.70048" lon="1.36923">
        <ele>122</ele>
        <time>2025-04-12T09:01:30Z</time>
      </trkpt>
      <trkpt lat="43.70046" lon="1.36924">
        <ele>122</ele>
        <time>2025-04-12T09:01:31Z</time>
      </trkpt>
      <trkpt lat="43.70043" lon="1.36925">
        <ele>122</ele>
        <time>2025-04-12T09:01:32Z</time>
      </trkpt>
      <trkpt lat="43.7004" lon="1.36927">
        <ele>122</ele>
        <time>2025-04-12T09:01:33Z</time>
      </trkpt>
      <trkpt lat="43.7004" lon="1.36927">
        <ele>122</ele>
        <time>2025-04-12T09:01:34Z</time>
      </trkpt>
      <trkpt lat="43.70035" lon="1.36929">
        <ele>122</ele>
        <time>2025-04-12T09:01:35Z</time>
      </trkpt>
      <trkpt lat="43.70033" lon="1.3693">
        <ele>122</ele>
        <time>2025-04-12T09:01:36Z</time>
      </trkpt>
      <trkpt lat="43.70033" lon="1.3693">
        <ele>122</ele>
        <time>2025-04-12T09:01:37Z</time>
      </trkpt>
      <trkpt lat="43.70028" lon="1.36932">
        <ele>122</ele>
        <time>2025-04-12T09:01:38Z</time>
      </trkpt>
      <trkpt lat="43.70028" lon="1.36932">
        <ele>122</ele>
        <time>2025-04-12T09:01:39Z</time>
      </trkpt>
      <trkpt lat="43.70023" lon="1.36934">
        <ele>122</ele>
        <time>2025-04-12T09:01:40Z</time>
      </trkpt>
      <trkpt lat="43.7002" lon="1.36935">
        <ele>122</ele>
        <time>2025-04-12T09:01:41Z</time>
      </trkpt>
      <trkpt lat="43.70018" lon="1.36937">
        <ele>122</ele>
        <time>2025-04-12T09:01:42Z</time>
      </trkpt>
      <trkpt lat="43.70015" lon="1.36939">
        <ele>122</ele>
        <time>2025-04-12T09:01:43Z</time>
      </trkpt>
      <trkpt lat="43.70013" lon="1.3694">
        <ele>122</ele>
        <time>2025-04-12T09:01:44Z</time>
      </trkpt>
      <trkpt lat="43.70011" lon="1.36943">
        <ele>123</ele>
        <time>2025-04-12T09:01:45Z</time>
      </trkpt>
      <trkpt lat="43.70011" lon="1.36943">
        <ele>123</ele>
        <time>2025-04-12T09:01:46Z</time>
      </trkpt>
      <trkpt lat="43.70007" lon="1.36947">
        <ele>123</ele>
        <time>2025-04-12T09:01:47Z</time>
      </trkpt>
      <trkpt lat="43.70004" lon="1.36949">
        <ele>123</ele>
        <time>2025-04-12T09:01:48Z</time>
      </trkpt>
      <trkpt lat="43.70001" lon="1.36949">
        <ele>123</ele>
        <time>2025-04-12T09:01:49Z</time>
      </trkpt>
      <trkpt lat="43.69998" lon="1.36949">
        <ele>122</ele>
        <time>2025-04-12T09:01:50Z</time>
      </trkpt>
      <trkpt lat="43.69998" lon="1.36949">
        <ele>122</ele>
        <time>2025-04-12T09:01:51Z</time>
      </trkpt>
      <trkpt lat="43.69993" lon="1.36948">
        <ele>122</ele>
        <time>2025-04-12T09:01:52Z</time>
      </trkpt>
      <trkpt lat="43.69993" lon="1.36948">
        <ele>122</ele>
        <time>2025-04-12T09:01:53Z</time>
      </trkpt>
      <trkpt lat="43.69988" lon="1.36947">
        <ele>122</ele>
        <time>2025-04-12T09:01:54Z</time>
      </trkpt>
      <trkpt lat="43.69986" lon="1.36947">
        <ele>121</ele>
        <time>2025-04-12T09:01:55Z</time>
      </trkpt>
      <trkpt lat="43.69983" lon="1.36948">
        <ele>121</ele>
        <time>2025-04-12T09:01:56Z</time>
      </trkpt>
      <trkpt lat="43.69982" lon="1.36949">
        <ele>121</ele>
        <time>2025-04-12T09:01:57Z</time>
      </trkpt>
      <trkpt lat="43.6998" lon="1.36952">
        <ele>121</ele>
        <time>2025-04-12T09:01:58Z</time>
      </trkpt>
      <trkpt lat="43.69977" lon="1.36953">
        <ele>121</ele>
        <time>2025-04-12T09:01:59Z</time>
      </trkpt>
      <trkpt lat="43.69975" lon="1.36954">
        <ele>122</ele>
        <time>2025-04-12T09:02:00Z</time>
      </trkpt>
      <trkpt lat="43.69973" lon="1.36954">
        <ele>122</ele>
        <time>2025-04-12T09:02:01Z</time>
      </trkpt>
      <trkpt lat="43.69971" lon="1.36954">
        <ele>122</ele>
        <time>2025-04-12T09:02:02Z</time>
      </trkpt>
      <trkpt lat="43.69971" lon="1.36954">
        <ele>122</ele>
        <time>2025-04-12T09:02:03Z</time>
      </trkpt>
      <trkpt lat="43.69968" lon="1.36956">
        <ele>122</ele>
        <time>2025-04-12T09:02:04Z</time>
      </trkpt>
      <trkpt lat="43.69968" lon="1.36956">
        <ele>122</ele>
        <time>2025-04-12T09:02:05Z</time>
      </trkpt>
      <trkpt lat="43.69965" lon="1.36959">
        <ele>122</ele>
        <time>2025-04-12T09:02:06Z</time>
      </trkpt>
      <trkpt lat="43.69963" lon="1.36959">
        <ele>122</ele>
        <time>2025-04-12T09:02:07Z</time>
      </trkpt>
      <trkpt lat="43.69961" lon="1.3696">
        <ele>122</ele>
        <time>2025-04-12T09:02:08Z</time>
      </trkpt>
      <trkpt lat="43.69955" lon="1.36964">
        <ele>121</ele>
        <time>2025-04-12T09:02:10Z</time>
      </trkpt>
      <trkpt lat="43.69953" lon="1.36965">
        <ele>121</ele>
        <time>2025-04-12T09:02:11Z</time>
      </trkpt>
      <trkpt lat="43.6995" lon="1.36967">
        <ele>121</ele>
        <time>2025-04-12T09:02:12Z</time>
      </trkpt>
      <trkpt lat="43.69948" lon="1.36968">
        <ele>121</ele>
        <time>2025-04-12T09:02:13Z</time>
      </trkpt>
      <trkpt lat="43.69948" lon="1.36968">
        <ele>122</ele>
        <time>2025-04-12T09:02:14Z</time>
      </trkpt>
      <trkpt lat="43.69946" lon="1.3697">
        <ele>122</ele>
        <time>2025-04-12T09:02:15Z</time>
      </trkpt>
      <trkpt lat="43.69941" lon="1.36974">
        <ele>121</ele>
        <time>2025-04-12T09:02:16Z</time>
      </trkpt>
      <trkpt lat="43.69939" lon="1.36977">
        <ele>121</ele>
        <time>2025-04-12T09:02:17Z</time>
      </trkpt>
      <trkpt lat="43.69937" lon="1.36979">
        <ele>121</ele>
        <time>2025-04-12T09:02:18Z</time>
      </trkpt>
      <trkpt lat="43.69937" lon="1.36979">
        <ele>122</ele>
        <time>2025-04-12T09:02:19Z</time>
      </trkpt>
      <trkpt lat="43.69931" lon="1.36982">
        <ele>122</ele>
        <time>2025-04-12T09:02:20Z</time>
      </trkpt>
      <trkpt lat="43.69928" lon="1.36983">
        <ele>122</ele>
        <time>2025-04-12T09:02:21Z</time>
      </trkpt>
      <trkpt lat="43.69926" lon="1.36984">
        <ele>122</ele>
        <time>2025-04-12T09:02:22Z</time>
      </trkpt>
      <trkpt lat="43.69923" lon="1.36986">
        <ele>122</ele>
        <time>2025-04-12T09:02:23Z</time>
      </trkpt>
      <trkpt lat="43.69923" lon="1.36986">
        <ele>121</ele>
        <time>2025-04-12T09:02:24Z</time>
      </trkpt>
      <trkpt lat="43.69919" lon="1.3699">
        <ele>121</ele>
        <time>2025-04-12T09:02:25Z</time>
      </trkpt>
      <trkpt lat="43.69919" lon="1.3699">
        <ele>121</ele>
        <time>2025-04-12T09:02:26Z</time>
      </trkpt>
      <trkpt lat="43.69916" lon="1.36992">
        <ele>121</ele>
        <time>2025-04-12T09:02:27Z</time>
      </trkpt>
      <trkpt lat="43.69912" lon="1.36995">
        <ele>121</ele>
        <time>2025-04-12T09:02:28Z</time>
      </trkpt>
      <trkpt lat="43.6991" lon="1.36997">
        <ele>121</ele>
        <time>2025-04-12T09:02:29Z</time>
      </trkpt>
      <trkpt lat="43.69908" lon="1.36999">
        <ele>121</ele>
        <time>2025-04-12T09:02:30Z</time>
      </trkpt>
      <trkpt lat="43.69906" lon="1.37">
        <ele>121</ele>
        <time>2025-04-12T09:02:31Z</time>
      </trkpt>
      <trkpt lat="43.69906" lon="1.37">
        <ele>121</ele>
        <time>2025-04-12T09:02:32Z</time>
      </trkpt>
      <trkpt lat="43.69902" lon="1.37002">
        <ele>121</ele>
        <time>2025-04-12T09:02:33Z</time>
      </trkpt>
      <trkpt lat="43.69902" lon="1.37002">
        <ele>121</ele>
        <time>2025-04-12T09:02:34Z</time>
      </trkpt>
      <trkpt lat="43.69898" lon="1.37005">
        <ele>120</ele>
        <time>2025-04-12T09:02:35Z</time>
      </trkpt>
      <trkpt lat="43.69898" lon="1.37005">
        <ele>120</ele>
        <time>2025-04-12T09:02:36Z</time>
      </trkpt>
      <trkpt lat="43.69896" lon="1.3701">
        <ele>120</ele>
        <time>2025-04-12T09:02:37Z</time>
      </trkpt>
      <trkpt lat="43.69895" lon="1.37012">
        <ele>120</ele>
        <time>2025-04-12T09:02:38Z</time>
      </trkpt>
      <trkpt lat="43.69894" lon="1.37016">
        <ele>120</ele>
        <time>2025-04-12T09:02:39Z</time>
      </trkpt>
      <trkpt lat="43.69892" lon="1.37019">
        <ele>121</ele>
        <time>2025-04-12T09:02:40Z</time>
      </trkpt>
      <trkpt lat="43.69892" lon="1.37019">
        <ele>121</ele>
        <time>2025-04-12T09:02:41Z</time>
      </trkpt>
      <trkpt lat="43.69886" lon="1.37023">
        <ele>122</ele>
        <time>2025-04-12T09:02:42Z</time>
      </trkpt>
      <trkpt lat="43.69886" lon="1.37023">
        <ele>122</ele>
        <time>2025-04-12T09:02:43Z</time>
      </trkpt>
      <trkpt lat="43.69881" lon="1.37026">
        <ele>122</ele>
        <time>2025-04-12T09:02:44Z</time>
      </trkpt>
      <trkpt lat="43.69878" lon="1.37027">
        <ele>122</ele>
        <time>2025-04-12T09:02:45Z</time>
      </trkpt>
      <trkpt lat="43.69875" lon="1.37028">
        <ele>122</ele>
        <time>2025-04-12T09:02:46Z</time>
      </trkpt>
      <trkpt lat="43.69872" lon="1.37028">
        <ele>122</ele>
        <time>2025-04-12T09:02:48Z</time>
      </trkpt>
      <trkpt lat="43.69866" lon="1.37028">
        <ele>122</ele>
        <time>2025-04-12T09:02:49Z</time>
      </trkpt>
      <trkpt lat="43.69863" lon="1.37028">
        <ele>122</ele>
        <time>2025-04-12T09:02:50Z</time>
      </trkpt>
      <trkpt lat="43.6986" lon="1.37029">
        <ele>121</ele>
        <time>2025-04-12T09:02:51Z</time>
      </trkpt>
      <trkpt lat="43.69857" lon="1.37029">
        <ele>121</ele>
        <time>2025-04-12T09:02:52Z</time>
      </trkpt>
      <trkpt lat="43.69854" lon="1.3703">
        <ele>121</ele>
        <time>2025-04-12T09:02:53Z</time>
      </trkpt>
      <trkpt lat="43.69851" lon="1.37031">
        <ele>121</ele>
        <time>2025-04-12T09:02:54Z</time>
      </trkpt>
      <trkpt lat="43.69851" lon="1.37031">
        <ele>121</ele>
        <time>2025-04-12T09:02:55Z</time>
      </trkpt>
      <trkpt lat="43.69846" lon="1.37031">
        <ele>121</ele>
        <time>2025-04-12T09:02:56Z</time>
      </trkpt>
      <trkpt lat="43.69843" lon="1.37032">
        <ele>120</ele>
        <time>2025-04-12T09:02:57Z</time>
      </trkpt>
      <trkpt lat="43.69841" lon="1.37031">
        <ele>120</ele>
        <time>2025-04-12T09:02:58Z</time>
      </trkpt>
      <trkpt lat="43.69838" lon="1.37031">
        <ele>120</ele>
        <time>2025-04-12T09:02:59Z</time>
      </trkpt>
      <trkpt lat="43.69835" lon="1.3703">
        <ele>120</ele>
        <time>2025-04-12T09:03:00Z</time>
      </trkpt>
      <trkpt lat="43.69833" lon="1.37029">
        <ele>120</ele>
        <time>2025-04-12T09:03:01Z</time>
      </trkpt>
      <trkpt lat="43.69833" lon="1.37029">
        <ele>120</ele>
        <time>2025-04-12T09:03:02Z</time>
      </trkpt>
      <trkpt lat="43.69827" lon="1.3703">
        <ele>120</ele>
        <time>2025-04-12T09:03:03Z</time>
      </trkpt>
      <trkpt lat="43.69824" lon="1.3703">
        <ele>120</ele>
        <time>2025-04-12T09:03:04Z</time>
      </trkpt>
      <trkpt lat="43.69822" lon="1.37031">
        <ele>120</ele>
        <time>2025-04-12T09:03:05Z</time>
      </trkpt>
      <trkpt lat="43.69819" lon="1.37031">
        <ele>120</ele>
        <time>2025-04-12T09:03:06Z</time>
      </trkpt>
      <trkpt lat="43.69816" lon="1.37032">
        <ele>120</ele>
        <time>2025-04-12T09:03:07Z</time>
      </trkpt>
      <trkpt lat="43.69813" lon="1.37032">
        <ele>120</ele>
        <time>2025-04-12T09:03:08Z</time>
      </trkpt>
      <trkpt lat="43.6981" lon="1.37033">
        <ele>120</ele>
        <time>2025-04-12T09:03:09Z</time>
      </trkpt>
      <trkpt lat="43.69808" lon="1.37032">
        <ele>120</ele>
        <time>2025-04-12T09:03:10Z</time>
      </trkpt>
      <trkpt lat="43.69805" lon="1.37032">
        <ele>120</ele>
        <time>2025-04-12T09:03:11Z</time>
      </trkpt>
      <trkpt lat="43.69805" lon="1.37032">
        <ele>120</ele>
        <time>2025-04-12T09:03:12Z</time>
      </trkpt>
      <trkpt lat="43.698" lon="1.3703">
        <ele>120</ele>
        <time>2025-04-12T09:03:13Z</time>
      </trkpt>
      <trkpt lat="43.698" lon="1.3703">
        <ele>120</ele>
        <time>2025-04-12T09:03:14Z</time>
      </trkpt>
      <trkpt lat="43.69795" lon="1.37028">
        <ele>120</ele>
        <time>2025-04-12T09:03:15Z</time>
      </trkpt>
      <trkpt lat="43.69792" lon="1.37027">
        <ele>120</ele>
        <time>2025-04-12T09:03:16Z</time>
      </trkpt>
      <trkpt lat="43.6979" lon="1.37026">
        <ele>120</ele>
        <time>2025-04-12T09:03:17Z</time>
      </trkpt>
      <trkpt lat="43.69788" lon="1.37026">
        <ele>120</ele>
        <time>2025-04-12T09:03:18Z</time>
      </trkpt>
      <trkpt lat="43.69785" lon="1.37025">
        <ele>120</ele>
        <time>2025-04-12T09:03:19Z</time>
      </trkpt>
      <trkpt lat="43.69783" lon="1.37025">
        <ele>120</ele>
        <time>2025-04-12T09:03:20Z</time>
      </trkpt>
      <trkpt lat="43.69783" lon="1.37025">
        <ele>120</ele>
        <time>2025-04-12T09:03:21Z</time>
      </trkpt>
      <trkpt lat="43.6978" lon="1.37023">
        <ele>120</ele>
        <time>2025-04-12T09:03:22Z</time>
      </trkpt>
      <trkpt lat="43.69778" lon="1.37022">
        <ele>120</ele>
        <time>2025-04-12T09:03:23Z</time>
      </trkpt>
      <trkpt lat="43.69775" lon="1.37021">
        <ele>120</ele>
        <time>2025-04-12T09:03:24Z</time>
      </trkpt>
      <trkpt lat="43.69773" lon="1.3702">
        <ele>120</ele>
        <time>2025-04-12T09:03:25Z</time>
      </trkpt>
      <trkpt lat="43.6977" lon="1.37019">
        <ele>120</ele>
        <time>2025-04-12T09:03:26Z</time>
      </trkpt>
      <trkpt lat="43.6977" lon="1.37019">
        <ele>120</ele>
        <time>2025-04-12T09:03:27Z</time>
      </trkpt>
      <trkpt lat="43.69765" lon="1.37018">
        <ele>120</ele>
        <time>2025-04-12T09:03:28Z</time>
      </trkpt>
      <trkpt lat="43.69765" lon="1.37018">
        <ele>120</ele>
        <time>2025-04-12T09:03:29Z</time>
      </trkpt>
      <trkpt lat="43.6976" lon="1.37017">
        <ele>120</ele>
        <time>2025-04-12T09:03:30Z</time>
      </trkpt>
      <trkpt lat="43.6976" lon="1.37017">
        <ele>120</ele>
        <time>2025-04-12T09:03:31Z</time>
      </trkpt>
      <trkpt lat="43.69754" lon="1.37016">
        <ele>120</ele>
        <time>2025-04-12T09:03:32Z</time>
      </trkpt>
      <trkpt lat="43.69754" lon="1.37016">
        <ele>120</ele>
        <time>2025-04-12T09:03:33Z</time>
      </trkpt>
      <trkpt lat="43.69749" lon="1.37016">
        <ele>120</ele>
        <time>2025-04-12T09:03:34Z</time>
      </trkpt>
      <trkpt lat="43.69746" lon="1.37016">
        <ele>120</ele>
        <time>2025-04-12T09:03:35Z</time>
      </trkpt>
      <trkpt lat="43.69746" lon="1.37016">
        <ele>120</ele>
        <time>2025-04-12T09:03:36Z</time>
      </trkpt>
      <trkpt lat="43.69743" lon="1.37016">
        <ele>120</ele>
        <time>2025-04-12T09:03:37Z</time>
      </trkpt>
      <trkpt lat="43.69738" lon="1.37015">
        <ele>120</ele>
        <time>2025-04-12T09:03:38Z</time>
      </trkpt>
      <trkpt lat="43.69735" lon="1.37015">
        <ele>120</ele>
        <time>2025-04-12T09:03:39Z</time>
      </trkpt>
      <trkpt lat="43.69732" lon="1.37015">
        <ele>120</ele>
        <time>2025-04-12T09:03:40Z</time>
      </trkpt>
      <trkpt lat="43.69732" lon="1.37015">
        <ele>120</ele>
        <time>2025-04-12T09:03:41Z</time>
      </trkpt>
      <trkpt lat="43.69727" lon="1.37015">
        <ele>120</ele>
        <time>2025-04-12T09:03:42Z</time>
      </trkpt>
      <trkpt lat="43.69727" lon="1.37015">
        <ele>120</ele>
        <time>2025-04-12T09:03:43Z</time>
      </trkpt>
      <trkpt lat="43.69724" lon="1.37015">
        <ele>120</ele>
        <time>2025-04-12T09:03:44Z</time>
      </trkpt>
      <trkpt lat="43.69718" lon="1.37014">
        <ele>120</ele>
        <time>2025-04-12T09:03:45Z</time>
      </trkpt>
      <trkpt lat="43.69718" lon="1.37014">
        <ele>120</ele>
        <time>2025-04-12T09:03:46Z</time>
      </trkpt>
      <trkpt lat="43.69712" lon="1.37014">
        <ele>120</ele>
        <time>2025-04-12T09:03:47Z</time>
      </trkpt>
      <trkpt lat="43.6971" lon="1.37014">
        <ele>120</ele>
        <time>2025-04-12T09:03:48Z</time>
      </trkpt>
      <trkpt lat="43.69707" lon="1.37014">
        <ele>120</ele>
        <time>2025-04-12T09:03:49Z</time>
      </trkpt>
      <trkpt lat="43.69703" lon="1.37013">
        <ele>120</ele>
        <time>2025-04-12T09:03:51Z</time>
      </trkpt>
      <trkpt lat="43.69701" lon="1.37013">
        <ele>120</ele>
        <time>2025-04-12T09:03:52Z</time>
      </trkpt>
      <trkpt lat="43.69699" lon="1.37012">
        <ele>120</ele>
        <time>2025-04-12T09:03:53Z</time>
      </trkpt>
      <trkpt lat="43.69697" lon="1.37012">
        <ele>120</ele>
        <time>2025-04-12T09:03:54Z</time>
      </trkpt>
      <trkpt lat="43.69695" lon="1.37012">
        <ele>120</ele>
        <time>2025-04-12T09:03:55Z</time>
      </trkpt>
      <trkpt lat="43.69692" lon="1.37012">
        <ele>120</ele>
        <time>2025-04-12T09:03:56Z</time>
      </trkpt>
      <trkpt lat="43.69689" lon="1.37011">
        <ele>120</ele>
        <time>2025-04-12T09:03:57Z</time>
      </trkpt>
      <trkpt lat="43.69686" lon="1.3701">
        <ele>120</ele>
        <time>2025-04-12T09:03:58Z</time>
      </trkpt>
      <trkpt lat="43.69683" lon="1.37009">
        <ele>120</ele>
        <time>2025-04-12T09:03:59Z</time>
      </trkpt>
      <trkpt lat="43.69683" lon="1.37009">
        <ele>120</ele>
        <time>2025-04-12T09:04:00Z</time>
      </trkpt>
      <trkpt lat="43.69677" lon="1.37008">
        <ele>120</ele>
        <time>2025-04-12T09:04:01Z</time>
      </trkpt>
      <trkpt lat="43.69675" lon="1.37008">
        <ele>120</ele>
        <time>2025-04-12T09:04:02Z</time>
      </trkpt>
      <trkpt lat="43.69672" lon="1.37007">
        <ele>120</ele>
        <time>2025-04-12T09:04:03Z</time>
      </trkpt>
      <trkpt lat="43.69669" lon="1.37006">
        <ele>120</ele>
        <time>2025-04-12T09:04:04Z</time>
      </trkpt>
      <trkpt lat="43.69666" lon="1.37005">
        <ele>120</ele>
        <time>2025-04-12T09:04:05Z</time>
      </trkpt>
      <trkpt lat="43.69664" lon="1.37005">
        <ele>120</ele>
        <time>2025-04-12T09:04:06Z</time>
      </trkpt>
      <trkpt lat="43.69661" lon="1.37004">
        <ele>120</ele>
        <time>2025-04-12T09:04:07Z</time>
      </trkpt>
      <trkpt lat="43.69659" lon="1.37003">
        <ele>120</ele>
        <time>2025-04-12T09:04:08Z</time>
      </trkpt>
      <trkpt lat="43.69659" lon="1.37003">
        <ele>120</ele>
        <time>2025-04-12T09:04:09Z</time>
      </trkpt>
      <trkpt lat="43.69653" lon="1.37001">
        <ele>120</ele>
        <time>2025-04-12T09:04:10Z</time>
      </trkpt>
      <trkpt lat="43.69651" lon="1.37">
        <ele>120</ele>
        <time>2025-04-12T09:04:11Z</time>
      </trkpt>
      <trkpt lat="43.69648" lon="1.36999">
        <ele>120</ele>
        <time>2025-04-12T09:04:12Z</time>
      </trkpt>
      <trkpt lat="43.69646" lon="1.36998">
        <ele>120</ele>
        <time>2025-04-12T09:04:13Z</time>
      </trkpt>
      <trkpt lat="43.69646" lon="1.36998">
        <ele>120</ele>
        <time>2025-04-12T09:04:14Z</time>
      </trkpt>
      <trkpt lat="43.69641" lon="1.36997">
        <ele>120</ele>
        <time>2025-04-12T09:04:15Z</time>
      </trkpt>
      <trkpt lat="43.69641" lon="1.36997">
        <ele>120</ele>
        <time>2025-04-12T09:04:16Z</time>
      </trkpt>
      <trkpt lat="43.69636" lon="1.36996">
        <ele>120</ele>
        <time>2025-04-12T09:04:17Z</time>
      </trkpt>
      <trkpt lat="43.69636" lon="1.36996">
        <ele>120</ele>
        <time>2025-04-12T09:04:18Z</time>
      </trkpt>
      <trkpt lat="43.69631" lon="1.36994">
        <ele>120</ele>
        <time>2025-04-12T09:04:19Z</time>
      </trkpt>
      <trkpt lat="43.69629" lon="1.36993">
        <ele>120</ele>
        <time>2025-04-12T09:04:21Z</time>
      </trkpt>
      <trkpt lat="43.69624" lon="1.36992">
        <ele>120</ele>
        <time>2025-04-12T09:04:22Z</time>
      </trkpt>
      <trkpt lat="43.69622" lon="1.36992">
        <ele>120</ele>
        <time>2025-04-12T09:04:23Z</time>
      </trkpt>
      <trkpt lat="43.69619" lon="1.36991">
        <ele>120</ele>
        <time>2025-04-12T09:04:24Z</time>
      </trkpt>
      <trkpt lat="43.69617" lon="1.3699">
        <ele>120</ele>
        <time>2025-04-12T09:04:25Z</time>
      </trkpt>
      <trkpt lat="43.69615" lon="1.3699">
        <ele>120</ele>
        <time>2025-04-12T09:04:26Z</time>
      </trkpt>
      <trkpt lat="43.69612" lon="1.36988">
        <ele>120</ele>
        <time>2025-04-12T09:04:27Z</time>
      </trkpt>
      <trkpt lat="43.69609" lon="1.36988">
        <ele>120</ele>
        <time>2025-04-12T09:04:28Z</time>
      </trkpt>
      <trkpt lat="43.69606" lon="1.36987">
        <ele>120</ele>
        <time>2025-04-12T09:04:29Z</time>
      </trkpt>
      <trkpt lat="43.69606" lon="1.36987">
        <ele>120</ele>
        <time>2025-04-12T09:04:30Z</time>
      </trkpt>
      <trkpt lat="43.69601" lon="1.36986">
        <ele>120</ele>
        <time>2025-04-12T09:04:31Z</time>
      </trkpt>
      <trkpt lat="43.69598" lon="1.36985">
        <ele>120</ele>
        <time>2025-04-12T09:04:32Z</time>
      </trkpt>
      <trkpt lat="43.69595" lon="1.36985">
        <ele>120</ele>
        <time>2025-04-12T09:04:33Z</time>
      </trkpt>
      <trkpt lat="43.69592" lon="1.36984">
        <ele>120</ele>
        <time>2025-04-12T09:04:34Z</time>
      </trkpt>
      <trkpt lat="43.6959" lon="1.36983">
        <ele>120</ele>
        <time>2025-04-12T09:04:35Z</time>
      </trkpt>
      <trkpt lat="43.6959" lon="1.36983">
        <ele>120</ele>
        <time>2025-04-12T09:04:36Z</time>
      </trkpt>
      <trkpt lat="43.69586" lon="1.36982">
        <ele>120</ele>
        <time>2025-04-12T09:04:37Z</time>
      </trkpt>
      <trkpt lat="43.69584" lon="1.36982">
        <ele>120</ele>
        <time>2025-04-12T09:04:38Z</time>
      </trkpt>
      <trkpt lat="43.69581" lon="1.36981">
        <ele>120</ele>
        <time>2025-04-12T09:04:39Z</time>
      </trkpt>
      <trkpt lat="43.69581" lon="1.36981">
        <ele>120</ele>
        <time>2025-04-12T09:04:40Z</time>
      </trkpt>
      <trkpt lat="43.69575" lon="1.3698">
        <ele>120</ele>
        <time>2025-04-12T09:04:41Z</time>
      </trkpt>
      <trkpt lat="43.69572" lon="1.36979">
        <ele>120</ele>
        <time>2025-04-12T09:04:42Z</time>
      </trkpt>
      <trkpt lat="43.69572" lon="1.36979">
        <ele>120</ele>
        <time>2025-04-12T09:04:43Z</time>
      </trkpt>
      <trkpt lat="43.69566" lon="1.36977">
        <ele>120</ele>
        <time>2025-04-12T09:04:44Z</time>
      </trkpt>
      <trkpt lat="43.69566" lon="1.36977">
        <ele>120</ele>
        <time>2025-04-12T09:04:45Z</time>
      </trkpt>
      <trkpt lat="43.6956" lon="1.36975">
        <ele>120</ele>
        <time>2025-04-12T09:04:46Z</time>
      </trkpt>
      <trkpt lat="43.69558" lon="1.36973">
        <ele>120</ele>
        <time>2025-04-12T09:04:47Z</time>
      </trkpt>
      <trkpt lat="43.69555" lon="1.36972">
        <ele>120</ele>
        <time>2025-04-12T09:04:48Z</time>
      </trkpt>
      <trkpt lat="43.69555" lon="1.36972">
        <ele>120</ele>
        <time>2025-04-12T09:04:49Z</time>
      </trkpt>
      <trkpt lat="43.6955" lon="1.36969">
        <ele>120</ele>
        <time>2025-04-12T09:04:50Z</time>
      </trkpt>
      <trkpt lat="43.69547" lon="1.36969">
        <ele>120</ele>
        <time>2025-04-12T09:04:51Z</time>
      </trkpt>
      <trkpt lat="43.69545" lon="1.36968">
        <ele>120</ele>
        <time>2025-04-12T09:04:52Z</time>
      </trkpt>
      <trkpt lat="43.69542" lon="1.36967">
        <ele>120</ele>
        <time>2025-04-12T09:04:53Z</time>
      </trkpt>
      <trkpt lat="43.6954" lon="1.36966">
        <ele>120</ele>
        <time>2025-04-12T09:04:54Z</time>
      </trkpt>
      <trkpt lat="43.69537" lon="1.36965">
        <ele>120</ele>
        <time>2025-04-12T09:04:55Z</time>
      </trkpt>
      <trkpt lat="43.69537" lon="1.36965">
        <ele>120</ele>
        <time>2025-04-12T09:04:56Z</time>
      </trkpt>
      <trkpt lat="43.69533" lon="1.36963">
        <ele>120</ele>
        <time>2025-04-12T09:04:57Z</time>
      </trkpt>
      <trkpt lat="43.69528" lon="1.3696">
        <ele>120</ele>
        <time>2025-04-12T09:04:59Z</time>
      </trkpt>
      <trkpt lat="43.69525" lon="1.36959">
        <ele>120</ele>
        <time>2025-04-12T09:05:00Z</time>
      </trkpt>
      <trkpt lat="43.69523" lon="1.36958">
        <ele>120</ele>
        <time>2025-04-12T09:05:01Z</time>
      </trkpt>
      <trkpt lat="43.6952" lon="1.36957">
        <ele>120</ele>
        <time>2025-04-12T09:05:02Z</time>
      </trkpt>
      <trkpt lat="43.69518" lon="1.36956">
        <ele>120</ele>
        <time>2025-04-12T09:05:03Z</time>
      </trkpt>
      <trkpt lat="43.69515" lon="1.36955">
        <ele>120</ele>
        <time>2025-04-12T09:05:04Z</time>
      </trkpt>
      <trkpt lat="43.69512" lon="1.36954">
        <ele>120</ele>
        <time>2025-04-12T09:05:05Z</time>
      </trkpt>
      <trkpt lat="43.69512" lon="1.36954">
        <ele>120</ele>
        <time>2025-04-12T09:05:06Z</time>
      </trkpt>
      <trkpt lat="43.69506" lon="1.36953">
        <ele>120</ele>
        <time>2025-04-12T09:05:07Z</time>
      </trkpt>
      <trkpt lat="43.69504" lon="1.36952">
        <ele>120</ele>
        <time>2025-04-12T09:05:08Z</time>
      </trkpt>
      <trkpt lat="43.69501" lon="1.36951">
        <ele>120</ele>
        <time>2025-04-12T09:05:09Z</time>
      </trkpt>
      <trkpt lat="43.69499" lon="1.3695">
        <ele>120</ele>
        <time>2025-04-12T09:05:10Z</time>
      </trkpt>
      <trkpt lat="43.69496" lon="1.3695">
        <ele>120</ele>
        <time>2025-04-12T09:05:11Z</time>
      </trkpt>
      <trkpt lat="43.69493" lon="1.36949">
        <ele>120</ele>
        <time>2025-04-12T09:05:12Z</time>
      </trkpt>
      <trkpt lat="43.6949" lon="1.36948">
        <ele>121</ele>
        <time>2025-04-12T09:05:13Z</time>
      </trkpt>
      <trkpt lat="43.69487" lon="1.36948">
        <ele>121</ele>
        <time>2025-04-12T09:05:14Z</time>
      </trkpt>
      <trkpt lat="43.69484" lon="1.36947">
        <ele>121</ele>
        <time>2025-04-12T09:05:15Z</time>
      </trkpt>
      <trkpt lat="43.69484" lon="1.36947">
        <ele>121</ele>
        <time>2025-04-12T09:05:16Z</time>
      </trkpt>
      <trkpt lat="43.69479" lon="1.36945">
        <ele>121</ele>
        <time>2025-04-12T09:05:17Z</time>
      </trkpt>
      <trkpt lat="43.69476" lon="1.36945">
        <ele>120</ele>
        <time>2025-04-12T09:05:18Z</time>
      </trkpt>
      <trkpt lat="43.69476" lon="1.36945">
        <ele>120</ele>
        <time>2025-04-12T09:05:19Z</time>
      </trkpt>
      <trkpt lat="43.69471" lon="1.36943">
        <ele>121</ele>
        <time>2025-04-12T09:05:20Z</time>
      </trkpt>
      <trkpt lat="43.69468" lon="1.36942">
        <ele>121</ele>
        <time>2025-04-12T09:05:21Z</time>
      </trkpt>
      <trkpt lat="43.69465" lon="1.36941">
        <ele>121</ele>
        <time>2025-04-12T09:05:22Z</time>
      </trkpt>
      <trkpt lat="43.69463" lon="1.3694">
        <ele>121</ele>
        <time>2025-04-12T09:05:23Z</time>
      </trkpt>
      <trkpt lat="43.6946" lon="1.36939">
        <ele>121</ele>
        <time>2025-04-12T09:05:24Z</time>
      </trkpt>
      <trkpt lat="43.69455" lon="1.36937">
        <ele>121</ele>
        <time>2025-04-12T09:05:26Z</time>
      </trkpt>
      <trkpt lat="43.69453" lon="1.36936">
        <ele>121</ele>
        <time>2025-04-12T09:05:27Z</time>
      </trkpt>
      <trkpt lat="43.69453" lon="1.36936">
        <ele>121</ele>
        <time>2025-04-12T09:05:28Z</time>
      </trkpt>
      <trkpt lat="43.69448" lon="1.36933">
        <ele>121</ele>
        <time>2025-04-12T09:05:29Z</time>
      </trkpt>
      <trkpt lat="43.69448" lon="1.36933">
        <ele>121</ele>
        <time>2025-04-12T09:05:30Z</time>
      </trkpt>
      <trkpt lat="43.69443" lon="1.36931">
        <ele>121</ele>
        <time>2025-04-12T09:05:31Z</time>
      </trkpt>
      <trkpt lat="43.6944" lon="1.3693">
        <ele>121</ele>
        <time>2025-04-12T09:05:32Z</time>
      </trkpt>
      <trkpt lat="43.69438" lon="1.36928">
        <ele>121</ele>
        <time>2025-04-12T09:05:33Z</time>
      </trkpt>
      <trkpt lat="43.69436" lon="1.36926">
        <ele>121</ele>
        <time>2025-04-12T09:05:34Z</time>
      </trkpt>
      <trkpt lat="43.69434" lon="1.36924">
        <ele>121</ele>
        <time>2025-04-12T09:05:35Z</time>
      </trkpt>
      <trkpt lat="43.69432" lon="1.36922">
        <ele>121</ele>
        <time>2025-04-12T09:05:36Z</time>
      </trkpt>
      <trkpt lat="43.6943" lon="1.3692">
        <ele>121</ele>
        <time>2025-04-12T09:05:37Z</time>
      </trkpt>
      <trkpt lat="43.69428" lon="1.36918">
        <ele>121</ele>
        <time>2025-04-12T09:05:38Z</time>
      </trkpt>
      <trkpt lat="43.69426" lon="1.36916">
        <ele>121</ele>
        <time>2025-04-12T09:05:39Z</time>
      </trkpt>
      <trkpt lat="43.69423" lon="1.36914">
        <ele>121</ele>
        <time>2025-04-12T09:05:40Z</time>
      </trkpt>
      <trkpt lat="43.69421" lon="1.36913">
        <ele>121</ele>
        <time>2025-04-12T09:05:41Z</time>
      </trkpt>
      <trkpt lat="43.69419" lon="1.36913">
        <ele>121</ele>
        <time>2025-04-12T09:05:42Z</time>
      </trkpt>
      <trkpt lat="43.69419" lon="1.36913">
        <ele>121</ele>
        <time>2025-04-12T09:05:43Z</time>
      </trkpt>
      <trkpt lat="43.69416" lon="1.36913">
        <ele>122</ele>
        <time>2025-04-12T09:05:44Z</time>
      </trkpt>
      <trkpt lat="43.69411" lon="1.36913">
        <ele>122</ele>
        <time>2025-04-12T09:05:45Z</time>
      </trkpt>
      <trkpt lat="43.69411" lon="1.36913">
        <ele>122</ele>
        <time>2025-04-12T09:05:46Z</time>
      </trkpt>
      <trkpt lat="43.69406" lon="1.36911">
        <ele>122</ele>
        <time>2025-04-12T09:05:47Z</time>
      </trkpt>
      <trkpt lat="43.69406" lon="1.36911">
        <ele>121</ele>
        <time>2025-04-12T09:05:48Z</time>
      </trkpt>
      <trkpt lat="43.69401" lon="1.36911">
        <ele>121</ele>
        <time>2025-04-12T09:05:49Z</time>
      </trkpt>
      <trkpt lat="43.69398" lon="1.36911">
        <ele>121</ele>
        <time>2025-04-12T09:05:50Z</time>
      </trkpt>
      <trkpt lat="43.69398" lon="1.36911">
        <ele>121</ele>
        <time>2025-04-12T09:05:51Z</time>
      </trkpt>
      <trkpt lat="43.69392" lon="1.36911">
        <ele>121</ele>
        <time>2025-04-12T09:05:52Z</time>
      </trkpt>
      <trkpt lat="43.69392" lon="1.36911">
        <ele>121</ele>
        <time>2025-04-12T09:05:53Z</time>
      </trkpt>
      <trkpt lat="43.69389" lon="1.36911">
        <ele>121</ele>
        <time>2025-04-12T09:05:54Z</time>
      </trkpt>
      <trkpt lat="43.69383" lon="1.36911">
        <ele>121</ele>
        <time>2025-04-12T09:05:55Z</time>
      </trkpt>
      <trkpt lat="43.6938" lon="1.36911">
        <ele>121</ele>
        <time>2025-04-12T09:05:56Z</time>
      </trkpt>
      <trkpt lat="43.6938" lon="1.36911">
        <ele>121</ele>
        <time>2025-04-12T09:05:57Z</time>
      </trkpt>
      <trkpt lat="43.69374" lon="1.36911">
        <ele>122</ele>
        <time>2025-04-12T09:05:58Z</time>
      </trkpt>
      <trkpt lat="43.69371" lon="1.3691">
        <ele>122</ele>
        <time>2025-04-12T09:05:59Z</time>
      </trkpt>
      <trkpt lat="43.69368" lon="1.3691">
        <ele>122</ele>
        <time>2025-04-12T09:06:00Z</time>
      </trkpt>
      <trkpt lat="43.69365" lon="1.36909">
        <ele>122</ele>
        <time>2025-04-12T09:06:01Z</time>
      </trkpt>
      <trkpt lat="43.69363" lon="1.36909">
        <ele>122</ele>
        <time>2025-04-12T09:06:02Z</time>
      </trkpt>
      <trkpt lat="43.69357" lon="1.36909">
        <ele>121</ele>
        <time>2025-04-12T09:06:04Z</time>
      </trkpt>
      <trkpt lat="43.69354" lon="1.36908">
        <ele>121</ele>
        <time>2025-04-12T09:06:05Z</time>
      </trkpt>
      <trkpt lat="43.69354" lon="1.36908">
        <ele>121</ele>
        <time>2025-04-12T09:06:06Z</time>
      </trkpt>
      <trkpt lat="43.69349" lon="1.36907">
        <ele>121</ele>
        <time>2025-04-12T09:06:07Z</time>
      </trkpt>
      <trkpt lat="43.69349" lon="1.36907">
        <ele>121</ele>
        <time>2025-04-12T09:06:08Z</time>
      </trkpt>
      <trkpt lat="43.69344" lon="1.36906">
        <ele>121</ele>
        <time>2025-04-12T09:06:09Z</time>
      </trkpt>
      <trkpt lat="43.69341" lon="1.36906">
        <ele>121</ele>
        <time>2025-04-12T09:06:10Z</time>
      </trkpt>
      <trkpt lat="43.69339" lon="1.36905">
        <ele>121</ele>
        <time>2025-04-12T09:06:11Z</time>
      </trkpt>
      <trkpt lat="43.69336" lon="1.36904">
        <ele>121</ele>
        <time>2025-04-12T09:06:13Z</time>
      </trkpt>
      <trkpt lat="43.69332" lon="1.36903">
        <ele>121</ele>
        <time>2025-04-12T09:06:14Z</time>
      </trkpt>
      <trkpt lat="43.69329" lon="1.36903">
        <ele>121</ele>
        <time>2025-04-12T09:06:15Z</time>
      </trkpt>
      <trkpt lat="43.69327" lon="1.36903">
        <ele>121</ele>
        <time>2025-04-12T09:06:16Z</time>
      </trkpt>
      <trkpt lat="43.69324" lon="1.36902">
        <ele>121</ele>
        <time>2025-04-12T09:06:17Z</time>
      </trkpt>
      <trkpt lat="43.69322" lon="1.36902">
        <ele>120</ele>
        <time>2025-04-12T09:06:18Z</time>
      </trkpt>
      <trkpt lat="43.6932" lon="1.36902">
        <ele>120</ele>
        <time>2025-04-12T09:06:19Z</time>
      </trkpt>
      <trkpt lat="43.6932" lon="1.36902">
        <ele>120</ele>
        <time>2025-04-12T09:06:20Z</time>
      </trkpt>
      <trkpt lat="43.69315" lon="1.36901">
        <ele>120</ele>
        <time>2025-04-12T09:06:21Z</time>
      </trkpt>
      <trkpt lat="43.69312" lon="1.36901">
        <ele>121</ele>
        <time>2025-04-12T09:06:22Z</time>
      </trkpt>
      <trkpt lat="43.69309" lon="1.36901">
        <ele>121</ele>
        <time>2025-04-12T09:06:23Z</time>
      </trkpt>
      <trkpt lat="43.69306" lon="1.369">
        <ele>121</ele>
        <time>2025-04-12T09:06:24Z</time>
      </trkpt>
      <trkpt lat="43.69304" lon="1.369">
        <ele>121</ele>
        <time>2025-04-12T09:06:25Z</time>
      </trkpt>
      <trkpt lat="43.69301" lon="1.369">
        <ele>121</ele>
        <time>2025-04-12T09:06:26Z</time>
      </trkpt>
      <trkpt lat="43.69301" lon="1.369">
        <ele>122</ele>
        <time>2025-04-12T09:06:27Z</time>
      </trkpt>
      <trkpt lat="43.69295" lon="1.36898">
        <ele>122</ele>
        <time>2025-04-12T09:06:28Z</time>
      </trkpt>
      <trkpt lat="43.69295" lon="1.36898">
        <ele>122</ele>
        <time>2025-04-12T09:06:29Z</time>
      </trkpt>
      <trkpt lat="43.6929" lon="1.36897">
        <ele>122</ele>
        <time>2025-04-12T09:06:30Z</time>
      </trkpt>
      <trkpt lat="43.69287" lon="1.36896">
        <ele>121</ele>
        <time>2025-04-12T09:06:31Z</time>
      </trkpt>
      <trkpt lat="43.69287" lon="1.36896">
        <ele>121</ele>
        <time>2025-04-12T09:06:32Z</time>
      </trkpt>
      <trkpt lat="43.69282" lon="1.36895">
        <ele>121</ele>
        <time>2025-04-12T09:06:33Z</time>
      </trkpt>
      <trkpt lat="43.69282" lon="1.36895">
        <ele>121</ele>
        <time>2025-04-12T09:06:34Z</time>
      </trkpt>
      <trkpt lat="43.69277" lon="1.36894">
        <ele>121</ele>
        <time>2025-04-12T09:06:35Z</time>
      </trkpt>
      <trkpt lat="43.69277" lon="1.36894">
        <ele>121</ele>
        <time>2025-04-12T09:06:36Z</time>
      </trkpt>
      <trkpt lat="43.69272" lon="1.36893">
        <ele>121</ele>
        <time>2025-04-12T09:06:37Z</time>
      </trkpt>
      <trkpt lat="43.69269" lon="1.36893">
        <ele>121</ele>
        <time>2025-04-12T09:06:38Z</time>
      </trkpt>
      <trkpt lat="43.69269" lon="1.36893">
        <ele>121</ele>
        <time>2025-04-12T09:06:39Z</time>
      </trkpt>
      <trkpt lat="43.69264" lon="1.36893">
        <ele>122</ele>
        <time>2025-04-12T09:06:40Z</time>
      </trkpt>
      <trkpt lat="43.69264" lon="1.36893">
        <ele>122</ele>
        <time>2025-04-12T09:06:41Z</time>
      </trkpt>
      <trkpt lat="43.69258" lon="1.36891">
        <ele>122</ele>
        <time>2025-04-12T09:06:42Z</time>
      </trkpt>
      <trkpt lat="43.69258" lon="1.36891">
        <ele>122</ele>
        <time>2025-04-12T09:06:43Z</time>
      </trkpt>
      <trkpt lat="43.69253" lon="1.3689">
        <ele>122</ele>
        <time>2025-04-12T09:06:44Z</time>
      </trkpt>
      <trkpt lat="43.69253" lon="1.3689">
        <ele>122</ele>
        <time>2025-04-12T09:06:45Z</time>
      </trkpt>
      <trkpt lat="43.69247" lon="1.36889">
        <ele>122</ele>
        <time>2025-04-12T09:06:46Z</time>
      </trkpt>
      <trkpt lat="43.69244" lon="1.36889">
        <ele>123</ele>
        <time>2025-04-12T09:06:47Z</time>
      </trkpt>
      <trkpt lat="43.69244" lon="1.36889">
        <ele>123</ele>
        <time>2025-04-12T09:06:48Z</time>
      </trkpt>
      <trkpt lat="43.69242" lon="1.36889">
        <ele>122</ele>
        <time>2025-04-12T09:06:49Z</time>
      </trkpt>
      <trkpt lat="43.69236" lon="1.36889">
        <ele>122</ele>
        <time>2025-04-12T09:06:50Z</time>
      </trkpt>
      <trkpt lat="43.69234" lon="1.36889">
        <ele>121</ele>
        <time>2025-04-12T09:06:51Z</time>
      </trkpt>
      <trkpt lat="43.69231" lon="1.36889">
        <ele>121</ele>
        <time>2025-04-12T09:06:52Z</time>
      </trkpt>
      <trkpt lat="43.69228" lon="1.36889">
        <ele>121</ele>
        <time>2025-04-12T09:06:53Z</time>
      </trkpt>
      <trkpt lat="43.69225" lon="1.36888">
        <ele>122</ele>
        <time>2025-04-12T09:06:54Z</time>
      </trkpt>
      <trkpt lat="43.69223" lon="1.36888">
        <ele>122</ele>
        <time>2025-04-12T09:06:55Z</time>
      </trkpt>
      <trkpt lat="43.6922" lon="1.36888">
        <ele>123</ele>
        <time>2025-04-12T09:06:56Z</time>
      </trkpt>
      <trkpt lat="43.69218" lon="1.36888">
        <ele>123</ele>
        <time>2025-04-12T09:06:57Z</time>
      </trkpt>
      <trkpt lat="43.69215" lon="1.36887">
        <ele>122</ele>
        <time>2025-04-12T09:06:58Z</time>
      </trkpt>
      <trkpt lat="43.69212" lon="1.36887">
        <ele>122</ele>
        <time>2025-04-12T09:06:59Z</time>
      </trkpt>
      <trkpt lat="43.69209" lon="1.36887">
        <ele>122</ele>
        <time>2025-04-12T09:07:00Z</time>
      </trkpt>
      <trkpt lat="43.69207" lon="1.36886">
        <ele>122</ele>
        <time>2025-04-12T09:07:01Z</time>
      </trkpt>
      <trkpt lat="43.69204" lon="1.36886">
        <ele>122</ele>
        <time>2025-04-12T09:07:02Z</time>
      </trkpt>
      <trkpt lat="43.69201" lon="1.36885">
        <ele>122</ele>
        <time>2025-04-12T09:07:03Z</time>
      </trkpt>
      <trkpt lat="43.69201" lon="1.36885">
        <ele>122</ele>
        <time>2025-04-12T09:07:04Z</time>
      </trkpt>
      <trkpt lat="43.69196" lon="1.36884">
        <ele>122</ele>
        <time>2025-04-12T09:07:05Z</time>
      </trkpt>
      <trkpt lat="43.69194" lon="1.36884">
        <ele>121</ele>
        <time>2025-04-12T09:07:06Z</time>
      </trkpt>
      <trkpt lat="43.69191" lon="1.36884">
        <ele>121</ele>
        <time>2025-04-12T09:07:07Z</time>
      </trkpt>
      <trkpt lat="43.69188" lon="1.36884">
        <ele>121</ele>
        <time>2025-04-12T09:07:08Z</time>
      </trkpt>
      <trkpt lat="43.69186" lon="1.36883">
        <ele>122</ele>
        <time>2025-04-12T09:07:09Z</time>
      </trkpt>
      <trkpt lat="43.69183" lon="1.36883">
        <ele>122</ele>
        <time>2025-04-12T09:07:10Z</time>
      </trkpt>
      <trkpt lat="43.69183" lon="1.36883">
        <ele>121</ele>
        <time>2025-04-12T09:07:11Z</time>
      </trkpt>
      <trkpt lat="43.69178" lon="1.36883">
        <ele>121</ele>
        <time>2025-04-12T09:07:12Z</time>
      </trkpt>
      <trkpt lat="43.69175" lon="1.36883">
        <ele>121</ele>
        <time>2025-04-12T09:07:13Z</time>
      </trkpt>
      <trkpt lat="43.69173" lon="1.36883">
        <ele>121</ele>
        <time>2025-04-12T09:07:14Z</time>
      </trkpt>
      <trkpt lat="43.6917" lon="1.36882">
        <ele>122</ele>
        <time>2025-04-12T09:07:15Z</time>
      </trkpt>
      <trkpt lat="43.69167" lon="1.36882">
        <ele>122</ele>
        <time>2025-04-12T09:07:16Z</time>
      </trkpt>
      <trkpt lat="43.69165" lon="1.36882">
        <ele>122</ele>
        <time>2025-04-12T09:07:17Z</time>
      </trkpt>
      <trkpt lat="43.69162" lon="1.36882">
        <ele>122</ele>
        <time>2025-04-12T09:07:18Z</time>
      </trkpt>
      <trkpt lat="43.69159" lon="1.36881">
        <ele>122</ele>
        <time>2025-04-12T09:07:19Z</time>
      </trkpt>
      <trkpt lat="43.69157" lon="1.3688">
        <ele>122</ele>
        <time>2025-04-12T09:07:20Z</time>
      </trkpt>
      <trkpt lat="43.69154" lon="1.3688">
        <ele>122</ele>
        <time>2025-04-12T09:07:21Z</time>
      </trkpt>
      <trkpt lat="43.69151" lon="1.3688">
        <ele>122</ele>
        <time>2025-04-12T09:07:22Z</time>
      </trkpt>
      <trkpt lat="43.69149" lon="1.3688">
        <ele>122</ele>
        <time>2025-04-12T09:07:23Z</time>
      </trkpt>
      <trkpt lat="43.69146" lon="1.3688">
        <ele>122</ele>
        <time>2025-04-12T09:07:24Z</time>
      </trkpt>
      <trkpt lat="43.69143" lon="1.36879">
        <ele>122</ele>
        <time>2025-04-12T09:07:25Z</time>
      </trkpt>
      <trkpt lat="43.69141" lon="1.36879">
        <ele>122</ele>
        <time>2025-04-12T09:07:26Z</time>
      </trkpt>
      <trkpt lat="43.69138" lon="1.36878">
        <ele>122</ele>
        <time>2025-04-12T09:07:27Z</time>
      </trkpt>
      <trkpt lat="43.69136" lon="1.36878">
        <ele>122</ele>
        <time>2025-04-12T09:07:28Z</time>
      </trkpt>
      <trkpt lat="43.69133" lon="1.36877">
        <ele>122</ele>
        <time>2025-04-12T09:07:29Z</time>
      </trkpt>
      <trkpt lat="43.69131" lon="1.36877">
        <ele>122</ele>
        <time>2025-04-12T09:07:30Z</time>
      </trkpt>
      <trkpt lat="43.69128" lon="1.36877">
        <ele>122</ele>
        <time>2025-04-12T09:07:31Z</time>
      </trkpt>
      <trkpt lat="43.69125" lon="1.36877">
        <ele>122</ele>
        <time>2025-04-12T09:07:32Z</time>
      </trkpt>
      <trkpt lat="43.69122" lon="1.36876">
        <ele>122</ele>
        <time>2025-04-12T09:07:33Z</time>
      </trkpt>
      <trkpt lat="43.6912" lon="1.36876">
        <ele>122</ele>
        <time>2025-04-12T09:07:34Z</time>
      </trkpt>
      <trkpt lat="43.69117" lon="1.36876">
        <ele>122</ele>
        <time>2025-04-12T09:07:35Z</time>
      </trkpt>
      <trkpt lat="43.69114" lon="1.36876">
        <ele>122</ele>
        <time>2025-04-12T09:07:36Z</time>
      </trkpt>
      <trkpt lat="43.69114" lon="1.36876">
        <ele>122</ele>
        <time>2025-04-12T09:07:37Z</time>
      </trkpt>
      <trkpt lat="43.69109" lon="1.36876">
        <ele>122</ele>
        <time>2025-04-12T09:07:38Z</time>
      </trkpt>
      <trkpt lat="43.69107" lon="1.36876">
        <ele>122</ele>
        <time>2025-04-12T09:07:39Z</time>
      </trkpt>
      <trkpt lat="43.69104" lon="1.36876">
        <ele>122</ele>
        <time>2025-04-12T09:07:40Z</time>
      </trkpt>
      <trkpt lat="43.69101" lon="1.36877">
        <ele>122</ele>
        <time>2025-04-12T09:07:41Z</time>
      </trkpt>
      <trkpt lat="43.69098" lon="1.36877">
        <ele>122</ele>
        <time>2025-04-12T09:07:42Z</time>
      </trkpt>
      <trkpt lat="43.69095" lon="1.36877">
        <ele>123</ele>
        <time>2025-04-12T09:07:43Z</time>
      </trkpt>
      <trkpt lat="43.69093" lon="1.36876">
        <ele>123</ele>
        <time>2025-04-12T09:07:44Z</time>
      </trkpt>
      <trkpt lat="43.6909" lon="1.36876">
        <ele>123</ele>
        <time>2025-04-12T09:07:45Z</time>
      </trkpt>
      <trkpt lat="43.69087" lon="1.36876">
        <ele>123</ele>
        <time>2025-04-12T09:07:46Z</time>
      </trkpt>
      <trkpt lat="43.69087" lon="1.36876">
        <ele>123</ele>
        <time>2025-04-12T09:07:47Z</time>
      </trkpt>
      <trkpt lat="43.69082" lon="1.36875">
        <ele>122</ele>
        <time>2025-04-12T09:07:48Z</time>
      </trkpt>
      <trkpt lat="43.69082" lon="1.36875">
        <ele>122</ele>
        <time>2025-04-12T09:07:49Z</time>
      </trkpt>
      <trkpt lat="43.69076" lon="1.36875">
        <ele>122</ele>
        <time>2025-04-12T09:07:50Z</time>
      </trkpt>
      <trkpt lat="43.69073" lon="1.36875">
        <ele>122</ele>
        <time>2025-04-12T09:07:51Z</time>
      </trkpt>
      <trkpt lat="43.69071" lon="1.36875">
        <ele>122</ele>
        <time>2025-04-12T09:07:52Z</time>
      </trkpt>
      <trkpt lat="43.69068" lon="1.36875">
        <ele>122</ele>
        <time>2025-04-12T09:07:53Z</time>
      </trkpt>
      <trkpt lat="43.69068" lon="1.36875">
        <ele>122</ele>
        <time>2025-04-12T09:07:54Z</time>
      </trkpt>
      <trkpt lat="43.69062" lon="1.36876">
        <ele>122</ele>
        <time>2025-04-12T09:07:55Z</time>
      </trkpt>
      <trkpt lat="43.69062" lon="1.36876">
        <ele>122</ele>
        <time>2025-04-12T09:07:56Z</time>
      </trkpt>
      <trkpt lat="43.69057" lon="1.36877">
        <ele>122</ele>
        <time>2025-04-12T09:07:57Z</time>
      </trkpt>
      <trkpt lat="43.69055" lon="1.36878">
        <ele>123</ele>
        <time>2025-04-12T09:07:58Z</time>
      </trkpt>
      <trkpt lat="43.69052" lon="1.36878">
        <ele>123</ele>
        <time>2025-04-12T09:07:59Z</time>
      </trkpt>
      <trkpt lat="43.6905" lon="1.36878">
        <ele>123</ele>
        <time>2025-04-12T09:08:00Z</time>
      </trkpt>
      <trkpt lat="43.69047" lon="1.36879">
        <ele>123</ele>
        <time>2025-04-12T09:08:01Z</time>
      </trkpt>
      <trkpt lat="43.69044" lon="1.36879">
        <ele>123</ele>
        <time>2025-04-12T09:08:02Z</time>
      </trkpt>
      <trkpt lat="43.69042" lon="1.36879">
        <ele>123</ele>
        <time>2025-04-12T09:08:03Z</time>
      </trkpt>
      <trkpt lat="43.69042" lon="1.36879">
        <ele>123</ele>
        <time>2025-04-12T09:08:04Z</time>
      </trkpt>
      <trkpt lat="43.69037" lon="1.3688">
        <ele>123</ele>
        <time>2025-04-12T09:08:05Z</time>
      </trkpt>
      <trkpt lat="43.69034" lon="1.36881">
        <ele>123</ele>
        <time>2025-04-12T09:08:06Z</time>
      </trkpt>
      <trkpt lat="43.69032" lon="1.3688">
        <ele>123</ele>
        <time>2025-04-12T09:08:07Z</time>
      </trkpt>
      <trkpt lat="43.69029" lon="1.3688">
        <ele>123</ele>
        <time>2025-04-12T09:08:08Z</time>
      </trkpt>
      <trkpt lat="43.69026" lon="1.36881">
        <ele>123</ele>
        <time>2025-04-12T09:08:09Z</time>
      </trkpt>
      <trkpt lat="43.69024" lon="1.36881">
        <ele>124</ele>
        <time>2025-04-12T09:08:10Z</time>
      </trkpt>
      <trkpt lat="43.69021" lon="1.36881">
        <ele>124</ele>
        <time>2025-04-12T09:08:11Z</time>
      </trkpt>
      <trkpt lat="43.69018" lon="1.36881">
        <ele>124</ele>
        <time>2025-04-12T09:08:12Z</time>
      </trkpt>
      <trkpt lat="43.69015" lon="1.36881">
        <ele>124</ele>
        <time>2025-04-12T09:08:13Z</time>
      </trkpt>
      <trkpt lat="43.69015" lon="1.36881">
        <ele>124</ele>
        <time>2025-04-12T09:08:14Z</time>
      </trkpt>
      <trkpt lat="43.6901" lon="1.36881">
        <ele>123</ele>
        <time>2025-04-12T09:08:15Z</time>
      </trkpt>
      <trkpt lat="43.6901" lon="1.36881">
        <ele>123</ele>
        <time>2025-04-12T09:08:16Z</time>
      </trkpt>
      <trkpt lat="43.69005" lon="1.36882">
        <ele>123</ele>
        <time>2025-04-12T09:08:17Z</time>
      </trkpt>
      <trkpt lat="43.69005" lon="1.36882">
        <ele>123</ele>
        <time>2025-04-12T09:08:18Z</time>
      </trkpt>
      <trkpt lat="43.68999" lon="1.36883">
        <ele>123</ele>
        <time>2025-04-12T09:08:19Z</time>
      </trkpt>
      <trkpt lat="43.68996" lon="1.36883">
        <ele>123</ele>
        <time>2025-04-12T09:08:20Z</time>
      </trkpt>
      <trkpt lat="43.68993" lon="1.36883">
        <ele>122</ele>
        <time>2025-04-12T09:08:21Z</time>
      </trkpt>
      <trkpt lat="43.68991" lon="1.36883">
        <ele>122</ele>
        <time>2025-04-12T09:08:22Z</time>
      </trkpt>
      <trkpt lat="43.68991" lon="1.36883">
        <ele>123</ele>
        <time>2025-04-12T09:08:23Z</time>
      </trkpt>
      <trkpt lat="43.68986" lon="1.36883">
        <ele>123</ele>
        <time>2025-04-12T09:08:24Z</time>
      </trkpt>
      <trkpt lat="43.68983" lon="1.36883">
        <ele>123</ele>
        <time>2025-04-12T09:08:25Z</time>
      </trkpt>
      <trkpt lat="43.68983" lon="1.36883">
        <ele>122</ele>
        <time>2025-04-12T09:08:26Z</time>
      </trkpt>
      <trkpt lat="43.68978" lon="1.36884">
        <ele>123</ele>
        <time>2025-04-12T09:08:27Z</time>
      </trkpt>
      <trkpt lat="43.68975" lon="1.36885">
        <ele>123</ele>
        <time>2025-04-12T09:08:28Z</time>
      </trkpt>
      <trkpt lat="43.68972" lon="1.36885">
        <ele>123</ele>
        <time>2025-04-12T09:08:29Z</time>
      </trkpt>
      <trkpt lat="43.6897" lon="1.36886">
        <ele>123</ele>
        <time>2025-04-12T09:08:30Z</time>
      </trkpt>
      <trkpt lat="43.68967" lon="1.36887">
        <ele>123</ele>
        <time>2025-04-12T09:08:31Z</time>
      </trkpt>
      <trkpt lat="43.68964" lon="1.36887">
        <ele>123</ele>
        <time>2025-04-12T09:08:32Z</time>
      </trkpt>
      <trkpt lat="43.68962" lon="1.36888">
        <ele>123</ele>
        <time>2025-04-12T09:08:33Z</time>
      </trkpt>
      <trkpt lat="43.68959" lon="1.36889">
        <ele>122</ele>
        <time>2025-04-12T09:08:34Z</time>
      </trkpt>
      <trkpt lat="43.68959" lon="1.36889">
        <ele>123</ele>
        <time>2025-04-12T09:08:35Z</time>
      </trkpt>
      <trkpt lat="43.68953" lon="1.36891">
        <ele>123</ele>
        <time>2025-04-12T09:08:36Z</time>
      </trkpt>
      <trkpt lat="43.68953" lon="1.36891">
        <ele>123</ele>
        <time>2025-04-12T09:08:37Z</time>
      </trkpt>
      <trkpt lat="43.68948" lon="1.36892">
        <ele>123</ele>
        <time>2025-04-12T09:08:38Z</time>
      </trkpt>
      <trkpt lat="43.68948" lon="1.36892">
        <ele>123</ele>
        <time>2025-04-12T09:08:39Z</time>
      </trkpt>
      <trkpt lat="43.68943" lon="1.36894">
        <ele>123</ele>
        <time>2025-04-12T09:08:40Z</time>
      </trkpt>
      <trkpt lat="43.68943" lon="1.36894">
        <ele>123</ele>
        <time>2025-04-12T09:08:41Z</time>
      </trkpt>
      <trkpt lat="43.68937" lon="1.36896">
        <ele>123</ele>
        <time>2025-04-12T09:08:42Z</time>
      </trkpt>
      <trkpt lat="43.68935" lon="1.36896">
        <ele>123</ele>
        <time>2025-04-12T09:08:43Z</time>
      </trkpt>
      <trkpt lat="43.68932" lon="1.36897">
        <ele>123</ele>
        <time>2025-04-12T09:08:44Z</time>
      </trkpt>
      <trkpt lat="43.68929" lon="1.36898">
        <ele>123</ele>
        <time>2025-04-12T09:08:45Z</time>
      </trkpt>
      <trkpt lat="43.68927" lon="1.369">
        <ele>123</ele>
        <time>2025-04-12T09:08:46Z</time>
      </trkpt>
      <trkpt lat="43.68924" lon="1.36901">
        <ele>123</ele>
        <time>2025-04-12T09:08:47Z</time>
      </trkpt>
      <trkpt lat="43.68921" lon="1.36903">
        <ele>123</ele>
        <time>2025-04-12T09:08:48Z</time>
      </trkpt>
      <trkpt lat="43.68919" lon="1.36904">
        <ele>123</ele>
        <time>2025-04-12T09:08:49Z</time>
      </trkpt>
      <trkpt lat="43.68916" lon="1.36904">
        <ele>123</ele>
        <time>2025-04-12T09:08:50Z</time>
      </trkpt>
      <trkpt lat="43.68913" lon="1.36905">
        <ele>123</ele>
        <time>2025-04-12T09:08:51Z</time>
      </trkpt>
      <trkpt lat="43.6891" lon="1.36905">
        <ele>124</ele>
        <time>2025-04-12T09:08:52Z</time>
      </trkpt>
      <trkpt lat="43.6891" lon="1.36905">
        <ele>124</ele>
        <time>2025-04-12T09:08:53Z</time>
      </trkpt>
      <trkpt lat="43.68908" lon="1.36906">
        <ele>124</ele>
        <time>2025-04-12T09:08:54Z</time>
      </trkpt>
      <trkpt lat="43.68903" lon="1.3691">
        <ele>124</ele>
        <time>2025-04-12T09:08:55Z</time>
      </trkpt>
      <trkpt lat="43.68901" lon="1.36913">
        <ele>124</ele>
        <time>2025-04-12T09:08:56Z</time>
      </trkpt>
      <trkpt lat="43.68899" lon="1.36916">
        <ele>123</ele>
        <time>2025-04-12T09:08:57Z</time>
      </trkpt>
      <trkpt lat="43.68899" lon="1.36916">
        <ele>124</ele>
        <time>2025-04-12T09:08:58Z</time>
      </trkpt>
      <trkpt lat="43.68896" lon="1.36918">
        <ele>124</ele>
        <time>2025-04-12T09:08:59Z</time>
      </trkpt>
      <trkpt lat="43.6889" lon="1.36919">
        <ele>123</ele>
        <time>2025-04-12T09:09:00Z</time>
      </trkpt>
      <trkpt lat="43.68888" lon="1.3692">
        <ele>123</ele>
        <time>2025-04-12T09:09:01Z</time>
      </trkpt>
      <trkpt lat="43.68885" lon="1.3692">
        <ele>123</ele>
        <time>2025-04-12T09:09:02Z</time>
      </trkpt>
      <trkpt lat="43.68882" lon="1.36921">
        <ele>123</ele>
        <time>2025-04-12T09:09:03Z</time>
      </trkpt>
      <trkpt lat="43.6888" lon="1.36921">
        <ele>123</ele>
        <time>2025-04-12T09:09:04Z</time>
      </trkpt>
      <trkpt lat="43.68877" lon="1.36922">
        <ele>123</ele>
        <time>2025-04-12T09:09:05Z</time>
      </trkpt>
      <trkpt lat="43.68874" lon="1.36922">
        <ele>123</ele>
        <time>2025-04-12T09:09:06Z</time>
      </trkpt>
      <trkpt lat="43.68872" lon="1.36923">
        <ele>123</ele>
        <time>2025-04-12T09:09:07Z</time>
      </trkpt>
      <trkpt lat="43.68869" lon="1.36924">
        <ele>123</ele>
        <time>2025-04-12T09:09:08Z</time>
      </trkpt>
      <trkpt lat="43.68869" lon="1.36924">
        <ele>124</ele>
        <time>2025-04-12T09:09:09Z</time>
      </trkpt>
      <trkpt lat="43.68863" lon="1.36925">
        <ele>124</ele>
        <time>2025-04-12T09:09:10Z</time>
      </trkpt>
      <trkpt lat="43.68863" lon="1.36925">
        <ele>123</ele>
        <time>2025-04-12T09:09:11Z</time>
      </trkpt>
      <trkpt lat="43.68858" lon="1.36926">
        <ele>123</ele>
        <time>2025-04-12T09:09:12Z</time>
      </trkpt>
      <trkpt lat="43.68855" lon="1.36927">
        <ele>123</ele>
        <time>2025-04-12T09:09:13Z</time>
      </trkpt>
      <trkpt lat="43.68853" lon="1.36927">
        <ele>123</ele>
        <time>2025-04-12T09:09:14Z</time>
      </trkpt>
      <trkpt lat="43.68853" lon="1.36927">
        <ele>123</ele>
        <time>2025-04-12T09:09:15Z</time>
      </trkpt>
      <trkpt lat="43.68847" lon="1.36926">
        <ele>124</ele>
        <time>2025-04-12T09:09:16Z</time>
      </trkpt>
      <trkpt lat="43.68845" lon="1.36926">
        <ele>124</ele>
        <time>2025-04-12T09:09:17Z</time>
      </trkpt>
      <trkpt lat="43.68845" lon="1.36926">
        <ele>124</ele>
        <time>2025-04-12T09:09:18Z</time>
      </trkpt>
      <trkpt lat="43.68839" lon="1.36925">
        <ele>124</ele>
        <time>2025-04-12T09:09:19Z</time>
      </trkpt>
      <trkpt lat="43.68837" lon="1.36925">
        <ele>124</ele>
        <time>2025-04-12T09:09:20Z</time>
      </trkpt>
      <trkpt lat="43.68834" lon="1.36924">
        <ele>124</ele>
        <time>2025-04-12T09:09:21Z</time>
      </trkpt>
      <trkpt lat="43.68831" lon="1.36924">
        <ele>123</ele>
        <time>2025-04-12T09:09:22Z</time>
      </trkpt>
      <trkpt lat="43.68829" lon="1.36923">
        <ele>124</ele>
        <time>2025-04-12T09:09:23Z</time>
      </trkpt>
      <trkpt lat="43.68826" lon="1.36922">
        <ele>124</ele>
        <time>2025-04-12T09:09:24Z</time>
      </trkpt>
      <trkpt lat="43.68826" lon="1.36922">
        <ele>124</ele>
        <time>2025-04-12T09:09:25Z</time>
      </trkpt>
      <trkpt lat="43.68821" lon="1.36921">
        <ele>124</ele>
        <time>2025-04-12T09:09:26Z</time>
      </trkpt>
      <trkpt lat="43.68818" lon="1.36921">
        <ele>124</ele>
        <time>2025-04-12T09:09:27Z</time>
      </trkpt>
      <trkpt lat="43.68815" lon="1.3692">
        <ele>124</ele>
        <time>2025-04-12T09:09:28Z</time>
      </trkpt>
      <trkpt lat="43.68813" lon="1.36919">
        <ele>124</ele>
        <time>2025-04-12T09:09:29Z</time>
      </trkpt>
      <trkpt lat="43.6881" lon="1.36917">
        <ele>124</ele>
        <time>2025-04-12T09:09:30Z</time>
      </trkpt>
      <trkpt lat="43.68807" lon="1.36917">
        <ele>124</ele>
        <time>2025-04-12T09:09:31Z</time>
      </trkpt>
      <trkpt lat="43.68804" lon="1.36916">
        <ele>124</ele>
        <time>2025-04-12T09:09:32Z</time>
      </trkpt>
      <trkpt lat="43.68801" lon="1.36916">
        <ele>124</ele>
        <time>2025-04-12T09:09:33Z</time>
      </trkpt>
      <trkpt lat="43.68801" lon="1.36916">
        <ele>124</ele>
        <time>2025-04-12T09:09:34Z</time>
      </trkpt>
      <trkpt lat="43.68799" lon="1.36915">
        <ele>124</ele>
        <time>2025-04-12T09:09:35Z</time>
      </trkpt>
      <trkpt lat="43.68793" lon="1.36914">
        <ele>123</ele>
        <time>2025-04-12T09:09:36Z</time>
      </trkpt>
      <trkpt lat="43.68791" lon="1.36914">
        <ele>122</ele>
        <time>2025-04-12T09:09:37Z</time>
      </trkpt>
      <trkpt lat="43.68788" lon="1.36913">
        <ele>122</ele>
        <time>2025-04-12T09:09:38Z</time>
      </trkpt>
      <trkpt lat="43.68785" lon="1.36913">
        <ele>123</ele>
        <time>2025-04-12T09:09:39Z</time>
      </trkpt>
      <trkpt lat="43.68782" lon="1.36913">
        <ele>123</ele>
        <time>2025-04-12T09:09:40Z</time>
      </trkpt>
      <trkpt lat="43.68779" lon="1.36912">
        <ele>124</ele>
        <time>2025-04-12T09:09:41Z</time>
      </trkpt>
      <trkpt lat="43.68776" lon="1.36911">
        <ele>124</ele>
        <time>2025-04-12T09:09:42Z</time>
      </trkpt>
      <trkpt lat="43.68773" lon="1.36911">
        <ele>124</ele>
        <time>2025-04-12T09:09:43Z</time>
      </trkpt>
      <trkpt lat="43.68771" lon="1.3691">
        <ele>124</ele>
        <time>2025-04-12T09:09:44Z</time>
      </trkpt>
      <trkpt lat="43.68768" lon="1.3691">
        <ele>123</ele>
        <time>2025-04-12T09:09:45Z</time>
      </trkpt>
      <trkpt lat="43.68765" lon="1.36909">
        <ele>123</ele>
        <time>2025-04-12T09:09:46Z</time>
      </trkpt>
      <trkpt lat="43.68762" lon="1.3691">
        <ele>123</ele>
        <time>2025-04-12T09:09:47Z</time>
      </trkpt>
      <trkpt lat="43.68759" lon="1.3691">
        <ele>123</ele>
        <time>2025-04-12T09:09:48Z</time>
      </trkpt>
      <trkpt lat="43.68757" lon="1.36909">
        <ele>123</ele>
        <time>2025-04-12T09:09:49Z</time>
      </trkpt>
      <trkpt lat="43.68754" lon="1.36909">
        <ele>122</ele>
        <time>2025-04-12T09:09:50Z</time>
      </trkpt>
      <trkpt lat="43.68748" lon="1.36908">
        <ele>123</ele>
        <time>2025-04-12T09:09:52Z</time>
      </trkpt>
      <trkpt lat="43.68743" lon="1.36907">
        <ele>124</ele>
        <time>2025-04-12T09:09:54Z</time>
      </trkpt>
      <trkpt lat="43.68741" lon="1.36907">
        <ele>124</ele>
        <time>2025-04-12T09:09:55Z</time>
      </trkpt>
      <trkpt lat="43.68741" lon="1.36907">
        <ele>124</ele>
        <time>2025-04-12T09:09:56Z</time>
      </trkpt>
      <trkpt lat="43.68735" lon="1.36907">
        <ele>123</ele>
        <time>2025-04-12T09:09:57Z</time>
      </trkpt>
      <trkpt lat="43.68733" lon="1.36906">
        <ele>123</ele>
        <time>2025-04-12T09:09:58Z</time>
      </trkpt>
      <trkpt lat="43.68731" lon="1.36906">
        <ele>123</ele>
        <time>2025-04-12T09:09:59Z</time>
      </trkpt>
      <trkpt lat="43.68728" lon="1.36906">
        <ele>123</ele>
        <time>2025-04-12T09:10:00Z</time>
      </trkpt>
      <trkpt lat="43.68726" lon="1.36906">
        <ele>123</ele>
        <time>2025-04-12T09:10:01Z</time>
      </trkpt>
      <trkpt lat="43.68723" lon="1.36905">
        <ele>123</ele>
        <time>2025-04-12T09:10:02Z</time>
      </trkpt>
      <trkpt lat="43.68723" lon="1.36905">
        <ele>123</ele>
        <time>2025-04-12T09:10:03Z</time>
      </trkpt>
      <trkpt lat="43.68718" lon="1.36905">
        <ele>123</ele>
        <time>2025-04-12T09:10:04Z</time>
      </trkpt>
      <trkpt lat="43.68716" lon="1.36904">
        <ele>123</ele>
        <time>2025-04-12T09:10:05Z</time>
      </trkpt>
      <trkpt lat="43.68713" lon="1.36904">
        <ele>123</ele>
        <time>2025-04-12T09:10:06Z</time>
      </trkpt>
      <trkpt lat="43.6871" lon="1.36904">
        <ele>123</ele>
        <time>2025-04-12T09:10:07Z</time>
      </trkpt>
      <trkpt lat="43.68707" lon="1.36905">
        <ele>123</ele>
        <time>2025-04-12T09:10:08Z</time>
      </trkpt>
      <trkpt lat="43.68704" lon="1.36905">
        <ele>123</ele>
        <time>2025-04-12T09:10:09Z</time>
      </trkpt>
      <trkpt lat="43.68704" lon="1.36905">
        <ele>123</ele>
        <time>2025-04-12T09:10:10Z</time>
      </trkpt>
      <trkpt lat="43.68699" lon="1.36905">
        <ele>123</ele>
        <time>2025-04-12T09:10:11Z</time>
      </trkpt>
      <trkpt lat="43.68695" lon="1.36904">
        <ele>123</ele>
        <time>2025-04-12T09:10:12Z</time>
      </trkpt>
      <trkpt lat="43.68693" lon="1.36904">
        <ele>123</ele>
        <time>2025-04-12T09:10:13Z</time>
      </trkpt>
      <trkpt lat="43.6869" lon="1.36903">
        <ele>123</ele>
        <time>2025-04-12T09:10:14Z</time>
      </trkpt>
      <trkpt lat="43.6869" lon="1.36903">
        <ele>123</ele>
        <time>2025-04-12T09:10:15Z</time>
      </trkpt>
      <trkpt lat="43.68684" lon="1.36902">
        <ele>123</ele>
        <time>2025-04-12T09:10:16Z</time>
      </trkpt>
      <trkpt lat="43.68684" lon="1.36902">
        <ele>123</ele>
        <time>2025-04-12T09:10:17Z</time>
      </trkpt>
      <trkpt lat="43.68679" lon="1.36902">
        <ele>123</ele>
        <time>2025-04-12T09:10:18Z</time>
      </trkpt>
      <trkpt lat="43.68676" lon="1.36901">
        <ele>123</ele>
        <time>2025-04-12T09:10:19Z</time>
      </trkpt>
      <trkpt lat="43.68673" lon="1.36902">
        <ele>123</ele>
        <time>2025-04-12T09:10:20Z</time>
      </trkpt>
      <trkpt lat="43.6867" lon="1.36902">
        <ele>123</ele>
        <time>2025-04-12T09:10:21Z</time>
      </trkpt>
      <trkpt lat="43.68667" lon="1.36902">
        <ele>123</ele>
        <time>2025-04-12T09:10:22Z</time>
      </trkpt>
      <trkpt lat="43.68665" lon="1.36903">
        <ele>123</ele>
        <time>2025-04-12T09:10:23Z</time>
      </trkpt>
      <trkpt lat="43.68662" lon="1.36903">
        <ele>123</ele>
        <time>2025-04-12T09:10:24Z</time>
      </trkpt>
      <trkpt lat="43.68659" lon="1.36904">
        <ele>123</ele>
        <time>2025-04-12T09:10:25Z</time>
      </trkpt>
      <trkpt lat="43.68656" lon="1.36905">
        <ele>123</ele>
        <time>2025-04-12T09:10:26Z</time>
      </trkpt>
      <trkpt lat="43.68654" lon="1.36905">
        <ele>123</ele>
        <time>2025-04-12T09:10:27Z</time>
      </trkpt>
      <trkpt lat="43.68651" lon="1.36906">
        <ele>123</ele>
        <time>2025-04-12T09:10:28Z</time>
      </trkpt>
      <trkpt lat="43.68648" lon="1.36907">
        <ele>123</ele>
        <time>2025-04-12T09:10:29Z</time>
      </trkpt>
      <trkpt lat="43.68648" lon="1.36907">
        <ele>123</ele>
        <time>2025-04-12T09:10:30Z</time>
      </trkpt>
      <trkpt lat="43.68643" lon="1.36909">
        <ele>123</ele>
        <time>2025-04-12T09:10:31Z</time>
      </trkpt>
      <trkpt lat="43.6864" lon="1.3691">
        <ele>123</ele>
        <time>2025-04-12T09:10:32Z</time>
      </trkpt>
      <trkpt lat="43.68637" lon="1.36911">
        <ele>123</ele>
        <time>2025-04-12T09:10:33Z</time>
      </trkpt>
      <trkpt lat="43.68635" lon="1.36911">
        <ele>123</ele>
        <time>2025-04-12T09:10:34Z</time>
      </trkpt>
      <trkpt lat="43.68635" lon="1.36911">
        <ele>123</ele>
        <time>2025-04-12T09:10:35Z</time>
      </trkpt>
      <trkpt lat="43.68629" lon="1.36913">
        <ele>123</ele>
        <time>2025-04-12T09:10:36Z</time>
      </trkpt>
      <trkpt lat="43.68626" lon="1.36913">
        <ele>123</ele>
        <time>2025-04-12T09:10:37Z</time>
      </trkpt>
      <trkpt lat="43.68624" lon="1.36913">
        <ele>123</ele>
        <time>2025-04-12T09:10:38Z</time>
      </trkpt>
      <trkpt lat="43.68621" lon="1.36913">
        <ele>123</ele>
        <time>2025-04-12T09:10:39Z</time>
      </trkpt>
      <trkpt lat="43.68618" lon="1.36914">
        <ele>123</ele>
        <time>2025-04-12T09:10:40Z</time>
      </trkpt>
      <trkpt lat="43.68615" lon="1.36914">
        <ele>123</ele>
        <time>2025-04-12T09:10:41Z</time>
      </trkpt>
      <trkpt lat="43.68612" lon="1.36915">
        <ele>123</ele>
        <time>2025-04-12T09:10:42Z</time>
      </trkpt>
      <trkpt lat="43.68609" lon="1.36915">
        <ele>123</ele>
        <time>2025-04-12T09:10:43Z</time>
      </trkpt>
      <trkpt lat="43.68606" lon="1.36916">
        <ele>123</ele>
        <time>2025-04-12T09:10:44Z</time>
      </trkpt>
      <trkpt lat="43.68604" lon="1.36916">
        <ele>123</ele>
        <time>2025-04-12T09:10:45Z</time>
      </trkpt>
      <trkpt lat="43.68601" lon="1.36917">
        <ele>123</ele>
        <time>2025-04-12T09:10:46Z</time>
      </trkpt>
      <trkpt lat="43.68599" lon="1.36918">
        <ele>123</ele>
        <time>2025-04-12T09:10:47Z</time>
      </trkpt>
      <trkpt lat="43.68594" lon="1.36919">
        <ele>123</ele>
        <time>2025-04-12T09:10:49Z</time>
      </trkpt>
      <trkpt lat="43.68594" lon="1.36919">
        <ele>123</ele>
        <time>2025-04-12T09:10:50Z</time>
      </trkpt>
      <trkpt lat="43.68589" lon="1.3692">
        <ele>123</ele>
        <time>2025-04-12T09:10:51Z</time>
      </trkpt>
      <trkpt lat="43.68586" lon="1.36921">
        <ele>123</ele>
        <time>2025-04-12T09:10:52Z</time>
      </trkpt>
      <trkpt lat="43.68583" lon="1.36922">
        <ele>123</ele>
        <time>2025-04-12T09:10:53Z</time>
      </trkpt>
      <trkpt lat="43.68581" lon="1.36923">
        <ele>123</ele>
        <time>2025-04-12T09:10:54Z</time>
      </trkpt>
      <trkpt lat="43.68578" lon="1.36923">
        <ele>123</ele>
        <time>2025-04-12T09:10:55Z</time>
      </trkpt>
      <trkpt lat="43.68575" lon="1.36924">
        <ele>123</ele>
        <time>2025-04-12T09:10:56Z</time>
      </trkpt>
      <trkpt lat="43.68573" lon="1.36925">
        <ele>123</ele>
        <time>2025-04-12T09:10:57Z</time>
      </trkpt>
      <trkpt lat="43.6857" lon="1.36925">
        <ele>123</ele>
        <time>2025-04-12T09:10:58Z</time>
      </trkpt>
      <trkpt lat="43.68568" lon="1.36926">
        <ele>124</ele>
        <time>2025-04-12T09:10:59Z</time>
      </trkpt>
      <trkpt lat="43.68565" lon="1.36926">
        <ele>124</ele>
        <time>2025-04-12T09:11:00Z</time>
      </trkpt>
      <trkpt lat="43.68562" lon="1.36927">
        <ele>124</ele>
        <time>2025-04-12T09:11:01Z</time>
      </trkpt>
      <trkpt lat="43.6856" lon="1.36928">
        <ele>124</ele>
        <time>2025-04-12T09:11:02Z</time>
      </trkpt>
      <trkpt lat="43.68557" lon="1.36928">
        <ele>123</ele>
        <time>2025-04-12T09:11:03Z</time>
      </trkpt>
      <trkpt lat="43.68557" lon="1.36928">
        <ele>123</ele>
        <time>2025-04-12T09:11:04Z</time>
      </trkpt>
      <trkpt lat="43.68551" lon="1.3693">
        <ele>123</ele>
        <time>2025-04-12T09:11:05Z</time>
      </trkpt>
      <trkpt lat="43.68549" lon="1.36931">
        <ele>124</ele>
        <time>2025-04-12T09:11:07Z</time>
      </trkpt>
      <trkpt lat="43.68543" lon="1.36931">
        <ele>124</ele>
        <time>2025-04-12T09:11:08Z</time>
      </trkpt>
      <trkpt lat="43.68543" lon="1.36931">
        <ele>124</ele>
        <time>2025-04-12T09:11:09Z</time>
      </trkpt>
      <trkpt lat="43.68537" lon="1.36932">
        <ele>124</ele>
        <time>2025-04-12T09:11:10Z</time>
      </trkpt>
      <trkpt lat="43.68535" lon="1.36933">
        <ele>123</ele>
        <time>2025-04-12T09:11:11Z</time>
      </trkpt>
      <trkpt lat="43.68532" lon="1.36934">
        <ele>123</ele>
        <time>2025-04-12T09:11:12Z</time>
      </trkpt>
      <trkpt lat="43.6853" lon="1.36935">
        <ele>123</ele>
        <time>2025-04-12T09:11:13Z</time>
      </trkpt>
      <trkpt lat="43.68527" lon="1.36936">
        <ele>123</ele>
        <time>2025-04-12T09:11:14Z</time>
      </trkpt>
      <trkpt lat="43.68525" lon="1.36937">
        <ele>123</ele>
        <time>2025-04-12T09:11:15Z</time>
      </trkpt>
      <trkpt lat="43.68522" lon="1.36938">
        <ele>123</ele>
        <time>2025-04-12T09:11:16Z</time>
      </trkpt>
      <trkpt lat="43.6852" lon="1.36939">
        <ele>123</ele>
        <time>2025-04-12T09:11:17Z</time>
      </trkpt>
      <trkpt lat="43.68517" lon="1.3694">
        <ele>123</ele>
        <time>2025-04-12T09:11:18Z</time>
      </trkpt>
      <trkpt lat="43.68515" lon="1.36941">
        <ele>123</ele>
        <time>2025-04-12T09:11:19Z</time>
      </trkpt>
      <trkpt lat="43.68512" lon="1.36942">
        <ele>123</ele>
        <time>2025-04-12T09:11:20Z</time>
      </trkpt>
      <trkpt lat="43.68509" lon="1.36942">
        <ele>124</ele>
        <time>2025-04-12T09:11:21Z</time>
      </trkpt>
      <trkpt lat="43.68507" lon="1.36943">
        <ele>124</ele>
        <time>2025-04-12T09:11:22Z</time>
      </trkpt>
      <trkpt lat="43.68504" lon="1.36944">
        <ele>124</ele>
        <time>2025-04-12T09:11:23Z</time>
      </trkpt>
      <trkpt lat="43.68501" lon="1.36945">
        <ele>124</ele>
        <time>2025-04-12T09:11:24Z</time>
      </trkpt>
      <trkpt lat="43.68501" lon="1.36945">
        <ele>124</ele>
        <time>2025-04-12T09:11:25Z</time>
      </trkpt>
      <trkpt lat="43.68499" lon="1.36946">
        <ele>124</ele>
        <time>2025-04-12T09:11:26Z</time>
      </trkpt>
      <trkpt lat="43.68494" lon="1.36948">
        <ele>124</ele>
        <time>2025-04-12T09:11:27Z</time>
      </trkpt>
      <trkpt lat="43.68494" lon="1.36948">
        <ele>124</ele>
        <time>2025-04-12T09:11:28Z</time>
      </trkpt>
      <trkpt lat="43.68489" lon="1.3695">
        <ele>124</ele>
        <time>2025-04-12T09:11:29Z</time>
      </trkpt>
      <trkpt lat="43.68486" lon="1.3695">
        <ele>123</ele>
        <time>2025-04-12T09:11:30Z</time>
      </trkpt>
      <trkpt lat="43.68484" lon="1.36952">
        <ele>124</ele>
        <time>2025-04-12T09:11:31Z</time>
      </trkpt>
      <trkpt lat="43.68481" lon="1.36953">
        <ele>124</ele>
        <time>2025-04-12T09:11:32Z</time>
      </trkpt>
      <trkpt lat="43.68479" lon="1.36954">
        <ele>124</ele>
        <time>2025-04-12T09:11:33Z</time>
      </trkpt>
      <trkpt lat="43.68476" lon="1.36955">
        <ele>124</ele>
        <time>2025-04-12T09:11:34Z</time>
      </trkpt>
      <trkpt lat="43.68476" lon="1.36955">
        <ele>124</ele>
        <time>2025-04-12T09:11:35Z</time>
      </trkpt>
      <trkpt lat="43.68471" lon="1.36958">
        <ele>123</ele>
        <time>2025-04-12T09:11:36Z</time>
      </trkpt>
      <trkpt lat="43.68469" lon="1.3696">
        <ele>123</ele>
        <time>2025-04-12T09:11:37Z</time>
      </trkpt>
      <trkpt lat="43.68466" lon="1.36961">
        <ele>123</ele>
        <time>2025-04-12T09:11:38Z</time>
      </trkpt>
      <trkpt lat="43.68463" lon="1.36962">
        <ele>123</ele>
        <time>2025-04-12T09:11:39Z</time>
      </trkpt>
      <trkpt lat="43.68461" lon="1.36963">
        <ele>123</ele>
        <time>2025-04-12T09:11:40Z</time>
      </trkpt>
      <trkpt lat="43.68458" lon="1.36964">
        <ele>123</ele>
        <time>2025-04-12T09:11:41Z</time>
      </trkpt>
      <trkpt lat="43.68458" lon="1.36964">
        <ele>123</ele>
        <time>2025-04-12T09:11:42Z</time>
      </trkpt>
      <trkpt lat="43.68453" lon="1.36966">
        <ele>124</ele>
        <time>2025-04-12T09:11:43Z</time>
      </trkpt>
      <trkpt lat="43.6845" lon="1.36966">
        <ele>124</ele>
        <time>2025-04-12T09:11:44Z</time>
      </trkpt>
      <trkpt lat="43.68448" lon="1.36967">
        <ele>124</ele>
        <time>2025-04-12T09:11:45Z</time>
      </trkpt>
      <trkpt lat="43.68445" lon="1.36968">
        <ele>124</ele>
        <time>2025-04-12T09:11:46Z</time>
      </trkpt>
      <trkpt lat="43.68442" lon="1.36969">
        <ele>124</ele>
        <time>2025-04-12T09:11:47Z</time>
      </trkpt>
      <trkpt lat="43.6844" lon="1.36969">
        <ele>124</ele>
        <time>2025-04-12T09:11:48Z</time>
      </trkpt>
      <trkpt lat="43.68437" lon="1.3697">
        <ele>124</ele>
        <time>2025-04-12T09:11:49Z</time>
      </trkpt>
      <trkpt lat="43.68435" lon="1.36971">
        <ele>124</ele>
        <time>2025-04-12T09:11:50Z</time>
      </trkpt>
      <trkpt lat="43.68432" lon="1.36972">
        <ele>124</ele>
        <time>2025-04-12T09:11:51Z</time>
      </trkpt>
      <trkpt lat="43.6843" lon="1.36973">
        <ele>124</ele>
        <time>2025-04-12T09:11:52Z</time>
      </trkpt>
      <trkpt lat="43.68427" lon="1.36974">
        <ele>124</ele>
        <time>2025-04-12T09:11:53Z</time>
      </trkpt>
      <trkpt lat="43.68424" lon="1.36975">
        <ele>124</ele>
        <time>2025-04-12T09:11:54Z</time>
      </trkpt>
      <trkpt lat="43.68422" lon="1.36976">
        <ele>124</ele>
        <time>2025-04-12T09:11:55Z</time>
      </trkpt>
      <trkpt lat="43.68419" lon="1.36976">
        <ele>124</ele>
        <time>2025-04-12T09:11:56Z</time>
      </trkpt>
      <trkpt lat="43.68416" lon="1.36977">
        <ele>124</ele>
        <time>2025-04-12T09:11:57Z</time>
      </trkpt>
      <trkpt lat="43.68414" lon="1.36978">
        <ele>124</ele>
        <time>2025-04-12T09:11:58Z</time>
      </trkpt>
      <trkpt lat="43.68414" lon="1.36978">
        <ele>124</ele>
        <time>2025-04-12T09:11:59Z</time>
      </trkpt>
      <trkpt lat="43.68408" lon="1.3698">
        <ele>124</ele>
        <time>2025-04-12T09:12:00Z</time>
      </trkpt>
      <trkpt lat="43.68406" lon="1.36981">
        <ele>124</ele>
        <time>2025-04-12T09:12:01Z</time>
      </trkpt>
      <trkpt lat="43.68406" lon="1.36981">
        <ele>124</ele>
        <time>2025-04-12T09:12:02Z</time>
      </trkpt>
      <trkpt lat="43.68401" lon="1.36983">
        <ele>124</ele>
        <time>2025-04-12T09:12:03Z</time>
      </trkpt>
      <trkpt lat="43.68396" lon="1.36986">
        <ele>124</ele>
        <time>2025-04-12T09:12:05Z</time>
      </trkpt>
      <trkpt lat="43.68393" lon="1.36987">
        <ele>124</ele>
        <time>2025-04-12T09:12:06Z</time>
      </trkpt>
      <trkpt lat="43.68393" lon="1.36987">
        <ele>124</ele>
        <time>2025-04-12T09:12:07Z</time>
      </trkpt>
      <trkpt lat="43.68388" lon="1.36989">
        <ele>124</ele>
        <time>2025-04-12T09:12:08Z</time>
      </trkpt>
      <trkpt lat="43.68388" lon="1.36989">
        <ele>124</ele>
        <time>2025-04-12T09:12:09Z</time>
      </trkpt>
      <trkpt lat="43.68383" lon="1.36991">
        <ele>124</ele>
        <time>2025-04-12T09:12:10Z</time>
      </trkpt>
      <trkpt lat="43.68383" lon="1.36991">
        <ele>124</ele>
        <time>2025-04-12T09:12:11Z</time>
      </trkpt>
      <trkpt lat="43.68377" lon="1.36993">
        <ele>124</ele>
        <time>2025-04-12T09:12:12Z</time>
      </trkpt>
      <trkpt lat="43.68375" lon="1.36994">
        <ele>124</ele>
        <time>2025-04-12T09:12:13Z</time>
      </trkpt>
      <trkpt lat="43.68375" lon="1.36994">
        <ele>123</ele>
        <time>2025-04-12T09:12:14Z</time>
      </trkpt>
      <trkpt lat="43.68369" lon="1.36996">
        <ele>123</ele>
        <time>2025-04-12T09:12:15Z</time>
      </trkpt>
      <trkpt lat="43.68369" lon="1.36996">
        <ele>123</ele>
        <time>2025-04-12T09:12:16Z</time>
      </trkpt>
      <trkpt lat="43.68363" lon="1.36998">
        <ele>123</ele>
        <time>2025-04-12T09:12:17Z</time>
      </trkpt>
      <trkpt lat="43.68361" lon="1.36999">
        <ele>122</ele>
        <time>2025-04-12T09:12:18Z</time>
      </trkpt>
      <trkpt lat="43.68358" lon="1.37001">
        <ele>122</ele>
        <time>2025-04-12T09:12:19Z</time>
      </trkpt>
      <trkpt lat="43.68353" lon="1.37003">
        <ele>123</ele>
        <time>2025-04-12T09:12:21Z</time>
      </trkpt>
      <trkpt lat="43.68351" lon="1.37004">
        <ele>123</ele>
        <time>2025-04-12T09:12:22Z</time>
      </trkpt>
      <trkpt lat="43.68348" lon="1.37005">
        <ele>123</ele>
        <time>2025-04-12T09:12:23Z</time>
      </trkpt>
      <trkpt lat="43.68345" lon="1.37006">
        <ele>123</ele>
        <time>2025-04-12T09:12:24Z</time>
      </trkpt>
      <trkpt lat="43.68345" lon="1.37006">
        <ele>123</ele>
        <time>2025-04-12T09:12:25Z</time>
      </trkpt>
      <trkpt lat="43.6834" lon="1.37009">
        <ele>123</ele>
        <time>2025-04-12T09:12:26Z</time>
      </trkpt>
      <trkpt lat="43.68338" lon="1.3701">
        <ele>123</ele>
        <time>2025-04-12T09:12:27Z</time>
      </trkpt>
      <trkpt lat="43.68335" lon="1.37012">
        <ele>123</ele>
        <time>2025-04-12T09:12:28Z</time>
      </trkpt>
      <trkpt lat="43.68332" lon="1.37013">
        <ele>123</ele>
        <time>2025-04-12T09:12:29Z</time>
      </trkpt>
      <trkpt lat="43.68332" lon="1.37013">
        <ele>123</ele>
        <time>2025-04-12T09:12:30Z</time>
      </trkpt>
      <trkpt lat="43.68326" lon="1.37015">
        <ele>123</ele>
        <time>2025-04-12T09:12:31Z</time>
      </trkpt>
      <trkpt lat="43.68326" lon="1.37015">
        <ele>123</ele>
        <time>2025-04-12T09:12:32Z</time>
      </trkpt>
      <trkpt lat="43.68321" lon="1.37018">
        <ele>123</ele>
        <time>2025-04-12T09:12:33Z</time>
      </trkpt>
      <trkpt lat="43.68318" lon="1.3702">
        <ele>123</ele>
        <time>2025-04-12T09:12:34Z</time>
      </trkpt>
      <trkpt lat="43.68315" lon="1.37022">
        <ele>123</ele>
        <time>2025-04-12T09:12:35Z</time>
      </trkpt>
      <trkpt lat="43.68313" lon="1.37023">
        <ele>123</ele>
        <time>2025-04-12T09:12:36Z</time>
      </trkpt>
      <trkpt lat="43.6831" lon="1.37025">
        <ele>123</ele>
        <time>2025-04-12T09:12:37Z</time>
      </trkpt>
      <trkpt lat="43.68307" lon="1.37027">
        <ele>123</ele>
        <time>2025-04-12T09:12:38Z</time>
      </trkpt>
      <trkpt lat="43.68305" lon="1.37028">
        <ele>123</ele>
        <time>2025-04-12T09:12:39Z</time>
      </trkpt>
      <trkpt lat="43.68302" lon="1.3703">
        <ele>123</ele>
        <time>2025-04-12T09:12:40Z</time>
      </trkpt>
      <trkpt lat="43.683" lon="1.37032">
        <ele>123</ele>
        <time>2025-04-12T09:12:41Z</time>
      </trkpt>
      <trkpt lat="43.68297" lon="1.37034">
        <ele>122</ele>
        <time>2025-04-12T09:12:42Z</time>
      </trkpt>
      <trkpt lat="43.68295" lon="1.37035">
        <ele>122</ele>
        <time>2025-04-12T09:12:43Z</time>
      </trkpt>
      <trkpt lat="43.68292" lon="1.37036">
        <ele>122</ele>
        <time>2025-04-12T09:12:44Z</time>
      </trkpt>
      <trkpt lat="43.68289" lon="1.37038">
        <ele>123</ele>
        <time>2025-04-12T09:12:45Z</time>
      </trkpt>
      <trkpt lat="43.68287" lon="1.37039">
        <ele>123</ele>
        <time>2025-04-12T09:12:46Z</time>
      </trkpt>
      <trkpt lat="43.68284" lon="1.37041">
        <ele>123</ele>
        <time>2025-04-12T09:12:47Z</time>
      </trkpt>
      <trkpt lat="43.68281" lon="1.37042">
        <ele>123</ele>
        <time>2025-04-12T09:12:48Z</time>
      </trkpt>
      <trkpt lat="43.68281" lon="1.37042">
        <ele>123</ele>
        <time>2025-04-12T09:12:49Z</time>
      </trkpt>
      <trkpt lat="43.68275" lon="1.37043">
        <ele>123</ele>
        <time>2025-04-12T09:12:50Z</time>
      </trkpt>
      <trkpt lat="43.68275" lon="1.37043">
        <ele>123</ele>
        <time>2025-04-12T09:12:51Z</time>
      </trkpt>
      <trkpt lat="43.68269" lon="1.37045">
        <ele>123</ele>
        <time>2025-04-12T09:12:52Z</time>
      </trkpt>
      <trkpt lat="43.68267" lon="1.37047">
        <ele>123</ele>
        <time>2025-04-12T09:12:53Z</time>
      </trkpt>
      <trkpt lat="43.68264" lon="1.37048">
        <ele>123</ele>
        <time>2025-04-12T09:12:54Z</time>
      </trkpt>
      <trkpt lat="43.68261" lon="1.37049">
        <ele>123</ele>
        <time>2025-04-12T09:12:56Z</time>
      </trkpt>
      <trkpt lat="43.68256" lon="1.37052">
        <ele>123</ele>
        <time>2025-04-12T09:12:57Z</time>
      </trkpt>
      <trkpt lat="43.68253" lon="1.37054">
        <ele>122</ele>
        <time>2025-04-12T09:12:58Z</time>
      </trkpt>
      <trkpt lat="43.68251" lon="1.37056">
        <ele>122</ele>
        <time>2025-04-12T09:12:59Z</time>
      </trkpt>
      <trkpt lat="43.68248" lon="1.37057">
        <ele>122</ele>
        <time>2025-04-12T09:13:00Z</time>
      </trkpt>
      <trkpt lat="43.68246" lon="1.37059">
        <ele>122</ele>
        <time>2025-04-12T09:13:01Z</time>
      </trkpt>
      <trkpt lat="43.68244" lon="1.37061">
        <ele>122</ele>
        <time>2025-04-12T09:13:02Z</time>
      </trkpt>
      <trkpt lat="43.68242" lon="1.37063">
        <ele>122</ele>
        <time>2025-04-12T09:13:03Z</time>
      </trkpt>
      <trkpt lat="43.6824" lon="1.37065">
        <ele>122</ele>
        <time>2025-04-12T09:13:04Z</time>
      </trkpt>
      <trkpt lat="43.68238" lon="1.37066">
        <ele>122</ele>
        <time>2025-04-12T09:13:05Z</time>
      </trkpt>
      <trkpt lat="43.68236" lon="1.37068">
        <ele>122</ele>
        <time>2025-04-12T09:13:06Z</time>
      </trkpt>
      <trkpt lat="43.68234" lon="1.3707">
        <ele>122</ele>
        <time>2025-04-12T09:13:07Z</time>
      </trkpt>
      <trkpt lat="43.68231" lon="1.37073">
        <ele>122</ele>
        <time>2025-04-12T09:13:08Z</time>
      </trkpt>
      <trkpt lat="43.68229" lon="1.37075">
        <ele>122</ele>
        <time>2025-04-12T09:13:09Z</time>
      </trkpt>
      <trkpt lat="43.68229" lon="1.37075">
        <ele>123</ele>
        <time>2025-04-12T09:13:10Z</time>
      </trkpt>
      <trkpt lat="43.68224" lon="1.37079">
        <ele>123</ele>
        <time>2025-04-12T09:13:11Z</time>
      </trkpt>
      <trkpt lat="43.68222" lon="1.37081">
        <ele>123</ele>
        <time>2025-04-12T09:13:12Z</time>
      </trkpt>
      <trkpt lat="43.6822" lon="1.37083">
        <ele>122</ele>
        <time>2025-04-12T09:13:13Z</time>
      </trkpt>
      <trkpt lat="43.68218" lon="1.37085">
        <ele>122</ele>
        <time>2025-04-12T09:13:14Z</time>
      </trkpt>
      <trkpt lat="43.68218" lon="1.37085">
        <ele>122</ele>
        <time>2025-04-12T09:13:15Z</time>
      </trkpt>
      <trkpt lat="43.68213" lon="1.3709">
        <ele>122</ele>
        <time>2025-04-12T09:13:16Z</time>
      </trkpt>
      <trkpt lat="43.68211" lon="1.37092">
        <ele>122</ele>
        <time>2025-04-12T09:13:17Z</time>
      </trkpt>
      <trkpt lat="43.68209" lon="1.37094">
        <ele>122</ele>
        <time>2025-04-12T09:13:18Z</time>
      </trkpt>
      <trkpt lat="43.68207" lon="1.37096">
        <ele>122</ele>
        <time>2025-04-12T09:13:19Z</time>
      </trkpt>
      <trkpt lat="43.68205" lon="1.37099">
        <ele>122</ele>
        <time>2025-04-12T09:13:20Z</time>
      </trkpt>
      <trkpt lat="43.68202" lon="1.37101">
        <ele>122</ele>
        <time>2025-04-12T09:13:21Z</time>
      </trkpt>
      <trkpt lat="43.682" lon="1.37103">
        <ele>122</ele>
        <time>2025-04-12T09:13:22Z</time>
      </trkpt>
      <trkpt lat="43.68198" lon="1.37106">
        <ele>122</ele>
        <time>2025-04-12T09:13:23Z</time>
      </trkpt>
      <trkpt lat="43.68196" lon="1.37108">
        <ele>122</ele>
        <time>2025-04-12T09:13:24Z</time>
      </trkpt>
      <trkpt lat="43.68194" lon="1.37111">
        <ele>122</ele>
        <time>2025-04-12T09:13:25Z</time>
      </trkpt>
      <trkpt lat="43.68192" lon="1.37113">
        <ele>122</ele>
        <time>2025-04-12T09:13:26Z</time>
      </trkpt>
      <trkpt lat="43.68192" lon="1.37113">
        <ele>123</ele>
        <time>2025-04-12T09:13:27Z</time>
      </trkpt>
      <trkpt lat="43.68188" lon="1.37118">
        <ele>123</ele>
        <time>2025-04-12T09:13:28Z</time>
      </trkpt>
      <trkpt lat="43.68188" lon="1.37118">
        <ele>123</ele>
        <time>2025-04-12T09:13:29Z</time>
      </trkpt>
      <trkpt lat="43.68184" lon="1.37123">
        <ele>123</ele>
        <time>2025-04-12T09:13:30Z</time>
      </trkpt>
      <trkpt lat="43.68182" lon="1.37126">
        <ele>123</ele>
        <time>2025-04-12T09:13:31Z</time>
      </trkpt>
      <trkpt lat="43.6818" lon="1.37128">
        <ele>123</ele>
        <time>2025-04-12T09:13:32Z</time>
      </trkpt>
      <trkpt lat="43.68178" lon="1.37131">
        <ele>123</ele>
        <time>2025-04-12T09:13:33Z</time>
      </trkpt>
      <trkpt lat="43.68176" lon="1.37133">
        <ele>123</ele>
        <time>2025-04-12T09:13:34Z</time>
      </trkpt>
      <trkpt lat="43.68174" lon="1.37136">
        <ele>123</ele>
        <time>2025-04-12T09:13:35Z</time>
      </trkpt>
      <trkpt lat="43.68172" lon="1.37139">
        <ele>122</ele>
        <time>2025-04-12T09:13:36Z</time>
      </trkpt>
      <trkpt lat="43.68172" lon="1.37139">
        <ele>122</ele>
        <time>2025-04-12T09:13:37Z</time>
      </trkpt>
      <trkpt lat="43.68168" lon="1.37144">
        <ele>122</ele>
        <time>2025-04-12T09:13:38Z</time>
      </trkpt>
      <trkpt lat="43.68164" lon="1.3715">
        <ele>122</ele>
        <time>2025-04-12T09:13:40Z</time>
      </trkpt>
      <trkpt lat="43.68164" lon="1.3715">
        <ele>122</ele>
        <time>2025-04-12T09:13:41Z</time>
      </trkpt>
      <trkpt lat="43.6816" lon="1.37155">
        <ele>122</ele>
        <time>2025-04-12T09:13:42Z</time>
      </trkpt>
      <trkpt lat="43.68158" lon="1.37158">
        <ele>122</ele>
        <time>2025-04-12T09:13:43Z</time>
      </trkpt>
      <trkpt lat="43.68156" lon="1.3716">
        <ele>122</ele>
        <time>2025-04-12T09:13:44Z</time>
      </trkpt>
      <trkpt lat="43.68155" lon="1.37163">
        <ele>122</ele>
        <time>2025-04-12T09:13:45Z</time>
      </trkpt>
      <trkpt lat="43.68153" lon="1.37166">
        <ele>122</ele>
        <time>2025-04-12T09:13:46Z</time>
      </trkpt>
      <trkpt lat="43.68151" lon="1.37168">
        <ele>122</ele>
        <time>2025-04-12T09:13:47Z</time>
      </trkpt>
      <trkpt lat="43.68149" lon="1.3717">
        <ele>122</ele>
        <time>2025-04-12T09:13:48Z</time>
      </trkpt>
      <trkpt lat="43.68148" lon="1.37173">
        <ele>122</ele>
        <time>2025-04-12T09:13:49Z</time>
      </trkpt>
      <trkpt lat="43.68148" lon="1.37173">
        <ele>122</ele>
        <time>2025-04-12T09:13:50Z</time>
      </trkpt>
      <trkpt lat="43.68146" lon="1.37175">
        <ele>122</ele>
        <time>2025-04-12T09:13:51Z</time>
      </trkpt>
      <trkpt lat="43.68143" lon="1.3718">
        <ele>122</ele>
        <time>2025-04-12T09:13:52Z</time>
      </trkpt>
      <trkpt lat="43.68142" lon="1.37183">
        <ele>122</ele>
        <time>2025-04-12T09:13:53Z</time>
      </trkpt>
      <trkpt lat="43.6814" lon="1.37185">
        <ele>122</ele>
        <time>2025-04-12T09:13:54Z</time>
      </trkpt>
      <trkpt lat="43.68138" lon="1.37187">
        <ele>122</ele>
        <time>2025-04-12T09:13:55Z</time>
      </trkpt>
      <trkpt lat="43.68135" lon="1.3719">
        <ele>122</ele>
        <time>2025-04-12T09:13:56Z</time>
      </trkpt>
      <trkpt lat="43.68133" lon="1.37192">
        <ele>122</ele>
        <time>2025-04-12T09:13:57Z</time>
      </trkpt>
      <trkpt lat="43.6813" lon="1.37194">
        <ele>122</ele>
        <time>2025-04-12T09:13:58Z</time>
      </trkpt>
      <trkpt lat="43.68128" lon="1.37195">
        <ele>122</ele>
        <time>2025-04-12T09:13:59Z</time>
      </trkpt>
      <trkpt lat="43.68125" lon="1.37197">
        <ele>122</ele>
        <time>2025-04-12T09:14:00Z</time>
      </trkpt>
      <trkpt lat="43.68123" lon="1.37196">
        <ele>122</ele>
        <time>2025-04-12T09:14:01Z</time>
      </trkpt>
      <trkpt lat="43.6812" lon="1.37195">
        <ele>122</ele>
        <time>2025-04-12T09:14:02Z</time>
      </trkpt>
      <trkpt lat="43.68118" lon="1.37194">
        <ele>122</ele>
        <time>2025-04-12T09:14:03Z</time>
      </trkpt>
      <trkpt lat="43.68116" lon="1.37193">
        <ele>122</ele>
        <time>2025-04-12T09:14:04Z</time>
      </trkpt>
      <trkpt lat="43.68114" lon="1.37192">
        <ele>121</ele>
        <time>2025-04-12T09:14:05Z</time>
      </trkpt>
      <trkpt lat="43.68111" lon="1.37192">
        <ele>121</ele>
        <time>2025-04-12T09:14:06Z</time>
      </trkpt>
      <trkpt lat="43.68107" lon="1.3719">
        <ele>121</ele>
        <time>2025-04-12T09:14:07Z</time>
      </trkpt>
      <trkpt lat="43.68105" lon="1.37187">
        <ele>121</ele>
        <time>2025-04-12T09:14:08Z</time>
      </trkpt>
      <trkpt lat="43.68102" lon="1.37184">
        <ele>120</ele>
        <time>2025-04-12T09:14:10Z</time>
      </trkpt>
      <trkpt lat="43.68097" lon="1.37178">
        <ele>120</ele>
        <time>2025-04-12T09:14:11Z</time>
      </trkpt>
      <trkpt lat="43.68094" lon="1.37175">
        <ele>120</ele>
        <time>2025-04-12T09:14:12Z</time>
      </trkpt>
      <trkpt lat="43.68092" lon="1.37173">
        <ele>119</ele>
        <time>2025-04-12T09:14:13Z</time>
      </trkpt>
      <trkpt lat="43.6809" lon="1.37172">
        <ele>119</ele>
        <time>2025-04-12T09:14:14Z</time>
      </trkpt>
      <trkpt lat="43.6809" lon="1.37172">
        <ele>119</ele>
        <time>2025-04-12T09:14:15Z</time>
      </trkpt>
      <trkpt lat="43.68088" lon="1.37171">
        <ele>119</ele>
        <time>2025-04-12T09:14:16Z</time>
      </trkpt>
      <trkpt lat="43.68088" lon="1.37171">
        <ele>119</ele>
        <time>2025-04-12T09:14:17Z</time>
      </trkpt>
      <trkpt lat="43.68086" lon="1.37169">
        <ele>119</ele>
        <time>2025-04-12T09:14:18Z</time>
      </trkpt>
      <trkpt lat="43.68086" lon="1.37169">
        <ele>119</ele>
        <time>2025-04-12T09:14:19Z</time>
      </trkpt>
      <trkpt lat="43.68085" lon="1.37162">
        <ele>119</ele>
        <time>2025-04-12T09:14:20Z</time>
      </trkpt>
      <trkpt lat="43.68085" lon="1.3716">
        <ele>119</ele>
        <time>2025-04-12T09:14:21Z</time>
      </trkpt>
      <trkpt lat="43.68083" lon="1.37157">
        <ele>119</ele>
        <time>2025-04-12T09:14:22Z</time>
      </trkpt>
      <trkpt lat="43.68081" lon="1.37155">
        <ele>115</ele>
        <time>2025-04-12T09:14:23Z</time>
      </trkpt>
      <trkpt lat="43.68081" lon="1.37155">
        <ele>115</ele>
        <time>2025-04-12T09:14:24Z</time>
      </trkpt>
      <trkpt lat="43.68078" lon="1.37157">
        <ele>115</ele>
        <time>2025-04-12T09:14:25Z</time>
      </trkpt>
      <trkpt lat="43.68076" lon="1.37159">
        <ele>115</ele>
        <time>2025-04-12T09:14:26Z</time>
      </trkpt>
      <trkpt lat="43.68076" lon="1.37161">
        <ele>115</ele>
        <time>2025-04-12T09:14:27Z</time>
      </trkpt>
      <trkpt lat="43.68075" lon="1.37165">
        <ele>115</ele>
        <time>2025-04-12T09:14:28Z</time>
      </trkpt>
      <trkpt lat="43.68074" lon="1.37168">
        <ele>115</ele>
        <time>2025-04-12T09:14:29Z</time>
      </trkpt>
      <trkpt lat="43.68072" lon="1.37169">
        <ele>115</ele>
        <time>2025-04-12T09:14:30Z</time>
      </trkpt>
      <trkpt lat="43.68072" lon="1.37169">
        <ele>115</ele>
        <time>2025-04-12T09:14:31Z</time>
      </trkpt>
      <trkpt lat="43.68069" lon="1.37173">
        <ele>115</ele>
        <time>2025-04-12T09:14:32Z</time>
      </trkpt>
      <trkpt lat="43.68067" lon="1.37175">
        <ele>115</ele>
        <time>2025-04-12T09:14:33Z</time>
      </trkpt>
      <trkpt lat="43.68065" lon="1.37177">
        <ele>115</ele>
        <time>2025-04-12T09:14:34Z</time>
      </trkpt>
      <trkpt lat="43.68063" lon="1.37179">
        <ele>115</ele>
        <time>2025-04-12T09:14:35Z</time>
      </trkpt>
      <trkpt lat="43.68062" lon="1.37181">
        <ele>115</ele>
        <time>2025-04-12T09:14:36Z</time>
      </trkpt>
      <trkpt lat="43.6806" lon="1.37183">
        <ele>115</ele>
        <time>2025-04-12T09:14:37Z</time>
      </trkpt>
      <trkpt lat="43.6806" lon="1.37183">
        <ele>115</ele>
        <time>2025-04-12T09:14:38Z</time>
      </trkpt>
      <trkpt lat="43.68056" lon="1.37186">
        <ele>115</ele>
        <time>2025-04-12T09:14:39Z</time>
      </trkpt>
      <trkpt lat="43.68054" lon="1.37188">
        <ele>115</ele>
        <time>2025-04-12T09:14:40Z</time>
      </trkpt>
      <trkpt lat="43.68052" lon="1.37191">
        <ele>115</ele>
        <time>2025-04-12T09:14:41Z</time>
      </trkpt>
      <trkpt lat="43.68051" lon="1.37194">
        <ele>115</ele>
        <time>2025-04-12T09:14:42Z</time>
      </trkpt>
      <trkpt lat="43.68049" lon="1.37197">
        <ele>115</ele>
        <time>2025-04-12T09:14:43Z</time>
      </trkpt>
      <trkpt lat="43.68047" lon="1.37199">
        <ele>115</ele>
        <time>2025-04-12T09:14:44Z</time>
      </trkpt>
      <trkpt lat="43.68047" lon="1.37199">
        <ele>115</ele>
        <time>2025-04-12T09:14:45Z</time>
      </trkpt>
      <trkpt lat="43.68042" lon="1.37201">
        <ele>115</ele>
        <time>2025-04-12T09:14:46Z</time>
      </trkpt>
      <trkpt lat="43.68042" lon="1.37201">
        <ele>119</ele>
        <time>2025-04-12T09:14:47Z</time>
      </trkpt>
      <trkpt lat="43.68037" lon="1.37205">
        <ele>119</ele>
        <time>2025-04-12T09:14:48Z</time>
      </trkpt>
      <trkpt lat="43.68036" lon="1.37206">
        <ele>119</ele>
        <time>2025-04-12T09:14:49Z</time>
      </trkpt>
      <trkpt lat="43.68036" lon="1.37206">
        <ele>120</ele>
        <time>2025-04-12T09:14:50Z</time>
      </trkpt>
      <trkpt lat="43.68034" lon="1.37211">
        <ele>120</ele>
        <time>2025-04-12T09:14:51Z</time>
      </trkpt>
      <trkpt lat="43.68033" lon="1.37214">
        <ele>120</ele>
        <time>2025-04-12T09:14:52Z</time>
      </trkpt>
      <trkpt lat="43.68031" lon="1.37217">
        <ele>119</ele>
        <time>2025-04-12T09:14:53Z</time>
      </trkpt>
      <trkpt lat="43.68031" lon="1.3722">
        <ele>119</ele>
        <time>2025-04-12T09:14:54Z</time>
      </trkpt>
      <trkpt lat="43.68031" lon="1.3722">
        <ele>119</ele>
        <time>2025-04-12T09:14:55Z</time>
      </trkpt>
      <trkpt lat="43.68028" lon="1.37226">
        <ele>119</ele>
        <time>2025-04-12T09:14:56Z</time>
      </trkpt>
      <trkpt lat="43.68027" lon="1.37229">
        <ele>119</ele>
        <time>2025-04-12T09:14:57Z</time>
      </trkpt>
      <trkpt lat="43.68025" lon="1.37231">
        <ele>119</ele>
        <time>2025-04-12T09:14:58Z</time>
      </trkpt>
      <trkpt lat="43.68023" lon="1.37234">
        <ele>119</ele>
        <time>2025-04-12T09:14:59Z</time>
      </trkpt>
      <trkpt lat="43.68023" lon="1.37234">
        <ele>119</ele>
        <time>2025-04-12T09:15:00Z</time>
      </trkpt>
      <trkpt lat="43.68018" lon="1.37239">
        <ele>119</ele>
        <time>2025-04-12T09:15:01Z</time>
      </trkpt>
      <trkpt lat="43.68015" lon="1.37241">
        <ele>119</ele>
        <time>2025-04-12T09:15:02Z</time>
      </trkpt>
      <trkpt lat="43.68015" lon="1.37241">
        <ele>119</ele>
        <time>2025-04-12T09:15:03Z</time>
      </trkpt>
      <trkpt lat="43.6801" lon="1.37244">
        <ele>119</ele>
        <time>2025-04-12T09:15:04Z</time>
      </trkpt>
      <trkpt lat="43.6801" lon="1.37244">
        <ele>120</ele>
        <time>2025-04-12T09:15:05Z</time>
      </trkpt>
      <trkpt lat="43.68006" lon="1.37246">
        <ele>120</ele>
        <time>2025-04-12T09:15:06Z</time>
      </trkpt>
      <trkpt lat="43.68006" lon="1.37246">
        <ele>120</ele>
        <time>2025-04-12T09:15:07Z</time>
      </trkpt>
      <trkpt lat="43.68002" lon="1.37252">
        <ele>120</ele>
        <time>2025-04-12T09:15:08Z</time>
      </trkpt>
      <trkpt lat="43.68002" lon="1.37253">
        <ele>120</ele>
        <time>2025-04-12T09:15:09Z</time>
      </trkpt>
      <trkpt lat="43.68001" lon="1.37256">
        <ele>120</ele>
        <time>2025-04-12T09:15:10Z</time>
      </trkpt>
      <trkpt lat="43.68001" lon="1.37259">
        <ele>120</ele>
        <time>2025-04-12T09:15:11Z</time>
      </trkpt>
      <trkpt lat="43.68001" lon="1.37259">
        <ele>120</ele>
        <time>2025-04-12T09:15:12Z</time>
      </trkpt>
      <trkpt lat="43.67998" lon="1.37265">
        <ele>120</ele>
        <time>2025-04-12T09:15:13Z</time>
      </trkpt>
      <trkpt lat="43.67996" lon="1.37268">
        <ele>120</ele>
        <time>2025-04-12T09:15:15Z</time>
      </trkpt>
      <trkpt lat="43.67993" lon="1.37271">
        <ele>120</ele>
        <time>2025-04-12T09:15:16Z</time>
      </trkpt>
      <trkpt lat="43.6799" lon="1.37273">
        <ele>119</ele>
        <time>2025-04-12T09:15:17Z</time>
      </trkpt>
      <trkpt lat="43.67987" lon="1.37276">
        <ele>119</ele>
        <time>2025-04-12T09:15:18Z</time>
      </trkpt>
      <trkpt lat="43.67984" lon="1.37276">
        <ele>119</ele>
        <time>2025-04-12T09:15:19Z</time>
      </trkpt>
      <trkpt lat="43.67984" lon="1.37276">
        <ele>119</ele>
        <time>2025-04-12T09:15:20Z</time>
      </trkpt>
      <trkpt lat="43.67978" lon="1.37276">
        <ele>119</ele>
        <time>2025-04-12T09:15:21Z</time>
      </trkpt>
      <trkpt lat="43.67977" lon="1.37275">
        <ele>119</ele>
        <time>2025-04-12T09:15:22Z</time>
      </trkpt>
      <trkpt lat="43.67973" lon="1.37275">
        <ele>119</ele>
        <time>2025-04-12T09:15:23Z</time>
      </trkpt>
      <trkpt lat="43.67969" lon="1.37274">
        <ele>119</ele>
        <time>2025-04-12T09:15:24Z</time>
      </trkpt>
      <trkpt lat="43.67966" lon="1.37272">
        <ele>119</ele>
        <time>2025-04-12T09:15:25Z</time>
      </trkpt>
      <trkpt lat="43.67966" lon="1.37272">
        <ele>119</ele>
        <time>2025-04-12T09:15:26Z</time>
      </trkpt>
      <trkpt lat="43.6796" lon="1.37272">
        <ele>119</ele>
        <time>2025-04-12T09:15:27Z</time>
      </trkpt>
      <trkpt lat="43.67958" lon="1.37272">
        <ele>115</ele>
        <time>2025-04-12T09:15:28Z</time>
      </trkpt>
      <trkpt lat="43.67958" lon="1.37272">
        <ele>115</ele>
        <time>2025-04-12T09:15:29Z</time>
      </trkpt>
      <trkpt lat="43.67955" lon="1.37273">
        <ele>115</ele>
        <time>2025-04-12T09:15:30Z</time>
      </trkpt>
      <trkpt lat="43.67955" lon="1.37273">
        <ele>115</ele>
        <time>2025-04-12T09:15:31Z</time>
      </trkpt>
      <trkpt lat="43.67955" lon="1.37273">
        <ele>115</ele>
        <time>2025-04-12T09:15:32Z</time>
      </trkpt>
      <trkpt lat="43.67953" lon="1.37274">
        <ele>115</ele>
        <time>2025-04-12T09:15:34Z</time>
      </trkpt>
      <trkpt lat="43.67953" lon="1.37274">
        <ele>115</ele>
        <time>2025-04-12T09:15:35Z</time>
      </trkpt>
      <trkpt lat="43.67953" lon="1.37274">
        <ele>115</ele>
        <time>2025-04-12T09:15:36Z</time>
      </trkpt>
      <trkpt lat="43.6795" lon="1.37275">
        <ele>115</ele>
        <time>2025-04-12T09:15:37Z</time>
      </trkpt>
      <trkpt lat="43.6795" lon="1.37275">
        <ele>115</ele>
        <time>2025-04-12T09:15:38Z</time>
      </trkpt>
      <trkpt lat="43.67949" lon="1.37274">
        <ele>115</ele>
        <time>2025-04-12T09:15:39Z</time>
      </trkpt>
      <trkpt lat="43.67947" lon="1.37274">
        <ele>115</ele>
        <time>2025-04-12T09:15:40Z</time>
      </trkpt>
      <trkpt lat="43.67944" lon="1.37273">
        <ele>115</ele>
        <time>2025-04-12T09:15:41Z</time>
      </trkpt>
      <trkpt lat="43.67942" lon="1.37273">
        <ele>115</ele>
        <time>2025-04-12T09:15:42Z</time>
      </trkpt>
      <trkpt lat="43.67939" lon="1.37273">
        <ele>119</ele>
        <time>2025-04-12T09:15:43Z</time>
      </trkpt>
      <trkpt lat="43.67937" lon="1.37273">
        <ele>119</ele>
        <time>2025-04-12T09:15:44Z</time>
      </trkpt>
      <trkpt lat="43.67937" lon="1.37273">
        <ele>119</ele>
        <time>2025-04-12T09:15:45Z</time>
      </trkpt>
      <trkpt lat="43.67937" lon="1.37273">
        <ele>119</ele>
        <time>2025-04-12T09:15:46Z</time>
      </trkpt>
      <trkpt lat="43.67937" lon="1.37273">
        <ele>115</ele>
        <time>2025-04-12T09:15:47Z</time>
      </trkpt>
      <trkpt lat="43.67934" lon="1.37272">
        <ele>115</ele>
        <time>2025-04-12T09:15:48Z</time>
      </trkpt>
      <trkpt lat="43.67934" lon="1.37272">
        <ele>115</ele>
        <time>2025-04-12T09:15:49Z</time>
      </trkpt>
      <trkpt lat="43.67931" lon="1.37272">
        <ele>115</ele>
        <time>2025-04-12T09:15:50Z</time>
      </trkpt>
      <trkpt lat="43.67929" lon="1.37273">
        <ele>115</ele>
        <time>2025-04-12T09:15:51Z</time>
      </trkpt>
      <trkpt lat="43.67929" lon="1.37273">
        <ele>115</ele>
        <time>2025-04-12T09:15:52Z</time>
      </trkpt>
      <trkpt lat="43.67927" lon="1.37274">
        <ele>115</ele>
        <time>2025-04-12T09:15:53Z</time>
      </trkpt>
      <trkpt lat="43.67927" lon="1.37274">
        <ele>115</ele>
        <time>2025-04-12T09:15:54Z</time>
      </trkpt>
      <trkpt lat="43.67924" lon="1.37279">
        <ele>115</ele>
        <time>2025-04-12T09:15:55Z</time>
      </trkpt>
      <trkpt lat="43.67922" lon="1.3728">
        <ele>115</ele>
        <time>2025-04-12T09:15:56Z</time>
      </trkpt>
      <trkpt lat="43.67919" lon="1.3728">
        <ele>115</ele>
        <time>2025-04-12T09:15:57Z</time>
      </trkpt>
      <trkpt lat="43.67916" lon="1.3728">
        <ele>115</ele>
        <time>2025-04-12T09:15:58Z</time>
      </trkpt>
      <trkpt lat="43.67916" lon="1.3728">
        <ele>115</ele>
        <time>2025-04-12T09:15:59Z</time>
      </trkpt>
      <trkpt lat="43.67909" lon="1.37278">
        <ele>115</ele>
        <time>2025-04-12T09:16:00Z</time>
      </trkpt>
      <trkpt lat="43.67909" lon="1.37278">
        <ele>115</ele>
        <time>2025-04-12T09:16:01Z</time>
      </trkpt>
      <trkpt lat="43.67903" lon="1.37277">
        <ele>115</ele>
        <time>2025-04-12T09:16:02Z</time>
      </trkpt>
      <trkpt lat="43.679" lon="1.37276">
        <ele>115</ele>
        <time>2025-04-12T09:16:03Z</time>
      </trkpt>
      <trkpt lat="43.679" lon="1.37276">
        <ele>119</ele>
        <time>2025-04-12T09:16:04Z</time>
      </trkpt>
      <trkpt lat="43.679" lon="1.37276">
        <ele>119</ele>
        <time>2025-04-12T09:16:05Z</time>
      </trkpt>
      <trkpt lat="43.67898" lon="1.37274">
        <ele>119</ele>
        <time>2025-04-12T09:16:06Z</time>
      </trkpt>
      <trkpt lat="43.67898" lon="1.37274">
        <ele>119</ele>
        <time>2025-04-12T09:16:07Z</time>
      </trkpt>
      <trkpt lat="43.67896" lon="1.37271">
        <ele>119</ele>
        <time>2025-04-12T09:16:08Z</time>
      </trkpt>
      <trkpt lat="43.67895" lon="1.37268">
        <ele>119</ele>
        <time>2025-04-12T09:16:09Z</time>
      </trkpt>
      <trkpt lat="43.67894" lon="1.37265">
        <ele>120</ele>
        <time>2025-04-12T09:16:10Z</time>
      </trkpt>
      <trkpt lat="43.67894" lon="1.37265">
        <ele>120</ele>
        <time>2025-04-12T09:16:11Z</time>
      </trkpt>
      <trkpt lat="43.67891" lon="1.37261">
        <ele>120</ele>
        <time>2025-04-12T09:16:12Z</time>
      </trkpt>
      <trkpt lat="43.67889" lon="1.3726">
        <ele>120</ele>
        <time>2025-04-12T09:16:13Z</time>
      </trkpt>
      <trkpt lat="43.67887" lon="1.37259">
        <ele>120</ele>
        <time>2025-04-12T09:16:14Z</time>
      </trkpt>
      <trkpt lat="43.67887" lon="1.37259">
        <ele>120</ele>
        <time>2025-04-12T09:16:15Z</time>
      </trkpt>
      <trkpt lat="43.67886" lon="1.37262">
        <ele>120</ele>
        <time>2025-04-12T09:16:16Z</time>
      </trkpt>
      <trkpt lat="43.67886" lon="1.37262">
        <ele>120</ele>
        <time>2025-04-12T09:16:17Z</time>
      </trkpt>
      <trkpt lat="43.67884" lon="1.37266">
        <ele>120</ele>
        <time>2025-04-12T09:16:18Z</time>
      </trkpt>
      <trkpt lat="43.67883" lon="1.37268">
        <ele>120</ele>
        <time>2025-04-12T09:16:19Z</time>
      </trkpt>
      <trkpt lat="43.67881" lon="1.3727">
        <ele>120</ele>
        <time>2025-04-12T09:16:20Z</time>
      </trkpt>
      <trkpt lat="43.6788" lon="1.37272">
        <ele>120</ele>
        <time>2025-04-12T09:16:21Z</time>
      </trkpt>
      <trkpt lat="43.67879" lon="1.37275">
        <ele>120</ele>
        <time>2025-04-12T09:16:22Z</time>
      </trkpt>
      <trkpt lat="43.67877" lon="1.37277">
        <ele>120</ele>
        <time>2025-04-12T09:16:23Z</time>
      </trkpt>
      <trkpt lat="43.67877" lon="1.37277">
        <ele>120</ele>
        <time>2025-04-12T09:16:24Z</time>
      </trkpt>
      <trkpt lat="43.67877" lon="1.37277">
        <ele>121</ele>
        <time>2025-04-12T09:16:25Z</time>
      </trkpt>
      <trkpt lat="43.67874" lon="1.37283">
        <ele>121</ele>
        <time>2025-04-12T09:16:26Z</time>
      </trkpt>
      <trkpt lat="43.67874" lon="1.37283">
        <ele>121</ele>
        <time>2025-04-12T09:16:27Z</time>
      </trkpt>
      <trkpt lat="43.67872" lon="1.37289">
        <ele>121</ele>
        <time>2025-04-12T09:16:28Z</time>
      </trkpt>
      <trkpt lat="43.6787" lon="1.3729">
        <ele>120</ele>
        <time>2025-04-12T09:16:29Z</time>
      </trkpt>
      <trkpt lat="43.67868" lon="1.3729">
        <ele>121</ele>
        <time>2025-04-12T09:16:30Z</time>
      </trkpt>
      <trkpt lat="43.67865" lon="1.3729">
        <ele>121</ele>
        <time>2025-04-12T09:16:31Z</time>
      </trkpt>
      <trkpt lat="43.67863" lon="1.37291">
        <ele>121</ele>
        <time>2025-04-12T09:16:32Z</time>
      </trkpt>
      <trkpt lat="43.67861" lon="1.37291">
        <ele>120</ele>
        <time>2025-04-12T09:16:33Z</time>
      </trkpt>
      <trkpt lat="43.67859" lon="1.37292">
        <ele>120</ele>
        <time>2025-04-12T09:16:34Z</time>
      </trkpt>
      <trkpt lat="43.67857" lon="1.37294">
        <ele>120</ele>
        <time>2025-04-12T09:16:35Z</time>
      </trkpt>
      <trkpt lat="43.67855" lon="1.37296">
        <ele>120</ele>
        <time>2025-04-12T09:16:36Z</time>
      </trkpt>
      <trkpt lat="43.67853" lon="1.37297">
        <ele>120</ele>
        <time>2025-04-12T09:16:37Z</time>
      </trkpt>
      <trkpt lat="43.67852" lon="1.373">
        <ele>120</ele>
        <time>2025-04-12T09:16:38Z</time>
      </trkpt>
      <trkpt lat="43.6785" lon="1.37303">
        <ele>120</ele>
        <time>2025-04-12T09:16:39Z</time>
      </trkpt>
      <trkpt lat="43.67848" lon="1.37307">
        <ele>120</ele>
        <time>2025-04-12T09:16:40Z</time>
      </trkpt>
      <trkpt lat="43.67846" lon="1.37308">
        <ele>120</ele>
        <time>2025-04-12T09:16:41Z</time>
      </trkpt>
      <trkpt lat="43.67844" lon="1.37308">
        <ele>120</ele>
        <time>2025-04-12T09:16:42Z</time>
      </trkpt>
      <trkpt lat="43.67842" lon="1.37307">
        <ele>121</ele>
        <time>2025-04-12T09:16:43Z</time>
      </trkpt>
      <trkpt lat="43.6784" lon="1.37305">
        <ele>122</ele>
        <time>2025-04-12T09:16:44Z</time>
      </trkpt>
      <trkpt lat="43.67838" lon="1.37303">
        <ele>122</ele>
        <time>2025-04-12T09:16:45Z</time>
      </trkpt>
      <trkpt lat="43.67838" lon="1.37303">
        <ele>121</ele>
        <time>2025-04-12T09:16:46Z</time>
      </trkpt>
      <trkpt lat="43.67831" lon="1.373">
        <ele>121</ele>
        <time>2025-04-12T09:16:47Z</time>
      </trkpt>
      <trkpt lat="43.67828" lon="1.37301">
        <ele>121</ele>
        <time>2025-04-12T09:16:48Z</time>
      </trkpt>
      <trkpt lat="43.67823" lon="1.37302">
        <ele>121</ele>
        <time>2025-04-12T09:16:50Z</time>
      </trkpt>
      <trkpt lat="43.6782" lon="1.37304">
        <ele>121</ele>
        <time>2025-04-12T09:16:51Z</time>
      </trkpt>
      <trkpt lat="43.6782" lon="1.37304">
        <ele>121</ele>
        <time>2025-04-12T09:16:52Z</time>
      </trkpt>
      <trkpt lat="43.67817" lon="1.37308">
        <ele>120</ele>
        <time>2025-04-12T09:16:53Z</time>
      </trkpt>
      <trkpt lat="43.67817" lon="1.37308">
        <ele>119</ele>
        <time>2025-04-12T09:16:54Z</time>
      </trkpt>
      <trkpt lat="43.67815" lon="1.37313">
        <ele>119</ele>
        <time>2025-04-12T09:16:55Z</time>
      </trkpt>
      <trkpt lat="43.67813" lon="1.37315">
        <ele>119</ele>
        <time>2025-04-12T09:16:56Z</time>
      </trkpt>
      <trkpt lat="43.6781" lon="1.37316">
        <ele>119</ele>
        <time>2025-04-12T09:16:57Z</time>
      </trkpt>
      <trkpt lat="43.67808" lon="1.37318">
        <ele>119</ele>
        <time>2025-04-12T09:16:58Z</time>
      </trkpt>
      <trkpt lat="43.67805" lon="1.3732">
        <ele>119</ele>
        <time>2025-04-12T09:16:59Z</time>
      </trkpt>
      <trkpt lat="43.67803" lon="1.37321">
        <ele>119</ele>
        <time>2025-04-12T09:17:00Z</time>
      </trkpt>
      <trkpt lat="43.67801" lon="1.37323">
        <ele>119</ele>
        <time>2025-04-12T09:17:01Z</time>
      </trkpt>
      <trkpt lat="43.67799" lon="1.37325">
        <ele>119</ele>
        <time>2025-04-12T09:17:02Z</time>
      </trkpt>
      <trkpt lat="43.67798" lon="1.37328">
        <ele>119</ele>
        <time>2025-04-12T09:17:03Z</time>
      </trkpt>
      <trkpt lat="43.67797" lon="1.37332">
        <ele>119</ele>
        <time>2025-04-12T09:17:04Z</time>
      </trkpt>
      <trkpt lat="43.67795" lon="1.37334">
        <ele>119</ele>
        <time>2025-04-12T09:17:05Z</time>
      </trkpt>
      <trkpt lat="43.67792" lon="1.37336">
        <ele>119</ele>
        <time>2025-04-12T09:17:06Z</time>
      </trkpt>
      <trkpt lat="43.67789" lon="1.37338">
        <ele>119</ele>
        <time>2025-04-12T09:17:07Z</time>
      </trkpt>
      <trkpt lat="43.67787" lon="1.3734">
        <ele>119</ele>
        <time>2025-04-12T09:17:08Z</time>
      </trkpt>
      <trkpt lat="43.67784" lon="1.37342">
        <ele>119</ele>
        <time>2025-04-12T09:17:09Z</time>
      </trkpt>
      <trkpt lat="43.67782" lon="1.37344">
        <ele>119</ele>
        <time>2025-04-12T09:17:10Z</time>
      </trkpt>
      <trkpt lat="43.6778" lon="1.37346">
        <ele>119</ele>
        <time>2025-04-12T09:17:11Z</time>
      </trkpt>
      <trkpt lat="43.67777" lon="1.37346">
        <ele>119</ele>
        <time>2025-04-12T09:17:12Z</time>
      </trkpt>
      <trkpt lat="43.67774" lon="1.37346">
        <ele>120</ele>
        <time>2025-04-12T09:17:13Z</time>
      </trkpt>
      <trkpt lat="43.67772" lon="1.37348">
        <ele>120</ele>
        <time>2025-04-12T09:17:14Z</time>
      </trkpt>
      <trkpt lat="43.67769" lon="1.3735">
        <ele>120</ele>
        <time>2025-04-12T09:17:15Z</time>
      </trkpt>
      <trkpt lat="43.67767" lon="1.37353">
        <ele>120</ele>
        <time>2025-04-12T09:17:16Z</time>
      </trkpt>
      <trkpt lat="43.67766" lon="1.37355">
        <ele>120</ele>
        <time>2025-04-12T09:17:17Z</time>
      </trkpt>
      <trkpt lat="43.67764" lon="1.37359">
        <ele>120</ele>
        <time>2025-04-12T09:17:18Z</time>
      </trkpt>
      <trkpt lat="43.67764" lon="1.37359">
        <ele>119</ele>
        <time>2025-04-12T09:17:19Z</time>
      </trkpt>
      <trkpt lat="43.67762" lon="1.37364">
        <ele>119</ele>
        <time>2025-04-12T09:17:20Z</time>
      </trkpt>
      <trkpt lat="43.6776" lon="1.37366">
        <ele>119</ele>
        <time>2025-04-12T09:17:21Z</time>
      </trkpt>
      <trkpt lat="43.6776" lon="1.37366">
        <ele>119</ele>
        <time>2025-04-12T09:17:22Z</time>
      </trkpt>
      <trkpt lat="43.67756" lon="1.37368">
        <ele>119</ele>
        <time>2025-04-12T09:17:23Z</time>
      </trkpt>
      <trkpt lat="43.67756" lon="1.37368">
        <ele>119</ele>
        <time>2025-04-12T09:17:24Z</time>
      </trkpt>
      <trkpt lat="43.67753" lon="1.37372">
        <ele>119</ele>
        <time>2025-04-12T09:17:25Z</time>
      </trkpt>
      <trkpt lat="43.67753" lon="1.37372">
        <ele>119</ele>
        <time>2025-04-12T09:17:26Z</time>
      </trkpt>
      <trkpt lat="43.67753" lon="1.37375">
        <ele>119</ele>
        <time>2025-04-12T09:17:27Z</time>
      </trkpt>
      <trkpt lat="43.67748" lon="1.37379">
        <ele>119</ele>
        <time>2025-04-12T09:17:28Z</time>
      </trkpt>
      <trkpt lat="43.67745" lon="1.3738">
        <ele>119</ele>
        <time>2025-04-12T09:17:29Z</time>
      </trkpt>
      <trkpt lat="43.67743" lon="1.37382">
        <ele>119</ele>
        <time>2025-04-12T09:17:30Z</time>
      </trkpt>
      <trkpt lat="43.67741" lon="1.37383">
        <ele>120</ele>
        <time>2025-04-12T09:17:31Z</time>
      </trkpt>
      <trkpt lat="43.67739" lon="1.37385">
        <ele>120</ele>
        <time>2025-04-12T09:17:32Z</time>
      </trkpt>
      <trkpt lat="43.67736" lon="1.37385">
        <ele>120</ele>
        <time>2025-04-12T09:17:33Z</time>
      </trkpt>
      <trkpt lat="43.67736" lon="1.37385">
        <ele>120</ele>
        <time>2025-04-12T09:17:34Z</time>
      </trkpt>
      <trkpt lat="43.6773" lon="1.37384">
        <ele>119</ele>
        <time>2025-04-12T09:17:35Z</time>
      </trkpt>
      <trkpt lat="43.6773" lon="1.37384">
        <ele>119</ele>
        <time>2025-04-12T09:17:36Z</time>
      </trkpt>
      <trkpt lat="43.67724" lon="1.37385">
        <ele>119</ele>
        <time>2025-04-12T09:17:37Z</time>
      </trkpt>
      <trkpt lat="43.67721" lon="1.37385">
        <ele>119</ele>
        <time>2025-04-12T09:17:38Z</time>
      </trkpt>
      <trkpt lat="43.67718" lon="1.37385">
        <ele>119</ele>
        <time>2025-04-12T09:17:39Z</time>
      </trkpt>
      <trkpt lat="43.67715" lon="1.37386">
        <ele>119</ele>
        <time>2025-04-12T09:17:40Z</time>
      </trkpt>
      <trkpt lat="43.67715" lon="1.37386">
        <ele>115</ele>
        <time>2025-04-12T09:17:41Z</time>
      </trkpt>
      <trkpt lat="43.67711" lon="1.37389">
        <ele>115</ele>
        <time>2025-04-12T09:17:42Z</time>
      </trkpt>
      <trkpt lat="43.67711" lon="1.37389">
        <ele>115</ele>
        <time>2025-04-12T09:17:43Z</time>
      </trkpt>
      <trkpt lat="43.6771" lon="1.37391">
        <ele>115</ele>
        <time>2025-04-12T09:17:44Z</time>
      </trkpt>
      <trkpt lat="43.67709" lon="1.37394">
        <ele>115</ele>
        <time>2025-04-12T09:17:45Z</time>
      </trkpt>
      <trkpt lat="43.67708" lon="1.37396">
        <ele>115</ele>
        <time>2025-04-12T09:17:46Z</time>
      </trkpt>
      <trkpt lat="43.67707" lon="1.37398">
        <ele>119</ele>
        <time>2025-04-12T09:17:47Z</time>
      </trkpt>
      <trkpt lat="43.67707" lon="1.37398">
        <ele>119</ele>
        <time>2025-04-12T09:17:48Z</time>
      </trkpt>
      <trkpt lat="43.67706" lon="1.37402">
        <ele>119</ele>
        <time>2025-04-12T09:17:49Z</time>
      </trkpt>
      <trkpt lat="43.67704" lon="1.37405">
        <ele>119</ele>
        <time>2025-04-12T09:17:50Z</time>
      </trkpt>
      <trkpt lat="43.67704" lon="1.37405">
        <ele>119</ele>
        <time>2025-04-12T09:17:51Z</time>
      </trkpt>
      <trkpt lat="43.67702" lon="1.37407">
        <ele>119</ele>
        <time>2025-04-12T09:17:52Z</time>
      </trkpt>
      <trkpt lat="43.67702" lon="1.37407">
        <ele>119</ele>
        <time>2025-04-12T09:17:53Z</time>
      </trkpt>
      <trkpt lat="43.67699" lon="1.37408">
        <ele>120</ele>
        <time>2025-04-12T09:17:54Z</time>
      </trkpt>
      <trkpt lat="43.67699" lon="1.37408">
        <ele>120</ele>
        <time>2025-04-12T09:17:55Z</time>
      </trkpt>
      <trkpt lat="43.67696" lon="1.37411">
        <ele>120</ele>
        <time>2025-04-12T09:17:56Z</time>
      </trkpt>
      <trkpt lat="43.67696" lon="1.37411">
        <ele>121</ele>
        <time>2025-04-12T09:17:57Z</time>
      </trkpt>
      <trkpt lat="43.67695" lon="1.37415">
        <ele>121</ele>
        <time>2025-04-12T09:17:58Z</time>
      </trkpt>
      <trkpt lat="43.67693" lon="1.37418">
        <ele>121</ele>
        <time>2025-04-12T09:17:59Z</time>
      </trkpt>
      <trkpt lat="43.67693" lon="1.37418">
        <ele>121</ele>
        <time>2025-04-12T09:18:00Z</time>
      </trkpt>
      <trkpt lat="43.67689" lon="1.37421">
        <ele>121</ele>
        <time>2025-04-12T09:18:01Z</time>
      </trkpt>
      <trkpt lat="43.67689" lon="1.37421">
        <ele>120</ele>
        <time>2025-04-12T09:18:02Z</time>
      </trkpt>
      <trkpt lat="43.67687" lon="1.37426">
        <ele>121</ele>
        <time>2025-04-12T09:18:03Z</time>
      </trkpt>
      <trkpt lat="43.67686" lon="1.3743">
        <ele>121</ele>
        <time>2025-04-12T09:18:04Z</time>
      </trkpt>
      <trkpt lat="43.67687" lon="1.37434">
        <ele>121</ele>
        <time>2025-04-12T09:18:05Z</time>
      </trkpt>
      <trkpt lat="43.67687" lon="1.37437">
        <ele>121</ele>
        <time>2025-04-12T09:18:06Z</time>
      </trkpt>
      <trkpt lat="43.67686" lon="1.3744">
        <ele>121</ele>
        <time>2025-04-12T09:18:07Z</time>
      </trkpt>
      <trkpt lat="43.67684" lon="1.37443">
        <ele>121</ele>
        <time>2025-04-12T09:18:08Z</time>
      </trkpt>
      <trkpt lat="43.67682" lon="1.37446">
        <ele>120</ele>
        <time>2025-04-12T09:18:09Z</time>
      </trkpt>
      <trkpt lat="43.67682" lon="1.37446">
        <ele>120</ele>
        <time>2025-04-12T09:18:10Z</time>
      </trkpt>
      <trkpt lat="43.67678" lon="1.37449">
        <ele>120</ele>
        <time>2025-04-12T09:18:11Z</time>
      </trkpt>
      <trkpt lat="43.67676" lon="1.37449">
        <ele>121</ele>
        <time>2025-04-12T09:18:12Z</time>
      </trkpt>
      <trkpt lat="43.67674" lon="1.3745">
        <ele>121</ele>
        <time>2025-04-12T09:18:13Z</time>
      </trkpt>
      <trkpt lat="43.67672" lon="1.3745">
        <ele>120</ele>
        <time>2025-04-12T09:18:14Z</time>
      </trkpt>
      <trkpt lat="43.67669" lon="1.3745">
        <ele>120</ele>
        <time>2025-04-12T09:18:15Z</time>
      </trkpt>
      <trkpt lat="43.67666" lon="1.37451">
        <ele>120</ele>
        <time>2025-04-12T09:18:16Z</time>
      </trkpt>
      <trkpt lat="43.67664" lon="1.37452">
        <ele>120</ele>
        <time>2025-04-12T09:18:17Z</time>
      </trkpt>
      <trkpt lat="43.67662" lon="1.37453">
        <ele>120</ele>
        <time>2025-04-12T09:18:18Z</time>
      </trkpt>
      <trkpt lat="43.67659" lon="1.37454">
        <ele>120</ele>
        <time>2025-04-12T09:18:19Z</time>
      </trkpt>
      <trkpt lat="43.67659" lon="1.37454">
        <ele>120</ele>
        <time>2025-04-12T09:18:20Z</time>
      </trkpt>
      <trkpt lat="43.67655" lon="1.37459">
        <ele>120</ele>
        <time>2025-04-12T09:18:21Z</time>
      </trkpt>
      <trkpt lat="43.67653" lon="1.37461">
        <ele>120</ele>
        <time>2025-04-12T09:18:22Z</time>
      </trkpt>
      <trkpt lat="43.67652" lon="1.37464">
        <ele>120</ele>
        <time>2025-04-12T09:18:23Z</time>
      </trkpt>
      <trkpt lat="43.67652" lon="1.37464">
        <ele>120</ele>
        <time>2025-04-12T09:18:24Z</time>
      </trkpt>
      <trkpt lat="43.67647" lon="1.37469">
        <ele>121</ele>
        <time>2025-04-12T09:18:25Z</time>
      </trkpt>
      <trkpt lat="43.67647" lon="1.37469">
        <ele>121</ele>
        <time>2025-04-12T09:18:26Z</time>
      </trkpt>
      <trkpt lat="43.67642" lon="1.37468">
        <ele>121</ele>
        <time>2025-04-12T09:18:27Z</time>
      </trkpt>
      <trkpt lat="43.6764" lon="1.37467">
        <ele>121</ele>
        <time>2025-04-12T09:18:28Z</time>
      </trkpt>
      <trkpt lat="43.67638" lon="1.37466">
        <ele>121</ele>
        <time>2025-04-12T09:18:29Z</time>
      </trkpt>
      <trkpt lat="43.67636" lon="1.37465">
        <ele>121</ele>
        <time>2025-04-12T09:18:30Z</time>
      </trkpt>
      <trkpt lat="43.67634" lon="1.37465">
        <ele>121</ele>
        <time>2025-04-12T09:18:31Z</time>
      </trkpt>
      <trkpt lat="43.67632" lon="1.37465">
        <ele>120</ele>
        <time>2025-04-12T09:18:32Z</time>
      </trkpt>
      <trkpt lat="43.6763" lon="1.37466">
        <ele>120</ele>
        <time>2025-04-12T09:18:33Z</time>
      </trkpt>
      <trkpt lat="43.6763" lon="1.37466">
        <ele>120</ele>
        <time>2025-04-12T09:18:34Z</time>
      </trkpt>
      <trkpt lat="43.67628" lon="1.37468">
        <ele>120</ele>
        <time>2025-04-12T09:18:35Z</time>
      </trkpt>
      <trkpt lat="43.67628" lon="1.37468">
        <ele>119</ele>
        <time>2025-04-12T09:18:36Z</time>
      </trkpt>
      <trkpt lat="43.67628" lon="1.37468">
        <ele>115</ele>
        <time>2025-04-12T09:18:37Z</time>
      </trkpt>
      <trkpt lat="43.67627" lon="1.37472">
        <ele>115</ele>
        <time>2025-04-12T09:18:38Z</time>
      </trkpt>
      <trkpt lat="43.67626" lon="1.37475">
        <ele>115</ele>
        <time>2025-04-12T09:18:39Z</time>
      </trkpt>
      <trkpt lat="43.67626" lon="1.37475">
        <ele>115</ele>
        <time>2025-04-12T09:18:40Z</time>
      </trkpt>
      <trkpt lat="43.67624" lon="1.37478">
        <ele>115</ele>
        <time>2025-04-12T09:18:41Z</time>
      </trkpt>
      <trkpt lat="43.67624" lon="1.37478">
        <ele>115</ele>
        <time>2025-04-12T09:18:42Z</time>
      </trkpt>
      <trkpt lat="43.67621" lon="1.37481">
        <ele>119</ele>
        <time>2025-04-12T09:18:43Z</time>
      </trkpt>
      <trkpt lat="43.67621" lon="1.37481">
        <ele>119</ele>
        <time>2025-04-12T09:18:44Z</time>
      </trkpt>
      <trkpt lat="43.67619" lon="1.37482">
        <ele>119</ele>
        <time>2025-04-12T09:18:45Z</time>
      </trkpt>
      <trkpt lat="43.67617" lon="1.37482">
        <ele>120</ele>
        <time>2025-04-12T09:18:46Z</time>
      </trkpt>
      <trkpt lat="43.67617" lon="1.37482">
        <ele>120</ele>
        <time>2025-04-12T09:18:47Z</time>
      </trkpt>
      <trkpt lat="43.67614" lon="1.3748">
        <ele>120</ele>
        <time>2025-04-12T09:18:48Z</time>
      </trkpt>
      <trkpt lat="43.67614" lon="1.3748">
        <ele>120</ele>
        <time>2025-04-12T09:18:49Z</time>
      </trkpt>
      <trkpt lat="43.67611" lon="1.37481">
        <ele>119</ele>
        <time>2025-04-12T09:18:50Z</time>
      </trkpt>
      <trkpt lat="43.67611" lon="1.37481">
        <ele>119</ele>
        <time>2025-04-12T09:18:51Z</time>
      </trkpt>
      <trkpt lat="43.67608" lon="1.37483">
        <ele>119</ele>
        <time>2025-04-12T09:18:52Z</time>
      </trkpt>
      <trkpt lat="43.67605" lon="1.37484">
        <ele>119</ele>
        <time>2025-04-12T09:18:53Z</time>
      </trkpt>
      <trkpt lat="43.67603" lon="1.37485">
        <ele>119</ele>
        <time>2025-04-12T09:18:54Z</time>
      </trkpt>
      <trkpt lat="43.67601" lon="1.37486">
        <ele>119</ele>
        <time>2025-04-12T09:18:55Z</time>
      </trkpt>
      <trkpt lat="43.67601" lon="1.37486">
        <ele>119</ele>
        <time>2025-04-12T09:18:56Z</time>
      </trkpt>
      <trkpt lat="43.67598" lon="1.37488">
        <ele>119</ele>
        <time>2025-04-12T09:18:57Z</time>
      </trkpt>
      <trkpt lat="43.67598" lon="1.37488">
        <ele>115</ele>
        <time>2025-04-12T09:18:58Z</time>
      </trkpt>
      <trkpt lat="43.67595" lon="1.37489">
        <ele>115</ele>
        <time>2025-04-12T09:18:59Z</time>
      </trkpt>
      <trkpt lat="43.67591" lon="1.37492">
        <ele>115</ele>
        <time>2025-04-12T09:19:00Z</time>
      </trkpt>
      <trkpt lat="43.67589" lon="1.37495">
        <ele>115</ele>
        <time>2025-04-12T09:19:01Z</time>
      </trkpt>
      <trkpt lat="43.67587" lon="1.37498">
        <ele>115</ele>
        <time>2025-04-12T09:19:02Z</time>
      </trkpt>
      <trkpt lat="43.67584" lon="1.375">
        <ele>119</ele>
        <time>2025-04-12T09:19:03Z</time>
      </trkpt>
      <trkpt lat="43.67581" lon="1.37502">
        <ele>119</ele>
        <time>2025-04-12T09:19:04Z</time>
      </trkpt>
      <trkpt lat="43.67578" lon="1.37503">
        <ele>119</ele>
        <time>2025-04-12T09:19:05Z</time>
      </trkpt>
      <trkpt lat="43.67574" lon="1.37505">
        <ele>115</ele>
        <time>2025-04-12T09:19:06Z</time>
      </trkpt>
      <trkpt lat="43.67571" lon="1.37506">
        <ele>115</ele>
        <time>2025-04-12T09:19:07Z</time>
      </trkpt>
      <trkpt lat="43.67568" lon="1.37508">
        <ele>115</ele>
        <time>2025-04-12T09:19:08Z</time>
      </trkpt>
      <trkpt lat="43.67568" lon="1.37508">
        <ele>115</ele>
        <time>2025-04-12T09:19:09Z</time>
      </trkpt>
      <trkpt lat="43.67565" lon="1.37513">
        <ele>115</ele>
        <time>2025-04-12T09:19:10Z</time>
      </trkpt>
      <trkpt lat="43.67565" lon="1.37513">
        <ele>115</ele>
        <time>2025-04-12T09:19:11Z</time>
      </trkpt>
      <trkpt lat="43.67563" lon="1.37518">
        <ele>115</ele>
        <time>2025-04-12T09:19:12Z</time>
      </trkpt>
      <trkpt lat="43.67561" lon="1.3752">
        <ele>115</ele>
        <time>2025-04-12T09:19:13Z</time>
      </trkpt>
      <trkpt lat="43.6756" lon="1.37522">
        <ele>115</ele>
        <time>2025-04-12T09:19:14Z</time>
      </trkpt>
      <trkpt lat="43.67559" lon="1.37525">
        <ele>115</ele>
        <time>2025-04-12T09:19:15Z</time>
      </trkpt>
      <trkpt lat="43.67559" lon="1.37525">
        <ele>115</ele>
        <time>2025-04-12T09:19:16Z</time>
      </trkpt>
      <trkpt lat="43.67555" lon="1.37529">
        <ele>115</ele>
        <time>2025-04-12T09:19:17Z</time>
      </trkpt>
      <trkpt lat="43.67552" lon="1.37531">
        <ele>115</ele>
        <time>2025-04-12T09:19:18Z</time>
      </trkpt>
      <trkpt lat="43.6755" lon="1.37533">
        <ele>119</ele>
        <time>2025-04-12T09:19:19Z</time>
      </trkpt>
      <trkpt lat="43.67547" lon="1.37535">
        <ele>119</ele>
        <time>2025-04-12T09:19:20Z</time>
      </trkpt>
      <trkpt lat="43.67547" lon="1.37535">
        <ele>119</ele>
        <time>2025-04-12T09:19:21Z</time>
      </trkpt>
      <trkpt lat="43.67541" lon="1.37537">
        <ele>119</ele>
        <time>2025-04-12T09:19:22Z</time>
      </trkpt>
      <trkpt lat="43.67539" lon="1.37538">
        <ele>119</ele>
        <time>2025-04-12T09:19:23Z</time>
      </trkpt>
      <trkpt lat="43.67536" lon="1.37539">
        <ele>119</ele>
        <time>2025-04-12T09:19:24Z</time>
      </trkpt>
      <trkpt lat="43.67534" lon="1.3754">
        <ele>119</ele>
        <time>2025-04-12T09:19:25Z</time>
      </trkpt>
      <trkpt lat="43.67532" lon="1.37542">
        <ele>119</ele>
        <time>2025-04-12T09:19:26Z</time>
      </trkpt>
      <trkpt lat="43.6753" lon="1.37543">
        <ele>119</ele>
        <time>2025-04-12T09:19:27Z</time>
      </trkpt>
      <trkpt lat="43.67528" lon="1.37544">
        <ele>119</ele>
        <time>2025-04-12T09:19:28Z</time>
      </trkpt>
      <trkpt lat="43.67526" lon="1.37546">
        <ele>119</ele>
        <time>2025-04-12T09:19:29Z</time>
      </trkpt>
      <trkpt lat="43.67523" lon="1.37547">
        <ele>119</ele>
        <time>2025-04-12T09:19:30Z</time>
      </trkpt>
      <trkpt lat="43.67521" lon="1.37549">
        <ele>119</ele>
        <time>2025-04-12T09:19:31Z</time>
      </trkpt>
      <trkpt lat="43.6752" lon="1.37551">
        <ele>119</ele>
        <time>2025-04-12T09:19:32Z</time>
      </trkpt>
      <trkpt lat="43.67518" lon="1.37553">
        <ele>115</ele>
        <time>2025-04-12T09:19:33Z</time>
      </trkpt>
      <trkpt lat="43.67518" lon="1.37553">
        <ele>115</ele>
        <time>2025-04-12T09:19:34Z</time>
      </trkpt>
      <trkpt lat="43.67515" lon="1.37556">
        <ele>115</ele>
        <time>2025-04-12T09:19:35Z</time>
      </trkpt>
      <trkpt lat="43.67513" lon="1.37558">
        <ele>115</ele>
        <time>2025-04-12T09:19:36Z</time>
      </trkpt>
      <trkpt lat="43.67511" lon="1.3756">
        <ele>115</ele>
        <time>2025-04-12T09:19:37Z</time>
      </trkpt>
      <trkpt lat="43.67509" lon="1.37562">
        <ele>115</ele>
        <time>2025-04-12T09:19:38Z</time>
      </trkpt>
      <trkpt lat="43.67509" lon="1.37562">
        <ele>115</ele>
        <time>2025-04-12T09:19:39Z</time>
      </trkpt>
      <trkpt lat="43.67507" lon="1.37564">
        <ele>115</ele>
        <time>2025-04-12T09:19:40Z</time>
      </trkpt>
      <trkpt lat="43.67503" lon="1.37569">
        <ele>115</ele>
        <time>2025-04-12T09:19:41Z</time>
      </trkpt>
      <trkpt lat="43.67503" lon="1.37569">
        <ele>115</ele>
        <time>2025-04-12T09:19:42Z</time>
      </trkpt>
      <trkpt lat="43.675" lon="1.37573">
        <ele>115</ele>
        <time>2025-04-12T09:19:43Z</time>
      </trkpt>
      <trkpt lat="43.67498" lon="1.37576">
        <ele>115</ele>
        <time>2025-04-12T09:19:44Z</time>
      </trkpt>
      <trkpt lat="43.67498" lon="1.37579">
        <ele>115</ele>
        <time>2025-04-12T09:19:45Z</time>
      </trkpt>
      <trkpt lat="43.67496" lon="1.37581">
        <ele>115</ele>
        <time>2025-04-12T09:19:46Z</time>
      </trkpt>
      <trkpt lat="43.67496" lon="1.37581">
        <ele>119</ele>
        <time>2025-04-12T09:19:47Z</time>
      </trkpt>
      <trkpt lat="43.6749" lon="1.37584">
        <ele>119</ele>
        <time>2025-04-12T09:19:48Z</time>
      </trkpt>
      <trkpt lat="43.6749" lon="1.37584">
        <ele>119</ele>
        <time>2025-04-12T09:19:49Z</time>
      </trkpt>
      <trkpt lat="43.67485" lon="1.37587">
        <ele>119</ele>
        <time>2025-04-12T09:19:50Z</time>
      </trkpt>
      <trkpt lat="43.67485" lon="1.37587">
        <ele>119</ele>
        <time>2025-04-12T09:19:51Z</time>
      </trkpt>
      <trkpt lat="43.6748" lon="1.37591">
        <ele>119</ele>
        <time>2025-04-12T09:19:52Z</time>
      </trkpt>
      <trkpt lat="43.67477" lon="1.37594">
        <ele>119</ele>
        <time>2025-04-12T09:19:53Z</time>
      </trkpt>
      <trkpt lat="43.67475" lon="1.37596">
        <ele>119</ele>
        <time>2025-04-12T09:19:54Z</time>
      </trkpt>
      <trkpt lat="43.67473" lon="1.37599">
        <ele>119</ele>
        <time>2025-04-12T09:19:55Z</time>
      </trkpt>
      <trkpt lat="43.6747" lon="1.37601">
        <ele>119</ele>
        <time>2025-04-12T09:19:56Z</time>
      </trkpt>
      <trkpt lat="43.67469" lon="1.37604">
        <ele>119</ele>
        <time>2025-04-12T09:19:57Z</time>
      </trkpt>
      <trkpt lat="43.67466" lon="1.37607">
        <ele>119</ele>
        <time>2025-04-12T09:19:58Z</time>
      </trkpt>
      <trkpt lat="43.67466" lon="1.37607">
        <ele>119</ele>
        <time>2025-04-12T09:19:59Z</time>
      </trkpt>
      <trkpt lat="43.67461" lon="1.37608">
        <ele>119</ele>
        <time>2025-04-12T09:20:00Z</time>
      </trkpt>
      <trkpt lat="43.67458" lon="1.3761">
        <ele>119</ele>
        <time>2025-04-12T09:20:01Z</time>
      </trkpt>
      <trkpt lat="43.67455" lon="1.37611">
        <ele>119</ele>
        <time>2025-04-12T09:20:02Z</time>
      </trkpt>
      <trkpt lat="43.67454" lon="1.37613">
        <ele>115</ele>
        <time>2025-04-12T09:20:03Z</time>
      </trkpt>
      <trkpt lat="43.67452" lon="1.37616">
        <ele>115</ele>
        <time>2025-04-12T09:20:04Z</time>
      </trkpt>
      <trkpt lat="43.6745" lon="1.37619">
        <ele>115</ele>
        <time>2025-04-12T09:20:05Z</time>
      </trkpt>
      <trkpt lat="43.67448" lon="1.37622">
        <ele>115</ele>
        <time>2025-04-12T09:20:06Z</time>
      </trkpt>
      <trkpt lat="43.67445" lon="1.37624">
        <ele>115</ele>
        <time>2025-04-12T09:20:07Z</time>
      </trkpt>
      <trkpt lat="43.67444" lon="1.37628">
        <ele>115</ele>
        <time>2025-04-12T09:20:08Z</time>
      </trkpt>
      <trkpt lat="43.67441" lon="1.37631">
        <ele>115</ele>
        <time>2025-04-12T09:20:09Z</time>
      </trkpt>
      <trkpt lat="43.67439" lon="1.37634">
        <ele>115</ele>
        <time>2025-04-12T09:20:10Z</time>
      </trkpt>
      <trkpt lat="43.67437" lon="1.37637">
        <ele>115</ele>
        <time>2025-04-12T09:20:11Z</time>
      </trkpt>
      <trkpt lat="43.67435" lon="1.37639">
        <ele>115</ele>
        <time>2025-04-12T09:20:12Z</time>
      </trkpt>
      <trkpt lat="43.67435" lon="1.37639">
        <ele>115</ele>
        <time>2025-04-12T09:20:13Z</time>
      </trkpt>
      <trkpt lat="43.67431" lon="1.37645">
        <ele>115</ele>
        <time>2025-04-12T09:20:14Z</time>
      </trkpt>
      <trkpt lat="43.67429" lon="1.37646">
        <ele>115</ele>
        <time>2025-04-12T09:20:15Z</time>
      </trkpt>
      <trkpt lat="43.67427" lon="1.37648">
        <ele>115</ele>
        <time>2025-04-12T09:20:16Z</time>
      </trkpt>
      <trkpt lat="43.67425" lon="1.37649">
        <ele>115</ele>
        <time>2025-04-12T09:20:17Z</time>
      </trkpt>
      <trkpt lat="43.67423" lon="1.37651">
        <ele>115</ele>
        <time>2025-04-12T09:20:18Z</time>
      </trkpt>
      <trkpt lat="43.6742" lon="1.37653">
        <ele>115</ele>
        <time>2025-04-12T09:20:19Z</time>
      </trkpt>
      <trkpt lat="43.67418" lon="1.37655">
        <ele>115</ele>
        <time>2025-04-12T09:20:20Z</time>
      </trkpt>
      <trkpt lat="43.67415" lon="1.37656">
        <ele>115</ele>
        <time>2025-04-12T09:20:21Z</time>
      </trkpt>
      <trkpt lat="43.67413" lon="1.37657">
        <ele>115</ele>
        <time>2025-04-12T09:20:22Z</time>
      </trkpt>
      <trkpt lat="43.6741" lon="1.37657">
        <ele>115</ele>
        <time>2025-04-12T09:20:23Z</time>
      </trkpt>
      <trkpt lat="43.67407" lon="1.3766">
        <ele>115</ele>
        <time>2025-04-12T09:20:24Z</time>
      </trkpt>
      <trkpt lat="43.67406" lon="1.37663">
        <ele>115</ele>
        <time>2025-04-12T09:20:25Z</time>
      </trkpt>
      <trkpt lat="43.67406" lon="1.37663">
        <ele>115</ele>
        <time>2025-04-12T09:20:26Z</time>
      </trkpt>
      <trkpt lat="43.67403" lon="1.3767">
        <ele>115</ele>
        <time>2025-04-12T09:20:27Z</time>
      </trkpt>
      <trkpt lat="43.67403" lon="1.3767">
        <ele>115</ele>
        <time>2025-04-12T09:20:28Z</time>
      </trkpt>
      <trkpt lat="43.67399" lon="1.37674">
        <ele>115</ele>
        <time>2025-04-12T09:20:29Z</time>
      </trkpt>
      <trkpt lat="43.67396" lon="1.37676">
        <ele>119</ele>
        <time>2025-04-12T09:20:30Z</time>
      </trkpt>
      <trkpt lat="43.67395" lon="1.37679">
        <ele>119</ele>
        <time>2025-04-12T09:20:31Z</time>
      </trkpt>
      <trkpt lat="43.67391" lon="1.37683">
        <ele>119</ele>
        <time>2025-04-12T09:20:33Z</time>
      </trkpt>
      <trkpt lat="43.67389" lon="1.37686">
        <ele>119</ele>
        <time>2025-04-12T09:20:34Z</time>
      </trkpt>
      <trkpt lat="43.67388" lon="1.37689">
        <ele>119</ele>
        <time>2025-04-12T09:20:35Z</time>
      </trkpt>
      <trkpt lat="43.67386" lon="1.37693">
        <ele>115</ele>
        <time>2025-04-12T09:20:36Z</time>
      </trkpt>
      <trkpt lat="43.67386" lon="1.37693">
        <ele>115</ele>
        <time>2025-04-12T09:20:37Z</time>
      </trkpt>
      <trkpt lat="43.67383" lon="1.37697">
        <ele>115</ele>
        <time>2025-04-12T09:20:38Z</time>
      </trkpt>
      <trkpt lat="43.67381" lon="1.37699">
        <ele>115</ele>
        <time>2025-04-12T09:20:39Z</time>
      </trkpt>
      <trkpt lat="43.67379" lon="1.377">
        <ele>115</ele>
        <time>2025-04-12T09:20:40Z</time>
      </trkpt>
      <trkpt lat="43.67377" lon="1.37701">
        <ele>115</ele>
        <time>2025-04-12T09:20:41Z</time>
      </trkpt>
      <trkpt lat="43.67374" lon="1.37703">
        <ele>115</ele>
        <time>2025-04-12T09:20:42Z</time>
      </trkpt>
      <trkpt lat="43.67372" lon="1.37705">
        <ele>115</ele>
        <time>2025-04-12T09:20:43Z</time>
      </trkpt>
      <trkpt lat="43.67369" lon="1.37706">
        <ele>115</ele>
        <time>2025-04-12T09:20:44Z</time>
      </trkpt>
      <trkpt lat="43.67367" lon="1.37707">
        <ele>115</ele>
        <time>2025-04-12T09:20:45Z</time>
      </trkpt>
      <trkpt lat="43.67364" lon="1.37708">
        <ele>119</ele>
        <time>2025-04-12T09:20:46Z</time>
      </trkpt>
      <trkpt lat="43.67364" lon="1.37708">
        <ele>119</ele>
        <time>2025-04-12T09:20:47Z</time>
      </trkpt>
      <trkpt lat="43.6736" lon="1.37712">
        <ele>115</ele>
        <time>2025-04-12T09:20:48Z</time>
      </trkpt>
      <trkpt lat="43.6736" lon="1.37712">
        <ele>115</ele>
        <time>2025-04-12T09:20:49Z</time>
      </trkpt>
      <trkpt lat="43.67356" lon="1.37715">
        <ele>115</ele>
        <time>2025-04-12T09:20:50Z</time>
      </trkpt>
      <trkpt lat="43.67356" lon="1.37715">
        <ele>115</ele>
        <time>2025-04-12T09:20:51Z</time>
      </trkpt>
      <trkpt lat="43.67355" lon="1.37716">
        <ele>115</ele>
        <time>2025-04-12T09:20:52Z</time>
      </trkpt>
      <trkpt lat="43.67351" lon="1.3772">
        <ele>115</ele>
        <time>2025-04-12T09:20:53Z</time>
      </trkpt>
      <trkpt lat="43.67349" lon="1.37722">
        <ele>115</ele>
        <time>2025-04-12T09:20:54Z</time>
      </trkpt>
      <trkpt lat="43.67347" lon="1.37724">
        <ele>115</ele>
        <time>2025-04-12T09:20:55Z</time>
      </trkpt>
      <trkpt lat="43.67345" lon="1.37727">
        <ele>115</ele>
        <time>2025-04-12T09:20:56Z</time>
      </trkpt>
      <trkpt lat="43.67345" lon="1.3773">
        <ele>116</ele>
        <time>2025-04-12T09:20:57Z</time>
      </trkpt>
      <trkpt lat="43.67345" lon="1.3773">
        <ele>116</ele>
        <time>2025-04-12T09:20:58Z</time>
      </trkpt>
      <trkpt lat="43.67343" lon="1.37736">
        <ele>115</ele>
        <time>2025-04-12T09:20:59Z</time>
      </trkpt>
      <trkpt lat="43.67341" lon="1.37738">
        <ele>115</ele>
        <time>2025-04-12T09:21:00Z</time>
      </trkpt>
      <trkpt lat="43.6734" lon="1.3774">
        <ele>116</ele>
        <time>2025-04-12T09:21:01Z</time>
      </trkpt>
      <trkpt lat="43.67338" lon="1.37743">
        <ele>116</ele>
        <time>2025-04-12T09:21:02Z</time>
      </trkpt>
      <trkpt lat="43.67338" lon="1.37743">
        <ele>116</ele>
        <time>2025-04-12T09:21:03Z</time>
      </trkpt>
      <trkpt lat="43.67335" lon="1.37749">
        <ele>116</ele>
        <time>2025-04-12T09:21:04Z</time>
      </trkpt>
      <trkpt lat="43.67333" lon="1.37753">
        <ele>116</ele>
        <time>2025-04-12T09:21:05Z</time>
      </trkpt>
      <trkpt lat="43.67332" lon="1.37757">
        <ele>116</ele>
        <time>2025-04-12T09:21:06Z</time>
      </trkpt>
      <trkpt lat="43.6733" lon="1.3776">
        <ele>116</ele>
        <time>2025-04-12T09:21:07Z</time>
      </trkpt>
      <trkpt lat="43.67329" lon="1.37763">
        <ele>116</ele>
        <time>2025-04-12T09:21:08Z</time>
      </trkpt>
      <trkpt lat="43.67327" lon="1.37766">
        <ele>116</ele>
        <time>2025-04-12T09:21:09Z</time>
      </trkpt>
      <trkpt lat="43.67326" lon="1.37768">
        <ele>116</ele>
        <time>2025-04-12T09:21:10Z</time>
      </trkpt>
      <trkpt lat="43.67325" lon="1.3777">
        <ele>116</ele>
        <time>2025-04-12T09:21:11Z</time>
      </trkpt>
      <trkpt lat="43.67325" lon="1.3777">
        <ele>116</ele>
        <time>2025-04-12T09:21:12Z</time>
      </trkpt>
      <trkpt lat="43.67322" lon="1.37776">
        <ele>115</ele>
        <time>2025-04-12T09:21:13Z</time>
      </trkpt>
      <trkpt lat="43.6732" lon="1.37779">
        <ele>116</ele>
        <time>2025-04-12T09:21:14Z</time>
      </trkpt>
      <trkpt lat="43.67319" lon="1.37783">
        <ele>116</ele>
        <time>2025-04-12T09:21:15Z</time>
      </trkpt>
      <trkpt lat="43.67317" lon="1.37785">
        <ele>116</ele>
        <time>2025-04-12T09:21:16Z</time>
      </trkpt>
      <trkpt lat="43.67317" lon="1.37785">
        <ele>116</ele>
        <time>2025-04-12T09:21:17Z</time>
      </trkpt>
      <trkpt lat="43.67313" lon="1.37791">
        <ele>120</ele>
        <time>2025-04-12T09:21:18Z</time>
      </trkpt>
      <trkpt lat="43.67311" lon="1.37793">
        <ele>120</ele>
        <time>2025-04-12T09:21:19Z</time>
      </trkpt>
      <trkpt lat="43.67309" lon="1.37797">
        <ele>120</ele>
        <time>2025-04-12T09:21:20Z</time>
      </trkpt>
      <trkpt lat="43.67306" lon="1.37799">
        <ele>120</ele>
        <time>2025-04-12T09:21:21Z</time>
      </trkpt>
      <trkpt lat="43.67304" lon="1.378">
        <ele>120</ele>
        <time>2025-04-12T09:21:22Z</time>
      </trkpt>
      <trkpt lat="43.67301" lon="1.37802">
        <ele>120</ele>
        <time>2025-04-12T09:21:23Z</time>
      </trkpt>
      <trkpt lat="43.67301" lon="1.37802">
        <ele>120</ele>
        <time>2025-04-12T09:21:24Z</time>
      </trkpt>
      <trkpt lat="43.67298" lon="1.37806">
        <ele>120</ele>
        <time>2025-04-12T09:21:25Z</time>
      </trkpt>
      <trkpt lat="43.67298" lon="1.37806">
        <ele>120</ele>
        <time>2025-04-12T09:21:26Z</time>
      </trkpt>
      <trkpt lat="43.67294" lon="1.37812">
        <ele>120</ele>
        <time>2025-04-12T09:21:27Z</time>
      </trkpt>
      <trkpt lat="43.67292" lon="1.37814">
        <ele>120</ele>
        <time>2025-04-12T09:21:28Z</time>
      </trkpt>
      <trkpt lat="43.6729" lon="1.37815">
        <ele>120</ele>
        <time>2025-04-12T09:21:29Z</time>
      </trkpt>
      <trkpt lat="43.67284" lon="1.37819">
        <ele>120</ele>
        <time>2025-04-12T09:21:31Z</time>
      </trkpt>
      <trkpt lat="43.67283" lon="1.37822">
        <ele>120</ele>
        <time>2025-04-12T09:21:32Z</time>
      </trkpt>
      <trkpt lat="43.67281" lon="1.37825">
        <ele>120</ele>
        <time>2025-04-12T09:21:33Z</time>
      </trkpt>
      <trkpt lat="43.67281" lon="1.37825">
        <ele>120</ele>
        <time>2025-04-12T09:21:34Z</time>
      </trkpt>
      <trkpt lat="43.67282" lon="1.37831">
        <ele>120</ele>
        <time>2025-04-12T09:21:35Z</time>
      </trkpt>
      <trkpt lat="43.6728" lon="1.37834">
        <ele>120</ele>
        <time>2025-04-12T09:21:36Z</time>
      </trkpt>
      <trkpt lat="43.67278" lon="1.37835">
        <ele>120</ele>
        <time>2025-04-12T09:21:37Z</time>
      </trkpt>
      <trkpt lat="43.67278" lon="1.37835">
        <ele>120</ele>
        <time>2025-04-12T09:21:38Z</time>
      </trkpt>
      <trkpt lat="43.67273" lon="1.37836">
        <ele>120</ele>
        <time>2025-04-12T09:21:39Z</time>
      </trkpt>
      <trkpt lat="43.6727" lon="1.37836">
        <ele>120</ele>
        <time>2025-04-12T09:21:40Z</time>
      </trkpt>
      <trkpt lat="43.67267" lon="1.37838">
        <ele>120</ele>
        <time>2025-04-12T09:21:41Z</time>
      </trkpt>
      <trkpt lat="43.67265" lon="1.37839">
        <ele>120</ele>
        <time>2025-04-12T09:21:42Z</time>
      </trkpt>
      <trkpt lat="43.67264" lon="1.37841">
        <ele>120</ele>
        <time>2025-04-12T09:21:43Z</time>
      </trkpt>
      <trkpt lat="43.67262" lon="1.37843">
        <ele>120</ele>
        <time>2025-04-12T09:21:44Z</time>
      </trkpt>
      <trkpt lat="43.67262" lon="1.37843">
        <ele>116</ele>
        <time>2025-04-12T09:21:45Z</time>
      </trkpt>
      <trkpt lat="43.67259" lon="1.37847">
        <ele>116</ele>
        <time>2025-04-12T09:21:46Z</time>
      </trkpt>
      <trkpt lat="43.67259" lon="1.37847">
        <ele>116</ele>
        <time>2025-04-12T09:21:47Z</time>
      </trkpt>
      <trkpt lat="43.67258" lon="1.37851">
        <ele>116</ele>
        <time>2025-04-12T09:21:48Z</time>
      </trkpt>
      <trkpt lat="43.67258" lon="1.37851">
        <ele>116</ele>
        <time>2025-04-12T09:21:49Z</time>
      </trkpt>
      <trkpt lat="43.67258" lon="1.37851">
        <ele>116</ele>
        <time>2025-04-12T09:21:50Z</time>
      </trkpt>
      <trkpt lat="43.67257" lon="1.37855">
        <ele>120</ele>
        <time>2025-04-12T09:21:51Z</time>
      </trkpt>
      <trkpt lat="43.67257" lon="1.37855">
        <ele>120</ele>
        <time>2025-04-12T09:21:52Z</time>
      </trkpt>
      <trkpt lat="43.67257" lon="1.37858">
        <ele>120</ele>
        <time>2025-04-12T09:21:53Z</time>
      </trkpt>
      <trkpt lat="43.67256" lon="1.37861">
        <ele>120</ele>
        <time>2025-04-12T09:21:54Z</time>
      </trkpt>
      <trkpt lat="43.67256" lon="1.37861">
        <ele>120</ele>
        <time>2025-04-12T09:21:55Z</time>
      </trkpt>
      <trkpt lat="43.67257" lon="1.37865">
        <ele>120</ele>
        <time>2025-04-12T09:21:56Z</time>
      </trkpt>
      <trkpt lat="43.67257" lon="1.37869">
        <ele>120</ele>
        <time>2025-04-12T09:21:57Z</time>
      </trkpt>
      <trkpt lat="43.67257" lon="1.37872">
        <ele>120</ele>
        <time>2025-04-12T09:21:58Z</time>
      </trkpt>
      <trkpt lat="43.67256" lon="1.37875">
        <ele>120</ele>
        <time>2025-04-12T09:21:59Z</time>
      </trkpt>
      <trkpt lat="43.67254" lon="1.37877">
        <ele>120</ele>
        <time>2025-04-12T09:22:00Z</time>
      </trkpt>
      <trkpt lat="43.67252" lon="1.37879">
        <ele>120</ele>
        <time>2025-04-12T09:22:01Z</time>
      </trkpt>
      <trkpt lat="43.67251" lon="1.37882">
        <ele>120</ele>
        <time>2025-04-12T09:22:02Z</time>
      </trkpt>
      <trkpt lat="43.67251" lon="1.37885">
        <ele>120</ele>
        <time>2025-04-12T09:22:03Z</time>
      </trkpt>
      <trkpt lat="43.6725" lon="1.37888">
        <ele>120</ele>
        <time>2025-04-12T09:22:04Z</time>
      </trkpt>
      <trkpt lat="43.67248" lon="1.3789">
        <ele>120</ele>
        <time>2025-04-12T09:22:05Z</time>
      </trkpt>
      <trkpt lat="43.67246" lon="1.37892">
        <ele>120</ele>
        <time>2025-04-12T09:22:06Z</time>
      </trkpt>
      <trkpt lat="43.67244" lon="1.37893">
        <ele>121</ele>
        <time>2025-04-12T09:22:07Z</time>
      </trkpt>
      <trkpt lat="43.67241" lon="1.37894">
        <ele>121</ele>
        <time>2025-04-12T09:22:08Z</time>
      </trkpt>
      <trkpt lat="43.6724" lon="1.37895">
        <ele>121</ele>
        <time>2025-04-12T09:22:09Z</time>
      </trkpt>
      <trkpt lat="43.67237" lon="1.37898">
        <ele>121</ele>
        <time>2025-04-12T09:22:10Z</time>
      </trkpt>
      <trkpt lat="43.67235" lon="1.379">
        <ele>121</ele>
        <time>2025-04-12T09:22:11Z</time>
      </trkpt>
      <trkpt lat="43.67235" lon="1.379">
        <ele>121</ele>
        <time>2025-04-12T09:22:12Z</time>
      </trkpt>
      <trkpt lat="43.6723" lon="1.37903">
        <ele>121</ele>
        <time>2025-04-12T09:22:13Z</time>
      </trkpt>
      <trkpt lat="43.6723" lon="1.37903">
        <ele>121</ele>
        <time>2025-04-12T09:22:14Z</time>
      </trkpt>
      <trkpt lat="43.67228" lon="1.37905">
        <ele>121</ele>
        <time>2025-04-12T09:22:15Z</time>
      </trkpt>
      <trkpt lat="43.67224" lon="1.37908">
        <ele>120</ele>
        <time>2025-04-12T09:22:16Z</time>
      </trkpt>
      <trkpt lat="43.67223" lon="1.37911">
        <ele>120</ele>
        <time>2025-04-12T09:22:17Z</time>
      </trkpt>
      <trkpt lat="43.67221" lon="1.37915">
        <ele>120</ele>
        <time>2025-04-12T09:22:18Z</time>
      </trkpt>
      <trkpt lat="43.67219" lon="1.37918">
        <ele>120</ele>
        <time>2025-04-12T09:22:19Z</time>
      </trkpt>
      <trkpt lat="43.67217" lon="1.37921">
        <ele>120</ele>
        <time>2025-04-12T09:22:20Z</time>
      </trkpt>
      <trkpt lat="43.67216" lon="1.37924">
        <ele>121</ele>
        <time>2025-04-12T09:22:21Z</time>
      </trkpt>
      <trkpt lat="43.67215" lon="1.37927">
        <ele>121</ele>
        <time>2025-04-12T09:22:22Z</time>
      </trkpt>
      <trkpt lat="43.67213" lon="1.3793">
        <ele>121</ele>
        <time>2025-04-12T09:22:23Z</time>
      </trkpt>
      <trkpt lat="43.67212" lon="1.37933">
        <ele>121</ele>
        <time>2025-04-12T09:22:24Z</time>
      </trkpt>
      <trkpt lat="43.6721" lon="1.37935">
        <ele>121</ele>
        <time>2025-04-12T09:22:25Z</time>
      </trkpt>
      <trkpt lat="43.67208" lon="1.37937">
        <ele>121</ele>
        <time>2025-04-12T09:22:26Z</time>
      </trkpt>
      <trkpt lat="43.67206" lon="1.37939">
        <ele>121</ele>
        <time>2025-04-12T09:22:27Z</time>
      </trkpt>
      <trkpt lat="43.67204" lon="1.37941">
        <ele>121</ele>
        <time>2025-04-12T09:22:28Z</time>
      </trkpt>
      <trkpt lat="43.67201" lon="1.37943">
        <ele>121</ele>
        <time>2025-04-12T09:22:29Z</time>
      </trkpt>
      <trkpt lat="43.67199" lon="1.37945">
        <ele>121</ele>
        <time>2025-04-12T09:22:30Z</time>
      </trkpt>
      <trkpt lat="43.67195" lon="1.37948">
        <ele>120</ele>
        <time>2025-04-12T09:22:32Z</time>
      </trkpt>
      <trkpt lat="43.67193" lon="1.37951">
        <ele>120</ele>
        <time>2025-04-12T09:22:33Z</time>
      </trkpt>
      <trkpt lat="43.67193" lon="1.37951">
        <ele>120</ele>
        <time>2025-04-12T09:22:34Z</time>
      </trkpt>
      <trkpt lat="43.67189" lon="1.37957">
        <ele>120</ele>
        <time>2025-04-12T09:22:35Z</time>
      </trkpt>
      <trkpt lat="43.67186" lon="1.3796">
        <ele>120</ele>
        <time>2025-04-12T09:22:36Z</time>
      </trkpt>
      <trkpt lat="43.67184" lon="1.37963">
        <ele>120</ele>
        <time>2025-04-12T09:22:37Z</time>
      </trkpt>
      <trkpt lat="43.67183" lon="1.37966">
        <ele>120</ele>
        <time>2025-04-12T09:22:38Z</time>
      </trkpt>
      <trkpt lat="43.6718" lon="1.37968">
        <ele>120</ele>
        <time>2025-04-12T09:22:39Z</time>
      </trkpt>
      <trkpt lat="43.67178" lon="1.3797">
        <ele>120</ele>
        <time>2025-04-12T09:22:40Z</time>
      </trkpt>
      <trkpt lat="43.67175" lon="1.37972">
        <ele>120</ele>
        <time>2025-04-12T09:22:41Z</time>
      </trkpt>
      <trkpt lat="43.67173" lon="1.37973">
        <ele>120</ele>
        <time>2025-04-12T09:22:42Z</time>
      </trkpt>
      <trkpt lat="43.67169" lon="1.37974">
        <ele>120</ele>
        <time>2025-04-12T09:22:43Z</time>
      </trkpt>
      <trkpt lat="43.67169" lon="1.37974">
        <ele>120</ele>
        <time>2025-04-12T09:22:44Z</time>
      </trkpt>
      <trkpt lat="43.67164" lon="1.37978">
        <ele>120</ele>
        <time>2025-04-12T09:22:45Z</time>
      </trkpt>
      <trkpt lat="43.67162" lon="1.3798">
        <ele>116</ele>
        <time>2025-04-12T09:22:46Z</time>
      </trkpt>
      <trkpt lat="43.67159" lon="1.37983">
        <ele>116</ele>
        <time>2025-04-12T09:22:47Z</time>
      </trkpt>
      <trkpt lat="43.67157" lon="1.37986">
        <ele>120</ele>
        <time>2025-04-12T09:22:48Z</time>
      </trkpt>
      <trkpt lat="43.67155" lon="1.37989">
        <ele>120</ele>
        <time>2025-04-12T09:22:49Z</time>
      </trkpt>
      <trkpt lat="43.67154" lon="1.37992">
        <ele>120</ele>
        <time>2025-04-12T09:22:51Z</time>
      </trkpt>
      <trkpt lat="43.67152" lon="1.37998">
        <ele>120</ele>
        <time>2025-04-12T09:22:52Z</time>
      </trkpt>
      <trkpt lat="43.67153" lon="1.38001">
        <ele>120</ele>
        <time>2025-04-12T09:22:53Z</time>
      </trkpt>
      <trkpt lat="43.67154" lon="1.38004">
        <ele>120</ele>
        <time>2025-04-12T09:22:54Z</time>
      </trkpt>
      <trkpt lat="43.67155" lon="1.38006">
        <ele>120</ele>
        <time>2025-04-12T09:22:55Z</time>
      </trkpt>
      <trkpt lat="43.67156" lon="1.3801">
        <ele>120</ele>
        <time>2025-04-12T09:22:56Z</time>
      </trkpt>
      <trkpt lat="43.67157" lon="1.38013">
        <ele>121</ele>
        <time>2025-04-12T09:22:57Z</time>
      </trkpt>
      <trkpt lat="43.67158" lon="1.38016">
        <ele>121</ele>
        <time>2025-04-12T09:22:58Z</time>
      </trkpt>
      <trkpt lat="43.67157" lon="1.38019">
        <ele>122</ele>
        <time>2025-04-12T09:22:59Z</time>
      </trkpt>
      <trkpt lat="43.67156" lon="1.38022">
        <ele>122</ele>
        <time>2025-04-12T09:23:00Z</time>
      </trkpt>
      <trkpt lat="43.67154" lon="1.38023">
        <ele>122</ele>
        <time>2025-04-12T09:23:01Z</time>
      </trkpt>
      <trkpt lat="43.67151" lon="1.38023">
        <ele>123</ele>
        <time>2025-04-12T09:23:02Z</time>
      </trkpt>
      <trkpt lat="43.67149" lon="1.38025">
        <ele>123</ele>
        <time>2025-04-12T09:23:03Z</time>
      </trkpt>
      <trkpt lat="43.67147" lon="1.38026">
        <ele>123</ele>
        <time>2025-04-12T09:23:04Z</time>
      </trkpt>
      <trkpt lat="43.67147" lon="1.38026">
        <ele>123</ele>
        <time>2025-04-12T09:23:05Z</time>
      </trkpt>
      <trkpt lat="43.67143" lon="1.38032">
        <ele>123</ele>
        <time>2025-04-12T09:23:06Z</time>
      </trkpt>
      <trkpt lat="43.67141" lon="1.38035">
        <ele>123</ele>
        <time>2025-04-12T09:23:07Z</time>
      </trkpt>
      <trkpt lat="43.6714" lon="1.38037">
        <ele>123</ele>
        <time>2025-04-12T09:23:08Z</time>
      </trkpt>
      <trkpt lat="43.67137" lon="1.38044">
        <ele>123</ele>
        <time>2025-04-12T09:23:10Z</time>
      </trkpt>
      <trkpt lat="43.67136" lon="1.38046">
        <ele>123</ele>
        <time>2025-04-12T09:23:11Z</time>
      </trkpt>
      <trkpt lat="43.67134" lon="1.38048">
        <ele>123</ele>
        <time>2025-04-12T09:23:12Z</time>
      </trkpt>
      <trkpt lat="43.67131" lon="1.38049">
        <ele>124</ele>
        <time>2025-04-12T09:23:13Z</time>
      </trkpt>
      <trkpt lat="43.67129" lon="1.38051">
        <ele>124</ele>
        <time>2025-04-12T09:23:14Z</time>
      </trkpt>
      <trkpt lat="43.67129" lon="1.38051">
        <ele>124</ele>
        <time>2025-04-12T09:23:15Z</time>
      </trkpt>
      <trkpt lat="43.67124" lon="1.38054">
        <ele>124</ele>
        <time>2025-04-12T09:23:16Z</time>
      </trkpt>
      <trkpt lat="43.67124" lon="1.38054">
        <ele>124</ele>
        <time>2025-04-12T09:23:17Z</time>
      </trkpt>
      <trkpt lat="43.6712" lon="1.38059">
        <ele>124</ele>
        <time>2025-04-12T09:23:18Z</time>
      </trkpt>
      <trkpt lat="43.67118" lon="1.38061">
        <ele>124</ele>
        <time>2025-04-12T09:23:19Z</time>
      </trkpt>
      <trkpt lat="43.67116" lon="1.38064">
        <ele>124</ele>
        <time>2025-04-12T09:23:20Z</time>
      </trkpt>
      <trkpt lat="43.67114" lon="1.38066">
        <ele>123</ele>
        <time>2025-04-12T09:23:21Z</time>
      </trkpt>
      <trkpt lat="43.67114" lon="1.38066">
        <ele>123</ele>
        <time>2025-04-12T09:23:22Z</time>
      </trkpt>
      <trkpt lat="43.6711" lon="1.3807">
        <ele>123</ele>
        <time>2025-04-12T09:23:23Z</time>
      </trkpt>
      <trkpt lat="43.6711" lon="1.3807">
        <ele>123</ele>
        <time>2025-04-12T09:23:24Z</time>
      </trkpt>
      <trkpt lat="43.67106" lon="1.38073">
        <ele>123</ele>
        <time>2025-04-12T09:23:25Z</time>
      </trkpt>
      <trkpt lat="43.67104" lon="1.38074">
        <ele>123</ele>
        <time>2025-04-12T09:23:26Z</time>
      </trkpt>
      <trkpt lat="43.67102" lon="1.38076">
        <ele>123</ele>
        <time>2025-04-12T09:23:27Z</time>
      </trkpt>
      <trkpt lat="43.67097" lon="1.38079">
        <ele>123</ele>
        <time>2025-04-12T09:23:29Z</time>
      </trkpt>
      <trkpt lat="43.67095" lon="1.3808">
        <ele>123</ele>
        <time>2025-04-12T09:23:30Z</time>
      </trkpt>
      <trkpt lat="43.67095" lon="1.3808">
        <ele>123</ele>
        <time>2025-04-12T09:23:31Z</time>
      </trkpt>
      <trkpt lat="43.67092" lon="1.38082">
        <ele>123</ele>
        <time>2025-04-12T09:23:32Z</time>
      </trkpt>
      <trkpt lat="43.67087" lon="1.38086">
        <ele>123</ele>
        <time>2025-04-12T09:23:33Z</time>
      </trkpt>
      <trkpt lat="43.67087" lon="1.38086">
        <ele>123</ele>
        <time>2025-04-12T09:23:34Z</time>
      </trkpt>
      <trkpt lat="43.67082" lon="1.38089">
        <ele>123</ele>
        <time>2025-04-12T09:23:35Z</time>
      </trkpt>
      <trkpt lat="43.67079" lon="1.38091">
        <ele>124</ele>
        <time>2025-04-12T09:23:36Z</time>
      </trkpt>
      <trkpt lat="43.67077" lon="1.38092">
        <ele>124</ele>
        <time>2025-04-12T09:23:37Z</time>
      </trkpt>
      <trkpt lat="43.67074" lon="1.38095">
        <ele>124</ele>
        <time>2025-04-12T09:23:38Z</time>
      </trkpt>
      <trkpt lat="43.67072" lon="1.38097">
        <ele>124</ele>
        <time>2025-04-12T09:23:39Z</time>
      </trkpt>
      <trkpt lat="43.6707" lon="1.381">
        <ele>123</ele>
        <time>2025-04-12T09:23:40Z</time>
      </trkpt>
      <trkpt lat="43.67067" lon="1.38102">
        <ele>123</ele>
        <time>2025-04-12T09:23:41Z</time>
      </trkpt>
      <trkpt lat="43.67065" lon="1.38104">
        <ele>123</ele>
        <time>2025-04-12T09:23:42Z</time>
      </trkpt>
      <trkpt lat="43.67062" lon="1.38106">
        <ele>123</ele>
        <time>2025-04-12T09:23:43Z</time>
      </trkpt>
      <trkpt lat="43.6706" lon="1.38108">
        <ele>124</ele>
        <time>2025-04-12T09:23:44Z</time>
      </trkpt>
      <trkpt lat="43.67058" lon="1.3811">
        <ele>124</ele>
        <time>2025-04-12T09:23:45Z</time>
      </trkpt>
      <trkpt lat="43.67058" lon="1.3811">
        <ele>124</ele>
        <time>2025-04-12T09:23:46Z</time>
      </trkpt>
      <trkpt lat="43.67056" lon="1.38112">
        <ele>124</ele>
        <time>2025-04-12T09:23:47Z</time>
      </trkpt>
      <trkpt lat="43.67052" lon="1.38117">
        <ele>124</ele>
        <time>2025-04-12T09:23:48Z</time>
      </trkpt>
      <trkpt lat="43.6705" lon="1.38119">
        <ele>124</ele>
        <time>2025-04-12T09:23:49Z</time>
      </trkpt>
      <trkpt lat="43.67048" lon="1.38122">
        <ele>124</ele>
        <time>2025-04-12T09:23:50Z</time>
      </trkpt>
      <trkpt lat="43.67046" lon="1.38124">
        <ele>124</ele>
        <time>2025-04-12T09:23:51Z</time>
      </trkpt>
      <trkpt lat="43.67044" lon="1.38125">
        <ele>124</ele>
        <time>2025-04-12T09:23:52Z</time>
      </trkpt>
      <trkpt lat="43.67044" lon="1.38125">
        <ele>124</ele>
        <time>2025-04-12T09:23:53Z</time>
      </trkpt>
      <trkpt lat="43.67039" lon="1.38128">
        <ele>124</ele>
        <time>2025-04-12T09:23:54Z</time>
      </trkpt>
      <trkpt lat="43.67039" lon="1.38128">
        <ele>124</ele>
        <time>2025-04-12T09:23:55Z</time>
      </trkpt>
      <trkpt lat="43.67034" lon="1.38132">
        <ele>124</ele>
        <time>2025-04-12T09:23:56Z</time>
      </trkpt>
      <trkpt lat="43.67032" lon="1.38134">
        <ele>124</ele>
        <time>2025-04-12T09:23:57Z</time>
      </trkpt>
      <trkpt lat="43.6703" lon="1.38136">
        <ele>124</ele>
        <time>2025-04-12T09:23:58Z</time>
      </trkpt>
      <trkpt lat="43.67028" lon="1.38139">
        <ele>124</ele>
        <time>2025-04-12T09:23:59Z</time>
      </trkpt>
      <trkpt lat="43.67025" lon="1.38142">
        <ele>124</ele>
        <time>2025-04-12T09:24:00Z</time>
      </trkpt>
      <trkpt lat="43.67023" lon="1.38146">
        <ele>124</ele>
        <time>2025-04-12T09:24:01Z</time>
      </trkpt>
      <trkpt lat="43.67021" lon="1.38149">
        <ele>123</ele>
        <time>2025-04-12T09:24:02Z</time>
      </trkpt>
      <trkpt lat="43.67019" lon="1.38152">
        <ele>123</ele>
        <time>2025-04-12T09:24:03Z</time>
      </trkpt>
      <trkpt lat="43.67017" lon="1.38154">
        <ele>123</ele>
        <time>2025-04-12T09:24:04Z</time>
      </trkpt>
      <trkpt lat="43.67014" lon="1.38157">
        <ele>123</ele>
        <time>2025-04-12T09:24:05Z</time>
      </trkpt>
      <trkpt lat="43.6701" lon="1.38161">
        <ele>123</ele>
        <time>2025-04-12T09:24:07Z</time>
      </trkpt>
      <trkpt lat="43.67007" lon="1.38164">
        <ele>123</ele>
        <time>2025-04-12T09:24:08Z</time>
      </trkpt>
      <trkpt lat="43.67005" lon="1.38166">
        <ele>123</ele>
        <time>2025-04-12T09:24:09Z</time>
      </trkpt>
      <trkpt lat="43.67003" lon="1.38169">
        <ele>123</ele>
        <time>2025-04-12T09:24:10Z</time>
      </trkpt>
      <trkpt lat="43.67001" lon="1.38171">
        <ele>123</ele>
        <time>2025-04-12T09:24:11Z</time>
      </trkpt>
      <trkpt lat="43.67" lon="1.38173">
        <ele>123</ele>
        <time>2025-04-12T09:24:12Z</time>
      </trkpt>
      <trkpt lat="43.66998" lon="1.38175">
        <ele>123</ele>
        <time>2025-04-12T09:24:13Z</time>
      </trkpt>
      <trkpt lat="43.66996" lon="1.38177">
        <ele>123</ele>
        <time>2025-04-12T09:24:14Z</time>
      </trkpt>
      <trkpt lat="43.66995" lon="1.38179">
        <ele>123</ele>
        <time>2025-04-12T09:24:15Z</time>
      </trkpt>
      <trkpt lat="43.66993" lon="1.38181">
        <ele>123</ele>
        <time>2025-04-12T09:24:16Z</time>
      </trkpt>
      <trkpt lat="43.66993" lon="1.38181">
        <ele>123</ele>
        <time>2025-04-12T09:24:17Z</time>
      </trkpt>
      <trkpt lat="43.6699" lon="1.38187">
        <ele>123</ele>
        <time>2025-04-12T09:24:18Z</time>
      </trkpt>
      <trkpt lat="43.6699" lon="1.38187">
        <ele>123</ele>
        <time>2025-04-12T09:24:19Z</time>
      </trkpt>
      <trkpt lat="43.66986" lon="1.38192">
        <ele>123</ele>
        <time>2025-04-12T09:24:20Z</time>
      </trkpt>
      <trkpt lat="43.66983" lon="1.38194">
        <ele>123</ele>
        <time>2025-04-12T09:24:21Z</time>
      </trkpt>
      <trkpt lat="43.66981" lon="1.38197">
        <ele>123</ele>
        <time>2025-04-12T09:24:22Z</time>
      </trkpt>
      <trkpt lat="43.66981" lon="1.382">
        <ele>123</ele>
        <time>2025-04-12T09:24:23Z</time>
      </trkpt>
      <trkpt lat="43.66981" lon="1.382">
        <ele>123</ele>
        <time>2025-04-12T09:24:24Z</time>
      </trkpt>
      <trkpt lat="43.66983" lon="1.38206">
        <ele>123</ele>
        <time>2025-04-12T09:24:25Z</time>
      </trkpt>
      <trkpt lat="43.66985" lon="1.3821">
        <ele>123</ele>
        <time>2025-04-12T09:24:26Z</time>
      </trkpt>
      <trkpt lat="43.66986" lon="1.38213">
        <ele>123</ele>
        <time>2025-04-12T09:24:28Z</time>
      </trkpt>
      <trkpt lat="43.66987" lon="1.3822">
        <ele>123</ele>
        <time>2025-04-12T09:24:29Z</time>
      </trkpt>
      <trkpt lat="43.66987" lon="1.38224">
        <ele>123</ele>
        <time>2025-04-12T09:24:30Z</time>
      </trkpt>
      <trkpt lat="43.66987" lon="1.38228">
        <ele>123</ele>
        <time>2025-04-12T09:24:31Z</time>
      </trkpt>
      <trkpt lat="43.66987" lon="1.38233">
        <ele>123</ele>
        <time>2025-04-12T09:24:32Z</time>
      </trkpt>
      <trkpt lat="43.66987" lon="1.38236">
        <ele>123</ele>
        <time>2025-04-12T09:24:33Z</time>
      </trkpt>
      <trkpt lat="43.66987" lon="1.3824">
        <ele>123</ele>
        <time>2025-04-12T09:24:34Z</time>
      </trkpt>
      <trkpt lat="43.66987" lon="1.38244">
        <ele>123</ele>
        <time>2025-04-12T09:24:35Z</time>
      </trkpt>
      <trkpt lat="43.66987" lon="1.38248">
        <ele>123</ele>
        <time>2025-04-12T09:24:36Z</time>
      </trkpt>
      <trkpt lat="43.66988" lon="1.38251">
        <ele>123</ele>
        <time>2025-04-12T09:24:37Z</time>
      </trkpt>
      <trkpt lat="43.66988" lon="1.38254">
        <ele>123</ele>
        <time>2025-04-12T09:24:38Z</time>
      </trkpt>
      <trkpt lat="43.66987" lon="1.38258">
        <ele>124</ele>
        <time>2025-04-12T09:24:39Z</time>
      </trkpt>
      <trkpt lat="43.66987" lon="1.38258">
        <ele>124</ele>
        <time>2025-04-12T09:24:40Z</time>
      </trkpt>
      <trkpt lat="43.66983" lon="1.38264">
        <ele>124</ele>
        <time>2025-04-12T09:24:41Z</time>
      </trkpt>
      <trkpt lat="43.66983" lon="1.38264">
        <ele>124</ele>
        <time>2025-04-12T09:24:42Z</time>
      </trkpt>
      <trkpt lat="43.6698" lon="1.3827">
        <ele>123</ele>
        <time>2025-04-12T09:24:43Z</time>
      </trkpt>
      <trkpt lat="43.6698" lon="1.3827">
        <ele>123</ele>
        <time>2025-04-12T09:24:44Z</time>
      </trkpt>
      <trkpt lat="43.6698" lon="1.38274">
        <ele>123</ele>
        <time>2025-04-12T09:24:45Z</time>
      </trkpt>
      <trkpt lat="43.66979" lon="1.38281">
        <ele>123</ele>
        <time>2025-04-12T09:24:46Z</time>
      </trkpt>
      <trkpt lat="43.66978" lon="1.38285">
        <ele>123</ele>
        <time>2025-04-12T09:24:47Z</time>
      </trkpt>
      <trkpt lat="43.66978" lon="1.38285">
        <ele>123</ele>
        <time>2025-04-12T09:24:48Z</time>
      </trkpt>
      <trkpt lat="43.66977" lon="1.38291">
        <ele>124</ele>
        <time>2025-04-12T09:24:49Z</time>
      </trkpt>
      <trkpt lat="43.66977" lon="1.38291">
        <ele>124</ele>
        <time>2025-04-12T09:24:50Z</time>
      </trkpt>
      <trkpt lat="43.66977" lon="1.38298">
        <ele>124</ele>
        <time>2025-04-12T09:24:51Z</time>
      </trkpt>
      <trkpt lat="43.66977" lon="1.38298">
        <ele>124</ele>
        <time>2025-04-12T09:24:52Z</time>
      </trkpt>
      <trkpt lat="43.66973" lon="1.38304">
        <ele>124</ele>
        <time>2025-04-12T09:24:53Z</time>
      </trkpt>
      <trkpt lat="43.66971" lon="1.38306">
        <ele>124</ele>
        <time>2025-04-12T09:24:54Z</time>
      </trkpt>
      <trkpt lat="43.66969" lon="1.38308">
        <ele>124</ele>
        <time>2025-04-12T09:24:55Z</time>
      </trkpt>
      <trkpt lat="43.66968" lon="1.3831">
        <ele>124</ele>
        <time>2025-04-12T09:24:56Z</time>
      </trkpt>
      <trkpt lat="43.66967" lon="1.38312">
        <ele>124</ele>
        <time>2025-04-12T09:24:57Z</time>
      </trkpt>
      <trkpt lat="43.66965" lon="1.38315">
        <ele>124</ele>
        <time>2025-04-12T09:24:58Z</time>
      </trkpt>
      <trkpt lat="43.66963" lon="1.38317">
        <ele>124</ele>
        <time>2025-04-12T09:24:59Z</time>
      </trkpt>
      <trkpt lat="43.66961" lon="1.38318">
        <ele>124</ele>
        <time>2025-04-12T09:25:00Z</time>
      </trkpt>
      <trkpt lat="43.66959" lon="1.3832">
        <ele>124</ele>
        <time>2025-04-12T09:25:01Z</time>
      </trkpt>
      <trkpt lat="43.66959" lon="1.3832">
        <ele>124</ele>
        <time>2025-04-12T09:25:02Z</time>
      </trkpt>
      <trkpt lat="43.66956" lon="1.38322">
        <ele>124</ele>
        <time>2025-04-12T09:25:03Z</time>
      </trkpt>
      <trkpt lat="43.66954" lon="1.38324">
        <ele>124</ele>
        <time>2025-04-12T09:25:04Z</time>
      </trkpt>
      <trkpt lat="43.66949" lon="1.38327">
        <ele>124</ele>
        <time>2025-04-12T09:25:05Z</time>
      </trkpt>
      <trkpt lat="43.66947" lon="1.38329">
        <ele>124</ele>
        <time>2025-04-12T09:25:06Z</time>
      </trkpt>
      <trkpt lat="43.66944" lon="1.38331">
        <ele>124</ele>
        <time>2025-04-12T09:25:07Z</time>
      </trkpt>
      <trkpt lat="43.66942" lon="1.38333">
        <ele>124</ele>
        <time>2025-04-12T09:25:08Z</time>
      </trkpt>
      <trkpt lat="43.6694" lon="1.38335">
        <ele>124</ele>
        <time>2025-04-12T09:25:09Z</time>
      </trkpt>
      <trkpt lat="43.66938" lon="1.38337">
        <ele>124</ele>
        <time>2025-04-12T09:25:10Z</time>
      </trkpt>
      <trkpt lat="43.66936" lon="1.38339">
        <ele>124</ele>
        <time>2025-04-12T09:25:11Z</time>
      </trkpt>
      <trkpt lat="43.66933" lon="1.3834">
        <ele>124</ele>
        <time>2025-04-12T09:25:12Z</time>
      </trkpt>
      <trkpt lat="43.66931" lon="1.38342">
        <ele>124</ele>
        <time>2025-04-12T09:25:13Z</time>
      </trkpt>
      <trkpt lat="43.66929" lon="1.38344">
        <ele>124</ele>
        <time>2025-04-12T09:25:14Z</time>
      </trkpt>
      <trkpt lat="43.66927" lon="1.38346">
        <ele>124</ele>
        <time>2025-04-12T09:25:15Z</time>
      </trkpt>
      <trkpt lat="43.66925" lon="1.38348">
        <ele>124</ele>
        <time>2025-04-12T09:25:16Z</time>
      </trkpt>
      <trkpt lat="43.66925" lon="1.38348">
        <ele>124</ele>
        <time>2025-04-12T09:25:17Z</time>
      </trkpt>
      <trkpt lat="43.66923" lon="1.3835">
        <ele>124</ele>
        <time>2025-04-12T09:25:18Z</time>
      </trkpt>
      <trkpt lat="43.66923" lon="1.3835">
        <ele>124</ele>
        <time>2025-04-12T09:25:19Z</time>
      </trkpt>
      <trkpt lat="43.66923" lon="1.3835">
        <ele>124</ele>
        <time>2025-04-12T09:25:20Z</time>
      </trkpt>
      <trkpt lat="43.66923" lon="1.3835">
        <ele>124</ele>
        <time>2025-04-12T09:25:21Z</time>
      </trkpt>
      <trkpt lat="43.66923" lon="1.38353">
        <ele>124</ele>
        <time>2025-04-12T09:25:22Z</time>
      </trkpt>
      <trkpt lat="43.66923" lon="1.38353">
        <ele>124</ele>
        <time>2025-04-12T09:25:23Z</time>
      </trkpt>
      <trkpt lat="43.66923" lon="1.38353">
        <ele>124</ele>
        <time>2025-04-12T09:25:24Z</time>
      </trkpt>
      <trkpt lat="43.66919" lon="1.38358">
        <ele>124</ele>
        <time>2025-04-12T09:25:25Z</time>
      </trkpt>
      <trkpt lat="43.66919" lon="1.38358">
        <ele>124</ele>
        <time>2025-04-12T09:25:26Z</time>
      </trkpt>
      <trkpt lat="43.66914" lon="1.38363">
        <ele>124</ele>
        <time>2025-04-12T09:25:27Z</time>
      </trkpt>
      <trkpt lat="43.66909" lon="1.38367">
        <ele>125</ele>
        <time>2025-04-12T09:25:29Z</time>
      </trkpt>
      <trkpt lat="43.66907" lon="1.38369">
        <ele>125</ele>
        <time>2025-04-12T09:25:30Z</time>
      </trkpt>
      <trkpt lat="43.66907" lon="1.38369">
        <ele>125</ele>
        <time>2025-04-12T09:25:31Z</time>
      </trkpt>
      <trkpt lat="43.66903" lon="1.38374">
        <ele>125</ele>
        <time>2025-04-12T09:25:32Z</time>
      </trkpt>
      <trkpt lat="43.66903" lon="1.38374">
        <ele>125</ele>
        <time>2025-04-12T09:25:33Z</time>
      </trkpt>
      <trkpt lat="43.66901" lon="1.38381">
        <ele>125</ele>
        <time>2025-04-12T09:25:34Z</time>
      </trkpt>
      <trkpt lat="43.66899" lon="1.38384">
        <ele>125</ele>
        <time>2025-04-12T09:25:35Z</time>
      </trkpt>
      <trkpt lat="43.66898" lon="1.38387">
        <ele>125</ele>
        <time>2025-04-12T09:25:36Z</time>
      </trkpt>
      <trkpt lat="43.66896" lon="1.38391">
        <ele>125</ele>
        <time>2025-04-12T09:25:37Z</time>
      </trkpt>
      <trkpt lat="43.66896" lon="1.38391">
        <ele>125</ele>
        <time>2025-04-12T09:25:38Z</time>
      </trkpt>
      <trkpt lat="43.66893" lon="1.38397">
        <ele>125</ele>
        <time>2025-04-12T09:25:39Z</time>
      </trkpt>
      <trkpt lat="43.66893" lon="1.38397">
        <ele>125</ele>
        <time>2025-04-12T09:25:40Z</time>
      </trkpt>
      <trkpt lat="43.66892" lon="1.384">
        <ele>125</ele>
        <time>2025-04-12T09:25:41Z</time>
      </trkpt>
      <trkpt lat="43.66889" lon="1.38407">
        <ele>125</ele>
        <time>2025-04-12T09:25:42Z</time>
      </trkpt>
      <trkpt lat="43.66887" lon="1.3841">
        <ele>125</ele>
        <time>2025-04-12T09:25:43Z</time>
      </trkpt>
      <trkpt lat="43.66885" lon="1.38412">
        <ele>125</ele>
        <time>2025-04-12T09:25:44Z</time>
      </trkpt>
      <trkpt lat="43.66885" lon="1.38412">
        <ele>125</ele>
        <time>2025-04-12T09:25:45Z</time>
      </trkpt>
      <trkpt lat="43.66881" lon="1.38418">
        <ele>125</ele>
        <time>2025-04-12T09:25:46Z</time>
      </trkpt>
      <trkpt lat="43.6688" lon="1.38422">
        <ele>125</ele>
        <time>2025-04-12T09:25:47Z</time>
      </trkpt>
      <trkpt lat="43.66879" lon="1.38425">
        <ele>125</ele>
        <time>2025-04-12T09:25:48Z</time>
      </trkpt>
      <trkpt lat="43.66879" lon="1.38425">
        <ele>125</ele>
        <time>2025-04-12T09:25:49Z</time>
      </trkpt>
      <trkpt lat="43.66879" lon="1.38433">
        <ele>125</ele>
        <time>2025-04-12T09:25:50Z</time>
      </trkpt>
      <trkpt lat="43.66878" lon="1.38436">
        <ele>125</ele>
        <time>2025-04-12T09:25:51Z</time>
      </trkpt>
      <trkpt lat="43.66877" lon="1.3844">
        <ele>125</ele>
        <time>2025-04-12T09:25:52Z</time>
      </trkpt>
      <trkpt lat="43.66876" lon="1.38442">
        <ele>125</ele>
        <time>2025-04-12T09:25:53Z</time>
      </trkpt>
      <trkpt lat="43.66874" lon="1.38445">
        <ele>125</ele>
        <time>2025-04-12T09:25:54Z</time>
      </trkpt>
      <trkpt lat="43.66872" lon="1.38448">
        <ele>126</ele>
        <time>2025-04-12T09:25:55Z</time>
      </trkpt>
      <trkpt lat="43.66872" lon="1.38448">
        <ele>126</ele>
        <time>2025-04-12T09:25:56Z</time>
      </trkpt>
      <trkpt lat="43.6687" lon="1.38455">
        <ele>125</ele>
        <time>2025-04-12T09:25:57Z</time>
      </trkpt>
      <trkpt lat="43.66869" lon="1.38459">
        <ele>125</ele>
        <time>2025-04-12T09:25:58Z</time>
      </trkpt>
      <trkpt lat="43.66869" lon="1.38463">
        <ele>126</ele>
        <time>2025-04-12T09:25:59Z</time>
      </trkpt>
      <trkpt lat="43.66869" lon="1.38463">
        <ele>126</ele>
        <time>2025-04-12T09:26:00Z</time>
      </trkpt>
      <trkpt lat="43.66866" lon="1.3847">
        <ele>126</ele>
        <time>2025-04-12T09:26:01Z</time>
      </trkpt>
      <trkpt lat="43.66864" lon="1.38473">
        <ele>126</ele>
        <time>2025-04-12T09:26:02Z</time>
      </trkpt>
      <trkpt lat="43.66862" lon="1.38476">
        <ele>126</ele>
        <time>2025-04-12T09:26:03Z</time>
      </trkpt>
      <trkpt lat="43.66861" lon="1.3848">
        <ele>126</ele>
        <time>2025-04-12T09:26:04Z</time>
      </trkpt>
      <trkpt lat="43.66861" lon="1.3848">
        <ele>126</ele>
        <time>2025-04-12T09:26:05Z</time>
      </trkpt>
      <trkpt lat="43.6686" lon="1.38487">
        <ele>126</ele>
        <time>2025-04-12T09:26:06Z</time>
      </trkpt>
      <trkpt lat="43.66859" lon="1.3849">
        <ele>126</ele>
        <time>2025-04-12T09:26:07Z</time>
      </trkpt>
      <trkpt lat="43.66858" lon="1.38494">
        <ele>126</ele>
        <time>2025-04-12T09:26:08Z</time>
      </trkpt>
      <trkpt lat="43.66857" lon="1.38497">
        <ele>126</ele>
        <time>2025-04-12T09:26:09Z</time>
      </trkpt>
      <trkpt lat="43.66855" lon="1.385">
        <ele>126</ele>
        <time>2025-04-12T09:26:10Z</time>
      </trkpt>
      <trkpt lat="43.66853" lon="1.38503">
        <ele>126</ele>
        <time>2025-04-12T09:26:11Z</time>
      </trkpt>
      <trkpt lat="43.66852" lon="1.38507">
        <ele>126</ele>
        <time>2025-04-12T09:26:12Z</time>
      </trkpt>
      <trkpt lat="43.66851" lon="1.3851">
        <ele>126</ele>
        <time>2025-04-12T09:26:13Z</time>
      </trkpt>
      <trkpt lat="43.66851" lon="1.3851">
        <ele>126</ele>
        <time>2025-04-12T09:26:14Z</time>
      </trkpt>
      <trkpt lat="43.6685" lon="1.38517">
        <ele>126</ele>
        <time>2025-04-12T09:26:15Z</time>
      </trkpt>
      <trkpt lat="43.6685" lon="1.38517">
        <ele>126</ele>
        <time>2025-04-12T09:26:16Z</time>
      </trkpt>
      <trkpt lat="43.66849" lon="1.38525">
        <ele>126</ele>
        <time>2025-04-12T09:26:17Z</time>
      </trkpt>
      <trkpt lat="43.66849" lon="1.38525">
        <ele>126</ele>
        <time>2025-04-12T09:26:18Z</time>
      </trkpt>
      <trkpt lat="43.66848" lon="1.38532">
        <ele>126</ele>
        <time>2025-04-12T09:26:19Z</time>
      </trkpt>
      <trkpt lat="43.66847" lon="1.38535">
        <ele>126</ele>
        <time>2025-04-12T09:26:20Z</time>
      </trkpt>
      <trkpt lat="43.66847" lon="1.38539">
        <ele>126</ele>
        <time>2025-04-12T09:26:21Z</time>
      </trkpt>
      <trkpt lat="43.66846" lon="1.38543">
        <ele>126</ele>
        <time>2025-04-12T09:26:22Z</time>
      </trkpt>
      <trkpt lat="43.66845" lon="1.38546">
        <ele>125</ele>
        <time>2025-04-12T09:26:23Z</time>
      </trkpt>
      <trkpt lat="43.66844" lon="1.38549">
        <ele>125</ele>
        <time>2025-04-12T09:26:24Z</time>
      </trkpt>
      <trkpt lat="43.66843" lon="1.38553">
        <ele>125</ele>
        <time>2025-04-12T09:26:25Z</time>
      </trkpt>
      <trkpt lat="43.66843" lon="1.38557">
        <ele>125</ele>
        <time>2025-04-12T09:26:26Z</time>
      </trkpt>
      <trkpt lat="43.66842" lon="1.3856">
        <ele>125</ele>
        <time>2025-04-12T09:26:27Z</time>
      </trkpt>
      <trkpt lat="43.66842" lon="1.3856">
        <ele>125</ele>
        <time>2025-04-12T09:26:28Z</time>
      </trkpt>
      <trkpt lat="43.6684" lon="1.38567">
        <ele>125</ele>
        <time>2025-04-12T09:26:29Z</time>
      </trkpt>
      <trkpt lat="43.66838" lon="1.38571">
        <ele>125</ele>
        <time>2025-04-12T09:26:30Z</time>
      </trkpt>
      <trkpt lat="43.66837" lon="1.38574">
        <ele>125</ele>
        <time>2025-04-12T09:26:31Z</time>
      </trkpt>
      <trkpt lat="43.66836" lon="1.38578">
        <ele>125</ele>
        <time>2025-04-12T09:26:32Z</time>
      </trkpt>
      <trkpt lat="43.66835" lon="1.38582">
        <ele>125</ele>
        <time>2025-04-12T09:26:33Z</time>
      </trkpt>
      <trkpt lat="43.66834" lon="1.38585">
        <ele>125</ele>
        <time>2025-04-12T09:26:34Z</time>
      </trkpt>
      <trkpt lat="43.66833" lon="1.38588">
        <ele>125</ele>
        <time>2025-04-12T09:26:35Z</time>
      </trkpt>
      <trkpt lat="43.66833" lon="1.38591">
        <ele>125</ele>
        <time>2025-04-12T09:26:36Z</time>
      </trkpt>
      <trkpt lat="43.66832" lon="1.38595">
        <ele>125</ele>
        <time>2025-04-12T09:26:37Z</time>
      </trkpt>
      <trkpt lat="43.66832" lon="1.38595">
        <ele>125</ele>
        <time>2025-04-12T09:26:38Z</time>
      </trkpt>
      <trkpt lat="43.66829" lon="1.38601">
        <ele>125</ele>
        <time>2025-04-12T09:26:39Z</time>
      </trkpt>
      <trkpt lat="43.66829" lon="1.38604">
        <ele>125</ele>
        <time>2025-04-12T09:26:40Z</time>
      </trkpt>
      <trkpt lat="43.66829" lon="1.38604">
        <ele>125</ele>
        <time>2025-04-12T09:26:41Z</time>
      </trkpt>
      <trkpt lat="43.66828" lon="1.38608">
        <ele>126</ele>
        <time>2025-04-12T09:26:42Z</time>
      </trkpt>
      <trkpt lat="43.66827" lon="1.38615">
        <ele>126</ele>
        <time>2025-04-12T09:26:43Z</time>
      </trkpt>
      <trkpt lat="43.66827" lon="1.38619">
        <ele>126</ele>
        <time>2025-04-12T09:26:44Z</time>
      </trkpt>
      <trkpt lat="43.66827" lon="1.38622">
        <ele>126</ele>
        <time>2025-04-12T09:26:45Z</time>
      </trkpt>
      <trkpt lat="43.66827" lon="1.38626">
        <ele>126</ele>
        <time>2025-04-12T09:26:46Z</time>
      </trkpt>
      <trkpt lat="43.66827" lon="1.3863">
        <ele>126</ele>
        <time>2025-04-12T09:26:47Z</time>
      </trkpt>
      <trkpt lat="43.66827" lon="1.38634">
        <ele>126</ele>
        <time>2025-04-12T09:26:48Z</time>
      </trkpt>
      <trkpt lat="43.66827" lon="1.38638">
        <ele>126</ele>
        <time>2025-04-12T09:26:49Z</time>
      </trkpt>
      <trkpt lat="43.66827" lon="1.38641">
        <ele>126</ele>
        <time>2025-04-12T09:26:50Z</time>
      </trkpt>
      <trkpt lat="43.66827" lon="1.38645">
        <ele>126</ele>
        <time>2025-04-12T09:26:51Z</time>
      </trkpt>
      <trkpt lat="43.66826" lon="1.38649">
        <ele>126</ele>
        <time>2025-04-12T09:26:52Z</time>
      </trkpt>
      <trkpt lat="43.66826" lon="1.38649">
        <ele>126</ele>
        <time>2025-04-12T09:26:53Z</time>
      </trkpt>
      <trkpt lat="43.66823" lon="1.38655">
        <ele>126</ele>
        <time>2025-04-12T09:26:54Z</time>
      </trkpt>
      <trkpt lat="43.66822" lon="1.38659">
        <ele>126</ele>
        <time>2025-04-12T09:26:55Z</time>
      </trkpt>
      <trkpt lat="43.66821" lon="1.38661">
        <ele>126</ele>
        <time>2025-04-12T09:26:56Z</time>
      </trkpt>
      <trkpt lat="43.66821" lon="1.38668">
        <ele>126</ele>
        <time>2025-04-12T09:26:58Z</time>
      </trkpt>
      <trkpt lat="43.66822" lon="1.38671">
        <ele>126</ele>
        <time>2025-04-12T09:26:59Z</time>
      </trkpt>
      <trkpt lat="43.66823" lon="1.38674">
        <ele>126</ele>
        <time>2025-04-12T09:27:00Z</time>
      </trkpt>
      <trkpt lat="43.66823" lon="1.38674">
        <ele>126</ele>
        <time>2025-04-12T09:27:01Z</time>
      </trkpt>
      <trkpt lat="43.66823" lon="1.38681">
        <ele>126</ele>
        <time>2025-04-12T09:27:02Z</time>
      </trkpt>
      <trkpt lat="43.66823" lon="1.38684">
        <ele>126</ele>
        <time>2025-04-12T09:27:03Z</time>
      </trkpt>
      <trkpt lat="43.66823" lon="1.38684">
        <ele>126</ele>
        <time>2025-04-12T09:27:04Z</time>
      </trkpt>
      <trkpt lat="43.66823" lon="1.38691">
        <ele>126</ele>
        <time>2025-04-12T09:27:05Z</time>
      </trkpt>
      <trkpt lat="43.66823" lon="1.38691">
        <ele>126</ele>
        <time>2025-04-12T09:27:06Z</time>
      </trkpt>
      <trkpt lat="43.66822" lon="1.38699">
        <ele>126</ele>
        <time>2025-04-12T09:27:07Z</time>
      </trkpt>
      <trkpt lat="43.66822" lon="1.38699">
        <ele>126</ele>
        <time>2025-04-12T09:27:08Z</time>
      </trkpt>
      <trkpt lat="43.66821" lon="1.38706">
        <ele>126</ele>
        <time>2025-04-12T09:27:09Z</time>
      </trkpt>
      <trkpt lat="43.66821" lon="1.3871">
        <ele>126</ele>
        <time>2025-04-12T09:27:10Z</time>
      </trkpt>
      <trkpt lat="43.66821" lon="1.3871">
        <ele>126</ele>
        <time>2025-04-12T09:27:11Z</time>
      </trkpt>
      <trkpt lat="43.6682" lon="1.38717">
        <ele>126</ele>
        <time>2025-04-12T09:27:12Z</time>
      </trkpt>
      <trkpt lat="43.6682" lon="1.38717">
        <ele>126</ele>
        <time>2025-04-12T09:27:13Z</time>
      </trkpt>
      <trkpt lat="43.66819" lon="1.38724">
        <ele>125</ele>
        <time>2025-04-12T09:27:14Z</time>
      </trkpt>
      <trkpt lat="43.66818" lon="1.38727">
        <ele>125</ele>
        <time>2025-04-12T09:27:15Z</time>
      </trkpt>
      <trkpt lat="43.66817" lon="1.3873">
        <ele>126</ele>
        <time>2025-04-12T09:27:16Z</time>
      </trkpt>
      <trkpt lat="43.66817" lon="1.38734">
        <ele>126</ele>
        <time>2025-04-12T09:27:17Z</time>
      </trkpt>
      <trkpt lat="43.66817" lon="1.38738">
        <ele>126</ele>
        <time>2025-04-12T09:27:18Z</time>
      </trkpt>
      <trkpt lat="43.66816" lon="1.38741">
        <ele>126</ele>
        <time>2025-04-12T09:27:19Z</time>
      </trkpt>
      <trkpt lat="43.66816" lon="1.38741">
        <ele>126</ele>
        <time>2025-04-12T09:27:20Z</time>
      </trkpt>
      <trkpt lat="43.66815" lon="1.38748">
        <ele>126</ele>
        <time>2025-04-12T09:27:21Z</time>
      </trkpt>
      <trkpt lat="43.66815" lon="1.38751">
        <ele>125</ele>
        <time>2025-04-12T09:27:22Z</time>
      </trkpt>
      <trkpt lat="43.66815" lon="1.38751">
        <ele>125</ele>
        <time>2025-04-12T09:27:23Z</time>
      </trkpt>
      <trkpt lat="43.66814" lon="1.38757">
        <ele>125</ele>
        <time>2025-04-12T09:27:24Z</time>
      </trkpt>
      <trkpt lat="43.66813" lon="1.3876">
        <ele>125</ele>
        <time>2025-04-12T09:27:25Z</time>
      </trkpt>
      <trkpt lat="43.66812" lon="1.38763">
        <ele>125</ele>
        <time>2025-04-12T09:27:26Z</time>
      </trkpt>
      <trkpt lat="43.66812" lon="1.38766">
        <ele>125</ele>
        <time>2025-04-12T09:27:27Z</time>
      </trkpt>
      <trkpt lat="43.66811" lon="1.3877">
        <ele>125</ele>
        <time>2025-04-12T09:27:28Z</time>
      </trkpt>
      <trkpt lat="43.6681" lon="1.38773">
        <ele>125</ele>
        <time>2025-04-12T09:27:29Z</time>
      </trkpt>
      <trkpt lat="43.66809" lon="1.38776">
        <ele>126</ele>
        <time>2025-04-12T09:27:30Z</time>
      </trkpt>
      <trkpt lat="43.66808" lon="1.38779">
        <ele>126</ele>
        <time>2025-04-12T09:27:31Z</time>
      </trkpt>
      <trkpt lat="43.66807" lon="1.38783">
        <ele>126</ele>
        <time>2025-04-12T09:27:32Z</time>
      </trkpt>
      <trkpt lat="43.66806" lon="1.38786">
        <ele>126</ele>
        <time>2025-04-12T09:27:33Z</time>
      </trkpt>
      <trkpt lat="43.66806" lon="1.3879">
        <ele>126</ele>
        <time>2025-04-12T09:27:34Z</time>
      </trkpt>
      <trkpt lat="43.66806" lon="1.3879">
        <ele>126</ele>
        <time>2025-04-12T09:27:35Z</time>
      </trkpt>
      <trkpt lat="43.66805" lon="1.38798">
        <ele>126</ele>
        <time>2025-04-12T09:27:36Z</time>
      </trkpt>
      <trkpt lat="43.66806" lon="1.38802">
        <ele>126</ele>
        <time>2025-04-12T09:27:37Z</time>
      </trkpt>
      <trkpt lat="43.66806" lon="1.38806">
        <ele>126</ele>
        <time>2025-04-12T09:27:38Z</time>
      </trkpt>
      <trkpt lat="43.66806" lon="1.38806">
        <ele>126</ele>
        <time>2025-04-12T09:27:39Z</time>
      </trkpt>
      <trkpt lat="43.66807" lon="1.38813">
        <ele>126</ele>
        <time>2025-04-12T09:27:40Z</time>
      </trkpt>
      <trkpt lat="43.66807" lon="1.38817">
        <ele>126</ele>
        <time>2025-04-12T09:27:41Z</time>
      </trkpt>
      <trkpt lat="43.66807" lon="1.38817">
        <ele>126</ele>
        <time>2025-04-12T09:27:42Z</time>
      </trkpt>
      <trkpt lat="43.66808" lon="1.38824">
        <ele>126</ele>
        <time>2025-04-12T09:27:43Z</time>
      </trkpt>
      <trkpt lat="43.66808" lon="1.38824">
        <ele>126</ele>
        <time>2025-04-12T09:27:44Z</time>
      </trkpt>
      <trkpt lat="43.66811" lon="1.3883">
        <ele>126</ele>
        <time>2025-04-12T09:27:45Z</time>
      </trkpt>
      <trkpt lat="43.66813" lon="1.38833">
        <ele>126</ele>
        <time>2025-04-12T09:27:46Z</time>
      </trkpt>
      <trkpt lat="43.66813" lon="1.38837">
        <ele>126</ele>
        <time>2025-04-12T09:27:47Z</time>
      </trkpt>
      <trkpt lat="43.66811" lon="1.3884">
        <ele>126</ele>
        <time>2025-04-12T09:27:48Z</time>
      </trkpt>
      <trkpt lat="43.66811" lon="1.3884">
        <ele>126</ele>
        <time>2025-04-12T09:27:49Z</time>
      </trkpt>
      <trkpt lat="43.66807" lon="1.38844">
        <ele>126</ele>
        <time>2025-04-12T09:27:50Z</time>
      </trkpt>
      <trkpt lat="43.66807" lon="1.38847">
        <ele>126</ele>
        <time>2025-04-12T09:27:51Z</time>
      </trkpt>
      <trkpt lat="43.66806" lon="1.38851">
        <ele>126</ele>
        <time>2025-04-12T09:27:52Z</time>
      </trkpt>
      <trkpt lat="43.66806" lon="1.38854">
        <ele>126</ele>
        <time>2025-04-12T09:27:53Z</time>
      </trkpt>
      <trkpt lat="43.66806" lon="1.38854">
        <ele>126</ele>
        <time>2025-04-12T09:27:54Z</time>
      </trkpt>
      <trkpt lat="43.66806" lon="1.38862">
        <ele>126</ele>
        <time>2025-04-12T09:27:55Z</time>
      </trkpt>
      <trkpt lat="43.66806" lon="1.38862">
        <ele>126</ele>
        <time>2025-04-12T09:27:56Z</time>
      </trkpt>
      <trkpt lat="43.66804" lon="1.3887">
        <ele>126</ele>
        <time>2025-04-12T09:27:57Z</time>
      </trkpt>
      <trkpt lat="43.66804" lon="1.3887">
        <ele>126</ele>
        <time>2025-04-12T09:27:58Z</time>
      </trkpt>
      <trkpt lat="43.66803" lon="1.38873">
        <ele>126</ele>
        <time>2025-04-12T09:27:59Z</time>
      </trkpt>
      <trkpt lat="43.66799" lon="1.38879">
        <ele>126</ele>
        <time>2025-04-12T09:28:00Z</time>
      </trkpt>
      <trkpt lat="43.66797" lon="1.38883">
        <ele>126</ele>
        <time>2025-04-12T09:28:01Z</time>
      </trkpt>
      <trkpt lat="43.66795" lon="1.38886">
        <ele>126</ele>
        <time>2025-04-12T09:28:02Z</time>
      </trkpt>
      <trkpt lat="43.66794" lon="1.38888">
        <ele>126</ele>
        <time>2025-04-12T09:28:03Z</time>
      </trkpt>
      <trkpt lat="43.66793" lon="1.38891">
        <ele>126</ele>
        <time>2025-04-12T09:28:04Z</time>
      </trkpt>
      <trkpt lat="43.66793" lon="1.38894">
        <ele>126</ele>
        <time>2025-04-12T09:28:05Z</time>
      </trkpt>
      <trkpt lat="43.66793" lon="1.38894">
        <ele>126</ele>
        <time>2025-04-12T09:28:06Z</time>
      </trkpt>
      <trkpt lat="43.66795" lon="1.38901">
        <ele>126</ele>
        <time>2025-04-12T09:28:07Z</time>
      </trkpt>
      <trkpt lat="43.66796" lon="1.38905">
        <ele>126</ele>
        <time>2025-04-12T09:28:08Z</time>
      </trkpt>
      <trkpt lat="43.66796" lon="1.38908">
        <ele>126</ele>
        <time>2025-04-12T09:28:09Z</time>
      </trkpt>
      <trkpt lat="43.66794" lon="1.38911">
        <ele>126</ele>
        <time>2025-04-12T09:28:10Z</time>
      </trkpt>
      <trkpt lat="43.66792" lon="1.38914">
        <ele>126</ele>
        <time>2025-04-12T09:28:11Z</time>
      </trkpt>
      <trkpt lat="43.66791" lon="1.38916">
        <ele>126</ele>
        <time>2025-04-12T09:28:12Z</time>
      </trkpt>
      <trkpt lat="43.66791" lon="1.38916">
        <ele>126</ele>
        <time>2025-04-12T09:28:13Z</time>
      </trkpt>
      <trkpt lat="43.66788" lon="1.38922">
        <ele>126</ele>
        <time>2025-04-12T09:28:14Z</time>
      </trkpt>
      <trkpt lat="43.66786" lon="1.38924">
        <ele>126</ele>
        <time>2025-04-12T09:28:15Z</time>
      </trkpt>
      <trkpt lat="43.66786" lon="1.38924">
        <ele>125</ele>
        <time>2025-04-12T09:28:16Z</time>
      </trkpt>
      <trkpt lat="43.66784" lon="1.38928">
        <ele>125</ele>
        <time>2025-04-12T09:28:17Z</time>
      </trkpt>
      <trkpt lat="43.66784" lon="1.38928">
        <ele>125</ele>
        <time>2025-04-12T09:28:18Z</time>
      </trkpt>
      <trkpt lat="43.66783" lon="1.38932">
        <ele>125</ele>
        <time>2025-04-12T09:28:19Z</time>
      </trkpt>
      <trkpt lat="43.66783" lon="1.38932">
        <ele>126</ele>
        <time>2025-04-12T09:28:20Z</time>
      </trkpt>
      <trkpt lat="43.66782" lon="1.38936">
        <ele>126</ele>
        <time>2025-04-12T09:28:21Z</time>
      </trkpt>
      <trkpt lat="43.66782" lon="1.38936">
        <ele>126</ele>
        <time>2025-04-12T09:28:22Z</time>
      </trkpt>
      <trkpt lat="43.66782" lon="1.3894">
        <ele>126</ele>
        <time>2025-04-12T09:28:23Z</time>
      </trkpt>
      <trkpt lat="43.66782" lon="1.3894">
        <ele>126</ele>
        <time>2025-04-12T09:28:24Z</time>
      </trkpt>
      <trkpt lat="43.66782" lon="1.38944">
        <ele>126</ele>
        <time>2025-04-12T09:28:25Z</time>
      </trkpt>
      <trkpt lat="43.66782" lon="1.38944">
        <ele>126</ele>
        <time>2025-04-12T09:28:26Z</time>
      </trkpt>
      <trkpt lat="43.66783" lon="1.38948">
        <ele>126</ele>
        <time>2025-04-12T09:28:27Z</time>
      </trkpt>
      <trkpt lat="43.66783" lon="1.38948">
        <ele>126</ele>
        <time>2025-04-12T09:28:28Z</time>
      </trkpt>
      <trkpt lat="43.66784" lon="1.38952">
        <ele>126</ele>
        <time>2025-04-12T09:28:29Z</time>
      </trkpt>
      <trkpt lat="43.66784" lon="1.38952">
        <ele>125</ele>
        <time>2025-04-12T09:28:30Z</time>
      </trkpt>
      <trkpt lat="43.66784" lon="1.38955">
        <ele>125</ele>
        <time>2025-04-12T09:28:31Z</time>
      </trkpt>
      <trkpt lat="43.66784" lon="1.38955">
        <ele>125</ele>
        <time>2025-04-12T09:28:32Z</time>
      </trkpt>
      <trkpt lat="43.66784" lon="1.38955">
        <ele>125</ele>
        <time>2025-04-12T09:28:33Z</time>
      </trkpt>
      <trkpt lat="43.66783" lon="1.38959">
        <ele>125</ele>
        <time>2025-04-12T09:28:34Z</time>
      </trkpt>
      <trkpt lat="43.66782" lon="1.38963">
        <ele>125</ele>
        <time>2025-04-12T09:28:35Z</time>
      </trkpt>
      <trkpt lat="43.66782" lon="1.38963">
        <ele>126</ele>
        <time>2025-04-12T09:28:36Z</time>
      </trkpt>
      <trkpt lat="43.66781" lon="1.38967">
        <ele>127</ele>
        <time>2025-04-12T09:28:37Z</time>
      </trkpt>
      <trkpt lat="43.66781" lon="1.38967">
        <ele>127</ele>
        <time>2025-04-12T09:28:38Z</time>
      </trkpt>
      <trkpt lat="43.66778" lon="1.3897">
        <ele>127</ele>
        <time>2025-04-12T09:28:39Z</time>
      </trkpt>
      <trkpt lat="43.66778" lon="1.3897">
        <ele>126</ele>
        <time>2025-04-12T09:28:40Z</time>
      </trkpt>
      <trkpt lat="43.66776" lon="1.38973">
        <ele>126</ele>
        <time>2025-04-12T09:28:41Z</time>
      </trkpt>
      <trkpt lat="43.66776" lon="1.38973">
        <ele>126</ele>
        <time>2025-04-12T09:28:42Z</time>
      </trkpt>
      <trkpt lat="43.66775" lon="1.38978">
        <ele>126</ele>
        <time>2025-04-12T09:28:43Z</time>
      </trkpt>
      <trkpt lat="43.66774" lon="1.38982">
        <ele>125</ele>
        <time>2025-04-12T09:28:44Z</time>
      </trkpt>
      <trkpt lat="43.66773" lon="1.38986">
        <ele>125</ele>
        <time>2025-04-12T09:28:45Z</time>
      </trkpt>
      <trkpt lat="43.66773" lon="1.38989">
        <ele>125</ele>
        <time>2025-04-12T09:28:46Z</time>
      </trkpt>
      <trkpt lat="43.66773" lon="1.38992">
        <ele>125</ele>
        <time>2025-04-12T09:28:47Z</time>
      </trkpt>
      <trkpt lat="43.66773" lon="1.38995">
        <ele>125</ele>
        <time>2025-04-12T09:28:48Z</time>
      </trkpt>
      <trkpt lat="43.66774" lon="1.38998">
        <ele>125</ele>
        <time>2025-04-12T09:28:49Z</time>
      </trkpt>
      <trkpt lat="43.66774" lon="1.39002">
        <ele>125</ele>
        <time>2025-04-12T09:28:50Z</time>
      </trkpt>
      <trkpt lat="43.66774" lon="1.39002">
        <ele>125</ele>
        <time>2025-04-12T09:28:51Z</time>
      </trkpt>
      <trkpt lat="43.66775" lon="1.39009">
        <ele>125</ele>
        <time>2025-04-12T09:28:52Z</time>
      </trkpt>
      <trkpt lat="43.66774" lon="1.39012">
        <ele>125</ele>
        <time>2025-04-12T09:28:53Z</time>
      </trkpt>
      <trkpt lat="43.66774" lon="1.39012">
        <ele>125</ele>
        <time>2025-04-12T09:28:54Z</time>
      </trkpt>
      <trkpt lat="43.66773" lon="1.3902">
        <ele>125</ele>
        <time>2025-04-12T09:28:55Z</time>
      </trkpt>
      <trkpt lat="43.66773" lon="1.3902">
        <ele>125</ele>
        <time>2025-04-12T09:28:56Z</time>
      </trkpt>
      <trkpt lat="43.66772" lon="1.39026">
        <ele>125</ele>
        <time>2025-04-12T09:28:57Z</time>
      </trkpt>
      <trkpt lat="43.66772" lon="1.39026">
        <ele>125</ele>
        <time>2025-04-12T09:28:58Z</time>
      </trkpt>
      <trkpt lat="43.66772" lon="1.39033">
        <ele>125</ele>
        <time>2025-04-12T09:28:59Z</time>
      </trkpt>
      <trkpt lat="43.66771" lon="1.39037">
        <ele>125</ele>
        <time>2025-04-12T09:29:00Z</time>
      </trkpt>
      <trkpt lat="43.66771" lon="1.39037">
        <ele>125</ele>
        <time>2025-04-12T09:29:01Z</time>
      </trkpt>
      <trkpt lat="43.66769" lon="1.39045">
        <ele>125</ele>
        <time>2025-04-12T09:29:02Z</time>
      </trkpt>
      <trkpt lat="43.66769" lon="1.39045">
        <ele>126</ele>
        <time>2025-04-12T09:29:03Z</time>
      </trkpt>
      <trkpt lat="43.66768" lon="1.39053">
        <ele>126</ele>
        <time>2025-04-12T09:29:04Z</time>
      </trkpt>
      <trkpt lat="43.66768" lon="1.39057">
        <ele>126</ele>
        <time>2025-04-12T09:29:05Z</time>
      </trkpt>
      <trkpt lat="43.66768" lon="1.3906">
        <ele>126</ele>
        <time>2025-04-12T09:29:06Z</time>
      </trkpt>
      <trkpt lat="43.66767" lon="1.39065">
        <ele>126</ele>
        <time>2025-04-12T09:29:08Z</time>
      </trkpt>
      <trkpt lat="43.66765" lon="1.39072">
        <ele>126</ele>
        <time>2025-04-12T09:29:09Z</time>
      </trkpt>
      <trkpt lat="43.66765" lon="1.39072">
        <ele>126</ele>
        <time>2025-04-12T09:29:10Z</time>
      </trkpt>
      <trkpt lat="43.66764" lon="1.39079">
        <ele>126</ele>
        <time>2025-04-12T09:29:11Z</time>
      </trkpt>
      <trkpt lat="43.66764" lon="1.39083">
        <ele>126</ele>
        <time>2025-04-12T09:29:12Z</time>
      </trkpt>
      <trkpt lat="43.66764" lon="1.39087">
        <ele>126</ele>
        <time>2025-04-12T09:29:13Z</time>
      </trkpt>
      <trkpt lat="43.66764" lon="1.3909">
        <ele>126</ele>
        <time>2025-04-12T09:29:14Z</time>
      </trkpt>
      <trkpt lat="43.66764" lon="1.39095">
        <ele>126</ele>
        <time>2025-04-12T09:29:15Z</time>
      </trkpt>
      <trkpt lat="43.66764" lon="1.39099">
        <ele>126</ele>
        <time>2025-04-12T09:29:16Z</time>
      </trkpt>
      <trkpt lat="43.66764" lon="1.39099">
        <ele>126</ele>
        <time>2025-04-12T09:29:17Z</time>
      </trkpt>
      <trkpt lat="43.66762" lon="1.39106">
        <ele>126</ele>
        <time>2025-04-12T09:29:18Z</time>
      </trkpt>
      <trkpt lat="43.66762" lon="1.39106">
        <ele>126</ele>
        <time>2025-04-12T09:29:19Z</time>
      </trkpt>
      <trkpt lat="43.66761" lon="1.39114">
        <ele>126</ele>
        <time>2025-04-12T09:29:20Z</time>
      </trkpt>
      <trkpt lat="43.6676" lon="1.39117">
        <ele>126</ele>
        <time>2025-04-12T09:29:21Z</time>
      </trkpt>
      <trkpt lat="43.6676" lon="1.39121">
        <ele>126</ele>
        <time>2025-04-12T09:29:22Z</time>
      </trkpt>
      <trkpt lat="43.6676" lon="1.39125">
        <ele>126</ele>
        <time>2025-04-12T09:29:23Z</time>
      </trkpt>
      <trkpt lat="43.6676" lon="1.39125">
        <ele>126</ele>
        <time>2025-04-12T09:29:24Z</time>
      </trkpt>
      <trkpt lat="43.66759" lon="1.39132">
        <ele>126</ele>
        <time>2025-04-12T09:29:25Z</time>
      </trkpt>
      <trkpt lat="43.66759" lon="1.39136">
        <ele>126</ele>
        <time>2025-04-12T09:29:26Z</time>
      </trkpt>
      <trkpt lat="43.66759" lon="1.3914">
        <ele>126</ele>
        <time>2025-04-12T09:29:27Z</time>
      </trkpt>
      <trkpt lat="43.66759" lon="1.39144">
        <ele>126</ele>
        <time>2025-04-12T09:29:28Z</time>
      </trkpt>
      <trkpt lat="43.6676" lon="1.39147">
        <ele>126</ele>
        <time>2025-04-12T09:29:29Z</time>
      </trkpt>
      <trkpt lat="43.6676" lon="1.39151">
        <ele>126</ele>
        <time>2025-04-12T09:29:30Z</time>
      </trkpt>
      <trkpt lat="43.6676" lon="1.39151">
        <ele>126</ele>
        <time>2025-04-12T09:29:31Z</time>
      </trkpt>
      <trkpt lat="43.66759" lon="1.39158">
        <ele>126</ele>
        <time>2025-04-12T09:29:32Z</time>
      </trkpt>
      <trkpt lat="43.6676" lon="1.39162">
        <ele>126</ele>
        <time>2025-04-12T09:29:33Z</time>
      </trkpt>
      <trkpt lat="43.6676" lon="1.39166">
        <ele>125</ele>
        <time>2025-04-12T09:29:34Z</time>
      </trkpt>
      <trkpt lat="43.66761" lon="1.3917">
        <ele>125</ele>
        <time>2025-04-12T09:29:35Z</time>
      </trkpt>
      <trkpt lat="43.66762" lon="1.39174">
        <ele>125</ele>
        <time>2025-04-12T09:29:36Z</time>
      </trkpt>
      <trkpt lat="43.66762" lon="1.39178">
        <ele>125</ele>
        <time>2025-04-12T09:29:37Z</time>
      </trkpt>
      <trkpt lat="43.66762" lon="1.39178">
        <ele>126</ele>
        <time>2025-04-12T09:29:38Z</time>
      </trkpt>
      <trkpt lat="43.66762" lon="1.39186">
        <ele>126</ele>
        <time>2025-04-12T09:29:39Z</time>
      </trkpt>
      <trkpt lat="43.66762" lon="1.3919">
        <ele>126</ele>
        <time>2025-04-12T09:29:40Z</time>
      </trkpt>
      <trkpt lat="43.66761" lon="1.39193">
        <ele>125</ele>
        <time>2025-04-12T09:29:41Z</time>
      </trkpt>
      <trkpt lat="43.66761" lon="1.39197">
        <ele>125</ele>
        <time>2025-04-12T09:29:43Z</time>
      </trkpt>
      <trkpt lat="43.66761" lon="1.39204">
        <ele>125</ele>
        <time>2025-04-12T09:29:44Z</time>
      </trkpt>
      <trkpt lat="43.66761" lon="1.39208">
        <ele>125</ele>
        <time>2025-04-12T09:29:45Z</time>
      </trkpt>
      <trkpt lat="43.6676" lon="1.39212">
        <ele>126</ele>
        <time>2025-04-12T09:29:46Z</time>
      </trkpt>
      <trkpt lat="43.66759" lon="1.39215">
        <ele>126</ele>
        <time>2025-04-12T09:29:47Z</time>
      </trkpt>
      <trkpt lat="43.66758" lon="1.39219">
        <ele>126</ele>
        <time>2025-04-12T09:29:48Z</time>
      </trkpt>
      <trkpt lat="43.66757" lon="1.39222">
        <ele>126</ele>
        <time>2025-04-12T09:29:49Z</time>
      </trkpt>
      <trkpt lat="43.66757" lon="1.39226">
        <ele>126</ele>
        <time>2025-04-12T09:29:50Z</time>
      </trkpt>
      <trkpt lat="43.66757" lon="1.39226">
        <ele>126</ele>
        <time>2025-04-12T09:29:51Z</time>
      </trkpt>
      <trkpt lat="43.66757" lon="1.39234">
        <ele>126</ele>
        <time>2025-04-12T09:29:52Z</time>
      </trkpt>
      <trkpt lat="43.66757" lon="1.39234">
        <ele>126</ele>
        <time>2025-04-12T09:29:53Z</time>
      </trkpt>
      <trkpt lat="43.66758" lon="1.39241">
        <ele>126</ele>
        <time>2025-04-12T09:29:54Z</time>
      </trkpt>
      <trkpt lat="43.66758" lon="1.39241">
        <ele>126</ele>
        <time>2025-04-12T09:29:55Z</time>
      </trkpt>
      <trkpt lat="43.66759" lon="1.39248">
        <ele>126</ele>
        <time>2025-04-12T09:29:56Z</time>
      </trkpt>
      <trkpt lat="43.6676" lon="1.39251">
        <ele>126</ele>
        <time>2025-04-12T09:29:57Z</time>
      </trkpt>
      <trkpt lat="43.6676" lon="1.39255">
        <ele>126</ele>
        <time>2025-04-12T09:29:58Z</time>
      </trkpt>
      <trkpt lat="43.6676" lon="1.39258">
        <ele>126</ele>
        <time>2025-04-12T09:29:59Z</time>
      </trkpt>
      <trkpt lat="43.66761" lon="1.39261">
        <ele>126</ele>
        <time>2025-04-12T09:30:00Z</time>
      </trkpt>
      <trkpt lat="43.66761" lon="1.39261">
        <ele>126</ele>
        <time>2025-04-12T09:30:01Z</time>
      </trkpt>
      <trkpt lat="43.66763" lon="1.39268">
        <ele>127</ele>
        <time>2025-04-12T09:30:02Z</time>
      </trkpt>
      <trkpt lat="43.66763" lon="1.39272">
        <ele>127</ele>
        <time>2025-04-12T09:30:03Z</time>
      </trkpt>
      <trkpt lat="43.66763" lon="1.39272">
        <ele>127</ele>
        <time>2025-04-12T09:30:04Z</time>
      </trkpt>
      <trkpt lat="43.66764" lon="1.39279">
        <ele>127</ele>
        <time>2025-04-12T09:30:05Z</time>
      </trkpt>
      <trkpt lat="43.66764" lon="1.39283">
        <ele>127</ele>
        <time>2025-04-12T09:30:06Z</time>
      </trkpt>
      <trkpt lat="43.66764" lon="1.39287">
        <ele>127</ele>
        <time>2025-04-12T09:30:07Z</time>
      </trkpt>
      <trkpt lat="43.66764" lon="1.39291">
        <ele>127</ele>
        <time>2025-04-12T09:30:08Z</time>
      </trkpt>
      <trkpt lat="43.66765" lon="1.39294">
        <ele>127</ele>
        <time>2025-04-12T09:30:09Z</time>
      </trkpt>
      <trkpt lat="43.66766" lon="1.39297">
        <ele>126</ele>
        <time>2025-04-12T09:30:10Z</time>
      </trkpt>
      <trkpt lat="43.66767" lon="1.39301">
        <ele>126</ele>
        <time>2025-04-12T09:30:11Z</time>
      </trkpt>
      <trkpt lat="43.66767" lon="1.39304">
        <ele>126</ele>
        <time>2025-04-12T09:30:12Z</time>
      </trkpt>
      <trkpt lat="43.66767" lon="1.39304">
        <ele>126</ele>
        <time>2025-04-12T09:30:13Z</time>
      </trkpt>
      <trkpt lat="43.66769" lon="1.39311">
        <ele>126</ele>
        <time>2025-04-12T09:30:14Z</time>
      </trkpt>
      <trkpt lat="43.6677" lon="1.39315">
        <ele>126</ele>
        <time>2025-04-12T09:30:15Z</time>
      </trkpt>
      <trkpt lat="43.66771" lon="1.39319">
        <ele>126</ele>
        <time>2025-04-12T09:30:16Z</time>
      </trkpt>
      <trkpt lat="43.66772" lon="1.39322">
        <ele>126</ele>
        <time>2025-04-12T09:30:17Z</time>
      </trkpt>
      <trkpt lat="43.66772" lon="1.39326">
        <ele>126</ele>
        <time>2025-04-12T09:30:18Z</time>
      </trkpt>
      <trkpt lat="43.66773" lon="1.3933">
        <ele>126</ele>
        <time>2025-04-12T09:30:19Z</time>
      </trkpt>
      <trkpt lat="43.66774" lon="1.39334">
        <ele>127</ele>
        <time>2025-04-12T09:30:20Z</time>
      </trkpt>
      <trkpt lat="43.66774" lon="1.39338">
        <ele>127</ele>
        <time>2025-04-12T09:30:21Z</time>
      </trkpt>
      <trkpt lat="43.66774" lon="1.39342">
        <ele>127</ele>
        <time>2025-04-12T09:30:22Z</time>
      </trkpt>
      <trkpt lat="43.66774" lon="1.39342">
        <ele>127</ele>
        <time>2025-04-12T09:30:23Z</time>
      </trkpt>
      <trkpt lat="43.66773" lon="1.39349">
        <ele>127</ele>
        <time>2025-04-12T09:30:24Z</time>
      </trkpt>
      <trkpt lat="43.66773" lon="1.39349">
        <ele>127</ele>
        <time>2025-04-12T09:30:25Z</time>
      </trkpt>
      <trkpt lat="43.66773" lon="1.39353">
        <ele>127</ele>
        <time>2025-04-12T09:30:26Z</time>
      </trkpt>
      <trkpt lat="43.66772" lon="1.3936">
        <ele>127</ele>
        <time>2025-04-12T09:30:27Z</time>
      </trkpt>
      <trkpt lat="43.66772" lon="1.39364">
        <ele>127</ele>
        <time>2025-04-12T09:30:28Z</time>
      </trkpt>
      <trkpt lat="43.66773" lon="1.39367">
        <ele>127</ele>
        <time>2025-04-12T09:30:29Z</time>
      </trkpt>
      <trkpt lat="43.66773" lon="1.39367">
        <ele>127</ele>
        <time>2025-04-12T09:30:30Z</time>
      </trkpt>
      <trkpt lat="43.66776" lon="1.39373">
        <ele>127</ele>
        <time>2025-04-12T09:30:31Z</time>
      </trkpt>
      <trkpt lat="43.66777" lon="1.39376">
        <ele>127</ele>
        <time>2025-04-12T09:30:32Z</time>
      </trkpt>
      <trkpt lat="43.66778" lon="1.3938">
        <ele>127</ele>
        <time>2025-04-12T09:30:33Z</time>
      </trkpt>
      <trkpt lat="43.66778" lon="1.39384">
        <ele>126</ele>
        <time>2025-04-12T09:30:34Z</time>
      </trkpt>
      <trkpt lat="43.66779" lon="1.39388">
        <ele>126</ele>
        <time>2025-04-12T09:30:35Z</time>
      </trkpt>
      <trkpt lat="43.66781" lon="1.39392">
        <ele>126</ele>
        <time>2025-04-12T09:30:36Z</time>
      </trkpt>
      <trkpt lat="43.66781" lon="1.39392">
        <ele>126</ele>
        <time>2025-04-12T09:30:37Z</time>
      </trkpt>
      <trkpt lat="43.66782" lon="1.39395">
        <ele>126</ele>
        <time>2025-04-12T09:30:38Z</time>
      </trkpt>
      <trkpt lat="43.66786" lon="1.39401">
        <ele>126</ele>
        <time>2025-04-12T09:30:39Z</time>
      </trkpt>
      <trkpt lat="43.66787" lon="1.39404">
        <ele>126</ele>
        <time>2025-04-12T09:30:40Z</time>
      </trkpt>
      <trkpt lat="43.66787" lon="1.39404">
        <ele>126</ele>
        <time>2025-04-12T09:30:41Z</time>
      </trkpt>
      <trkpt lat="43.66788" lon="1.39412">
        <ele>126</ele>
        <time>2025-04-12T09:30:42Z</time>
      </trkpt>
      <trkpt lat="43.66788" lon="1.39416">
        <ele>127</ele>
        <time>2025-04-12T09:30:43Z</time>
      </trkpt>
      <trkpt lat="43.66788" lon="1.3942">
        <ele>127</ele>
        <time>2025-04-12T09:30:44Z</time>
      </trkpt>
      <trkpt lat="43.66789" lon="1.39424">
        <ele>127</ele>
        <time>2025-04-12T09:30:45Z</time>
      </trkpt>
      <trkpt lat="43.66788" lon="1.39428">
        <ele>127</ele>
        <time>2025-04-12T09:30:46Z</time>
      </trkpt>
      <trkpt lat="43.66788" lon="1.39428">
        <ele>127</ele>
        <time>2025-04-12T09:30:47Z</time>
      </trkpt>
      <trkpt lat="43.66789" lon="1.39436">
        <ele>127</ele>
        <time>2025-04-12T09:30:48Z</time>
      </trkpt>
      <trkpt lat="43.66789" lon="1.3944">
        <ele>127</ele>
        <time>2025-04-12T09:30:49Z</time>
      </trkpt>
      <trkpt lat="43.6679" lon="1.39444">
        <ele>127</ele>
        <time>2025-04-12T09:30:50Z</time>
      </trkpt>
      <trkpt lat="43.6679" lon="1.39448">
        <ele>127</ele>
        <time>2025-04-12T09:30:51Z</time>
      </trkpt>
      <trkpt lat="43.6679" lon="1.39448">
        <ele>127</ele>
        <time>2025-04-12T09:30:52Z</time>
      </trkpt>
      <trkpt lat="43.66789" lon="1.39455">
        <ele>127</ele>
        <time>2025-04-12T09:30:53Z</time>
      </trkpt>
      <trkpt lat="43.66789" lon="1.39455">
        <ele>127</ele>
        <time>2025-04-12T09:30:54Z</time>
      </trkpt>
      <trkpt lat="43.66789" lon="1.39459">
        <ele>127</ele>
        <time>2025-04-12T09:30:55Z</time>
      </trkpt>
      <trkpt lat="43.66788" lon="1.39466">
        <ele>127</ele>
        <time>2025-04-12T09:30:56Z</time>
      </trkpt>
      <trkpt lat="43.66788" lon="1.3947">
        <ele>127</ele>
        <time>2025-04-12T09:30:57Z</time>
      </trkpt>
      <trkpt lat="43.66788" lon="1.3947">
        <ele>127</ele>
        <time>2025-04-12T09:30:58Z</time>
      </trkpt>
      <trkpt lat="43.66787" lon="1.39477">
        <ele>127</ele>
        <time>2025-04-12T09:30:59Z</time>
      </trkpt>
      <trkpt lat="43.66787" lon="1.39477">
        <ele>127</ele>
        <time>2025-04-12T09:31:00Z</time>
      </trkpt>
      <trkpt lat="43.66788" lon="1.39484">
        <ele>127</ele>
        <time>2025-04-12T09:31:01Z</time>
      </trkpt>
      <trkpt lat="43.66788" lon="1.39484">
        <ele>127</ele>
        <time>2025-04-12T09:31:02Z</time>
      </trkpt>
      <trkpt lat="43.6679" lon="1.39491">
        <ele>127</ele>
        <time>2025-04-12T09:31:03Z</time>
      </trkpt>
      <trkpt lat="43.66793" lon="1.39499">
        <ele>127</ele>
        <time>2025-04-12T09:31:05Z</time>
      </trkpt>
      <trkpt lat="43.66794" lon="1.39503">
        <ele>127</ele>
        <time>2025-04-12T09:31:06Z</time>
      </trkpt>
      <trkpt lat="43.66793" lon="1.39507">
        <ele>127</ele>
        <time>2025-04-12T09:31:07Z</time>
      </trkpt>
      <trkpt lat="43.66793" lon="1.39511">
        <ele>127</ele>
        <time>2025-04-12T09:31:08Z</time>
      </trkpt>
      <trkpt lat="43.66792" lon="1.39515">
        <ele>126</ele>
        <time>2025-04-12T09:31:09Z</time>
      </trkpt>
      <trkpt lat="43.66792" lon="1.39518">
        <ele>126</ele>
        <time>2025-04-12T09:31:10Z</time>
      </trkpt>
      <trkpt lat="43.66792" lon="1.39522">
        <ele>127</ele>
        <time>2025-04-12T09:31:11Z</time>
      </trkpt>
      <trkpt lat="43.66793" lon="1.39526">
        <ele>127</ele>
        <time>2025-04-12T09:31:12Z</time>
      </trkpt>
      <trkpt lat="43.66792" lon="1.3953">
        <ele>127</ele>
        <time>2025-04-12T09:31:13Z</time>
      </trkpt>
      <trkpt lat="43.66792" lon="1.39533">
        <ele>127</ele>
        <time>2025-04-12T09:31:14Z</time>
      </trkpt>
      <trkpt lat="43.66792" lon="1.39533">
        <ele>127</ele>
        <time>2025-04-12T09:31:15Z</time>
      </trkpt>
      <trkpt lat="43.66791" lon="1.39541">
        <ele>127</ele>
        <time>2025-04-12T09:31:16Z</time>
      </trkpt>
      <trkpt lat="43.66791" lon="1.39545">
        <ele>127</ele>
        <time>2025-04-12T09:31:17Z</time>
      </trkpt>
      <trkpt lat="43.6679" lon="1.39548">
        <ele>127</ele>
        <time>2025-04-12T09:31:18Z</time>
      </trkpt>
      <trkpt lat="43.6679" lon="1.39552">
        <ele>127</ele>
        <time>2025-04-12T09:31:19Z</time>
      </trkpt>
      <trkpt lat="43.66789" lon="1.39555">
        <ele>127</ele>
        <time>2025-04-12T09:31:20Z</time>
      </trkpt>
      <trkpt lat="43.66789" lon="1.3956">
        <ele>127</ele>
        <time>2025-04-12T09:31:21Z</time>
      </trkpt>
      <trkpt lat="43.66789" lon="1.3956">
        <ele>127</ele>
        <time>2025-04-12T09:31:22Z</time>
      </trkpt>
      <trkpt lat="43.66789" lon="1.39564">
        <ele>127</ele>
        <time>2025-04-12T09:31:23Z</time>
      </trkpt>
      <trkpt lat="43.66789" lon="1.39572">
        <ele>127</ele>
        <time>2025-04-12T09:31:24Z</time>
      </trkpt>
      <trkpt lat="43.66789" lon="1.39572">
        <ele>127</ele>
        <time>2025-04-12T09:31:25Z</time>
      </trkpt>
      <trkpt lat="43.66789" lon="1.39579">
        <ele>127</ele>
        <time>2025-04-12T09:31:26Z</time>
      </trkpt>
      <trkpt lat="43.66789" lon="1.39579">
        <ele>127</ele>
        <time>2025-04-12T09:31:27Z</time>
      </trkpt>
      <trkpt lat="43.66788" lon="1.39587">
        <ele>127</ele>
        <time>2025-04-12T09:31:28Z</time>
      </trkpt>
      <trkpt lat="43.66788" lon="1.39591">
        <ele>127</ele>
        <time>2025-04-12T09:31:29Z</time>
      </trkpt>
      <trkpt lat="43.66788" lon="1.39595">
        <ele>127</ele>
        <time>2025-04-12T09:31:30Z</time>
      </trkpt>
      <trkpt lat="43.66788" lon="1.39599">
        <ele>126</ele>
        <time>2025-04-12T09:31:32Z</time>
      </trkpt>
      <trkpt lat="43.66787" lon="1.39606">
        <ele>126</ele>
        <time>2025-04-12T09:31:33Z</time>
      </trkpt>
      <trkpt lat="43.66787" lon="1.39609">
        <ele>127</ele>
        <time>2025-04-12T09:31:34Z</time>
      </trkpt>
      <trkpt lat="43.66787" lon="1.39613">
        <ele>127</ele>
        <time>2025-04-12T09:31:35Z</time>
      </trkpt>
      <trkpt lat="43.66786" lon="1.39618">
        <ele>127</ele>
        <time>2025-04-12T09:31:36Z</time>
      </trkpt>
      <trkpt lat="43.66786" lon="1.39618">
        <ele>127</ele>
        <time>2025-04-12T09:31:37Z</time>
      </trkpt>
      <trkpt lat="43.66786" lon="1.39625">
        <ele>127</ele>
        <time>2025-04-12T09:31:38Z</time>
      </trkpt>
      <trkpt lat="43.66786" lon="1.39625">
        <ele>127</ele>
        <time>2025-04-12T09:31:39Z</time>
      </trkpt>
      <trkpt lat="43.66786" lon="1.39633">
        <ele>127</ele>
        <time>2025-04-12T09:31:40Z</time>
      </trkpt>
      <trkpt lat="43.66787" lon="1.39637">
        <ele>126</ele>
        <time>2025-04-12T09:31:41Z</time>
      </trkpt>
      <trkpt lat="43.66787" lon="1.39641">
        <ele>126</ele>
        <time>2025-04-12T09:31:42Z</time>
      </trkpt>
      <trkpt lat="43.66787" lon="1.39644">
        <ele>127</ele>
        <time>2025-04-12T09:31:43Z</time>
      </trkpt>
      <trkpt lat="43.66787" lon="1.39648">
        <ele>127</ele>
        <time>2025-04-12T09:31:44Z</time>
      </trkpt>
      <trkpt lat="43.66787" lon="1.39651">
        <ele>127</ele>
        <time>2025-04-12T09:31:45Z</time>
      </trkpt>
      <trkpt lat="43.66787" lon="1.39655">
        <ele>126</ele>
        <time>2025-04-12T09:31:46Z</time>
      </trkpt>
      <trkpt lat="43.66787" lon="1.39658">
        <ele>126</ele>
        <time>2025-04-12T09:31:47Z</time>
      </trkpt>
      <trkpt lat="43.66786" lon="1.39662">
        <ele>126</ele>
        <time>2025-04-12T09:31:48Z</time>
      </trkpt>
      <trkpt lat="43.66786" lon="1.39666">
        <ele>126</ele>
        <time>2025-04-12T09:31:49Z</time>
      </trkpt>
      <trkpt lat="43.66786" lon="1.3967">
        <ele>126</ele>
        <time>2025-04-12T09:31:50Z</time>
      </trkpt>
      <trkpt lat="43.66785" lon="1.39674">
        <ele>126</ele>
        <time>2025-04-12T09:31:51Z</time>
      </trkpt>
      <trkpt lat="43.66785" lon="1.39677">
        <ele>126</ele>
        <time>2025-04-12T09:31:52Z</time>
      </trkpt>
      <trkpt lat="43.66785" lon="1.39677">
        <ele>126</ele>
        <time>2025-04-12T09:31:53Z</time>
      </trkpt>
      <trkpt lat="43.66784" lon="1.39685">
        <ele>126</ele>
        <time>2025-04-12T09:31:54Z</time>
      </trkpt>
      <trkpt lat="43.66784" lon="1.39685">
        <ele>126</ele>
        <time>2025-04-12T09:31:55Z</time>
      </trkpt>
      <trkpt lat="43.66783" lon="1.39693">
        <ele>126</ele>
        <time>2025-04-12T09:31:56Z</time>
      </trkpt>
      <trkpt lat="43.66783" lon="1.39697">
        <ele>126</ele>
        <time>2025-04-12T09:31:57Z</time>
      </trkpt>
      <trkpt lat="43.66783" lon="1.397">
        <ele>126</ele>
        <time>2025-04-12T09:31:58Z</time>
      </trkpt>
      <trkpt lat="43.66782" lon="1.39703">
        <ele>126</ele>
        <time>2025-04-12T09:31:59Z</time>
      </trkpt>
      <trkpt lat="43.66782" lon="1.39707">
        <ele>126</ele>
        <time>2025-04-12T09:32:00Z</time>
      </trkpt>
      <trkpt lat="43.66782" lon="1.39711">
        <ele>126</ele>
        <time>2025-04-12T09:32:01Z</time>
      </trkpt>
      <trkpt lat="43.66782" lon="1.39714">
        <ele>126</ele>
        <time>2025-04-12T09:32:02Z</time>
      </trkpt>
      <trkpt lat="43.66782" lon="1.39718">
        <ele>126</ele>
        <time>2025-04-12T09:32:03Z</time>
      </trkpt>
      <trkpt lat="43.66781" lon="1.39722">
        <ele>126</ele>
        <time>2025-04-12T09:32:04Z</time>
      </trkpt>
      <trkpt lat="43.66781" lon="1.39722">
        <ele>127</ele>
        <time>2025-04-12T09:32:05Z</time>
      </trkpt>
      <trkpt lat="43.66781" lon="1.3973">
        <ele>127</ele>
        <time>2025-04-12T09:32:06Z</time>
      </trkpt>
      <trkpt lat="43.6678" lon="1.39734">
        <ele>127</ele>
        <time>2025-04-12T09:32:07Z</time>
      </trkpt>
      <trkpt lat="43.6678" lon="1.39738">
        <ele>127</ele>
        <time>2025-04-12T09:32:08Z</time>
      </trkpt>
      <trkpt lat="43.6678" lon="1.39742">
        <ele>127</ele>
        <time>2025-04-12T09:32:09Z</time>
      </trkpt>
      <trkpt lat="43.6678" lon="1.39746">
        <ele>127</ele>
        <time>2025-04-12T09:32:10Z</time>
      </trkpt>
      <trkpt lat="43.6678" lon="1.39746">
        <ele>126</ele>
        <time>2025-04-12T09:32:11Z</time>
      </trkpt>
      <trkpt lat="43.66779" lon="1.39754">
        <ele>126</ele>
        <time>2025-04-12T09:32:12Z</time>
      </trkpt>
      <trkpt lat="43.66779" lon="1.39754">
        <ele>126</ele>
        <time>2025-04-12T09:32:13Z</time>
      </trkpt>
      <trkpt lat="43.66779" lon="1.39761">
        <ele>126</ele>
        <time>2025-04-12T09:32:14Z</time>
      </trkpt>
      <trkpt lat="43.66778" lon="1.39765">
        <ele>126</ele>
        <time>2025-04-12T09:32:15Z</time>
      </trkpt>
      <trkpt lat="43.66778" lon="1.39769">
        <ele>126</ele>
        <time>2025-04-12T09:32:16Z</time>
      </trkpt>
      <trkpt lat="43.66778" lon="1.39773">
        <ele>126</ele>
        <time>2025-04-12T09:32:17Z</time>
      </trkpt>
      <trkpt lat="43.66778" lon="1.39773">
        <ele>126</ele>
        <time>2025-04-12T09:32:18Z</time>
      </trkpt>
      <trkpt lat="43.66778" lon="1.3978">
        <ele>126</ele>
        <time>2025-04-12T09:32:19Z</time>
      </trkpt>
      <trkpt lat="43.66778" lon="1.3978">
        <ele>126</ele>
        <time>2025-04-12T09:32:20Z</time>
      </trkpt>
      <trkpt lat="43.66778" lon="1.39788">
        <ele>126</ele>
        <time>2025-04-12T09:32:21Z</time>
      </trkpt>
      <trkpt lat="43.66778" lon="1.39788">
        <ele>126</ele>
        <time>2025-04-12T09:32:22Z</time>
      </trkpt>
      <trkpt lat="43.66778" lon="1.39796">
        <ele>126</ele>
        <time>2025-04-12T09:32:23Z</time>
      </trkpt>
      <trkpt lat="43.66778" lon="1.39796">
        <ele>126</ele>
        <time>2025-04-12T09:32:24Z</time>
      </trkpt>
      <trkpt lat="43.66778" lon="1.398">
        <ele>126</ele>
        <time>2025-04-12T09:32:25Z</time>
      </trkpt>
      <trkpt lat="43.66777" lon="1.39808">
        <ele>126</ele>
        <time>2025-04-12T09:32:26Z</time>
      </trkpt>
      <trkpt lat="43.66777" lon="1.39812">
        <ele>126</ele>
        <time>2025-04-12T09:32:27Z</time>
      </trkpt>
      <trkpt lat="43.66777" lon="1.39812">
        <ele>126</ele>
        <time>2025-04-12T09:32:28Z</time>
      </trkpt>
      <trkpt lat="43.66777" lon="1.39819">
        <ele>126</ele>
        <time>2025-04-12T09:32:29Z</time>
      </trkpt>
      <trkpt lat="43.66777" lon="1.39819">
        <ele>126</ele>
        <time>2025-04-12T09:32:30Z</time>
      </trkpt>
      <trkpt lat="43.66777" lon="1.39826">
        <ele>126</ele>
        <time>2025-04-12T09:32:31Z</time>
      </trkpt>
      <trkpt lat="43.66776" lon="1.3983">
        <ele>125</ele>
        <time>2025-04-12T09:32:32Z</time>
      </trkpt>
      <trkpt lat="43.66776" lon="1.39834">
        <ele>126</ele>
        <time>2025-04-12T09:32:33Z</time>
      </trkpt>
      <trkpt lat="43.66776" lon="1.39838">
        <ele>126</ele>
        <time>2025-04-12T09:32:34Z</time>
      </trkpt>
      <trkpt lat="43.66776" lon="1.39842">
        <ele>126</ele>
        <time>2025-04-12T09:32:35Z</time>
      </trkpt>
      <trkpt lat="43.66775" lon="1.39846">
        <ele>126</ele>
        <time>2025-04-12T09:32:36Z</time>
      </trkpt>
      <trkpt lat="43.66775" lon="1.39849">
        <ele>126</ele>
        <time>2025-04-12T09:32:37Z</time>
      </trkpt>
      <trkpt lat="43.66775" lon="1.39853">
        <ele>126</ele>
        <time>2025-04-12T09:32:38Z</time>
      </trkpt>
      <trkpt lat="43.66775" lon="1.39853">
        <ele>127</ele>
        <time>2025-04-12T09:32:39Z</time>
      </trkpt>
      <trkpt lat="43.66775" lon="1.39861">
        <ele>127</ele>
        <time>2025-04-12T09:32:40Z</time>
      </trkpt>
      <trkpt lat="43.66774" lon="1.39865">
        <ele>127</ele>
        <time>2025-04-12T09:32:41Z</time>
      </trkpt>
      <trkpt lat="43.66774" lon="1.39868">
        <ele>127</ele>
        <time>2025-04-12T09:32:42Z</time>
      </trkpt>
      <trkpt lat="43.66774" lon="1.39872">
        <ele>127</ele>
        <time>2025-04-12T09:32:43Z</time>
      </trkpt>
      <trkpt lat="43.66774" lon="1.39876">
        <ele>127</ele>
        <time>2025-04-12T09:32:44Z</time>
      </trkpt>
      <trkpt lat="43.66774" lon="1.3988">
        <ele>127</ele>
        <time>2025-04-12T09:32:45Z</time>
      </trkpt>
      <trkpt lat="43.66773" lon="1.39884">
        <ele>127</ele>
        <time>2025-04-12T09:32:46Z</time>
      </trkpt>
      <trkpt lat="43.66772" lon="1.39888">
        <ele>126</ele>
        <time>2025-04-12T09:32:47Z</time>
      </trkpt>
      <trkpt lat="43.66772" lon="1.39891">
        <ele>127</ele>
        <time>2025-04-12T09:32:48Z</time>
      </trkpt>
      <trkpt lat="43.66772" lon="1.39895">
        <ele>127</ele>
        <time>2025-04-12T09:32:49Z</time>
      </trkpt>
      <trkpt lat="43.66772" lon="1.39899">
        <ele>127</ele>
        <time>2025-04-12T09:32:50Z</time>
      </trkpt>
      <trkpt lat="43.66772" lon="1.39903">
        <ele>127</ele>
        <time>2025-04-12T09:32:51Z</time>
      </trkpt>
      <trkpt lat="43.66772" lon="1.39906">
        <ele>127</ele>
        <time>2025-04-12T09:32:52Z</time>
      </trkpt>
      <trkpt lat="43.66771" lon="1.3991">
        <ele>127</ele>
        <time>2025-04-12T09:32:53Z</time>
      </trkpt>
      <trkpt lat="43.66771" lon="1.39914">
        <ele>127</ele>
        <time>2025-04-12T09:32:54Z</time>
      </trkpt>
      <trkpt lat="43.66771" lon="1.39914">
        <ele>127</ele>
        <time>2025-04-12T09:32:55Z</time>
      </trkpt>
      <trkpt lat="43.66769" lon="1.39921">
        <ele>127</ele>
        <time>2025-04-12T09:32:56Z</time>
      </trkpt>
      <trkpt lat="43.66769" lon="1.39924">
        <ele>127</ele>
        <time>2025-04-12T09:32:57Z</time>
      </trkpt>
      <trkpt lat="43.66769" lon="1.39924">
        <ele>127</ele>
        <time>2025-04-12T09:32:58Z</time>
      </trkpt>
      <trkpt lat="43.66768" lon="1.39932">
        <ele>127</ele>
        <time>2025-04-12T09:32:59Z</time>
      </trkpt>
      <trkpt lat="43.66768" lon="1.39932">
        <ele>127</ele>
        <time>2025-04-12T09:33:00Z</time>
      </trkpt>
      <trkpt lat="43.66768" lon="1.39939">
        <ele>127</ele>
        <time>2025-04-12T09:33:01Z</time>
      </trkpt>
      <trkpt lat="43.66768" lon="1.39939">
        <ele>127</ele>
        <time>2025-04-12T09:33:02Z</time>
      </trkpt>
      <trkpt lat="43.66768" lon="1.39943">
        <ele>127</ele>
        <time>2025-04-12T09:33:03Z</time>
      </trkpt>
      <trkpt lat="43.66767" lon="1.3995">
        <ele>127</ele>
        <time>2025-04-12T09:33:04Z</time>
      </trkpt>
      <trkpt lat="43.66767" lon="1.3995">
        <ele>127</ele>
        <time>2025-04-12T09:33:05Z</time>
      </trkpt>
      <trkpt lat="43.66765" lon="1.39958">
        <ele>127</ele>
        <time>2025-04-12T09:33:06Z</time>
      </trkpt>
      <trkpt lat="43.66763" lon="1.39961">
        <ele>127</ele>
        <time>2025-04-12T09:33:07Z</time>
      </trkpt>
      <trkpt lat="43.66762" lon="1.39964">
        <ele>127</ele>
        <time>2025-04-12T09:33:08Z</time>
      </trkpt>
      <trkpt lat="43.66761" lon="1.39968">
        <ele>127</ele>
        <time>2025-04-12T09:33:09Z</time>
      </trkpt>
      <trkpt lat="43.66761" lon="1.39968">
        <ele>127</ele>
        <time>2025-04-12T09:33:10Z</time>
      </trkpt>
      <trkpt lat="43.66759" lon="1.39976">
        <ele>127</ele>
        <time>2025-04-12T09:33:11Z</time>
      </trkpt>
      <trkpt lat="43.66759" lon="1.39976">
        <ele>127</ele>
        <time>2025-04-12T09:33:12Z</time>
      </trkpt>
      <trkpt lat="43.66756" lon="1.39983">
        <ele>127</ele>
        <time>2025-04-12T09:33:13Z</time>
      </trkpt>
      <trkpt lat="43.66755" lon="1.39987">
        <ele>127</ele>
        <time>2025-04-12T09:33:14Z</time>
      </trkpt>
      <trkpt lat="43.66754" lon="1.3999">
        <ele>127</ele>
        <time>2025-04-12T09:33:15Z</time>
      </trkpt>
      <trkpt lat="43.66754" lon="1.39993">
        <ele>127</ele>
        <time>2025-04-12T09:33:16Z</time>
      </trkpt>
      <trkpt lat="43.66753" lon="1.39996">
        <ele>127</ele>
        <time>2025-04-12T09:33:17Z</time>
      </trkpt>
      <trkpt lat="43.66752" lon="1.39999">
        <ele>127</ele>
        <time>2025-04-12T09:33:18Z</time>
      </trkpt>
      <trkpt lat="43.66752" lon="1.40002">
        <ele>127</ele>
        <time>2025-04-12T09:33:19Z</time>
      </trkpt>
      <trkpt lat="43.6675" lon="1.40006">
        <ele>127</ele>
        <time>2025-04-12T09:33:20Z</time>
      </trkpt>
      <trkpt lat="43.66749" lon="1.40009">
        <ele>127</ele>
        <time>2025-04-12T09:33:21Z</time>
      </trkpt>
      <trkpt lat="43.66749" lon="1.40013">
        <ele>127</ele>
        <time>2025-04-12T09:33:22Z</time>
      </trkpt>
      <trkpt lat="43.66748" lon="1.40017">
        <ele>127</ele>
        <time>2025-04-12T09:33:23Z</time>
      </trkpt>
      <trkpt lat="43.66747" lon="1.40021">
        <ele>127</ele>
        <time>2025-04-12T09:33:24Z</time>
      </trkpt>
      <trkpt lat="43.66745" lon="1.40024">
        <ele>127</ele>
        <time>2025-04-12T09:33:25Z</time>
      </trkpt>
      <trkpt lat="43.66743" lon="1.40027">
        <ele>127</ele>
        <time>2025-04-12T09:33:26Z</time>
      </trkpt>
      <trkpt lat="43.66742" lon="1.4003">
        <ele>127</ele>
        <time>2025-04-12T09:33:27Z</time>
      </trkpt>
      <trkpt lat="43.6674" lon="1.40034">
        <ele>127</ele>
        <time>2025-04-12T09:33:28Z</time>
      </trkpt>
      <trkpt lat="43.66739" lon="1.40038">
        <ele>127</ele>
        <time>2025-04-12T09:33:29Z</time>
      </trkpt>
      <trkpt lat="43.66737" lon="1.40041">
        <ele>127</ele>
        <time>2025-04-12T09:33:30Z</time>
      </trkpt>
      <trkpt lat="43.66736" lon="1.40044">
        <ele>127</ele>
        <time>2025-04-12T09:33:31Z</time>
      </trkpt>
      <trkpt lat="43.66734" lon="1.40048">
        <ele>127</ele>
        <time>2025-04-12T09:33:32Z</time>
      </trkpt>
      <trkpt lat="43.66732" lon="1.40052">
        <ele>127</ele>
        <time>2025-04-12T09:33:33Z</time>
      </trkpt>
      <trkpt lat="43.66731" lon="1.40055">
        <ele>127</ele>
        <time>2025-04-12T09:33:34Z</time>
      </trkpt>
      <trkpt lat="43.66729" lon="1.40058">
        <ele>127</ele>
        <time>2025-04-12T09:33:35Z</time>
      </trkpt>
      <trkpt lat="43.66729" lon="1.40058">
        <ele>127</ele>
        <time>2025-04-12T09:33:36Z</time>
      </trkpt>
      <trkpt lat="43.66727" lon="1.40061">
        <ele>127</ele>
        <time>2025-04-12T09:33:37Z</time>
      </trkpt>
      <trkpt lat="43.66724" lon="1.40068">
        <ele>127</ele>
        <time>2025-04-12T09:33:38Z</time>
      </trkpt>
      <trkpt lat="43.66722" lon="1.40072">
        <ele>127</ele>
        <time>2025-04-12T09:33:39Z</time>
      </trkpt>
      <trkpt lat="43.66722" lon="1.40072">
        <ele>127</ele>
        <time>2025-04-12T09:33:40Z</time>
      </trkpt>
      <trkpt lat="43.66719" lon="1.40079">
        <ele>127</ele>
        <time>2025-04-12T09:33:41Z</time>
      </trkpt>
      <trkpt lat="43.66717" lon="1.40083">
        <ele>127</ele>
        <time>2025-04-12T09:33:42Z</time>
      </trkpt>
      <trkpt lat="43.66715" lon="1.40086">
        <ele>127</ele>
        <time>2025-04-12T09:33:43Z</time>
      </trkpt>
      <trkpt lat="43.66714" lon="1.4009">
        <ele>127</ele>
        <time>2025-04-12T09:33:44Z</time>
      </trkpt>
      <trkpt lat="43.66712" lon="1.40093">
        <ele>127</ele>
        <time>2025-04-12T09:33:45Z</time>
      </trkpt>
      <trkpt lat="43.66711" lon="1.40096">
        <ele>127</ele>
        <time>2025-04-12T09:33:46Z</time>
      </trkpt>
      <trkpt lat="43.66709" lon="1.401">
        <ele>127</ele>
        <time>2025-04-12T09:33:47Z</time>
      </trkpt>
      <trkpt lat="43.66708" lon="1.40104">
        <ele>127</ele>
        <time>2025-04-12T09:33:48Z</time>
      </trkpt>
      <trkpt lat="43.66707" lon="1.40107">
        <ele>127</ele>
        <time>2025-04-12T09:33:49Z</time>
      </trkpt>
      <trkpt lat="43.66707" lon="1.40107">
        <ele>127</ele>
        <time>2025-04-12T09:33:50Z</time>
      </trkpt>
      <trkpt lat="43.66705" lon="1.40114">
        <ele>127</ele>
        <time>2025-04-12T09:33:51Z</time>
      </trkpt>
      <trkpt lat="43.66705" lon="1.40114">
        <ele>127</ele>
        <time>2025-04-12T09:33:52Z</time>
      </trkpt>
      <trkpt lat="43.66701" lon="1.4012">
        <ele>127</ele>
        <time>2025-04-12T09:33:53Z</time>
      </trkpt>
      <trkpt lat="43.66699" lon="1.40123">
        <ele>127</ele>
        <time>2025-04-12T09:33:54Z</time>
      </trkpt>
      <trkpt lat="43.66699" lon="1.40123">
        <ele>127</ele>
        <time>2025-04-12T09:33:55Z</time>
      </trkpt>
      <trkpt lat="43.66695" lon="1.40128">
        <ele>127</ele>
        <time>2025-04-12T09:33:56Z</time>
      </trkpt>
      <trkpt lat="43.66695" lon="1.40128">
        <ele>127</ele>
        <time>2025-04-12T09:33:57Z</time>
      </trkpt>
      <trkpt lat="43.66691" lon="1.40133">
        <ele>127</ele>
        <time>2025-04-12T09:33:58Z</time>
      </trkpt>
      <trkpt lat="43.6669" lon="1.40136">
        <ele>127</ele>
        <time>2025-04-12T09:33:59Z</time>
      </trkpt>
      <trkpt lat="43.66688" lon="1.40139">
        <ele>127</ele>
        <time>2025-04-12T09:34:00Z</time>
      </trkpt>
      <trkpt lat="43.66686" lon="1.40142">
        <ele>127</ele>
        <time>2025-04-12T09:34:01Z</time>
      </trkpt>
      <trkpt lat="43.66684" lon="1.40145">
        <ele>127</ele>
        <time>2025-04-12T09:34:02Z</time>
      </trkpt>
      <trkpt lat="43.66682" lon="1.40148">
        <ele>127</ele>
        <time>2025-04-12T09:34:03Z</time>
      </trkpt>
      <trkpt lat="43.66682" lon="1.40148">
        <ele>127</ele>
        <time>2025-04-12T09:34:04Z</time>
      </trkpt>
      <trkpt lat="43.66679" lon="1.40152">
        <ele>127</ele>
        <time>2025-04-12T09:34:05Z</time>
      </trkpt>
      <trkpt lat="43.66677" lon="1.40155">
        <ele>127</ele>
        <time>2025-04-12T09:34:06Z</time>
      </trkpt>
      <trkpt lat="43.66675" lon="1.40159">
        <ele>127</ele>
        <time>2025-04-12T09:34:07Z</time>
      </trkpt>
      <trkpt lat="43.66674" lon="1.40162">
        <ele>127</ele>
        <time>2025-04-12T09:34:08Z</time>
      </trkpt>
      <trkpt lat="43.66672" lon="1.40165">
        <ele>127</ele>
        <time>2025-04-12T09:34:09Z</time>
      </trkpt>
      <trkpt lat="43.66671" lon="1.40169">
        <ele>127</ele>
        <time>2025-04-12T09:34:10Z</time>
      </trkpt>
      <trkpt lat="43.66669" lon="1.40172">
        <ele>127</ele>
        <time>2025-04-12T09:34:11Z</time>
      </trkpt>
      <trkpt lat="43.66668" lon="1.40175">
        <ele>127</ele>
        <time>2025-04-12T09:34:12Z</time>
      </trkpt>
      <trkpt lat="43.66668" lon="1.40175">
        <ele>126</ele>
        <time>2025-04-12T09:34:13Z</time>
      </trkpt>
      <trkpt lat="43.66666" lon="1.40178">
        <ele>126</ele>
        <time>2025-04-12T09:34:14Z</time>
      </trkpt>
      <trkpt lat="43.66663" lon="1.40184">
        <ele>126</ele>
        <time>2025-04-12T09:34:15Z</time>
      </trkpt>
      <trkpt lat="43.66663" lon="1.40184">
        <ele>126</ele>
        <time>2025-04-12T09:34:16Z</time>
      </trkpt>
      <trkpt lat="43.66659" lon="1.4019">
        <ele>126</ele>
        <time>2025-04-12T09:34:17Z</time>
      </trkpt>
      <trkpt lat="43.66658" lon="1.40193">
        <ele>127</ele>
        <time>2025-04-12T09:34:18Z</time>
      </trkpt>
      <trkpt lat="43.66656" lon="1.40196">
        <ele>127</ele>
        <time>2025-04-12T09:34:19Z</time>
      </trkpt>
      <trkpt lat="43.66655" lon="1.40199">
        <ele>126</ele>
        <time>2025-04-12T09:34:20Z</time>
      </trkpt>
      <trkpt lat="43.66655" lon="1.40199">
        <ele>126</ele>
        <time>2025-04-12T09:34:21Z</time>
      </trkpt>
      <trkpt lat="43.66652" lon="1.40203">
        <ele>127</ele>
        <time>2025-04-12T09:34:22Z</time>
      </trkpt>
      <trkpt lat="43.66652" lon="1.40203">
        <ele>127</ele>
        <time>2025-04-12T09:34:23Z</time>
      </trkpt>
      <trkpt lat="43.66649" lon="1.40208">
        <ele>127</ele>
        <time>2025-04-12T09:34:24Z</time>
      </trkpt>
      <trkpt lat="43.66647" lon="1.40211">
        <ele>127</ele>
        <time>2025-04-12T09:34:25Z</time>
      </trkpt>
      <trkpt lat="43.66645" lon="1.40214">
        <ele>127</ele>
        <time>2025-04-12T09:34:26Z</time>
      </trkpt>
      <trkpt lat="43.66644" lon="1.40217">
        <ele>127</ele>
        <time>2025-04-12T09:34:27Z</time>
      </trkpt>
      <trkpt lat="43.66642" lon="1.40219">
        <ele>127</ele>
        <time>2025-04-12T09:34:28Z</time>
      </trkpt>
      <trkpt lat="43.6664" lon="1.40222">
        <ele>127</ele>
        <time>2025-04-12T09:34:29Z</time>
      </trkpt>
      <trkpt lat="43.6664" lon="1.40222">
        <ele>127</ele>
        <time>2025-04-12T09:34:30Z</time>
      </trkpt>
      <trkpt lat="43.66636" lon="1.40228">
        <ele>127</ele>
        <time>2025-04-12T09:34:31Z</time>
      </trkpt>
      <trkpt lat="43.66636" lon="1.40228">
        <ele>127</ele>
        <time>2025-04-12T09:34:32Z</time>
      </trkpt>
      <trkpt lat="43.66632" lon="1.40234">
        <ele>127</ele>
        <time>2025-04-12T09:34:33Z</time>
      </trkpt>
      <trkpt lat="43.66631" lon="1.40236">
        <ele>127</ele>
        <time>2025-04-12T09:34:34Z</time>
      </trkpt>
      <trkpt lat="43.66631" lon="1.40236">
        <ele>127</ele>
        <time>2025-04-12T09:34:35Z</time>
      </trkpt>
      <trkpt lat="43.66627" lon="1.40242">
        <ele>127</ele>
        <time>2025-04-12T09:34:36Z</time>
      </trkpt>
      <trkpt lat="43.66625" lon="1.40245">
        <ele>127</ele>
        <time>2025-04-12T09:34:37Z</time>
      </trkpt>
      <trkpt lat="43.66623" lon="1.40248">
        <ele>127</ele>
        <time>2025-04-12T09:34:38Z</time>
      </trkpt>
      <trkpt lat="43.66621" lon="1.40251">
        <ele>127</ele>
        <time>2025-04-12T09:34:39Z</time>
      </trkpt>
      <trkpt lat="43.66619" lon="1.40254">
        <ele>127</ele>
        <time>2025-04-12T09:34:40Z</time>
      </trkpt>
      <trkpt lat="43.66617" lon="1.40257">
        <ele>127</ele>
        <time>2025-04-12T09:34:41Z</time>
      </trkpt>
      <trkpt lat="43.66616" lon="1.4026">
        <ele>127</ele>
        <time>2025-04-12T09:34:42Z</time>
      </trkpt>
      <trkpt lat="43.66614" lon="1.40263">
        <ele>127</ele>
        <time>2025-04-12T09:34:43Z</time>
      </trkpt>
      <trkpt lat="43.66614" lon="1.40263">
        <ele>127</ele>
        <time>2025-04-12T09:34:44Z</time>
      </trkpt>
      <trkpt lat="43.6661" lon="1.40269">
        <ele>127</ele>
        <time>2025-04-12T09:34:45Z</time>
      </trkpt>
      <trkpt lat="43.66609" lon="1.40271">
        <ele>127</ele>
        <time>2025-04-12T09:34:46Z</time>
      </trkpt>
      <trkpt lat="43.66607" lon="1.40274">
        <ele>127</ele>
        <time>2025-04-12T09:34:47Z</time>
      </trkpt>
      <trkpt lat="43.66606" lon="1.40277">
        <ele>127</ele>
        <time>2025-04-12T09:34:48Z</time>
      </trkpt>
      <trkpt lat="43.66606" lon="1.40277">
        <ele>127</ele>
        <time>2025-04-12T09:34:49Z</time>
      </trkpt>
      <trkpt lat="43.66605" lon="1.4028">
        <ele>127</ele>
        <time>2025-04-12T09:34:50Z</time>
      </trkpt>
      <trkpt lat="43.66601" lon="1.40286">
        <ele>127</ele>
        <time>2025-04-12T09:34:51Z</time>
      </trkpt>
      <trkpt lat="43.66599" lon="1.40289">
        <ele>127</ele>
        <time>2025-04-12T09:34:53Z</time>
      </trkpt>
      <trkpt lat="43.66596" lon="1.40293">
        <ele>127</ele>
        <time>2025-04-12T09:34:54Z</time>
      </trkpt>
      <trkpt lat="43.66594" lon="1.40295">
        <ele>127</ele>
        <time>2025-04-12T09:34:55Z</time>
      </trkpt>
      <trkpt lat="43.66592" lon="1.40296">
        <ele>127</ele>
        <time>2025-04-12T09:34:56Z</time>
      </trkpt>
      <trkpt lat="43.66592" lon="1.40296">
        <ele>127</ele>
        <time>2025-04-12T09:34:57Z</time>
      </trkpt>
      <trkpt lat="43.66587" lon="1.40299">
        <ele>127</ele>
        <time>2025-04-12T09:34:58Z</time>
      </trkpt>
      <trkpt lat="43.66585" lon="1.403">
        <ele>127</ele>
        <time>2025-04-12T09:34:59Z</time>
      </trkpt>
      <trkpt lat="43.66583" lon="1.40302">
        <ele>127</ele>
        <time>2025-04-12T09:35:00Z</time>
      </trkpt>
      <trkpt lat="43.66582" lon="1.40303">
        <ele>127</ele>
        <time>2025-04-12T09:35:01Z</time>
      </trkpt>
      <trkpt lat="43.6658" lon="1.40305">
        <ele>127</ele>
        <time>2025-04-12T09:35:02Z</time>
      </trkpt>
      <trkpt lat="43.6658" lon="1.40305">
        <ele>127</ele>
        <time>2025-04-12T09:35:03Z</time>
      </trkpt>
      <trkpt lat="43.66578" lon="1.40307">
        <ele>127</ele>
        <time>2025-04-12T09:35:04Z</time>
      </trkpt>
      <trkpt lat="43.66575" lon="1.4031">
        <ele>127</ele>
        <time>2025-04-12T09:35:05Z</time>
      </trkpt>
      <trkpt lat="43.66572" lon="1.40312">
        <ele>127</ele>
        <time>2025-04-12T09:35:06Z</time>
      </trkpt>
      <trkpt lat="43.6657" lon="1.40314">
        <ele>127</ele>
        <time>2025-04-12T09:35:07Z</time>
      </trkpt>
      <trkpt lat="43.66569" lon="1.40317">
        <ele>127</ele>
        <time>2025-04-12T09:35:08Z</time>
      </trkpt>
      <trkpt lat="43.66567" lon="1.40319">
        <ele>127</ele>
        <time>2025-04-12T09:35:09Z</time>
      </trkpt>
      <trkpt lat="43.66565" lon="1.40321">
        <ele>127</ele>
        <time>2025-04-12T09:35:10Z</time>
      </trkpt>
      <trkpt lat="43.66562" lon="1.40325">
        <ele>127</ele>
        <time>2025-04-12T09:35:11Z</time>
      </trkpt>
      <trkpt lat="43.66559" lon="1.40328">
        <ele>127</ele>
        <time>2025-04-12T09:35:12Z</time>
      </trkpt>
      <trkpt lat="43.66557" lon="1.40331">
        <ele>127</ele>
        <time>2025-04-12T09:35:13Z</time>
      </trkpt>
      <trkpt lat="43.66554" lon="1.40335">
        <ele>127</ele>
        <time>2025-04-12T09:35:14Z</time>
      </trkpt>
      <trkpt lat="43.66551" lon="1.40337">
        <ele>127</ele>
        <time>2025-04-12T09:35:15Z</time>
      </trkpt>
      <trkpt lat="43.66549" lon="1.4034">
        <ele>127</ele>
        <time>2025-04-12T09:35:16Z</time>
      </trkpt>
      <trkpt lat="43.66547" lon="1.40343">
        <ele>127</ele>
        <time>2025-04-12T09:35:17Z</time>
      </trkpt>
      <trkpt lat="43.66545" lon="1.40345">
        <ele>127</ele>
        <time>2025-04-12T09:35:18Z</time>
      </trkpt>
      <trkpt lat="43.66543" lon="1.40348">
        <ele>127</ele>
        <time>2025-04-12T09:35:19Z</time>
      </trkpt>
      <trkpt lat="43.66541" lon="1.40351">
        <ele>127</ele>
        <time>2025-04-12T09:35:20Z</time>
      </trkpt>
      <trkpt lat="43.66538" lon="1.40354">
        <ele>127</ele>
        <time>2025-04-12T09:35:21Z</time>
      </trkpt>
      <trkpt lat="43.66536" lon="1.40356">
        <ele>127</ele>
        <time>2025-04-12T09:35:22Z</time>
      </trkpt>
      <trkpt lat="43.66534" lon="1.40359">
        <ele>127</ele>
        <time>2025-04-12T09:35:23Z</time>
      </trkpt>
      <trkpt lat="43.66532" lon="1.40361">
        <ele>127</ele>
        <time>2025-04-12T09:35:24Z</time>
      </trkpt>
      <trkpt lat="43.6653" lon="1.40363">
        <ele>127</ele>
        <time>2025-04-12T09:35:25Z</time>
      </trkpt>
      <trkpt lat="43.66528" lon="1.40365">
        <ele>127</ele>
        <time>2025-04-12T09:35:26Z</time>
      </trkpt>
      <trkpt lat="43.66528" lon="1.40365">
        <ele>127</ele>
        <time>2025-04-12T09:35:27Z</time>
      </trkpt>
      <trkpt lat="43.66527" lon="1.40366">
        <ele>127</ele>
        <time>2025-04-12T09:35:28Z</time>
      </trkpt>
      <trkpt lat="43.66525" lon="1.40369">
        <ele>127</ele>
        <time>2025-04-12T09:35:29Z</time>
      </trkpt>
      <trkpt lat="43.66523" lon="1.40371">
        <ele>127</ele>
        <time>2025-04-12T09:35:30Z</time>
      </trkpt>
      <trkpt lat="43.66521" lon="1.40374">
        <ele>127</ele>
        <time>2025-04-12T09:35:31Z</time>
      </trkpt>
      <trkpt lat="43.6652" lon="1.40377">
        <ele>127</ele>
        <time>2025-04-12T09:35:32Z</time>
      </trkpt>
      <trkpt lat="43.66518" lon="1.4038">
        <ele>127</ele>
        <time>2025-04-12T09:35:33Z</time>
      </trkpt>
      <trkpt lat="43.66516" lon="1.40383">
        <ele>127</ele>
        <time>2025-04-12T09:35:34Z</time>
      </trkpt>
      <trkpt lat="43.66514" lon="1.40385">
        <ele>127</ele>
        <time>2025-04-12T09:35:35Z</time>
      </trkpt>
      <trkpt lat="43.66511" lon="1.40388">
        <ele>127</ele>
        <time>2025-04-12T09:35:36Z</time>
      </trkpt>
      <trkpt lat="43.66508" lon="1.40391">
        <ele>127</ele>
        <time>2025-04-12T09:35:37Z</time>
      </trkpt>
      <trkpt lat="43.66506" lon="1.40394">
        <ele>127</ele>
        <time>2025-04-12T09:35:38Z</time>
      </trkpt>
      <trkpt lat="43.66506" lon="1.40394">
        <ele>127</ele>
        <time>2025-04-12T09:35:39Z</time>
      </trkpt>
      <trkpt lat="43.665" lon="1.40399">
        <ele>127</ele>
        <time>2025-04-12T09:35:40Z</time>
      </trkpt>
      <trkpt lat="43.66497" lon="1.40401">
        <ele>127</ele>
        <time>2025-04-12T09:35:41Z</time>
      </trkpt>
      <trkpt lat="43.66495" lon="1.40403">
        <ele>127</ele>
        <time>2025-04-12T09:35:42Z</time>
      </trkpt>
      <trkpt lat="43.66493" lon="1.40405">
        <ele>127</ele>
        <time>2025-04-12T09:35:43Z</time>
      </trkpt>
      <trkpt lat="43.66493" lon="1.40405">
        <ele>127</ele>
        <time>2025-04-12T09:35:44Z</time>
      </trkpt>
      <trkpt lat="43.66489" lon="1.4041">
        <ele>127</ele>
        <time>2025-04-12T09:35:45Z</time>
      </trkpt>
      <trkpt lat="43.66489" lon="1.4041">
        <ele>127</ele>
        <time>2025-04-12T09:35:46Z</time>
      </trkpt>
      <trkpt lat="43.66484" lon="1.40415">
        <ele>127</ele>
        <time>2025-04-12T09:35:47Z</time>
      </trkpt>
      <trkpt lat="43.66481" lon="1.40417">
        <ele>127</ele>
        <time>2025-04-12T09:35:48Z</time>
      </trkpt>
      <trkpt lat="43.66478" lon="1.40419">
        <ele>127</ele>
        <time>2025-04-12T09:35:49Z</time>
      </trkpt>
      <trkpt lat="43.66476" lon="1.4042">
        <ele>127</ele>
        <time>2025-04-12T09:35:50Z</time>
      </trkpt>
      <trkpt lat="43.66473" lon="1.40422">
        <ele>127</ele>
        <time>2025-04-12T09:35:51Z</time>
      </trkpt>
      <trkpt lat="43.6647" lon="1.40424">
        <ele>128</ele>
        <time>2025-04-12T09:35:52Z</time>
      </trkpt>
      <trkpt lat="43.66467" lon="1.40426">
        <ele>128</ele>
        <time>2025-04-12T09:35:53Z</time>
      </trkpt>
      <trkpt lat="43.66465" lon="1.40428">
        <ele>128</ele>
        <time>2025-04-12T09:35:54Z</time>
      </trkpt>
      <trkpt lat="43.66462" lon="1.4043">
        <ele>128</ele>
        <time>2025-04-12T09:35:55Z</time>
      </trkpt>
      <trkpt lat="43.66462" lon="1.4043">
        <ele>128</ele>
        <time>2025-04-12T09:35:56Z</time>
      </trkpt>
      <trkpt lat="43.66459" lon="1.40434">
        <ele>128</ele>
        <time>2025-04-12T09:35:57Z</time>
      </trkpt>
      <trkpt lat="43.66456" lon="1.40435">
        <ele>128</ele>
        <time>2025-04-12T09:35:58Z</time>
      </trkpt>
      <trkpt lat="43.66454" lon="1.40437">
        <ele>128</ele>
        <time>2025-04-12T09:35:59Z</time>
      </trkpt>
      <trkpt lat="43.66452" lon="1.40439">
        <ele>128</ele>
        <time>2025-04-12T09:36:00Z</time>
      </trkpt>
      <trkpt lat="43.66449" lon="1.40442">
        <ele>128</ele>
        <time>2025-04-12T09:36:01Z</time>
      </trkpt>
      <trkpt lat="43.66446" lon="1.40444">
        <ele>127</ele>
        <time>2025-04-12T09:36:02Z</time>
      </trkpt>
      <trkpt lat="43.66446" lon="1.40444">
        <ele>127</ele>
        <time>2025-04-12T09:36:03Z</time>
      </trkpt>
      <trkpt lat="43.66441" lon="1.40449">
        <ele>127</ele>
        <time>2025-04-12T09:36:04Z</time>
      </trkpt>
      <trkpt lat="43.66439" lon="1.40451">
        <ele>127</ele>
        <time>2025-04-12T09:36:05Z</time>
      </trkpt>
      <trkpt lat="43.66436" lon="1.40454">
        <ele>127</ele>
        <time>2025-04-12T09:36:06Z</time>
      </trkpt>
      <trkpt lat="43.66434" lon="1.40456">
        <ele>127</ele>
        <time>2025-04-12T09:36:07Z</time>
      </trkpt>
      <trkpt lat="43.66431" lon="1.40458">
        <ele>127</ele>
        <time>2025-04-12T09:36:08Z</time>
      </trkpt>
      <trkpt lat="43.66429" lon="1.4046">
        <ele>127</ele>
        <time>2025-04-12T09:36:09Z</time>
      </trkpt>
      <trkpt lat="43.66427" lon="1.40462">
        <ele>127</ele>
        <time>2025-04-12T09:36:10Z</time>
      </trkpt>
      <trkpt lat="43.66425" lon="1.40465">
        <ele>127</ele>
        <time>2025-04-12T09:36:11Z</time>
      </trkpt>
      <trkpt lat="43.66423" lon="1.40467">
        <ele>127</ele>
        <time>2025-04-12T09:36:12Z</time>
      </trkpt>
      <trkpt lat="43.66421" lon="1.40469">
        <ele>127</ele>
        <time>2025-04-12T09:36:13Z</time>
      </trkpt>
      <trkpt lat="43.66419" lon="1.4047">
        <ele>127</ele>
        <time>2025-04-12T09:36:14Z</time>
      </trkpt>
      <trkpt lat="43.66419" lon="1.4047">
        <ele>127</ele>
        <time>2025-04-12T09:36:15Z</time>
      </trkpt>
      <trkpt lat="43.66415" lon="1.40475">
        <ele>127</ele>
        <time>2025-04-12T09:36:16Z</time>
      </trkpt>
      <trkpt lat="43.66413" lon="1.40477">
        <ele>127</ele>
        <time>2025-04-12T09:36:17Z</time>
      </trkpt>
      <trkpt lat="43.6641" lon="1.40479">
        <ele>127</ele>
        <time>2025-04-12T09:36:18Z</time>
      </trkpt>
      <trkpt lat="43.66407" lon="1.40481">
        <ele>127</ele>
        <time>2025-04-12T09:36:19Z</time>
      </trkpt>
      <trkpt lat="43.66405" lon="1.40484">
        <ele>127</ele>
        <time>2025-04-12T09:36:20Z</time>
      </trkpt>
      <trkpt lat="43.66403" lon="1.40486">
        <ele>127</ele>
        <time>2025-04-12T09:36:22Z</time>
      </trkpt>
      <trkpt lat="43.66398" lon="1.40489">
        <ele>127</ele>
        <time>2025-04-12T09:36:23Z</time>
      </trkpt>
      <trkpt lat="43.66395" lon="1.40492">
        <ele>127</ele>
        <time>2025-04-12T09:36:24Z</time>
      </trkpt>
      <trkpt lat="43.66393" lon="1.40494">
        <ele>127</ele>
        <time>2025-04-12T09:36:25Z</time>
      </trkpt>
      <trkpt lat="43.6639" lon="1.40497">
        <ele>127</ele>
        <time>2025-04-12T09:36:26Z</time>
      </trkpt>
      <trkpt lat="43.6639" lon="1.40497">
        <ele>127</ele>
        <time>2025-04-12T09:36:27Z</time>
      </trkpt>
      <trkpt lat="43.66385" lon="1.40502">
        <ele>127</ele>
        <time>2025-04-12T09:36:28Z</time>
      </trkpt>
      <trkpt lat="43.66385" lon="1.40502">
        <ele>127</ele>
        <time>2025-04-12T09:36:29Z</time>
      </trkpt>
      <trkpt lat="43.6638" lon="1.40507">
        <ele>127</ele>
        <time>2025-04-12T09:36:30Z</time>
      </trkpt>
      <trkpt lat="43.66378" lon="1.40509">
        <ele>127</ele>
        <time>2025-04-12T09:36:31Z</time>
      </trkpt>
      <trkpt lat="43.66375" lon="1.40512">
        <ele>127</ele>
        <time>2025-04-12T09:36:32Z</time>
      </trkpt>
      <trkpt lat="43.66373" lon="1.40513">
        <ele>127</ele>
        <time>2025-04-12T09:36:33Z</time>
      </trkpt>
      <trkpt lat="43.6637" lon="1.40515">
        <ele>127</ele>
        <time>2025-04-12T09:36:34Z</time>
      </trkpt>
      <trkpt lat="43.66368" lon="1.40516">
        <ele>127</ele>
        <time>2025-04-12T09:36:35Z</time>
      </trkpt>
      <trkpt lat="43.66367" lon="1.40518">
        <ele>127</ele>
        <time>2025-04-12T09:36:36Z</time>
      </trkpt>
      <trkpt lat="43.66364" lon="1.40519">
        <ele>127</ele>
        <time>2025-04-12T09:36:37Z</time>
      </trkpt>
      <trkpt lat="43.66362" lon="1.40521">
        <ele>127</ele>
        <time>2025-04-12T09:36:38Z</time>
      </trkpt>
      <trkpt lat="43.66362" lon="1.40521">
        <ele>128</ele>
        <time>2025-04-12T09:36:39Z</time>
      </trkpt>
      <trkpt lat="43.66358" lon="1.40523">
        <ele>128</ele>
        <time>2025-04-12T09:36:40Z</time>
      </trkpt>
      <trkpt lat="43.66355" lon="1.40525">
        <ele>128</ele>
        <time>2025-04-12T09:36:41Z</time>
      </trkpt>
      <trkpt lat="43.66353" lon="1.40526">
        <ele>127</ele>
        <time>2025-04-12T09:36:42Z</time>
      </trkpt>
      <trkpt lat="43.6635" lon="1.40528">
        <ele>127</ele>
        <time>2025-04-12T09:36:43Z</time>
      </trkpt>
      <trkpt lat="43.6635" lon="1.40528">
        <ele>127</ele>
        <time>2025-04-12T09:36:44Z</time>
      </trkpt>
      <trkpt lat="43.66346" lon="1.40531">
        <ele>127</ele>
        <time>2025-04-12T09:36:45Z</time>
      </trkpt>
      <trkpt lat="43.66344" lon="1.40534">
        <ele>128</ele>
        <time>2025-04-12T09:36:46Z</time>
      </trkpt>
      <trkpt lat="43.66343" lon="1.40536">
        <ele>128</ele>
        <time>2025-04-12T09:36:47Z</time>
      </trkpt>
      <trkpt lat="43.66343" lon="1.40536">
        <ele>128</ele>
        <time>2025-04-12T09:36:48Z</time>
      </trkpt>
      <trkpt lat="43.66339" lon="1.4054">
        <ele>128</ele>
        <time>2025-04-12T09:36:49Z</time>
      </trkpt>
      <trkpt lat="43.66337" lon="1.40542">
        <ele>128</ele>
        <time>2025-04-12T09:36:50Z</time>
      </trkpt>
      <trkpt lat="43.66335" lon="1.40544">
        <ele>128</ele>
        <time>2025-04-12T09:36:51Z</time>
      </trkpt>
      <trkpt lat="43.66334" lon="1.40546">
        <ele>128</ele>
        <time>2025-04-12T09:36:52Z</time>
      </trkpt>
      <trkpt lat="43.66334" lon="1.40546">
        <ele>128</ele>
        <time>2025-04-12T09:36:53Z</time>
      </trkpt>
      <trkpt lat="43.6633" lon="1.40552">
        <ele>128</ele>
        <time>2025-04-12T09:36:54Z</time>
      </trkpt>
      <trkpt lat="43.66328" lon="1.40555">
        <ele>128</ele>
        <time>2025-04-12T09:36:55Z</time>
      </trkpt>
      <trkpt lat="43.66326" lon="1.40558">
        <ele>128</ele>
        <time>2025-04-12T09:36:56Z</time>
      </trkpt>
      <trkpt lat="43.66325" lon="1.40561">
        <ele>128</ele>
        <time>2025-04-12T09:36:57Z</time>
      </trkpt>
      <trkpt lat="43.66325" lon="1.40561">
        <ele>128</ele>
        <time>2025-04-12T09:36:58Z</time>
      </trkpt>
      <trkpt lat="43.6632" lon="1.40566">
        <ele>128</ele>
        <time>2025-04-12T09:36:59Z</time>
      </trkpt>
      <trkpt lat="43.66317" lon="1.40568">
        <ele>128</ele>
        <time>2025-04-12T09:37:00Z</time>
      </trkpt>
      <trkpt lat="43.66315" lon="1.40569">
        <ele>128</ele>
        <time>2025-04-12T09:37:01Z</time>
      </trkpt>
      <trkpt lat="43.66313" lon="1.40571">
        <ele>128</ele>
        <time>2025-04-12T09:37:02Z</time>
      </trkpt>
      <trkpt lat="43.66311" lon="1.40572">
        <ele>129</ele>
        <time>2025-04-12T09:37:03Z</time>
      </trkpt>
      <trkpt lat="43.66309" lon="1.40574">
        <ele>129</ele>
        <time>2025-04-12T09:37:04Z</time>
      </trkpt>
      <trkpt lat="43.66305" lon="1.40579">
        <ele>129</ele>
        <time>2025-04-12T09:37:06Z</time>
      </trkpt>
      <trkpt lat="43.66302" lon="1.4058">
        <ele>129</ele>
        <time>2025-04-12T09:37:07Z</time>
      </trkpt>
      <trkpt lat="43.663" lon="1.40582">
        <ele>128</ele>
        <time>2025-04-12T09:37:08Z</time>
      </trkpt>
      <trkpt lat="43.66297" lon="1.40583">
        <ele>128</ele>
        <time>2025-04-12T09:37:09Z</time>
      </trkpt>
      <trkpt lat="43.66295" lon="1.40585">
        <ele>128</ele>
        <time>2025-04-12T09:37:10Z</time>
      </trkpt>
      <trkpt lat="43.66292" lon="1.40587">
        <ele>128</ele>
        <time>2025-04-12T09:37:11Z</time>
      </trkpt>
      <trkpt lat="43.66289" lon="1.40589">
        <ele>128</ele>
        <time>2025-04-12T09:37:12Z</time>
      </trkpt>
      <trkpt lat="43.66287" lon="1.40591">
        <ele>128</ele>
        <time>2025-04-12T09:37:13Z</time>
      </trkpt>
      <trkpt lat="43.66284" lon="1.40593">
        <ele>128</ele>
        <time>2025-04-12T09:37:14Z</time>
      </trkpt>
      <trkpt lat="43.66282" lon="1.40595">
        <ele>128</ele>
        <time>2025-04-12T09:37:15Z</time>
      </trkpt>
      <trkpt lat="43.6628" lon="1.40598">
        <ele>128</ele>
        <time>2025-04-12T09:37:16Z</time>
      </trkpt>
      <trkpt lat="43.66277" lon="1.40601">
        <ele>128</ele>
        <time>2025-04-12T09:37:17Z</time>
      </trkpt>
      <trkpt lat="43.66275" lon="1.40604">
        <ele>128</ele>
        <time>2025-04-12T09:37:18Z</time>
      </trkpt>
      <trkpt lat="43.66272" lon="1.40606">
        <ele>127</ele>
        <time>2025-04-12T09:37:19Z</time>
      </trkpt>
      <trkpt lat="43.6627" lon="1.40608">
        <ele>128</ele>
        <time>2025-04-12T09:37:20Z</time>
      </trkpt>
      <trkpt lat="43.66267" lon="1.40611">
        <ele>128</ele>
        <time>2025-04-12T09:37:21Z</time>
      </trkpt>
      <trkpt lat="43.66264" lon="1.40613">
        <ele>128</ele>
        <time>2025-04-12T09:37:22Z</time>
      </trkpt>
      <trkpt lat="43.66262" lon="1.40615">
        <ele>128</ele>
        <time>2025-04-12T09:37:23Z</time>
      </trkpt>
      <trkpt lat="43.66262" lon="1.40615">
        <ele>128</ele>
        <time>2025-04-12T09:37:24Z</time>
      </trkpt>
      <trkpt lat="43.66258" lon="1.40618">
        <ele>128</ele>
        <time>2025-04-12T09:37:25Z</time>
      </trkpt>
      <trkpt lat="43.66258" lon="1.40618">
        <ele>128</ele>
        <time>2025-04-12T09:37:26Z</time>
      </trkpt>
      <trkpt lat="43.66254" lon="1.40622">
        <ele>128</ele>
        <time>2025-04-12T09:37:27Z</time>
      </trkpt>
      <trkpt lat="43.66254" lon="1.40622">
        <ele>128</ele>
        <time>2025-04-12T09:37:28Z</time>
      </trkpt>
      <trkpt lat="43.66248" lon="1.40626">
        <ele>128</ele>
        <time>2025-04-12T09:37:29Z</time>
      </trkpt>
      <trkpt lat="43.66246" lon="1.40628">
        <ele>128</ele>
        <time>2025-04-12T09:37:30Z</time>
      </trkpt>
      <trkpt lat="43.66244" lon="1.40629">
        <ele>128</ele>
        <time>2025-04-12T09:37:31Z</time>
      </trkpt>
      <trkpt lat="43.66241" lon="1.40631">
        <ele>128</ele>
        <time>2025-04-12T09:37:32Z</time>
      </trkpt>
      <trkpt lat="43.66241" lon="1.40631">
        <ele>128</ele>
        <time>2025-04-12T09:37:33Z</time>
      </trkpt>
      <trkpt lat="43.66238" lon="1.40632">
        <ele>128</ele>
        <time>2025-04-12T09:37:34Z</time>
      </trkpt>
      <trkpt lat="43.66233" lon="1.40635">
        <ele>128</ele>
        <time>2025-04-12T09:37:35Z</time>
      </trkpt>
      <trkpt lat="43.6623" lon="1.40636">
        <ele>128</ele>
        <time>2025-04-12T09:37:36Z</time>
      </trkpt>
      <trkpt lat="43.66228" lon="1.40638">
        <ele>128</ele>
        <time>2025-04-12T09:37:37Z</time>
      </trkpt>
      <trkpt lat="43.66225" lon="1.40639">
        <ele>128</ele>
        <time>2025-04-12T09:37:38Z</time>
      </trkpt>
      <trkpt lat="43.66222" lon="1.4064">
        <ele>128</ele>
        <time>2025-04-12T09:37:39Z</time>
      </trkpt>
      <trkpt lat="43.6622" lon="1.40641">
        <ele>128</ele>
        <time>2025-04-12T09:37:40Z</time>
      </trkpt>
      <trkpt lat="43.66217" lon="1.40642">
        <ele>128</ele>
        <time>2025-04-12T09:37:41Z</time>
      </trkpt>
      <trkpt lat="43.66215" lon="1.40643">
        <ele>128</ele>
        <time>2025-04-12T09:37:42Z</time>
      </trkpt>
      <trkpt lat="43.6621" lon="1.40646">
        <ele>128</ele>
        <time>2025-04-12T09:37:44Z</time>
      </trkpt>
      <trkpt lat="43.66207" lon="1.40647">
        <ele>128</ele>
        <time>2025-04-12T09:37:45Z</time>
      </trkpt>
      <trkpt lat="43.66204" lon="1.40648">
        <ele>128</ele>
        <time>2025-04-12T09:37:46Z</time>
      </trkpt>
      <trkpt lat="43.66202" lon="1.4065">
        <ele>128</ele>
        <time>2025-04-12T09:37:47Z</time>
      </trkpt>
      <trkpt lat="43.66199" lon="1.40651">
        <ele>128</ele>
        <time>2025-04-12T09:37:48Z</time>
      </trkpt>
      <trkpt lat="43.66197" lon="1.40652">
        <ele>128</ele>
        <time>2025-04-12T09:37:49Z</time>
      </trkpt>
      <trkpt lat="43.66194" lon="1.40653">
        <ele>129</ele>
        <time>2025-04-12T09:37:50Z</time>
      </trkpt>
      <trkpt lat="43.66192" lon="1.40654">
        <ele>129</ele>
        <time>2025-04-12T09:37:51Z</time>
      </trkpt>
      <trkpt lat="43.66192" lon="1.40654">
        <ele>129</ele>
        <time>2025-04-12T09:37:52Z</time>
      </trkpt>
      <trkpt lat="43.66187" lon="1.40657">
        <ele>129</ele>
        <time>2025-04-12T09:37:53Z</time>
      </trkpt>
      <trkpt lat="43.66184" lon="1.40658">
        <ele>129</ele>
        <time>2025-04-12T09:37:54Z</time>
      </trkpt>
      <trkpt lat="43.66182" lon="1.40659">
        <ele>129</ele>
        <time>2025-04-12T09:37:55Z</time>
      </trkpt>
      <trkpt lat="43.66179" lon="1.4066">
        <ele>129</ele>
        <time>2025-04-12T09:37:56Z</time>
      </trkpt>
      <trkpt lat="43.66179" lon="1.4066">
        <ele>129</ele>
        <time>2025-04-12T09:37:57Z</time>
      </trkpt>
      <trkpt lat="43.66174" lon="1.40662">
        <ele>129</ele>
        <time>2025-04-12T09:37:58Z</time>
      </trkpt>
      <trkpt lat="43.66171" lon="1.40663">
        <ele>129</ele>
        <time>2025-04-12T09:37:59Z</time>
      </trkpt>
      <trkpt lat="43.66168" lon="1.40664">
        <ele>129</ele>
        <time>2025-04-12T09:38:00Z</time>
      </trkpt>
      <trkpt lat="43.66165" lon="1.40665">
        <ele>129</ele>
        <time>2025-04-12T09:38:01Z</time>
      </trkpt>
      <trkpt lat="43.66165" lon="1.40665">
        <ele>128</ele>
        <time>2025-04-12T09:38:02Z</time>
      </trkpt>
      <trkpt lat="43.66159" lon="1.40667">
        <ele>129</ele>
        <time>2025-04-12T09:38:03Z</time>
      </trkpt>
      <trkpt lat="43.66156" lon="1.40669">
        <ele>129</ele>
        <time>2025-04-12T09:38:04Z</time>
      </trkpt>
      <trkpt lat="43.66153" lon="1.4067">
        <ele>129</ele>
        <time>2025-04-12T09:38:05Z</time>
      </trkpt>
      <trkpt lat="43.6615" lon="1.40671">
        <ele>128</ele>
        <time>2025-04-12T09:38:06Z</time>
      </trkpt>
      <trkpt lat="43.66147" lon="1.40672">
        <ele>128</ele>
        <time>2025-04-12T09:38:07Z</time>
      </trkpt>
      <trkpt lat="43.66144" lon="1.40674">
        <ele>128</ele>
        <time>2025-04-12T09:38:08Z</time>
      </trkpt>
      <trkpt lat="43.66144" lon="1.40674">
        <ele>129</ele>
        <time>2025-04-12T09:38:09Z</time>
      </trkpt>
      <trkpt lat="43.66138" lon="1.40676">
        <ele>129</ele>
        <time>2025-04-12T09:38:10Z</time>
      </trkpt>
      <trkpt lat="43.66135" lon="1.40676">
        <ele>128</ele>
        <time>2025-04-12T09:38:11Z</time>
      </trkpt>
      <trkpt lat="43.66135" lon="1.40676">
        <ele>128</ele>
        <time>2025-04-12T09:38:12Z</time>
      </trkpt>
      <trkpt lat="43.66129" lon="1.40677">
        <ele>128</ele>
        <time>2025-04-12T09:38:13Z</time>
      </trkpt>
      <trkpt lat="43.66129" lon="1.40677">
        <ele>128</ele>
        <time>2025-04-12T09:38:14Z</time>
      </trkpt>
      <trkpt lat="43.66124" lon="1.40678">
        <ele>128</ele>
        <time>2025-04-12T09:38:15Z</time>
      </trkpt>
      <trkpt lat="43.66124" lon="1.40678">
        <ele>128</ele>
        <time>2025-04-12T09:38:16Z</time>
      </trkpt>
      <trkpt lat="43.66118" lon="1.40679">
        <ele>128</ele>
        <time>2025-04-12T09:38:17Z</time>
      </trkpt>
      <trkpt lat="43.66115" lon="1.4068">
        <ele>129</ele>
        <time>2025-04-12T09:38:18Z</time>
      </trkpt>
      <trkpt lat="43.66113" lon="1.40682">
        <ele>129</ele>
        <time>2025-04-12T09:38:19Z</time>
      </trkpt>
      <trkpt lat="43.6611" lon="1.40684">
        <ele>130</ele>
        <time>2025-04-12T09:38:20Z</time>
      </trkpt>
      <trkpt lat="43.66108" lon="1.40685">
        <ele>130</ele>
        <time>2025-04-12T09:38:21Z</time>
      </trkpt>
      <trkpt lat="43.66105" lon="1.40687">
        <ele>129</ele>
        <time>2025-04-12T09:38:22Z</time>
      </trkpt>
      <trkpt lat="43.66105" lon="1.40687">
        <ele>129</ele>
        <time>2025-04-12T09:38:23Z</time>
      </trkpt>
      <trkpt lat="43.66099" lon="1.40689">
        <ele>129</ele>
        <time>2025-04-12T09:38:24Z</time>
      </trkpt>
      <trkpt lat="43.66099" lon="1.40689">
        <ele>129</ele>
        <time>2025-04-12T09:38:25Z</time>
      </trkpt>
      <trkpt lat="43.66093" lon="1.40692">
        <ele>128</ele>
        <time>2025-04-12T09:38:26Z</time>
      </trkpt>
      <trkpt lat="43.6609" lon="1.40692">
        <ele>128</ele>
        <time>2025-04-12T09:38:27Z</time>
      </trkpt>
      <trkpt lat="43.66087" lon="1.40693">
        <ele>128</ele>
        <time>2025-04-12T09:38:28Z</time>
      </trkpt>
      <trkpt lat="43.66084" lon="1.40694">
        <ele>128</ele>
        <time>2025-04-12T09:38:29Z</time>
      </trkpt>
      <trkpt lat="43.66081" lon="1.40695">
        <ele>128</ele>
        <time>2025-04-12T09:38:30Z</time>
      </trkpt>
      <trkpt lat="43.66081" lon="1.40695">
        <ele>129</ele>
        <time>2025-04-12T09:38:31Z</time>
      </trkpt>
      <trkpt lat="43.66076" lon="1.40696">
        <ele>129</ele>
        <time>2025-04-12T09:38:32Z</time>
      </trkpt>
      <trkpt lat="43.66073" lon="1.40697">
        <ele>130</ele>
        <time>2025-04-12T09:38:33Z</time>
      </trkpt>
      <trkpt lat="43.6607" lon="1.40698">
        <ele>130</ele>
        <time>2025-04-12T09:38:34Z</time>
      </trkpt>
      <trkpt lat="43.66067" lon="1.407">
        <ele>130</ele>
        <time>2025-04-12T09:38:35Z</time>
      </trkpt>
      <trkpt lat="43.66067" lon="1.407">
        <ele>130</ele>
        <time>2025-04-12T09:38:36Z</time>
      </trkpt>
      <trkpt lat="43.66062" lon="1.40702">
        <ele>130</ele>
        <time>2025-04-12T09:38:37Z</time>
      </trkpt>
      <trkpt lat="43.66062" lon="1.40702">
        <ele>130</ele>
        <time>2025-04-12T09:38:38Z</time>
      </trkpt>
      <trkpt lat="43.66056" lon="1.40704">
        <ele>130</ele>
        <time>2025-04-12T09:38:39Z</time>
      </trkpt>
      <trkpt lat="43.66054" lon="1.40705">
        <ele>130</ele>
        <time>2025-04-12T09:38:40Z</time>
      </trkpt>
      <trkpt lat="43.66051" lon="1.40706">
        <ele>129</ele>
        <time>2025-04-12T09:38:41Z</time>
      </trkpt>
      <trkpt lat="43.66051" lon="1.40706">
        <ele>129</ele>
        <time>2025-04-12T09:38:42Z</time>
      </trkpt>
      <trkpt lat="43.66048" lon="1.40707">
        <ele>129</ele>
        <time>2025-04-12T09:38:43Z</time>
      </trkpt>
      <trkpt lat="43.66043" lon="1.40708">
        <ele>130</ele>
        <time>2025-04-12T09:38:44Z</time>
      </trkpt>
      <trkpt lat="43.6604" lon="1.40708">
        <ele>130</ele>
        <time>2025-04-12T09:38:45Z</time>
      </trkpt>
      <trkpt lat="43.66037" lon="1.40709">
        <ele>129</ele>
        <time>2025-04-12T09:38:46Z</time>
      </trkpt>
      <trkpt lat="43.66035" lon="1.4071">
        <ele>128</ele>
        <time>2025-04-12T09:38:47Z</time>
      </trkpt>
      <trkpt lat="43.66035" lon="1.4071">
        <ele>129</ele>
        <time>2025-04-12T09:38:48Z</time>
      </trkpt>
      <trkpt lat="43.66029" lon="1.40711">
        <ele>129</ele>
        <time>2025-04-12T09:38:49Z</time>
      </trkpt>
      <trkpt lat="43.66027" lon="1.40712">
        <ele>130</ele>
        <time>2025-04-12T09:38:50Z</time>
      </trkpt>
      <trkpt lat="43.66024" lon="1.40713">
        <ele>130</ele>
        <time>2025-04-12T09:38:51Z</time>
      </trkpt>
      <trkpt lat="43.66021" lon="1.40713">
        <ele>129</ele>
        <time>2025-04-12T09:38:52Z</time>
      </trkpt>
      <trkpt lat="43.66021" lon="1.40713">
        <ele>129</ele>
        <time>2025-04-12T09:38:53Z</time>
      </trkpt>
      <trkpt lat="43.66015" lon="1.40715">
        <ele>130</ele>
        <time>2025-04-12T09:38:54Z</time>
      </trkpt>
      <trkpt lat="43.66015" lon="1.40715">
        <ele>130</ele>
        <time>2025-04-12T09:38:55Z</time>
      </trkpt>
      <trkpt lat="43.6601" lon="1.40717">
        <ele>130</ele>
        <time>2025-04-12T09:38:56Z</time>
      </trkpt>
      <trkpt lat="43.66007" lon="1.40717">
        <ele>130</ele>
        <time>2025-04-12T09:38:57Z</time>
      </trkpt>
      <trkpt lat="43.66004" lon="1.40718">
        <ele>130</ele>
        <time>2025-04-12T09:38:58Z</time>
      </trkpt>
      <trkpt lat="43.65998" lon="1.40719">
        <ele>130</ele>
        <time>2025-04-12T09:39:00Z</time>
      </trkpt>
      <trkpt lat="43.65996" lon="1.40719">
        <ele>130</ele>
        <time>2025-04-12T09:39:02Z</time>
      </trkpt>
      <trkpt lat="43.6599" lon="1.4072">
        <ele>129</ele>
        <time>2025-04-12T09:39:03Z</time>
      </trkpt>
      <trkpt lat="43.6599" lon="1.4072">
        <ele>129</ele>
        <time>2025-04-12T09:39:04Z</time>
      </trkpt>
      <trkpt lat="43.65985" lon="1.40721">
        <ele>129</ele>
        <time>2025-04-12T09:39:05Z</time>
      </trkpt>
      <trkpt lat="43.65982" lon="1.40722">
        <ele>129</ele>
        <time>2025-04-12T09:39:06Z</time>
      </trkpt>
      <trkpt lat="43.65979" lon="1.40722">
        <ele>129</ele>
        <time>2025-04-12T09:39:07Z</time>
      </trkpt>
      <trkpt lat="43.65976" lon="1.40723">
        <ele>129</ele>
        <time>2025-04-12T09:39:08Z</time>
      </trkpt>
      <trkpt lat="43.65976" lon="1.40723">
        <ele>129</ele>
        <time>2025-04-12T09:39:09Z</time>
      </trkpt>
      <trkpt lat="43.65971" lon="1.40724">
        <ele>129</ele>
        <time>2025-04-12T09:39:10Z</time>
      </trkpt>
      <trkpt lat="43.65971" lon="1.40724">
        <ele>129</ele>
        <time>2025-04-12T09:39:11Z</time>
      </trkpt>
      <trkpt lat="43.65965" lon="1.40725">
        <ele>129</ele>
        <time>2025-04-12T09:39:12Z</time>
      </trkpt>
      <trkpt lat="43.65962" lon="1.40726">
        <ele>130</ele>
        <time>2025-04-12T09:39:13Z</time>
      </trkpt>
      <trkpt lat="43.65959" lon="1.40726">
        <ele>130</ele>
        <time>2025-04-12T09:39:14Z</time>
      </trkpt>
      <trkpt lat="43.65957" lon="1.40727">
        <ele>130</ele>
        <time>2025-04-12T09:39:15Z</time>
      </trkpt>
      <trkpt lat="43.65957" lon="1.40727">
        <ele>130</ele>
        <time>2025-04-12T09:39:16Z</time>
      </trkpt>
      <trkpt lat="43.65952" lon="1.40727">
        <ele>130</ele>
        <time>2025-04-12T09:39:17Z</time>
      </trkpt>
      <trkpt lat="43.65952" lon="1.40727">
        <ele>130</ele>
        <time>2025-04-12T09:39:18Z</time>
      </trkpt>
      <trkpt lat="43.65946" lon="1.40728">
        <ele>130</ele>
        <time>2025-04-12T09:39:19Z</time>
      </trkpt>
      <trkpt lat="43.65943" lon="1.40729">
        <ele>130</ele>
        <time>2025-04-12T09:39:20Z</time>
      </trkpt>
      <trkpt lat="43.65941" lon="1.40729">
        <ele>129</ele>
        <time>2025-04-12T09:39:21Z</time>
      </trkpt>
      <trkpt lat="43.65938" lon="1.4073">
        <ele>129</ele>
        <time>2025-04-12T09:39:22Z</time>
      </trkpt>
      <trkpt lat="43.65935" lon="1.4073">
        <ele>129</ele>
        <time>2025-04-12T09:39:23Z</time>
      </trkpt>
      <trkpt lat="43.65935" lon="1.4073">
        <ele>129</ele>
        <time>2025-04-12T09:39:24Z</time>
      </trkpt>
      <trkpt lat="43.65929" lon="1.40731">
        <ele>129</ele>
        <time>2025-04-12T09:39:25Z</time>
      </trkpt>
      <trkpt lat="43.65926" lon="1.40732">
        <ele>130</ele>
        <time>2025-04-12T09:39:26Z</time>
      </trkpt>
      <trkpt lat="43.65924" lon="1.40732">
        <ele>130</ele>
        <time>2025-04-12T09:39:27Z</time>
      </trkpt>
      <trkpt lat="43.65921" lon="1.40732">
        <ele>130</ele>
        <time>2025-04-12T09:39:28Z</time>
      </trkpt>
      <trkpt lat="43.65918" lon="1.40733">
        <ele>130</ele>
        <time>2025-04-12T09:39:29Z</time>
      </trkpt>
      <trkpt lat="43.65915" lon="1.40733">
        <ele>130</ele>
        <time>2025-04-12T09:39:30Z</time>
      </trkpt>
      <trkpt lat="43.65913" lon="1.40733">
        <ele>130</ele>
        <time>2025-04-12T09:39:31Z</time>
      </trkpt>
      <trkpt lat="43.6591" lon="1.40734">
        <ele>130</ele>
        <time>2025-04-12T09:39:32Z</time>
      </trkpt>
      <trkpt lat="43.65907" lon="1.40734">
        <ele>131</ele>
        <time>2025-04-12T09:39:33Z</time>
      </trkpt>
      <trkpt lat="43.65905" lon="1.40735">
        <ele>131</ele>
        <time>2025-04-12T09:39:34Z</time>
      </trkpt>
      <trkpt lat="43.65902" lon="1.40735">
        <ele>131</ele>
        <time>2025-04-12T09:39:35Z</time>
      </trkpt>
      <trkpt lat="43.659" lon="1.40735">
        <ele>130</ele>
        <time>2025-04-12T09:39:36Z</time>
      </trkpt>
      <trkpt lat="43.65894" lon="1.40736">
        <ele>129</ele>
        <time>2025-04-12T09:39:38Z</time>
      </trkpt>
      <trkpt lat="43.65892" lon="1.40736">
        <ele>129</ele>
        <time>2025-04-12T09:39:39Z</time>
      </trkpt>
      <trkpt lat="43.65889" lon="1.40736">
        <ele>129</ele>
        <time>2025-04-12T09:39:40Z</time>
      </trkpt>
      <trkpt lat="43.65886" lon="1.40736">
        <ele>130</ele>
        <time>2025-04-12T09:39:41Z</time>
      </trkpt>
      <trkpt lat="43.65882" lon="1.40737">
        <ele>131</ele>
        <time>2025-04-12T09:39:42Z</time>
      </trkpt>
      <trkpt lat="43.65879" lon="1.40737">
        <ele>131</ele>
        <time>2025-04-12T09:39:43Z</time>
      </trkpt>
      <trkpt lat="43.65877" lon="1.40737">
        <ele>130</ele>
        <time>2025-04-12T09:39:44Z</time>
      </trkpt>
      <trkpt lat="43.65874" lon="1.40737">
        <ele>129</ele>
        <time>2025-04-12T09:39:45Z</time>
      </trkpt>
      <trkpt lat="43.65874" lon="1.40737">
        <ele>130</ele>
        <time>2025-04-12T09:39:46Z</time>
      </trkpt>
      <trkpt lat="43.65869" lon="1.40738">
        <ele>130</ele>
        <time>2025-04-12T09:39:47Z</time>
      </trkpt>
      <trkpt lat="43.65867" lon="1.40739">
        <ele>130</ele>
        <time>2025-04-12T09:39:48Z</time>
      </trkpt>
      <trkpt lat="43.65864" lon="1.40739">
        <ele>130</ele>
        <time>2025-04-12T09:39:49Z</time>
      </trkpt>
      <trkpt lat="43.65862" lon="1.40739">
        <ele>130</ele>
        <time>2025-04-12T09:39:50Z</time>
      </trkpt>
      <trkpt lat="43.65859" lon="1.40739">
        <ele>130</ele>
        <time>2025-04-12T09:39:51Z</time>
      </trkpt>
      <trkpt lat="43.65857" lon="1.40739">
        <ele>129</ele>
        <time>2025-04-12T09:39:52Z</time>
      </trkpt>
      <trkpt lat="43.65854" lon="1.4074">
        <ele>130</ele>
        <time>2025-04-12T09:39:53Z</time>
      </trkpt>
      <trkpt lat="43.65851" lon="1.4074">
        <ele>130</ele>
        <time>2025-04-12T09:39:54Z</time>
      </trkpt>
      <trkpt lat="43.65848" lon="1.40741">
        <ele>130</ele>
        <time>2025-04-12T09:39:55Z</time>
      </trkpt>
      <trkpt lat="43.65843" lon="1.4074">
        <ele>129</ele>
        <time>2025-04-12T09:39:57Z</time>
      </trkpt>
      <trkpt lat="43.6584" lon="1.4074">
        <ele>129</ele>
        <time>2025-04-12T09:39:58Z</time>
      </trkpt>
      <trkpt lat="43.65838" lon="1.40741">
        <ele>129</ele>
        <time>2025-04-12T09:39:59Z</time>
      </trkpt>
      <trkpt lat="43.65835" lon="1.40741">
        <ele>129</ele>
        <time>2025-04-12T09:40:00Z</time>
      </trkpt>
      <trkpt lat="43.65832" lon="1.4074">
        <ele>129</ele>
        <time>2025-04-12T09:40:01Z</time>
      </trkpt>
      <trkpt lat="43.65829" lon="1.4074">
        <ele>129</ele>
        <time>2025-04-12T09:40:02Z</time>
      </trkpt>
      <trkpt lat="43.65827" lon="1.40741">
        <ele>129</ele>
        <time>2025-04-12T09:40:03Z</time>
      </trkpt>
      <trkpt lat="43.65824" lon="1.40741">
        <ele>130</ele>
        <time>2025-04-12T09:40:04Z</time>
      </trkpt>
      <trkpt lat="43.65822" lon="1.40741">
        <ele>130</ele>
        <time>2025-04-12T09:40:05Z</time>
      </trkpt>
      <trkpt lat="43.6582" lon="1.40742">
        <ele>130</ele>
        <time>2025-04-12T09:40:06Z</time>
      </trkpt>
      <trkpt lat="43.65817" lon="1.40742">
        <ele>130</ele>
        <time>2025-04-12T09:40:07Z</time>
      </trkpt>
      <trkpt lat="43.65814" lon="1.40742">
        <ele>130</ele>
        <time>2025-04-12T09:40:08Z</time>
      </trkpt>
      <trkpt lat="43.65812" lon="1.40742">
        <ele>130</ele>
        <time>2025-04-12T09:40:09Z</time>
      </trkpt>
      <trkpt lat="43.65809" lon="1.40742">
        <ele>129</ele>
        <time>2025-04-12T09:40:10Z</time>
      </trkpt>
      <trkpt lat="43.65806" lon="1.40743">
        <ele>129</ele>
        <time>2025-04-12T09:40:11Z</time>
      </trkpt>
      <trkpt lat="43.65804" lon="1.40743">
        <ele>129</ele>
        <time>2025-04-12T09:40:12Z</time>
      </trkpt>
      <trkpt lat="43.65801" lon="1.40744">
        <ele>129</ele>
        <time>2025-04-12T09:40:13Z</time>
      </trkpt>
      <trkpt lat="43.65801" lon="1.40744">
        <ele>129</ele>
        <time>2025-04-12T09:40:14Z</time>
      </trkpt>
      <trkpt lat="43.65795" lon="1.40744">
        <ele>129</ele>
        <time>2025-04-12T09:40:15Z</time>
      </trkpt>
      <trkpt lat="43.65793" lon="1.40743">
        <ele>129</ele>
        <time>2025-04-12T09:40:16Z</time>
      </trkpt>
      <trkpt lat="43.6579" lon="1.40743">
        <ele>129</ele>
        <time>2025-04-12T09:40:17Z</time>
      </trkpt>
      <trkpt lat="43.65787" lon="1.40743">
        <ele>129</ele>
        <time>2025-04-12T09:40:18Z</time>
      </trkpt>
      <trkpt lat="43.65787" lon="1.40743">
        <ele>129</ele>
        <time>2025-04-12T09:40:19Z</time>
      </trkpt>
      <trkpt lat="43.65782" lon="1.40743">
        <ele>129</ele>
        <time>2025-04-12T09:40:20Z</time>
      </trkpt>
      <trkpt lat="43.65779" lon="1.40743">
        <ele>129</ele>
        <time>2025-04-12T09:40:21Z</time>
      </trkpt>
      <trkpt lat="43.65777" lon="1.40743">
        <ele>129</ele>
        <time>2025-04-12T09:40:22Z</time>
      </trkpt>
      <trkpt lat="43.65774" lon="1.40742">
        <ele>129</ele>
        <time>2025-04-12T09:40:23Z</time>
      </trkpt>
      <trkpt lat="43.65774" lon="1.40742">
        <ele>129</ele>
        <time>2025-04-12T09:40:24Z</time>
      </trkpt>
      <trkpt lat="43.65768" lon="1.40742">
        <ele>129</ele>
        <time>2025-04-12T09:40:25Z</time>
      </trkpt>
      <trkpt lat="43.65768" lon="1.40742">
        <ele>129</ele>
        <time>2025-04-12T09:40:26Z</time>
      </trkpt>
      <trkpt lat="43.65763" lon="1.40741">
        <ele>129</ele>
        <time>2025-04-12T09:40:27Z</time>
      </trkpt>
      <trkpt lat="43.6576" lon="1.40741">
        <ele>129</ele>
        <time>2025-04-12T09:40:28Z</time>
      </trkpt>
      <trkpt lat="43.65758" lon="1.40741">
        <ele>129</ele>
        <time>2025-04-12T09:40:29Z</time>
      </trkpt>
      <trkpt lat="43.65755" lon="1.40741">
        <ele>130</ele>
        <time>2025-04-12T09:40:30Z</time>
      </trkpt>
      <trkpt lat="43.65755" lon="1.40741">
        <ele>130</ele>
        <time>2025-04-12T09:40:31Z</time>
      </trkpt>
      <trkpt lat="43.65749" lon="1.40741">
        <ele>130</ele>
        <time>2025-04-12T09:40:32Z</time>
      </trkpt>
      <trkpt lat="43.65747" lon="1.40741">
        <ele>130</ele>
        <time>2025-04-12T09:40:33Z</time>
      </trkpt>
      <trkpt lat="43.65747" lon="1.40741">
        <ele>129</ele>
        <time>2025-04-12T09:40:34Z</time>
      </trkpt>
      <trkpt lat="43.65742" lon="1.40742">
        <ele>130</ele>
        <time>2025-04-12T09:40:35Z</time>
      </trkpt>
      <trkpt lat="43.65742" lon="1.40742">
        <ele>130</ele>
        <time>2025-04-12T09:40:36Z</time>
      </trkpt>
      <trkpt lat="43.65737" lon="1.40743">
        <ele>130</ele>
        <time>2025-04-12T09:40:37Z</time>
      </trkpt>
      <trkpt lat="43.65737" lon="1.40743">
        <ele>129</ele>
        <time>2025-04-12T09:40:38Z</time>
      </trkpt>
      <trkpt lat="43.65732" lon="1.40744">
        <ele>129</ele>
        <time>2025-04-12T09:40:39Z</time>
      </trkpt>
      <trkpt lat="43.65729" lon="1.40744">
        <ele>129</ele>
        <time>2025-04-12T09:40:40Z</time>
      </trkpt>
      <trkpt lat="43.65729" lon="1.40744">
        <ele>129</ele>
        <time>2025-04-12T09:40:41Z</time>
      </trkpt>
      <trkpt lat="43.65724" lon="1.40744">
        <ele>129</ele>
        <time>2025-04-12T09:40:42Z</time>
      </trkpt>
      <trkpt lat="43.65724" lon="1.40744">
        <ele>130</ele>
        <time>2025-04-12T09:40:43Z</time>
      </trkpt>
      <trkpt lat="43.65718" lon="1.40745">
        <ele>130</ele>
        <time>2025-04-12T09:40:44Z</time>
      </trkpt>
      <trkpt lat="43.65715" lon="1.40745">
        <ele>129</ele>
        <time>2025-04-12T09:40:45Z</time>
      </trkpt>
      <trkpt lat="43.65713" lon="1.40746">
        <ele>129</ele>
        <time>2025-04-12T09:40:46Z</time>
      </trkpt>
      <trkpt lat="43.6571" lon="1.40747">
        <ele>130</ele>
        <time>2025-04-12T09:40:47Z</time>
      </trkpt>
      <trkpt lat="43.65707" lon="1.40748">
        <ele>130</ele>
        <time>2025-04-12T09:40:48Z</time>
      </trkpt>
      <trkpt lat="43.65705" lon="1.40749">
        <ele>130</ele>
        <time>2025-04-12T09:40:49Z</time>
      </trkpt>
      <trkpt lat="43.65703" lon="1.4075">
        <ele>130</ele>
        <time>2025-04-12T09:40:50Z</time>
      </trkpt>
      <trkpt lat="43.657" lon="1.4075">
        <ele>130</ele>
        <time>2025-04-12T09:40:51Z</time>
      </trkpt>
      <trkpt lat="43.657" lon="1.4075">
        <ele>130</ele>
        <time>2025-04-12T09:40:52Z</time>
      </trkpt>
      <trkpt lat="43.65696" lon="1.40751">
        <ele>130</ele>
        <time>2025-04-12T09:40:53Z</time>
      </trkpt>
      <trkpt lat="43.65693" lon="1.40752">
        <ele>131</ele>
        <time>2025-04-12T09:40:54Z</time>
      </trkpt>
      <trkpt lat="43.65693" lon="1.40752">
        <ele>131</ele>
        <time>2025-04-12T09:40:55Z</time>
      </trkpt>
      <trkpt lat="43.65687" lon="1.40753">
        <ele>131</ele>
        <time>2025-04-12T09:40:56Z</time>
      </trkpt>
      <trkpt lat="43.65687" lon="1.40753">
        <ele>132</ele>
        <time>2025-04-12T09:40:57Z</time>
      </trkpt>
      <trkpt lat="43.65682" lon="1.40753">
        <ele>132</ele>
        <time>2025-04-12T09:40:58Z</time>
      </trkpt>
      <trkpt lat="43.65679" lon="1.40754">
        <ele>132</ele>
        <time>2025-04-12T09:40:59Z</time>
      </trkpt>
      <trkpt lat="43.65676" lon="1.40754">
        <ele>132</ele>
        <time>2025-04-12T09:41:00Z</time>
      </trkpt>
      <trkpt lat="43.65673" lon="1.40754">
        <ele>132</ele>
        <time>2025-04-12T09:41:01Z</time>
      </trkpt>
      <trkpt lat="43.65673" lon="1.40754">
        <ele>131</ele>
        <time>2025-04-12T09:41:02Z</time>
      </trkpt>
      <trkpt lat="43.65668" lon="1.40754">
        <ele>131</ele>
        <time>2025-04-12T09:41:03Z</time>
      </trkpt>
      <trkpt lat="43.65668" lon="1.40754">
        <ele>131</ele>
        <time>2025-04-12T09:41:04Z</time>
      </trkpt>
      <trkpt lat="43.65662" lon="1.40754">
        <ele>131</ele>
        <time>2025-04-12T09:41:05Z</time>
      </trkpt>
      <trkpt lat="43.65659" lon="1.40754">
        <ele>131</ele>
        <time>2025-04-12T09:41:06Z</time>
      </trkpt>
      <trkpt lat="43.65657" lon="1.40754">
        <ele>131</ele>
        <time>2025-04-12T09:41:07Z</time>
      </trkpt>
      <trkpt lat="43.65654" lon="1.40754">
        <ele>131</ele>
        <time>2025-04-12T09:41:08Z</time>
      </trkpt>
      <trkpt lat="43.65651" lon="1.40754">
        <ele>131</ele>
        <time>2025-04-12T09:41:09Z</time>
      </trkpt>
      <trkpt lat="43.65648" lon="1.40754">
        <ele>131</ele>
        <time>2025-04-12T09:41:10Z</time>
      </trkpt>
      <trkpt lat="43.65646" lon="1.40754">
        <ele>131</ele>
        <time>2025-04-12T09:41:11Z</time>
      </trkpt>
      <trkpt lat="43.6564" lon="1.40754">
        <ele>131</ele>
        <time>2025-04-12T09:41:13Z</time>
      </trkpt>
      <trkpt lat="43.65637" lon="1.40755">
        <ele>131</ele>
        <time>2025-04-12T09:41:14Z</time>
      </trkpt>
      <trkpt lat="43.65637" lon="1.40755">
        <ele>131</ele>
        <time>2025-04-12T09:41:15Z</time>
      </trkpt>
      <trkpt lat="43.65631" lon="1.40756">
        <ele>130</ele>
        <time>2025-04-12T09:41:16Z</time>
      </trkpt>
      <trkpt lat="43.65631" lon="1.40756">
        <ele>130</ele>
        <time>2025-04-12T09:41:17Z</time>
      </trkpt>
      <trkpt lat="43.65626" lon="1.40757">
        <ele>131</ele>
        <time>2025-04-12T09:41:18Z</time>
      </trkpt>
      <trkpt lat="43.65623" lon="1.40757">
        <ele>131</ele>
        <time>2025-04-12T09:41:19Z</time>
      </trkpt>
      <trkpt lat="43.6562" lon="1.40758">
        <ele>131</ele>
        <time>2025-04-12T09:41:20Z</time>
      </trkpt>
      <trkpt lat="43.65617" lon="1.40759">
        <ele>131</ele>
        <time>2025-04-12T09:41:21Z</time>
      </trkpt>
      <trkpt lat="43.65614" lon="1.40759">
        <ele>131</ele>
        <time>2025-04-12T09:41:22Z</time>
      </trkpt>
      <trkpt lat="43.65611" lon="1.40759">
        <ele>131</ele>
        <time>2025-04-12T09:41:23Z</time>
      </trkpt>
      <trkpt lat="43.65611" lon="1.40759">
        <ele>131</ele>
        <time>2025-04-12T09:41:24Z</time>
      </trkpt>
      <trkpt lat="43.65605" lon="1.40759">
        <ele>130</ele>
        <time>2025-04-12T09:41:25Z</time>
      </trkpt>
      <trkpt lat="43.65602" lon="1.40758">
        <ele>130</ele>
        <time>2025-04-12T09:41:26Z</time>
      </trkpt>
      <trkpt lat="43.65602" lon="1.40758">
        <ele>130</ele>
        <time>2025-04-12T09:41:27Z</time>
      </trkpt>
      <trkpt lat="43.65596" lon="1.40758">
        <ele>130</ele>
        <time>2025-04-12T09:41:28Z</time>
      </trkpt>
      <trkpt lat="43.65593" lon="1.40758">
        <ele>130</ele>
        <time>2025-04-12T09:41:29Z</time>
      </trkpt>
      <trkpt lat="43.65593" lon="1.40758">
        <ele>130</ele>
        <time>2025-04-12T09:41:30Z</time>
      </trkpt>
      <trkpt lat="43.6559" lon="1.40759">
        <ele>130</ele>
        <time>2025-04-12T09:41:31Z</time>
      </trkpt>
      <trkpt lat="43.65585" lon="1.40759">
        <ele>130</ele>
        <time>2025-04-12T09:41:32Z</time>
      </trkpt>
      <trkpt lat="43.65585" lon="1.40759">
        <ele>130</ele>
        <time>2025-04-12T09:41:33Z</time>
      </trkpt>
      <trkpt lat="43.65579" lon="1.4076">
        <ele>130</ele>
        <time>2025-04-12T09:41:34Z</time>
      </trkpt>
      <trkpt lat="43.65576" lon="1.40761">
        <ele>130</ele>
        <time>2025-04-12T09:41:35Z</time>
      </trkpt>
      <trkpt lat="43.65574" lon="1.40762">
        <ele>130</ele>
        <time>2025-04-12T09:41:36Z</time>
      </trkpt>
      <trkpt lat="43.65571" lon="1.40763">
        <ele>130</ele>
        <time>2025-04-12T09:41:37Z</time>
      </trkpt>
      <trkpt lat="43.65568" lon="1.40764">
        <ele>130</ele>
        <time>2025-04-12T09:41:38Z</time>
      </trkpt>
      <trkpt lat="43.65565" lon="1.40766">
        <ele>130</ele>
        <time>2025-04-12T09:41:39Z</time>
      </trkpt>
      <trkpt lat="43.65565" lon="1.40766">
        <ele>130</ele>
        <time>2025-04-12T09:41:40Z</time>
      </trkpt>
      <trkpt lat="43.6556" lon="1.40768">
        <ele>130</ele>
        <time>2025-04-12T09:41:41Z</time>
      </trkpt>
      <trkpt lat="43.65557" lon="1.40769">
        <ele>130</ele>
        <time>2025-04-12T09:41:42Z</time>
      </trkpt>
      <trkpt lat="43.65555" lon="1.4077">
        <ele>130</ele>
        <time>2025-04-12T09:41:43Z</time>
      </trkpt>
      <trkpt lat="43.65552" lon="1.40771">
        <ele>129</ele>
        <time>2025-04-12T09:41:44Z</time>
      </trkpt>
      <trkpt lat="43.65552" lon="1.40771">
        <ele>130</ele>
        <time>2025-04-12T09:41:45Z</time>
      </trkpt>
      <trkpt lat="43.65547" lon="1.40772">
        <ele>130</ele>
        <time>2025-04-12T09:41:46Z</time>
      </trkpt>
      <trkpt lat="43.65544" lon="1.40772">
        <ele>130</ele>
        <time>2025-04-12T09:41:47Z</time>
      </trkpt>
      <trkpt lat="43.65544" lon="1.40772">
        <ele>130</ele>
        <time>2025-04-12T09:41:48Z</time>
      </trkpt>
      <trkpt lat="43.65538" lon="1.40774">
        <ele>130</ele>
        <time>2025-04-12T09:41:49Z</time>
      </trkpt>
      <trkpt lat="43.65538" lon="1.40774">
        <ele>130</ele>
        <time>2025-04-12T09:41:50Z</time>
      </trkpt>
      <trkpt lat="43.65532" lon="1.40774">
        <ele>130</ele>
        <time>2025-04-12T09:41:51Z</time>
      </trkpt>
      <trkpt lat="43.65529" lon="1.40774">
        <ele>130</ele>
        <time>2025-04-12T09:41:52Z</time>
      </trkpt>
      <trkpt lat="43.65526" lon="1.40774">
        <ele>130</ele>
        <time>2025-04-12T09:41:53Z</time>
      </trkpt>
      <trkpt lat="43.65526" lon="1.40774">
        <ele>130</ele>
        <time>2025-04-12T09:41:54Z</time>
      </trkpt>
      <trkpt lat="43.65521" lon="1.40774">
        <ele>130</ele>
        <time>2025-04-12T09:41:55Z</time>
      </trkpt>
      <trkpt lat="43.65518" lon="1.40774">
        <ele>130</ele>
        <time>2025-04-12T09:41:56Z</time>
      </trkpt>
      <trkpt lat="43.65515" lon="1.40773">
        <ele>130</ele>
        <time>2025-04-12T09:41:57Z</time>
      </trkpt>
      <trkpt lat="43.65512" lon="1.40773">
        <ele>130</ele>
        <time>2025-04-12T09:41:58Z</time>
      </trkpt>
      <trkpt lat="43.65508" lon="1.40772">
        <ele>130</ele>
        <time>2025-04-12T09:41:59Z</time>
      </trkpt>
      <trkpt lat="43.65505" lon="1.4077">
        <ele>129</ele>
        <time>2025-04-12T09:42:00Z</time>
      </trkpt>
      <trkpt lat="43.65502" lon="1.40769">
        <ele>129</ele>
        <time>2025-04-12T09:42:01Z</time>
      </trkpt>
      <trkpt lat="43.65502" lon="1.40769">
        <ele>128</ele>
        <time>2025-04-12T09:42:02Z</time>
      </trkpt>
      <trkpt lat="43.65496" lon="1.40765">
        <ele>128</ele>
        <time>2025-04-12T09:42:03Z</time>
      </trkpt>
      <trkpt lat="43.65494" lon="1.40763">
        <ele>128</ele>
        <time>2025-04-12T09:42:04Z</time>
      </trkpt>
      <trkpt lat="43.65491" lon="1.40762">
        <ele>128</ele>
        <time>2025-04-12T09:42:05Z</time>
      </trkpt>
      <trkpt lat="43.65488" lon="1.4076">
        <ele>128</ele>
        <time>2025-04-12T09:42:06Z</time>
      </trkpt>
      <trkpt lat="43.65486" lon="1.40757">
        <ele>128</ele>
        <time>2025-04-12T09:42:07Z</time>
      </trkpt>
      <trkpt lat="43.65483" lon="1.40755">
        <ele>128</ele>
        <time>2025-04-12T09:42:08Z</time>
      </trkpt>
      <trkpt lat="43.6548" lon="1.40753">
        <ele>127</ele>
        <time>2025-04-12T09:42:09Z</time>
      </trkpt>
      <trkpt lat="43.65477" lon="1.40752">
        <ele>127</ele>
        <time>2025-04-12T09:42:10Z</time>
      </trkpt>
      <trkpt lat="43.65474" lon="1.4075">
        <ele>127</ele>
        <time>2025-04-12T09:42:11Z</time>
      </trkpt>
      <trkpt lat="43.65471" lon="1.40749">
        <ele>127</ele>
        <time>2025-04-12T09:42:12Z</time>
      </trkpt>
      <trkpt lat="43.65471" lon="1.40749">
        <ele>127</ele>
        <time>2025-04-12T09:42:13Z</time>
      </trkpt>
      <trkpt lat="43.65465" lon="1.40746">
        <ele>127</ele>
        <time>2025-04-12T09:42:14Z</time>
      </trkpt>
      <trkpt lat="43.65463" lon="1.40745">
        <ele>127</ele>
        <time>2025-04-12T09:42:15Z</time>
      </trkpt>
      <trkpt lat="43.6546" lon="1.40743">
        <ele>127</ele>
        <time>2025-04-12T09:42:16Z</time>
      </trkpt>
      <trkpt lat="43.65457" lon="1.40741">
        <ele>127</ele>
        <time>2025-04-12T09:42:17Z</time>
      </trkpt>
      <trkpt lat="43.65455" lon="1.40739">
        <ele>127</ele>
        <time>2025-04-12T09:42:18Z</time>
      </trkpt>
      <trkpt lat="43.65452" lon="1.40738">
        <ele>127</ele>
        <time>2025-04-12T09:42:19Z</time>
      </trkpt>
      <trkpt lat="43.6545" lon="1.40736">
        <ele>127</ele>
        <time>2025-04-12T09:42:20Z</time>
      </trkpt>
      <trkpt lat="43.65447" lon="1.40734">
        <ele>127</ele>
        <time>2025-04-12T09:42:21Z</time>
      </trkpt>
      <trkpt lat="43.65445" lon="1.40732">
        <ele>127</ele>
        <time>2025-04-12T09:42:22Z</time>
      </trkpt>
      <trkpt lat="43.65442" lon="1.40731">
        <ele>127</ele>
        <time>2025-04-12T09:42:23Z</time>
      </trkpt>
      <trkpt lat="43.6544" lon="1.40728">
        <ele>127</ele>
        <time>2025-04-12T09:42:24Z</time>
      </trkpt>
      <trkpt lat="43.65437" lon="1.40726">
        <ele>128</ele>
        <time>2025-04-12T09:42:25Z</time>
      </trkpt>
      <trkpt lat="43.65435" lon="1.40724">
        <ele>128</ele>
        <time>2025-04-12T09:42:26Z</time>
      </trkpt>
      <trkpt lat="43.65432" lon="1.40723">
        <ele>128</ele>
        <time>2025-04-12T09:42:27Z</time>
      </trkpt>
      <trkpt lat="43.65429" lon="1.40721">
        <ele>128</ele>
        <time>2025-04-12T09:42:28Z</time>
      </trkpt>
      <trkpt lat="43.65427" lon="1.40719">
        <ele>128</ele>
        <time>2025-04-12T09:42:29Z</time>
      </trkpt>
      <trkpt lat="43.65427" lon="1.40719">
        <ele>128</ele>
        <time>2025-04-12T09:42:30Z</time>
      </trkpt>
      <trkpt lat="43.65422" lon="1.40716">
        <ele>128</ele>
        <time>2025-04-12T09:42:31Z</time>
      </trkpt>
      <trkpt lat="43.65422" lon="1.40716">
        <ele>127</ele>
        <time>2025-04-12T09:42:32Z</time>
      </trkpt>
      <trkpt lat="43.65417" lon="1.40713">
        <ele>127</ele>
        <time>2025-04-12T09:42:33Z</time>
      </trkpt>
      <trkpt lat="43.65414" lon="1.40712">
        <ele>127</ele>
        <time>2025-04-12T09:42:34Z</time>
      </trkpt>
      <trkpt lat="43.65411" lon="1.4071">
        <ele>127</ele>
        <time>2025-04-12T09:42:35Z</time>
      </trkpt>
      <trkpt lat="43.65409" lon="1.40708">
        <ele>127</ele>
        <time>2025-04-12T09:42:36Z</time>
      </trkpt>
      <trkpt lat="43.65406" lon="1.40706">
        <ele>127</ele>
        <time>2025-04-12T09:42:37Z</time>
      </trkpt>
      <trkpt lat="43.65403" lon="1.40705">
        <ele>127</ele>
        <time>2025-04-12T09:42:38Z</time>
      </trkpt>
      <trkpt lat="43.65403" lon="1.40705">
        <ele>127</ele>
        <time>2025-04-12T09:42:39Z</time>
      </trkpt>
      <trkpt lat="43.65398" lon="1.40701">
        <ele>127</ele>
        <time>2025-04-12T09:42:40Z</time>
      </trkpt>
      <trkpt lat="43.65398" lon="1.40701">
        <ele>127</ele>
        <time>2025-04-12T09:42:41Z</time>
      </trkpt>
      <trkpt lat="43.65393" lon="1.40698">
        <ele>127</ele>
        <time>2025-04-12T09:42:42Z</time>
      </trkpt>
      <trkpt lat="43.65391" lon="1.40696">
        <ele>127</ele>
        <time>2025-04-12T09:42:43Z</time>
      </trkpt>
      <trkpt lat="43.65388" lon="1.40695">
        <ele>127</ele>
        <time>2025-04-12T09:42:44Z</time>
      </trkpt>
      <trkpt lat="43.65386" lon="1.40693">
        <ele>127</ele>
        <time>2025-04-12T09:42:45Z</time>
      </trkpt>
      <trkpt lat="43.65386" lon="1.40693">
        <ele>127</ele>
        <time>2025-04-12T09:42:46Z</time>
      </trkpt>
      <trkpt lat="43.65383" lon="1.40692">
        <ele>127</ele>
        <time>2025-04-12T09:42:47Z</time>
      </trkpt>
      <trkpt lat="43.65378" lon="1.40689">
        <ele>127</ele>
        <time>2025-04-12T09:42:48Z</time>
      </trkpt>
      <trkpt lat="43.65376" lon="1.40687">
        <ele>127</ele>
        <time>2025-04-12T09:42:49Z</time>
      </trkpt>
      <trkpt lat="43.65373" lon="1.40685">
        <ele>127</ele>
        <time>2025-04-12T09:42:50Z</time>
      </trkpt>
      <trkpt lat="43.65373" lon="1.40685">
        <ele>127</ele>
        <time>2025-04-12T09:42:51Z</time>
      </trkpt>
      <trkpt lat="43.65368" lon="1.40682">
        <ele>127</ele>
        <time>2025-04-12T09:42:52Z</time>
      </trkpt>
      <trkpt lat="43.65365" lon="1.4068">
        <ele>127</ele>
        <time>2025-04-12T09:42:54Z</time>
      </trkpt>
      <trkpt lat="43.6536" lon="1.40677">
        <ele>127</ele>
        <time>2025-04-12T09:42:55Z</time>
      </trkpt>
      <trkpt lat="43.6536" lon="1.40677">
        <ele>127</ele>
        <time>2025-04-12T09:42:56Z</time>
      </trkpt>
      <trkpt lat="43.65355" lon="1.40673">
        <ele>127</ele>
        <time>2025-04-12T09:42:57Z</time>
      </trkpt>
      <trkpt lat="43.65353" lon="1.40671">
        <ele>127</ele>
        <time>2025-04-12T09:42:58Z</time>
      </trkpt>
      <trkpt lat="43.6535" lon="1.40669">
        <ele>127</ele>
        <time>2025-04-12T09:42:59Z</time>
      </trkpt>
      <trkpt lat="43.65347" lon="1.40668">
        <ele>127</ele>
        <time>2025-04-12T09:43:00Z</time>
      </trkpt>
      <trkpt lat="43.65347" lon="1.40668">
        <ele>127</ele>
        <time>2025-04-12T09:43:01Z</time>
      </trkpt>
      <trkpt lat="43.65343" lon="1.40664">
        <ele>127</ele>
        <time>2025-04-12T09:43:02Z</time>
      </trkpt>
      <trkpt lat="43.6534" lon="1.40662">
        <ele>127</ele>
        <time>2025-04-12T09:43:03Z</time>
      </trkpt>
      <trkpt lat="43.65338" lon="1.4066">
        <ele>127</ele>
        <time>2025-04-12T09:43:04Z</time>
      </trkpt>
      <trkpt lat="43.65335" lon="1.40658">
        <ele>127</ele>
        <time>2025-04-12T09:43:05Z</time>
      </trkpt>
      <trkpt lat="43.6533" lon="1.40654">
        <ele>127</ele>
        <time>2025-04-12T09:43:07Z</time>
      </trkpt>
      <trkpt lat="43.65328" lon="1.40651">
        <ele>127</ele>
        <time>2025-04-12T09:43:08Z</time>
      </trkpt>
      <trkpt lat="43.65325" lon="1.4065">
        <ele>127</ele>
        <time>2025-04-12T09:43:09Z</time>
      </trkpt>
      <trkpt lat="43.65323" lon="1.40648">
        <ele>127</ele>
        <time>2025-04-12T09:43:10Z</time>
      </trkpt>
      <trkpt lat="43.65321" lon="1.40647">
        <ele>127</ele>
        <time>2025-04-12T09:43:11Z</time>
      </trkpt>
      <trkpt lat="43.65318" lon="1.40645">
        <ele>127</ele>
        <time>2025-04-12T09:43:12Z</time>
      </trkpt>
      <trkpt lat="43.65316" lon="1.40643">
        <ele>127</ele>
        <time>2025-04-12T09:43:13Z</time>
      </trkpt>
      <trkpt lat="43.65313" lon="1.40641">
        <ele>127</ele>
        <time>2025-04-12T09:43:14Z</time>
      </trkpt>
      <trkpt lat="43.65311" lon="1.40639">
        <ele>127</ele>
        <time>2025-04-12T09:43:15Z</time>
      </trkpt>
      <trkpt lat="43.65311" lon="1.40639">
        <ele>127</ele>
        <time>2025-04-12T09:43:16Z</time>
      </trkpt>
      <trkpt lat="43.65306" lon="1.40635">
        <ele>127</ele>
        <time>2025-04-12T09:43:17Z</time>
      </trkpt>
      <trkpt lat="43.65304" lon="1.40633">
        <ele>127</ele>
        <time>2025-04-12T09:43:18Z</time>
      </trkpt>
      <trkpt lat="43.65301" lon="1.40631">
        <ele>127</ele>
        <time>2025-04-12T09:43:19Z</time>
      </trkpt>
      <trkpt lat="43.65298" lon="1.40629">
        <ele>127</ele>
        <time>2025-04-12T09:43:20Z</time>
      </trkpt>
      <trkpt lat="43.65296" lon="1.40627">
        <ele>127</ele>
        <time>2025-04-12T09:43:21Z</time>
      </trkpt>
      <trkpt lat="43.65293" lon="1.40626">
        <ele>127</ele>
        <time>2025-04-12T09:43:22Z</time>
      </trkpt>
      <trkpt lat="43.65291" lon="1.40624">
        <ele>127</ele>
        <time>2025-04-12T09:43:23Z</time>
      </trkpt>
      <trkpt lat="43.65288" lon="1.40622">
        <ele>127</ele>
        <time>2025-04-12T09:43:24Z</time>
      </trkpt>
      <trkpt lat="43.65286" lon="1.4062">
        <ele>127</ele>
        <time>2025-04-12T09:43:25Z</time>
      </trkpt>
      <trkpt lat="43.65283" lon="1.40618">
        <ele>127</ele>
        <time>2025-04-12T09:43:26Z</time>
      </trkpt>
      <trkpt lat="43.65283" lon="1.40618">
        <ele>127</ele>
        <time>2025-04-12T09:43:27Z</time>
      </trkpt>
      <trkpt lat="43.65281" lon="1.40616">
        <ele>127</ele>
        <time>2025-04-12T09:43:28Z</time>
      </trkpt>
      <trkpt lat="43.65276" lon="1.40612">
        <ele>127</ele>
        <time>2025-04-12T09:43:29Z</time>
      </trkpt>
      <trkpt lat="43.65274" lon="1.4061">
        <ele>127</ele>
        <time>2025-04-12T09:43:30Z</time>
      </trkpt>
      <trkpt lat="43.65271" lon="1.40608">
        <ele>127</ele>
        <time>2025-04-12T09:43:31Z</time>
      </trkpt>
      <trkpt lat="43.65269" lon="1.40606">
        <ele>127</ele>
        <time>2025-04-12T09:43:32Z</time>
      </trkpt>
      <trkpt lat="43.65266" lon="1.40604">
        <ele>127</ele>
        <time>2025-04-12T09:43:33Z</time>
      </trkpt>
      <trkpt lat="43.65263" lon="1.40602">
        <ele>127</ele>
        <time>2025-04-12T09:43:34Z</time>
      </trkpt>
      <trkpt lat="43.65261" lon="1.406">
        <ele>127</ele>
        <time>2025-04-12T09:43:35Z</time>
      </trkpt>
      <trkpt lat="43.65258" lon="1.40598">
        <ele>127</ele>
        <time>2025-04-12T09:43:36Z</time>
      </trkpt>
      <trkpt lat="43.65256" lon="1.40595">
        <ele>127</ele>
        <time>2025-04-12T09:43:37Z</time>
      </trkpt>
      <trkpt lat="43.65256" lon="1.40595">
        <ele>127</ele>
        <time>2025-04-12T09:43:38Z</time>
      </trkpt>
      <trkpt lat="43.65252" lon="1.40591">
        <ele>127</ele>
        <time>2025-04-12T09:43:39Z</time>
      </trkpt>
      <trkpt lat="43.65252" lon="1.40591">
        <ele>127</ele>
        <time>2025-04-12T09:43:40Z</time>
      </trkpt>
      <trkpt lat="43.65247" lon="1.40586">
        <ele>127</ele>
        <time>2025-04-12T09:43:41Z</time>
      </trkpt>
      <trkpt lat="43.65245" lon="1.40584">
        <ele>127</ele>
        <time>2025-04-12T09:43:42Z</time>
      </trkpt>
      <trkpt lat="43.65243" lon="1.40582">
        <ele>127</ele>
        <time>2025-04-12T09:43:43Z</time>
      </trkpt>
      <trkpt lat="43.65238" lon="1.40578">
        <ele>127</ele>
        <time>2025-04-12T09:43:45Z</time>
      </trkpt>
      <trkpt lat="43.65235" lon="1.40576">
        <ele>127</ele>
        <time>2025-04-12T09:43:47Z</time>
      </trkpt>
      <trkpt lat="43.65231" lon="1.40572">
        <ele>127</ele>
        <time>2025-04-12T09:43:48Z</time>
      </trkpt>
      <trkpt lat="43.65231" lon="1.40572">
        <ele>127</ele>
        <time>2025-04-12T09:43:49Z</time>
      </trkpt>
      <trkpt lat="43.65226" lon="1.40568">
        <ele>127</ele>
        <time>2025-04-12T09:43:50Z</time>
      </trkpt>
      <trkpt lat="43.65223" lon="1.40567">
        <ele>127</ele>
        <time>2025-04-12T09:43:51Z</time>
      </trkpt>
      <trkpt lat="43.65221" lon="1.40565">
        <ele>127</ele>
        <time>2025-04-12T09:43:52Z</time>
      </trkpt>
      <trkpt lat="43.65219" lon="1.40563">
        <ele>127</ele>
        <time>2025-04-12T09:43:53Z</time>
      </trkpt>
      <trkpt lat="43.65216" lon="1.40561">
        <ele>127</ele>
        <time>2025-04-12T09:43:54Z</time>
      </trkpt>
      <trkpt lat="43.65214" lon="1.40559">
        <ele>127</ele>
        <time>2025-04-12T09:43:55Z</time>
      </trkpt>
      <trkpt lat="43.65214" lon="1.40559">
        <ele>127</ele>
        <time>2025-04-12T09:43:56Z</time>
      </trkpt>
      <trkpt lat="43.65209" lon="1.40555">
        <ele>127</ele>
        <time>2025-04-12T09:43:57Z</time>
      </trkpt>
      <trkpt lat="43.65207" lon="1.40553">
        <ele>127</ele>
        <time>2025-04-12T09:43:58Z</time>
      </trkpt>
      <trkpt lat="43.65207" lon="1.40553">
        <ele>127</ele>
        <time>2025-04-12T09:43:59Z</time>
      </trkpt>
      <trkpt lat="43.65202" lon="1.40548">
        <ele>127</ele>
        <time>2025-04-12T09:44:00Z</time>
      </trkpt>
      <trkpt lat="43.65202" lon="1.40548">
        <ele>127</ele>
        <time>2025-04-12T09:44:01Z</time>
      </trkpt>
      <trkpt lat="43.65198" lon="1.40544">
        <ele>127</ele>
        <time>2025-04-12T09:44:02Z</time>
      </trkpt>
      <trkpt lat="43.65195" lon="1.40541">
        <ele>127</ele>
        <time>2025-04-12T09:44:03Z</time>
      </trkpt>
      <trkpt lat="43.65195" lon="1.40541">
        <ele>127</ele>
        <time>2025-04-12T09:44:04Z</time>
      </trkpt>
      <trkpt lat="43.65191" lon="1.40536">
        <ele>127</ele>
        <time>2025-04-12T09:44:05Z</time>
      </trkpt>
      <trkpt lat="43.65188" lon="1.40534">
        <ele>127</ele>
        <time>2025-04-12T09:44:06Z</time>
      </trkpt>
      <trkpt lat="43.65186" lon="1.40531">
        <ele>127</ele>
        <time>2025-04-12T09:44:07Z</time>
      </trkpt>
      <trkpt lat="43.65183" lon="1.40529">
        <ele>127</ele>
        <time>2025-04-12T09:44:08Z</time>
      </trkpt>
      <trkpt lat="43.65181" lon="1.40527">
        <ele>127</ele>
        <time>2025-04-12T09:44:09Z</time>
      </trkpt>
      <trkpt lat="43.65179" lon="1.40524">
        <ele>127</ele>
        <time>2025-04-12T09:44:10Z</time>
      </trkpt>
      <trkpt lat="43.65177" lon="1.40522">
        <ele>127</ele>
        <time>2025-04-12T09:44:11Z</time>
      </trkpt>
      <trkpt lat="43.65174" lon="1.4052">
        <ele>127</ele>
        <time>2025-04-12T09:44:12Z</time>
      </trkpt>
      <trkpt lat="43.65172" lon="1.40518">
        <ele>127</ele>
        <time>2025-04-12T09:44:13Z</time>
      </trkpt>
      <trkpt lat="43.6517" lon="1.40516">
        <ele>127</ele>
        <time>2025-04-12T09:44:14Z</time>
      </trkpt>
      <trkpt lat="43.65167" lon="1.40514">
        <ele>127</ele>
        <time>2025-04-12T09:44:15Z</time>
      </trkpt>
      <trkpt lat="43.65165" lon="1.40513">
        <ele>127</ele>
        <time>2025-04-12T09:44:16Z</time>
      </trkpt>
      <trkpt lat="43.65163" lon="1.40511">
        <ele>127</ele>
        <time>2025-04-12T09:44:17Z</time>
      </trkpt>
      <trkpt lat="43.65163" lon="1.40511">
        <ele>127</ele>
        <time>2025-04-12T09:44:18Z</time>
      </trkpt>
      <trkpt lat="43.65159" lon="1.40507">
        <ele>127</ele>
        <time>2025-04-12T09:44:19Z</time>
      </trkpt>
      <trkpt lat="43.65156" lon="1.40505">
        <ele>127</ele>
        <time>2025-04-12T09:44:20Z</time>
      </trkpt>
      <trkpt lat="43.65156" lon="1.40505">
        <ele>127</ele>
        <time>2025-04-12T09:44:21Z</time>
      </trkpt>
      <trkpt lat="43.65154" lon="1.40503">
        <ele>127</ele>
        <time>2025-04-12T09:44:22Z</time>
      </trkpt>
      <trkpt lat="43.65152" lon="1.405">
        <ele>127</ele>
        <time>2025-04-12T09:44:23Z</time>
      </trkpt>
      <trkpt lat="43.65147" lon="1.40495">
        <ele>127</ele>
        <time>2025-04-12T09:44:24Z</time>
      </trkpt>
      <trkpt lat="43.65147" lon="1.40495">
        <ele>127</ele>
        <time>2025-04-12T09:44:25Z</time>
      </trkpt>
      <trkpt lat="43.65143" lon="1.40491">
        <ele>127</ele>
        <time>2025-04-12T09:44:26Z</time>
      </trkpt>
      <trkpt lat="43.65143" lon="1.40491">
        <ele>127</ele>
        <time>2025-04-12T09:44:27Z</time>
      </trkpt>
      <trkpt lat="43.65139" lon="1.40486">
        <ele>127</ele>
        <time>2025-04-12T09:44:28Z</time>
      </trkpt>
      <trkpt lat="43.65136" lon="1.40484">
        <ele>127</ele>
        <time>2025-04-12T09:44:29Z</time>
      </trkpt>
      <trkpt lat="43.65134" lon="1.40482">
        <ele>127</ele>
        <time>2025-04-12T09:44:30Z</time>
      </trkpt>
      <trkpt lat="43.65132" lon="1.40479">
        <ele>127</ele>
        <time>2025-04-12T09:44:31Z</time>
      </trkpt>
      <trkpt lat="43.65129" lon="1.40477">
        <ele>127</ele>
        <time>2025-04-12T09:44:32Z</time>
      </trkpt>
      <trkpt lat="43.65127" lon="1.40475">
        <ele>127</ele>
        <time>2025-04-12T09:44:33Z</time>
      </trkpt>
      <trkpt lat="43.65127" lon="1.40475">
        <ele>127</ele>
        <time>2025-04-12T09:44:34Z</time>
      </trkpt>
      <trkpt lat="43.65123" lon="1.40471">
        <ele>127</ele>
        <time>2025-04-12T09:44:35Z</time>
      </trkpt>
      <trkpt lat="43.6512" lon="1.40468">
        <ele>127</ele>
        <time>2025-04-12T09:44:36Z</time>
      </trkpt>
      <trkpt lat="43.65118" lon="1.40466">
        <ele>127</ele>
        <time>2025-04-12T09:44:37Z</time>
      </trkpt>
      <trkpt lat="43.65116" lon="1.40464">
        <ele>127</ele>
        <time>2025-04-12T09:44:38Z</time>
      </trkpt>
      <trkpt lat="43.65113" lon="1.40462">
        <ele>127</ele>
        <time>2025-04-12T09:44:39Z</time>
      </trkpt>
      <trkpt lat="43.65111" lon="1.4046">
        <ele>127</ele>
        <time>2025-04-12T09:44:40Z</time>
      </trkpt>
      <trkpt lat="43.65109" lon="1.40458">
        <ele>127</ele>
        <time>2025-04-12T09:44:41Z</time>
      </trkpt>
      <trkpt lat="43.65107" lon="1.40456">
        <ele>127</ele>
        <time>2025-04-12T09:44:42Z</time>
      </trkpt>
      <trkpt lat="43.65105" lon="1.40454">
        <ele>127</ele>
        <time>2025-04-12T09:44:43Z</time>
      </trkpt>
      <trkpt lat="43.65103" lon="1.40452">
        <ele>127</ele>
        <time>2025-04-12T09:44:44Z</time>
      </trkpt>
      <trkpt lat="43.651" lon="1.4045">
        <ele>127</ele>
        <time>2025-04-12T09:44:45Z</time>
      </trkpt>
      <trkpt lat="43.65098" lon="1.40448">
        <ele>127</ele>
        <time>2025-04-12T09:44:46Z</time>
      </trkpt>
      <trkpt lat="43.65096" lon="1.40446">
        <ele>127</ele>
        <time>2025-04-12T09:44:47Z</time>
      </trkpt>
      <trkpt lat="43.65094" lon="1.40444">
        <ele>127</ele>
        <time>2025-04-12T09:44:48Z</time>
      </trkpt>
      <trkpt lat="43.65092" lon="1.40442">
        <ele>127</ele>
        <time>2025-04-12T09:44:49Z</time>
      </trkpt>
      <trkpt lat="43.65092" lon="1.40442">
        <ele>127</ele>
        <time>2025-04-12T09:44:50Z</time>
      </trkpt>
      <trkpt lat="43.65087" lon="1.40438">
        <ele>127</ele>
        <time>2025-04-12T09:44:51Z</time>
      </trkpt>
      <trkpt lat="43.65085" lon="1.40436">
        <ele>127</ele>
        <time>2025-04-12T09:44:52Z</time>
      </trkpt>
      <trkpt lat="43.65083" lon="1.40435">
        <ele>128</ele>
        <time>2025-04-12T09:44:53Z</time>
      </trkpt>
      <trkpt lat="43.65081" lon="1.40433">
        <ele>128</ele>
        <time>2025-04-12T09:44:54Z</time>
      </trkpt>
      <trkpt lat="43.65081" lon="1.40433">
        <ele>127</ele>
        <time>2025-04-12T09:44:55Z</time>
      </trkpt>
      <trkpt lat="43.65076" lon="1.40429">
        <ele>127</ele>
        <time>2025-04-12T09:44:56Z</time>
      </trkpt>
      <trkpt lat="43.65076" lon="1.40429">
        <ele>128</ele>
        <time>2025-04-12T09:44:57Z</time>
      </trkpt>
      <trkpt lat="43.65073" lon="1.40427">
        <ele>128</ele>
        <time>2025-04-12T09:44:58Z</time>
      </trkpt>
      <trkpt lat="43.65071" lon="1.40425">
        <ele>128</ele>
        <time>2025-04-12T09:44:59Z</time>
      </trkpt>
      <trkpt lat="43.65066" lon="1.40421">
        <ele>128</ele>
        <time>2025-04-12T09:45:00Z</time>
      </trkpt>
      <trkpt lat="43.65064" lon="1.40419">
        <ele>128</ele>
        <time>2025-04-12T09:45:01Z</time>
      </trkpt>
      <trkpt lat="43.65061" lon="1.40417">
        <ele>128</ele>
        <time>2025-04-12T09:45:02Z</time>
      </trkpt>
      <trkpt lat="43.65059" lon="1.40416">
        <ele>128</ele>
        <time>2025-04-12T09:45:03Z</time>
      </trkpt>
      <trkpt lat="43.65057" lon="1.40413">
        <ele>128</ele>
        <time>2025-04-12T09:45:04Z</time>
      </trkpt>
      <trkpt lat="43.65056" lon="1.40411">
        <ele>128</ele>
        <time>2025-04-12T09:45:05Z</time>
      </trkpt>
      <trkpt lat="43.65054" lon="1.40408">
        <ele>128</ele>
        <time>2025-04-12T09:45:06Z</time>
      </trkpt>
      <trkpt lat="43.65051" lon="1.40406">
        <ele>128</ele>
        <time>2025-04-12T09:45:07Z</time>
      </trkpt>
      <trkpt lat="43.65049" lon="1.40404">
        <ele>128</ele>
        <time>2025-04-12T09:45:08Z</time>
      </trkpt>
      <trkpt lat="43.65049" lon="1.40404">
        <ele>128</ele>
        <time>2025-04-12T09:45:09Z</time>
      </trkpt>
      <trkpt lat="43.65044" lon="1.404">
        <ele>129</ele>
        <time>2025-04-12T09:45:10Z</time>
      </trkpt>
      <trkpt lat="43.65042" lon="1.40398">
        <ele>129</ele>
        <time>2025-04-12T09:45:11Z</time>
      </trkpt>
      <trkpt lat="43.65039" lon="1.40396">
        <ele>129</ele>
        <time>2025-04-12T09:45:12Z</time>
      </trkpt>
      <trkpt lat="43.65037" lon="1.40394">
        <ele>129</ele>
        <time>2025-04-12T09:45:13Z</time>
      </trkpt>
      <trkpt lat="43.65037" lon="1.40394">
        <ele>129</ele>
        <time>2025-04-12T09:45:14Z</time>
      </trkpt>
      <trkpt lat="43.65033" lon="1.40388">
        <ele>129</ele>
        <time>2025-04-12T09:45:15Z</time>
      </trkpt>
      <trkpt lat="43.65033" lon="1.40388">
        <ele>129</ele>
        <time>2025-04-12T09:45:16Z</time>
      </trkpt>
      <trkpt lat="43.65031" lon="1.40386">
        <ele>129</ele>
        <time>2025-04-12T09:45:17Z</time>
      </trkpt>
      <trkpt lat="43.65027" lon="1.40381">
        <ele>129</ele>
        <time>2025-04-12T09:45:18Z</time>
      </trkpt>
      <trkpt lat="43.65023" lon="1.40377">
        <ele>128</ele>
        <time>2025-04-12T09:45:20Z</time>
      </trkpt>
      <trkpt lat="43.65021" lon="1.40375">
        <ele>128</ele>
        <time>2025-04-12T09:45:21Z</time>
      </trkpt>
      <trkpt lat="43.65021" lon="1.40375">
        <ele>128</ele>
        <time>2025-04-12T09:45:22Z</time>
      </trkpt>
      <trkpt lat="43.65016" lon="1.4037">
        <ele>128</ele>
        <time>2025-04-12T09:45:23Z</time>
      </trkpt>
      <trkpt lat="43.65016" lon="1.4037">
        <ele>128</ele>
        <time>2025-04-12T09:45:24Z</time>
      </trkpt>
      <trkpt lat="43.65012" lon="1.40365">
        <ele>128</ele>
        <time>2025-04-12T09:45:25Z</time>
      </trkpt>
      <trkpt lat="43.65012" lon="1.40365">
        <ele>128</ele>
        <time>2025-04-12T09:45:26Z</time>
      </trkpt>
      <trkpt lat="43.65007" lon="1.4036">
        <ele>128</ele>
        <time>2025-04-12T09:45:27Z</time>
      </trkpt>
      <trkpt lat="43.65005" lon="1.40358">
        <ele>129</ele>
        <time>2025-04-12T09:45:28Z</time>
      </trkpt>
      <trkpt lat="43.65002" lon="1.40355">
        <ele>129</ele>
        <time>2025-04-12T09:45:29Z</time>
      </trkpt>
      <trkpt lat="43.65" lon="1.40352">
        <ele>129</ele>
        <time>2025-04-12T09:45:30Z</time>
      </trkpt>
      <trkpt lat="43.64999" lon="1.4035">
        <ele>129</ele>
        <time>2025-04-12T09:45:31Z</time>
      </trkpt>
      <trkpt lat="43.64997" lon="1.40347">
        <ele>129</ele>
        <time>2025-04-12T09:45:32Z</time>
      </trkpt>
      <trkpt lat="43.64995" lon="1.40345">
        <ele>129</ele>
        <time>2025-04-12T09:45:33Z</time>
      </trkpt>
      <trkpt lat="43.64993" lon="1.40342">
        <ele>129</ele>
        <time>2025-04-12T09:45:34Z</time>
      </trkpt>
      <trkpt lat="43.64991" lon="1.4034">
        <ele>129</ele>
        <time>2025-04-12T09:45:36Z</time>
      </trkpt>
      <trkpt lat="43.64987" lon="1.40336">
        <ele>129</ele>
        <time>2025-04-12T09:45:37Z</time>
      </trkpt>
      <trkpt lat="43.64987" lon="1.40336">
        <ele>129</ele>
        <time>2025-04-12T09:45:38Z</time>
      </trkpt>
      <trkpt lat="43.64983" lon="1.40332">
        <ele>129</ele>
        <time>2025-04-12T09:45:39Z</time>
      </trkpt>
      <trkpt lat="43.64981" lon="1.4033">
        <ele>129</ele>
        <time>2025-04-12T09:45:40Z</time>
      </trkpt>
      <trkpt lat="43.64979" lon="1.40328">
        <ele>129</ele>
        <time>2025-04-12T09:45:41Z</time>
      </trkpt>
      <trkpt lat="43.64978" lon="1.40325">
        <ele>129</ele>
        <time>2025-04-12T09:45:42Z</time>
      </trkpt>
      <trkpt lat="43.64976" lon="1.40323">
        <ele>129</ele>
        <time>2025-04-12T09:45:43Z</time>
      </trkpt>
      <trkpt lat="43.64974" lon="1.40319">
        <ele>129</ele>
        <time>2025-04-12T09:45:44Z</time>
      </trkpt>
      <trkpt lat="43.64974" lon="1.40319">
        <ele>129</ele>
        <time>2025-04-12T09:45:45Z</time>
      </trkpt>
      <trkpt lat="43.6497" lon="1.40315">
        <ele>129</ele>
        <time>2025-04-12T09:45:46Z</time>
      </trkpt>
      <trkpt lat="43.6497" lon="1.40315">
        <ele>129</ele>
        <time>2025-04-12T09:45:47Z</time>
      </trkpt>
      <trkpt lat="43.64966" lon="1.4031">
        <ele>129</ele>
        <time>2025-04-12T09:45:48Z</time>
      </trkpt>
      <trkpt lat="43.64964" lon="1.40307">
        <ele>129</ele>
        <time>2025-04-12T09:45:49Z</time>
      </trkpt>
      <trkpt lat="43.64962" lon="1.40305">
        <ele>129</ele>
        <time>2025-04-12T09:45:50Z</time>
      </trkpt>
      <trkpt lat="43.6496" lon="1.40303">
        <ele>129</ele>
        <time>2025-04-12T09:45:51Z</time>
      </trkpt>
      <trkpt lat="43.64958" lon="1.40302">
        <ele>129</ele>
        <time>2025-04-12T09:45:52Z</time>
      </trkpt>
      <trkpt lat="43.64956" lon="1.403">
        <ele>129</ele>
        <time>2025-04-12T09:45:53Z</time>
      </trkpt>
      <trkpt lat="43.64954" lon="1.40298">
        <ele>129</ele>
        <time>2025-04-12T09:45:54Z</time>
      </trkpt>
      <trkpt lat="43.64954" lon="1.40298">
        <ele>129</ele>
        <time>2025-04-12T09:45:55Z</time>
      </trkpt>
      <trkpt lat="43.64949" lon="1.40294">
        <ele>130</ele>
        <time>2025-04-12T09:45:56Z</time>
      </trkpt>
      <trkpt lat="43.64944" lon="1.4029">
        <ele>130</ele>
        <time>2025-04-12T09:45:58Z</time>
      </trkpt>
      <trkpt lat="43.64942" lon="1.40289">
        <ele>130</ele>
        <time>2025-04-12T09:45:59Z</time>
      </trkpt>
      <trkpt lat="43.64939" lon="1.40287">
        <ele>130</ele>
        <time>2025-04-12T09:46:00Z</time>
      </trkpt>
      <trkpt lat="43.64937" lon="1.40286">
        <ele>130</ele>
        <time>2025-04-12T09:46:01Z</time>
      </trkpt>
      <trkpt lat="43.64934" lon="1.40284">
        <ele>129</ele>
        <time>2025-04-12T09:46:02Z</time>
      </trkpt>
      <trkpt lat="43.64931" lon="1.40282">
        <ele>129</ele>
        <time>2025-04-12T09:46:03Z</time>
      </trkpt>
      <trkpt lat="43.64929" lon="1.4028">
        <ele>129</ele>
        <time>2025-04-12T09:46:04Z</time>
      </trkpt>
      <trkpt lat="43.64926" lon="1.40278">
        <ele>129</ele>
        <time>2025-04-12T09:46:05Z</time>
      </trkpt>
      <trkpt lat="43.64924" lon="1.40276">
        <ele>129</ele>
        <time>2025-04-12T09:46:06Z</time>
      </trkpt>
      <trkpt lat="43.64922" lon="1.40274">
        <ele>129</ele>
        <time>2025-04-12T09:46:07Z</time>
      </trkpt>
      <trkpt lat="43.64919" lon="1.40271">
        <ele>129</ele>
        <time>2025-04-12T09:46:08Z</time>
      </trkpt>
      <trkpt lat="43.64917" lon="1.40269">
        <ele>129</ele>
        <time>2025-04-12T09:46:09Z</time>
      </trkpt>
      <trkpt lat="43.64915" lon="1.40267">
        <ele>129</ele>
        <time>2025-04-12T09:46:10Z</time>
      </trkpt>
      <trkpt lat="43.64912" lon="1.40264">
        <ele>129</ele>
        <time>2025-04-12T09:46:11Z</time>
      </trkpt>
      <trkpt lat="43.64912" lon="1.40264">
        <ele>129</ele>
        <time>2025-04-12T09:46:12Z</time>
      </trkpt>
      <trkpt lat="43.64907" lon="1.4026">
        <ele>129</ele>
        <time>2025-04-12T09:46:13Z</time>
      </trkpt>
      <trkpt lat="43.64905" lon="1.40258">
        <ele>129</ele>
        <time>2025-04-12T09:46:14Z</time>
      </trkpt>
      <trkpt lat="43.64902" lon="1.40256">
        <ele>129</ele>
        <time>2025-04-12T09:46:15Z</time>
      </trkpt>
      <trkpt lat="43.64902" lon="1.40256">
        <ele>129</ele>
        <time>2025-04-12T09:46:16Z</time>
      </trkpt>
      <trkpt lat="43.64897" lon="1.40253">
        <ele>130</ele>
        <time>2025-04-12T09:46:17Z</time>
      </trkpt>
      <trkpt lat="43.64897" lon="1.40253">
        <ele>130</ele>
        <time>2025-04-12T09:46:18Z</time>
      </trkpt>
      <trkpt lat="43.64893" lon="1.40249">
        <ele>130</ele>
        <time>2025-04-12T09:46:19Z</time>
      </trkpt>
      <trkpt lat="43.64891" lon="1.40248">
        <ele>130</ele>
        <time>2025-04-12T09:46:20Z</time>
      </trkpt>
      <trkpt lat="43.64888" lon="1.40246">
        <ele>130</ele>
        <time>2025-04-12T09:46:21Z</time>
      </trkpt>
      <trkpt lat="43.64886" lon="1.40244">
        <ele>130</ele>
        <time>2025-04-12T09:46:22Z</time>
      </trkpt>
      <trkpt lat="43.64883" lon="1.40243">
        <ele>130</ele>
        <time>2025-04-12T09:46:23Z</time>
      </trkpt>
      <trkpt lat="43.64881" lon="1.40241">
        <ele>130</ele>
        <time>2025-04-12T09:46:24Z</time>
      </trkpt>
      <trkpt lat="43.64879" lon="1.40239">
        <ele>130</ele>
        <time>2025-04-12T09:46:25Z</time>
      </trkpt>
      <trkpt lat="43.64876" lon="1.40238">
        <ele>130</ele>
        <time>2025-04-12T09:46:26Z</time>
      </trkpt>
      <trkpt lat="43.64874" lon="1.40236">
        <ele>130</ele>
        <time>2025-04-12T09:46:27Z</time>
      </trkpt>
      <trkpt lat="43.64871" lon="1.40235">
        <ele>130</ele>
        <time>2025-04-12T09:46:28Z</time>
      </trkpt>
      <trkpt lat="43.64868" lon="1.40234">
        <ele>130</ele>
        <time>2025-04-12T09:46:29Z</time>
      </trkpt>
      <trkpt lat="43.64866" lon="1.40232">
        <ele>130</ele>
        <time>2025-04-12T09:46:30Z</time>
      </trkpt>
      <trkpt lat="43.64863" lon="1.40231">
        <ele>130</ele>
        <time>2025-04-12T09:46:32Z</time>
      </trkpt>
      <trkpt lat="43.64858" lon="1.4023">
        <ele>130</ele>
        <time>2025-04-12T09:46:33Z</time>
      </trkpt>
      <trkpt lat="43.64855" lon="1.40229">
        <ele>130</ele>
        <time>2025-04-12T09:46:34Z</time>
      </trkpt>
      <trkpt lat="43.64852" lon="1.40229">
        <ele>131</ele>
        <time>2025-04-12T09:46:35Z</time>
      </trkpt>
      <trkpt lat="43.64849" lon="1.40228">
        <ele>131</ele>
        <time>2025-04-12T09:46:36Z</time>
      </trkpt>
      <trkpt lat="43.64847" lon="1.40228">
        <ele>131</ele>
        <time>2025-04-12T09:46:37Z</time>
      </trkpt>
      <trkpt lat="43.64844" lon="1.40228">
        <ele>131</ele>
        <time>2025-04-12T09:46:38Z</time>
      </trkpt>
      <trkpt lat="43.64841" lon="1.40228">
        <ele>131</ele>
        <time>2025-04-12T09:46:39Z</time>
      </trkpt>
      <trkpt lat="43.64839" lon="1.40229">
        <ele>131</ele>
        <time>2025-04-12T09:46:40Z</time>
      </trkpt>
      <trkpt lat="43.64836" lon="1.40229">
        <ele>131</ele>
        <time>2025-04-12T09:46:41Z</time>
      </trkpt>
      <trkpt lat="43.64833" lon="1.40229">
        <ele>130</ele>
        <time>2025-04-12T09:46:42Z</time>
      </trkpt>
      <trkpt lat="43.6483" lon="1.4023">
        <ele>130</ele>
        <time>2025-04-12T09:46:43Z</time>
      </trkpt>
      <trkpt lat="43.64828" lon="1.4023">
        <ele>130</ele>
        <time>2025-04-12T09:46:44Z</time>
      </trkpt>
      <trkpt lat="43.64825" lon="1.4023">
        <ele>130</ele>
        <time>2025-04-12T09:46:45Z</time>
      </trkpt>
      <trkpt lat="43.64825" lon="1.4023">
        <ele>131</ele>
        <time>2025-04-12T09:46:46Z</time>
      </trkpt>
      <trkpt lat="43.64819" lon="1.40231">
        <ele>131</ele>
        <time>2025-04-12T09:46:47Z</time>
      </trkpt>
      <trkpt lat="43.64817" lon="1.40231">
        <ele>131</ele>
        <time>2025-04-12T09:46:48Z</time>
      </trkpt>
      <trkpt lat="43.64817" lon="1.40231">
        <ele>131</ele>
        <time>2025-04-12T09:46:49Z</time>
      </trkpt>
      <trkpt lat="43.64812" lon="1.40231">
        <ele>131</ele>
        <time>2025-04-12T09:46:50Z</time>
      </trkpt>
      <trkpt lat="43.64809" lon="1.40231">
        <ele>131</ele>
        <time>2025-04-12T09:46:51Z</time>
      </trkpt>
      <trkpt lat="43.64809" lon="1.40231">
        <ele>131</ele>
        <time>2025-04-12T09:46:52Z</time>
      </trkpt>
      <trkpt lat="43.64804" lon="1.40232">
        <ele>131</ele>
        <time>2025-04-12T09:46:53Z</time>
      </trkpt>
      <trkpt lat="43.64804" lon="1.40232">
        <ele>130</ele>
        <time>2025-04-12T09:46:54Z</time>
      </trkpt>
      <trkpt lat="43.64798" lon="1.40231">
        <ele>130</ele>
        <time>2025-04-12T09:46:55Z</time>
      </trkpt>
      <trkpt lat="43.64796" lon="1.40232">
        <ele>130</ele>
        <time>2025-04-12T09:46:56Z</time>
      </trkpt>
      <trkpt lat="43.64793" lon="1.40231">
        <ele>130</ele>
        <time>2025-04-12T09:46:57Z</time>
      </trkpt>
      <trkpt lat="43.6479" lon="1.40231">
        <ele>130</ele>
        <time>2025-04-12T09:46:58Z</time>
      </trkpt>
      <trkpt lat="43.64788" lon="1.40231">
        <ele>130</ele>
        <time>2025-04-12T09:46:59Z</time>
      </trkpt>
      <trkpt lat="43.64785" lon="1.4023">
        <ele>131</ele>
        <time>2025-04-12T09:47:00Z</time>
      </trkpt>
      <trkpt lat="43.64783" lon="1.4023">
        <ele>131</ele>
        <time>2025-04-12T09:47:01Z</time>
      </trkpt>
      <trkpt lat="43.6478" lon="1.4023">
        <ele>131</ele>
        <time>2025-04-12T09:47:02Z</time>
      </trkpt>
      <trkpt lat="43.64778" lon="1.40229">
        <ele>131</ele>
        <time>2025-04-12T09:47:03Z</time>
      </trkpt>
      <trkpt lat="43.64775" lon="1.40229">
        <ele>130</ele>
        <time>2025-04-12T09:47:04Z</time>
      </trkpt>
      <trkpt lat="43.64775" lon="1.40229">
        <ele>130</ele>
        <time>2025-04-12T09:47:05Z</time>
      </trkpt>
      <trkpt lat="43.6477" lon="1.40229">
        <ele>131</ele>
        <time>2025-04-12T09:47:06Z</time>
      </trkpt>
      <trkpt lat="43.64767" lon="1.40229">
        <ele>131</ele>
        <time>2025-04-12T09:47:07Z</time>
      </trkpt>
      <trkpt lat="43.64767" lon="1.40229">
        <ele>131</ele>
        <time>2025-04-12T09:47:08Z</time>
      </trkpt>
      <trkpt lat="43.64761" lon="1.4023">
        <ele>131</ele>
        <time>2025-04-12T09:47:09Z</time>
      </trkpt>
      <trkpt lat="43.64759" lon="1.4023">
        <ele>131</ele>
        <time>2025-04-12T09:47:10Z</time>
      </trkpt>
      <trkpt lat="43.64756" lon="1.4023">
        <ele>131</ele>
        <time>2025-04-12T09:47:11Z</time>
      </trkpt>
      <trkpt lat="43.64754" lon="1.4023">
        <ele>131</ele>
        <time>2025-04-12T09:47:12Z</time>
      </trkpt>
      <trkpt lat="43.64754" lon="1.4023">
        <ele>131</ele>
        <time>2025-04-12T09:47:13Z</time>
      </trkpt>
      <trkpt lat="43.64748" lon="1.40231">
        <ele>131</ele>
        <time>2025-04-12T09:47:14Z</time>
      </trkpt>
      <trkpt lat="43.64748" lon="1.40231">
        <ele>131</ele>
        <time>2025-04-12T09:47:15Z</time>
      </trkpt>
      <trkpt lat="43.64742" lon="1.40231">
        <ele>131</ele>
        <time>2025-04-12T09:47:16Z</time>
      </trkpt>
      <trkpt lat="43.64739" lon="1.40231">
        <ele>131</ele>
        <time>2025-04-12T09:47:17Z</time>
      </trkpt>
      <trkpt lat="43.64736" lon="1.40232">
        <ele>131</ele>
        <time>2025-04-12T09:47:18Z</time>
      </trkpt>
      <trkpt lat="43.64734" lon="1.40233">
        <ele>131</ele>
        <time>2025-04-12T09:47:19Z</time>
      </trkpt>
      <trkpt lat="43.64731" lon="1.40233">
        <ele>131</ele>
        <time>2025-04-12T09:47:20Z</time>
      </trkpt>
      <trkpt lat="43.64728" lon="1.40233">
        <ele>131</ele>
        <time>2025-04-12T09:47:21Z</time>
      </trkpt>
      <trkpt lat="43.64726" lon="1.40234">
        <ele>130</ele>
        <time>2025-04-12T09:47:22Z</time>
      </trkpt>
      <trkpt lat="43.64723" lon="1.40234">
        <ele>130</ele>
        <time>2025-04-12T09:47:23Z</time>
      </trkpt>
      <trkpt lat="43.64723" lon="1.40234">
        <ele>130</ele>
        <time>2025-04-12T09:47:24Z</time>
      </trkpt>
      <trkpt lat="43.64717" lon="1.40234">
        <ele>130</ele>
        <time>2025-04-12T09:47:25Z</time>
      </trkpt>
      <trkpt lat="43.64712" lon="1.40235">
        <ele>130</ele>
        <time>2025-04-12T09:47:27Z</time>
      </trkpt>
      <trkpt lat="43.6471" lon="1.40235">
        <ele>130</ele>
        <time>2025-04-12T09:47:28Z</time>
      </trkpt>
      <trkpt lat="43.64708" lon="1.40236">
        <ele>131</ele>
        <time>2025-04-12T09:47:29Z</time>
      </trkpt>
      <trkpt lat="43.64705" lon="1.40237">
        <ele>131</ele>
        <time>2025-04-12T09:47:30Z</time>
      </trkpt>
      <trkpt lat="43.64703" lon="1.40238">
        <ele>131</ele>
        <time>2025-04-12T09:47:31Z</time>
      </trkpt>
      <trkpt lat="43.64703" lon="1.40238">
        <ele>131</ele>
        <time>2025-04-12T09:47:32Z</time>
      </trkpt>
      <trkpt lat="43.64698" lon="1.40239">
        <ele>131</ele>
        <time>2025-04-12T09:47:33Z</time>
      </trkpt>
      <trkpt lat="43.64696" lon="1.4024">
        <ele>131</ele>
        <time>2025-04-12T09:47:34Z</time>
      </trkpt>
      <trkpt lat="43.64694" lon="1.40241">
        <ele>131</ele>
        <time>2025-04-12T09:47:35Z</time>
      </trkpt>
      <trkpt lat="43.64694" lon="1.40241">
        <ele>131</ele>
        <time>2025-04-12T09:47:36Z</time>
      </trkpt>
      <trkpt lat="43.64689" lon="1.40242">
        <ele>131</ele>
        <time>2025-04-12T09:47:37Z</time>
      </trkpt>
      <trkpt lat="43.64687" lon="1.40243">
        <ele>131</ele>
        <time>2025-04-12T09:47:38Z</time>
      </trkpt>
      <trkpt lat="43.64685" lon="1.40245">
        <ele>131</ele>
        <time>2025-04-12T09:47:39Z</time>
      </trkpt>
      <trkpt lat="43.64683" lon="1.40246">
        <ele>131</ele>
        <time>2025-04-12T09:47:40Z</time>
      </trkpt>
      <trkpt lat="43.64681" lon="1.40247">
        <ele>131</ele>
        <time>2025-04-12T09:47:41Z</time>
      </trkpt>
      <trkpt lat="43.64679" lon="1.40249">
        <ele>131</ele>
        <time>2025-04-12T09:47:42Z</time>
      </trkpt>
      <trkpt lat="43.64679" lon="1.40249">
        <ele>131</ele>
        <time>2025-04-12T09:47:43Z</time>
      </trkpt>
      <trkpt lat="43.64674" lon="1.4025">
        <ele>131</ele>
        <time>2025-04-12T09:47:44Z</time>
      </trkpt>
      <trkpt lat="43.64671" lon="1.40251">
        <ele>131</ele>
        <time>2025-04-12T09:47:45Z</time>
      </trkpt>
      <trkpt lat="43.64668" lon="1.40252">
        <ele>131</ele>
        <time>2025-04-12T09:47:46Z</time>
      </trkpt>
      <trkpt lat="43.64665" lon="1.40254">
        <ele>131</ele>
        <time>2025-04-12T09:47:47Z</time>
      </trkpt>
      <trkpt lat="43.64662" lon="1.40255">
        <ele>131</ele>
        <time>2025-04-12T09:47:48Z</time>
      </trkpt>
      <trkpt lat="43.64662" lon="1.40255">
        <ele>131</ele>
        <time>2025-04-12T09:47:49Z</time>
      </trkpt>
      <trkpt lat="43.64657" lon="1.40256">
        <ele>131</ele>
        <time>2025-04-12T09:47:50Z</time>
      </trkpt>
      <trkpt lat="43.64654" lon="1.40257">
        <ele>131</ele>
        <time>2025-04-12T09:47:51Z</time>
      </trkpt>
      <trkpt lat="43.64651" lon="1.40257">
        <ele>131</ele>
        <time>2025-04-12T09:47:52Z</time>
      </trkpt>
      <trkpt lat="43.64648" lon="1.40258">
        <ele>131</ele>
        <time>2025-04-12T09:47:53Z</time>
      </trkpt>
      <trkpt lat="43.64646" lon="1.40258">
        <ele>131</ele>
        <time>2025-04-12T09:47:54Z</time>
      </trkpt>
      <trkpt lat="43.64643" lon="1.40259">
        <ele>131</ele>
        <time>2025-04-12T09:47:55Z</time>
      </trkpt>
      <trkpt lat="43.6464" lon="1.4026">
        <ele>132</ele>
        <time>2025-04-12T09:47:56Z</time>
      </trkpt>
      <trkpt lat="43.64638" lon="1.40261">
        <ele>132</ele>
        <time>2025-04-12T09:47:57Z</time>
      </trkpt>
      <trkpt lat="43.64635" lon="1.40262">
        <ele>132</ele>
        <time>2025-04-12T09:47:58Z</time>
      </trkpt>
      <trkpt lat="43.64632" lon="1.40263">
        <ele>132</ele>
        <time>2025-04-12T09:47:59Z</time>
      </trkpt>
      <trkpt lat="43.64632" lon="1.40263">
        <ele>132</ele>
        <time>2025-04-12T09:48:00Z</time>
      </trkpt>
      <trkpt lat="43.64626" lon="1.40265">
        <ele>132</ele>
        <time>2025-04-12T09:48:01Z</time>
      </trkpt>
      <trkpt lat="43.64624" lon="1.40267">
        <ele>132</ele>
        <time>2025-04-12T09:48:02Z</time>
      </trkpt>
      <trkpt lat="43.64621" lon="1.40268">
        <ele>132</ele>
        <time>2025-04-12T09:48:03Z</time>
      </trkpt>
      <trkpt lat="43.64619" lon="1.40269">
        <ele>131</ele>
        <time>2025-04-12T09:48:05Z</time>
      </trkpt>
      <trkpt lat="43.64613" lon="1.40272">
        <ele>131</ele>
        <time>2025-04-12T09:48:06Z</time>
      </trkpt>
      <trkpt lat="43.64611" lon="1.40272">
        <ele>131</ele>
        <time>2025-04-12T09:48:07Z</time>
      </trkpt>
      <trkpt lat="43.64608" lon="1.40273">
        <ele>131</ele>
        <time>2025-04-12T09:48:08Z</time>
      </trkpt>
      <trkpt lat="43.64605" lon="1.40274">
        <ele>131</ele>
        <time>2025-04-12T09:48:09Z</time>
      </trkpt>
      <trkpt lat="43.64605" lon="1.40274">
        <ele>131</ele>
        <time>2025-04-12T09:48:10Z</time>
      </trkpt>
      <trkpt lat="43.646" lon="1.40275">
        <ele>131</ele>
        <time>2025-04-12T09:48:11Z</time>
      </trkpt>
      <trkpt lat="43.646" lon="1.40275">
        <ele>131</ele>
        <time>2025-04-12T09:48:12Z</time>
      </trkpt>
      <trkpt lat="43.64595" lon="1.40276">
        <ele>131</ele>
        <time>2025-04-12T09:48:13Z</time>
      </trkpt>
      <trkpt lat="43.64595" lon="1.40276">
        <ele>132</ele>
        <time>2025-04-12T09:48:14Z</time>
      </trkpt>
      <trkpt lat="43.6459" lon="1.40279">
        <ele>132</ele>
        <time>2025-04-12T09:48:15Z</time>
      </trkpt>
      <trkpt lat="43.6459" lon="1.40279">
        <ele>132</ele>
        <time>2025-04-12T09:48:16Z</time>
      </trkpt>
      <trkpt lat="43.64588" lon="1.4028">
        <ele>132</ele>
        <time>2025-04-12T09:48:17Z</time>
      </trkpt>
      <trkpt lat="43.64582" lon="1.40282">
        <ele>132</ele>
        <time>2025-04-12T09:48:18Z</time>
      </trkpt>
      <trkpt lat="43.64582" lon="1.40282">
        <ele>132</ele>
        <time>2025-04-12T09:48:19Z</time>
      </trkpt>
      <trkpt lat="43.64577" lon="1.40284">
        <ele>132</ele>
        <time>2025-04-12T09:48:20Z</time>
      </trkpt>
      <trkpt lat="43.64577" lon="1.40284">
        <ele>131</ele>
        <time>2025-04-12T09:48:21Z</time>
      </trkpt>
      <trkpt lat="43.64572" lon="1.40285">
        <ele>131</ele>
        <time>2025-04-12T09:48:22Z</time>
      </trkpt>
      <trkpt lat="43.64569" lon="1.40286">
        <ele>131</ele>
        <time>2025-04-12T09:48:23Z</time>
      </trkpt>
      <trkpt lat="43.64569" lon="1.40286">
        <ele>131</ele>
        <time>2025-04-12T09:48:24Z</time>
      </trkpt>
      <trkpt lat="43.64563" lon="1.40288">
        <ele>131</ele>
        <time>2025-04-12T09:48:25Z</time>
      </trkpt>
      <trkpt lat="43.6456" lon="1.40288">
        <ele>132</ele>
        <time>2025-04-12T09:48:26Z</time>
      </trkpt>
      <trkpt lat="43.6456" lon="1.40288">
        <ele>132</ele>
        <time>2025-04-12T09:48:27Z</time>
      </trkpt>
      <trkpt lat="43.64558" lon="1.40289">
        <ele>132</ele>
        <time>2025-04-12T09:48:28Z</time>
      </trkpt>
      <trkpt lat="43.64552" lon="1.40291">
        <ele>132</ele>
        <time>2025-04-12T09:48:29Z</time>
      </trkpt>
      <trkpt lat="43.64552" lon="1.40291">
        <ele>132</ele>
        <time>2025-04-12T09:48:30Z</time>
      </trkpt>
      <trkpt lat="43.6455" lon="1.40293">
        <ele>132</ele>
        <time>2025-04-12T09:48:31Z</time>
      </trkpt>
      <trkpt lat="43.64544" lon="1.40294">
        <ele>132</ele>
        <time>2025-04-12T09:48:32Z</time>
      </trkpt>
      <trkpt lat="43.64542" lon="1.40295">
        <ele>132</ele>
        <time>2025-04-12T09:48:33Z</time>
      </trkpt>
      <trkpt lat="43.64538" lon="1.40295">
        <ele>132</ele>
        <time>2025-04-12T09:48:34Z</time>
      </trkpt>
      <trkpt lat="43.64536" lon="1.40296">
        <ele>132</ele>
        <time>2025-04-12T09:48:35Z</time>
      </trkpt>
      <trkpt lat="43.64536" lon="1.40296">
        <ele>132</ele>
        <time>2025-04-12T09:48:36Z</time>
      </trkpt>
      <trkpt lat="43.64531" lon="1.40298">
        <ele>132</ele>
        <time>2025-04-12T09:48:37Z</time>
      </trkpt>
      <trkpt lat="43.64528" lon="1.40299">
        <ele>132</ele>
        <time>2025-04-12T09:48:38Z</time>
      </trkpt>
      <trkpt lat="43.64528" lon="1.40299">
        <ele>132</ele>
        <time>2025-04-12T09:48:39Z</time>
      </trkpt>
      <trkpt lat="43.64526" lon="1.40299">
        <ele>131</ele>
        <time>2025-04-12T09:48:40Z</time>
      </trkpt>
      <trkpt lat="43.6452" lon="1.40302">
        <ele>131</ele>
        <time>2025-04-12T09:48:41Z</time>
      </trkpt>
      <trkpt lat="43.6452" lon="1.40302">
        <ele>131</ele>
        <time>2025-04-12T09:48:42Z</time>
      </trkpt>
      <trkpt lat="43.64514" lon="1.40304">
        <ele>131</ele>
        <time>2025-04-12T09:48:43Z</time>
      </trkpt>
      <trkpt lat="43.64514" lon="1.40304">
        <ele>131</ele>
        <time>2025-04-12T09:48:44Z</time>
      </trkpt>
      <trkpt lat="43.64509" lon="1.40306">
        <ele>131</ele>
        <time>2025-04-12T09:48:45Z</time>
      </trkpt>
      <trkpt lat="43.64509" lon="1.40306">
        <ele>131</ele>
        <time>2025-04-12T09:48:46Z</time>
      </trkpt>
      <trkpt lat="43.64503" lon="1.40307">
        <ele>131</ele>
        <time>2025-04-12T09:48:47Z</time>
      </trkpt>
      <trkpt lat="43.64497" lon="1.40309">
        <ele>131</ele>
        <time>2025-04-12T09:48:49Z</time>
      </trkpt>
      <trkpt lat="43.64495" lon="1.40309">
        <ele>131</ele>
        <time>2025-04-12T09:48:50Z</time>
      </trkpt>
      <trkpt lat="43.64492" lon="1.4031">
        <ele>131</ele>
        <time>2025-04-12T09:48:51Z</time>
      </trkpt>
      <trkpt lat="43.64492" lon="1.4031">
        <ele>131</ele>
        <time>2025-04-12T09:48:52Z</time>
      </trkpt>
      <trkpt lat="43.64489" lon="1.40311">
        <ele>131</ele>
        <time>2025-04-12T09:48:53Z</time>
      </trkpt>
      <trkpt lat="43.64485" lon="1.40313">
        <ele>131</ele>
        <time>2025-04-12T09:48:54Z</time>
      </trkpt>
      <trkpt lat="43.64485" lon="1.40313">
        <ele>131</ele>
        <time>2025-04-12T09:48:55Z</time>
      </trkpt>
      <trkpt lat="43.6448" lon="1.40314">
        <ele>132</ele>
        <time>2025-04-12T09:48:56Z</time>
      </trkpt>
      <trkpt lat="43.6448" lon="1.40314">
        <ele>132</ele>
        <time>2025-04-12T09:48:57Z</time>
      </trkpt>
      <trkpt lat="43.64475" lon="1.40317">
        <ele>132</ele>
        <time>2025-04-12T09:48:58Z</time>
      </trkpt>
      <trkpt lat="43.64472" lon="1.40318">
        <ele>132</ele>
        <time>2025-04-12T09:49:00Z</time>
      </trkpt>
      <trkpt lat="43.64469" lon="1.40319">
        <ele>132</ele>
        <time>2025-04-12T09:49:01Z</time>
      </trkpt>
      <trkpt lat="43.64466" lon="1.40319">
        <ele>132</ele>
        <time>2025-04-12T09:49:02Z</time>
      </trkpt>
      <trkpt lat="43.6446" lon="1.40321">
        <ele>132</ele>
        <time>2025-04-12T09:49:03Z</time>
      </trkpt>
      <trkpt lat="43.6446" lon="1.40321">
        <ele>132</ele>
        <time>2025-04-12T09:49:04Z</time>
      </trkpt>
      <trkpt lat="43.64458" lon="1.40322">
        <ele>132</ele>
        <time>2025-04-12T09:49:05Z</time>
      </trkpt>
      <trkpt lat="43.64453" lon="1.40323">
        <ele>132</ele>
        <time>2025-04-12T09:49:06Z</time>
      </trkpt>
      <trkpt lat="43.64453" lon="1.40323">
        <ele>132</ele>
        <time>2025-04-12T09:49:07Z</time>
      </trkpt>
      <trkpt lat="43.64448" lon="1.40324">
        <ele>132</ele>
        <time>2025-04-12T09:49:08Z</time>
      </trkpt>
      <trkpt lat="43.64448" lon="1.40324">
        <ele>132</ele>
        <time>2025-04-12T09:49:09Z</time>
      </trkpt>
      <trkpt lat="43.64445" lon="1.40324">
        <ele>131</ele>
        <time>2025-04-12T09:49:10Z</time>
      </trkpt>
      <trkpt lat="43.64443" lon="1.40325">
        <ele>131</ele>
        <time>2025-04-12T09:49:11Z</time>
      </trkpt>
      <trkpt lat="43.64437" lon="1.40327">
        <ele>131</ele>
        <time>2025-04-12T09:49:12Z</time>
      </trkpt>
      <trkpt lat="43.64437" lon="1.40327">
        <ele>131</ele>
        <time>2025-04-12T09:49:13Z</time>
      </trkpt>
      <trkpt lat="43.64435" lon="1.40328">
        <ele>131</ele>
        <time>2025-04-12T09:49:14Z</time>
      </trkpt>
      <trkpt lat="43.64429" lon="1.40329">
        <ele>131</ele>
        <time>2025-04-12T09:49:15Z</time>
      </trkpt>
      <trkpt lat="43.64429" lon="1.40329">
        <ele>131</ele>
        <time>2025-04-12T09:49:16Z</time>
      </trkpt>
      <trkpt lat="43.64427" lon="1.40329">
        <ele>131</ele>
        <time>2025-04-12T09:49:17Z</time>
      </trkpt>
      <trkpt lat="43.64421" lon="1.4033">
        <ele>132</ele>
        <time>2025-04-12T09:49:18Z</time>
      </trkpt>
      <trkpt lat="43.64419" lon="1.40332">
        <ele>132</ele>
        <time>2025-04-12T09:49:19Z</time>
      </trkpt>
      <trkpt lat="43.64419" lon="1.40332">
        <ele>132</ele>
        <time>2025-04-12T09:49:20Z</time>
      </trkpt>
      <trkpt lat="43.64416" lon="1.40332">
        <ele>132</ele>
        <time>2025-04-12T09:49:21Z</time>
      </trkpt>
      <trkpt lat="43.64414" lon="1.40333">
        <ele>132</ele>
        <time>2025-04-12T09:49:22Z</time>
      </trkpt>
      <trkpt lat="43.64408" lon="1.40334">
        <ele>132</ele>
        <time>2025-04-12T09:49:23Z</time>
      </trkpt>
      <trkpt lat="43.64405" lon="1.40334">
        <ele>132</ele>
        <time>2025-04-12T09:49:24Z</time>
      </trkpt>
      <trkpt lat="43.64402" lon="1.40335">
        <ele>132</ele>
        <time>2025-04-12T09:49:25Z</time>
      </trkpt>
      <trkpt lat="43.64396" lon="1.40336">
        <ele>132</ele>
        <time>2025-04-12T09:49:27Z</time>
      </trkpt>
      <trkpt lat="43.64393" lon="1.40336">
        <ele>132</ele>
        <time>2025-04-12T09:49:28Z</time>
      </trkpt>
      <trkpt lat="43.6439" lon="1.40336">
        <ele>132</ele>
        <time>2025-04-12T09:49:29Z</time>
      </trkpt>
      <trkpt lat="43.6439" lon="1.40336">
        <ele>132</ele>
        <time>2025-04-12T09:49:30Z</time>
      </trkpt>
      <trkpt lat="43.64387" lon="1.40336">
        <ele>132</ele>
        <time>2025-04-12T09:49:31Z</time>
      </trkpt>
      <trkpt lat="43.64384" lon="1.40336">
        <ele>132</ele>
        <time>2025-04-12T09:49:32Z</time>
      </trkpt>
      <trkpt lat="43.64378" lon="1.40336">
        <ele>132</ele>
        <time>2025-04-12T09:49:33Z</time>
      </trkpt>
      <trkpt lat="43.64375" lon="1.40335">
        <ele>132</ele>
        <time>2025-04-12T09:49:35Z</time>
      </trkpt>
      <trkpt lat="43.64372" lon="1.40336">
        <ele>132</ele>
        <time>2025-04-12T09:49:36Z</time>
      </trkpt>
      <trkpt lat="43.64366" lon="1.40336">
        <ele>132</ele>
        <time>2025-04-12T09:49:37Z</time>
      </trkpt>
      <trkpt lat="43.64363" lon="1.40337">
        <ele>131</ele>
        <time>2025-04-12T09:49:38Z</time>
      </trkpt>
      <trkpt lat="43.6436" lon="1.40338">
        <ele>131</ele>
        <time>2025-04-12T09:49:39Z</time>
      </trkpt>
      <trkpt lat="43.6436" lon="1.40338">
        <ele>131</ele>
        <time>2025-04-12T09:49:40Z</time>
      </trkpt>
      <trkpt lat="43.64357" lon="1.40338">
        <ele>131</ele>
        <time>2025-04-12T09:49:41Z</time>
      </trkpt>
      <trkpt lat="43.64354" lon="1.40339">
        <ele>131</ele>
        <time>2025-04-12T09:49:42Z</time>
      </trkpt>
      <trkpt lat="43.64348" lon="1.40341">
        <ele>131</ele>
        <time>2025-04-12T09:49:43Z</time>
      </trkpt>
      <trkpt lat="43.64345" lon="1.40343">
        <ele>131</ele>
        <time>2025-04-12T09:49:44Z</time>
      </trkpt>
      <trkpt lat="43.64345" lon="1.40343">
        <ele>131</ele>
        <time>2025-04-12T09:49:45Z</time>
      </trkpt>
      <trkpt lat="43.64342" lon="1.40344">
        <ele>132</ele>
        <time>2025-04-12T09:49:46Z</time>
      </trkpt>
      <trkpt lat="43.64339" lon="1.40345">
        <ele>132</ele>
        <time>2025-04-12T09:49:47Z</time>
      </trkpt>
      <trkpt lat="43.64333" lon="1.40347">
        <ele>132</ele>
        <time>2025-04-12T09:49:48Z</time>
      </trkpt>
      <trkpt lat="43.64333" lon="1.40347">
        <ele>132</ele>
        <time>2025-04-12T09:49:49Z</time>
      </trkpt>
      <trkpt lat="43.64328" lon="1.40349">
        <ele>131</ele>
        <time>2025-04-12T09:49:50Z</time>
      </trkpt>
      <trkpt lat="43.64325" lon="1.4035">
        <ele>131</ele>
        <time>2025-04-12T09:49:52Z</time>
      </trkpt>
      <trkpt lat="43.64319" lon="1.40352">
        <ele>131</ele>
        <time>2025-04-12T09:49:53Z</time>
      </trkpt>
      <trkpt lat="43.64319" lon="1.40352">
        <ele>131</ele>
        <time>2025-04-12T09:49:54Z</time>
      </trkpt>
      <trkpt lat="43.64313" lon="1.40353">
        <ele>131</ele>
        <time>2025-04-12T09:49:55Z</time>
      </trkpt>
      <trkpt lat="43.64313" lon="1.40353">
        <ele>131</ele>
        <time>2025-04-12T09:49:56Z</time>
      </trkpt>
      <trkpt lat="43.64307" lon="1.40355">
        <ele>131</ele>
        <time>2025-04-12T09:49:57Z</time>
      </trkpt>
      <trkpt lat="43.64304" lon="1.40356">
        <ele>132</ele>
        <time>2025-04-12T09:49:58Z</time>
      </trkpt>
      <trkpt lat="43.64304" lon="1.40356">
        <ele>132</ele>
        <time>2025-04-12T09:49:59Z</time>
      </trkpt>
      <trkpt lat="43.64302" lon="1.40357">
        <ele>131</ele>
        <time>2025-04-12T09:50:00Z</time>
      </trkpt>
      <trkpt lat="43.64299" lon="1.40358">
        <ele>131</ele>
        <time>2025-04-12T09:50:01Z</time>
      </trkpt>
      <trkpt lat="43.64293" lon="1.40361">
        <ele>131</ele>
        <time>2025-04-12T09:50:02Z</time>
      </trkpt>
      <trkpt lat="43.64293" lon="1.40361">
        <ele>131</ele>
        <time>2025-04-12T09:50:03Z</time>
      </trkpt>
      <trkpt lat="43.6429" lon="1.40362">
        <ele>131</ele>
        <time>2025-04-12T09:50:04Z</time>
      </trkpt>
      <trkpt lat="43.64288" lon="1.40363">
        <ele>131</ele>
        <time>2025-04-12T09:50:05Z</time>
      </trkpt>
      <trkpt lat="43.64285" lon="1.40364">
        <ele>131</ele>
        <time>2025-04-12T09:50:06Z</time>
      </trkpt>
      <trkpt lat="43.64279" lon="1.40366">
        <ele>131</ele>
        <time>2025-04-12T09:50:07Z</time>
      </trkpt>
      <trkpt lat="43.64276" lon="1.40367">
        <ele>131</ele>
        <time>2025-04-12T09:50:08Z</time>
      </trkpt>
      <trkpt lat="43.64273" lon="1.40368">
        <ele>131</ele>
        <time>2025-04-12T09:50:09Z</time>
      </trkpt>
      <trkpt lat="43.64273" lon="1.40368">
        <ele>131</ele>
        <time>2025-04-12T09:50:10Z</time>
      </trkpt>
      <trkpt lat="43.64271" lon="1.40368">
        <ele>131</ele>
        <time>2025-04-12T09:50:11Z</time>
      </trkpt>
      <trkpt lat="43.64268" lon="1.40367">
        <ele>131</ele>
        <time>2025-04-12T09:50:12Z</time>
      </trkpt>
      <trkpt lat="43.64265" lon="1.40368">
        <ele>131</ele>
        <time>2025-04-12T09:50:13Z</time>
      </trkpt>
      <trkpt lat="43.64259" lon="1.40369">
        <ele>131</ele>
        <time>2025-04-12T09:50:14Z</time>
      </trkpt>
      <trkpt lat="43.64257" lon="1.4037">
        <ele>131</ele>
        <time>2025-04-12T09:50:15Z</time>
      </trkpt>
      <trkpt lat="43.64254" lon="1.4037">
        <ele>131</ele>
        <time>2025-04-12T09:50:16Z</time>
      </trkpt>
      <trkpt lat="43.64254" lon="1.4037">
        <ele>131</ele>
        <time>2025-04-12T09:50:17Z</time>
      </trkpt>
      <trkpt lat="43.64252" lon="1.40371">
        <ele>131</ele>
        <time>2025-04-12T09:50:18Z</time>
      </trkpt>
      <trkpt lat="43.64249" lon="1.40372">
        <ele>131</ele>
        <time>2025-04-12T09:50:19Z</time>
      </trkpt>
      <trkpt lat="43.64243" lon="1.40374">
        <ele>131</ele>
        <time>2025-04-12T09:50:20Z</time>
      </trkpt>
      <trkpt lat="43.6424" lon="1.40375">
        <ele>131</ele>
        <time>2025-04-12T09:50:21Z</time>
      </trkpt>
      <trkpt lat="43.64237" lon="1.40377">
        <ele>131</ele>
        <time>2025-04-12T09:50:22Z</time>
      </trkpt>
      <trkpt lat="43.64231" lon="1.40378">
        <ele>131</ele>
        <time>2025-04-12T09:50:24Z</time>
      </trkpt>
      <trkpt lat="43.64228" lon="1.40379">
        <ele>131</ele>
        <time>2025-04-12T09:50:26Z</time>
      </trkpt>
      <trkpt lat="43.64222" lon="1.4038">
        <ele>131</ele>
        <time>2025-04-12T09:50:27Z</time>
      </trkpt>
      <trkpt lat="43.64222" lon="1.4038">
        <ele>131</ele>
        <time>2025-04-12T09:50:28Z</time>
      </trkpt>
      <trkpt lat="43.64216" lon="1.40382">
        <ele>132</ele>
        <time>2025-04-12T09:50:29Z</time>
      </trkpt>
      <trkpt lat="43.64216" lon="1.40382">
        <ele>132</ele>
        <time>2025-04-12T09:50:30Z</time>
      </trkpt>
      <trkpt lat="43.64211" lon="1.40383">
        <ele>132</ele>
        <time>2025-04-12T09:50:31Z</time>
      </trkpt>
      <trkpt lat="43.64211" lon="1.40383">
        <ele>132</ele>
        <time>2025-04-12T09:50:32Z</time>
      </trkpt>
      <trkpt lat="43.64208" lon="1.40384">
        <ele>132</ele>
        <time>2025-04-12T09:50:33Z</time>
      </trkpt>
      <trkpt lat="43.64202" lon="1.40386">
        <ele>132</ele>
        <time>2025-04-12T09:50:34Z</time>
      </trkpt>
      <trkpt lat="43.64202" lon="1.40386">
        <ele>132</ele>
        <time>2025-04-12T09:50:35Z</time>
      </trkpt>
      <trkpt lat="43.64197" lon="1.40387">
        <ele>132</ele>
        <time>2025-04-12T09:50:36Z</time>
      </trkpt>
      <trkpt lat="43.64194" lon="1.40388">
        <ele>132</ele>
        <time>2025-04-12T09:50:37Z</time>
      </trkpt>
      <trkpt lat="43.64191" lon="1.40388">
        <ele>132</ele>
        <time>2025-04-12T09:50:38Z</time>
      </trkpt>
      <trkpt lat="43.64191" lon="1.40388">
        <ele>132</ele>
        <time>2025-04-12T09:50:39Z</time>
      </trkpt>
      <trkpt lat="43.64188" lon="1.40389">
        <ele>132</ele>
        <time>2025-04-12T09:50:40Z</time>
      </trkpt>
      <trkpt lat="43.64185" lon="1.4039">
        <ele>132</ele>
        <time>2025-04-12T09:50:41Z</time>
      </trkpt>
      <trkpt lat="43.64179" lon="1.40391">
        <ele>132</ele>
        <time>2025-04-12T09:50:42Z</time>
      </trkpt>
      <trkpt lat="43.64176" lon="1.40392">
        <ele>132</ele>
        <time>2025-04-12T09:50:43Z</time>
      </trkpt>
      <trkpt lat="43.64176" lon="1.40392">
        <ele>132</ele>
        <time>2025-04-12T09:50:44Z</time>
      </trkpt>
      <trkpt lat="43.64171" lon="1.40393">
        <ele>132</ele>
        <time>2025-04-12T09:50:45Z</time>
      </trkpt>
      <trkpt lat="43.64168" lon="1.40394">
        <ele>132</ele>
        <time>2025-04-12T09:50:46Z</time>
      </trkpt>
      <trkpt lat="43.64166" lon="1.40395">
        <ele>132</ele>
        <time>2025-04-12T09:50:47Z</time>
      </trkpt>
      <trkpt lat="43.64166" lon="1.40395">
        <ele>132</ele>
        <time>2025-04-12T09:50:48Z</time>
      </trkpt>
      <trkpt lat="43.64163" lon="1.40396">
        <ele>132</ele>
        <time>2025-04-12T09:50:49Z</time>
      </trkpt>
      <trkpt lat="43.64157" lon="1.40397">
        <ele>132</ele>
        <time>2025-04-12T09:50:50Z</time>
      </trkpt>
      <trkpt lat="43.64157" lon="1.40397">
        <ele>132</ele>
        <time>2025-04-12T09:50:51Z</time>
      </trkpt>
      <trkpt lat="43.64152" lon="1.40398">
        <ele>131</ele>
        <time>2025-04-12T09:50:52Z</time>
      </trkpt>
      <trkpt lat="43.64152" lon="1.40398">
        <ele>131</ele>
        <time>2025-04-12T09:50:53Z</time>
      </trkpt>
      <trkpt lat="43.64146" lon="1.40399">
        <ele>131</ele>
        <time>2025-04-12T09:50:54Z</time>
      </trkpt>
      <trkpt lat="43.64146" lon="1.40399">
        <ele>131</ele>
        <time>2025-04-12T09:50:55Z</time>
      </trkpt>
      <trkpt lat="43.64141" lon="1.404">
        <ele>131</ele>
        <time>2025-04-12T09:50:56Z</time>
      </trkpt>
      <trkpt lat="43.64138" lon="1.404">
        <ele>131</ele>
        <time>2025-04-12T09:50:57Z</time>
      </trkpt>
      <trkpt lat="43.64138" lon="1.404">
        <ele>131</ele>
        <time>2025-04-12T09:50:58Z</time>
      </trkpt>
      <trkpt lat="43.64135" lon="1.404">
        <ele>131</ele>
        <time>2025-04-12T09:50:59Z</time>
      </trkpt>
      <trkpt lat="43.6413" lon="1.40401">
        <ele>131</ele>
        <time>2025-04-12T09:51:00Z</time>
      </trkpt>
      <trkpt lat="43.6413" lon="1.40401">
        <ele>131</ele>
        <time>2025-04-12T09:51:01Z</time>
      </trkpt>
      <trkpt lat="43.64127" lon="1.40401">
        <ele>131</ele>
        <time>2025-04-12T09:51:02Z</time>
      </trkpt>
      <trkpt lat="43.64124" lon="1.40402">
        <ele>131</ele>
        <time>2025-04-12T09:51:03Z</time>
      </trkpt>
      <trkpt lat="43.64118" lon="1.40403">
        <ele>131</ele>
        <time>2025-04-12T09:51:04Z</time>
      </trkpt>
      <trkpt lat="43.64115" lon="1.40404">
        <ele>131</ele>
        <time>2025-04-12T09:51:05Z</time>
      </trkpt>
      <trkpt lat="43.64112" lon="1.40404">
        <ele>131</ele>
        <time>2025-04-12T09:51:06Z</time>
      </trkpt>
      <trkpt lat="43.64109" lon="1.40405">
        <ele>131</ele>
        <time>2025-04-12T09:51:07Z</time>
      </trkpt>
      <trkpt lat="43.64106" lon="1.40407">
        <ele>131</ele>
        <time>2025-04-12T09:51:08Z</time>
      </trkpt>
      <trkpt lat="43.64106" lon="1.40407">
        <ele>131</ele>
        <time>2025-04-12T09:51:09Z</time>
      </trkpt>
      <trkpt lat="43.64103" lon="1.40408">
        <ele>131</ele>
        <time>2025-04-12T09:51:10Z</time>
      </trkpt>
      <trkpt lat="43.64101" lon="1.40408">
        <ele>131</ele>
        <time>2025-04-12T09:51:11Z</time>
      </trkpt>
      <trkpt lat="43.64095" lon="1.4041">
        <ele>131</ele>
        <time>2025-04-12T09:51:12Z</time>
      </trkpt>
      <trkpt lat="43.64095" lon="1.4041">
        <ele>131</ele>
        <time>2025-04-12T09:51:13Z</time>
      </trkpt>
      <trkpt lat="43.64089" lon="1.40412">
        <ele>131</ele>
        <time>2025-04-12T09:51:14Z</time>
      </trkpt>
      <trkpt lat="43.64089" lon="1.40412">
        <ele>131</ele>
        <time>2025-04-12T09:51:15Z</time>
      </trkpt>
      <trkpt lat="43.64086" lon="1.40413">
        <ele>131</ele>
        <time>2025-04-12T09:51:16Z</time>
      </trkpt>
      <trkpt lat="43.6408" lon="1.40413">
        <ele>131</ele>
        <time>2025-04-12T09:51:17Z</time>
      </trkpt>
      <trkpt lat="43.64077" lon="1.40414">
        <ele>131</ele>
        <time>2025-04-12T09:51:18Z</time>
      </trkpt>
      <trkpt lat="43.64077" lon="1.40414">
        <ele>131</ele>
        <time>2025-04-12T09:51:19Z</time>
      </trkpt>
      <trkpt lat="43.64071" lon="1.40415">
        <ele>131</ele>
        <time>2025-04-12T09:51:20Z</time>
      </trkpt>
      <trkpt lat="43.64071" lon="1.40415">
        <ele>131</ele>
        <time>2025-04-12T09:51:21Z</time>
      </trkpt>
      <trkpt lat="43.64068" lon="1.40416">
        <ele>131</ele>
        <time>2025-04-12T09:51:22Z</time>
      </trkpt>
      <trkpt lat="43.64062" lon="1.40418">
        <ele>131</ele>
        <time>2025-04-12T09:51:23Z</time>
      </trkpt>
      <trkpt lat="43.64062" lon="1.40418">
        <ele>131</ele>
        <time>2025-04-12T09:51:24Z</time>
      </trkpt>
      <trkpt lat="43.64057" lon="1.4042">
        <ele>131</ele>
        <time>2025-04-12T09:51:25Z</time>
      </trkpt>
      <trkpt lat="43.64057" lon="1.4042">
        <ele>131</ele>
        <time>2025-04-12T09:51:26Z</time>
      </trkpt>
      <trkpt lat="43.64054" lon="1.40421">
        <ele>131</ele>
        <time>2025-04-12T09:51:27Z</time>
      </trkpt>
      <trkpt lat="43.64048" lon="1.40423">
        <ele>131</ele>
        <time>2025-04-12T09:51:28Z</time>
      </trkpt>
      <trkpt lat="43.64048" lon="1.40423">
        <ele>131</ele>
        <time>2025-04-12T09:51:29Z</time>
      </trkpt>
      <trkpt lat="43.64043" lon="1.40424">
        <ele>131</ele>
        <time>2025-04-12T09:51:30Z</time>
      </trkpt>
      <trkpt lat="43.64041" lon="1.40425">
        <ele>131</ele>
        <time>2025-04-12T09:51:31Z</time>
      </trkpt>
      <trkpt lat="43.64038" lon="1.40425">
        <ele>131</ele>
        <time>2025-04-12T09:51:32Z</time>
      </trkpt>
      <trkpt lat="43.64035" lon="1.40426">
        <ele>131</ele>
        <time>2025-04-12T09:51:33Z</time>
      </trkpt>
      <trkpt lat="43.64035" lon="1.40426">
        <ele>131</ele>
        <time>2025-04-12T09:51:34Z</time>
      </trkpt>
      <trkpt lat="43.6403" lon="1.40428">
        <ele>131</ele>
        <time>2025-04-12T09:51:35Z</time>
      </trkpt>
      <trkpt lat="43.6403" lon="1.40428">
        <ele>131</ele>
        <time>2025-04-12T09:51:36Z</time>
      </trkpt>
      <trkpt lat="43.64027" lon="1.40428">
        <ele>131</ele>
        <time>2025-04-12T09:51:37Z</time>
      </trkpt>
      <trkpt lat="43.64024" lon="1.40429">
        <ele>131</ele>
        <time>2025-04-12T09:51:38Z</time>
      </trkpt>
      <trkpt lat="43.64018" lon="1.40429">
        <ele>131</ele>
        <time>2025-04-12T09:51:39Z</time>
      </trkpt>
      <trkpt lat="43.64015" lon="1.40429">
        <ele>131</ele>
        <time>2025-04-12T09:51:40Z</time>
      </trkpt>
      <trkpt lat="43.64015" lon="1.40429">
        <ele>131</ele>
        <time>2025-04-12T09:51:41Z</time>
      </trkpt>
      <trkpt lat="43.6401" lon="1.40431">
        <ele>131</ele>
        <time>2025-04-12T09:51:42Z</time>
      </trkpt>
      <trkpt lat="43.6401" lon="1.40431">
        <ele>131</ele>
        <time>2025-04-12T09:51:43Z</time>
      </trkpt>
      <trkpt lat="43.64004" lon="1.40432">
        <ele>131</ele>
        <time>2025-04-12T09:51:44Z</time>
      </trkpt>
      <trkpt lat="43.64001" lon="1.40433">
        <ele>131</ele>
        <time>2025-04-12T09:51:45Z</time>
      </trkpt>
      <trkpt lat="43.64001" lon="1.40433">
        <ele>131</ele>
        <time>2025-04-12T09:51:46Z</time>
      </trkpt>
      <trkpt lat="43.63998" lon="1.40434">
        <ele>131</ele>
        <time>2025-04-12T09:51:47Z</time>
      </trkpt>
      <trkpt lat="43.63996" lon="1.40435">
        <ele>131</ele>
        <time>2025-04-12T09:51:48Z</time>
      </trkpt>
      <trkpt lat="43.63991" lon="1.40436">
        <ele>131</ele>
        <time>2025-04-12T09:51:49Z</time>
      </trkpt>
      <trkpt lat="43.63988" lon="1.40436">
        <ele>131</ele>
        <time>2025-04-12T09:51:50Z</time>
      </trkpt>
      <trkpt lat="43.63985" lon="1.40438">
        <ele>131</ele>
        <time>2025-04-12T09:51:51Z</time>
      </trkpt>
      <trkpt lat="43.63983" lon="1.40438">
        <ele>131</ele>
        <time>2025-04-12T09:51:53Z</time>
      </trkpt>
      <trkpt lat="43.63977" lon="1.4044">
        <ele>131</ele>
        <time>2025-04-12T09:51:54Z</time>
      </trkpt>
      <trkpt lat="43.63975" lon="1.4044">
        <ele>131</ele>
        <time>2025-04-12T09:51:55Z</time>
      </trkpt>
      <trkpt lat="43.63972" lon="1.4044">
        <ele>131</ele>
        <time>2025-04-12T09:51:56Z</time>
      </trkpt>
      <trkpt lat="43.63972" lon="1.4044">
        <ele>131</ele>
        <time>2025-04-12T09:51:57Z</time>
      </trkpt>
      <trkpt lat="43.63967" lon="1.40441">
        <ele>131</ele>
        <time>2025-04-12T09:51:58Z</time>
      </trkpt>
      <trkpt lat="43.63965" lon="1.40441">
        <ele>131</ele>
        <time>2025-04-12T09:51:59Z</time>
      </trkpt>
      <trkpt lat="43.63965" lon="1.40441">
        <ele>131</ele>
        <time>2025-04-12T09:52:00Z</time>
      </trkpt>
      <trkpt lat="43.6396" lon="1.40442">
        <ele>131</ele>
        <time>2025-04-12T09:52:01Z</time>
      </trkpt>
      <trkpt lat="43.63957" lon="1.40442">
        <ele>131</ele>
        <time>2025-04-12T09:52:02Z</time>
      </trkpt>
      <trkpt lat="43.63954" lon="1.40442">
        <ele>131</ele>
        <time>2025-04-12T09:52:03Z</time>
      </trkpt>
      <trkpt lat="43.63951" lon="1.40443">
        <ele>131</ele>
        <time>2025-04-12T09:52:04Z</time>
      </trkpt>
      <trkpt lat="43.63951" lon="1.40443">
        <ele>131</ele>
        <time>2025-04-12T09:52:05Z</time>
      </trkpt>
      <trkpt lat="43.63949" lon="1.40443">
        <ele>131</ele>
        <time>2025-04-12T09:52:06Z</time>
      </trkpt>
      <trkpt lat="43.63947" lon="1.40444">
        <ele>131</ele>
        <time>2025-04-12T09:52:07Z</time>
      </trkpt>
      <trkpt lat="43.63942" lon="1.40446">
        <ele>131</ele>
        <time>2025-04-12T09:52:08Z</time>
      </trkpt>
      <trkpt lat="43.63939" lon="1.40447">
        <ele>130</ele>
        <time>2025-04-12T09:52:09Z</time>
      </trkpt>
      <trkpt lat="43.63936" lon="1.40448">
        <ele>130</ele>
        <time>2025-04-12T09:52:10Z</time>
      </trkpt>
      <trkpt lat="43.63933" lon="1.40449">
        <ele>130</ele>
        <time>2025-04-12T09:52:12Z</time>
      </trkpt>
      <trkpt lat="43.63927" lon="1.4045">
        <ele>130</ele>
        <time>2025-04-12T09:52:13Z</time>
      </trkpt>
      <trkpt lat="43.63927" lon="1.4045">
        <ele>130</ele>
        <time>2025-04-12T09:52:14Z</time>
      </trkpt>
      <trkpt lat="43.63922" lon="1.40451">
        <ele>130</ele>
        <time>2025-04-12T09:52:15Z</time>
      </trkpt>
      <trkpt lat="43.6392" lon="1.40451">
        <ele>131</ele>
        <time>2025-04-12T09:52:16Z</time>
      </trkpt>
      <trkpt lat="43.6392" lon="1.40451">
        <ele>131</ele>
        <time>2025-04-12T09:52:17Z</time>
      </trkpt>
      <trkpt lat="43.63915" lon="1.40452">
        <ele>131</ele>
        <time>2025-04-12T09:52:18Z</time>
      </trkpt>
      <trkpt lat="43.63915" lon="1.40452">
        <ele>131</ele>
        <time>2025-04-12T09:52:19Z</time>
      </trkpt>
      <trkpt lat="43.63909" lon="1.40453">
        <ele>131</ele>
        <time>2025-04-12T09:52:20Z</time>
      </trkpt>
      <trkpt lat="43.63909" lon="1.40453">
        <ele>131</ele>
        <time>2025-04-12T09:52:21Z</time>
      </trkpt>
      <trkpt lat="43.63904" lon="1.40453">
        <ele>131</ele>
        <time>2025-04-12T09:52:22Z</time>
      </trkpt>
      <trkpt lat="43.63904" lon="1.40453">
        <ele>131</ele>
        <time>2025-04-12T09:52:23Z</time>
      </trkpt>
      <trkpt lat="43.63898" lon="1.40454">
        <ele>131</ele>
        <time>2025-04-12T09:52:24Z</time>
      </trkpt>
      <trkpt lat="43.63898" lon="1.40454">
        <ele>131</ele>
        <time>2025-04-12T09:52:25Z</time>
      </trkpt>
      <trkpt lat="43.63896" lon="1.40454">
        <ele>130</ele>
        <time>2025-04-12T09:52:26Z</time>
      </trkpt>
      <trkpt lat="43.63893" lon="1.40455">
        <ele>130</ele>
        <time>2025-04-12T09:52:27Z</time>
      </trkpt>
      <trkpt lat="43.6389" lon="1.40456">
        <ele>130</ele>
        <time>2025-04-12T09:52:28Z</time>
      </trkpt>
      <trkpt lat="43.63887" lon="1.40456">
        <ele>130</ele>
        <time>2025-04-12T09:52:29Z</time>
      </trkpt>
      <trkpt lat="43.63881" lon="1.40457">
        <ele>130</ele>
        <time>2025-04-12T09:52:30Z</time>
      </trkpt>
      <trkpt lat="43.63878" lon="1.40458">
        <ele>130</ele>
        <time>2025-04-12T09:52:31Z</time>
      </trkpt>
      <trkpt lat="43.63875" lon="1.40459">
        <ele>130</ele>
        <time>2025-04-12T09:52:32Z</time>
      </trkpt>
      <trkpt lat="43.63875" lon="1.40459">
        <ele>131</ele>
        <time>2025-04-12T09:52:33Z</time>
      </trkpt>
      <trkpt lat="43.63872" lon="1.40459">
        <ele>131</ele>
        <time>2025-04-12T09:52:34Z</time>
      </trkpt>
      <trkpt lat="43.63869" lon="1.40461">
        <ele>132</ele>
        <time>2025-04-12T09:52:35Z</time>
      </trkpt>
      <trkpt lat="43.63863" lon="1.40463">
        <ele>132</ele>
        <time>2025-04-12T09:52:36Z</time>
      </trkpt>
      <trkpt lat="43.63863" lon="1.40463">
        <ele>131</ele>
        <time>2025-04-12T09:52:37Z</time>
      </trkpt>
      <trkpt lat="43.6386" lon="1.40464">
        <ele>131</ele>
        <time>2025-04-12T09:52:38Z</time>
      </trkpt>
      <trkpt lat="43.63854" lon="1.40464">
        <ele>131</ele>
        <time>2025-04-12T09:52:39Z</time>
      </trkpt>
      <trkpt lat="43.63851" lon="1.40465">
        <ele>131</ele>
        <time>2025-04-12T09:52:40Z</time>
      </trkpt>
      <trkpt lat="43.63851" lon="1.40465">
        <ele>131</ele>
        <time>2025-04-12T09:52:41Z</time>
      </trkpt>
      <trkpt lat="43.63846" lon="1.40466">
        <ele>131</ele>
        <time>2025-04-12T09:52:42Z</time>
      </trkpt>
      <trkpt lat="43.63843" lon="1.40466">
        <ele>131</ele>
        <time>2025-04-12T09:52:43Z</time>
      </trkpt>
      <trkpt lat="43.63843" lon="1.40466">
        <ele>131</ele>
        <time>2025-04-12T09:52:44Z</time>
      </trkpt>
      <trkpt lat="43.6384" lon="1.40467">
        <ele>131</ele>
        <time>2025-04-12T09:52:45Z</time>
      </trkpt>
      <trkpt lat="43.63835" lon="1.40468">
        <ele>131</ele>
        <time>2025-04-12T09:52:46Z</time>
      </trkpt>
      <trkpt lat="43.63833" lon="1.40468">
        <ele>131</ele>
        <time>2025-04-12T09:52:47Z</time>
      </trkpt>
      <trkpt lat="43.63833" lon="1.40468">
        <ele>131</ele>
        <time>2025-04-12T09:52:48Z</time>
      </trkpt>
      <trkpt lat="43.63827" lon="1.40469">
        <ele>132</ele>
        <time>2025-04-12T09:52:49Z</time>
      </trkpt>
      <trkpt lat="43.63827" lon="1.40469">
        <ele>132</ele>
        <time>2025-04-12T09:52:50Z</time>
      </trkpt>
      <trkpt lat="43.63822" lon="1.40469">
        <ele>132</ele>
        <time>2025-04-12T09:52:51Z</time>
      </trkpt>
      <trkpt lat="43.63822" lon="1.40469">
        <ele>132</ele>
        <time>2025-04-12T09:52:52Z</time>
      </trkpt>
      <trkpt lat="43.63815" lon="1.4047">
        <ele>131</ele>
        <time>2025-04-12T09:52:53Z</time>
      </trkpt>
      <trkpt lat="43.63815" lon="1.4047">
        <ele>131</ele>
        <time>2025-04-12T09:52:54Z</time>
      </trkpt>
      <trkpt lat="43.63812" lon="1.4047">
        <ele>131</ele>
        <time>2025-04-12T09:52:55Z</time>
      </trkpt>
      <trkpt lat="43.63809" lon="1.4047">
        <ele>131</ele>
        <time>2025-04-12T09:52:56Z</time>
      </trkpt>
      <trkpt lat="43.63805" lon="1.40471">
        <ele>131</ele>
        <time>2025-04-12T09:52:57Z</time>
      </trkpt>
      <trkpt lat="43.638" lon="1.40472">
        <ele>131</ele>
        <time>2025-04-12T09:52:58Z</time>
      </trkpt>
      <trkpt lat="43.638" lon="1.40472">
        <ele>131</ele>
        <time>2025-04-12T09:52:59Z</time>
      </trkpt>
      <trkpt lat="43.63795" lon="1.40473">
        <ele>131</ele>
        <time>2025-04-12T09:53:00Z</time>
      </trkpt>
      <trkpt lat="43.63795" lon="1.40473">
        <ele>131</ele>
        <time>2025-04-12T09:53:01Z</time>
      </trkpt>
      <trkpt lat="43.6379" lon="1.40475">
        <ele>131</ele>
        <time>2025-04-12T09:53:02Z</time>
      </trkpt>
      <trkpt lat="43.6379" lon="1.40475">
        <ele>131</ele>
        <time>2025-04-12T09:53:03Z</time>
      </trkpt>
      <trkpt lat="43.63784" lon="1.40475">
        <ele>130</ele>
        <time>2025-04-12T09:53:04Z</time>
      </trkpt>
      <trkpt lat="43.63782" lon="1.40475">
        <ele>130</ele>
        <time>2025-04-12T09:53:05Z</time>
      </trkpt>
      <trkpt lat="43.63779" lon="1.40475">
        <ele>130</ele>
        <time>2025-04-12T09:53:06Z</time>
      </trkpt>
      <trkpt lat="43.63779" lon="1.40475">
        <ele>130</ele>
        <time>2025-04-12T09:53:07Z</time>
      </trkpt>
      <trkpt lat="43.63773" lon="1.40475">
        <ele>130</ele>
        <time>2025-04-12T09:53:08Z</time>
      </trkpt>
      <trkpt lat="43.63773" lon="1.40475">
        <ele>130</ele>
        <time>2025-04-12T09:53:09Z</time>
      </trkpt>
      <trkpt lat="43.63767" lon="1.40476">
        <ele>130</ele>
        <time>2025-04-12T09:53:10Z</time>
      </trkpt>
      <trkpt lat="43.63767" lon="1.40476">
        <ele>130</ele>
        <time>2025-04-12T09:53:11Z</time>
      </trkpt>
      <trkpt lat="43.63762" lon="1.40478">
        <ele>130</ele>
        <time>2025-04-12T09:53:12Z</time>
      </trkpt>
      <trkpt lat="43.63759" lon="1.40479">
        <ele>130</ele>
        <time>2025-04-12T09:53:13Z</time>
      </trkpt>
      <trkpt lat="43.63759" lon="1.40479">
        <ele>130</ele>
        <time>2025-04-12T09:53:14Z</time>
      </trkpt>
      <trkpt lat="43.63756" lon="1.40479">
        <ele>130</ele>
        <time>2025-04-12T09:53:15Z</time>
      </trkpt>
      <trkpt lat="43.63753" lon="1.40479">
        <ele>130</ele>
        <time>2025-04-12T09:53:16Z</time>
      </trkpt>
      <trkpt lat="43.6375" lon="1.40479">
        <ele>130</ele>
        <time>2025-04-12T09:53:17Z</time>
      </trkpt>
      <trkpt lat="43.63747" lon="1.4048">
        <ele>130</ele>
        <time>2025-04-12T09:53:18Z</time>
      </trkpt>
      <trkpt lat="43.63741" lon="1.4048">
        <ele>130</ele>
        <time>2025-04-12T09:53:19Z</time>
      </trkpt>
      <trkpt lat="43.63738" lon="1.40481">
        <ele>130</ele>
        <time>2025-04-12T09:53:20Z</time>
      </trkpt>
      <trkpt lat="43.63738" lon="1.40481">
        <ele>130</ele>
        <time>2025-04-12T09:53:21Z</time>
      </trkpt>
      <trkpt lat="43.63732" lon="1.40481">
        <ele>130</ele>
        <time>2025-04-12T09:53:22Z</time>
      </trkpt>
      <trkpt lat="43.6373" lon="1.40482">
        <ele>130</ele>
        <time>2025-04-12T09:53:23Z</time>
      </trkpt>
      <trkpt lat="43.63727" lon="1.40482">
        <ele>130</ele>
        <time>2025-04-12T09:53:24Z</time>
      </trkpt>
      <trkpt lat="43.63727" lon="1.40482">
        <ele>130</ele>
        <time>2025-04-12T09:53:25Z</time>
      </trkpt>
      <trkpt lat="43.63724" lon="1.40483">
        <ele>130</ele>
        <time>2025-04-12T09:53:26Z</time>
      </trkpt>
      <trkpt lat="43.63719" lon="1.40482">
        <ele>130</ele>
        <time>2025-04-12T09:53:27Z</time>
      </trkpt>
      <trkpt lat="43.63719" lon="1.40482">
        <ele>130</ele>
        <time>2025-04-12T09:53:28Z</time>
      </trkpt>
      <trkpt lat="43.63713" lon="1.40483">
        <ele>130</ele>
        <time>2025-04-12T09:53:29Z</time>
      </trkpt>
      <trkpt lat="43.63713" lon="1.40483">
        <ele>131</ele>
        <time>2025-04-12T09:53:30Z</time>
      </trkpt>
      <trkpt lat="43.63707" lon="1.40483">
        <ele>131</ele>
        <time>2025-04-12T09:53:31Z</time>
      </trkpt>
      <trkpt lat="43.63707" lon="1.40483">
        <ele>130</ele>
        <time>2025-04-12T09:53:32Z</time>
      </trkpt>
      <trkpt lat="43.63701" lon="1.40484">
        <ele>130</ele>
        <time>2025-04-12T09:53:33Z</time>
      </trkpt>
      <trkpt lat="43.63699" lon="1.40484">
        <ele>130</ele>
        <time>2025-04-12T09:53:34Z</time>
      </trkpt>
      <trkpt lat="43.63699" lon="1.40484">
        <ele>130</ele>
        <time>2025-04-12T09:53:35Z</time>
      </trkpt>
      <trkpt lat="43.63693" lon="1.40485">
        <ele>130</ele>
        <time>2025-04-12T09:53:36Z</time>
      </trkpt>
      <trkpt lat="43.63693" lon="1.40485">
        <ele>130</ele>
        <time>2025-04-12T09:53:37Z</time>
      </trkpt>
      <trkpt lat="43.63689" lon="1.40485">
        <ele>130</ele>
        <time>2025-04-12T09:53:38Z</time>
      </trkpt>
      <trkpt lat="43.63687" lon="1.40485">
        <ele>130</ele>
        <time>2025-04-12T09:53:40Z</time>
      </trkpt>
      <trkpt lat="43.63681" lon="1.40487">
        <ele>130</ele>
        <time>2025-04-12T09:53:41Z</time>
      </trkpt>
      <trkpt lat="43.63681" lon="1.40487">
        <ele>130</ele>
        <time>2025-04-12T09:53:42Z</time>
      </trkpt>
      <trkpt lat="43.63674" lon="1.40486">
        <ele>130</ele>
        <time>2025-04-12T09:53:43Z</time>
      </trkpt>
      <trkpt lat="43.63674" lon="1.40486">
        <ele>130</ele>
        <time>2025-04-12T09:53:44Z</time>
      </trkpt>
      <trkpt lat="43.63668" lon="1.40486">
        <ele>130</ele>
        <time>2025-04-12T09:53:45Z</time>
      </trkpt>
      <trkpt lat="43.63668" lon="1.40486">
        <ele>130</ele>
        <time>2025-04-12T09:53:46Z</time>
      </trkpt>
      <trkpt lat="43.63665" lon="1.40486">
        <ele>130</ele>
        <time>2025-04-12T09:53:47Z</time>
      </trkpt>
      <trkpt lat="43.63658" lon="1.40485">
        <ele>130</ele>
        <time>2025-04-12T09:53:48Z</time>
      </trkpt>
      <trkpt lat="43.63658" lon="1.40485">
        <ele>130</ele>
        <time>2025-04-12T09:53:49Z</time>
      </trkpt>
      <trkpt lat="43.63653" lon="1.40486">
        <ele>130</ele>
        <time>2025-04-12T09:53:50Z</time>
      </trkpt>
      <trkpt lat="43.6365" lon="1.40487">
        <ele>130</ele>
        <time>2025-04-12T09:53:51Z</time>
      </trkpt>
      <trkpt lat="43.6365" lon="1.40487">
        <ele>130</ele>
        <time>2025-04-12T09:53:52Z</time>
      </trkpt>
      <trkpt lat="43.63647" lon="1.40487">
        <ele>130</ele>
        <time>2025-04-12T09:53:53Z</time>
      </trkpt>
      <trkpt lat="43.63645" lon="1.40488">
        <ele>130</ele>
        <time>2025-04-12T09:53:54Z</time>
      </trkpt>
      <trkpt lat="43.63642" lon="1.40488">
        <ele>130</ele>
        <time>2025-04-12T09:53:55Z</time>
      </trkpt>
      <trkpt lat="43.63639" lon="1.40488">
        <ele>130</ele>
        <time>2025-04-12T09:53:56Z</time>
      </trkpt>
      <trkpt lat="43.63632" lon="1.40489">
        <ele>130</ele>
        <time>2025-04-12T09:53:57Z</time>
      </trkpt>
      <trkpt lat="43.63632" lon="1.40489">
        <ele>130</ele>
        <time>2025-04-12T09:53:58Z</time>
      </trkpt>
      <trkpt lat="43.6363" lon="1.40489">
        <ele>130</ele>
        <time>2025-04-12T09:53:59Z</time>
      </trkpt>
      <trkpt lat="43.63626" lon="1.40489">
        <ele>130</ele>
        <time>2025-04-12T09:54:00Z</time>
      </trkpt>
      <trkpt lat="43.63623" lon="1.40489">
        <ele>130</ele>
        <time>2025-04-12T09:54:01Z</time>
      </trkpt>
      <trkpt lat="43.6362" lon="1.40489">
        <ele>131</ele>
        <time>2025-04-12T09:54:02Z</time>
      </trkpt>
      <trkpt lat="43.63613" lon="1.40488">
        <ele>131</ele>
        <time>2025-04-12T09:54:03Z</time>
      </trkpt>
      <trkpt lat="43.6361" lon="1.40488">
        <ele>131</ele>
        <time>2025-04-12T09:54:04Z</time>
      </trkpt>
      <trkpt lat="43.63607" lon="1.40487">
        <ele>131</ele>
        <time>2025-04-12T09:54:05Z</time>
      </trkpt>
      <trkpt lat="43.63607" lon="1.40487">
        <ele>131</ele>
        <time>2025-04-12T09:54:06Z</time>
      </trkpt>
      <trkpt lat="43.63603" lon="1.40487">
        <ele>131</ele>
        <time>2025-04-12T09:54:07Z</time>
      </trkpt>
      <trkpt lat="43.636" lon="1.40487">
        <ele>131</ele>
        <time>2025-04-12T09:54:08Z</time>
      </trkpt>
      <trkpt lat="43.63597" lon="1.40487">
        <ele>131</ele>
        <time>2025-04-12T09:54:09Z</time>
      </trkpt>
      <trkpt lat="43.63594" lon="1.40486">
        <ele>131</ele>
        <time>2025-04-12T09:54:10Z</time>
      </trkpt>
      <trkpt lat="43.63588" lon="1.40486">
        <ele>131</ele>
        <time>2025-04-12T09:54:11Z</time>
      </trkpt>
      <trkpt lat="43.63588" lon="1.40486">
        <ele>131</ele>
        <time>2025-04-12T09:54:12Z</time>
      </trkpt>
      <trkpt lat="43.63582" lon="1.40486">
        <ele>131</ele>
        <time>2025-04-12T09:54:13Z</time>
      </trkpt>
      <trkpt lat="43.63582" lon="1.40486">
        <ele>130</ele>
        <time>2025-04-12T09:54:14Z</time>
      </trkpt>
      <trkpt lat="43.63579" lon="1.40485">
        <ele>130</ele>
        <time>2025-04-12T09:54:15Z</time>
      </trkpt>
      <trkpt lat="43.63573" lon="1.40485">
        <ele>130</ele>
        <time>2025-04-12T09:54:16Z</time>
      </trkpt>
      <trkpt lat="43.6357" lon="1.40484">
        <ele>130</ele>
        <time>2025-04-12T09:54:17Z</time>
      </trkpt>
      <trkpt lat="43.6357" lon="1.40484">
        <ele>130</ele>
        <time>2025-04-12T09:54:18Z</time>
      </trkpt>
      <trkpt lat="43.63565" lon="1.40483">
        <ele>130</ele>
        <time>2025-04-12T09:54:19Z</time>
      </trkpt>
      <trkpt lat="43.63562" lon="1.40483">
        <ele>130</ele>
        <time>2025-04-12T09:54:20Z</time>
      </trkpt>
      <trkpt lat="43.63562" lon="1.40483">
        <ele>130</ele>
        <time>2025-04-12T09:54:21Z</time>
      </trkpt>
      <trkpt lat="43.63559" lon="1.40483">
        <ele>130</ele>
        <time>2025-04-12T09:54:22Z</time>
      </trkpt>
      <trkpt lat="43.63556" lon="1.40484">
        <ele>130</ele>
        <time>2025-04-12T09:54:23Z</time>
      </trkpt>
      <trkpt lat="43.63553" lon="1.40484">
        <ele>130</ele>
        <time>2025-04-12T09:54:24Z</time>
      </trkpt>
      <trkpt lat="43.6355" lon="1.40484">
        <ele>129</ele>
        <time>2025-04-12T09:54:25Z</time>
      </trkpt>
      <trkpt lat="43.63544" lon="1.40484">
        <ele>130</ele>
        <time>2025-04-12T09:54:26Z</time>
      </trkpt>
      <trkpt lat="43.63542" lon="1.40484">
        <ele>130</ele>
        <time>2025-04-12T09:54:27Z</time>
      </trkpt>
      <trkpt lat="43.63542" lon="1.40484">
        <ele>130</ele>
        <time>2025-04-12T09:54:28Z</time>
      </trkpt>
      <trkpt lat="43.63536" lon="1.40483">
        <ele>130</ele>
        <time>2025-04-12T09:54:29Z</time>
      </trkpt>
      <trkpt lat="43.63533" lon="1.40482">
        <ele>130</ele>
        <time>2025-04-12T09:54:30Z</time>
      </trkpt>
      <trkpt lat="43.63533" lon="1.40482">
        <ele>130</ele>
        <time>2025-04-12T09:54:31Z</time>
      </trkpt>
      <trkpt lat="43.6353" lon="1.40483">
        <ele>130</ele>
        <time>2025-04-12T09:54:32Z</time>
      </trkpt>
      <trkpt lat="43.63527" lon="1.40483">
        <ele>130</ele>
        <time>2025-04-12T09:54:33Z</time>
      </trkpt>
      <trkpt lat="43.63524" lon="1.40483">
        <ele>131</ele>
        <time>2025-04-12T09:54:34Z</time>
      </trkpt>
      <trkpt lat="43.63518" lon="1.40483">
        <ele>131</ele>
        <time>2025-04-12T09:54:35Z</time>
      </trkpt>
      <trkpt lat="43.63515" lon="1.40483">
        <ele>131</ele>
        <time>2025-04-12T09:54:36Z</time>
      </trkpt>
      <trkpt lat="43.63515" lon="1.40483">
        <ele>131</ele>
        <time>2025-04-12T09:54:37Z</time>
      </trkpt>
      <trkpt lat="43.63512" lon="1.40483">
        <ele>132</ele>
        <time>2025-04-12T09:54:38Z</time>
      </trkpt>
      <trkpt lat="43.63509" lon="1.40482">
        <ele>132</ele>
        <time>2025-04-12T09:54:39Z</time>
      </trkpt>
      <trkpt lat="43.63504" lon="1.40484">
        <ele>132</ele>
        <time>2025-04-12T09:54:40Z</time>
      </trkpt>
      <trkpt lat="43.63504" lon="1.40484">
        <ele>132</ele>
        <time>2025-04-12T09:54:41Z</time>
      </trkpt>
      <trkpt lat="43.63499" lon="1.40484">
        <ele>132</ele>
        <time>2025-04-12T09:54:42Z</time>
      </trkpt>
      <trkpt lat="43.63499" lon="1.40484">
        <ele>132</ele>
        <time>2025-04-12T09:54:43Z</time>
      </trkpt>
      <trkpt lat="43.63493" lon="1.40485">
        <ele>132</ele>
        <time>2025-04-12T09:54:44Z</time>
      </trkpt>
      <trkpt lat="43.63493" lon="1.40485">
        <ele>132</ele>
        <time>2025-04-12T09:54:45Z</time>
      </trkpt>
      <trkpt lat="43.6349" lon="1.40486">
        <ele>131</ele>
        <time>2025-04-12T09:54:46Z</time>
      </trkpt>
      <trkpt lat="43.63484" lon="1.40486">
        <ele>131</ele>
        <time>2025-04-12T09:54:47Z</time>
      </trkpt>
      <trkpt lat="43.63481" lon="1.40487">
        <ele>131</ele>
        <time>2025-04-12T09:54:48Z</time>
      </trkpt>
      <trkpt lat="43.63481" lon="1.40487">
        <ele>131</ele>
        <time>2025-04-12T09:54:49Z</time>
      </trkpt>
      <trkpt lat="43.63475" lon="1.40487">
        <ele>131</ele>
        <time>2025-04-12T09:54:50Z</time>
      </trkpt>
      <trkpt lat="43.63475" lon="1.40487">
        <ele>131</ele>
        <time>2025-04-12T09:54:51Z</time>
      </trkpt>
      <trkpt lat="43.6347" lon="1.40487">
        <ele>131</ele>
        <time>2025-04-12T09:54:52Z</time>
      </trkpt>
      <trkpt lat="43.6347" lon="1.40487">
        <ele>131</ele>
        <time>2025-04-12T09:54:53Z</time>
      </trkpt>
      <trkpt lat="43.63465" lon="1.40488">
        <ele>131</ele>
        <time>2025-04-12T09:54:54Z</time>
      </trkpt>
      <trkpt lat="43.63465" lon="1.40488">
        <ele>131</ele>
        <time>2025-04-12T09:54:55Z</time>
      </trkpt>
      <trkpt lat="43.6346" lon="1.40488">
        <ele>131</ele>
        <time>2025-04-12T09:54:56Z</time>
      </trkpt>
      <trkpt lat="43.63457" lon="1.40488">
        <ele>131</ele>
        <time>2025-04-12T09:54:57Z</time>
      </trkpt>
      <trkpt lat="43.63457" lon="1.40488">
        <ele>131</ele>
        <time>2025-04-12T09:54:58Z</time>
      </trkpt>
      <trkpt lat="43.63454" lon="1.40488">
        <ele>131</ele>
        <time>2025-04-12T09:54:59Z</time>
      </trkpt>
      <trkpt lat="43.63452" lon="1.40489">
        <ele>132</ele>
        <time>2025-04-12T09:55:00Z</time>
      </trkpt>
      <trkpt lat="43.63446" lon="1.4049">
        <ele>132</ele>
        <time>2025-04-12T09:55:01Z</time>
      </trkpt>
      <trkpt lat="43.63446" lon="1.4049">
        <ele>132</ele>
        <time>2025-04-12T09:55:02Z</time>
      </trkpt>
      <trkpt lat="43.6344" lon="1.4049">
        <ele>132</ele>
        <time>2025-04-12T09:55:03Z</time>
      </trkpt>
      <trkpt lat="43.63437" lon="1.40491">
        <ele>131</ele>
        <time>2025-04-12T09:55:05Z</time>
      </trkpt>
      <trkpt lat="43.63431" lon="1.40491">
        <ele>131</ele>
        <time>2025-04-12T09:55:06Z</time>
      </trkpt>
      <trkpt lat="43.63431" lon="1.40491">
        <ele>131</ele>
        <time>2025-04-12T09:55:07Z</time>
      </trkpt>
      <trkpt lat="43.63426" lon="1.40492">
        <ele>131</ele>
        <time>2025-04-12T09:55:08Z</time>
      </trkpt>
      <trkpt lat="43.63426" lon="1.40492">
        <ele>131</ele>
        <time>2025-04-12T09:55:09Z</time>
      </trkpt>
      <trkpt lat="43.63424" lon="1.40492">
        <ele>131</ele>
        <time>2025-04-12T09:55:10Z</time>
      </trkpt>
      <trkpt lat="43.63419" lon="1.40493">
        <ele>132</ele>
        <time>2025-04-12T09:55:11Z</time>
      </trkpt>
      <trkpt lat="43.63416" lon="1.40492">
        <ele>132</ele>
        <time>2025-04-12T09:55:12Z</time>
      </trkpt>
      <trkpt lat="43.63413" lon="1.40492">
        <ele>132</ele>
        <time>2025-04-12T09:55:13Z</time>
      </trkpt>
      <trkpt lat="43.63411" lon="1.40493">
        <ele>132</ele>
        <time>2025-04-12T09:55:14Z</time>
      </trkpt>
      <trkpt lat="43.63408" lon="1.40494">
        <ele>132</ele>
        <time>2025-04-12T09:55:15Z</time>
      </trkpt>
      <trkpt lat="43.63408" lon="1.40494">
        <ele>132</ele>
        <time>2025-04-12T09:55:16Z</time>
      </trkpt>
      <trkpt lat="43.63405" lon="1.40494">
        <ele>132</ele>
        <time>2025-04-12T09:55:17Z</time>
      </trkpt>
      <trkpt lat="43.63402" lon="1.40494">
        <ele>132</ele>
        <time>2025-04-12T09:55:18Z</time>
      </trkpt>
      <trkpt lat="43.63397" lon="1.40494">
        <ele>132</ele>
        <time>2025-04-12T09:55:19Z</time>
      </trkpt>
      <trkpt lat="43.63394" lon="1.40494">
        <ele>132</ele>
        <time>2025-04-12T09:55:20Z</time>
      </trkpt>
      <trkpt lat="43.63391" lon="1.40493">
        <ele>132</ele>
        <time>2025-04-12T09:55:21Z</time>
      </trkpt>
      <trkpt lat="43.63391" lon="1.40493">
        <ele>132</ele>
        <time>2025-04-12T09:55:22Z</time>
      </trkpt>
      <trkpt lat="43.63384" lon="1.40492">
        <ele>132</ele>
        <time>2025-04-12T09:55:23Z</time>
      </trkpt>
      <trkpt lat="43.63382" lon="1.40491">
        <ele>131</ele>
        <time>2025-04-12T09:55:24Z</time>
      </trkpt>
      <trkpt lat="43.63382" lon="1.40491">
        <ele>131</ele>
        <time>2025-04-12T09:55:25Z</time>
      </trkpt>
      <trkpt lat="43.63379" lon="1.4049">
        <ele>131</ele>
        <time>2025-04-12T09:55:26Z</time>
      </trkpt>
      <trkpt lat="43.63373" lon="1.40486">
        <ele>131</ele>
        <time>2025-04-12T09:55:27Z</time>
      </trkpt>
      <trkpt lat="43.6337" lon="1.40485">
        <ele>131</ele>
        <time>2025-04-12T09:55:28Z</time>
      </trkpt>
      <trkpt lat="43.6337" lon="1.40485">
        <ele>131</ele>
        <time>2025-04-12T09:55:29Z</time>
      </trkpt>
      <trkpt lat="43.63367" lon="1.40483">
        <ele>131</ele>
        <time>2025-04-12T09:55:30Z</time>
      </trkpt>
      <trkpt lat="43.63364" lon="1.40482">
        <ele>131</ele>
        <time>2025-04-12T09:55:31Z</time>
      </trkpt>
      <trkpt lat="43.63359" lon="1.4048">
        <ele>131</ele>
        <time>2025-04-12T09:55:32Z</time>
      </trkpt>
      <trkpt lat="43.63359" lon="1.4048">
        <ele>131</ele>
        <time>2025-04-12T09:55:33Z</time>
      </trkpt>
      <trkpt lat="43.63354" lon="1.4048">
        <ele>131</ele>
        <time>2025-04-12T09:55:34Z</time>
      </trkpt>
      <trkpt lat="43.63354" lon="1.4048">
        <ele>131</ele>
        <time>2025-04-12T09:55:35Z</time>
      </trkpt>
      <trkpt lat="43.63351" lon="1.40479">
        <ele>131</ele>
        <time>2025-04-12T09:55:36Z</time>
      </trkpt>
      <trkpt lat="43.63348" lon="1.40479">
        <ele>131</ele>
        <time>2025-04-12T09:55:37Z</time>
      </trkpt>
      <trkpt lat="43.63345" lon="1.40478">
        <ele>131</ele>
        <time>2025-04-12T09:55:38Z</time>
      </trkpt>
      <trkpt lat="43.63342" lon="1.40478">
        <ele>131</ele>
        <time>2025-04-12T09:55:39Z</time>
      </trkpt>
      <trkpt lat="43.63336" lon="1.40477">
        <ele>132</ele>
        <time>2025-04-12T09:55:40Z</time>
      </trkpt>
      <trkpt lat="43.63333" lon="1.40477">
        <ele>132</ele>
        <time>2025-04-12T09:55:41Z</time>
      </trkpt>
      <trkpt lat="43.63333" lon="1.40477">
        <ele>132</ele>
        <time>2025-04-12T09:55:42Z</time>
      </trkpt>
      <trkpt lat="43.63328" lon="1.40475">
        <ele>132</ele>
        <time>2025-04-12T09:55:43Z</time>
      </trkpt>
      <trkpt lat="43.63328" lon="1.40475">
        <ele>132</ele>
        <time>2025-04-12T09:55:44Z</time>
      </trkpt>
      <trkpt lat="43.63322" lon="1.40474">
        <ele>132</ele>
        <time>2025-04-12T09:55:45Z</time>
      </trkpt>
      <trkpt lat="43.6332" lon="1.40474">
        <ele>132</ele>
        <time>2025-04-12T09:55:46Z</time>
      </trkpt>
      <trkpt lat="43.63317" lon="1.40474">
        <ele>132</ele>
        <time>2025-04-12T09:55:47Z</time>
      </trkpt>
      <trkpt lat="43.63317" lon="1.40474">
        <ele>132</ele>
        <time>2025-04-12T09:55:48Z</time>
      </trkpt>
      <trkpt lat="43.63311" lon="1.40471">
        <ele>131</ele>
        <time>2025-04-12T09:55:49Z</time>
      </trkpt>
      <trkpt lat="43.63309" lon="1.4047">
        <ele>131</ele>
        <time>2025-04-12T09:55:50Z</time>
      </trkpt>
      <trkpt lat="43.63306" lon="1.40469">
        <ele>131</ele>
        <time>2025-04-12T09:55:51Z</time>
      </trkpt>
      <trkpt lat="43.63303" lon="1.40467">
        <ele>131</ele>
        <time>2025-04-12T09:55:52Z</time>
      </trkpt>
      <trkpt lat="43.63303" lon="1.40467">
        <ele>131</ele>
        <time>2025-04-12T09:55:53Z</time>
      </trkpt>
      <trkpt lat="43.63301" lon="1.40466">
        <ele>131</ele>
        <time>2025-04-12T09:55:54Z</time>
      </trkpt>
      <trkpt lat="43.63296" lon="1.40463">
        <ele>131</ele>
        <time>2025-04-12T09:55:55Z</time>
      </trkpt>
      <trkpt lat="43.63293" lon="1.40462">
        <ele>131</ele>
        <time>2025-04-12T09:55:56Z</time>
      </trkpt>
      <trkpt lat="43.63293" lon="1.40462">
        <ele>132</ele>
        <time>2025-04-12T09:55:57Z</time>
      </trkpt>
      <trkpt lat="43.6329" lon="1.4046">
        <ele>132</ele>
        <time>2025-04-12T09:55:58Z</time>
      </trkpt>
      <trkpt lat="43.63288" lon="1.40459">
        <ele>132</ele>
        <time>2025-04-12T09:55:59Z</time>
      </trkpt>
      <trkpt lat="43.63286" lon="1.40457">
        <ele>132</ele>
        <time>2025-04-12T09:56:00Z</time>
      </trkpt>
      <trkpt lat="43.6328" lon="1.40455">
        <ele>132</ele>
        <time>2025-04-12T09:56:01Z</time>
      </trkpt>
      <trkpt lat="43.63277" lon="1.40454">
        <ele>132</ele>
        <time>2025-04-12T09:56:02Z</time>
      </trkpt>
      <trkpt lat="43.63274" lon="1.40453">
        <ele>132</ele>
        <time>2025-04-12T09:56:03Z</time>
      </trkpt>
      <trkpt lat="43.63274" lon="1.40453">
        <ele>132</ele>
        <time>2025-04-12T09:56:04Z</time>
      </trkpt>
      <trkpt lat="43.63269" lon="1.4045">
        <ele>132</ele>
        <time>2025-04-12T09:56:05Z</time>
      </trkpt>
      <trkpt lat="43.63269" lon="1.4045">
        <ele>132</ele>
        <time>2025-04-12T09:56:06Z</time>
      </trkpt>
      <trkpt lat="43.63263" lon="1.40449">
        <ele>132</ele>
        <time>2025-04-12T09:56:07Z</time>
      </trkpt>
      <trkpt lat="43.63263" lon="1.40449">
        <ele>132</ele>
        <time>2025-04-12T09:56:08Z</time>
      </trkpt>
      <trkpt lat="43.6326" lon="1.40449">
        <ele>132</ele>
        <time>2025-04-12T09:56:09Z</time>
      </trkpt>
      <trkpt lat="43.63257" lon="1.40449">
        <ele>132</ele>
        <time>2025-04-12T09:56:10Z</time>
      </trkpt>
      <trkpt lat="43.63254" lon="1.40448">
        <ele>132</ele>
        <time>2025-04-12T09:56:11Z</time>
      </trkpt>
      <trkpt lat="43.63249" lon="1.40447">
        <ele>132</ele>
        <time>2025-04-12T09:56:12Z</time>
      </trkpt>
      <trkpt lat="43.63246" lon="1.40446">
        <ele>132</ele>
        <time>2025-04-12T09:56:13Z</time>
      </trkpt>
      <trkpt lat="43.63244" lon="1.40446">
        <ele>132</ele>
        <time>2025-04-12T09:56:14Z</time>
      </trkpt>
      <trkpt lat="43.63241" lon="1.40445">
        <ele>132</ele>
        <time>2025-04-12T09:56:15Z</time>
      </trkpt>
      <trkpt lat="43.63241" lon="1.40445">
        <ele>132</ele>
        <time>2025-04-12T09:56:16Z</time>
      </trkpt>
      <trkpt lat="43.63236" lon="1.40443">
        <ele>132</ele>
        <time>2025-04-12T09:56:17Z</time>
      </trkpt>
      <trkpt lat="43.63233" lon="1.40441">
        <ele>132</ele>
        <time>2025-04-12T09:56:18Z</time>
      </trkpt>
      <trkpt lat="43.63233" lon="1.40441">
        <ele>132</ele>
        <time>2025-04-12T09:56:19Z</time>
      </trkpt>
      <trkpt lat="43.6323" lon="1.4044">
        <ele>132</ele>
        <time>2025-04-12T09:56:20Z</time>
      </trkpt>
      <trkpt lat="43.63227" lon="1.40439">
        <ele>132</ele>
        <time>2025-04-12T09:56:21Z</time>
      </trkpt>
      <trkpt lat="43.63222" lon="1.40436">
        <ele>132</ele>
        <time>2025-04-12T09:56:22Z</time>
      </trkpt>
      <trkpt lat="43.63222" lon="1.40436">
        <ele>132</ele>
        <time>2025-04-12T09:56:23Z</time>
      </trkpt>
      <trkpt lat="43.63217" lon="1.40434">
        <ele>132</ele>
        <time>2025-04-12T09:56:24Z</time>
      </trkpt>
      <trkpt lat="43.63217" lon="1.40434">
        <ele>132</ele>
        <time>2025-04-12T09:56:25Z</time>
      </trkpt>
      <trkpt lat="43.63214" lon="1.40433">
        <ele>132</ele>
        <time>2025-04-12T09:56:26Z</time>
      </trkpt>
      <trkpt lat="43.63209" lon="1.4043">
        <ele>132</ele>
        <time>2025-04-12T09:56:27Z</time>
      </trkpt>
      <trkpt lat="43.63209" lon="1.4043">
        <ele>132</ele>
        <time>2025-04-12T09:56:28Z</time>
      </trkpt>
      <trkpt lat="43.63204" lon="1.40427">
        <ele>132</ele>
        <time>2025-04-12T09:56:29Z</time>
      </trkpt>
      <trkpt lat="43.63204" lon="1.40427">
        <ele>132</ele>
        <time>2025-04-12T09:56:30Z</time>
      </trkpt>
      <trkpt lat="43.63201" lon="1.40426">
        <ele>132</ele>
        <time>2025-04-12T09:56:31Z</time>
      </trkpt>
      <trkpt lat="43.63199" lon="1.40425">
        <ele>132</ele>
        <time>2025-04-12T09:56:32Z</time>
      </trkpt>
      <trkpt lat="43.63193" lon="1.40423">
        <ele>132</ele>
        <time>2025-04-12T09:56:33Z</time>
      </trkpt>
      <trkpt lat="43.6319" lon="1.40422">
        <ele>132</ele>
        <time>2025-04-12T09:56:34Z</time>
      </trkpt>
      <trkpt lat="43.63187" lon="1.40421">
        <ele>132</ele>
        <time>2025-04-12T09:56:35Z</time>
      </trkpt>
      <trkpt lat="43.63187" lon="1.40421">
        <ele>132</ele>
        <time>2025-04-12T09:56:36Z</time>
      </trkpt>
      <trkpt lat="43.63184" lon="1.40419">
        <ele>132</ele>
        <time>2025-04-12T09:56:37Z</time>
      </trkpt>
      <trkpt lat="43.63179" lon="1.40416">
        <ele>132</ele>
        <time>2025-04-12T09:56:38Z</time>
      </trkpt>
      <trkpt lat="43.63176" lon="1.40415">
        <ele>132</ele>
        <time>2025-04-12T09:56:39Z</time>
      </trkpt>
      <trkpt lat="43.63173" lon="1.40414">
        <ele>132</ele>
        <time>2025-04-12T09:56:40Z</time>
      </trkpt>
      <trkpt lat="43.6317" lon="1.40413">
        <ele>132</ele>
        <time>2025-04-12T09:56:41Z</time>
      </trkpt>
      <trkpt lat="43.6317" lon="1.40413">
        <ele>132</ele>
        <time>2025-04-12T09:56:42Z</time>
      </trkpt>
      <trkpt lat="43.63168" lon="1.40412">
        <ele>132</ele>
        <time>2025-04-12T09:56:43Z</time>
      </trkpt>
      <trkpt lat="43.63162" lon="1.4041">
        <ele>132</ele>
        <time>2025-04-12T09:56:44Z</time>
      </trkpt>
      <trkpt lat="43.63162" lon="1.4041">
        <ele>132</ele>
        <time>2025-04-12T09:56:45Z</time>
      </trkpt>
      <trkpt lat="43.63159" lon="1.4041">
        <ele>132</ele>
        <time>2025-04-12T09:56:46Z</time>
      </trkpt>
      <trkpt lat="43.63156" lon="1.40409">
        <ele>132</ele>
        <time>2025-04-12T09:56:47Z</time>
      </trkpt>
      <trkpt lat="43.63151" lon="1.40406">
        <ele>132</ele>
        <time>2025-04-12T09:56:48Z</time>
      </trkpt>
      <trkpt lat="43.63149" lon="1.40404">
        <ele>131</ele>
        <time>2025-04-12T09:56:50Z</time>
      </trkpt>
      <trkpt lat="43.63143" lon="1.40403">
        <ele>131</ele>
        <time>2025-04-12T09:56:51Z</time>
      </trkpt>
      <trkpt lat="43.63143" lon="1.40403">
        <ele>132</ele>
        <time>2025-04-12T09:56:52Z</time>
      </trkpt>
      <trkpt lat="43.63137" lon="1.404">
        <ele>132</ele>
        <time>2025-04-12T09:56:53Z</time>
      </trkpt>
      <trkpt lat="43.63135" lon="1.40398">
        <ele>131</ele>
        <time>2025-04-12T09:56:54Z</time>
      </trkpt>
      <trkpt lat="43.63132" lon="1.40397">
        <ele>131</ele>
        <time>2025-04-12T09:56:55Z</time>
      </trkpt>
      <trkpt lat="43.63129" lon="1.40395">
        <ele>132</ele>
        <time>2025-04-12T09:56:56Z</time>
      </trkpt>
      <trkpt lat="43.63129" lon="1.40395">
        <ele>132</ele>
        <time>2025-04-12T09:56:57Z</time>
      </trkpt>
      <trkpt lat="43.63124" lon="1.40392">
        <ele>132</ele>
        <time>2025-04-12T09:56:58Z</time>
      </trkpt>
      <trkpt lat="43.63124" lon="1.40392">
        <ele>132</ele>
        <time>2025-04-12T09:56:59Z</time>
      </trkpt>
      <trkpt lat="43.63119" lon="1.40389">
        <ele>132</ele>
        <time>2025-04-12T09:57:00Z</time>
      </trkpt>
      <trkpt lat="43.63119" lon="1.40389">
        <ele>132</ele>
        <time>2025-04-12T09:57:01Z</time>
      </trkpt>
      <trkpt lat="43.63113" lon="1.40388">
        <ele>132</ele>
        <time>2025-04-12T09:57:02Z</time>
      </trkpt>
      <trkpt lat="43.63111" lon="1.40388">
        <ele>131</ele>
        <time>2025-04-12T09:57:03Z</time>
      </trkpt>
      <trkpt lat="43.63111" lon="1.40388">
        <ele>131</ele>
        <time>2025-04-12T09:57:04Z</time>
      </trkpt>
      <trkpt lat="43.63105" lon="1.40387">
        <ele>132</ele>
        <time>2025-04-12T09:57:05Z</time>
      </trkpt>
      <trkpt lat="43.63105" lon="1.40387">
        <ele>132</ele>
        <time>2025-04-12T09:57:06Z</time>
      </trkpt>
      <trkpt lat="43.631" lon="1.40384">
        <ele>132</ele>
        <time>2025-04-12T09:57:07Z</time>
      </trkpt>
      <trkpt lat="43.63098" lon="1.40382">
        <ele>132</ele>
        <time>2025-04-12T09:57:08Z</time>
      </trkpt>
      <trkpt lat="43.63098" lon="1.40382">
        <ele>131</ele>
        <time>2025-04-12T09:57:09Z</time>
      </trkpt>
      <trkpt lat="43.63092" lon="1.40379">
        <ele>131</ele>
        <time>2025-04-12T09:57:10Z</time>
      </trkpt>
      <trkpt lat="43.63089" lon="1.40378">
        <ele>131</ele>
        <time>2025-04-12T09:57:11Z</time>
      </trkpt>
      <trkpt lat="43.63089" lon="1.40378">
        <ele>132</ele>
        <time>2025-04-12T09:57:12Z</time>
      </trkpt>
      <trkpt lat="43.63087" lon="1.40377">
        <ele>132</ele>
        <time>2025-04-12T09:57:13Z</time>
      </trkpt>
      <trkpt lat="43.63084" lon="1.40376">
        <ele>132</ele>
        <time>2025-04-12T09:57:14Z</time>
      </trkpt>
      <trkpt lat="43.63078" lon="1.40373">
        <ele>132</ele>
        <time>2025-04-12T09:57:15Z</time>
      </trkpt>
      <trkpt lat="43.63078" lon="1.40373">
        <ele>132</ele>
        <time>2025-04-12T09:57:16Z</time>
      </trkpt>
      <trkpt lat="43.63073" lon="1.4037">
        <ele>132</ele>
        <time>2025-04-12T09:57:17Z</time>
      </trkpt>
      <trkpt lat="43.63073" lon="1.4037">
        <ele>132</ele>
        <time>2025-04-12T09:57:18Z</time>
      </trkpt>
      <trkpt lat="43.6307" lon="1.40369">
        <ele>132</ele>
        <time>2025-04-12T09:57:19Z</time>
      </trkpt>
      <trkpt lat="43.63065" lon="1.40366">
        <ele>132</ele>
        <time>2025-04-12T09:57:20Z</time>
      </trkpt>
      <trkpt lat="43.63065" lon="1.40366">
        <ele>132</ele>
        <time>2025-04-12T09:57:21Z</time>
      </trkpt>
      <trkpt lat="43.63062" lon="1.40365">
        <ele>132</ele>
        <time>2025-04-12T09:57:22Z</time>
      </trkpt>
      <trkpt lat="43.6306" lon="1.40364">
        <ele>132</ele>
        <time>2025-04-12T09:57:23Z</time>
      </trkpt>
      <trkpt lat="43.63057" lon="1.40363">
        <ele>131</ele>
        <time>2025-04-12T09:57:24Z</time>
      </trkpt>
      <trkpt lat="43.63051" lon="1.40359">
        <ele>132</ele>
        <time>2025-04-12T09:57:25Z</time>
      </trkpt>
      <trkpt lat="43.63049" lon="1.40358">
        <ele>132</ele>
        <time>2025-04-12T09:57:26Z</time>
      </trkpt>
      <trkpt lat="43.63046" lon="1.40356">
        <ele>132</ele>
        <time>2025-04-12T09:57:27Z</time>
      </trkpt>
      <trkpt lat="43.63046" lon="1.40356">
        <ele>132</ele>
        <time>2025-04-12T09:57:28Z</time>
      </trkpt>
      <trkpt lat="43.63044" lon="1.40354">
        <ele>132</ele>
        <time>2025-04-12T09:57:29Z</time>
      </trkpt>
      <trkpt lat="43.63041" lon="1.40353">
        <ele>131</ele>
        <time>2025-04-12T09:57:30Z</time>
      </trkpt>
      <trkpt lat="43.63035" lon="1.4035">
        <ele>131</ele>
        <time>2025-04-12T09:57:31Z</time>
      </trkpt>
      <trkpt lat="43.63035" lon="1.4035">
        <ele>131</ele>
        <time>2025-04-12T09:57:32Z</time>
      </trkpt>
      <trkpt lat="43.63029" lon="1.40348">
        <ele>131</ele>
        <time>2025-04-12T09:57:33Z</time>
      </trkpt>
      <trkpt lat="43.63027" lon="1.40347">
        <ele>131</ele>
        <time>2025-04-12T09:57:34Z</time>
      </trkpt>
      <trkpt lat="43.63027" lon="1.40347">
        <ele>131</ele>
        <time>2025-04-12T09:57:35Z</time>
      </trkpt>
      <trkpt lat="43.63021" lon="1.40345">
        <ele>131</ele>
        <time>2025-04-12T09:57:36Z</time>
      </trkpt>
      <trkpt lat="43.63021" lon="1.40345">
        <ele>131</ele>
        <time>2025-04-12T09:57:37Z</time>
      </trkpt>
      <trkpt lat="43.63015" lon="1.40343">
        <ele>131</ele>
        <time>2025-04-12T09:57:38Z</time>
      </trkpt>
      <trkpt lat="43.63015" lon="1.40343">
        <ele>131</ele>
        <time>2025-04-12T09:57:39Z</time>
      </trkpt>
      <trkpt lat="43.6301" lon="1.40341">
        <ele>131</ele>
        <time>2025-04-12T09:57:40Z</time>
      </trkpt>
      <trkpt lat="43.63007" lon="1.4034">
        <ele>131</ele>
        <time>2025-04-12T09:57:41Z</time>
      </trkpt>
      <trkpt lat="43.63004" lon="1.4034">
        <ele>131</ele>
        <time>2025-04-12T09:57:42Z</time>
      </trkpt>
      <trkpt lat="43.63002" lon="1.40338">
        <ele>132</ele>
        <time>2025-04-12T09:57:43Z</time>
      </trkpt>
      <trkpt lat="43.63002" lon="1.40338">
        <ele>132</ele>
        <time>2025-04-12T09:57:44Z</time>
      </trkpt>
      <trkpt lat="43.62995" lon="1.40336">
        <ele>132</ele>
        <time>2025-04-12T09:57:45Z</time>
      </trkpt>
      <trkpt lat="43.62993" lon="1.40336">
        <ele>132</ele>
        <time>2025-04-12T09:57:46Z</time>
      </trkpt>
      <trkpt lat="43.62993" lon="1.40336">
        <ele>132</ele>
        <time>2025-04-12T09:57:47Z</time>
      </trkpt>
      <trkpt lat="43.6299" lon="1.40335">
        <ele>132</ele>
        <time>2025-04-12T09:57:48Z</time>
      </trkpt>
      <trkpt lat="43.62988" lon="1.40334">
        <ele>132</ele>
        <time>2025-04-12T09:57:49Z</time>
      </trkpt>
      <trkpt lat="43.62982" lon="1.40332">
        <ele>132</ele>
        <time>2025-04-12T09:57:50Z</time>
      </trkpt>
      <trkpt lat="43.62982" lon="1.40332">
        <ele>132</ele>
        <time>2025-04-12T09:57:51Z</time>
      </trkpt>
      <trkpt lat="43.62977" lon="1.40329">
        <ele>132</ele>
        <time>2025-04-12T09:57:52Z</time>
      </trkpt>
      <trkpt lat="43.62977" lon="1.40329">
        <ele>132</ele>
        <time>2025-04-12T09:57:53Z</time>
      </trkpt>
      <trkpt lat="43.62974" lon="1.40328">
        <ele>132</ele>
        <time>2025-04-12T09:57:54Z</time>
      </trkpt>
      <trkpt lat="43.62969" lon="1.40325">
        <ele>132</ele>
        <time>2025-04-12T09:57:55Z</time>
      </trkpt>
      <trkpt lat="43.62969" lon="1.40325">
        <ele>132</ele>
        <time>2025-04-12T09:57:56Z</time>
      </trkpt>
      <trkpt lat="43.62964" lon="1.40323">
        <ele>132</ele>
        <time>2025-04-12T09:57:57Z</time>
      </trkpt>
      <trkpt lat="43.62964" lon="1.40323">
        <ele>132</ele>
        <time>2025-04-12T09:57:58Z</time>
      </trkpt>
      <trkpt lat="43.62961" lon="1.40321">
        <ele>132</ele>
        <time>2025-04-12T09:57:59Z</time>
      </trkpt>
      <trkpt lat="43.6296" lon="1.4032">
        <ele>131</ele>
        <time>2025-04-12T09:58:00Z</time>
      </trkpt>
      <trkpt lat="43.62955" lon="1.40316">
        <ele>131</ele>
        <time>2025-04-12T09:58:01Z</time>
      </trkpt>
      <trkpt lat="43.62955" lon="1.40316">
        <ele>131</ele>
        <time>2025-04-12T09:58:02Z</time>
      </trkpt>
      <trkpt lat="43.62949" lon="1.40312">
        <ele>131</ele>
        <time>2025-04-12T09:58:03Z</time>
      </trkpt>
      <trkpt lat="43.62949" lon="1.40312">
        <ele>131</ele>
        <time>2025-04-12T09:58:04Z</time>
      </trkpt>
      <trkpt lat="43.62946" lon="1.40311">
        <ele>131</ele>
        <time>2025-04-12T09:58:05Z</time>
      </trkpt>
      <trkpt lat="43.62941" lon="1.40309">
        <ele>131</ele>
        <time>2025-04-12T09:58:06Z</time>
      </trkpt>
      <trkpt lat="43.62938" lon="1.40308">
        <ele>131</ele>
        <time>2025-04-12T09:58:07Z</time>
      </trkpt>
      <trkpt lat="43.62936" lon="1.40306">
        <ele>131</ele>
        <time>2025-04-12T09:58:08Z</time>
      </trkpt>
      <trkpt lat="43.62933" lon="1.40305">
        <ele>131</ele>
        <time>2025-04-12T09:58:09Z</time>
      </trkpt>
      <trkpt lat="43.62933" lon="1.40305">
        <ele>132</ele>
        <time>2025-04-12T09:58:10Z</time>
      </trkpt>
      <trkpt lat="43.62927" lon="1.40304">
        <ele>132</ele>
        <time>2025-04-12T09:58:11Z</time>
      </trkpt>
      <trkpt lat="43.62927" lon="1.40304">
        <ele>132</ele>
        <time>2025-04-12T09:58:12Z</time>
      </trkpt>
      <trkpt lat="43.62924" lon="1.40303">
        <ele>132</ele>
        <time>2025-04-12T09:58:13Z</time>
      </trkpt>
      <trkpt lat="43.62921" lon="1.40303">
        <ele>132</ele>
        <time>2025-04-12T09:58:14Z</time>
      </trkpt>
      <trkpt lat="43.62916" lon="1.40301">
        <ele>132</ele>
        <time>2025-04-12T09:58:15Z</time>
      </trkpt>
      <trkpt lat="43.62913" lon="1.40301">
        <ele>132</ele>
        <time>2025-04-12T09:58:16Z</time>
      </trkpt>
      <trkpt lat="43.6291" lon="1.403">
        <ele>132</ele>
        <time>2025-04-12T09:58:17Z</time>
      </trkpt>
      <trkpt lat="43.62907" lon="1.403">
        <ele>132</ele>
        <time>2025-04-12T09:58:18Z</time>
      </trkpt>
      <trkpt lat="43.62907" lon="1.403">
        <ele>132</ele>
        <time>2025-04-12T09:58:19Z</time>
      </trkpt>
      <trkpt lat="43.62904" lon="1.40299">
        <ele>132</ele>
        <time>2025-04-12T09:58:20Z</time>
      </trkpt>
      <trkpt lat="43.62902" lon="1.40298">
        <ele>132</ele>
        <time>2025-04-12T09:58:21Z</time>
      </trkpt>
      <trkpt lat="43.62899" lon="1.40297">
        <ele>132</ele>
        <time>2025-04-12T09:58:22Z</time>
      </trkpt>
      <trkpt lat="43.62893" lon="1.40295">
        <ele>132</ele>
        <time>2025-04-12T09:58:23Z</time>
      </trkpt>
      <trkpt lat="43.6289" lon="1.40294">
        <ele>132</ele>
        <time>2025-04-12T09:58:24Z</time>
      </trkpt>
      <trkpt lat="43.6289" lon="1.40294">
        <ele>132</ele>
        <time>2025-04-12T09:58:25Z</time>
      </trkpt>
      <trkpt lat="43.62885" lon="1.40292">
        <ele>132</ele>
        <time>2025-04-12T09:58:26Z</time>
      </trkpt>
      <trkpt lat="43.62885" lon="1.40292">
        <ele>132</ele>
        <time>2025-04-12T09:58:27Z</time>
      </trkpt>
      <trkpt lat="43.62879" lon="1.4029">
        <ele>132</ele>
        <time>2025-04-12T09:58:28Z</time>
      </trkpt>
      <trkpt lat="43.62879" lon="1.4029">
        <ele>132</ele>
        <time>2025-04-12T09:58:29Z</time>
      </trkpt>
      <trkpt lat="43.62874" lon="1.40289">
        <ele>132</ele>
        <time>2025-04-12T09:58:30Z</time>
      </trkpt>
      <trkpt lat="43.62874" lon="1.40289">
        <ele>132</ele>
        <time>2025-04-12T09:58:31Z</time>
      </trkpt>
      <trkpt lat="43.62868" lon="1.40287">
        <ele>132</ele>
        <time>2025-04-12T09:58:32Z</time>
      </trkpt>
      <trkpt lat="43.62868" lon="1.40287">
        <ele>132</ele>
        <time>2025-04-12T09:58:33Z</time>
      </trkpt>
      <trkpt lat="43.62866" lon="1.40287">
        <ele>132</ele>
        <time>2025-04-12T09:58:34Z</time>
      </trkpt>
      <trkpt lat="43.62863" lon="1.40286">
        <ele>132</ele>
        <time>2025-04-12T09:58:35Z</time>
      </trkpt>
      <trkpt lat="43.62857" lon="1.40283">
        <ele>132</ele>
        <time>2025-04-12T09:58:36Z</time>
      </trkpt>
      <trkpt lat="43.62852" lon="1.40281">
        <ele>132</ele>
        <time>2025-04-12T09:58:38Z</time>
      </trkpt>
      <trkpt lat="43.6285" lon="1.40279">
        <ele>132</ele>
        <time>2025-04-12T09:58:39Z</time>
      </trkpt>
      <trkpt lat="43.6285" lon="1.40279">
        <ele>132</ele>
        <time>2025-04-12T09:58:40Z</time>
      </trkpt>
      <trkpt lat="43.62845" lon="1.40277">
        <ele>132</ele>
        <time>2025-04-12T09:58:41Z</time>
      </trkpt>
      <trkpt lat="43.62845" lon="1.40277">
        <ele>133</ele>
        <time>2025-04-12T09:58:42Z</time>
      </trkpt>
      <trkpt lat="43.62839" lon="1.40276">
        <ele>133</ele>
        <time>2025-04-12T09:58:43Z</time>
      </trkpt>
      <trkpt lat="43.62839" lon="1.40276">
        <ele>133</ele>
        <time>2025-04-12T09:58:44Z</time>
      </trkpt>
      <trkpt lat="43.62834" lon="1.40274">
        <ele>133</ele>
        <time>2025-04-12T09:58:45Z</time>
      </trkpt>
      <trkpt lat="43.62831" lon="1.40273">
        <ele>133</ele>
        <time>2025-04-12T09:58:46Z</time>
      </trkpt>
      <trkpt lat="43.62831" lon="1.40273">
        <ele>132</ele>
        <time>2025-04-12T09:58:47Z</time>
      </trkpt>
      <trkpt lat="43.62826" lon="1.40272">
        <ele>132</ele>
        <time>2025-04-12T09:58:48Z</time>
      </trkpt>
      <trkpt lat="43.62826" lon="1.40272">
        <ele>132</ele>
        <time>2025-04-12T09:58:49Z</time>
      </trkpt>
      <trkpt lat="43.62823" lon="1.40271">
        <ele>132</ele>
        <time>2025-04-12T09:58:50Z</time>
      </trkpt>
      <trkpt lat="43.6282" lon="1.4027">
        <ele>132</ele>
        <time>2025-04-12T09:58:51Z</time>
      </trkpt>
      <trkpt lat="43.62817" lon="1.4027">
        <ele>132</ele>
        <time>2025-04-12T09:58:52Z</time>
      </trkpt>
      <trkpt lat="43.62812" lon="1.40268">
        <ele>132</ele>
        <time>2025-04-12T09:58:53Z</time>
      </trkpt>
      <trkpt lat="43.62809" lon="1.40267">
        <ele>132</ele>
        <time>2025-04-12T09:58:54Z</time>
      </trkpt>
      <trkpt lat="43.62809" lon="1.40267">
        <ele>132</ele>
        <time>2025-04-12T09:58:55Z</time>
      </trkpt>
      <trkpt lat="43.62806" lon="1.40267">
        <ele>132</ele>
        <time>2025-04-12T09:58:56Z</time>
      </trkpt>
      <trkpt lat="43.628" lon="1.40265">
        <ele>132</ele>
        <time>2025-04-12T09:58:57Z</time>
      </trkpt>
      <trkpt lat="43.628" lon="1.40265">
        <ele>132</ele>
        <time>2025-04-12T09:58:58Z</time>
      </trkpt>
      <trkpt lat="43.62794" lon="1.40264">
        <ele>132</ele>
        <time>2025-04-12T09:58:59Z</time>
      </trkpt>
      <trkpt lat="43.62792" lon="1.40263">
        <ele>132</ele>
        <time>2025-04-12T09:59:00Z</time>
      </trkpt>
      <trkpt lat="43.62789" lon="1.40262">
        <ele>132</ele>
        <time>2025-04-12T09:59:01Z</time>
      </trkpt>
      <trkpt lat="43.62786" lon="1.40261">
        <ele>132</ele>
        <time>2025-04-12T09:59:02Z</time>
      </trkpt>
      <trkpt lat="43.62786" lon="1.40261">
        <ele>132</ele>
        <time>2025-04-12T09:59:03Z</time>
      </trkpt>
      <trkpt lat="43.6278" lon="1.4026">
        <ele>132</ele>
        <time>2025-04-12T09:59:04Z</time>
      </trkpt>
      <trkpt lat="43.6278" lon="1.4026">
        <ele>132</ele>
        <time>2025-04-12T09:59:05Z</time>
      </trkpt>
      <trkpt lat="43.62775" lon="1.40259">
        <ele>132</ele>
        <time>2025-04-12T09:59:06Z</time>
      </trkpt>
      <trkpt lat="43.62773" lon="1.40258">
        <ele>132</ele>
        <time>2025-04-12T09:59:07Z</time>
      </trkpt>
      <trkpt lat="43.6277" lon="1.40257">
        <ele>132</ele>
        <time>2025-04-12T09:59:08Z</time>
      </trkpt>
      <trkpt lat="43.62767" lon="1.40257">
        <ele>132</ele>
        <time>2025-04-12T09:59:09Z</time>
      </trkpt>
      <trkpt lat="43.62765" lon="1.40256">
        <ele>132</ele>
        <time>2025-04-12T09:59:10Z</time>
      </trkpt>
      <trkpt lat="43.62762" lon="1.40256">
        <ele>132</ele>
        <time>2025-04-12T09:59:11Z</time>
      </trkpt>
      <trkpt lat="43.62759" lon="1.40256">
        <ele>132</ele>
        <time>2025-04-12T09:59:12Z</time>
      </trkpt>
      <trkpt lat="43.62759" lon="1.40256">
        <ele>132</ele>
        <time>2025-04-12T09:59:13Z</time>
      </trkpt>
      <trkpt lat="43.62756" lon="1.40255">
        <ele>132</ele>
        <time>2025-04-12T09:59:14Z</time>
      </trkpt>
      <trkpt lat="43.62753" lon="1.40254">
        <ele>132</ele>
        <time>2025-04-12T09:59:15Z</time>
      </trkpt>
      <trkpt lat="43.62751" lon="1.40253">
        <ele>132</ele>
        <time>2025-04-12T09:59:16Z</time>
      </trkpt>
      <trkpt lat="43.62748" lon="1.40253">
        <ele>132</ele>
        <time>2025-04-12T09:59:17Z</time>
      </trkpt>
      <trkpt lat="43.62745" lon="1.40252">
        <ele>132</ele>
        <time>2025-04-12T09:59:18Z</time>
      </trkpt>
      <trkpt lat="43.62743" lon="1.40251">
        <ele>132</ele>
        <time>2025-04-12T09:59:19Z</time>
      </trkpt>
      <trkpt lat="43.62737" lon="1.4025">
        <ele>132</ele>
        <time>2025-04-12T09:59:20Z</time>
      </trkpt>
      <trkpt lat="43.62734" lon="1.40249">
        <ele>132</ele>
        <time>2025-04-12T09:59:21Z</time>
      </trkpt>
      <trkpt lat="43.62734" lon="1.40249">
        <ele>132</ele>
        <time>2025-04-12T09:59:22Z</time>
      </trkpt>
      <trkpt lat="43.62728" lon="1.40249">
        <ele>132</ele>
        <time>2025-04-12T09:59:23Z</time>
      </trkpt>
      <trkpt lat="43.62728" lon="1.40249">
        <ele>132</ele>
        <time>2025-04-12T09:59:24Z</time>
      </trkpt>
      <trkpt lat="43.62722" lon="1.40248">
        <ele>132</ele>
        <time>2025-04-12T09:59:25Z</time>
      </trkpt>
      <trkpt lat="43.62722" lon="1.40248">
        <ele>132</ele>
        <time>2025-04-12T09:59:26Z</time>
      </trkpt>
      <trkpt lat="43.62717" lon="1.40247">
        <ele>132</ele>
        <time>2025-04-12T09:59:27Z</time>
      </trkpt>
      <trkpt lat="43.62714" lon="1.40246">
        <ele>132</ele>
        <time>2025-04-12T09:59:29Z</time>
      </trkpt>
      <trkpt lat="43.62712" lon="1.40245">
        <ele>132</ele>
        <time>2025-04-12T09:59:30Z</time>
      </trkpt>
      <trkpt lat="43.62709" lon="1.40245">
        <ele>132</ele>
        <time>2025-04-12T09:59:31Z</time>
      </trkpt>
      <trkpt lat="43.62704" lon="1.40244">
        <ele>132</ele>
        <time>2025-04-12T09:59:32Z</time>
      </trkpt>
      <trkpt lat="43.62701" lon="1.40243">
        <ele>132</ele>
        <time>2025-04-12T09:59:33Z</time>
      </trkpt>
      <trkpt lat="43.62698" lon="1.40242">
        <ele>132</ele>
        <time>2025-04-12T09:59:34Z</time>
      </trkpt>
      <trkpt lat="43.62698" lon="1.40242">
        <ele>132</ele>
        <time>2025-04-12T09:59:35Z</time>
      </trkpt>
      <trkpt lat="43.62696" lon="1.40241">
        <ele>132</ele>
        <time>2025-04-12T09:59:36Z</time>
      </trkpt>
      <trkpt lat="43.62691" lon="1.4024">
        <ele>132</ele>
        <time>2025-04-12T09:59:37Z</time>
      </trkpt>
      <trkpt lat="43.62688" lon="1.4024">
        <ele>132</ele>
        <time>2025-04-12T09:59:38Z</time>
      </trkpt>
      <trkpt lat="43.62685" lon="1.4024">
        <ele>132</ele>
        <time>2025-04-12T09:59:39Z</time>
      </trkpt>
      <trkpt lat="43.62682" lon="1.40239">
        <ele>132</ele>
        <time>2025-04-12T09:59:40Z</time>
      </trkpt>
      <trkpt lat="43.62682" lon="1.40239">
        <ele>132</ele>
        <time>2025-04-12T09:59:41Z</time>
      </trkpt>
      <trkpt lat="43.62677" lon="1.40238">
        <ele>132</ele>
        <time>2025-04-12T09:59:42Z</time>
      </trkpt>
      <trkpt lat="43.62677" lon="1.40238">
        <ele>132</ele>
        <time>2025-04-12T09:59:43Z</time>
      </trkpt>
      <trkpt lat="43.62674" lon="1.40237">
        <ele>132</ele>
        <time>2025-04-12T09:59:44Z</time>
      </trkpt>
      <trkpt lat="43.62672" lon="1.40237">
        <ele>133</ele>
        <time>2025-04-12T09:59:45Z</time>
      </trkpt>
      <trkpt lat="43.62666" lon="1.40235">
        <ele>133</ele>
        <time>2025-04-12T09:59:46Z</time>
      </trkpt>
      <trkpt lat="43.62663" lon="1.40235">
        <ele>132</ele>
        <time>2025-04-12T09:59:47Z</time>
      </trkpt>
      <trkpt lat="43.6266" lon="1.40234">
        <ele>132</ele>
        <time>2025-04-12T09:59:48Z</time>
      </trkpt>
      <trkpt lat="43.6266" lon="1.40234">
        <ele>132</ele>
        <time>2025-04-12T09:59:49Z</time>
      </trkpt>
      <trkpt lat="43.62654" lon="1.40233">
        <ele>132</ele>
        <time>2025-04-12T09:59:50Z</time>
      </trkpt>
      <trkpt lat="43.62654" lon="1.40233">
        <ele>131</ele>
        <time>2025-04-12T09:59:51Z</time>
      </trkpt>
      <trkpt lat="43.62648" lon="1.40232">
        <ele>131</ele>
        <time>2025-04-12T09:59:52Z</time>
      </trkpt>
      <trkpt lat="43.62642" lon="1.40231">
        <ele>131</ele>
        <time>2025-04-12T09:59:54Z</time>
      </trkpt>
      <trkpt lat="43.6264" lon="1.4023">
        <ele>131</ele>
        <time>2025-04-12T09:59:55Z</time>
      </trkpt>
      <trkpt lat="43.62637" lon="1.4023">
        <ele>131</ele>
        <time>2025-04-12T09:59:56Z</time>
      </trkpt>
      <trkpt lat="43.62633" lon="1.4023">
        <ele>131</ele>
        <time>2025-04-12T09:59:57Z</time>
      </trkpt>
      <trkpt lat="43.62633" lon="1.4023">
        <ele>131</ele>
        <time>2025-04-12T09:59:58Z</time>
      </trkpt>
      <trkpt lat="43.62627" lon="1.4023">
        <ele>131</ele>
        <time>2025-04-12T09:59:59Z</time>
      </trkpt>
      <trkpt lat="43.62627" lon="1.4023">
        <ele>131</ele>
        <time>2025-04-12T10:00:00Z</time>
      </trkpt>
      <trkpt lat="43.62622" lon="1.40229">
        <ele>131</ele>
        <time>2025-04-12T10:00:01Z</time>
      </trkpt>
      <trkpt lat="43.62619" lon="1.40229">
        <ele>131</ele>
        <time>2025-04-12T10:00:02Z</time>
      </trkpt>
      <trkpt lat="43.62619" lon="1.40229">
        <ele>132</ele>
        <time>2025-04-12T10:00:03Z</time>
      </trkpt>
      <trkpt lat="43.62614" lon="1.40228">
        <ele>132</ele>
        <time>2025-04-12T10:00:04Z</time>
      </trkpt>
      <trkpt lat="43.62611" lon="1.40227">
        <ele>132</ele>
        <time>2025-04-12T10:00:05Z</time>
      </trkpt>
      <trkpt lat="43.62609" lon="1.40227">
        <ele>132</ele>
        <time>2025-04-12T10:00:06Z</time>
      </trkpt>
      <trkpt lat="43.62609" lon="1.40227">
        <ele>132</ele>
        <time>2025-04-12T10:00:07Z</time>
      </trkpt>
      <trkpt lat="43.62606" lon="1.40227">
        <ele>132</ele>
        <time>2025-04-12T10:00:08Z</time>
      </trkpt>
      <trkpt lat="43.62603" lon="1.40226">
        <ele>132</ele>
        <time>2025-04-12T10:00:09Z</time>
      </trkpt>
      <trkpt lat="43.62601" lon="1.40226">
        <ele>132</ele>
        <time>2025-04-12T10:00:10Z</time>
      </trkpt>
      <trkpt lat="43.62595" lon="1.40225">
        <ele>132</ele>
        <time>2025-04-12T10:00:11Z</time>
      </trkpt>
      <trkpt lat="43.6259" lon="1.40224">
        <ele>132</ele>
        <time>2025-04-12T10:00:13Z</time>
      </trkpt>
      <trkpt lat="43.6259" lon="1.40224">
        <ele>132</ele>
        <time>2025-04-12T10:00:14Z</time>
      </trkpt>
      <trkpt lat="43.62584" lon="1.40223">
        <ele>133</ele>
        <time>2025-04-12T10:00:15Z</time>
      </trkpt>
      <trkpt lat="43.62581" lon="1.40223">
        <ele>133</ele>
        <time>2025-04-12T10:00:16Z</time>
      </trkpt>
      <trkpt lat="43.62581" lon="1.40223">
        <ele>133</ele>
        <time>2025-04-12T10:00:17Z</time>
      </trkpt>
      <trkpt lat="43.62579" lon="1.40223">
        <ele>133</ele>
        <time>2025-04-12T10:00:18Z</time>
      </trkpt>
      <trkpt lat="43.62577" lon="1.40223">
        <ele>133</ele>
        <time>2025-04-12T10:00:19Z</time>
      </trkpt>
      <trkpt lat="43.62572" lon="1.40223">
        <ele>133</ele>
        <time>2025-04-12T10:00:20Z</time>
      </trkpt>
      <trkpt lat="43.62569" lon="1.40222">
        <ele>133</ele>
        <time>2025-04-12T10:00:21Z</time>
      </trkpt>
      <trkpt lat="43.62569" lon="1.40222">
        <ele>133</ele>
        <time>2025-04-12T10:00:22Z</time>
      </trkpt>
      <trkpt lat="43.62563" lon="1.40221">
        <ele>133</ele>
        <time>2025-04-12T10:00:23Z</time>
      </trkpt>
      <trkpt lat="43.62561" lon="1.4022">
        <ele>133</ele>
        <time>2025-04-12T10:00:24Z</time>
      </trkpt>
      <trkpt lat="43.62558" lon="1.4022">
        <ele>133</ele>
        <time>2025-04-12T10:00:25Z</time>
      </trkpt>
      <trkpt lat="43.62558" lon="1.4022">
        <ele>133</ele>
        <time>2025-04-12T10:00:26Z</time>
      </trkpt>
      <trkpt lat="43.62556" lon="1.40219">
        <ele>133</ele>
        <time>2025-04-12T10:00:27Z</time>
      </trkpt>
      <trkpt lat="43.62551" lon="1.40219">
        <ele>133</ele>
        <time>2025-04-12T10:00:28Z</time>
      </trkpt>
      <trkpt lat="43.62551" lon="1.40219">
        <ele>133</ele>
        <time>2025-04-12T10:00:29Z</time>
      </trkpt>
      <trkpt lat="43.62547" lon="1.4022">
        <ele>133</ele>
        <time>2025-04-12T10:00:30Z</time>
      </trkpt>
      <trkpt lat="43.62543" lon="1.40222">
        <ele>133</ele>
        <time>2025-04-12T10:00:32Z</time>
      </trkpt>
      <trkpt lat="43.62541" lon="1.40223">
        <ele>133</ele>
        <time>2025-04-12T10:00:33Z</time>
      </trkpt>
      <trkpt lat="43.62541" lon="1.40223">
        <ele>133</ele>
        <time>2025-04-12T10:00:34Z</time>
      </trkpt>
      <trkpt lat="43.62538" lon="1.40225">
        <ele>133</ele>
        <time>2025-04-12T10:00:35Z</time>
      </trkpt>
      <trkpt lat="43.62538" lon="1.40225">
        <ele>133</ele>
        <time>2025-04-12T10:00:36Z</time>
      </trkpt>
      <trkpt lat="43.62538" lon="1.40225">
        <ele>133</ele>
        <time>2025-04-12T10:00:37Z</time>
      </trkpt>
      <trkpt lat="43.62535" lon="1.40228">
        <ele>133</ele>
        <time>2025-04-12T10:00:38Z</time>
      </trkpt>
      <trkpt lat="43.62532" lon="1.40229">
        <ele>133</ele>
        <time>2025-04-12T10:00:39Z</time>
      </trkpt>
      <trkpt lat="43.62532" lon="1.40229">
        <ele>133</ele>
        <time>2025-04-12T10:00:40Z</time>
      </trkpt>
      <trkpt lat="43.62529" lon="1.40231">
        <ele>133</ele>
        <time>2025-04-12T10:00:41Z</time>
      </trkpt>
      <trkpt lat="43.62529" lon="1.40231">
        <ele>133</ele>
        <time>2025-04-12T10:00:42Z</time>
      </trkpt>
      <trkpt lat="43.62529" lon="1.40231">
        <ele>133</ele>
        <time>2025-04-12T10:00:43Z</time>
      </trkpt>
      <trkpt lat="43.62527" lon="1.40233">
        <ele>133</ele>
        <time>2025-04-12T10:00:44Z</time>
      </trkpt>
      <trkpt lat="43.62527" lon="1.40233">
        <ele>133</ele>
        <time>2025-04-12T10:00:45Z</time>
      </trkpt>
      <trkpt lat="43.62524" lon="1.40235">
        <ele>133</ele>
        <time>2025-04-12T10:00:46Z</time>
      </trkpt>
      <trkpt lat="43.62522" lon="1.40237">
        <ele>133</ele>
        <time>2025-04-12T10:00:47Z</time>
      </trkpt>
      <trkpt lat="43.6252" lon="1.40238">
        <ele>133</ele>
        <time>2025-04-12T10:00:48Z</time>
      </trkpt>
      <trkpt lat="43.62518" lon="1.40239">
        <ele>133</ele>
        <time>2025-04-12T10:00:49Z</time>
      </trkpt>
      <trkpt lat="43.62515" lon="1.4024">
        <ele>133</ele>
        <time>2025-04-12T10:00:51Z</time>
      </trkpt>
      <trkpt lat="43.62515" lon="1.4024">
        <ele>133</ele>
        <time>2025-04-12T10:00:52Z</time>
      </trkpt>
      <trkpt lat="43.62515" lon="1.4024">
        <ele>133</ele>
        <time>2025-04-12T10:00:53Z</time>
      </trkpt>
      <trkpt lat="43.62512" lon="1.40241">
        <ele>133</ele>
        <time>2025-04-12T10:00:54Z</time>
      </trkpt>
      <trkpt lat="43.62512" lon="1.40241">
        <ele>133</ele>
        <time>2025-04-12T10:00:55Z</time>
      </trkpt>
      <trkpt lat="43.62509" lon="1.4024">
        <ele>133</ele>
        <time>2025-04-12T10:00:56Z</time>
      </trkpt>
      <trkpt lat="43.62505" lon="1.4024">
        <ele>134</ele>
        <time>2025-04-12T10:00:57Z</time>
      </trkpt>
      <trkpt lat="43.62505" lon="1.4024">
        <ele>135</ele>
        <time>2025-04-12T10:00:58Z</time>
      </trkpt>
      <trkpt lat="43.62503" lon="1.40239">
        <ele>135</ele>
        <time>2025-04-12T10:00:59Z</time>
      </trkpt>
      <trkpt lat="43.62503" lon="1.40239">
        <ele>134</ele>
        <time>2025-04-12T10:01:00Z</time>
      </trkpt>
      <trkpt lat="43.62501" lon="1.40239">
        <ele>134</ele>
        <time>2025-04-12T10:01:01Z</time>
      </trkpt>
      <trkpt lat="43.62501" lon="1.40239">
        <ele>134</ele>
        <time>2025-04-12T10:01:02Z</time>
      </trkpt>
      <trkpt lat="43.62497" lon="1.40239">
        <ele>134</ele>
        <time>2025-04-12T10:01:03Z</time>
      </trkpt>
      <trkpt lat="43.62494" lon="1.4024">
        <ele>134</ele>
        <time>2025-04-12T10:01:04Z</time>
      </trkpt>
      <trkpt lat="43.62494" lon="1.4024">
        <ele>134</ele>
        <time>2025-04-12T10:01:05Z</time>
      </trkpt>
      <trkpt lat="43.62492" lon="1.40241">
        <ele>134</ele>
        <time>2025-04-12T10:01:06Z</time>
      </trkpt>
      <trkpt lat="43.62492" lon="1.40241">
        <ele>134</ele>
        <time>2025-04-12T10:01:07Z</time>
      </trkpt>
      <trkpt lat="43.62492" lon="1.40241">
        <ele>134</ele>
        <time>2025-04-12T10:01:08Z</time>
      </trkpt>
      <trkpt lat="43.62489" lon="1.40243">
        <ele>134</ele>
        <time>2025-04-12T10:01:09Z</time>
      </trkpt>
      <trkpt lat="43.62487" lon="1.40245">
        <ele>134</ele>
        <time>2025-04-12T10:01:10Z</time>
      </trkpt>
      <trkpt lat="43.62487" lon="1.40245">
        <ele>134</ele>
        <time>2025-04-12T10:01:11Z</time>
      </trkpt>
      <trkpt lat="43.62485" lon="1.40246">
        <ele>134</ele>
        <time>2025-04-12T10:01:12Z</time>
      </trkpt>
      <trkpt lat="43.62485" lon="1.40246">
        <ele>135</ele>
        <time>2025-04-12T10:01:13Z</time>
      </trkpt>
      <trkpt lat="43.62483" lon="1.40246">
        <ele>135</ele>
        <time>2025-04-12T10:01:14Z</time>
      </trkpt>
      <trkpt lat="43.62483" lon="1.40246">
        <ele>135</ele>
        <time>2025-04-12T10:01:15Z</time>
      </trkpt>
      <trkpt lat="43.6248" lon="1.40245">
        <ele>135</ele>
        <time>2025-04-12T10:01:16Z</time>
      </trkpt>
      <trkpt lat="43.6248" lon="1.40245">
        <ele>135</ele>
        <time>2025-04-12T10:01:17Z</time>
      </trkpt>
      <trkpt lat="43.6248" lon="1.40245">
        <ele>135</ele>
        <time>2025-04-12T10:01:18Z</time>
      </trkpt>
      <trkpt lat="43.62478" lon="1.40244">
        <ele>135</ele>
        <time>2025-04-12T10:01:19Z</time>
      </trkpt>
      <trkpt lat="43.62478" lon="1.40244">
        <ele>135</ele>
        <time>2025-04-12T10:01:20Z</time>
      </trkpt>
      <trkpt lat="43.62475" lon="1.40243">
        <ele>136</ele>
        <time>2025-04-12T10:01:21Z</time>
      </trkpt>
      <trkpt lat="43.62473" lon="1.40243">
        <ele>136</ele>
        <time>2025-04-12T10:01:22Z</time>
      </trkpt>
      <trkpt lat="43.62473" lon="1.40243">
        <ele>136</ele>
        <time>2025-04-12T10:01:23Z</time>
      </trkpt>
      <trkpt lat="43.62471" lon="1.40245">
        <ele>136</ele>
        <time>2025-04-12T10:01:24Z</time>
      </trkpt>
      <trkpt lat="43.62471" lon="1.40245">
        <ele>136</ele>
        <time>2025-04-12T10:01:25Z</time>
      </trkpt>
      <trkpt lat="43.62471" lon="1.40245">
        <ele>136</ele>
        <time>2025-04-12T10:01:26Z</time>
      </trkpt>
      <trkpt lat="43.62469" lon="1.40248">
        <ele>136</ele>
        <time>2025-04-12T10:01:27Z</time>
      </trkpt>
      <trkpt lat="43.62469" lon="1.40248">
        <ele>136</ele>
        <time>2025-04-12T10:01:28Z</time>
      </trkpt>
      <trkpt lat="43.62468" lon="1.40251">
        <ele>136</ele>
        <time>2025-04-12T10:01:29Z</time>
      </trkpt>
      <trkpt lat="43.62468" lon="1.40251">
        <ele>136</ele>
        <time>2025-04-12T10:01:30Z</time>
      </trkpt>
      <trkpt lat="43.62467" lon="1.40254">
        <ele>137</ele>
        <time>2025-04-12T10:01:31Z</time>
      </trkpt>
      <trkpt lat="43.62467" lon="1.40254">
        <ele>137</ele>
        <time>2025-04-12T10:01:32Z</time>
      </trkpt>
      <trkpt lat="43.62467" lon="1.40254">
        <ele>137</ele>
        <time>2025-04-12T10:01:33Z</time>
      </trkpt>
      <trkpt lat="43.62467" lon="1.40254">
        <ele>137</ele>
        <time>2025-04-12T10:01:34Z</time>
      </trkpt>
      <trkpt lat="43.62467" lon="1.40254">
        <ele>137</ele>
        <time>2025-04-12T10:01:35Z</time>
      </trkpt>
      <trkpt lat="43.62465" lon="1.40251">
        <ele>137</ele>
        <time>2025-04-12T10:01:36Z</time>
      </trkpt>
      <trkpt lat="43.62465" lon="1.40251">
        <ele>137</ele>
        <time>2025-04-12T10:01:37Z</time>
      </trkpt>
      <trkpt lat="43.62465" lon="1.40248">
        <ele>137</ele>
        <time>2025-04-12T10:01:38Z</time>
      </trkpt>
      <trkpt lat="43.62465" lon="1.40248">
        <ele>138</ele>
        <time>2025-04-12T10:01:39Z</time>
      </trkpt>
      <trkpt lat="43.62465" lon="1.40243">
        <ele>138</ele>
        <time>2025-04-12T10:01:40Z</time>
      </trkpt>
      <trkpt lat="43.62465" lon="1.40239">
        <ele>138</ele>
        <time>2025-04-12T10:01:41Z</time>
      </trkpt>
      <trkpt lat="43.62465" lon="1.40239">
        <ele>138</ele>
        <time>2025-04-12T10:01:42Z</time>
      </trkpt>
      <trkpt lat="43.62466" lon="1.40235">
        <ele>138</ele>
        <time>2025-04-12T10:01:43Z</time>
      </trkpt>
      <trkpt lat="43.62466" lon="1.40235">
        <ele>138</ele>
        <time>2025-04-12T10:01:44Z</time>
      </trkpt>
      <trkpt lat="43.62466" lon="1.40231">
        <ele>138</ele>
        <time>2025-04-12T10:01:45Z</time>
      </trkpt>
      <trkpt lat="43.62466" lon="1.40231">
        <ele>139</ele>
        <time>2025-04-12T10:01:46Z</time>
      </trkpt>
      <trkpt lat="43.62466" lon="1.40227">
        <ele>139</ele>
        <time>2025-04-12T10:01:47Z</time>
      </trkpt>
      <trkpt lat="43.62466" lon="1.40227">
        <ele>139</ele>
        <time>2025-04-12T10:01:48Z</time>
      </trkpt>
      <trkpt lat="43.62466" lon="1.40227">
        <ele>139</ele>
        <time>2025-04-12T10:01:49Z</time>
      </trkpt>
      <trkpt lat="43.62466" lon="1.40223">
        <ele>139</ele>
        <time>2025-04-12T10:01:50Z</time>
      </trkpt>
      <trkpt lat="43.62466" lon="1.40223">
        <ele>139</ele>
        <time>2025-04-12T10:01:51Z</time>
      </trkpt>
      <trkpt lat="43.62466" lon="1.40219">
        <ele>139</ele>
        <time>2025-04-12T10:01:52Z</time>
      </trkpt>
      <trkpt lat="43.62466" lon="1.40219">
        <ele>139</ele>
        <time>2025-04-12T10:01:53Z</time>
      </trkpt>
      <trkpt lat="43.62466" lon="1.40215">
        <ele>139</ele>
        <time>2025-04-12T10:01:54Z</time>
      </trkpt>
      <trkpt lat="43.62466" lon="1.40211">
        <ele>139</ele>
        <time>2025-04-12T10:01:55Z</time>
      </trkpt>
      <trkpt lat="43.62466" lon="1.40211">
        <ele>139</ele>
        <time>2025-04-12T10:01:56Z</time>
      </trkpt>
      <trkpt lat="43.62466" lon="1.40207">
        <ele>139</ele>
        <time>2025-04-12T10:01:57Z</time>
      </trkpt>
      <trkpt lat="43.62466" lon="1.40207">
        <ele>140</ele>
        <time>2025-04-12T10:01:58Z</time>
      </trkpt>
      <trkpt lat="43.62466" lon="1.40203">
        <ele>140</ele>
        <time>2025-04-12T10:01:59Z</time>
      </trkpt>
      <trkpt lat="43.62466" lon="1.40203">
        <ele>140</ele>
        <time>2025-04-12T10:02:00Z</time>
      </trkpt>
      <trkpt lat="43.62466" lon="1.40199">
        <ele>140</ele>
        <time>2025-04-12T10:02:01Z</time>
      </trkpt>
      <trkpt lat="43.62466" lon="1.40199">
        <ele>139</ele>
        <time>2025-04-12T10:02:03Z</time>
      </trkpt>
      <trkpt lat="43.62466" lon="1.40195">
        <ele>139</ele>
        <time>2025-04-12T10:02:04Z</time>
      </trkpt>
      <trkpt lat="43.62466" lon="1.40192">
        <ele>139</ele>
        <time>2025-04-12T10:02:05Z</time>
      </trkpt>
      <trkpt lat="43.62466" lon="1.40192">
        <ele>139</ele>
        <time>2025-04-12T10:02:06Z</time>
      </trkpt>
      <trkpt lat="43.62466" lon="1.40188">
        <ele>139</ele>
        <time>2025-04-12T10:02:07Z</time>
      </trkpt>
      <trkpt lat="43.62466" lon="1.40188">
        <ele>139</ele>
        <time>2025-04-12T10:02:08Z</time>
      </trkpt>
      <trkpt lat="43.62466" lon="1.40188">
        <ele>139</ele>
        <time>2025-04-12T10:02:09Z</time>
      </trkpt>
      <trkpt lat="43.62467" lon="1.40185">
        <ele>139</ele>
        <time>2025-04-12T10:02:10Z</time>
      </trkpt>
      <trkpt lat="43.62467" lon="1.40182">
        <ele>139</ele>
        <time>2025-04-12T10:02:11Z</time>
      </trkpt>
      <trkpt lat="43.62467" lon="1.40182">
        <ele>139</ele>
        <time>2025-04-12T10:02:12Z</time>
      </trkpt>
      <trkpt lat="43.62467" lon="1.40178">
        <ele>139</ele>
        <time>2025-04-12T10:02:13Z</time>
      </trkpt>
      <trkpt lat="43.62467" lon="1.40178">
        <ele>140</ele>
        <time>2025-04-12T10:02:14Z</time>
      </trkpt>
      <trkpt lat="43.62467" lon="1.40178">
        <ele>140</ele>
        <time>2025-04-12T10:02:15Z</time>
      </trkpt>
      <trkpt lat="43.62467" lon="1.40175">
        <ele>140</ele>
        <time>2025-04-12T10:02:16Z</time>
      </trkpt>
      <trkpt lat="43.62467" lon="1.40175">
        <ele>140</ele>
        <time>2025-04-12T10:02:17Z</time>
      </trkpt>
      <trkpt lat="43.62468" lon="1.40171">
        <ele>140</ele>
        <time>2025-04-12T10:02:18Z</time>
      </trkpt>
      <trkpt lat="43.62468" lon="1.40171">
        <ele>140</ele>
        <time>2025-04-12T10:02:19Z</time>
      </trkpt>
      <trkpt lat="43.62468" lon="1.40168">
        <ele>140</ele>
        <time>2025-04-12T10:02:20Z</time>
      </trkpt>
      <trkpt lat="43.62468" lon="1.40164">
        <ele>141</ele>
        <time>2025-04-12T10:02:21Z</time>
      </trkpt>
      <trkpt lat="43.62468" lon="1.40164">
        <ele>141</ele>
        <time>2025-04-12T10:02:22Z</time>
      </trkpt>
      <trkpt lat="43.62468" lon="1.40161">
        <ele>141</ele>
        <time>2025-04-12T10:02:23Z</time>
      </trkpt>
      <trkpt lat="43.62468" lon="1.40161">
        <ele>141</ele>
        <time>2025-04-12T10:02:24Z</time>
      </trkpt>
      <trkpt lat="43.62468" lon="1.40161">
        <ele>140</ele>
        <time>2025-04-12T10:02:25Z</time>
      </trkpt>
      <trkpt lat="43.62468" lon="1.40157">
        <ele>140</ele>
        <time>2025-04-12T10:02:26Z</time>
      </trkpt>
      <trkpt lat="43.62468" lon="1.40157">
        <ele>140</ele>
        <time>2025-04-12T10:02:27Z</time>
      </trkpt>
      <trkpt lat="43.62467" lon="1.40153">
        <ele>140</ele>
        <time>2025-04-12T10:02:28Z</time>
      </trkpt>
      <trkpt lat="43.62467" lon="1.40153">
        <ele>140</ele>
        <time>2025-04-12T10:02:29Z</time>
      </trkpt>
      <trkpt lat="43.62468" lon="1.4015">
        <ele>140</ele>
        <time>2025-04-12T10:02:30Z</time>
      </trkpt>
      <trkpt lat="43.62468" lon="1.40146">
        <ele>140</ele>
        <time>2025-04-12T10:02:31Z</time>
      </trkpt>
      <trkpt lat="43.62468" lon="1.40146">
        <ele>140</ele>
        <time>2025-04-12T10:02:32Z</time>
      </trkpt>
      <trkpt lat="43.62468" lon="1.40146">
        <ele>140</ele>
        <time>2025-04-12T10:02:33Z</time>
      </trkpt>
      <trkpt lat="43.62468" lon="1.40143">
        <ele>140</ele>
        <time>2025-04-12T10:02:34Z</time>
      </trkpt>
      <trkpt lat="43.62468" lon="1.40139">
        <ele>140</ele>
        <time>2025-04-12T10:02:35Z</time>
      </trkpt>
      <trkpt lat="43.62468" lon="1.40139">
        <ele>140</ele>
        <time>2025-04-12T10:02:36Z</time>
      </trkpt>
      <trkpt lat="43.62468" lon="1.40135">
        <ele>140</ele>
        <time>2025-04-12T10:02:37Z</time>
      </trkpt>
      <trkpt lat="43.62468" lon="1.40135">
        <ele>141</ele>
        <time>2025-04-12T10:02:38Z</time>
      </trkpt>
      <trkpt lat="43.62468" lon="1.40132">
        <ele>142</ele>
        <time>2025-04-12T10:02:39Z</time>
      </trkpt>
      <trkpt lat="43.62468" lon="1.40132">
        <ele>142</ele>
        <time>2025-04-12T10:02:41Z</time>
      </trkpt>
      <trkpt lat="43.62468" lon="1.40128">
        <ele>142</ele>
        <time>2025-04-12T10:02:42Z</time>
      </trkpt>
      <trkpt lat="43.62469" lon="1.40124">
        <ele>142</ele>
        <time>2025-04-12T10:02:43Z</time>
      </trkpt>
      <trkpt lat="43.62469" lon="1.40124">
        <ele>142</ele>
        <time>2025-04-12T10:02:44Z</time>
      </trkpt>
      <trkpt lat="43.62469" lon="1.4012">
        <ele>141</ele>
        <time>2025-04-12T10:02:45Z</time>
      </trkpt>
      <trkpt lat="43.62469" lon="1.4012">
        <ele>141</ele>
        <time>2025-04-12T10:02:46Z</time>
      </trkpt>
      <trkpt lat="43.62469" lon="1.40117">
        <ele>141</ele>
        <time>2025-04-12T10:02:47Z</time>
      </trkpt>
      <trkpt lat="43.62469" lon="1.40117">
        <ele>140</ele>
        <time>2025-04-12T10:02:48Z</time>
      </trkpt>
      <trkpt lat="43.62469" lon="1.40114">
        <ele>140</ele>
        <time>2025-04-12T10:02:49Z</time>
      </trkpt>
      <trkpt lat="43.62469" lon="1.40114">
        <ele>140</ele>
        <time>2025-04-12T10:02:50Z</time>
      </trkpt>
      <trkpt lat="43.62469" lon="1.40114">
        <ele>140</ele>
        <time>2025-04-12T10:02:51Z</time>
      </trkpt>
      <trkpt lat="43.6247" lon="1.4011">
        <ele>140</ele>
        <time>2025-04-12T10:02:52Z</time>
      </trkpt>
      <trkpt lat="43.6247" lon="1.4011">
        <ele>141</ele>
        <time>2025-04-12T10:02:53Z</time>
      </trkpt>
      <trkpt lat="43.6247" lon="1.40107">
        <ele>142</ele>
        <time>2025-04-12T10:02:54Z</time>
      </trkpt>
      <trkpt lat="43.6247" lon="1.40104">
        <ele>142</ele>
        <time>2025-04-12T10:02:55Z</time>
      </trkpt>
      <trkpt lat="43.6247" lon="1.40104">
        <ele>142</ele>
        <time>2025-04-12T10:02:56Z</time>
      </trkpt>
      <trkpt lat="43.62471" lon="1.40101">
        <ele>142</ele>
        <time>2025-04-12T10:02:57Z</time>
      </trkpt>
      <trkpt lat="43.62471" lon="1.40101">
        <ele>142</ele>
        <time>2025-04-12T10:02:58Z</time>
      </trkpt>
      <trkpt lat="43.6247" lon="1.40098">
        <ele>141</ele>
        <time>2025-04-12T10:02:59Z</time>
      </trkpt>
      <trkpt lat="43.6247" lon="1.40098">
        <ele>140</ele>
        <time>2025-04-12T10:03:00Z</time>
      </trkpt>
      <trkpt lat="43.6247" lon="1.40094">
        <ele>140</ele>
        <time>2025-04-12T10:03:01Z</time>
      </trkpt>
      <trkpt lat="43.6247" lon="1.40094">
        <ele>140</ele>
        <time>2025-04-12T10:03:02Z</time>
      </trkpt>
      <trkpt lat="43.6247" lon="1.40094">
        <ele>140</ele>
        <time>2025-04-12T10:03:03Z</time>
      </trkpt>
      <trkpt lat="43.62471" lon="1.40089">
        <ele>141</ele>
        <time>2025-04-12T10:03:04Z</time>
      </trkpt>
      <trkpt lat="43.62471" lon="1.40089">
        <ele>141</ele>
        <time>2025-04-12T10:03:05Z</time>
      </trkpt>
      <trkpt lat="43.62472" lon="1.40086">
        <ele>141</ele>
        <time>2025-04-12T10:03:06Z</time>
      </trkpt>
      <trkpt lat="43.62472" lon="1.40086">
        <ele>141</ele>
        <time>2025-04-12T10:03:07Z</time>
      </trkpt>
      <trkpt lat="43.62472" lon="1.40082">
        <ele>141</ele>
        <time>2025-04-12T10:03:08Z</time>
      </trkpt>
      <trkpt lat="43.62473" lon="1.40078">
        <ele>141</ele>
        <time>2025-04-12T10:03:09Z</time>
      </trkpt>
      <trkpt lat="43.62473" lon="1.40078">
        <ele>140</ele>
        <time>2025-04-12T10:03:10Z</time>
      </trkpt>
      <trkpt lat="43.62473" lon="1.40078">
        <ele>140</ele>
        <time>2025-04-12T10:03:11Z</time>
      </trkpt>
      <trkpt lat="43.62473" lon="1.40074">
        <ele>140</ele>
        <time>2025-04-12T10:03:12Z</time>
      </trkpt>
      <trkpt lat="43.62473" lon="1.40071">
        <ele>140</ele>
        <time>2025-04-12T10:03:13Z</time>
      </trkpt>
      <trkpt lat="43.62473" lon="1.40071">
        <ele>140</ele>
        <time>2025-04-12T10:03:14Z</time>
      </trkpt>
      <trkpt lat="43.62473" lon="1.40071">
        <ele>140</ele>
        <time>2025-04-12T10:03:15Z</time>
      </trkpt>
      <trkpt lat="43.62473" lon="1.40067">
        <ele>140</ele>
        <time>2025-04-12T10:03:16Z</time>
      </trkpt>
      <trkpt lat="43.62473" lon="1.40063">
        <ele>141</ele>
        <time>2025-04-12T10:03:17Z</time>
      </trkpt>
      <trkpt lat="43.62473" lon="1.40063">
        <ele>141</ele>
        <time>2025-04-12T10:03:19Z</time>
      </trkpt>
      <trkpt lat="43.62473" lon="1.40059">
        <ele>141</ele>
        <time>2025-04-12T10:03:20Z</time>
      </trkpt>
      <trkpt lat="43.62473" lon="1.40055">
        <ele>141</ele>
        <time>2025-04-12T10:03:21Z</time>
      </trkpt>
      <trkpt lat="43.62473" lon="1.40055">
        <ele>141</ele>
        <time>2025-04-12T10:03:22Z</time>
      </trkpt>
      <trkpt lat="43.62473" lon="1.40051">
        <ele>141</ele>
        <time>2025-04-12T10:03:23Z</time>
      </trkpt>
      <trkpt lat="43.62473" lon="1.40051">
        <ele>141</ele>
        <time>2025-04-12T10:03:24Z</time>
      </trkpt>
      <trkpt lat="43.62473" lon="1.40046">
        <ele>141</ele>
        <time>2025-04-12T10:03:25Z</time>
      </trkpt>
      <trkpt lat="43.62473" lon="1.40046">
        <ele>141</ele>
        <time>2025-04-12T10:03:26Z</time>
      </trkpt>
      <trkpt lat="43.62474" lon="1.4004">
        <ele>141</ele>
        <time>2025-04-12T10:03:27Z</time>
      </trkpt>
      <trkpt lat="43.62474" lon="1.4004">
        <ele>140</ele>
        <time>2025-04-12T10:03:28Z</time>
      </trkpt>
      <trkpt lat="43.62474" lon="1.40037">
        <ele>140</ele>
        <time>2025-04-12T10:03:29Z</time>
      </trkpt>
      <trkpt lat="43.62474" lon="1.4003">
        <ele>140</ele>
        <time>2025-04-12T10:03:30Z</time>
      </trkpt>
      <trkpt lat="43.62474" lon="1.4003">
        <ele>140</ele>
        <time>2025-04-12T10:03:31Z</time>
      </trkpt>
      <trkpt lat="43.62474" lon="1.40027">
        <ele>140</ele>
        <time>2025-04-12T10:03:32Z</time>
      </trkpt>
      <trkpt lat="43.62474" lon="1.40024">
        <ele>140</ele>
        <time>2025-04-12T10:03:33Z</time>
      </trkpt>
      <trkpt lat="43.62474" lon="1.40018">
        <ele>140</ele>
        <time>2025-04-12T10:03:34Z</time>
      </trkpt>
      <trkpt lat="43.62474" lon="1.40018">
        <ele>139</ele>
        <time>2025-04-12T10:03:35Z</time>
      </trkpt>
      <trkpt lat="43.62473" lon="1.40014">
        <ele>139</ele>
        <time>2025-04-12T10:03:36Z</time>
      </trkpt>
      <trkpt lat="43.62473" lon="1.40011">
        <ele>139</ele>
        <time>2025-04-12T10:03:37Z</time>
      </trkpt>
      <trkpt lat="43.62473" lon="1.40004">
        <ele>139</ele>
        <time>2025-04-12T10:03:38Z</time>
      </trkpt>
      <trkpt lat="43.62473" lon="1.40004">
        <ele>139</ele>
        <time>2025-04-12T10:03:39Z</time>
      </trkpt>
      <trkpt lat="43.62473" lon="1.40001">
        <ele>139</ele>
        <time>2025-04-12T10:03:40Z</time>
      </trkpt>
      <trkpt lat="43.62474" lon="1.39994">
        <ele>139</ele>
        <time>2025-04-12T10:03:41Z</time>
      </trkpt>
      <trkpt lat="43.62474" lon="1.3999">
        <ele>139</ele>
        <time>2025-04-12T10:03:42Z</time>
      </trkpt>
      <trkpt lat="43.62474" lon="1.3999">
        <ele>139</ele>
        <time>2025-04-12T10:03:43Z</time>
      </trkpt>
      <trkpt lat="43.62475" lon="1.39983">
        <ele>139</ele>
        <time>2025-04-12T10:03:44Z</time>
      </trkpt>
      <trkpt lat="43.62475" lon="1.39979">
        <ele>138</ele>
        <time>2025-04-12T10:03:45Z</time>
      </trkpt>
      <trkpt lat="43.62475" lon="1.39975">
        <ele>138</ele>
        <time>2025-04-12T10:03:46Z</time>
      </trkpt>
      <trkpt lat="43.62476" lon="1.39972">
        <ele>138</ele>
        <time>2025-04-12T10:03:47Z</time>
      </trkpt>
      <trkpt lat="43.62476" lon="1.39972">
        <ele>138</ele>
        <time>2025-04-12T10:03:48Z</time>
      </trkpt>
      <trkpt lat="43.62477" lon="1.39968">
        <ele>137</ele>
        <time>2025-04-12T10:03:49Z</time>
      </trkpt>
      <trkpt lat="43.62477" lon="1.39965">
        <ele>137</ele>
        <time>2025-04-12T10:03:50Z</time>
      </trkpt>
      <trkpt lat="43.62479" lon="1.39958">
        <ele>137</ele>
        <time>2025-04-12T10:03:51Z</time>
      </trkpt>
      <trkpt lat="43.6248" lon="1.39956">
        <ele>137</ele>
        <time>2025-04-12T10:03:52Z</time>
      </trkpt>
      <trkpt lat="43.6248" lon="1.39956">
        <ele>137</ele>
        <time>2025-04-12T10:03:53Z</time>
      </trkpt>
      <trkpt lat="43.6248" lon="1.39956">
        <ele>137</ele>
        <time>2025-04-12T10:03:54Z</time>
      </trkpt>
      <trkpt lat="43.62481" lon="1.39959">
        <ele>137</ele>
        <time>2025-04-12T10:03:55Z</time>
      </trkpt>
      <trkpt lat="43.6248" lon="1.39963">
        <ele>137</ele>
        <time>2025-04-12T10:03:56Z</time>
      </trkpt>
      <trkpt lat="43.6248" lon="1.39966">
        <ele>137</ele>
        <time>2025-04-12T10:03:57Z</time>
      </trkpt>
      <trkpt lat="43.6248" lon="1.39972">
        <ele>137</ele>
        <time>2025-04-12T10:03:58Z</time>
      </trkpt>
      <trkpt lat="43.6248" lon="1.39972">
        <ele>137</ele>
        <time>2025-04-12T10:03:59Z</time>
      </trkpt>
      <trkpt lat="43.62481" lon="1.39979">
        <ele>137</ele>
        <time>2025-04-12T10:04:00Z</time>
      </trkpt>
      <trkpt lat="43.62482" lon="1.39982">
        <ele>137</ele>
        <time>2025-04-12T10:04:01Z</time>
      </trkpt>
      <trkpt lat="43.62483" lon="1.39985">
        <ele>137</ele>
        <time>2025-04-12T10:04:02Z</time>
      </trkpt>
      <trkpt lat="43.62483" lon="1.39989">
        <ele>137</ele>
        <time>2025-04-12T10:04:03Z</time>
      </trkpt>
      <trkpt lat="43.62483" lon="1.39989">
        <ele>137</ele>
        <time>2025-04-12T10:04:04Z</time>
      </trkpt>
      <trkpt lat="43.62483" lon="1.39993">
        <ele>137</ele>
        <time>2025-04-12T10:04:05Z</time>
      </trkpt>
      <trkpt lat="43.62482" lon="1.40001">
        <ele>137</ele>
        <time>2025-04-12T10:04:06Z</time>
      </trkpt>
      <trkpt lat="43.62482" lon="1.40001">
        <ele>136</ele>
        <time>2025-04-12T10:04:07Z</time>
      </trkpt>
      <trkpt lat="43.62485" lon="1.40008">
        <ele>135</ele>
        <time>2025-04-12T10:04:08Z</time>
      </trkpt>
      <trkpt lat="43.62485" lon="1.40008">
        <ele>135</ele>
        <time>2025-04-12T10:04:09Z</time>
      </trkpt>
      <trkpt lat="43.62489" lon="1.40011">
        <ele>134</ele>
        <time>2025-04-12T10:04:10Z</time>
      </trkpt>
      <trkpt lat="43.62489" lon="1.40011">
        <ele>134</ele>
        <time>2025-04-12T10:04:11Z</time>
      </trkpt>
      <trkpt lat="43.62492" lon="1.40011">
        <ele>134</ele>
        <time>2025-04-12T10:04:12Z</time>
      </trkpt>
      <trkpt lat="43.62494" lon="1.40011">
        <ele>134</ele>
        <time>2025-04-12T10:04:13Z</time>
      </trkpt>
      <trkpt lat="43.62496" lon="1.40011">
        <ele>133</ele>
        <time>2025-04-12T10:04:14Z</time>
      </trkpt>
      <trkpt lat="43.62502" lon="1.4001">
        <ele>133</ele>
        <time>2025-04-12T10:04:15Z</time>
      </trkpt>
      <trkpt lat="43.62502" lon="1.4001">
        <ele>133</ele>
        <time>2025-04-12T10:04:16Z</time>
      </trkpt>
      <trkpt lat="43.62507" lon="1.4001">
        <ele>134</ele>
        <time>2025-04-12T10:04:17Z</time>
      </trkpt>
      <trkpt lat="43.62509" lon="1.4001">
        <ele>134</ele>
        <time>2025-04-12T10:04:18Z</time>
      </trkpt>
      <trkpt lat="43.62509" lon="1.4001">
        <ele>133</ele>
        <time>2025-04-12T10:04:19Z</time>
      </trkpt>
      <trkpt lat="43.62512" lon="1.4001">
        <ele>133</ele>
        <time>2025-04-12T10:04:20Z</time>
      </trkpt>
      <trkpt lat="43.62514" lon="1.4001">
        <ele>133</ele>
        <time>2025-04-12T10:04:21Z</time>
      </trkpt>
      <trkpt lat="43.62519" lon="1.40011">
        <ele>133</ele>
        <time>2025-04-12T10:04:22Z</time>
      </trkpt>
      <trkpt lat="43.62522" lon="1.40011">
        <ele>133</ele>
        <time>2025-04-12T10:04:23Z</time>
      </trkpt>
      <trkpt lat="43.62524" lon="1.40012">
        <ele>133</ele>
        <time>2025-04-12T10:04:24Z</time>
      </trkpt>
      <trkpt lat="43.62524" lon="1.40012">
        <ele>133</ele>
        <time>2025-04-12T10:04:25Z</time>
      </trkpt>
      <trkpt lat="43.62527" lon="1.40013">
        <ele>133</ele>
        <time>2025-04-12T10:04:26Z</time>
      </trkpt>
      <trkpt lat="43.62529" lon="1.40013">
        <ele>133</ele>
        <time>2025-04-12T10:04:27Z</time>
      </trkpt>
      <trkpt lat="43.62531" lon="1.40013">
        <ele>133</ele>
        <time>2025-04-12T10:04:28Z</time>
      </trkpt>
      <trkpt lat="43.62535" lon="1.40014">
        <ele>133</ele>
        <time>2025-04-12T10:04:29Z</time>
      </trkpt>
      <trkpt lat="43.62535" lon="1.40014">
        <ele>133</ele>
        <time>2025-04-12T10:04:30Z</time>
      </trkpt>
      <trkpt lat="43.62538" lon="1.40014">
        <ele>133</ele>
        <time>2025-04-12T10:04:31Z</time>
      </trkpt>
      <trkpt lat="43.62543" lon="1.40016">
        <ele>133</ele>
        <time>2025-04-12T10:04:32Z</time>
      </trkpt>
      <trkpt lat="43.62545" lon="1.40017">
        <ele>133</ele>
        <time>2025-04-12T10:04:33Z</time>
      </trkpt>
      <trkpt lat="43.62548" lon="1.40018">
        <ele>134</ele>
        <time>2025-04-12T10:04:34Z</time>
      </trkpt>
      <trkpt lat="43.6255" lon="1.40018">
        <ele>134</ele>
        <time>2025-04-12T10:04:35Z</time>
      </trkpt>
      <trkpt lat="43.62553" lon="1.40019">
        <ele>133</ele>
        <time>2025-04-12T10:04:36Z</time>
      </trkpt>
      <trkpt lat="43.62553" lon="1.40019">
        <ele>133</ele>
        <time>2025-04-12T10:04:37Z</time>
      </trkpt>
      <trkpt lat="43.62557" lon="1.40019">
        <ele>133</ele>
        <time>2025-04-12T10:04:38Z</time>
      </trkpt>
      <trkpt lat="43.62557" lon="1.40019">
        <ele>133</ele>
        <time>2025-04-12T10:04:39Z</time>
      </trkpt>
      <trkpt lat="43.62559" lon="1.4002">
        <ele>133</ele>
        <time>2025-04-12T10:04:40Z</time>
      </trkpt>
      <trkpt lat="43.62562" lon="1.4002">
        <ele>133</ele>
        <time>2025-04-12T10:04:41Z</time>
      </trkpt>
      <trkpt lat="43.62566" lon="1.4002">
        <ele>133</ele>
        <time>2025-04-12T10:04:42Z</time>
      </trkpt>
      <trkpt lat="43.62569" lon="1.4002">
        <ele>133</ele>
        <time>2025-04-12T10:04:43Z</time>
      </trkpt>
      <trkpt lat="43.62569" lon="1.4002">
        <ele>133</ele>
        <time>2025-04-12T10:04:44Z</time>
      </trkpt>
      <trkpt lat="43.62572" lon="1.4002">
        <ele>133</ele>
        <time>2025-04-12T10:04:45Z</time>
      </trkpt>
      <trkpt lat="43.62577" lon="1.40021">
        <ele>133</ele>
        <time>2025-04-12T10:04:46Z</time>
      </trkpt>
      <trkpt lat="43.6258" lon="1.40022">
        <ele>133</ele>
        <time>2025-04-12T10:04:47Z</time>
      </trkpt>
      <trkpt lat="43.62582" lon="1.40022">
        <ele>132</ele>
        <time>2025-04-12T10:04:48Z</time>
      </trkpt>
      <trkpt lat="43.62585" lon="1.40023">
        <ele>132</ele>
        <time>2025-04-12T10:04:49Z</time>
      </trkpt>
      <trkpt lat="43.62588" lon="1.40023">
        <ele>132</ele>
        <time>2025-04-12T10:04:50Z</time>
      </trkpt>
      <trkpt lat="43.62588" lon="1.40023">
        <ele>132</ele>
        <time>2025-04-12T10:04:51Z</time>
      </trkpt>
      <trkpt lat="43.6259" lon="1.40024">
        <ele>132</ele>
        <time>2025-04-12T10:04:52Z</time>
      </trkpt>
      <trkpt lat="43.62593" lon="1.40024">
        <ele>132</ele>
        <time>2025-04-12T10:04:53Z</time>
      </trkpt>
      <trkpt lat="43.62595" lon="1.40025">
        <ele>132</ele>
        <time>2025-04-12T10:04:54Z</time>
      </trkpt>
      <trkpt lat="43.62601" lon="1.40025">
        <ele>132</ele>
        <time>2025-04-12T10:04:55Z</time>
      </trkpt>
      <trkpt lat="43.62603" lon="1.40024">
        <ele>132</ele>
        <time>2025-04-12T10:04:56Z</time>
      </trkpt>
      <trkpt lat="43.62606" lon="1.40024">
        <ele>132</ele>
        <time>2025-04-12T10:04:57Z</time>
      </trkpt>
      <trkpt lat="43.62606" lon="1.40024">
        <ele>132</ele>
        <time>2025-04-12T10:04:58Z</time>
      </trkpt>
      <trkpt lat="43.62609" lon="1.40025">
        <ele>132</ele>
        <time>2025-04-12T10:04:59Z</time>
      </trkpt>
      <trkpt lat="43.62612" lon="1.40025">
        <ele>132</ele>
        <time>2025-04-12T10:05:00Z</time>
      </trkpt>
      <trkpt lat="43.62617" lon="1.40026">
        <ele>132</ele>
        <time>2025-04-12T10:05:01Z</time>
      </trkpt>
      <trkpt lat="43.62617" lon="1.40026">
        <ele>132</ele>
        <time>2025-04-12T10:05:02Z</time>
      </trkpt>
      <trkpt lat="43.62619" lon="1.40026">
        <ele>132</ele>
        <time>2025-04-12T10:05:03Z</time>
      </trkpt>
      <trkpt lat="43.62622" lon="1.40027">
        <ele>132</ele>
        <time>2025-04-12T10:05:04Z</time>
      </trkpt>
      <trkpt lat="43.62627" lon="1.40028">
        <ele>132</ele>
        <time>2025-04-12T10:05:05Z</time>
      </trkpt>
      <trkpt lat="43.62629" lon="1.40028">
        <ele>132</ele>
        <time>2025-04-12T10:05:06Z</time>
      </trkpt>
      <trkpt lat="43.62632" lon="1.40029">
        <ele>132</ele>
        <time>2025-04-12T10:05:07Z</time>
      </trkpt>
      <trkpt lat="43.62634" lon="1.40029">
        <ele>132</ele>
        <time>2025-04-12T10:05:08Z</time>
      </trkpt>
      <trkpt lat="43.62634" lon="1.40029">
        <ele>132</ele>
        <time>2025-04-12T10:05:09Z</time>
      </trkpt>
      <trkpt lat="43.62637" lon="1.40029">
        <ele>132</ele>
        <time>2025-04-12T10:05:10Z</time>
      </trkpt>
      <trkpt lat="43.6264" lon="1.40029">
        <ele>132</ele>
        <time>2025-04-12T10:05:11Z</time>
      </trkpt>
      <trkpt lat="43.62646" lon="1.40029">
        <ele>132</ele>
        <time>2025-04-12T10:05:12Z</time>
      </trkpt>
      <trkpt lat="43.62646" lon="1.40029">
        <ele>132</ele>
        <time>2025-04-12T10:05:13Z</time>
      </trkpt>
      <trkpt lat="43.62651" lon="1.40029">
        <ele>132</ele>
        <time>2025-04-12T10:05:14Z</time>
      </trkpt>
      <trkpt lat="43.62651" lon="1.40029">
        <ele>132</ele>
        <time>2025-04-12T10:05:15Z</time>
      </trkpt>
      <trkpt lat="43.62654" lon="1.40029">
        <ele>132</ele>
        <time>2025-04-12T10:05:16Z</time>
      </trkpt>
      <trkpt lat="43.62659" lon="1.40029">
        <ele>132</ele>
        <time>2025-04-12T10:05:17Z</time>
      </trkpt>
      <trkpt lat="43.62659" lon="1.40029">
        <ele>132</ele>
        <time>2025-04-12T10:05:18Z</time>
      </trkpt>
      <trkpt lat="43.62663" lon="1.4003">
        <ele>132</ele>
        <time>2025-04-12T10:05:19Z</time>
      </trkpt>
      <trkpt lat="43.62669" lon="1.4003">
        <ele>132</ele>
        <time>2025-04-12T10:05:20Z</time>
      </trkpt>
      <trkpt lat="43.62671" lon="1.40031">
        <ele>132</ele>
        <time>2025-04-12T10:05:21Z</time>
      </trkpt>
      <trkpt lat="43.62674" lon="1.4003">
        <ele>132</ele>
        <time>2025-04-12T10:05:22Z</time>
      </trkpt>
      <trkpt lat="43.62674" lon="1.4003">
        <ele>132</ele>
        <time>2025-04-12T10:05:23Z</time>
      </trkpt>
      <trkpt lat="43.62677" lon="1.4003">
        <ele>132</ele>
        <time>2025-04-12T10:05:24Z</time>
      </trkpt>
      <trkpt lat="43.62682" lon="1.4003">
        <ele>132</ele>
        <time>2025-04-12T10:05:25Z</time>
      </trkpt>
      <trkpt lat="43.62685" lon="1.4003">
        <ele>132</ele>
        <time>2025-04-12T10:05:26Z</time>
      </trkpt>
      <trkpt lat="43.62688" lon="1.4003">
        <ele>132</ele>
        <time>2025-04-12T10:05:27Z</time>
      </trkpt>
      <trkpt lat="43.62691" lon="1.40031">
        <ele>132</ele>
        <time>2025-04-12T10:05:28Z</time>
      </trkpt>
      <trkpt lat="43.62691" lon="1.40031">
        <ele>132</ele>
        <time>2025-04-12T10:05:29Z</time>
      </trkpt>
      <trkpt lat="43.62696" lon="1.40032">
        <ele>132</ele>
        <time>2025-04-12T10:05:30Z</time>
      </trkpt>
      <trkpt lat="43.62696" lon="1.40032">
        <ele>132</ele>
        <time>2025-04-12T10:05:31Z</time>
      </trkpt>
      <trkpt lat="43.62702" lon="1.40033">
        <ele>132</ele>
        <time>2025-04-12T10:05:32Z</time>
      </trkpt>
      <trkpt lat="43.62702" lon="1.40033">
        <ele>132</ele>
        <time>2025-04-12T10:05:33Z</time>
      </trkpt>
      <trkpt lat="43.62707" lon="1.40034">
        <ele>132</ele>
        <time>2025-04-12T10:05:34Z</time>
      </trkpt>
      <trkpt lat="43.62713" lon="1.40035">
        <ele>132</ele>
        <time>2025-04-12T10:05:36Z</time>
      </trkpt>
      <trkpt lat="43.62713" lon="1.40035">
        <ele>132</ele>
        <time>2025-04-12T10:05:37Z</time>
      </trkpt>
      <trkpt lat="43.62716" lon="1.40035">
        <ele>132</ele>
        <time>2025-04-12T10:05:38Z</time>
      </trkpt>
      <trkpt lat="43.62719" lon="1.40035">
        <ele>132</ele>
        <time>2025-04-12T10:05:39Z</time>
      </trkpt>
      <trkpt lat="43.62721" lon="1.40036">
        <ele>132</ele>
        <time>2025-04-12T10:05:40Z</time>
      </trkpt>
      <trkpt lat="43.62727" lon="1.40037">
        <ele>132</ele>
        <time>2025-04-12T10:05:41Z</time>
      </trkpt>
      <trkpt lat="43.62729" lon="1.40037">
        <ele>132</ele>
        <time>2025-04-12T10:05:42Z</time>
      </trkpt>
      <trkpt lat="43.62731" lon="1.40037">
        <ele>132</ele>
        <time>2025-04-12T10:05:43Z</time>
      </trkpt>
      <trkpt lat="43.62731" lon="1.40037">
        <ele>132</ele>
        <time>2025-04-12T10:05:44Z</time>
      </trkpt>
      <trkpt lat="43.62734" lon="1.40037">
        <ele>132</ele>
        <time>2025-04-12T10:05:45Z</time>
      </trkpt>
      <trkpt lat="43.62737" lon="1.40038">
        <ele>132</ele>
        <time>2025-04-12T10:05:46Z</time>
      </trkpt>
      <trkpt lat="43.62739" lon="1.40039">
        <ele>132</ele>
        <time>2025-04-12T10:05:47Z</time>
      </trkpt>
      <trkpt lat="43.62745" lon="1.40039">
        <ele>132</ele>
        <time>2025-04-12T10:05:48Z</time>
      </trkpt>
      <trkpt lat="43.62745" lon="1.40039">
        <ele>132</ele>
        <time>2025-04-12T10:05:49Z</time>
      </trkpt>
      <trkpt lat="43.62749" lon="1.40039">
        <ele>132</ele>
        <time>2025-04-12T10:05:50Z</time>
      </trkpt>
      <trkpt lat="43.62752" lon="1.40039">
        <ele>132</ele>
        <time>2025-04-12T10:05:51Z</time>
      </trkpt>
      <trkpt lat="43.62752" lon="1.40039">
        <ele>132</ele>
        <time>2025-04-12T10:05:52Z</time>
      </trkpt>
      <trkpt lat="43.62755" lon="1.40039">
        <ele>132</ele>
        <time>2025-04-12T10:05:53Z</time>
      </trkpt>
      <trkpt lat="43.6276" lon="1.40039">
        <ele>132</ele>
        <time>2025-04-12T10:05:54Z</time>
      </trkpt>
      <trkpt lat="43.62763" lon="1.40039">
        <ele>132</ele>
        <time>2025-04-12T10:05:55Z</time>
      </trkpt>
      <trkpt lat="43.62763" lon="1.40039">
        <ele>132</ele>
        <time>2025-04-12T10:05:56Z</time>
      </trkpt>
      <trkpt lat="43.62768" lon="1.4004">
        <ele>132</ele>
        <time>2025-04-12T10:05:57Z</time>
      </trkpt>
      <trkpt lat="43.62768" lon="1.4004">
        <ele>132</ele>
        <time>2025-04-12T10:05:58Z</time>
      </trkpt>
      <trkpt lat="43.62773" lon="1.4004">
        <ele>132</ele>
        <time>2025-04-12T10:05:59Z</time>
      </trkpt>
      <trkpt lat="43.62776" lon="1.4004">
        <ele>132</ele>
        <time>2025-04-12T10:06:00Z</time>
      </trkpt>
      <trkpt lat="43.62776" lon="1.4004">
        <ele>132</ele>
        <time>2025-04-12T10:06:01Z</time>
      </trkpt>
      <trkpt lat="43.62778" lon="1.4004">
        <ele>132</ele>
        <time>2025-04-12T10:06:02Z</time>
      </trkpt>
      <trkpt lat="43.62781" lon="1.4004">
        <ele>132</ele>
        <time>2025-04-12T10:06:03Z</time>
      </trkpt>
      <trkpt lat="43.62786" lon="1.40039">
        <ele>132</ele>
        <time>2025-04-12T10:06:04Z</time>
      </trkpt>
      <trkpt lat="43.62788" lon="1.40039">
        <ele>132</ele>
        <time>2025-04-12T10:06:05Z</time>
      </trkpt>
      <trkpt lat="43.62788" lon="1.40039">
        <ele>132</ele>
        <time>2025-04-12T10:06:06Z</time>
      </trkpt>
      <trkpt lat="43.6279" lon="1.40039">
        <ele>132</ele>
        <time>2025-04-12T10:06:07Z</time>
      </trkpt>
      <trkpt lat="43.62796" lon="1.4004">
        <ele>132</ele>
        <time>2025-04-12T10:06:08Z</time>
      </trkpt>
      <trkpt lat="43.62796" lon="1.4004">
        <ele>132</ele>
        <time>2025-04-12T10:06:09Z</time>
      </trkpt>
      <trkpt lat="43.62801" lon="1.4004">
        <ele>132</ele>
        <time>2025-04-12T10:06:10Z</time>
      </trkpt>
      <trkpt lat="43.62801" lon="1.4004">
        <ele>132</ele>
        <time>2025-04-12T10:06:11Z</time>
      </trkpt>
      <trkpt lat="43.62807" lon="1.4004">
        <ele>132</ele>
        <time>2025-04-12T10:06:12Z</time>
      </trkpt>
      <trkpt lat="43.62812" lon="1.40041">
        <ele>132</ele>
        <time>2025-04-12T10:06:14Z</time>
      </trkpt>
      <trkpt lat="43.62815" lon="1.40041">
        <ele>132</ele>
        <time>2025-04-12T10:06:16Z</time>
      </trkpt>
      <trkpt lat="43.6282" lon="1.40041">
        <ele>132</ele>
        <time>2025-04-12T10:06:17Z</time>
      </trkpt>
      <trkpt lat="43.6282" lon="1.40041">
        <ele>132</ele>
        <time>2025-04-12T10:06:18Z</time>
      </trkpt>
      <trkpt lat="43.62825" lon="1.40042">
        <ele>132</ele>
        <time>2025-04-12T10:06:19Z</time>
      </trkpt>
      <trkpt lat="43.62827" lon="1.40042">
        <ele>132</ele>
        <time>2025-04-12T10:06:20Z</time>
      </trkpt>
      <trkpt lat="43.6283" lon="1.40043">
        <ele>132</ele>
        <time>2025-04-12T10:06:21Z</time>
      </trkpt>
      <trkpt lat="43.6283" lon="1.40043">
        <ele>132</ele>
        <time>2025-04-12T10:06:22Z</time>
      </trkpt>
      <trkpt lat="43.62832" lon="1.40042">
        <ele>132</ele>
        <time>2025-04-12T10:06:23Z</time>
      </trkpt>
      <trkpt lat="43.62835" lon="1.40043">
        <ele>132</ele>
        <time>2025-04-12T10:06:24Z</time>
      </trkpt>
      <trkpt lat="43.62838" lon="1.40043">
        <ele>132</ele>
        <time>2025-04-12T10:06:25Z</time>
      </trkpt>
      <trkpt lat="43.62843" lon="1.40043">
        <ele>132</ele>
        <time>2025-04-12T10:06:26Z</time>
      </trkpt>
      <trkpt lat="43.62845" lon="1.40043">
        <ele>132</ele>
        <time>2025-04-12T10:06:27Z</time>
      </trkpt>
      <trkpt lat="43.62848" lon="1.40044">
        <ele>132</ele>
        <time>2025-04-12T10:06:28Z</time>
      </trkpt>
      <trkpt lat="43.62851" lon="1.40044">
        <ele>132</ele>
        <time>2025-04-12T10:06:29Z</time>
      </trkpt>
      <trkpt lat="43.62851" lon="1.40044">
        <ele>132</ele>
        <time>2025-04-12T10:06:30Z</time>
      </trkpt>
      <trkpt lat="43.62853" lon="1.40045">
        <ele>132</ele>
        <time>2025-04-12T10:06:31Z</time>
      </trkpt>
      <trkpt lat="43.62857" lon="1.40045">
        <ele>132</ele>
        <time>2025-04-12T10:06:32Z</time>
      </trkpt>
      <trkpt lat="43.6286" lon="1.40045">
        <ele>132</ele>
        <time>2025-04-12T10:06:33Z</time>
      </trkpt>
      <trkpt lat="43.62865" lon="1.40046">
        <ele>132</ele>
        <time>2025-04-12T10:06:34Z</time>
      </trkpt>
      <trkpt lat="43.62868" lon="1.40046">
        <ele>132</ele>
        <time>2025-04-12T10:06:35Z</time>
      </trkpt>
      <trkpt lat="43.62868" lon="1.40046">
        <ele>132</ele>
        <time>2025-04-12T10:06:36Z</time>
      </trkpt>
      <trkpt lat="43.6287" lon="1.40046">
        <ele>132</ele>
        <time>2025-04-12T10:06:37Z</time>
      </trkpt>
      <trkpt lat="43.62876" lon="1.40048">
        <ele>132</ele>
        <time>2025-04-12T10:06:38Z</time>
      </trkpt>
      <trkpt lat="43.62876" lon="1.40048">
        <ele>132</ele>
        <time>2025-04-12T10:06:39Z</time>
      </trkpt>
      <trkpt lat="43.62879" lon="1.40048">
        <ele>132</ele>
        <time>2025-04-12T10:06:40Z</time>
      </trkpt>
      <trkpt lat="43.62882" lon="1.40049">
        <ele>132</ele>
        <time>2025-04-12T10:06:41Z</time>
      </trkpt>
      <trkpt lat="43.62887" lon="1.40051">
        <ele>132</ele>
        <time>2025-04-12T10:06:42Z</time>
      </trkpt>
      <trkpt lat="43.6289" lon="1.40052">
        <ele>132</ele>
        <time>2025-04-12T10:06:43Z</time>
      </trkpt>
      <trkpt lat="43.6289" lon="1.40052">
        <ele>132</ele>
        <time>2025-04-12T10:06:44Z</time>
      </trkpt>
      <trkpt lat="43.62895" lon="1.40052">
        <ele>132</ele>
        <time>2025-04-12T10:06:45Z</time>
      </trkpt>
      <trkpt lat="43.62895" lon="1.40052">
        <ele>132</ele>
        <time>2025-04-12T10:06:46Z</time>
      </trkpt>
      <trkpt lat="43.62901" lon="1.40054">
        <ele>132</ele>
        <time>2025-04-12T10:06:47Z</time>
      </trkpt>
      <trkpt lat="43.62901" lon="1.40054">
        <ele>132</ele>
        <time>2025-04-12T10:06:48Z</time>
      </trkpt>
      <trkpt lat="43.62906" lon="1.40055">
        <ele>132</ele>
        <time>2025-04-12T10:06:49Z</time>
      </trkpt>
      <trkpt lat="43.62909" lon="1.40056">
        <ele>132</ele>
        <time>2025-04-12T10:06:50Z</time>
      </trkpt>
      <trkpt lat="43.62909" lon="1.40056">
        <ele>132</ele>
        <time>2025-04-12T10:06:51Z</time>
      </trkpt>
      <trkpt lat="43.62912" lon="1.40057">
        <ele>132</ele>
        <time>2025-04-12T10:06:52Z</time>
      </trkpt>
      <trkpt lat="43.62913" lon="1.40058">
        <ele>132</ele>
        <time>2025-04-12T10:06:53Z</time>
      </trkpt>
      <trkpt lat="43.62918" lon="1.4006">
        <ele>132</ele>
        <time>2025-04-12T10:06:54Z</time>
      </trkpt>
      <trkpt lat="43.62918" lon="1.4006">
        <ele>131</ele>
        <time>2025-04-12T10:06:55Z</time>
      </trkpt>
      <trkpt lat="43.62922" lon="1.40063">
        <ele>131</ele>
        <time>2025-04-12T10:06:56Z</time>
      </trkpt>
      <trkpt lat="43.62925" lon="1.40064">
        <ele>131</ele>
        <time>2025-04-12T10:06:57Z</time>
      </trkpt>
      <trkpt lat="43.62925" lon="1.40064">
        <ele>131</ele>
        <time>2025-04-12T10:06:58Z</time>
      </trkpt>
      <trkpt lat="43.62928" lon="1.40066">
        <ele>131</ele>
        <time>2025-04-12T10:06:59Z</time>
      </trkpt>
      <trkpt lat="43.62931" lon="1.40067">
        <ele>131</ele>
        <time>2025-04-12T10:07:00Z</time>
      </trkpt>
      <trkpt lat="43.62935" lon="1.40068">
        <ele>132</ele>
        <time>2025-04-12T10:07:01Z</time>
      </trkpt>
      <trkpt lat="43.62935" lon="1.40068">
        <ele>132</ele>
        <time>2025-04-12T10:07:02Z</time>
      </trkpt>
      <trkpt lat="43.6294" lon="1.40072">
        <ele>131</ele>
        <time>2025-04-12T10:07:03Z</time>
      </trkpt>
      <trkpt lat="43.6294" lon="1.40072">
        <ele>131</ele>
        <time>2025-04-12T10:07:04Z</time>
      </trkpt>
      <trkpt lat="43.62941" lon="1.40074">
        <ele>131</ele>
        <time>2025-04-12T10:07:05Z</time>
      </trkpt>
      <trkpt lat="43.62945" lon="1.40077">
        <ele>131</ele>
        <time>2025-04-12T10:07:06Z</time>
      </trkpt>
      <trkpt lat="43.62947" lon="1.40078">
        <ele>131</ele>
        <time>2025-04-12T10:07:07Z</time>
      </trkpt>
      <trkpt lat="43.62949" lon="1.40079">
        <ele>131</ele>
        <time>2025-04-12T10:07:08Z</time>
      </trkpt>
      <trkpt lat="43.62952" lon="1.40079">
        <ele>131</ele>
        <time>2025-04-12T10:07:09Z</time>
      </trkpt>
      <trkpt lat="43.62955" lon="1.4008">
        <ele>131</ele>
        <time>2025-04-12T10:07:10Z</time>
      </trkpt>
      <trkpt lat="43.62955" lon="1.4008">
        <ele>131</ele>
        <time>2025-04-12T10:07:11Z</time>
      </trkpt>
      <trkpt lat="43.62961" lon="1.4008">
        <ele>131</ele>
        <time>2025-04-12T10:07:12Z</time>
      </trkpt>
      <trkpt lat="43.62964" lon="1.4008">
        <ele>131</ele>
        <time>2025-04-12T10:07:13Z</time>
      </trkpt>
      <trkpt lat="43.62964" lon="1.4008">
        <ele>131</ele>
        <time>2025-04-12T10:07:14Z</time>
      </trkpt>
      <trkpt lat="43.62967" lon="1.4008">
        <ele>131</ele>
        <time>2025-04-12T10:07:15Z</time>
      </trkpt>
      <trkpt lat="43.62973" lon="1.40081">
        <ele>132</ele>
        <time>2025-04-12T10:07:16Z</time>
      </trkpt>
      <trkpt lat="43.62973" lon="1.40081">
        <ele>132</ele>
        <time>2025-04-12T10:07:17Z</time>
      </trkpt>
      <trkpt lat="43.6298" lon="1.40082">
        <ele>132</ele>
        <time>2025-04-12T10:07:18Z</time>
      </trkpt>
      <trkpt lat="43.6298" lon="1.40082">
        <ele>132</ele>
        <time>2025-04-12T10:07:19Z</time>
      </trkpt>
      <trkpt lat="43.62985" lon="1.40083">
        <ele>132</ele>
        <time>2025-04-12T10:07:20Z</time>
      </trkpt>
      <trkpt lat="43.62988" lon="1.40083">
        <ele>132</ele>
        <time>2025-04-12T10:07:21Z</time>
      </trkpt>
      <trkpt lat="43.62988" lon="1.40083">
        <ele>132</ele>
        <time>2025-04-12T10:07:22Z</time>
      </trkpt>
      <trkpt lat="43.62993" lon="1.40084">
        <ele>132</ele>
        <time>2025-04-12T10:07:23Z</time>
      </trkpt>
      <trkpt lat="43.62993" lon="1.40084">
        <ele>132</ele>
        <time>2025-04-12T10:07:24Z</time>
      </trkpt>
      <trkpt lat="43.62996" lon="1.40084">
        <ele>132</ele>
        <time>2025-04-12T10:07:25Z</time>
      </trkpt>
      <trkpt lat="43.63" lon="1.40084">
        <ele>132</ele>
        <time>2025-04-12T10:07:26Z</time>
      </trkpt>
      <trkpt lat="43.63003" lon="1.40085">
        <ele>132</ele>
        <time>2025-04-12T10:07:27Z</time>
      </trkpt>
      <trkpt lat="43.63003" lon="1.40085">
        <ele>132</ele>
        <time>2025-04-12T10:07:28Z</time>
      </trkpt>
      <trkpt lat="43.63008" lon="1.40085">
        <ele>132</ele>
        <time>2025-04-12T10:07:29Z</time>
      </trkpt>
      <trkpt lat="43.63008" lon="1.40085">
        <ele>132</ele>
        <time>2025-04-12T10:07:30Z</time>
      </trkpt>
      <trkpt lat="43.63014" lon="1.40086">
        <ele>132</ele>
        <time>2025-04-12T10:07:31Z</time>
      </trkpt>
      <trkpt lat="43.63014" lon="1.40086">
        <ele>132</ele>
        <time>2025-04-12T10:07:32Z</time>
      </trkpt>
      <trkpt lat="43.63019" lon="1.40088">
        <ele>132</ele>
        <time>2025-04-12T10:07:33Z</time>
      </trkpt>
      <trkpt lat="43.63022" lon="1.40089">
        <ele>132</ele>
        <time>2025-04-12T10:07:34Z</time>
      </trkpt>
      <trkpt lat="43.63022" lon="1.40089">
        <ele>132</ele>
        <time>2025-04-12T10:07:35Z</time>
      </trkpt>
      <trkpt lat="43.63027" lon="1.40092">
        <ele>132</ele>
        <time>2025-04-12T10:07:36Z</time>
      </trkpt>
      <trkpt lat="43.6303" lon="1.40093">
        <ele>132</ele>
        <time>2025-04-12T10:07:37Z</time>
      </trkpt>
      <trkpt lat="43.63032" lon="1.40095">
        <ele>132</ele>
        <time>2025-04-12T10:07:38Z</time>
      </trkpt>
      <trkpt lat="43.63034" lon="1.40097">
        <ele>132</ele>
        <time>2025-04-12T10:07:39Z</time>
      </trkpt>
      <trkpt lat="43.63037" lon="1.40098">
        <ele>132</ele>
        <time>2025-04-12T10:07:40Z</time>
      </trkpt>
      <trkpt lat="43.63039" lon="1.40098">
        <ele>132</ele>
        <time>2025-04-12T10:07:41Z</time>
      </trkpt>
      <trkpt lat="43.63041" lon="1.40098">
        <ele>132</ele>
        <time>2025-04-12T10:07:42Z</time>
      </trkpt>
      <trkpt lat="43.63043" lon="1.40098">
        <ele>132</ele>
        <time>2025-04-12T10:07:43Z</time>
      </trkpt>
      <trkpt lat="43.63046" lon="1.40097">
        <ele>132</ele>
        <time>2025-04-12T10:07:44Z</time>
      </trkpt>
      <trkpt lat="43.63046" lon="1.40097">
        <ele>132</ele>
        <time>2025-04-12T10:07:45Z</time>
      </trkpt>
      <trkpt lat="43.63048" lon="1.40097">
        <ele>132</ele>
        <time>2025-04-12T10:07:46Z</time>
      </trkpt>
      <trkpt lat="43.6305" lon="1.40098">
        <ele>133</ele>
        <time>2025-04-12T10:07:47Z</time>
      </trkpt>
      <trkpt lat="43.63053" lon="1.40099">
        <ele>133</ele>
        <time>2025-04-12T10:07:48Z</time>
      </trkpt>
      <trkpt lat="43.63059" lon="1.40099">
        <ele>133</ele>
        <time>2025-04-12T10:07:49Z</time>
      </trkpt>
      <trkpt lat="43.63062" lon="1.401">
        <ele>133</ele>
        <time>2025-04-12T10:07:50Z</time>
      </trkpt>
      <trkpt lat="43.63062" lon="1.401">
        <ele>133</ele>
        <time>2025-04-12T10:07:51Z</time>
      </trkpt>
      <trkpt lat="43.63067" lon="1.40102">
        <ele>133</ele>
        <time>2025-04-12T10:07:52Z</time>
      </trkpt>
      <trkpt lat="43.63069" lon="1.40103">
        <ele>133</ele>
        <time>2025-04-12T10:07:53Z</time>
      </trkpt>
      <trkpt lat="43.63069" lon="1.40103">
        <ele>133</ele>
        <time>2025-04-12T10:07:54Z</time>
      </trkpt>
      <trkpt lat="43.63075" lon="1.40107">
        <ele>133</ele>
        <time>2025-04-12T10:07:55Z</time>
      </trkpt>
      <trkpt lat="43.63078" lon="1.40108">
        <ele>133</ele>
        <time>2025-04-12T10:07:56Z</time>
      </trkpt>
      <trkpt lat="43.63082" lon="1.4011">
        <ele>133</ele>
        <time>2025-04-12T10:07:57Z</time>
      </trkpt>
      <trkpt lat="43.63082" lon="1.4011">
        <ele>133</ele>
        <time>2025-04-12T10:07:58Z</time>
      </trkpt>
      <trkpt lat="43.63088" lon="1.40113">
        <ele>132</ele>
        <time>2025-04-12T10:07:59Z</time>
      </trkpt>
      <trkpt lat="43.63092" lon="1.40113">
        <ele>132</ele>
        <time>2025-04-12T10:08:00Z</time>
      </trkpt>
      <trkpt lat="43.63092" lon="1.40113">
        <ele>132</ele>
        <time>2025-04-12T10:08:01Z</time>
      </trkpt>
      <trkpt lat="43.63094" lon="1.40114">
        <ele>132</ele>
        <time>2025-04-12T10:08:02Z</time>
      </trkpt>
      <trkpt lat="43.63097" lon="1.40114">
        <ele>132</ele>
        <time>2025-04-12T10:08:03Z</time>
      </trkpt>
      <trkpt lat="43.63103" lon="1.40115">
        <ele>132</ele>
        <time>2025-04-12T10:08:04Z</time>
      </trkpt>
      <trkpt lat="43.63106" lon="1.40116">
        <ele>132</ele>
        <time>2025-04-12T10:08:06Z</time>
      </trkpt>
      <trkpt lat="43.63111" lon="1.40117">
        <ele>132</ele>
        <time>2025-04-12T10:08:07Z</time>
      </trkpt>
      <trkpt lat="43.63113" lon="1.40118">
        <ele>132</ele>
        <time>2025-04-12T10:08:08Z</time>
      </trkpt>
      <trkpt lat="43.63113" lon="1.40118">
        <ele>132</ele>
        <time>2025-04-12T10:08:09Z</time>
      </trkpt>
      <trkpt lat="43.63119" lon="1.4012">
        <ele>132</ele>
        <time>2025-04-12T10:08:10Z</time>
      </trkpt>
      <trkpt lat="43.63119" lon="1.4012">
        <ele>132</ele>
        <time>2025-04-12T10:08:11Z</time>
      </trkpt>
      <trkpt lat="43.63124" lon="1.40121">
        <ele>133</ele>
        <time>2025-04-12T10:08:12Z</time>
      </trkpt>
      <trkpt lat="43.63124" lon="1.40121">
        <ele>133</ele>
        <time>2025-04-12T10:08:13Z</time>
      </trkpt>
      <trkpt lat="43.63126" lon="1.40122">
        <ele>133</ele>
        <time>2025-04-12T10:08:14Z</time>
      </trkpt>
      <trkpt lat="43.63131" lon="1.40124">
        <ele>133</ele>
        <time>2025-04-12T10:08:15Z</time>
      </trkpt>
      <trkpt lat="43.63131" lon="1.40124">
        <ele>132</ele>
        <time>2025-04-12T10:08:16Z</time>
      </trkpt>
      <trkpt lat="43.63137" lon="1.40126">
        <ele>132</ele>
        <time>2025-04-12T10:08:17Z</time>
      </trkpt>
      <trkpt lat="43.63137" lon="1.40126">
        <ele>132</ele>
        <time>2025-04-12T10:08:18Z</time>
      </trkpt>
      <trkpt lat="43.63142" lon="1.40128">
        <ele>131</ele>
        <time>2025-04-12T10:08:19Z</time>
      </trkpt>
      <trkpt lat="43.63144" lon="1.4013">
        <ele>131</ele>
        <time>2025-04-12T10:08:20Z</time>
      </trkpt>
      <trkpt lat="43.63144" lon="1.4013">
        <ele>131</ele>
        <time>2025-04-12T10:08:21Z</time>
      </trkpt>
      <trkpt lat="43.6315" lon="1.40134">
        <ele>131</ele>
        <time>2025-04-12T10:08:22Z</time>
      </trkpt>
      <trkpt lat="43.6315" lon="1.40134">
        <ele>132</ele>
        <time>2025-04-12T10:08:23Z</time>
      </trkpt>
      <trkpt lat="43.63153" lon="1.40136">
        <ele>132</ele>
        <time>2025-04-12T10:08:24Z</time>
      </trkpt>
      <trkpt lat="43.63157" lon="1.40139">
        <ele>132</ele>
        <time>2025-04-12T10:08:25Z</time>
      </trkpt>
      <trkpt lat="43.63159" lon="1.4014">
        <ele>132</ele>
        <time>2025-04-12T10:08:27Z</time>
      </trkpt>
      <trkpt lat="43.63163" lon="1.40143">
        <ele>132</ele>
        <time>2025-04-12T10:08:28Z</time>
      </trkpt>
      <trkpt lat="43.63163" lon="1.40143">
        <ele>132</ele>
        <time>2025-04-12T10:08:29Z</time>
      </trkpt>
      <trkpt lat="43.63166" lon="1.40145">
        <ele>131</ele>
        <time>2025-04-12T10:08:30Z</time>
      </trkpt>
      <trkpt lat="43.63169" lon="1.40147">
        <ele>131</ele>
        <time>2025-04-12T10:08:31Z</time>
      </trkpt>
      <trkpt lat="43.63171" lon="1.40149">
        <ele>132</ele>
        <time>2025-04-12T10:08:32Z</time>
      </trkpt>
      <trkpt lat="43.63176" lon="1.40152">
        <ele>132</ele>
        <time>2025-04-12T10:08:33Z</time>
      </trkpt>
      <trkpt lat="43.63179" lon="1.40154">
        <ele>132</ele>
        <time>2025-04-12T10:08:34Z</time>
      </trkpt>
      <trkpt lat="43.63181" lon="1.40156">
        <ele>131</ele>
        <time>2025-04-12T10:08:35Z</time>
      </trkpt>
      <trkpt lat="43.63181" lon="1.40156">
        <ele>131</ele>
        <time>2025-04-12T10:08:36Z</time>
      </trkpt>
      <trkpt lat="43.63184" lon="1.40156">
        <ele>131</ele>
        <time>2025-04-12T10:08:37Z</time>
      </trkpt>
      <trkpt lat="43.63187" lon="1.40156">
        <ele>131</ele>
        <time>2025-04-12T10:08:38Z</time>
      </trkpt>
      <trkpt lat="43.63192" lon="1.40155">
        <ele>131</ele>
        <time>2025-04-12T10:08:39Z</time>
      </trkpt>
      <trkpt lat="43.63195" lon="1.40153">
        <ele>131</ele>
        <time>2025-04-12T10:08:40Z</time>
      </trkpt>
      <trkpt lat="43.63198" lon="1.40153">
        <ele>131</ele>
        <time>2025-04-12T10:08:41Z</time>
      </trkpt>
      <trkpt lat="43.632" lon="1.40156">
        <ele>132</ele>
        <time>2025-04-12T10:08:43Z</time>
      </trkpt>
      <trkpt lat="43.63205" lon="1.40161">
        <ele>132</ele>
        <time>2025-04-12T10:08:44Z</time>
      </trkpt>
      <trkpt lat="43.63205" lon="1.40161">
        <ele>132</ele>
        <time>2025-04-12T10:08:45Z</time>
      </trkpt>
      <trkpt lat="43.63211" lon="1.40164">
        <ele>132</ele>
        <time>2025-04-12T10:08:46Z</time>
      </trkpt>
      <trkpt lat="43.63211" lon="1.40164">
        <ele>132</ele>
        <time>2025-04-12T10:08:47Z</time>
      </trkpt>
      <trkpt lat="43.63216" lon="1.40164">
        <ele>132</ele>
        <time>2025-04-12T10:08:48Z</time>
      </trkpt>
      <trkpt lat="43.63216" lon="1.40164">
        <ele>132</ele>
        <time>2025-04-12T10:08:49Z</time>
      </trkpt>
      <trkpt lat="43.63218" lon="1.40164">
        <ele>132</ele>
        <time>2025-04-12T10:08:50Z</time>
      </trkpt>
      <trkpt lat="43.63223" lon="1.40165">
        <ele>132</ele>
        <time>2025-04-12T10:08:51Z</time>
      </trkpt>
      <trkpt lat="43.63223" lon="1.40165">
        <ele>131</ele>
        <time>2025-04-12T10:08:52Z</time>
      </trkpt>
      <trkpt lat="43.63228" lon="1.40167">
        <ele>131</ele>
        <time>2025-04-12T10:08:53Z</time>
      </trkpt>
      <trkpt lat="43.63228" lon="1.40167">
        <ele>131</ele>
        <time>2025-04-12T10:08:54Z</time>
      </trkpt>
      <trkpt lat="43.63233" lon="1.4017">
        <ele>131</ele>
        <time>2025-04-12T10:08:55Z</time>
      </trkpt>
      <trkpt lat="43.63233" lon="1.4017">
        <ele>131</ele>
        <time>2025-04-12T10:08:56Z</time>
      </trkpt>
      <trkpt lat="43.63239" lon="1.40171">
        <ele>131</ele>
        <time>2025-04-12T10:08:57Z</time>
      </trkpt>
      <trkpt lat="43.63241" lon="1.40171">
        <ele>131</ele>
        <time>2025-04-12T10:08:58Z</time>
      </trkpt>
      <trkpt lat="43.63241" lon="1.40171">
        <ele>131</ele>
        <time>2025-04-12T10:08:59Z</time>
      </trkpt>
      <trkpt lat="43.63244" lon="1.40172">
        <ele>131</ele>
        <time>2025-04-12T10:09:00Z</time>
      </trkpt>
      <trkpt lat="43.63248" lon="1.40175">
        <ele>131</ele>
        <time>2025-04-12T10:09:01Z</time>
      </trkpt>
      <trkpt lat="43.63251" lon="1.40177">
        <ele>131</ele>
        <time>2025-04-12T10:09:02Z</time>
      </trkpt>
      <trkpt lat="43.63251" lon="1.40177">
        <ele>131</ele>
        <time>2025-04-12T10:09:03Z</time>
      </trkpt>
      <trkpt lat="43.63252" lon="1.40178">
        <ele>131</ele>
        <time>2025-04-12T10:09:04Z</time>
      </trkpt>
      <trkpt lat="43.63257" lon="1.4018">
        <ele>130</ele>
        <time>2025-04-12T10:09:05Z</time>
      </trkpt>
      <trkpt lat="43.63257" lon="1.4018">
        <ele>130</ele>
        <time>2025-04-12T10:09:06Z</time>
      </trkpt>
      <trkpt lat="43.63259" lon="1.40182">
        <ele>130</ele>
        <time>2025-04-12T10:09:07Z</time>
      </trkpt>
      <trkpt lat="43.63261" lon="1.40184">
        <ele>130</ele>
        <time>2025-04-12T10:09:08Z</time>
      </trkpt>
      <trkpt lat="43.63267" lon="1.40186">
        <ele>131</ele>
        <time>2025-04-12T10:09:09Z</time>
      </trkpt>
      <trkpt lat="43.6327" lon="1.40186">
        <ele>131</ele>
        <time>2025-04-12T10:09:10Z</time>
      </trkpt>
      <trkpt lat="43.63272" lon="1.40187">
        <ele>131</ele>
        <time>2025-04-12T10:09:11Z</time>
      </trkpt>
      <trkpt lat="43.63272" lon="1.40187">
        <ele>131</ele>
        <time>2025-04-12T10:09:12Z</time>
      </trkpt>
      <trkpt lat="43.63275" lon="1.40187">
        <ele>131</ele>
        <time>2025-04-12T10:09:13Z</time>
      </trkpt>
      <trkpt lat="43.63278" lon="1.40187">
        <ele>131</ele>
        <time>2025-04-12T10:09:14Z</time>
      </trkpt>
      <trkpt lat="43.63283" lon="1.40188">
        <ele>131</ele>
        <time>2025-04-12T10:09:15Z</time>
      </trkpt>
      <trkpt lat="43.63286" lon="1.40189">
        <ele>131</ele>
        <time>2025-04-12T10:09:16Z</time>
      </trkpt>
      <trkpt lat="43.63289" lon="1.4019">
        <ele>131</ele>
        <time>2025-04-12T10:09:17Z</time>
      </trkpt>
      <trkpt lat="43.63292" lon="1.40191">
        <ele>131</ele>
        <time>2025-04-12T10:09:18Z</time>
      </trkpt>
      <trkpt lat="43.63292" lon="1.40191">
        <ele>131</ele>
        <time>2025-04-12T10:09:19Z</time>
      </trkpt>
      <trkpt lat="43.63298" lon="1.40194">
        <ele>131</ele>
        <time>2025-04-12T10:09:20Z</time>
      </trkpt>
      <trkpt lat="43.63298" lon="1.40194">
        <ele>131</ele>
        <time>2025-04-12T10:09:21Z</time>
      </trkpt>
      <trkpt lat="43.63301" lon="1.40197">
        <ele>131</ele>
        <time>2025-04-12T10:09:22Z</time>
      </trkpt>
      <trkpt lat="43.63303" lon="1.40199">
        <ele>131</ele>
        <time>2025-04-12T10:09:23Z</time>
      </trkpt>
      <trkpt lat="43.63308" lon="1.40203">
        <ele>130</ele>
        <time>2025-04-12T10:09:24Z</time>
      </trkpt>
      <trkpt lat="43.63308" lon="1.40203">
        <ele>130</ele>
        <time>2025-04-12T10:09:25Z</time>
      </trkpt>
      <trkpt lat="43.63312" lon="1.40205">
        <ele>130</ele>
        <time>2025-04-12T10:09:26Z</time>
      </trkpt>
      <trkpt lat="43.63314" lon="1.40206">
        <ele>130</ele>
        <time>2025-04-12T10:09:27Z</time>
      </trkpt>
      <trkpt lat="43.63317" lon="1.40206">
        <ele>130</ele>
        <time>2025-04-12T10:09:28Z</time>
      </trkpt>
      <trkpt lat="43.63319" lon="1.40207">
        <ele>130</ele>
        <time>2025-04-12T10:09:29Z</time>
      </trkpt>
      <trkpt lat="43.63321" lon="1.40208">
        <ele>130</ele>
        <time>2025-04-12T10:09:30Z</time>
      </trkpt>
      <trkpt lat="43.63321" lon="1.40208">
        <ele>130</ele>
        <time>2025-04-12T10:09:31Z</time>
      </trkpt>
      <trkpt lat="43.63323" lon="1.40208">
        <ele>130</ele>
        <time>2025-04-12T10:09:32Z</time>
      </trkpt>
      <trkpt lat="43.63325" lon="1.4021">
        <ele>130</ele>
        <time>2025-04-12T10:09:33Z</time>
      </trkpt>
      <trkpt lat="43.63328" lon="1.40211">
        <ele>129</ele>
        <time>2025-04-12T10:09:34Z</time>
      </trkpt>
      <trkpt lat="43.63334" lon="1.40213">
        <ele>129</ele>
        <time>2025-04-12T10:09:35Z</time>
      </trkpt>
      <trkpt lat="43.63337" lon="1.40214">
        <ele>129</ele>
        <time>2025-04-12T10:09:36Z</time>
      </trkpt>
      <trkpt lat="43.6334" lon="1.40215">
        <ele>129</ele>
        <time>2025-04-12T10:09:37Z</time>
      </trkpt>
      <trkpt lat="43.63342" lon="1.40216">
        <ele>130</ele>
        <time>2025-04-12T10:09:38Z</time>
      </trkpt>
      <trkpt lat="43.63345" lon="1.40217">
        <ele>130</ele>
        <time>2025-04-12T10:09:39Z</time>
      </trkpt>
      <trkpt lat="43.63345" lon="1.40217">
        <ele>130</ele>
        <time>2025-04-12T10:09:40Z</time>
      </trkpt>
      <trkpt lat="43.63347" lon="1.40218">
        <ele>130</ele>
        <time>2025-04-12T10:09:41Z</time>
      </trkpt>
      <trkpt lat="43.63352" lon="1.40219">
        <ele>130</ele>
        <time>2025-04-12T10:09:42Z</time>
      </trkpt>
      <trkpt lat="43.63355" lon="1.4022">
        <ele>131</ele>
        <time>2025-04-12T10:09:43Z</time>
      </trkpt>
      <trkpt lat="43.63355" lon="1.4022">
        <ele>131</ele>
        <time>2025-04-12T10:09:44Z</time>
      </trkpt>
      <trkpt lat="43.63361" lon="1.40221">
        <ele>131</ele>
        <time>2025-04-12T10:09:45Z</time>
      </trkpt>
      <trkpt lat="43.63361" lon="1.40221">
        <ele>131</ele>
        <time>2025-04-12T10:09:46Z</time>
      </trkpt>
      <trkpt lat="43.63363" lon="1.40222">
        <ele>131</ele>
        <time>2025-04-12T10:09:47Z</time>
      </trkpt>
      <trkpt lat="43.63368" lon="1.40224">
        <ele>131</ele>
        <time>2025-04-12T10:09:48Z</time>
      </trkpt>
      <trkpt lat="43.63368" lon="1.40224">
        <ele>131</ele>
        <time>2025-04-12T10:09:49Z</time>
      </trkpt>
      <trkpt lat="43.63371" lon="1.40225">
        <ele>131</ele>
        <time>2025-04-12T10:09:50Z</time>
      </trkpt>
      <trkpt lat="43.63371" lon="1.40225">
        <ele>131</ele>
        <time>2025-04-12T10:09:51Z</time>
      </trkpt>
      <trkpt lat="43.63375" lon="1.40226">
        <ele>131</ele>
        <time>2025-04-12T10:09:52Z</time>
      </trkpt>
      <trkpt lat="43.63375" lon="1.40226">
        <ele>132</ele>
        <time>2025-04-12T10:09:53Z</time>
      </trkpt>
      <trkpt lat="43.63375" lon="1.40226">
        <ele>132</ele>
        <time>2025-04-12T10:09:54Z</time>
      </trkpt>
      <trkpt lat="43.63378" lon="1.40226">
        <ele>132</ele>
        <time>2025-04-12T10:09:55Z</time>
      </trkpt>
      <trkpt lat="43.63378" lon="1.40226">
        <ele>132</ele>
        <time>2025-04-12T10:09:56Z</time>
      </trkpt>
      <trkpt lat="43.63381" lon="1.40226">
        <ele>132</ele>
        <time>2025-04-12T10:09:57Z</time>
      </trkpt>
      <trkpt lat="43.63383" lon="1.40226">
        <ele>132</ele>
        <time>2025-04-12T10:09:58Z</time>
      </trkpt>
      <trkpt lat="43.63385" lon="1.40226">
        <ele>132</ele>
        <time>2025-04-12T10:09:59Z</time>
      </trkpt>
      <trkpt lat="43.63387" lon="1.40227">
        <ele>132</ele>
        <time>2025-04-12T10:10:00Z</time>
      </trkpt>
      <trkpt lat="43.63387" lon="1.40227">
        <ele>132</ele>
        <time>2025-04-12T10:10:02Z</time>
      </trkpt>
      <trkpt lat="43.6339" lon="1.40229">
        <ele>132</ele>
        <time>2025-04-12T10:10:03Z</time>
      </trkpt>
      <trkpt lat="43.63392" lon="1.4023">
        <ele>132</ele>
        <time>2025-04-12T10:10:04Z</time>
      </trkpt>
      <trkpt lat="43.63392" lon="1.4023">
        <ele>133</ele>
        <time>2025-04-12T10:10:05Z</time>
      </trkpt>
      <trkpt lat="43.63395" lon="1.40231">
        <ele>133</ele>
        <time>2025-04-12T10:10:06Z</time>
      </trkpt>
      <trkpt lat="43.63395" lon="1.40231">
        <ele>133</ele>
        <time>2025-04-12T10:10:07Z</time>
      </trkpt>
      <trkpt lat="43.63398" lon="1.40232">
        <ele>133</ele>
        <time>2025-04-12T10:10:08Z</time>
      </trkpt>
      <trkpt lat="43.63398" lon="1.40232">
        <ele>133</ele>
        <time>2025-04-12T10:10:09Z</time>
      </trkpt>
      <trkpt lat="43.63398" lon="1.40232">
        <ele>133</ele>
        <time>2025-04-12T10:10:10Z</time>
      </trkpt>
      <trkpt lat="43.634" lon="1.40233">
        <ele>133</ele>
        <time>2025-04-12T10:10:11Z</time>
      </trkpt>
      <trkpt lat="43.634" lon="1.40233">
        <ele>133</ele>
        <time>2025-04-12T10:10:12Z</time>
      </trkpt>
      <trkpt lat="43.63403" lon="1.40234">
        <ele>133</ele>
        <time>2025-04-12T10:10:13Z</time>
      </trkpt>
      <trkpt lat="43.63403" lon="1.40234">
        <ele>133</ele>
        <time>2025-04-12T10:10:14Z</time>
      </trkpt>
      <trkpt lat="43.63406" lon="1.40234">
        <ele>133</ele>
        <time>2025-04-12T10:10:15Z</time>
      </trkpt>
      <trkpt lat="43.63408" lon="1.40234">
        <ele>133</ele>
        <time>2025-04-12T10:10:16Z</time>
      </trkpt>
      <trkpt lat="43.63408" lon="1.40234">
        <ele>133</ele>
        <time>2025-04-12T10:10:17Z</time>
      </trkpt>
      <trkpt lat="43.63411" lon="1.40235">
        <ele>133</ele>
        <time>2025-04-12T10:10:18Z</time>
      </trkpt>
      <trkpt lat="43.63411" lon="1.40235">
        <ele>133</ele>
        <time>2025-04-12T10:10:19Z</time>
      </trkpt>
      <trkpt lat="43.63413" lon="1.40236">
        <ele>133</ele>
        <time>2025-04-12T10:10:20Z</time>
      </trkpt>
      <trkpt lat="43.63413" lon="1.40236">
        <ele>133</ele>
        <time>2025-04-12T10:10:21Z</time>
      </trkpt>
      <trkpt lat="43.63413" lon="1.40236">
        <ele>133</ele>
        <time>2025-04-12T10:10:22Z</time>
      </trkpt>
      <trkpt lat="43.63416" lon="1.40237">
        <ele>133</ele>
        <time>2025-04-12T10:10:23Z</time>
      </trkpt>
      <trkpt lat="43.63416" lon="1.40237">
        <ele>133</ele>
        <time>2025-04-12T10:10:24Z</time>
      </trkpt>
      <trkpt lat="43.63419" lon="1.40238">
        <ele>133</ele>
        <time>2025-04-12T10:10:25Z</time>
      </trkpt>
      <trkpt lat="43.63421" lon="1.40239">
        <ele>133</ele>
        <time>2025-04-12T10:10:26Z</time>
      </trkpt>
      <trkpt lat="43.63421" lon="1.40239">
        <ele>133</ele>
        <time>2025-04-12T10:10:27Z</time>
      </trkpt>
      <trkpt lat="43.63421" lon="1.40239">
        <ele>133</ele>
        <time>2025-04-12T10:10:28Z</time>
      </trkpt>
      <trkpt lat="43.63424" lon="1.4024">
        <ele>133</ele>
        <time>2025-04-12T10:10:29Z</time>
      </trkpt>
      <trkpt lat="43.63424" lon="1.4024">
        <ele>133</ele>
        <time>2025-04-12T10:10:30Z</time>
      </trkpt>
      <trkpt lat="43.63426" lon="1.40241">
        <ele>133</ele>
        <time>2025-04-12T10:10:31Z</time>
      </trkpt>
      <trkpt lat="43.63426" lon="1.40241">
        <ele>133</ele>
        <time>2025-04-12T10:10:32Z</time>
      </trkpt>
      <trkpt lat="43.63429" lon="1.40243">
        <ele>133</ele>
        <time>2025-04-12T10:10:33Z</time>
      </trkpt>
      <trkpt lat="43.63431" lon="1.40243">
        <ele>133</ele>
        <time>2025-04-12T10:10:34Z</time>
      </trkpt>
      <trkpt lat="43.63431" lon="1.40243">
        <ele>133</ele>
        <time>2025-04-12T10:10:35Z</time>
      </trkpt>
      <trkpt lat="43.63431" lon="1.40243">
        <ele>133</ele>
        <time>2025-04-12T10:10:36Z</time>
      </trkpt>
      <trkpt lat="43.63434" lon="1.40244">
        <ele>133</ele>
        <time>2025-04-12T10:10:37Z</time>
      </trkpt>
      <trkpt lat="43.63437" lon="1.40245">
        <ele>133</ele>
        <time>2025-04-12T10:10:38Z</time>
      </trkpt>
      <trkpt lat="43.63439" lon="1.40246">
        <ele>133</ele>
        <time>2025-04-12T10:10:40Z</time>
      </trkpt>
      <trkpt lat="43.63439" lon="1.40246">
        <ele>133</ele>
        <time>2025-04-12T10:10:41Z</time>
      </trkpt>
      <trkpt lat="43.63442" lon="1.40246">
        <ele>133</ele>
        <time>2025-04-12T10:10:42Z</time>
      </trkpt>
      <trkpt lat="43.63442" lon="1.40246">
        <ele>133</ele>
        <time>2025-04-12T10:10:43Z</time>
      </trkpt>
      <trkpt lat="43.63442" lon="1.40246">
        <ele>133</ele>
        <time>2025-04-12T10:10:44Z</time>
      </trkpt>
      <trkpt lat="43.63445" lon="1.40245">
        <ele>133</ele>
        <time>2025-04-12T10:10:45Z</time>
      </trkpt>
      <trkpt lat="43.63445" lon="1.40245">
        <ele>133</ele>
        <time>2025-04-12T10:10:46Z</time>
      </trkpt>
      <trkpt lat="43.63448" lon="1.40246">
        <ele>133</ele>
        <time>2025-04-12T10:10:47Z</time>
      </trkpt>
      <trkpt lat="43.63448" lon="1.40246">
        <ele>133</ele>
        <time>2025-04-12T10:10:48Z</time>
      </trkpt>
      <trkpt lat="43.63453" lon="1.40247">
        <ele>133</ele>
        <time>2025-04-12T10:10:49Z</time>
      </trkpt>
      <trkpt lat="43.63453" lon="1.40247">
        <ele>133</ele>
        <time>2025-04-12T10:10:50Z</time>
      </trkpt>
      <trkpt lat="43.63456" lon="1.40248">
        <ele>133</ele>
        <time>2025-04-12T10:10:51Z</time>
      </trkpt>
      <trkpt lat="43.63461" lon="1.40248">
        <ele>133</ele>
        <time>2025-04-12T10:10:52Z</time>
      </trkpt>
      <trkpt lat="43.63461" lon="1.40248">
        <ele>133</ele>
        <time>2025-04-12T10:10:53Z</time>
      </trkpt>
      <trkpt lat="43.63466" lon="1.40249">
        <ele>133</ele>
        <time>2025-04-12T10:10:54Z</time>
      </trkpt>
      <trkpt lat="43.63466" lon="1.40249">
        <ele>133</ele>
        <time>2025-04-12T10:10:55Z</time>
      </trkpt>
      <trkpt lat="43.6347" lon="1.4025">
        <ele>134</ele>
        <time>2025-04-12T10:10:56Z</time>
      </trkpt>
      <trkpt lat="43.6347" lon="1.4025">
        <ele>134</ele>
        <time>2025-04-12T10:10:57Z</time>
      </trkpt>
      <trkpt lat="43.63472" lon="1.4025">
        <ele>133</ele>
        <time>2025-04-12T10:10:58Z</time>
      </trkpt>
      <trkpt lat="43.63477" lon="1.40251">
        <ele>133</ele>
        <time>2025-04-12T10:10:59Z</time>
      </trkpt>
      <trkpt lat="43.63477" lon="1.40251">
        <ele>133</ele>
        <time>2025-04-12T10:11:00Z</time>
      </trkpt>
      <trkpt lat="43.63482" lon="1.40252">
        <ele>133</ele>
        <time>2025-04-12T10:11:01Z</time>
      </trkpt>
      <trkpt lat="43.63484" lon="1.40252">
        <ele>133</ele>
        <time>2025-04-12T10:11:02Z</time>
      </trkpt>
      <trkpt lat="43.63484" lon="1.40252">
        <ele>133</ele>
        <time>2025-04-12T10:11:03Z</time>
      </trkpt>
      <trkpt lat="43.63486" lon="1.40251">
        <ele>133</ele>
        <time>2025-04-12T10:11:04Z</time>
      </trkpt>
      <trkpt lat="43.63492" lon="1.40253">
        <ele>133</ele>
        <time>2025-04-12T10:11:05Z</time>
      </trkpt>
      <trkpt lat="43.63495" lon="1.40255">
        <ele>133</ele>
        <time>2025-04-12T10:11:06Z</time>
      </trkpt>
      <trkpt lat="43.635" lon="1.40256">
        <ele>133</ele>
        <time>2025-04-12T10:11:08Z</time>
      </trkpt>
      <trkpt lat="43.63503" lon="1.40256">
        <ele>133</ele>
        <time>2025-04-12T10:11:09Z</time>
      </trkpt>
      <trkpt lat="43.63503" lon="1.40256">
        <ele>133</ele>
        <time>2025-04-12T10:11:10Z</time>
      </trkpt>
      <trkpt lat="43.63506" lon="1.40257">
        <ele>133</ele>
        <time>2025-04-12T10:11:11Z</time>
      </trkpt>
      <trkpt lat="43.63509" lon="1.40257">
        <ele>133</ele>
        <time>2025-04-12T10:11:12Z</time>
      </trkpt>
      <trkpt lat="43.63514" lon="1.40258">
        <ele>133</ele>
        <time>2025-04-12T10:11:13Z</time>
      </trkpt>
      <trkpt lat="43.63514" lon="1.40258">
        <ele>133</ele>
        <time>2025-04-12T10:11:14Z</time>
      </trkpt>
      <trkpt lat="43.6352" lon="1.40259">
        <ele>133</ele>
        <time>2025-04-12T10:11:15Z</time>
      </trkpt>
      <trkpt lat="43.6352" lon="1.40259">
        <ele>133</ele>
        <time>2025-04-12T10:11:16Z</time>
      </trkpt>
      <trkpt lat="43.63526" lon="1.40259">
        <ele>133</ele>
        <time>2025-04-12T10:11:17Z</time>
      </trkpt>
      <trkpt lat="43.63528" lon="1.40259">
        <ele>133</ele>
        <time>2025-04-12T10:11:18Z</time>
      </trkpt>
      <trkpt lat="43.63528" lon="1.40259">
        <ele>133</ele>
        <time>2025-04-12T10:11:19Z</time>
      </trkpt>
      <trkpt lat="43.6353" lon="1.4026">
        <ele>133</ele>
        <time>2025-04-12T10:11:20Z</time>
      </trkpt>
      <trkpt lat="43.63536" lon="1.40262">
        <ele>133</ele>
        <time>2025-04-12T10:11:21Z</time>
      </trkpt>
      <trkpt lat="43.63536" lon="1.40262">
        <ele>133</ele>
        <time>2025-04-12T10:11:22Z</time>
      </trkpt>
      <trkpt lat="43.63538" lon="1.40262">
        <ele>133</ele>
        <time>2025-04-12T10:11:23Z</time>
      </trkpt>
      <trkpt lat="43.63541" lon="1.40262">
        <ele>133</ele>
        <time>2025-04-12T10:11:24Z</time>
      </trkpt>
      <trkpt lat="43.63546" lon="1.40263">
        <ele>133</ele>
        <time>2025-04-12T10:11:25Z</time>
      </trkpt>
      <trkpt lat="43.63549" lon="1.40264">
        <ele>133</ele>
        <time>2025-04-12T10:11:26Z</time>
      </trkpt>
      <trkpt lat="43.63551" lon="1.40264">
        <ele>133</ele>
        <time>2025-04-12T10:11:27Z</time>
      </trkpt>
      <trkpt lat="43.63554" lon="1.40264">
        <ele>133</ele>
        <time>2025-04-12T10:11:28Z</time>
      </trkpt>
      <trkpt lat="43.63554" lon="1.40264">
        <ele>133</ele>
        <time>2025-04-12T10:11:29Z</time>
      </trkpt>
      <trkpt lat="43.63559" lon="1.40263">
        <ele>133</ele>
        <time>2025-04-12T10:11:30Z</time>
      </trkpt>
      <trkpt lat="43.63559" lon="1.40263">
        <ele>133</ele>
        <time>2025-04-12T10:11:31Z</time>
      </trkpt>
      <trkpt lat="43.63562" lon="1.40264">
        <ele>133</ele>
        <time>2025-04-12T10:11:32Z</time>
      </trkpt>
      <trkpt lat="43.63567" lon="1.40265">
        <ele>134</ele>
        <time>2025-04-12T10:11:33Z</time>
      </trkpt>
      <trkpt lat="43.6357" lon="1.40265">
        <ele>134</ele>
        <time>2025-04-12T10:11:34Z</time>
      </trkpt>
      <trkpt lat="43.6357" lon="1.40265">
        <ele>134</ele>
        <time>2025-04-12T10:11:35Z</time>
      </trkpt>
      <trkpt lat="43.63575" lon="1.40266">
        <ele>134</ele>
        <time>2025-04-12T10:11:36Z</time>
      </trkpt>
      <trkpt lat="43.63575" lon="1.40266">
        <ele>134</ele>
        <time>2025-04-12T10:11:37Z</time>
      </trkpt>
      <trkpt lat="43.63578" lon="1.40267">
        <ele>134</ele>
        <time>2025-04-12T10:11:38Z</time>
      </trkpt>
      <trkpt lat="43.63581" lon="1.40267">
        <ele>134</ele>
        <time>2025-04-12T10:11:39Z</time>
      </trkpt>
      <trkpt lat="43.63585" lon="1.40267">
        <ele>134</ele>
        <time>2025-04-12T10:11:40Z</time>
      </trkpt>
      <trkpt lat="43.63586" lon="1.40267">
        <ele>134</ele>
        <time>2025-04-12T10:11:41Z</time>
      </trkpt>
      <trkpt lat="43.63591" lon="1.40266">
        <ele>134</ele>
        <time>2025-04-12T10:11:42Z</time>
      </trkpt>
      <trkpt lat="43.63591" lon="1.40266">
        <ele>134</ele>
        <time>2025-04-12T10:11:43Z</time>
      </trkpt>
      <trkpt lat="43.63594" lon="1.40267">
        <ele>135</ele>
        <time>2025-04-12T10:11:44Z</time>
      </trkpt>
      <trkpt lat="43.63597" lon="1.40267">
        <ele>135</ele>
        <time>2025-04-12T10:11:45Z</time>
      </trkpt>
      <trkpt lat="43.63602" lon="1.40267">
        <ele>135</ele>
        <time>2025-04-12T10:11:46Z</time>
      </trkpt>
      <trkpt lat="43.63605" lon="1.40268">
        <ele>135</ele>
        <time>2025-04-12T10:11:47Z</time>
      </trkpt>
      <trkpt lat="43.63605" lon="1.40268">
        <ele>135</ele>
        <time>2025-04-12T10:11:48Z</time>
      </trkpt>
      <trkpt lat="43.63611" lon="1.40269">
        <ele>135</ele>
        <time>2025-04-12T10:11:49Z</time>
      </trkpt>
      <trkpt lat="43.63611" lon="1.40269">
        <ele>134</ele>
        <time>2025-04-12T10:11:50Z</time>
      </trkpt>
      <trkpt lat="43.63616" lon="1.40269">
        <ele>135</ele>
        <time>2025-04-12T10:11:51Z</time>
      </trkpt>
      <trkpt lat="43.63616" lon="1.40269">
        <ele>135</ele>
        <time>2025-04-12T10:11:52Z</time>
      </trkpt>
      <trkpt lat="43.63621" lon="1.40269">
        <ele>135</ele>
        <time>2025-04-12T10:11:53Z</time>
      </trkpt>
      <trkpt lat="43.63624" lon="1.40269">
        <ele>135</ele>
        <time>2025-04-12T10:11:54Z</time>
      </trkpt>
      <trkpt lat="43.63624" lon="1.40269">
        <ele>135</ele>
        <time>2025-04-12T10:11:55Z</time>
      </trkpt>
      <trkpt lat="43.63627" lon="1.40269">
        <ele>135</ele>
        <time>2025-04-12T10:11:56Z</time>
      </trkpt>
      <trkpt lat="43.63629" lon="1.4027">
        <ele>135</ele>
        <time>2025-04-12T10:11:57Z</time>
      </trkpt>
      <trkpt lat="43.63632" lon="1.4027">
        <ele>135</ele>
        <time>2025-04-12T10:11:58Z</time>
      </trkpt>
      <trkpt lat="43.63637" lon="1.4027">
        <ele>135</ele>
        <time>2025-04-12T10:11:59Z</time>
      </trkpt>
      <trkpt lat="43.63639" lon="1.4027">
        <ele>135</ele>
        <time>2025-04-12T10:12:00Z</time>
      </trkpt>
      <trkpt lat="43.63639" lon="1.4027">
        <ele>136</ele>
        <time>2025-04-12T10:12:01Z</time>
      </trkpt>
      <trkpt lat="43.63642" lon="1.40271">
        <ele>136</ele>
        <time>2025-04-12T10:12:02Z</time>
      </trkpt>
      <trkpt lat="43.63645" lon="1.40272">
        <ele>135</ele>
        <time>2025-04-12T10:12:03Z</time>
      </trkpt>
      <trkpt lat="43.63651" lon="1.40273">
        <ele>135</ele>
        <time>2025-04-12T10:12:04Z</time>
      </trkpt>
      <trkpt lat="43.63653" lon="1.40273">
        <ele>135</ele>
        <time>2025-04-12T10:12:05Z</time>
      </trkpt>
      <trkpt lat="43.63656" lon="1.40274">
        <ele>135</ele>
        <time>2025-04-12T10:12:06Z</time>
      </trkpt>
      <trkpt lat="43.63659" lon="1.40275">
        <ele>135</ele>
        <time>2025-04-12T10:12:07Z</time>
      </trkpt>
      <trkpt lat="43.63659" lon="1.40275">
        <ele>135</ele>
        <time>2025-04-12T10:12:08Z</time>
      </trkpt>
      <trkpt lat="43.63661" lon="1.40276">
        <ele>135</ele>
        <time>2025-04-12T10:12:09Z</time>
      </trkpt>
      <trkpt lat="43.63665" lon="1.40277">
        <ele>135</ele>
        <time>2025-04-12T10:12:10Z</time>
      </trkpt>
      <trkpt lat="43.63668" lon="1.4028">
        <ele>134</ele>
        <time>2025-04-12T10:12:11Z</time>
      </trkpt>
      <trkpt lat="43.63675" lon="1.40284">
        <ele>134</ele>
        <time>2025-04-12T10:12:12Z</time>
      </trkpt>
      <trkpt lat="43.63677" lon="1.40286">
        <ele>134</ele>
        <time>2025-04-12T10:12:13Z</time>
      </trkpt>
      <trkpt lat="43.63677" lon="1.40286">
        <ele>133</ele>
        <time>2025-04-12T10:12:14Z</time>
      </trkpt>
      <trkpt lat="43.63683" lon="1.40288">
        <ele>132</ele>
        <time>2025-04-12T10:12:15Z</time>
      </trkpt>
      <trkpt lat="43.63686" lon="1.40289">
        <ele>132</ele>
        <time>2025-04-12T10:12:16Z</time>
      </trkpt>
      <trkpt lat="43.63686" lon="1.40289">
        <ele>130</ele>
        <time>2025-04-12T10:12:17Z</time>
      </trkpt>
      <trkpt lat="43.6369" lon="1.40288">
        <ele>130</ele>
        <time>2025-04-12T10:12:18Z</time>
      </trkpt>
      <trkpt lat="43.63693" lon="1.40286">
        <ele>130</ele>
        <time>2025-04-12T10:12:19Z</time>
      </trkpt>
      <trkpt lat="43.63693" lon="1.40286">
        <ele>130</ele>
        <time>2025-04-12T10:12:20Z</time>
      </trkpt>
      <trkpt lat="43.63695" lon="1.40286">
        <ele>130</ele>
        <time>2025-04-12T10:12:21Z</time>
      </trkpt>
      <trkpt lat="43.63697" lon="1.40285">
        <ele>130</ele>
        <time>2025-04-12T10:12:22Z</time>
      </trkpt>
      <trkpt lat="43.63702" lon="1.40283">
        <ele>130</ele>
        <time>2025-04-12T10:12:23Z</time>
      </trkpt>
      <trkpt lat="43.63702" lon="1.40283">
        <ele>131</ele>
        <time>2025-04-12T10:12:24Z</time>
      </trkpt>
      <trkpt lat="43.63708" lon="1.40281">
        <ele>131</ele>
        <time>2025-04-12T10:12:25Z</time>
      </trkpt>
      <trkpt lat="43.63708" lon="1.40281">
        <ele>131</ele>
        <time>2025-04-12T10:12:26Z</time>
      </trkpt>
      <trkpt lat="43.6371" lon="1.4028">
        <ele>131</ele>
        <time>2025-04-12T10:12:27Z</time>
      </trkpt>
      <trkpt lat="43.63713" lon="1.4028">
        <ele>131</ele>
        <time>2025-04-12T10:12:28Z</time>
      </trkpt>
      <trkpt lat="43.63715" lon="1.40281">
        <ele>131</ele>
        <time>2025-04-12T10:12:29Z</time>
      </trkpt>
      <trkpt lat="43.63721" lon="1.40281">
        <ele>131</ele>
        <time>2025-04-12T10:12:30Z</time>
      </trkpt>
      <trkpt lat="43.63723" lon="1.40281">
        <ele>131</ele>
        <time>2025-04-12T10:12:31Z</time>
      </trkpt>
      <trkpt lat="43.63726" lon="1.40281">
        <ele>131</ele>
        <time>2025-04-12T10:12:32Z</time>
      </trkpt>
      <trkpt lat="43.63728" lon="1.40281">
        <ele>131</ele>
        <time>2025-04-12T10:12:33Z</time>
      </trkpt>
      <trkpt lat="43.6373" lon="1.40281">
        <ele>131</ele>
        <time>2025-04-12T10:12:34Z</time>
      </trkpt>
      <trkpt lat="43.63733" lon="1.40281">
        <ele>131</ele>
        <time>2025-04-12T10:12:35Z</time>
      </trkpt>
      <trkpt lat="43.63736" lon="1.4028">
        <ele>131</ele>
        <time>2025-04-12T10:12:36Z</time>
      </trkpt>
      <trkpt lat="43.63738" lon="1.4028">
        <ele>131</ele>
        <time>2025-04-12T10:12:37Z</time>
      </trkpt>
      <trkpt lat="43.63738" lon="1.4028">
        <ele>131</ele>
        <time>2025-04-12T10:12:38Z</time>
      </trkpt>
      <trkpt lat="43.63741" lon="1.40279">
        <ele>131</ele>
        <time>2025-04-12T10:12:39Z</time>
      </trkpt>
      <trkpt lat="43.63744" lon="1.40278">
        <ele>131</ele>
        <time>2025-04-12T10:12:40Z</time>
      </trkpt>
      <trkpt lat="43.63749" lon="1.40277">
        <ele>131</ele>
        <time>2025-04-12T10:12:41Z</time>
      </trkpt>
      <trkpt lat="43.63752" lon="1.40276">
        <ele>131</ele>
        <time>2025-04-12T10:12:42Z</time>
      </trkpt>
      <trkpt lat="43.63752" lon="1.40276">
        <ele>131</ele>
        <time>2025-04-12T10:12:43Z</time>
      </trkpt>
      <trkpt lat="43.63758" lon="1.40274">
        <ele>131</ele>
        <time>2025-04-12T10:12:44Z</time>
      </trkpt>
      <trkpt lat="43.63758" lon="1.40274">
        <ele>131</ele>
        <time>2025-04-12T10:12:45Z</time>
      </trkpt>
      <trkpt lat="43.6376" lon="1.40273">
        <ele>131</ele>
        <time>2025-04-12T10:12:46Z</time>
      </trkpt>
      <trkpt lat="43.63762" lon="1.40273">
        <ele>131</ele>
        <time>2025-04-12T10:12:47Z</time>
      </trkpt>
      <trkpt lat="43.63768" lon="1.40274">
        <ele>131</ele>
        <time>2025-04-12T10:12:48Z</time>
      </trkpt>
      <trkpt lat="43.63768" lon="1.40274">
        <ele>132</ele>
        <time>2025-04-12T10:12:49Z</time>
      </trkpt>
      <trkpt lat="43.63771" lon="1.40274">
        <ele>132</ele>
        <time>2025-04-12T10:12:50Z</time>
      </trkpt>
      <trkpt lat="43.63777" lon="1.40273">
        <ele>132</ele>
        <time>2025-04-12T10:12:51Z</time>
      </trkpt>
      <trkpt lat="43.63777" lon="1.40273">
        <ele>132</ele>
        <time>2025-04-12T10:12:52Z</time>
      </trkpt>
      <trkpt lat="43.63783" lon="1.40273">
        <ele>131</ele>
        <time>2025-04-12T10:12:53Z</time>
      </trkpt>
      <trkpt lat="43.63786" lon="1.40273">
        <ele>131</ele>
        <time>2025-04-12T10:12:54Z</time>
      </trkpt>
      <trkpt lat="43.63786" lon="1.40273">
        <ele>131</ele>
        <time>2025-04-12T10:12:55Z</time>
      </trkpt>
      <trkpt lat="43.63792" lon="1.40272">
        <ele>131</ele>
        <time>2025-04-12T10:12:56Z</time>
      </trkpt>
      <trkpt lat="43.63794" lon="1.40272">
        <ele>131</ele>
        <time>2025-04-12T10:12:57Z</time>
      </trkpt>
      <trkpt lat="43.63794" lon="1.40272">
        <ele>131</ele>
        <time>2025-04-12T10:12:58Z</time>
      </trkpt>
      <trkpt lat="43.638" lon="1.40272">
        <ele>132</ele>
        <time>2025-04-12T10:12:59Z</time>
      </trkpt>
      <trkpt lat="43.63803" lon="1.40273">
        <ele>132</ele>
        <time>2025-04-12T10:13:00Z</time>
      </trkpt>
      <trkpt lat="43.63806" lon="1.40273">
        <ele>132</ele>
        <time>2025-04-12T10:13:01Z</time>
      </trkpt>
      <trkpt lat="43.63809" lon="1.40272">
        <ele>132</ele>
        <time>2025-04-12T10:13:02Z</time>
      </trkpt>
      <trkpt lat="43.63809" lon="1.40272">
        <ele>132</ele>
        <time>2025-04-12T10:13:03Z</time>
      </trkpt>
      <trkpt lat="43.63815" lon="1.40271">
        <ele>132</ele>
        <time>2025-04-12T10:13:04Z</time>
      </trkpt>
      <trkpt lat="43.63815" lon="1.40271">
        <ele>132</ele>
        <time>2025-04-12T10:13:05Z</time>
      </trkpt>
      <trkpt lat="43.63817" lon="1.40271">
        <ele>132</ele>
        <time>2025-04-12T10:13:06Z</time>
      </trkpt>
      <trkpt lat="43.63819" lon="1.40271">
        <ele>132</ele>
        <time>2025-04-12T10:13:07Z</time>
      </trkpt>
      <trkpt lat="43.63825" lon="1.40269">
        <ele>131</ele>
        <time>2025-04-12T10:13:08Z</time>
      </trkpt>
      <trkpt lat="43.63825" lon="1.40269">
        <ele>131</ele>
        <time>2025-04-12T10:13:09Z</time>
      </trkpt>
      <trkpt lat="43.6383" lon="1.40268">
        <ele>131</ele>
        <time>2025-04-12T10:13:10Z</time>
      </trkpt>
      <trkpt lat="43.63833" lon="1.40267">
        <ele>131</ele>
        <time>2025-04-12T10:13:11Z</time>
      </trkpt>
      <trkpt lat="43.63835" lon="1.40266">
        <ele>131</ele>
        <time>2025-04-12T10:13:12Z</time>
      </trkpt>
      <trkpt lat="43.63835" lon="1.40266">
        <ele>131</ele>
        <time>2025-04-12T10:13:13Z</time>
      </trkpt>
      <trkpt lat="43.6384" lon="1.40265">
        <ele>130</ele>
        <time>2025-04-12T10:13:14Z</time>
      </trkpt>
      <trkpt lat="43.6384" lon="1.40265">
        <ele>130</ele>
        <time>2025-04-12T10:13:15Z</time>
      </trkpt>
      <trkpt lat="43.63841" lon="1.40264">
        <ele>130</ele>
        <time>2025-04-12T10:13:16Z</time>
      </trkpt>
      <trkpt lat="43.63841" lon="1.40264">
        <ele>130</ele>
        <time>2025-04-12T10:13:17Z</time>
      </trkpt>
      <trkpt lat="43.63847" lon="1.40261">
        <ele>130</ele>
        <time>2025-04-12T10:13:18Z</time>
      </trkpt>
      <trkpt lat="43.6385" lon="1.40261">
        <ele>130</ele>
        <time>2025-04-12T10:13:19Z</time>
      </trkpt>
      <trkpt lat="43.6385" lon="1.40261">
        <ele>130</ele>
        <time>2025-04-12T10:13:20Z</time>
      </trkpt>
      <trkpt lat="43.63852" lon="1.4026">
        <ele>130</ele>
        <time>2025-04-12T10:13:21Z</time>
      </trkpt>
      <trkpt lat="43.63855" lon="1.40259">
        <ele>130</ele>
        <time>2025-04-12T10:13:22Z</time>
      </trkpt>
      <trkpt lat="43.6386" lon="1.40258">
        <ele>130</ele>
        <time>2025-04-12T10:13:23Z</time>
      </trkpt>
      <trkpt lat="43.6386" lon="1.40258">
        <ele>130</ele>
        <time>2025-04-12T10:13:24Z</time>
      </trkpt>
      <trkpt lat="43.63865" lon="1.40257">
        <ele>130</ele>
        <time>2025-04-12T10:13:25Z</time>
      </trkpt>
      <trkpt lat="43.63865" lon="1.40257">
        <ele>130</ele>
        <time>2025-04-12T10:13:26Z</time>
      </trkpt>
      <trkpt lat="43.63868" lon="1.40256">
        <ele>130</ele>
        <time>2025-04-12T10:13:27Z</time>
      </trkpt>
      <trkpt lat="43.63874" lon="1.40255">
        <ele>130</ele>
        <time>2025-04-12T10:13:28Z</time>
      </trkpt>
      <trkpt lat="43.63874" lon="1.40255">
        <ele>130</ele>
        <time>2025-04-12T10:13:29Z</time>
      </trkpt>
      <trkpt lat="43.63879" lon="1.40253">
        <ele>130</ele>
        <time>2025-04-12T10:13:30Z</time>
      </trkpt>
      <trkpt lat="43.63882" lon="1.40252">
        <ele>130</ele>
        <time>2025-04-12T10:13:31Z</time>
      </trkpt>
      <trkpt lat="43.63882" lon="1.40252">
        <ele>130</ele>
        <time>2025-04-12T10:13:32Z</time>
      </trkpt>
      <trkpt lat="43.63887" lon="1.4025">
        <ele>130</ele>
        <time>2025-04-12T10:13:33Z</time>
      </trkpt>
      <trkpt lat="43.6389" lon="1.40249">
        <ele>130</ele>
        <time>2025-04-12T10:13:34Z</time>
      </trkpt>
      <trkpt lat="43.6389" lon="1.40249">
        <ele>130</ele>
        <time>2025-04-12T10:13:35Z</time>
      </trkpt>
      <trkpt lat="43.63895" lon="1.40246">
        <ele>130</ele>
        <time>2025-04-12T10:13:36Z</time>
      </trkpt>
      <trkpt lat="43.63895" lon="1.40246">
        <ele>130</ele>
        <time>2025-04-12T10:13:37Z</time>
      </trkpt>
      <trkpt lat="43.63897" lon="1.40245">
        <ele>129</ele>
        <time>2025-04-12T10:13:38Z</time>
      </trkpt>
      <trkpt lat="43.639" lon="1.40243">
        <ele>129</ele>
        <time>2025-04-12T10:13:39Z</time>
      </trkpt>
      <trkpt lat="43.63905" lon="1.40239">
        <ele>130</ele>
        <time>2025-04-12T10:13:40Z</time>
      </trkpt>
      <trkpt lat="43.63905" lon="1.40239">
        <ele>130</ele>
        <time>2025-04-12T10:13:41Z</time>
      </trkpt>
      <trkpt lat="43.6391" lon="1.40237">
        <ele>130</ele>
        <time>2025-04-12T10:13:42Z</time>
      </trkpt>
      <trkpt lat="43.6391" lon="1.40237">
        <ele>130</ele>
        <time>2025-04-12T10:13:43Z</time>
      </trkpt>
      <trkpt lat="43.63913" lon="1.40236">
        <ele>131</ele>
        <time>2025-04-12T10:13:44Z</time>
      </trkpt>
      <trkpt lat="43.63916" lon="1.40235">
        <ele>131</ele>
        <time>2025-04-12T10:13:45Z</time>
      </trkpt>
      <trkpt lat="43.63919" lon="1.40235">
        <ele>131</ele>
        <time>2025-04-12T10:13:46Z</time>
      </trkpt>
      <trkpt lat="43.63925" lon="1.40234">
        <ele>131</ele>
        <time>2025-04-12T10:13:47Z</time>
      </trkpt>
      <trkpt lat="43.63931" lon="1.40232">
        <ele>131</ele>
        <time>2025-04-12T10:13:49Z</time>
      </trkpt>
      <trkpt lat="43.63931" lon="1.40232">
        <ele>131</ele>
        <time>2025-04-12T10:13:50Z</time>
      </trkpt>
      <trkpt lat="43.63934" lon="1.40231">
        <ele>132</ele>
        <time>2025-04-12T10:13:51Z</time>
      </trkpt>
      <trkpt lat="43.63937" lon="1.4023">
        <ele>133</ele>
        <time>2025-04-12T10:13:52Z</time>
      </trkpt>
      <trkpt lat="43.63943" lon="1.40228">
        <ele>133</ele>
        <time>2025-04-12T10:13:53Z</time>
      </trkpt>
      <trkpt lat="43.63945" lon="1.40227">
        <ele>133</ele>
        <time>2025-04-12T10:13:54Z</time>
      </trkpt>
      <trkpt lat="43.63948" lon="1.40226">
        <ele>132</ele>
        <time>2025-04-12T10:13:55Z</time>
      </trkpt>
      <trkpt lat="43.6395" lon="1.40225">
        <ele>132</ele>
        <time>2025-04-12T10:13:56Z</time>
      </trkpt>
      <trkpt lat="43.6395" lon="1.40225">
        <ele>132</ele>
        <time>2025-04-12T10:13:57Z</time>
      </trkpt>
      <trkpt lat="43.63953" lon="1.40224">
        <ele>132</ele>
        <time>2025-04-12T10:13:58Z</time>
      </trkpt>
      <trkpt lat="43.63956" lon="1.40222">
        <ele>131</ele>
        <time>2025-04-12T10:13:59Z</time>
      </trkpt>
      <trkpt lat="43.63958" lon="1.40221">
        <ele>131</ele>
        <time>2025-04-12T10:14:00Z</time>
      </trkpt>
      <trkpt lat="43.63963" lon="1.40218">
        <ele>131</ele>
        <time>2025-04-12T10:14:01Z</time>
      </trkpt>
      <trkpt lat="43.63963" lon="1.40218">
        <ele>131</ele>
        <time>2025-04-12T10:14:02Z</time>
      </trkpt>
      <trkpt lat="43.63968" lon="1.40214">
        <ele>131</ele>
        <time>2025-04-12T10:14:03Z</time>
      </trkpt>
      <trkpt lat="43.63968" lon="1.40214">
        <ele>130</ele>
        <time>2025-04-12T10:14:04Z</time>
      </trkpt>
      <trkpt lat="43.63971" lon="1.40213">
        <ele>130</ele>
        <time>2025-04-12T10:14:05Z</time>
      </trkpt>
      <trkpt lat="43.63973" lon="1.40211">
        <ele>130</ele>
        <time>2025-04-12T10:14:06Z</time>
      </trkpt>
      <trkpt lat="43.63978" lon="1.40207">
        <ele>130</ele>
        <time>2025-04-12T10:14:07Z</time>
      </trkpt>
      <trkpt lat="43.63982" lon="1.40202">
        <ele>130</ele>
        <time>2025-04-12T10:14:09Z</time>
      </trkpt>
      <trkpt lat="43.63985" lon="1.402">
        <ele>130</ele>
        <time>2025-04-12T10:14:10Z</time>
      </trkpt>
      <trkpt lat="43.63987" lon="1.40198">
        <ele>130</ele>
        <time>2025-04-12T10:14:11Z</time>
      </trkpt>
      <trkpt lat="43.63987" lon="1.40198">
        <ele>130</ele>
        <time>2025-04-12T10:14:12Z</time>
      </trkpt>
      <trkpt lat="43.6399" lon="1.40196">
        <ele>130</ele>
        <time>2025-04-12T10:14:13Z</time>
      </trkpt>
      <trkpt lat="43.63992" lon="1.40194">
        <ele>130</ele>
        <time>2025-04-12T10:14:14Z</time>
      </trkpt>
      <trkpt lat="43.63994" lon="1.40192">
        <ele>130</ele>
        <time>2025-04-12T10:14:15Z</time>
      </trkpt>
      <trkpt lat="43.63999" lon="1.40188">
        <ele>130</ele>
        <time>2025-04-12T10:14:16Z</time>
      </trkpt>
      <trkpt lat="43.63999" lon="1.40188">
        <ele>130</ele>
        <time>2025-04-12T10:14:17Z</time>
      </trkpt>
      <trkpt lat="43.64004" lon="1.40184">
        <ele>131</ele>
        <time>2025-04-12T10:14:18Z</time>
      </trkpt>
      <trkpt lat="43.64006" lon="1.40182">
        <ele>131</ele>
        <time>2025-04-12T10:14:19Z</time>
      </trkpt>
      <trkpt lat="43.64006" lon="1.40182">
        <ele>132</ele>
        <time>2025-04-12T10:14:20Z</time>
      </trkpt>
      <trkpt lat="43.6401" lon="1.40177">
        <ele>132</ele>
        <time>2025-04-12T10:14:21Z</time>
      </trkpt>
      <trkpt lat="43.6401" lon="1.40177">
        <ele>132</ele>
        <time>2025-04-12T10:14:22Z</time>
      </trkpt>
      <trkpt lat="43.64012" lon="1.40175">
        <ele>132</ele>
        <time>2025-04-12T10:14:23Z</time>
      </trkpt>
      <trkpt lat="43.64015" lon="1.40168">
        <ele>132</ele>
        <time>2025-04-12T10:14:24Z</time>
      </trkpt>
      <trkpt lat="43.64016" lon="1.40164">
        <ele>132</ele>
        <time>2025-04-12T10:14:25Z</time>
      </trkpt>
      <trkpt lat="43.64017" lon="1.4016">
        <ele>132</ele>
        <time>2025-04-12T10:14:26Z</time>
      </trkpt>
      <trkpt lat="43.64017" lon="1.4016">
        <ele>132</ele>
        <time>2025-04-12T10:14:27Z</time>
      </trkpt>
      <trkpt lat="43.64017" lon="1.40157">
        <ele>132</ele>
        <time>2025-04-12T10:14:28Z</time>
      </trkpt>
      <trkpt lat="43.64018" lon="1.40154">
        <ele>132</ele>
        <time>2025-04-12T10:14:29Z</time>
      </trkpt>
      <trkpt lat="43.64019" lon="1.40147">
        <ele>133</ele>
        <time>2025-04-12T10:14:30Z</time>
      </trkpt>
      <trkpt lat="43.64019" lon="1.40147">
        <ele>133</ele>
        <time>2025-04-12T10:14:31Z</time>
      </trkpt>
      <trkpt lat="43.6402" lon="1.40142">
        <ele>133</ele>
        <time>2025-04-12T10:14:32Z</time>
      </trkpt>
      <trkpt lat="43.6402" lon="1.40142">
        <ele>133</ele>
        <time>2025-04-12T10:14:33Z</time>
      </trkpt>
      <trkpt lat="43.64021" lon="1.40138">
        <ele>133</ele>
        <time>2025-04-12T10:14:34Z</time>
      </trkpt>
      <trkpt lat="43.64021" lon="1.40138">
        <ele>133</ele>
        <time>2025-04-12T10:14:35Z</time>
      </trkpt>
      <trkpt lat="43.64021" lon="1.40138">
        <ele>133</ele>
        <time>2025-04-12T10:14:36Z</time>
      </trkpt>
      <trkpt lat="43.64022" lon="1.40135">
        <ele>134</ele>
        <time>2025-04-12T10:14:37Z</time>
      </trkpt>
      <trkpt lat="43.64022" lon="1.40135">
        <ele>135</ele>
        <time>2025-04-12T10:14:38Z</time>
      </trkpt>
      <trkpt lat="43.64022" lon="1.40131">
        <ele>135</ele>
        <time>2025-04-12T10:14:39Z</time>
      </trkpt>
      <trkpt lat="43.64022" lon="1.40131">
        <ele>135</ele>
        <time>2025-04-12T10:14:40Z</time>
      </trkpt>
      <trkpt lat="43.64022" lon="1.40128">
        <ele>135</ele>
        <time>2025-04-12T10:14:41Z</time>
      </trkpt>
      <trkpt lat="43.64022" lon="1.40128">
        <ele>135</ele>
        <time>2025-04-12T10:14:42Z</time>
      </trkpt>
      <trkpt lat="43.64022" lon="1.40128">
        <ele>135</ele>
        <time>2025-04-12T10:14:43Z</time>
      </trkpt>
      <trkpt lat="43.64021" lon="1.40125">
        <ele>136</ele>
        <time>2025-04-12T10:14:44Z</time>
      </trkpt>
      <trkpt lat="43.64021" lon="1.40125">
        <ele>136</ele>
        <time>2025-04-12T10:14:45Z</time>
      </trkpt>
      <trkpt lat="43.64022" lon="1.40121">
        <ele>137</ele>
        <time>2025-04-12T10:14:46Z</time>
      </trkpt>
      <trkpt lat="43.64024" lon="1.40119">
        <ele>137</ele>
        <time>2025-04-12T10:14:47Z</time>
      </trkpt>
      <trkpt lat="43.64024" lon="1.40119">
        <ele>137</ele>
        <time>2025-04-12T10:14:48Z</time>
      </trkpt>
      <trkpt lat="43.64024" lon="1.40119">
        <ele>137</ele>
        <time>2025-04-12T10:14:49Z</time>
      </trkpt>
      <trkpt lat="43.64027" lon="1.40117">
        <ele>137</ele>
        <time>2025-04-12T10:14:50Z</time>
      </trkpt>
      <trkpt lat="43.64029" lon="1.40114">
        <ele>137</ele>
        <time>2025-04-12T10:14:51Z</time>
      </trkpt>
      <trkpt lat="43.64029" lon="1.40114">
        <ele>137</ele>
        <time>2025-04-12T10:14:52Z</time>
      </trkpt>
      <trkpt lat="43.64032" lon="1.40112">
        <ele>137</ele>
        <time>2025-04-12T10:14:53Z</time>
      </trkpt>
      <trkpt lat="43.64032" lon="1.40112">
        <ele>137</ele>
        <time>2025-04-12T10:14:54Z</time>
      </trkpt>
      <trkpt lat="43.64036" lon="1.40108">
        <ele>137</ele>
        <time>2025-04-12T10:14:55Z</time>
      </trkpt>
      <trkpt lat="43.64036" lon="1.40108">
        <ele>137</ele>
        <time>2025-04-12T10:14:56Z</time>
      </trkpt>
      <trkpt lat="43.64038" lon="1.40106">
        <ele>137</ele>
        <time>2025-04-12T10:14:57Z</time>
      </trkpt>
      <trkpt lat="43.64042" lon="1.40102">
        <ele>137</ele>
        <time>2025-04-12T10:14:58Z</time>
      </trkpt>
      <trkpt lat="43.64045" lon="1.401">
        <ele>137</ele>
        <time>2025-04-12T10:14:59Z</time>
      </trkpt>
      <trkpt lat="43.64045" lon="1.401">
        <ele>137</ele>
        <time>2025-04-12T10:15:00Z</time>
      </trkpt>
      <trkpt lat="43.64049" lon="1.40096">
        <ele>137</ele>
        <time>2025-04-12T10:15:01Z</time>
      </trkpt>
      <trkpt lat="43.64049" lon="1.40096">
        <ele>137</ele>
        <time>2025-04-12T10:15:02Z</time>
      </trkpt>
      <trkpt lat="43.64053" lon="1.40091">
        <ele>137</ele>
        <time>2025-04-12T10:15:03Z</time>
      </trkpt>
      <trkpt lat="43.64056" lon="1.40089">
        <ele>136</ele>
        <time>2025-04-12T10:15:04Z</time>
      </trkpt>
      <trkpt lat="43.64058" lon="1.40086">
        <ele>136</ele>
        <time>2025-04-12T10:15:05Z</time>
      </trkpt>
      <trkpt lat="43.64058" lon="1.40086">
        <ele>136</ele>
        <time>2025-04-12T10:15:06Z</time>
      </trkpt>
      <trkpt lat="43.6406" lon="1.40084">
        <ele>136</ele>
        <time>2025-04-12T10:15:07Z</time>
      </trkpt>
      <trkpt lat="43.64062" lon="1.40081">
        <ele>136</ele>
        <time>2025-04-12T10:15:08Z</time>
      </trkpt>
      <trkpt lat="43.64066" lon="1.40076">
        <ele>136</ele>
        <time>2025-04-12T10:15:09Z</time>
      </trkpt>
      <trkpt lat="43.64068" lon="1.40074">
        <ele>136</ele>
        <time>2025-04-12T10:15:10Z</time>
      </trkpt>
      <trkpt lat="43.64071" lon="1.40072">
        <ele>136</ele>
        <time>2025-04-12T10:15:11Z</time>
      </trkpt>
      <trkpt lat="43.64071" lon="1.40072">
        <ele>136</ele>
        <time>2025-04-12T10:15:12Z</time>
      </trkpt>
      <trkpt lat="43.64075" lon="1.40067">
        <ele>136</ele>
        <time>2025-04-12T10:15:13Z</time>
      </trkpt>
      <trkpt lat="43.64077" lon="1.40065">
        <ele>136</ele>
        <time>2025-04-12T10:15:14Z</time>
      </trkpt>
      <trkpt lat="43.64077" lon="1.40065">
        <ele>136</ele>
        <time>2025-04-12T10:15:15Z</time>
      </trkpt>
      <trkpt lat="43.64079" lon="1.40062">
        <ele>136</ele>
        <time>2025-04-12T10:15:16Z</time>
      </trkpt>
      <trkpt lat="43.64081" lon="1.4006">
        <ele>136</ele>
        <time>2025-04-12T10:15:17Z</time>
      </trkpt>
      <trkpt lat="43.64085" lon="1.40055">
        <ele>136</ele>
        <time>2025-04-12T10:15:18Z</time>
      </trkpt>
      <trkpt lat="43.64087" lon="1.40052">
        <ele>136</ele>
        <time>2025-04-12T10:15:19Z</time>
      </trkpt>
      <trkpt lat="43.64089" lon="1.4005">
        <ele>136</ele>
        <time>2025-04-12T10:15:20Z</time>
      </trkpt>
      <trkpt lat="43.6409" lon="1.40047">
        <ele>136</ele>
        <time>2025-04-12T10:15:21Z</time>
      </trkpt>
      <trkpt lat="43.64092" lon="1.40044">
        <ele>136</ele>
        <time>2025-04-12T10:15:22Z</time>
      </trkpt>
      <trkpt lat="43.64092" lon="1.40044">
        <ele>136</ele>
        <time>2025-04-12T10:15:23Z</time>
      </trkpt>
      <trkpt lat="43.64095" lon="1.40037">
        <ele>136</ele>
        <time>2025-04-12T10:15:24Z</time>
      </trkpt>
      <trkpt lat="43.64095" lon="1.40037">
        <ele>136</ele>
        <time>2025-04-12T10:15:25Z</time>
      </trkpt>
      <trkpt lat="43.64096" lon="1.40034">
        <ele>136</ele>
        <time>2025-04-12T10:15:26Z</time>
      </trkpt>
      <trkpt lat="43.64097" lon="1.40031">
        <ele>136</ele>
        <time>2025-04-12T10:15:27Z</time>
      </trkpt>
      <trkpt lat="43.641" lon="1.40024">
        <ele>136</ele>
        <time>2025-04-12T10:15:28Z</time>
      </trkpt>
      <trkpt lat="43.64101" lon="1.40021">
        <ele>136</ele>
        <time>2025-04-12T10:15:29Z</time>
      </trkpt>
      <trkpt lat="43.64102" lon="1.40018">
        <ele>136</ele>
        <time>2025-04-12T10:15:30Z</time>
      </trkpt>
      <trkpt lat="43.64102" lon="1.40018">
        <ele>136</ele>
        <time>2025-04-12T10:15:31Z</time>
      </trkpt>
      <trkpt lat="43.64105" lon="1.40011">
        <ele>136</ele>
        <time>2025-04-12T10:15:32Z</time>
      </trkpt>
      <trkpt lat="43.64106" lon="1.40008">
        <ele>136</ele>
        <time>2025-04-12T10:15:33Z</time>
      </trkpt>
      <trkpt lat="43.64106" lon="1.40008">
        <ele>136</ele>
        <time>2025-04-12T10:15:34Z</time>
      </trkpt>
      <trkpt lat="43.64109" lon="1.40001">
        <ele>137</ele>
        <time>2025-04-12T10:15:35Z</time>
      </trkpt>
      <trkpt lat="43.64109" lon="1.40001">
        <ele>137</ele>
        <time>2025-04-12T10:15:36Z</time>
      </trkpt>
      <trkpt lat="43.64111" lon="1.39994">
        <ele>136</ele>
        <time>2025-04-12T10:15:37Z</time>
      </trkpt>
      <trkpt lat="43.64111" lon="1.39994">
        <ele>136</ele>
        <time>2025-04-12T10:15:38Z</time>
      </trkpt>
      <trkpt lat="43.64115" lon="1.39988">
        <ele>136</ele>
        <time>2025-04-12T10:15:39Z</time>
      </trkpt>
      <trkpt lat="43.64115" lon="1.39988">
        <ele>136</ele>
        <time>2025-04-12T10:15:40Z</time>
      </trkpt>
      <trkpt lat="43.64119" lon="1.39983">
        <ele>136</ele>
        <time>2025-04-12T10:15:41Z</time>
      </trkpt>
      <trkpt lat="43.64119" lon="1.39983">
        <ele>136</ele>
        <time>2025-04-12T10:15:42Z</time>
      </trkpt>
      <trkpt lat="43.64122" lon="1.39981">
        <ele>136</ele>
        <time>2025-04-12T10:15:43Z</time>
      </trkpt>
      <trkpt lat="43.64124" lon="1.3998">
        <ele>136</ele>
        <time>2025-04-12T10:15:44Z</time>
      </trkpt>
      <trkpt lat="43.64127" lon="1.39978">
        <ele>136</ele>
        <time>2025-04-12T10:15:45Z</time>
      </trkpt>
      <trkpt lat="43.64133" lon="1.39977">
        <ele>136</ele>
        <time>2025-04-12T10:15:46Z</time>
      </trkpt>
      <trkpt lat="43.64133" lon="1.39977">
        <ele>136</ele>
        <time>2025-04-12T10:15:47Z</time>
      </trkpt>
      <trkpt lat="43.64138" lon="1.39977">
        <ele>135</ele>
        <time>2025-04-12T10:15:48Z</time>
      </trkpt>
      <trkpt lat="43.64138" lon="1.39977">
        <ele>135</ele>
        <time>2025-04-12T10:15:49Z</time>
      </trkpt>
      <trkpt lat="43.64141" lon="1.39976">
        <ele>136</ele>
        <time>2025-04-12T10:15:50Z</time>
      </trkpt>
      <trkpt lat="43.64147" lon="1.39976">
        <ele>136</ele>
        <time>2025-04-12T10:15:51Z</time>
      </trkpt>
      <trkpt lat="43.64147" lon="1.39976">
        <ele>136</ele>
        <time>2025-04-12T10:15:52Z</time>
      </trkpt>
      <trkpt lat="43.6415" lon="1.39975">
        <ele>135</ele>
        <time>2025-04-12T10:15:53Z</time>
      </trkpt>
      <trkpt lat="43.64153" lon="1.39974">
        <ele>135</ele>
        <time>2025-04-12T10:15:54Z</time>
      </trkpt>
      <trkpt lat="43.64159" lon="1.39972">
        <ele>135</ele>
        <time>2025-04-12T10:15:55Z</time>
      </trkpt>
      <trkpt lat="43.64162" lon="1.39971">
        <ele>135</ele>
        <time>2025-04-12T10:15:56Z</time>
      </trkpt>
      <trkpt lat="43.64162" lon="1.39971">
        <ele>134</ele>
        <time>2025-04-12T10:15:57Z</time>
      </trkpt>
      <trkpt lat="43.64164" lon="1.3997">
        <ele>135</ele>
        <time>2025-04-12T10:15:58Z</time>
      </trkpt>
      <trkpt lat="43.64167" lon="1.39969">
        <ele>135</ele>
        <time>2025-04-12T10:15:59Z</time>
      </trkpt>
      <trkpt lat="43.64172" lon="1.39967">
        <ele>135</ele>
        <time>2025-04-12T10:16:00Z</time>
      </trkpt>
      <trkpt lat="43.64175" lon="1.39966">
        <ele>135</ele>
        <time>2025-04-12T10:16:01Z</time>
      </trkpt>
      <trkpt lat="43.64177" lon="1.39966">
        <ele>135</ele>
        <time>2025-04-12T10:16:03Z</time>
      </trkpt>
      <trkpt lat="43.64182" lon="1.39964">
        <ele>135</ele>
        <time>2025-04-12T10:16:04Z</time>
      </trkpt>
      <trkpt lat="43.64182" lon="1.39964">
        <ele>135</ele>
        <time>2025-04-12T10:16:05Z</time>
      </trkpt>
      <trkpt lat="43.64187" lon="1.39962">
        <ele>135</ele>
        <time>2025-04-12T10:16:06Z</time>
      </trkpt>
      <trkpt lat="43.6419" lon="1.3996">
        <ele>134</ele>
        <time>2025-04-12T10:16:07Z</time>
      </trkpt>
      <trkpt lat="43.64192" lon="1.39959">
        <ele>134</ele>
        <time>2025-04-12T10:16:08Z</time>
      </trkpt>
      <trkpt lat="43.64192" lon="1.39959">
        <ele>134</ele>
        <time>2025-04-12T10:16:09Z</time>
      </trkpt>
      <trkpt lat="43.64194" lon="1.39957">
        <ele>134</ele>
        <time>2025-04-12T10:16:10Z</time>
      </trkpt>
      <trkpt lat="43.64197" lon="1.39956">
        <ele>134</ele>
        <time>2025-04-12T10:16:11Z</time>
      </trkpt>
      <trkpt lat="43.64202" lon="1.39952">
        <ele>134</ele>
        <time>2025-04-12T10:16:12Z</time>
      </trkpt>
      <trkpt lat="43.64204" lon="1.3995">
        <ele>134</ele>
        <time>2025-04-12T10:16:13Z</time>
      </trkpt>
      <trkpt lat="43.64206" lon="1.39947">
        <ele>134</ele>
        <time>2025-04-12T10:16:14Z</time>
      </trkpt>
      <trkpt lat="43.64206" lon="1.39947">
        <ele>134</ele>
        <time>2025-04-12T10:16:15Z</time>
      </trkpt>
      <trkpt lat="43.64209" lon="1.39945">
        <ele>134</ele>
        <time>2025-04-12T10:16:16Z</time>
      </trkpt>
      <trkpt lat="43.64211" lon="1.39943">
        <ele>134</ele>
        <time>2025-04-12T10:16:17Z</time>
      </trkpt>
      <trkpt lat="43.64213" lon="1.3994">
        <ele>134</ele>
        <time>2025-04-12T10:16:18Z</time>
      </trkpt>
      <trkpt lat="43.64215" lon="1.39938">
        <ele>134</ele>
        <time>2025-04-12T10:16:19Z</time>
      </trkpt>
      <trkpt lat="43.6422" lon="1.39934">
        <ele>134</ele>
        <time>2025-04-12T10:16:20Z</time>
      </trkpt>
      <trkpt lat="43.6422" lon="1.39934">
        <ele>134</ele>
        <time>2025-04-12T10:16:21Z</time>
      </trkpt>
      <trkpt lat="43.64222" lon="1.39932">
        <ele>134</ele>
        <time>2025-04-12T10:16:22Z</time>
      </trkpt>
      <trkpt lat="43.64225" lon="1.39931">
        <ele>134</ele>
        <time>2025-04-12T10:16:23Z</time>
      </trkpt>
      <trkpt lat="43.6423" lon="1.39927">
        <ele>134</ele>
        <time>2025-04-12T10:16:24Z</time>
      </trkpt>
      <trkpt lat="43.64232" lon="1.39926">
        <ele>134</ele>
        <time>2025-04-12T10:16:25Z</time>
      </trkpt>
      <trkpt lat="43.64235" lon="1.39924">
        <ele>134</ele>
        <time>2025-04-12T10:16:26Z</time>
      </trkpt>
      <trkpt lat="43.64235" lon="1.39924">
        <ele>134</ele>
        <time>2025-04-12T10:16:27Z</time>
      </trkpt>
      <trkpt lat="43.64238" lon="1.39923">
        <ele>134</ele>
        <time>2025-04-12T10:16:28Z</time>
      </trkpt>
      <trkpt lat="43.64243" lon="1.39921">
        <ele>134</ele>
        <time>2025-04-12T10:16:29Z</time>
      </trkpt>
      <trkpt lat="43.64243" lon="1.39921">
        <ele>134</ele>
        <time>2025-04-12T10:16:30Z</time>
      </trkpt>
      <trkpt lat="43.64246" lon="1.3992">
        <ele>134</ele>
        <time>2025-04-12T10:16:31Z</time>
      </trkpt>
      <trkpt lat="43.64249" lon="1.3992">
        <ele>134</ele>
        <time>2025-04-12T10:16:32Z</time>
      </trkpt>
      <trkpt lat="43.64254" lon="1.39919">
        <ele>134</ele>
        <time>2025-04-12T10:16:33Z</time>
      </trkpt>
      <trkpt lat="43.64257" lon="1.39919">
        <ele>134</ele>
        <time>2025-04-12T10:16:34Z</time>
      </trkpt>
      <trkpt lat="43.64257" lon="1.39919">
        <ele>134</ele>
        <time>2025-04-12T10:16:35Z</time>
      </trkpt>
      <trkpt lat="43.64263" lon="1.39918">
        <ele>134</ele>
        <time>2025-04-12T10:16:36Z</time>
      </trkpt>
      <trkpt lat="43.64263" lon="1.39918">
        <ele>134</ele>
        <time>2025-04-12T10:16:37Z</time>
      </trkpt>
      <trkpt lat="43.64266" lon="1.39919">
        <ele>134</ele>
        <time>2025-04-12T10:16:38Z</time>
      </trkpt>
      <trkpt lat="43.64272" lon="1.39918">
        <ele>134</ele>
        <time>2025-04-12T10:16:39Z</time>
      </trkpt>
      <trkpt lat="43.64272" lon="1.39918">
        <ele>134</ele>
        <time>2025-04-12T10:16:40Z</time>
      </trkpt>
      <trkpt lat="43.64274" lon="1.39918">
        <ele>134</ele>
        <time>2025-04-12T10:16:41Z</time>
      </trkpt>
      <trkpt lat="43.64277" lon="1.39919">
        <ele>134</ele>
        <time>2025-04-12T10:16:42Z</time>
      </trkpt>
      <trkpt lat="43.6428" lon="1.3992">
        <ele>134</ele>
        <time>2025-04-12T10:16:43Z</time>
      </trkpt>
      <trkpt lat="43.64285" lon="1.39922">
        <ele>134</ele>
        <time>2025-04-12T10:16:44Z</time>
      </trkpt>
      <trkpt lat="43.64288" lon="1.39923">
        <ele>134</ele>
        <time>2025-04-12T10:16:45Z</time>
      </trkpt>
      <trkpt lat="43.64288" lon="1.39923">
        <ele>135</ele>
        <time>2025-04-12T10:16:46Z</time>
      </trkpt>
      <trkpt lat="43.64291" lon="1.39924">
        <ele>135</ele>
        <time>2025-04-12T10:16:47Z</time>
      </trkpt>
      <trkpt lat="43.64293" lon="1.39925">
        <ele>134</ele>
        <time>2025-04-12T10:16:48Z</time>
      </trkpt>
      <trkpt lat="43.64299" lon="1.39927">
        <ele>134</ele>
        <time>2025-04-12T10:16:49Z</time>
      </trkpt>
      <trkpt lat="43.64299" lon="1.39927">
        <ele>134</ele>
        <time>2025-04-12T10:16:50Z</time>
      </trkpt>
    </trkseg>
  </trk>
</gpx>